<?xml version="1.0" encoding="UTF-8" standalone="no" ?>
<gpx xmlns="http://www.topografix.com/GPX/1/1" xmlns:xsi="http://www.w3.org/2001/XMLSchema-instance" xsi:schemaLocation="http://www.topografix.com/GPX/1/1 http://www.topografix.com/GPX/1/1/gpx.xsd" version="1.1" creator="VisuGPX - https://www.visugpx.com">
  <metadata>
    <name>Sortie vélo dans l'après-midi</name>
  </metadata>
  <trk>
    <name><![CDATA[Sortie vélo dans l'après-midi]]></name>
    <trkseg>
      <trkpt lat="45.66111" lon="2.96694">
        <ele>948</ele>
        <time>2022-08-17T11:26:28Z</time>
      </trkpt>
      <trkpt lat="45.66112" lon="2.96693">
        <ele>948</ele>
        <time>2022-08-17T11:26:38Z</time>
      </trkpt>
      <trkpt lat="45.66112" lon="2.96693">
        <ele>948</ele>
        <time>2022-08-17T11:26:46Z</time>
      </trkpt>
      <trkpt lat="45.66113" lon="2.96692">
        <ele>948</ele>
        <time>2022-08-17T11:26:48Z</time>
      </trkpt>
      <trkpt lat="45.66113" lon="2.96691">
        <ele>948</ele>
        <time>2022-08-17T11:26:58Z</time>
      </trkpt>
      <trkpt lat="45.66114" lon="2.9669">
        <ele>948</ele>
        <time>2022-08-17T11:27:08Z</time>
      </trkpt>
      <trkpt lat="45.66114" lon="2.96689">
        <ele>948</ele>
        <time>2022-08-17T11:27:18Z</time>
      </trkpt>
      <trkpt lat="45.66115" lon="2.96688">
        <ele>948</ele>
        <time>2022-08-17T11:27:28Z</time>
      </trkpt>
      <trkpt lat="45.66115" lon="2.96687">
        <ele>948</ele>
        <time>2022-08-17T11:27:38Z</time>
      </trkpt>
      <trkpt lat="45.66116" lon="2.96686">
        <ele>948</ele>
        <time>2022-08-17T11:27:44Z</time>
      </trkpt>
      <trkpt lat="45.66116" lon="2.96685">
        <ele>948</ele>
        <time>2022-08-17T11:27:48Z</time>
      </trkpt>
      <trkpt lat="45.66117" lon="2.96685">
        <ele>948</ele>
        <time>2022-08-17T11:27:58Z</time>
      </trkpt>
      <trkpt lat="45.66117" lon="2.96684">
        <ele>948</ele>
        <time>2022-08-17T11:28:02Z</time>
      </trkpt>
      <trkpt lat="45.66118" lon="2.96683">
        <ele>948</ele>
        <time>2022-08-17T11:28:06Z</time>
      </trkpt>
      <trkpt lat="45.66119" lon="2.96682">
        <ele>948</ele>
        <time>2022-08-17T11:28:08Z</time>
      </trkpt>
      <trkpt lat="45.66123" lon="2.96669">
        <ele>948</ele>
        <time>2022-08-17T11:28:11Z</time>
      </trkpt>
      <trkpt lat="45.66123" lon="2.96666">
        <ele>948</ele>
        <time>2022-08-17T11:28:16Z</time>
      </trkpt>
      <trkpt lat="45.66123" lon="2.96663">
        <ele>948</ele>
        <time>2022-08-17T11:28:18Z</time>
      </trkpt>
      <trkpt lat="45.66127" lon="2.96656">
        <ele>948</ele>
        <time>2022-08-17T11:28:27Z</time>
      </trkpt>
      <trkpt lat="45.66127" lon="2.96656">
        <ele>948</ele>
        <time>2022-08-17T11:28:28Z</time>
      </trkpt>
      <trkpt lat="45.66134" lon="2.96655">
        <ele>948</ele>
        <time>2022-08-17T11:28:32Z</time>
      </trkpt>
      <trkpt lat="45.6614" lon="2.96651">
        <ele>948</ele>
        <time>2022-08-17T11:28:36Z</time>
      </trkpt>
      <trkpt lat="45.6614" lon="2.96651">
        <ele>950</ele>
        <time>2022-08-17T11:28:38Z</time>
      </trkpt>
      <trkpt lat="45.66146" lon="2.96649">
        <ele>950</ele>
        <time>2022-08-17T11:28:40Z</time>
      </trkpt>
      <trkpt lat="45.66152" lon="2.96647">
        <ele>950</ele>
        <time>2022-08-17T11:28:44Z</time>
      </trkpt>
      <trkpt lat="45.66152" lon="2.96647">
        <ele>950</ele>
        <time>2022-08-17T11:28:48Z</time>
      </trkpt>
      <trkpt lat="45.66162" lon="2.9664">
        <ele>950</ele>
        <time>2022-08-17T11:28:49Z</time>
      </trkpt>
      <trkpt lat="45.66165" lon="2.96638">
        <ele>950</ele>
        <time>2022-08-17T11:28:53Z</time>
      </trkpt>
      <trkpt lat="45.66168" lon="2.96636">
        <ele>950</ele>
        <time>2022-08-17T11:28:57Z</time>
      </trkpt>
      <trkpt lat="45.66172" lon="2.96634">
        <ele>952</ele>
        <time>2022-08-17T11:28:58Z</time>
      </trkpt>
      <trkpt lat="45.66177" lon="2.9663">
        <ele>952</ele>
        <time>2022-08-17T11:29:01Z</time>
      </trkpt>
      <trkpt lat="45.66183" lon="2.96626">
        <ele>952</ele>
        <time>2022-08-17T11:29:04Z</time>
      </trkpt>
      <trkpt lat="45.66192" lon="2.96622">
        <ele>954</ele>
        <time>2022-08-17T11:29:08Z</time>
      </trkpt>
      <trkpt lat="45.66202" lon="2.96614">
        <ele>954</ele>
        <time>2022-08-17T11:29:12Z</time>
      </trkpt>
      <trkpt lat="45.66204" lon="2.96612">
        <ele>954</ele>
        <time>2022-08-17T11:29:16Z</time>
      </trkpt>
      <trkpt lat="45.66206" lon="2.96609">
        <ele>956</ele>
        <time>2022-08-17T11:29:18Z</time>
      </trkpt>
      <trkpt lat="45.66212" lon="2.96597">
        <ele>956</ele>
        <time>2022-08-17T11:29:19Z</time>
      </trkpt>
      <trkpt lat="45.66213" lon="2.96592">
        <ele>956</ele>
        <time>2022-08-17T11:29:22Z</time>
      </trkpt>
      <trkpt lat="45.66215" lon="2.96588">
        <ele>956</ele>
        <time>2022-08-17T11:29:26Z</time>
      </trkpt>
      <trkpt lat="45.66216" lon="2.96584">
        <ele>958</ele>
        <time>2022-08-17T11:29:28Z</time>
      </trkpt>
      <trkpt lat="45.66207" lon="2.96578">
        <ele>958</ele>
        <time>2022-08-17T11:29:30Z</time>
      </trkpt>
      <trkpt lat="45.66201" lon="2.9658">
        <ele>958</ele>
        <time>2022-08-17T11:29:32Z</time>
      </trkpt>
      <trkpt lat="45.66196" lon="2.96581">
        <ele>958</ele>
        <time>2022-08-17T11:29:34Z</time>
      </trkpt>
      <trkpt lat="45.66191" lon="2.96582">
        <ele>958</ele>
        <time>2022-08-17T11:29:36Z</time>
      </trkpt>
      <trkpt lat="45.66186" lon="2.96583">
        <ele>959</ele>
        <time>2022-08-17T11:29:38Z</time>
      </trkpt>
      <trkpt lat="45.66172" lon="2.96583">
        <ele>959</ele>
        <time>2022-08-17T11:29:40Z</time>
      </trkpt>
      <trkpt lat="45.66166" lon="2.96583">
        <ele>959</ele>
        <time>2022-08-17T11:29:42Z</time>
      </trkpt>
      <trkpt lat="45.66159" lon="2.96582">
        <ele>959</ele>
        <time>2022-08-17T11:29:44Z</time>
      </trkpt>
      <trkpt lat="45.66153" lon="2.96582">
        <ele>959</ele>
        <time>2022-08-17T11:29:46Z</time>
      </trkpt>
      <trkpt lat="45.66147" lon="2.96581">
        <ele>959</ele>
        <time>2022-08-17T11:29:48Z</time>
      </trkpt>
      <trkpt lat="45.66133" lon="2.96575">
        <ele>959</ele>
        <time>2022-08-17T11:29:50Z</time>
      </trkpt>
      <trkpt lat="45.66127" lon="2.96572">
        <ele>959</ele>
        <time>2022-08-17T11:29:52Z</time>
      </trkpt>
      <trkpt lat="45.66121" lon="2.96568">
        <ele>959</ele>
        <time>2022-08-17T11:29:54Z</time>
      </trkpt>
      <trkpt lat="45.66114" lon="2.96565">
        <ele>959</ele>
        <time>2022-08-17T11:29:56Z</time>
      </trkpt>
      <trkpt lat="45.66108" lon="2.96562">
        <ele>960</ele>
        <time>2022-08-17T11:29:58Z</time>
      </trkpt>
      <trkpt lat="45.66095" lon="2.96555">
        <ele>960</ele>
        <time>2022-08-17T11:30:00Z</time>
      </trkpt>
      <trkpt lat="45.66089" lon="2.96551">
        <ele>960</ele>
        <time>2022-08-17T11:30:02Z</time>
      </trkpt>
      <trkpt lat="45.66083" lon="2.96548">
        <ele>960</ele>
        <time>2022-08-17T11:30:04Z</time>
      </trkpt>
      <trkpt lat="45.66077" lon="2.96544">
        <ele>960</ele>
        <time>2022-08-17T11:30:06Z</time>
      </trkpt>
      <trkpt lat="45.66071" lon="2.96541">
        <ele>961</ele>
        <time>2022-08-17T11:30:08Z</time>
      </trkpt>
      <trkpt lat="45.6606" lon="2.96534">
        <ele>961</ele>
        <time>2022-08-17T11:30:10Z</time>
      </trkpt>
      <trkpt lat="45.66055" lon="2.96531">
        <ele>961</ele>
        <time>2022-08-17T11:30:12Z</time>
      </trkpt>
      <trkpt lat="45.66051" lon="2.96529">
        <ele>961</ele>
        <time>2022-08-17T11:30:14Z</time>
      </trkpt>
      <trkpt lat="45.66047" lon="2.96526">
        <ele>961</ele>
        <time>2022-08-17T11:30:16Z</time>
      </trkpt>
      <trkpt lat="45.66043" lon="2.96523">
        <ele>961</ele>
        <time>2022-08-17T11:30:18Z</time>
      </trkpt>
      <trkpt lat="45.66027" lon="2.96512">
        <ele>961</ele>
        <time>2022-08-17T11:30:19Z</time>
      </trkpt>
      <trkpt lat="45.66023" lon="2.96508">
        <ele>961</ele>
        <time>2022-08-17T11:30:21Z</time>
      </trkpt>
      <trkpt lat="45.66018" lon="2.96503">
        <ele>961</ele>
        <time>2022-08-17T11:30:23Z</time>
      </trkpt>
      <trkpt lat="45.66013" lon="2.96499">
        <ele>961</ele>
        <time>2022-08-17T11:30:25Z</time>
      </trkpt>
      <trkpt lat="45.66008" lon="2.96494">
        <ele>961</ele>
        <time>2022-08-17T11:30:27Z</time>
      </trkpt>
      <trkpt lat="45.66004" lon="2.9649">
        <ele>963</ele>
        <time>2022-08-17T11:30:28Z</time>
      </trkpt>
      <trkpt lat="45.65997" lon="2.9648">
        <ele>963</ele>
        <time>2022-08-17T11:30:29Z</time>
      </trkpt>
      <trkpt lat="45.65994" lon="2.96473">
        <ele>963</ele>
        <time>2022-08-17T11:30:31Z</time>
      </trkpt>
      <trkpt lat="45.6599" lon="2.96467">
        <ele>963</ele>
        <time>2022-08-17T11:30:33Z</time>
      </trkpt>
      <trkpt lat="45.65987" lon="2.96461">
        <ele>963</ele>
        <time>2022-08-17T11:30:35Z</time>
      </trkpt>
      <trkpt lat="45.65983" lon="2.96454">
        <ele>963</ele>
        <time>2022-08-17T11:30:37Z</time>
      </trkpt>
      <trkpt lat="45.6598" lon="2.96448">
        <ele>967</ele>
        <time>2022-08-17T11:30:38Z</time>
      </trkpt>
      <trkpt lat="45.65975" lon="2.96437">
        <ele>967</ele>
        <time>2022-08-17T11:30:39Z</time>
      </trkpt>
      <trkpt lat="45.65972" lon="2.9643">
        <ele>967</ele>
        <time>2022-08-17T11:30:41Z</time>
      </trkpt>
      <trkpt lat="45.6597" lon="2.96424">
        <ele>967</ele>
        <time>2022-08-17T11:30:43Z</time>
      </trkpt>
      <trkpt lat="45.65967" lon="2.96417">
        <ele>967</ele>
        <time>2022-08-17T11:30:45Z</time>
      </trkpt>
      <trkpt lat="45.65964" lon="2.9641">
        <ele>967</ele>
        <time>2022-08-17T11:30:47Z</time>
      </trkpt>
      <trkpt lat="45.65961" lon="2.96404">
        <ele>968</ele>
        <time>2022-08-17T11:30:48Z</time>
      </trkpt>
      <trkpt lat="45.65956" lon="2.96393">
        <ele>968</ele>
        <time>2022-08-17T11:30:49Z</time>
      </trkpt>
      <trkpt lat="45.65953" lon="2.96387">
        <ele>968</ele>
        <time>2022-08-17T11:30:51Z</time>
      </trkpt>
      <trkpt lat="45.65949" lon="2.96381">
        <ele>968</ele>
        <time>2022-08-17T11:30:53Z</time>
      </trkpt>
      <trkpt lat="45.65946" lon="2.96374">
        <ele>968</ele>
        <time>2022-08-17T11:30:55Z</time>
      </trkpt>
      <trkpt lat="45.65943" lon="2.96368">
        <ele>968</ele>
        <time>2022-08-17T11:30:57Z</time>
      </trkpt>
      <trkpt lat="45.6594" lon="2.96362">
        <ele>970</ele>
        <time>2022-08-17T11:30:58Z</time>
      </trkpt>
      <trkpt lat="45.65934" lon="2.96352">
        <ele>970</ele>
        <time>2022-08-17T11:30:59Z</time>
      </trkpt>
      <trkpt lat="45.6593" lon="2.96347">
        <ele>970</ele>
        <time>2022-08-17T11:31:01Z</time>
      </trkpt>
      <trkpt lat="45.65926" lon="2.96341">
        <ele>970</ele>
        <time>2022-08-17T11:31:03Z</time>
      </trkpt>
      <trkpt lat="45.65922" lon="2.96336">
        <ele>970</ele>
        <time>2022-08-17T11:31:05Z</time>
      </trkpt>
      <trkpt lat="45.65918" lon="2.9633">
        <ele>970</ele>
        <time>2022-08-17T11:31:07Z</time>
      </trkpt>
      <trkpt lat="45.65914" lon="2.96325">
        <ele>972</ele>
        <time>2022-08-17T11:31:08Z</time>
      </trkpt>
      <trkpt lat="45.65907" lon="2.96316">
        <ele>972</ele>
        <time>2022-08-17T11:31:09Z</time>
      </trkpt>
      <trkpt lat="45.65903" lon="2.96311">
        <ele>972</ele>
        <time>2022-08-17T11:31:11Z</time>
      </trkpt>
      <trkpt lat="45.65899" lon="2.96305">
        <ele>972</ele>
        <time>2022-08-17T11:31:13Z</time>
      </trkpt>
      <trkpt lat="45.65895" lon="2.963">
        <ele>972</ele>
        <time>2022-08-17T11:31:15Z</time>
      </trkpt>
      <trkpt lat="45.65891" lon="2.96295">
        <ele>972</ele>
        <time>2022-08-17T11:31:17Z</time>
      </trkpt>
      <trkpt lat="45.65886" lon="2.96289">
        <ele>973</ele>
        <time>2022-08-17T11:31:18Z</time>
      </trkpt>
      <trkpt lat="45.65879" lon="2.9628">
        <ele>973</ele>
        <time>2022-08-17T11:31:19Z</time>
      </trkpt>
      <trkpt lat="45.65875" lon="2.96274">
        <ele>973</ele>
        <time>2022-08-17T11:31:21Z</time>
      </trkpt>
      <trkpt lat="45.6587" lon="2.96268">
        <ele>973</ele>
        <time>2022-08-17T11:31:23Z</time>
      </trkpt>
      <trkpt lat="45.65866" lon="2.96262">
        <ele>973</ele>
        <time>2022-08-17T11:31:25Z</time>
      </trkpt>
      <trkpt lat="45.65862" lon="2.96256">
        <ele>973</ele>
        <time>2022-08-17T11:31:27Z</time>
      </trkpt>
      <trkpt lat="45.65857" lon="2.9625">
        <ele>975</ele>
        <time>2022-08-17T11:31:28Z</time>
      </trkpt>
      <trkpt lat="45.65852" lon="2.96239">
        <ele>975</ele>
        <time>2022-08-17T11:31:29Z</time>
      </trkpt>
      <trkpt lat="45.6585" lon="2.96232">
        <ele>975</ele>
        <time>2022-08-17T11:31:31Z</time>
      </trkpt>
      <trkpt lat="45.65847" lon="2.96225">
        <ele>975</ele>
        <time>2022-08-17T11:31:33Z</time>
      </trkpt>
      <trkpt lat="45.65845" lon="2.96218">
        <ele>975</ele>
        <time>2022-08-17T11:31:35Z</time>
      </trkpt>
      <trkpt lat="45.65842" lon="2.96211">
        <ele>975</ele>
        <time>2022-08-17T11:31:37Z</time>
      </trkpt>
      <trkpt lat="45.6584" lon="2.96204">
        <ele>976</ele>
        <time>2022-08-17T11:31:38Z</time>
      </trkpt>
      <trkpt lat="45.65837" lon="2.962">
        <ele>976</ele>
        <time>2022-08-17T11:31:39Z</time>
      </trkpt>
      <trkpt lat="45.65833" lon="2.96193">
        <ele>976</ele>
        <time>2022-08-17T11:31:41Z</time>
      </trkpt>
      <trkpt lat="45.65829" lon="2.96187">
        <ele>976</ele>
        <time>2022-08-17T11:31:43Z</time>
      </trkpt>
      <trkpt lat="45.65824" lon="2.96181">
        <ele>976</ele>
        <time>2022-08-17T11:31:45Z</time>
      </trkpt>
      <trkpt lat="45.65817" lon="2.96171">
        <ele>977</ele>
        <time>2022-08-17T11:31:48Z</time>
      </trkpt>
      <trkpt lat="45.65806" lon="2.96158">
        <ele>977</ele>
        <time>2022-08-17T11:31:51Z</time>
      </trkpt>
      <trkpt lat="45.65802" lon="2.96153">
        <ele>977</ele>
        <time>2022-08-17T11:31:54Z</time>
      </trkpt>
      <trkpt lat="45.65797" lon="2.96148">
        <ele>977</ele>
        <time>2022-08-17T11:31:57Z</time>
      </trkpt>
      <trkpt lat="45.65793" lon="2.96143">
        <ele>981</ele>
        <time>2022-08-17T11:31:58Z</time>
      </trkpt>
      <trkpt lat="45.65785" lon="2.96133">
        <ele>981</ele>
        <time>2022-08-17T11:32:00Z</time>
      </trkpt>
      <trkpt lat="45.65781" lon="2.96128">
        <ele>981</ele>
        <time>2022-08-17T11:32:02Z</time>
      </trkpt>
      <trkpt lat="45.65777" lon="2.96124">
        <ele>981</ele>
        <time>2022-08-17T11:32:04Z</time>
      </trkpt>
      <trkpt lat="45.65773" lon="2.96119">
        <ele>981</ele>
        <time>2022-08-17T11:32:06Z</time>
      </trkpt>
      <trkpt lat="45.6577" lon="2.96115">
        <ele>983</ele>
        <time>2022-08-17T11:32:08Z</time>
      </trkpt>
      <trkpt lat="45.65761" lon="2.96104">
        <ele>983</ele>
        <time>2022-08-17T11:32:10Z</time>
      </trkpt>
      <trkpt lat="45.65757" lon="2.96099">
        <ele>983</ele>
        <time>2022-08-17T11:32:12Z</time>
      </trkpt>
      <trkpt lat="45.65754" lon="2.96095">
        <ele>983</ele>
        <time>2022-08-17T11:32:14Z</time>
      </trkpt>
      <trkpt lat="45.6575" lon="2.9609">
        <ele>983</ele>
        <time>2022-08-17T11:32:16Z</time>
      </trkpt>
      <trkpt lat="45.65746" lon="2.96085">
        <ele>985</ele>
        <time>2022-08-17T11:32:18Z</time>
      </trkpt>
      <trkpt lat="45.6574" lon="2.96072">
        <ele>985</ele>
        <time>2022-08-17T11:32:20Z</time>
      </trkpt>
      <trkpt lat="45.65738" lon="2.96066">
        <ele>985</ele>
        <time>2022-08-17T11:32:22Z</time>
      </trkpt>
      <trkpt lat="45.65737" lon="2.96059">
        <ele>985</ele>
        <time>2022-08-17T11:32:24Z</time>
      </trkpt>
      <trkpt lat="45.65735" lon="2.96053">
        <ele>985</ele>
        <time>2022-08-17T11:32:26Z</time>
      </trkpt>
      <trkpt lat="45.65733" lon="2.96046">
        <ele>986</ele>
        <time>2022-08-17T11:32:28Z</time>
      </trkpt>
      <trkpt lat="45.65732" lon="2.96032">
        <ele>986</ele>
        <time>2022-08-17T11:32:30Z</time>
      </trkpt>
      <trkpt lat="45.65732" lon="2.96027">
        <ele>986</ele>
        <time>2022-08-17T11:32:32Z</time>
      </trkpt>
      <trkpt lat="45.65731" lon="2.96021">
        <ele>986</ele>
        <time>2022-08-17T11:32:34Z</time>
      </trkpt>
      <trkpt lat="45.65731" lon="2.96016">
        <ele>986</ele>
        <time>2022-08-17T11:32:36Z</time>
      </trkpt>
      <trkpt lat="45.65731" lon="2.96011">
        <ele>988</ele>
        <time>2022-08-17T11:32:38Z</time>
      </trkpt>
      <trkpt lat="45.65732" lon="2.95995">
        <ele>988</ele>
        <time>2022-08-17T11:32:39Z</time>
      </trkpt>
      <trkpt lat="45.65732" lon="2.95988">
        <ele>988</ele>
        <time>2022-08-17T11:32:40Z</time>
      </trkpt>
      <trkpt lat="45.65733" lon="2.95981">
        <ele>988</ele>
        <time>2022-08-17T11:32:42Z</time>
      </trkpt>
      <trkpt lat="45.65734" lon="2.95974">
        <ele>988</ele>
        <time>2022-08-17T11:32:44Z</time>
      </trkpt>
      <trkpt lat="45.65735" lon="2.95967">
        <ele>988</ele>
        <time>2022-08-17T11:32:46Z</time>
      </trkpt>
      <trkpt lat="45.65736" lon="2.95959">
        <ele>992</ele>
        <time>2022-08-17T11:32:48Z</time>
      </trkpt>
      <trkpt lat="45.65739" lon="2.95944">
        <ele>992</ele>
        <time>2022-08-17T11:32:50Z</time>
      </trkpt>
      <trkpt lat="45.6574" lon="2.95937">
        <ele>992</ele>
        <time>2022-08-17T11:32:52Z</time>
      </trkpt>
      <trkpt lat="45.65742" lon="2.9593">
        <ele>992</ele>
        <time>2022-08-17T11:32:54Z</time>
      </trkpt>
      <trkpt lat="45.65743" lon="2.95923">
        <ele>992</ele>
        <time>2022-08-17T11:32:56Z</time>
      </trkpt>
      <trkpt lat="45.65744" lon="2.95916">
        <ele>995</ele>
        <time>2022-08-17T11:32:58Z</time>
      </trkpt>
      <trkpt lat="45.65747" lon="2.95899">
        <ele>995</ele>
        <time>2022-08-17T11:33:00Z</time>
      </trkpt>
      <trkpt lat="45.65749" lon="2.95892">
        <ele>995</ele>
        <time>2022-08-17T11:33:02Z</time>
      </trkpt>
      <trkpt lat="45.6575" lon="2.95886">
        <ele>995</ele>
        <time>2022-08-17T11:33:04Z</time>
      </trkpt>
      <trkpt lat="45.65751" lon="2.95879">
        <ele>995</ele>
        <time>2022-08-17T11:33:06Z</time>
      </trkpt>
      <trkpt lat="45.65753" lon="2.95872">
        <ele>995</ele>
        <time>2022-08-17T11:33:08Z</time>
      </trkpt>
      <trkpt lat="45.65756" lon="2.95855">
        <ele>995</ele>
        <time>2022-08-17T11:33:10Z</time>
      </trkpt>
      <trkpt lat="45.65757" lon="2.95848">
        <ele>995</ele>
        <time>2022-08-17T11:33:12Z</time>
      </trkpt>
      <trkpt lat="45.65758" lon="2.9584">
        <ele>995</ele>
        <time>2022-08-17T11:33:14Z</time>
      </trkpt>
      <trkpt lat="45.65759" lon="2.95833">
        <ele>995</ele>
        <time>2022-08-17T11:33:16Z</time>
      </trkpt>
      <trkpt lat="45.6576" lon="2.95826">
        <ele>997</ele>
        <time>2022-08-17T11:33:18Z</time>
      </trkpt>
      <trkpt lat="45.65763" lon="2.95809">
        <ele>997</ele>
        <time>2022-08-17T11:33:20Z</time>
      </trkpt>
      <trkpt lat="45.65764" lon="2.95801">
        <ele>997</ele>
        <time>2022-08-17T11:33:22Z</time>
      </trkpt>
      <trkpt lat="45.65765" lon="2.95793">
        <ele>997</ele>
        <time>2022-08-17T11:33:24Z</time>
      </trkpt>
      <trkpt lat="45.65766" lon="2.95785">
        <ele>997</ele>
        <time>2022-08-17T11:33:26Z</time>
      </trkpt>
      <trkpt lat="45.65767" lon="2.95778">
        <ele>999</ele>
        <time>2022-08-17T11:33:28Z</time>
      </trkpt>
      <trkpt lat="45.65769" lon="2.9576">
        <ele>999</ele>
        <time>2022-08-17T11:33:30Z</time>
      </trkpt>
      <trkpt lat="45.6577" lon="2.95752">
        <ele>999</ele>
        <time>2022-08-17T11:33:33Z</time>
      </trkpt>
      <trkpt lat="45.65772" lon="2.95743">
        <ele>999</ele>
        <time>2022-08-17T11:33:35Z</time>
      </trkpt>
      <trkpt lat="45.65773" lon="2.95735">
        <ele>999</ele>
        <time>2022-08-17T11:33:37Z</time>
      </trkpt>
      <trkpt lat="45.65774" lon="2.95727">
        <ele>1000</ele>
        <time>2022-08-17T11:33:38Z</time>
      </trkpt>
      <trkpt lat="45.65776" lon="2.95713">
        <ele>1000</ele>
        <time>2022-08-17T11:33:39Z</time>
      </trkpt>
      <trkpt lat="45.65777" lon="2.95704">
        <ele>1000</ele>
        <time>2022-08-17T11:33:41Z</time>
      </trkpt>
      <trkpt lat="45.65778" lon="2.95695">
        <ele>1000</ele>
        <time>2022-08-17T11:33:43Z</time>
      </trkpt>
      <trkpt lat="45.65779" lon="2.95686">
        <ele>1000</ele>
        <time>2022-08-17T11:33:46Z</time>
      </trkpt>
      <trkpt lat="45.6578" lon="2.95677">
        <ele>1001</ele>
        <time>2022-08-17T11:33:48Z</time>
      </trkpt>
      <trkpt lat="45.65781" lon="2.95661">
        <ele>1001</ele>
        <time>2022-08-17T11:33:50Z</time>
      </trkpt>
      <trkpt lat="45.65781" lon="2.95655">
        <ele>1001</ele>
        <time>2022-08-17T11:33:52Z</time>
      </trkpt>
      <trkpt lat="45.65781" lon="2.95649">
        <ele>1001</ele>
        <time>2022-08-17T11:33:54Z</time>
      </trkpt>
      <trkpt lat="45.65781" lon="2.95643">
        <ele>1001</ele>
        <time>2022-08-17T11:33:56Z</time>
      </trkpt>
      <trkpt lat="45.65782" lon="2.95637">
        <ele>1002</ele>
        <time>2022-08-17T11:33:58Z</time>
      </trkpt>
      <trkpt lat="45.65782" lon="2.95622">
        <ele>1002</ele>
        <time>2022-08-17T11:33:59Z</time>
      </trkpt>
      <trkpt lat="45.65784" lon="2.95607">
        <ele>1002</ele>
        <time>2022-08-17T11:34:02Z</time>
      </trkpt>
      <trkpt lat="45.65785" lon="2.95591">
        <ele>1002</ele>
        <time>2022-08-17T11:34:05Z</time>
      </trkpt>
      <trkpt lat="45.65788" lon="2.95576">
        <ele>1003</ele>
        <time>2022-08-17T11:34:08Z</time>
      </trkpt>
      <trkpt lat="45.65792" lon="2.95555">
        <ele>1003</ele>
        <time>2022-08-17T11:34:11Z</time>
      </trkpt>
      <trkpt lat="45.65793" lon="2.95548">
        <ele>1003</ele>
        <time>2022-08-17T11:34:13Z</time>
      </trkpt>
      <trkpt lat="45.65794" lon="2.95541">
        <ele>1003</ele>
        <time>2022-08-17T11:34:15Z</time>
      </trkpt>
      <trkpt lat="45.65796" lon="2.95534">
        <ele>1003</ele>
        <time>2022-08-17T11:34:17Z</time>
      </trkpt>
      <trkpt lat="45.65797" lon="2.95527">
        <ele>1004</ele>
        <time>2022-08-17T11:34:18Z</time>
      </trkpt>
      <trkpt lat="45.658" lon="2.95514">
        <ele>1004</ele>
        <time>2022-08-17T11:34:19Z</time>
      </trkpt>
      <trkpt lat="45.65801" lon="2.95505">
        <ele>1004</ele>
        <time>2022-08-17T11:34:21Z</time>
      </trkpt>
      <trkpt lat="45.65803" lon="2.95497">
        <ele>1004</ele>
        <time>2022-08-17T11:34:24Z</time>
      </trkpt>
      <trkpt lat="45.65805" lon="2.95488">
        <ele>1004</ele>
        <time>2022-08-17T11:34:27Z</time>
      </trkpt>
      <trkpt lat="45.65806" lon="2.9548">
        <ele>1006</ele>
        <time>2022-08-17T11:34:28Z</time>
      </trkpt>
      <trkpt lat="45.6581" lon="2.95463">
        <ele>1006</ele>
        <time>2022-08-17T11:34:30Z</time>
      </trkpt>
      <trkpt lat="45.65813" lon="2.95456">
        <ele>1006</ele>
        <time>2022-08-17T11:34:32Z</time>
      </trkpt>
      <trkpt lat="45.65815" lon="2.95448">
        <ele>1006</ele>
        <time>2022-08-17T11:34:34Z</time>
      </trkpt>
      <trkpt lat="45.65817" lon="2.95441">
        <ele>1006</ele>
        <time>2022-08-17T11:34:37Z</time>
      </trkpt>
      <trkpt lat="45.65819" lon="2.95434">
        <ele>1008</ele>
        <time>2022-08-17T11:34:38Z</time>
      </trkpt>
      <trkpt lat="45.65824" lon="2.95422">
        <ele>1008</ele>
        <time>2022-08-17T11:34:39Z</time>
      </trkpt>
      <trkpt lat="45.65828" lon="2.95414">
        <ele>1008</ele>
        <time>2022-08-17T11:34:41Z</time>
      </trkpt>
      <trkpt lat="45.65831" lon="2.95405">
        <ele>1008</ele>
        <time>2022-08-17T11:34:44Z</time>
      </trkpt>
      <trkpt lat="45.65834" lon="2.95397">
        <ele>1008</ele>
        <time>2022-08-17T11:34:47Z</time>
      </trkpt>
      <trkpt lat="45.65838" lon="2.95389">
        <ele>1008</ele>
        <time>2022-08-17T11:34:48Z</time>
      </trkpt>
      <trkpt lat="45.65845" lon="2.95373">
        <ele>1008</ele>
        <time>2022-08-17T11:34:50Z</time>
      </trkpt>
      <trkpt lat="45.65848" lon="2.95366">
        <ele>1008</ele>
        <time>2022-08-17T11:34:53Z</time>
      </trkpt>
      <trkpt lat="45.65851" lon="2.95359">
        <ele>1008</ele>
        <time>2022-08-17T11:34:56Z</time>
      </trkpt>
      <trkpt lat="45.65854" lon="2.95351">
        <ele>1010</ele>
        <time>2022-08-17T11:34:58Z</time>
      </trkpt>
      <trkpt lat="45.65865" lon="2.95326">
        <ele>1010</ele>
        <time>2022-08-17T11:34:59Z</time>
      </trkpt>
      <trkpt lat="45.6587" lon="2.95316">
        <ele>1010</ele>
        <time>2022-08-17T11:35:02Z</time>
      </trkpt>
      <trkpt lat="45.65874" lon="2.95305">
        <ele>1010</ele>
        <time>2022-08-17T11:35:05Z</time>
      </trkpt>
      <trkpt lat="45.65879" lon="2.95295">
        <ele>1011</ele>
        <time>2022-08-17T11:35:08Z</time>
      </trkpt>
      <trkpt lat="45.65888" lon="2.95279">
        <ele>1011</ele>
        <time>2022-08-17T11:35:10Z</time>
      </trkpt>
      <trkpt lat="45.65893" lon="2.95272">
        <ele>1011</ele>
        <time>2022-08-17T11:35:13Z</time>
      </trkpt>
      <trkpt lat="45.65897" lon="2.95265">
        <ele>1011</ele>
        <time>2022-08-17T11:35:14Z</time>
      </trkpt>
      <trkpt lat="45.65902" lon="2.95258">
        <ele>1011</ele>
        <time>2022-08-17T11:35:16Z</time>
      </trkpt>
      <trkpt lat="45.65907" lon="2.95251">
        <ele>1013</ele>
        <time>2022-08-17T11:35:18Z</time>
      </trkpt>
      <trkpt lat="45.65921" lon="2.95234">
        <ele>1013</ele>
        <time>2022-08-17T11:35:21Z</time>
      </trkpt>
      <trkpt lat="45.65925" lon="2.95228">
        <ele>1013</ele>
        <time>2022-08-17T11:35:23Z</time>
      </trkpt>
      <trkpt lat="45.6593" lon="2.95223">
        <ele>1013</ele>
        <time>2022-08-17T11:35:25Z</time>
      </trkpt>
      <trkpt lat="45.65935" lon="2.95217">
        <ele>1013</ele>
        <time>2022-08-17T11:35:27Z</time>
      </trkpt>
      <trkpt lat="45.6594" lon="2.95211">
        <ele>1013</ele>
        <time>2022-08-17T11:35:28Z</time>
      </trkpt>
      <trkpt lat="45.65949" lon="2.952">
        <ele>1013</ele>
        <time>2022-08-17T11:35:29Z</time>
      </trkpt>
      <trkpt lat="45.65954" lon="2.95192">
        <ele>1013</ele>
        <time>2022-08-17T11:35:31Z</time>
      </trkpt>
      <trkpt lat="45.6596" lon="2.95185">
        <ele>1013</ele>
        <time>2022-08-17T11:35:33Z</time>
      </trkpt>
      <trkpt lat="45.65966" lon="2.95178">
        <ele>1013</ele>
        <time>2022-08-17T11:35:35Z</time>
      </trkpt>
      <trkpt lat="45.65971" lon="2.95171">
        <ele>1013</ele>
        <time>2022-08-17T11:35:37Z</time>
      </trkpt>
      <trkpt lat="45.65977" lon="2.95164">
        <ele>1013</ele>
        <time>2022-08-17T11:35:38Z</time>
      </trkpt>
      <trkpt lat="45.65985" lon="2.9515">
        <ele>1013</ele>
        <time>2022-08-17T11:35:39Z</time>
      </trkpt>
      <trkpt lat="45.65989" lon="2.95142">
        <ele>1013</ele>
        <time>2022-08-17T11:35:41Z</time>
      </trkpt>
      <trkpt lat="45.65994" lon="2.95133">
        <ele>1013</ele>
        <time>2022-08-17T11:35:43Z</time>
      </trkpt>
      <trkpt lat="45.65998" lon="2.95125">
        <ele>1013</ele>
        <time>2022-08-17T11:35:45Z</time>
      </trkpt>
      <trkpt lat="45.66003" lon="2.95116">
        <ele>1013</ele>
        <time>2022-08-17T11:35:47Z</time>
      </trkpt>
      <trkpt lat="45.66007" lon="2.95108">
        <ele>1013</ele>
        <time>2022-08-17T11:35:48Z</time>
      </trkpt>
      <trkpt lat="45.66012" lon="2.95096">
        <ele>1013</ele>
        <time>2022-08-17T11:35:49Z</time>
      </trkpt>
      <trkpt lat="45.66014" lon="2.9509">
        <ele>1013</ele>
        <time>2022-08-17T11:35:50Z</time>
      </trkpt>
      <trkpt lat="45.66016" lon="2.95083">
        <ele>1013</ele>
        <time>2022-08-17T11:35:51Z</time>
      </trkpt>
      <trkpt lat="45.66019" lon="2.95077">
        <ele>1013</ele>
        <time>2022-08-17T11:35:52Z</time>
      </trkpt>
      <trkpt lat="45.66021" lon="2.95071">
        <ele>1013</ele>
        <time>2022-08-17T11:35:53Z</time>
      </trkpt>
      <trkpt lat="45.66023" lon="2.95065">
        <ele>1013</ele>
        <time>2022-08-17T11:35:54Z</time>
      </trkpt>
      <trkpt lat="45.66025" lon="2.95058">
        <ele>1013</ele>
        <time>2022-08-17T11:35:55Z</time>
      </trkpt>
      <trkpt lat="45.66027" lon="2.95052">
        <ele>1013</ele>
        <time>2022-08-17T11:35:57Z</time>
      </trkpt>
      <trkpt lat="45.6603" lon="2.95046">
        <ele>1012</ele>
        <time>2022-08-17T11:35:58Z</time>
      </trkpt>
      <trkpt lat="45.66034" lon="2.95032">
        <ele>1012</ele>
        <time>2022-08-17T11:35:59Z</time>
      </trkpt>
      <trkpt lat="45.66036" lon="2.95025">
        <ele>1012</ele>
        <time>2022-08-17T11:36:01Z</time>
      </trkpt>
      <trkpt lat="45.66039" lon="2.95018">
        <ele>1012</ele>
        <time>2022-08-17T11:36:02Z</time>
      </trkpt>
      <trkpt lat="45.66041" lon="2.9501">
        <ele>1012</ele>
        <time>2022-08-17T11:36:03Z</time>
      </trkpt>
      <trkpt lat="45.66044" lon="2.95003">
        <ele>1012</ele>
        <time>2022-08-17T11:36:05Z</time>
      </trkpt>
      <trkpt lat="45.66046" lon="2.94996">
        <ele>1012</ele>
        <time>2022-08-17T11:36:07Z</time>
      </trkpt>
      <trkpt lat="45.66048" lon="2.94989">
        <ele>1014</ele>
        <time>2022-08-17T11:36:08Z</time>
      </trkpt>
      <trkpt lat="45.66054" lon="2.94973">
        <ele>1014</ele>
        <time>2022-08-17T11:36:09Z</time>
      </trkpt>
      <trkpt lat="45.66057" lon="2.94964">
        <ele>1014</ele>
        <time>2022-08-17T11:36:11Z</time>
      </trkpt>
      <trkpt lat="45.66061" lon="2.94954">
        <ele>1014</ele>
        <time>2022-08-17T11:36:13Z</time>
      </trkpt>
      <trkpt lat="45.66065" lon="2.94944">
        <ele>1014</ele>
        <time>2022-08-17T11:36:15Z</time>
      </trkpt>
      <trkpt lat="45.66069" lon="2.94934">
        <ele>1014</ele>
        <time>2022-08-17T11:36:18Z</time>
      </trkpt>
      <trkpt lat="45.66077" lon="2.94912">
        <ele>1014</ele>
        <time>2022-08-17T11:36:21Z</time>
      </trkpt>
      <trkpt lat="45.6608" lon="2.94905">
        <ele>1014</ele>
        <time>2022-08-17T11:36:23Z</time>
      </trkpt>
      <trkpt lat="45.66083" lon="2.94898">
        <ele>1014</ele>
        <time>2022-08-17T11:36:25Z</time>
      </trkpt>
      <trkpt lat="45.66085" lon="2.94891">
        <ele>1014</ele>
        <time>2022-08-17T11:36:27Z</time>
      </trkpt>
      <trkpt lat="45.66088" lon="2.94884">
        <ele>1015</ele>
        <time>2022-08-17T11:36:28Z</time>
      </trkpt>
      <trkpt lat="45.66093" lon="2.9487">
        <ele>1015</ele>
        <time>2022-08-17T11:36:29Z</time>
      </trkpt>
      <trkpt lat="45.66096" lon="2.94862">
        <ele>1015</ele>
        <time>2022-08-17T11:36:31Z</time>
      </trkpt>
      <trkpt lat="45.66099" lon="2.94854">
        <ele>1015</ele>
        <time>2022-08-17T11:36:33Z</time>
      </trkpt>
      <trkpt lat="45.66101" lon="2.94846">
        <ele>1015</ele>
        <time>2022-08-17T11:36:35Z</time>
      </trkpt>
      <trkpt lat="45.66104" lon="2.94839">
        <ele>1015</ele>
        <time>2022-08-17T11:36:37Z</time>
      </trkpt>
      <trkpt lat="45.66107" lon="2.94831">
        <ele>1018</ele>
        <time>2022-08-17T11:36:38Z</time>
      </trkpt>
      <trkpt lat="45.66107" lon="2.94816">
        <ele>1018</ele>
        <time>2022-08-17T11:36:39Z</time>
      </trkpt>
      <trkpt lat="45.66107" lon="2.94806">
        <ele>1018</ele>
        <time>2022-08-17T11:36:41Z</time>
      </trkpt>
      <trkpt lat="45.66106" lon="2.94797">
        <ele>1018</ele>
        <time>2022-08-17T11:36:43Z</time>
      </trkpt>
      <trkpt lat="45.66105" lon="2.94787">
        <ele>1018</ele>
        <time>2022-08-17T11:36:45Z</time>
      </trkpt>
      <trkpt lat="45.66104" lon="2.94777">
        <ele>1018</ele>
        <time>2022-08-17T11:36:47Z</time>
      </trkpt>
      <trkpt lat="45.66103" lon="2.94768">
        <ele>1019</ele>
        <time>2022-08-17T11:36:48Z</time>
      </trkpt>
      <trkpt lat="45.661" lon="2.94752">
        <ele>1019</ele>
        <time>2022-08-17T11:36:49Z</time>
      </trkpt>
      <trkpt lat="45.66097" lon="2.94743">
        <ele>1019</ele>
        <time>2022-08-17T11:36:51Z</time>
      </trkpt>
      <trkpt lat="45.66095" lon="2.94733">
        <ele>1019</ele>
        <time>2022-08-17T11:36:53Z</time>
      </trkpt>
      <trkpt lat="45.66093" lon="2.94724">
        <ele>1019</ele>
        <time>2022-08-17T11:36:55Z</time>
      </trkpt>
      <trkpt lat="45.6609" lon="2.94715">
        <ele>1019</ele>
        <time>2022-08-17T11:36:57Z</time>
      </trkpt>
      <trkpt lat="45.66088" lon="2.94705">
        <ele>1020</ele>
        <time>2022-08-17T11:36:58Z</time>
      </trkpt>
      <trkpt lat="45.66085" lon="2.94689">
        <ele>1020</ele>
        <time>2022-08-17T11:36:59Z</time>
      </trkpt>
      <trkpt lat="45.66084" lon="2.94678">
        <ele>1020</ele>
        <time>2022-08-17T11:37:01Z</time>
      </trkpt>
      <trkpt lat="45.66083" lon="2.94667">
        <ele>1020</ele>
        <time>2022-08-17T11:37:03Z</time>
      </trkpt>
      <trkpt lat="45.66082" lon="2.94656">
        <ele>1020</ele>
        <time>2022-08-17T11:37:06Z</time>
      </trkpt>
      <trkpt lat="45.66081" lon="2.94646">
        <ele>1020</ele>
        <time>2022-08-17T11:37:08Z</time>
      </trkpt>
      <trkpt lat="45.6608" lon="2.94624">
        <ele>1020</ele>
        <time>2022-08-17T11:37:10Z</time>
      </trkpt>
      <trkpt lat="45.66079" lon="2.94615">
        <ele>1020</ele>
        <time>2022-08-17T11:37:13Z</time>
      </trkpt>
      <trkpt lat="45.66078" lon="2.94605">
        <ele>1020</ele>
        <time>2022-08-17T11:37:15Z</time>
      </trkpt>
      <trkpt lat="45.66077" lon="2.94595">
        <ele>1020</ele>
        <time>2022-08-17T11:37:17Z</time>
      </trkpt>
      <trkpt lat="45.66076" lon="2.94586">
        <ele>1022</ele>
        <time>2022-08-17T11:37:18Z</time>
      </trkpt>
      <trkpt lat="45.66076" lon="2.9457">
        <ele>1022</ele>
        <time>2022-08-17T11:37:19Z</time>
      </trkpt>
      <trkpt lat="45.66076" lon="2.9456">
        <ele>1022</ele>
        <time>2022-08-17T11:37:21Z</time>
      </trkpt>
      <trkpt lat="45.66076" lon="2.9455">
        <ele>1022</ele>
        <time>2022-08-17T11:37:23Z</time>
      </trkpt>
      <trkpt lat="45.66076" lon="2.9454">
        <ele>1022</ele>
        <time>2022-08-17T11:37:25Z</time>
      </trkpt>
      <trkpt lat="45.66076" lon="2.9453">
        <ele>1022</ele>
        <time>2022-08-17T11:37:27Z</time>
      </trkpt>
      <trkpt lat="45.66076" lon="2.9452">
        <ele>1023</ele>
        <time>2022-08-17T11:37:28Z</time>
      </trkpt>
      <trkpt lat="45.66075" lon="2.945">
        <ele>1023</ele>
        <time>2022-08-17T11:37:29Z</time>
      </trkpt>
      <trkpt lat="45.66074" lon="2.94487">
        <ele>1023</ele>
        <time>2022-08-17T11:37:31Z</time>
      </trkpt>
      <trkpt lat="45.66072" lon="2.94474">
        <ele>1023</ele>
        <time>2022-08-17T11:37:33Z</time>
      </trkpt>
      <trkpt lat="45.66071" lon="2.94462">
        <ele>1023</ele>
        <time>2022-08-17T11:37:35Z</time>
      </trkpt>
      <trkpt lat="45.6607" lon="2.94449">
        <ele>1023</ele>
        <time>2022-08-17T11:37:36Z</time>
      </trkpt>
      <trkpt lat="45.66069" lon="2.94436">
        <ele>1022</ele>
        <time>2022-08-17T11:37:38Z</time>
      </trkpt>
      <trkpt lat="45.66065" lon="2.94408">
        <ele>1022</ele>
        <time>2022-08-17T11:37:40Z</time>
      </trkpt>
      <trkpt lat="45.66063" lon="2.94398">
        <ele>1022</ele>
        <time>2022-08-17T11:37:41Z</time>
      </trkpt>
      <trkpt lat="45.66062" lon="2.94387">
        <ele>1022</ele>
        <time>2022-08-17T11:37:42Z</time>
      </trkpt>
      <trkpt lat="45.6606" lon="2.94377">
        <ele>1022</ele>
        <time>2022-08-17T11:37:44Z</time>
      </trkpt>
      <trkpt lat="45.66058" lon="2.94366">
        <ele>1022</ele>
        <time>2022-08-17T11:37:46Z</time>
      </trkpt>
      <trkpt lat="45.66056" lon="2.94356">
        <ele>1021</ele>
        <time>2022-08-17T11:37:48Z</time>
      </trkpt>
      <trkpt lat="45.66047" lon="2.94335">
        <ele>1021</ele>
        <time>2022-08-17T11:37:50Z</time>
      </trkpt>
      <trkpt lat="45.66042" lon="2.94326">
        <ele>1021</ele>
        <time>2022-08-17T11:37:52Z</time>
      </trkpt>
      <trkpt lat="45.66037" lon="2.94318">
        <ele>1021</ele>
        <time>2022-08-17T11:37:54Z</time>
      </trkpt>
      <trkpt lat="45.66033" lon="2.9431">
        <ele>1021</ele>
        <time>2022-08-17T11:37:56Z</time>
      </trkpt>
      <trkpt lat="45.66028" lon="2.94301">
        <ele>1023</ele>
        <time>2022-08-17T11:37:58Z</time>
      </trkpt>
      <trkpt lat="45.6602" lon="2.94281">
        <ele>1023</ele>
        <time>2022-08-17T11:38:00Z</time>
      </trkpt>
      <trkpt lat="45.66016" lon="2.94272">
        <ele>1023</ele>
        <time>2022-08-17T11:38:02Z</time>
      </trkpt>
      <trkpt lat="45.66012" lon="2.94263">
        <ele>1023</ele>
        <time>2022-08-17T11:38:04Z</time>
      </trkpt>
      <trkpt lat="45.66009" lon="2.94253">
        <ele>1023</ele>
        <time>2022-08-17T11:38:06Z</time>
      </trkpt>
      <trkpt lat="45.66005" lon="2.94244">
        <ele>1025</ele>
        <time>2022-08-17T11:38:08Z</time>
      </trkpt>
      <trkpt lat="45.65997" lon="2.94224">
        <ele>1025</ele>
        <time>2022-08-17T11:38:10Z</time>
      </trkpt>
      <trkpt lat="45.65994" lon="2.94215">
        <ele>1025</ele>
        <time>2022-08-17T11:38:12Z</time>
      </trkpt>
      <trkpt lat="45.65991" lon="2.94206">
        <ele>1025</ele>
        <time>2022-08-17T11:38:14Z</time>
      </trkpt>
      <trkpt lat="45.65988" lon="2.94197">
        <ele>1025</ele>
        <time>2022-08-17T11:38:15Z</time>
      </trkpt>
      <trkpt lat="45.65985" lon="2.94188">
        <ele>1025</ele>
        <time>2022-08-17T11:38:17Z</time>
      </trkpt>
      <trkpt lat="45.65982" lon="2.94179">
        <ele>1026</ele>
        <time>2022-08-17T11:38:18Z</time>
      </trkpt>
      <trkpt lat="45.65978" lon="2.94164">
        <ele>1026</ele>
        <time>2022-08-17T11:38:19Z</time>
      </trkpt>
      <trkpt lat="45.65977" lon="2.94157">
        <ele>1026</ele>
        <time>2022-08-17T11:38:20Z</time>
      </trkpt>
      <trkpt lat="45.65976" lon="2.94149">
        <ele>1026</ele>
        <time>2022-08-17T11:38:21Z</time>
      </trkpt>
      <trkpt lat="45.65974" lon="2.94141">
        <ele>1026</ele>
        <time>2022-08-17T11:38:23Z</time>
      </trkpt>
      <trkpt lat="45.65973" lon="2.94133">
        <ele>1026</ele>
        <time>2022-08-17T11:38:25Z</time>
      </trkpt>
      <trkpt lat="45.65972" lon="2.94126">
        <ele>1026</ele>
        <time>2022-08-17T11:38:26Z</time>
      </trkpt>
      <trkpt lat="45.6597" lon="2.94118">
        <ele>1026</ele>
        <time>2022-08-17T11:38:27Z</time>
      </trkpt>
      <trkpt lat="45.65969" lon="2.9411">
        <ele>1028</ele>
        <time>2022-08-17T11:38:28Z</time>
      </trkpt>
      <trkpt lat="45.65969" lon="2.94097">
        <ele>1028</ele>
        <time>2022-08-17T11:38:29Z</time>
      </trkpt>
      <trkpt lat="45.6597" lon="2.9409">
        <ele>1028</ele>
        <time>2022-08-17T11:38:30Z</time>
      </trkpt>
      <trkpt lat="45.6597" lon="2.94083">
        <ele>1028</ele>
        <time>2022-08-17T11:38:31Z</time>
      </trkpt>
      <trkpt lat="45.65971" lon="2.94077">
        <ele>1028</ele>
        <time>2022-08-17T11:38:32Z</time>
      </trkpt>
      <trkpt lat="45.65972" lon="2.9407">
        <ele>1028</ele>
        <time>2022-08-17T11:38:33Z</time>
      </trkpt>
      <trkpt lat="45.65972" lon="2.94063">
        <ele>1028</ele>
        <time>2022-08-17T11:38:34Z</time>
      </trkpt>
      <trkpt lat="45.65973" lon="2.94057">
        <ele>1028</ele>
        <time>2022-08-17T11:38:35Z</time>
      </trkpt>
      <trkpt lat="45.65973" lon="2.9405">
        <ele>1028</ele>
        <time>2022-08-17T11:38:37Z</time>
      </trkpt>
      <trkpt lat="45.65974" lon="2.94043">
        <ele>1028</ele>
        <time>2022-08-17T11:38:38Z</time>
      </trkpt>
      <trkpt lat="45.65976" lon="2.94029">
        <ele>1028</ele>
        <time>2022-08-17T11:38:39Z</time>
      </trkpt>
      <trkpt lat="45.65977" lon="2.9402">
        <ele>1028</ele>
        <time>2022-08-17T11:38:41Z</time>
      </trkpt>
      <trkpt lat="45.65978" lon="2.94012">
        <ele>1028</ele>
        <time>2022-08-17T11:38:42Z</time>
      </trkpt>
      <trkpt lat="45.65979" lon="2.94004">
        <ele>1028</ele>
        <time>2022-08-17T11:38:44Z</time>
      </trkpt>
      <trkpt lat="45.65981" lon="2.93996">
        <ele>1028</ele>
        <time>2022-08-17T11:38:45Z</time>
      </trkpt>
      <trkpt lat="45.65982" lon="2.93988">
        <ele>1028</ele>
        <time>2022-08-17T11:38:47Z</time>
      </trkpt>
      <trkpt lat="45.65983" lon="2.93979">
        <ele>1029</ele>
        <time>2022-08-17T11:38:48Z</time>
      </trkpt>
      <trkpt lat="45.65985" lon="2.93967">
        <ele>1029</ele>
        <time>2022-08-17T11:38:49Z</time>
      </trkpt>
      <trkpt lat="45.65986" lon="2.93961">
        <ele>1029</ele>
        <time>2022-08-17T11:38:50Z</time>
      </trkpt>
      <trkpt lat="45.65987" lon="2.93955">
        <ele>1029</ele>
        <time>2022-08-17T11:38:51Z</time>
      </trkpt>
      <trkpt lat="45.65987" lon="2.93949">
        <ele>1029</ele>
        <time>2022-08-17T11:38:52Z</time>
      </trkpt>
      <trkpt lat="45.65988" lon="2.93943">
        <ele>1029</ele>
        <time>2022-08-17T11:38:53Z</time>
      </trkpt>
      <trkpt lat="45.65989" lon="2.93938">
        <ele>1029</ele>
        <time>2022-08-17T11:38:54Z</time>
      </trkpt>
      <trkpt lat="45.6599" lon="2.93932">
        <ele>1029</ele>
        <time>2022-08-17T11:38:55Z</time>
      </trkpt>
      <trkpt lat="45.65991" lon="2.93926">
        <ele>1029</ele>
        <time>2022-08-17T11:38:56Z</time>
      </trkpt>
      <trkpt lat="45.65992" lon="2.9392">
        <ele>1029</ele>
        <time>2022-08-17T11:38:57Z</time>
      </trkpt>
      <trkpt lat="45.65993" lon="2.93914">
        <ele>1030</ele>
        <time>2022-08-17T11:38:58Z</time>
      </trkpt>
      <trkpt lat="45.65995" lon="2.93901">
        <ele>1030</ele>
        <time>2022-08-17T11:38:59Z</time>
      </trkpt>
      <trkpt lat="45.65997" lon="2.93894">
        <ele>1030</ele>
        <time>2022-08-17T11:39:00Z</time>
      </trkpt>
      <trkpt lat="45.65999" lon="2.93888">
        <ele>1030</ele>
        <time>2022-08-17T11:39:01Z</time>
      </trkpt>
      <trkpt lat="45.66" lon="2.93882">
        <ele>1030</ele>
        <time>2022-08-17T11:39:02Z</time>
      </trkpt>
      <trkpt lat="45.66002" lon="2.93875">
        <ele>1030</ele>
        <time>2022-08-17T11:39:03Z</time>
      </trkpt>
      <trkpt lat="45.66004" lon="2.93869">
        <ele>1030</ele>
        <time>2022-08-17T11:39:04Z</time>
      </trkpt>
      <trkpt lat="45.66005" lon="2.93863">
        <ele>1030</ele>
        <time>2022-08-17T11:39:05Z</time>
      </trkpt>
      <trkpt lat="45.66007" lon="2.93857">
        <ele>1030</ele>
        <time>2022-08-17T11:39:06Z</time>
      </trkpt>
      <trkpt lat="45.66009" lon="2.9385">
        <ele>1030</ele>
        <time>2022-08-17T11:39:07Z</time>
      </trkpt>
      <trkpt lat="45.6601" lon="2.93844">
        <ele>1031</ele>
        <time>2022-08-17T11:39:08Z</time>
      </trkpt>
      <trkpt lat="45.66018" lon="2.93835">
        <ele>1031</ele>
        <time>2022-08-17T11:39:09Z</time>
      </trkpt>
      <trkpt lat="45.66023" lon="2.93832">
        <ele>1031</ele>
        <time>2022-08-17T11:39:10Z</time>
      </trkpt>
      <trkpt lat="45.66028" lon="2.93829">
        <ele>1031</ele>
        <time>2022-08-17T11:39:11Z</time>
      </trkpt>
      <trkpt lat="45.66032" lon="2.93826">
        <ele>1031</ele>
        <time>2022-08-17T11:39:12Z</time>
      </trkpt>
      <trkpt lat="45.66037" lon="2.93823">
        <ele>1031</ele>
        <time>2022-08-17T11:39:13Z</time>
      </trkpt>
      <trkpt lat="45.66042" lon="2.93821">
        <ele>1031</ele>
        <time>2022-08-17T11:39:14Z</time>
      </trkpt>
      <trkpt lat="45.66046" lon="2.93818">
        <ele>1031</ele>
        <time>2022-08-17T11:39:15Z</time>
      </trkpt>
      <trkpt lat="45.66051" lon="2.93815">
        <ele>1031</ele>
        <time>2022-08-17T11:39:16Z</time>
      </trkpt>
      <trkpt lat="45.66056" lon="2.93812">
        <ele>1031</ele>
        <time>2022-08-17T11:39:17Z</time>
      </trkpt>
      <trkpt lat="45.6606" lon="2.93809">
        <ele>1031</ele>
        <time>2022-08-17T11:39:18Z</time>
      </trkpt>
      <trkpt lat="45.66072" lon="2.93804">
        <ele>1031</ele>
        <time>2022-08-17T11:39:19Z</time>
      </trkpt>
      <trkpt lat="45.66077" lon="2.93802">
        <ele>1031</ele>
        <time>2022-08-17T11:39:21Z</time>
      </trkpt>
      <trkpt lat="45.66083" lon="2.938">
        <ele>1031</ele>
        <time>2022-08-17T11:39:22Z</time>
      </trkpt>
      <trkpt lat="45.66088" lon="2.93798">
        <ele>1031</ele>
        <time>2022-08-17T11:39:23Z</time>
      </trkpt>
      <trkpt lat="45.66094" lon="2.93795">
        <ele>1031</ele>
        <time>2022-08-17T11:39:24Z</time>
      </trkpt>
      <trkpt lat="45.661" lon="2.93793">
        <ele>1031</ele>
        <time>2022-08-17T11:39:25Z</time>
      </trkpt>
      <trkpt lat="45.66105" lon="2.93791">
        <ele>1031</ele>
        <time>2022-08-17T11:39:26Z</time>
      </trkpt>
      <trkpt lat="45.66111" lon="2.93789">
        <ele>1031</ele>
        <time>2022-08-17T11:39:27Z</time>
      </trkpt>
      <trkpt lat="45.66116" lon="2.93787">
        <ele>1031</ele>
        <time>2022-08-17T11:39:28Z</time>
      </trkpt>
      <trkpt lat="45.66127" lon="2.93782">
        <ele>1031</ele>
        <time>2022-08-17T11:39:29Z</time>
      </trkpt>
      <trkpt lat="45.66132" lon="2.93779">
        <ele>1031</ele>
        <time>2022-08-17T11:39:30Z</time>
      </trkpt>
      <trkpt lat="45.66137" lon="2.93777">
        <ele>1031</ele>
        <time>2022-08-17T11:39:31Z</time>
      </trkpt>
      <trkpt lat="45.66142" lon="2.93774">
        <ele>1031</ele>
        <time>2022-08-17T11:39:32Z</time>
      </trkpt>
      <trkpt lat="45.66147" lon="2.93772">
        <ele>1031</ele>
        <time>2022-08-17T11:39:33Z</time>
      </trkpt>
      <trkpt lat="45.66152" lon="2.93769">
        <ele>1031</ele>
        <time>2022-08-17T11:39:34Z</time>
      </trkpt>
      <trkpt lat="45.66157" lon="2.93767">
        <ele>1031</ele>
        <time>2022-08-17T11:39:35Z</time>
      </trkpt>
      <trkpt lat="45.66162" lon="2.93764">
        <ele>1031</ele>
        <time>2022-08-17T11:39:36Z</time>
      </trkpt>
      <trkpt lat="45.66167" lon="2.93762">
        <ele>1031</ele>
        <time>2022-08-17T11:39:37Z</time>
      </trkpt>
      <trkpt lat="45.66172" lon="2.93759">
        <ele>1031</ele>
        <time>2022-08-17T11:39:38Z</time>
      </trkpt>
      <trkpt lat="45.66183" lon="2.93751">
        <ele>1031</ele>
        <time>2022-08-17T11:39:39Z</time>
      </trkpt>
      <trkpt lat="45.66189" lon="2.93746">
        <ele>1031</ele>
        <time>2022-08-17T11:39:40Z</time>
      </trkpt>
      <trkpt lat="45.66195" lon="2.93742">
        <ele>1031</ele>
        <time>2022-08-17T11:39:42Z</time>
      </trkpt>
      <trkpt lat="45.66201" lon="2.93737">
        <ele>1031</ele>
        <time>2022-08-17T11:39:44Z</time>
      </trkpt>
      <trkpt lat="45.66206" lon="2.93733">
        <ele>1031</ele>
        <time>2022-08-17T11:39:45Z</time>
      </trkpt>
      <trkpt lat="45.66212" lon="2.93728">
        <ele>1031</ele>
        <time>2022-08-17T11:39:46Z</time>
      </trkpt>
      <trkpt lat="45.66218" lon="2.93724">
        <ele>1031</ele>
        <time>2022-08-17T11:39:47Z</time>
      </trkpt>
      <trkpt lat="45.66224" lon="2.93719">
        <ele>1030</ele>
        <time>2022-08-17T11:39:48Z</time>
      </trkpt>
      <trkpt lat="45.66233" lon="2.93711">
        <ele>1030</ele>
        <time>2022-08-17T11:39:49Z</time>
      </trkpt>
      <trkpt lat="45.66238" lon="2.93707">
        <ele>1030</ele>
        <time>2022-08-17T11:39:50Z</time>
      </trkpt>
      <trkpt lat="45.66242" lon="2.93703">
        <ele>1030</ele>
        <time>2022-08-17T11:39:51Z</time>
      </trkpt>
      <trkpt lat="45.66246" lon="2.93699">
        <ele>1030</ele>
        <time>2022-08-17T11:39:52Z</time>
      </trkpt>
      <trkpt lat="45.66251" lon="2.93695">
        <ele>1030</ele>
        <time>2022-08-17T11:39:53Z</time>
      </trkpt>
      <trkpt lat="45.66255" lon="2.93692">
        <ele>1030</ele>
        <time>2022-08-17T11:39:54Z</time>
      </trkpt>
      <trkpt lat="45.6626" lon="2.93688">
        <ele>1030</ele>
        <time>2022-08-17T11:39:55Z</time>
      </trkpt>
      <trkpt lat="45.66264" lon="2.93684">
        <ele>1030</ele>
        <time>2022-08-17T11:39:56Z</time>
      </trkpt>
      <trkpt lat="45.66269" lon="2.9368">
        <ele>1030</ele>
        <time>2022-08-17T11:39:57Z</time>
      </trkpt>
      <trkpt lat="45.66273" lon="2.93676">
        <ele>1031</ele>
        <time>2022-08-17T11:39:58Z</time>
      </trkpt>
      <trkpt lat="45.66284" lon="2.93667">
        <ele>1031</ele>
        <time>2022-08-17T11:39:59Z</time>
      </trkpt>
      <trkpt lat="45.66289" lon="2.93662">
        <ele>1031</ele>
        <time>2022-08-17T11:40:01Z</time>
      </trkpt>
      <trkpt lat="45.66295" lon="2.93657">
        <ele>1031</ele>
        <time>2022-08-17T11:40:03Z</time>
      </trkpt>
      <trkpt lat="45.66301" lon="2.93652">
        <ele>1031</ele>
        <time>2022-08-17T11:40:04Z</time>
      </trkpt>
      <trkpt lat="45.66307" lon="2.93648">
        <ele>1031</ele>
        <time>2022-08-17T11:40:05Z</time>
      </trkpt>
      <trkpt lat="45.66312" lon="2.93643">
        <ele>1031</ele>
        <time>2022-08-17T11:40:06Z</time>
      </trkpt>
      <trkpt lat="45.66318" lon="2.93638">
        <ele>1031</ele>
        <time>2022-08-17T11:40:07Z</time>
      </trkpt>
      <trkpt lat="45.66324" lon="2.93633">
        <ele>1030</ele>
        <time>2022-08-17T11:40:08Z</time>
      </trkpt>
      <trkpt lat="45.66333" lon="2.93623">
        <ele>1030</ele>
        <time>2022-08-17T11:40:09Z</time>
      </trkpt>
      <trkpt lat="45.66337" lon="2.93617">
        <ele>1030</ele>
        <time>2022-08-17T11:40:10Z</time>
      </trkpt>
      <trkpt lat="45.66341" lon="2.93611">
        <ele>1030</ele>
        <time>2022-08-17T11:40:11Z</time>
      </trkpt>
      <trkpt lat="45.66345" lon="2.93605">
        <ele>1030</ele>
        <time>2022-08-17T11:40:12Z</time>
      </trkpt>
      <trkpt lat="45.66349" lon="2.936">
        <ele>1030</ele>
        <time>2022-08-17T11:40:13Z</time>
      </trkpt>
      <trkpt lat="45.66353" lon="2.93594">
        <ele>1030</ele>
        <time>2022-08-17T11:40:14Z</time>
      </trkpt>
      <trkpt lat="45.66357" lon="2.93588">
        <ele>1030</ele>
        <time>2022-08-17T11:40:16Z</time>
      </trkpt>
      <trkpt lat="45.66361" lon="2.93582">
        <ele>1030</ele>
        <time>2022-08-17T11:40:17Z</time>
      </trkpt>
      <trkpt lat="45.66365" lon="2.93577">
        <ele>1030</ele>
        <time>2022-08-17T11:40:18Z</time>
      </trkpt>
      <trkpt lat="45.66371" lon="2.93562">
        <ele>1030</ele>
        <time>2022-08-17T11:40:19Z</time>
      </trkpt>
      <trkpt lat="45.66374" lon="2.93555">
        <ele>1030</ele>
        <time>2022-08-17T11:40:20Z</time>
      </trkpt>
      <trkpt lat="45.66377" lon="2.93547">
        <ele>1030</ele>
        <time>2022-08-17T11:40:21Z</time>
      </trkpt>
      <trkpt lat="45.6638" lon="2.9354">
        <ele>1030</ele>
        <time>2022-08-17T11:40:22Z</time>
      </trkpt>
      <trkpt lat="45.66382" lon="2.93532">
        <ele>1030</ele>
        <time>2022-08-17T11:40:24Z</time>
      </trkpt>
      <trkpt lat="45.66385" lon="2.93525">
        <ele>1030</ele>
        <time>2022-08-17T11:40:25Z</time>
      </trkpt>
      <trkpt lat="45.66388" lon="2.93517">
        <ele>1030</ele>
        <time>2022-08-17T11:40:26Z</time>
      </trkpt>
      <trkpt lat="45.66391" lon="2.9351">
        <ele>1030</ele>
        <time>2022-08-17T11:40:27Z</time>
      </trkpt>
      <trkpt lat="45.66394" lon="2.93502">
        <ele>1030</ele>
        <time>2022-08-17T11:40:28Z</time>
      </trkpt>
      <trkpt lat="45.664" lon="2.93488">
        <ele>1030</ele>
        <time>2022-08-17T11:40:29Z</time>
      </trkpt>
      <trkpt lat="45.66404" lon="2.93482">
        <ele>1030</ele>
        <time>2022-08-17T11:40:30Z</time>
      </trkpt>
      <trkpt lat="45.66407" lon="2.93476">
        <ele>1030</ele>
        <time>2022-08-17T11:40:31Z</time>
      </trkpt>
      <trkpt lat="45.66411" lon="2.9347">
        <ele>1030</ele>
        <time>2022-08-17T11:40:32Z</time>
      </trkpt>
      <trkpt lat="45.66414" lon="2.93464">
        <ele>1030</ele>
        <time>2022-08-17T11:40:33Z</time>
      </trkpt>
      <trkpt lat="45.66418" lon="2.93457">
        <ele>1030</ele>
        <time>2022-08-17T11:40:34Z</time>
      </trkpt>
      <trkpt lat="45.66421" lon="2.93451">
        <ele>1030</ele>
        <time>2022-08-17T11:40:35Z</time>
      </trkpt>
      <trkpt lat="45.66424" lon="2.93445">
        <ele>1030</ele>
        <time>2022-08-17T11:40:36Z</time>
      </trkpt>
      <trkpt lat="45.66428" lon="2.93439">
        <ele>1030</ele>
        <time>2022-08-17T11:40:37Z</time>
      </trkpt>
      <trkpt lat="45.66431" lon="2.93433">
        <ele>1030</ele>
        <time>2022-08-17T11:40:38Z</time>
      </trkpt>
      <trkpt lat="45.6644" lon="2.93424">
        <ele>1030</ele>
        <time>2022-08-17T11:40:39Z</time>
      </trkpt>
      <trkpt lat="45.66445" lon="2.93421">
        <ele>1030</ele>
        <time>2022-08-17T11:40:40Z</time>
      </trkpt>
      <trkpt lat="45.6645" lon="2.93417">
        <ele>1030</ele>
        <time>2022-08-17T11:40:41Z</time>
      </trkpt>
      <trkpt lat="45.66454" lon="2.93414">
        <ele>1030</ele>
        <time>2022-08-17T11:40:42Z</time>
      </trkpt>
      <trkpt lat="45.66459" lon="2.93411">
        <ele>1030</ele>
        <time>2022-08-17T11:40:43Z</time>
      </trkpt>
      <trkpt lat="45.66463" lon="2.93407">
        <ele>1030</ele>
        <time>2022-08-17T11:40:44Z</time>
      </trkpt>
      <trkpt lat="45.66468" lon="2.93404">
        <ele>1030</ele>
        <time>2022-08-17T11:40:45Z</time>
      </trkpt>
      <trkpt lat="45.66472" lon="2.93401">
        <ele>1030</ele>
        <time>2022-08-17T11:40:46Z</time>
      </trkpt>
      <trkpt lat="45.66477" lon="2.93398">
        <ele>1030</ele>
        <time>2022-08-17T11:40:47Z</time>
      </trkpt>
      <trkpt lat="45.66481" lon="2.93394">
        <ele>1030</ele>
        <time>2022-08-17T11:40:48Z</time>
      </trkpt>
      <trkpt lat="45.6649" lon="2.93389">
        <ele>1030</ele>
        <time>2022-08-17T11:40:49Z</time>
      </trkpt>
      <trkpt lat="45.66494" lon="2.93386">
        <ele>1030</ele>
        <time>2022-08-17T11:40:50Z</time>
      </trkpt>
      <trkpt lat="45.66497" lon="2.93384">
        <ele>1030</ele>
        <time>2022-08-17T11:40:51Z</time>
      </trkpt>
      <trkpt lat="45.66501" lon="2.93382">
        <ele>1030</ele>
        <time>2022-08-17T11:40:52Z</time>
      </trkpt>
      <trkpt lat="45.66505" lon="2.93379">
        <ele>1030</ele>
        <time>2022-08-17T11:40:53Z</time>
      </trkpt>
      <trkpt lat="45.66509" lon="2.93377">
        <ele>1030</ele>
        <time>2022-08-17T11:40:54Z</time>
      </trkpt>
      <trkpt lat="45.66512" lon="2.93375">
        <ele>1030</ele>
        <time>2022-08-17T11:40:55Z</time>
      </trkpt>
      <trkpt lat="45.66516" lon="2.93372">
        <ele>1030</ele>
        <time>2022-08-17T11:40:56Z</time>
      </trkpt>
      <trkpt lat="45.6652" lon="2.9337">
        <ele>1030</ele>
        <time>2022-08-17T11:40:57Z</time>
      </trkpt>
      <trkpt lat="45.66524" lon="2.93367">
        <ele>1030</ele>
        <time>2022-08-17T11:40:58Z</time>
      </trkpt>
      <trkpt lat="45.66528" lon="2.93361">
        <ele>1030</ele>
        <time>2022-08-17T11:40:59Z</time>
      </trkpt>
      <trkpt lat="45.6653" lon="2.93357">
        <ele>1030</ele>
        <time>2022-08-17T11:41:00Z</time>
      </trkpt>
      <trkpt lat="45.66531" lon="2.93353">
        <ele>1030</ele>
        <time>2022-08-17T11:41:01Z</time>
      </trkpt>
      <trkpt lat="45.66532" lon="2.93349">
        <ele>1030</ele>
        <time>2022-08-17T11:41:02Z</time>
      </trkpt>
      <trkpt lat="45.66534" lon="2.93345">
        <ele>1030</ele>
        <time>2022-08-17T11:41:03Z</time>
      </trkpt>
      <trkpt lat="45.66535" lon="2.93341">
        <ele>1030</ele>
        <time>2022-08-17T11:41:05Z</time>
      </trkpt>
      <trkpt lat="45.66536" lon="2.93337">
        <ele>1030</ele>
        <time>2022-08-17T11:41:06Z</time>
      </trkpt>
      <trkpt lat="45.66538" lon="2.93333">
        <ele>1030</ele>
        <time>2022-08-17T11:41:08Z</time>
      </trkpt>
      <trkpt lat="45.66532" lon="2.93315">
        <ele>1030</ele>
        <time>2022-08-17T11:41:10Z</time>
      </trkpt>
      <trkpt lat="45.66529" lon="2.93308">
        <ele>1030</ele>
        <time>2022-08-17T11:41:11Z</time>
      </trkpt>
      <trkpt lat="45.66527" lon="2.93302">
        <ele>1030</ele>
        <time>2022-08-17T11:41:12Z</time>
      </trkpt>
      <trkpt lat="45.66525" lon="2.93295">
        <ele>1030</ele>
        <time>2022-08-17T11:41:13Z</time>
      </trkpt>
      <trkpt lat="45.66522" lon="2.93289">
        <ele>1030</ele>
        <time>2022-08-17T11:41:14Z</time>
      </trkpt>
      <trkpt lat="45.6652" lon="2.93283">
        <ele>1030</ele>
        <time>2022-08-17T11:41:15Z</time>
      </trkpt>
      <trkpt lat="45.66518" lon="2.93276">
        <ele>1030</ele>
        <time>2022-08-17T11:41:16Z</time>
      </trkpt>
      <trkpt lat="45.66515" lon="2.9327">
        <ele>1030</ele>
        <time>2022-08-17T11:41:17Z</time>
      </trkpt>
      <trkpt lat="45.66513" lon="2.93263">
        <ele>1030</ele>
        <time>2022-08-17T11:41:18Z</time>
      </trkpt>
      <trkpt lat="45.66508" lon="2.93249">
        <ele>1030</ele>
        <time>2022-08-17T11:41:19Z</time>
      </trkpt>
      <trkpt lat="45.66506" lon="2.93242">
        <ele>1030</ele>
        <time>2022-08-17T11:41:20Z</time>
      </trkpt>
      <trkpt lat="45.66504" lon="2.93234">
        <ele>1030</ele>
        <time>2022-08-17T11:41:21Z</time>
      </trkpt>
      <trkpt lat="45.66502" lon="2.93227">
        <ele>1030</ele>
        <time>2022-08-17T11:41:22Z</time>
      </trkpt>
      <trkpt lat="45.66499" lon="2.9322">
        <ele>1030</ele>
        <time>2022-08-17T11:41:23Z</time>
      </trkpt>
      <trkpt lat="45.66497" lon="2.93213">
        <ele>1030</ele>
        <time>2022-08-17T11:41:24Z</time>
      </trkpt>
      <trkpt lat="45.66495" lon="2.93206">
        <ele>1030</ele>
        <time>2022-08-17T11:41:25Z</time>
      </trkpt>
      <trkpt lat="45.66493" lon="2.93199">
        <ele>1030</ele>
        <time>2022-08-17T11:41:26Z</time>
      </trkpt>
      <trkpt lat="45.66491" lon="2.93192">
        <ele>1030</ele>
        <time>2022-08-17T11:41:27Z</time>
      </trkpt>
      <trkpt lat="45.66488" lon="2.93185">
        <ele>1031</ele>
        <time>2022-08-17T11:41:28Z</time>
      </trkpt>
      <trkpt lat="45.66484" lon="2.93169">
        <ele>1031</ele>
        <time>2022-08-17T11:41:29Z</time>
      </trkpt>
      <trkpt lat="45.66481" lon="2.93161">
        <ele>1031</ele>
        <time>2022-08-17T11:41:30Z</time>
      </trkpt>
      <trkpt lat="45.66479" lon="2.93153">
        <ele>1031</ele>
        <time>2022-08-17T11:41:31Z</time>
      </trkpt>
      <trkpt lat="45.66477" lon="2.93145">
        <ele>1031</ele>
        <time>2022-08-17T11:41:32Z</time>
      </trkpt>
      <trkpt lat="45.66475" lon="2.93138">
        <ele>1031</ele>
        <time>2022-08-17T11:41:33Z</time>
      </trkpt>
      <trkpt lat="45.66472" lon="2.9313">
        <ele>1031</ele>
        <time>2022-08-17T11:41:34Z</time>
      </trkpt>
      <trkpt lat="45.6647" lon="2.93122">
        <ele>1031</ele>
        <time>2022-08-17T11:41:35Z</time>
      </trkpt>
      <trkpt lat="45.66468" lon="2.93115">
        <ele>1031</ele>
        <time>2022-08-17T11:41:36Z</time>
      </trkpt>
      <trkpt lat="45.66465" lon="2.93107">
        <ele>1031</ele>
        <time>2022-08-17T11:41:37Z</time>
      </trkpt>
      <trkpt lat="45.66463" lon="2.93099">
        <ele>1032</ele>
        <time>2022-08-17T11:41:38Z</time>
      </trkpt>
      <trkpt lat="45.66458" lon="2.93082">
        <ele>1032</ele>
        <time>2022-08-17T11:41:39Z</time>
      </trkpt>
      <trkpt lat="45.66455" lon="2.93075">
        <ele>1032</ele>
        <time>2022-08-17T11:41:40Z</time>
      </trkpt>
      <trkpt lat="45.66453" lon="2.93067">
        <ele>1032</ele>
        <time>2022-08-17T11:41:41Z</time>
      </trkpt>
      <trkpt lat="45.6645" lon="2.93059">
        <ele>1032</ele>
        <time>2022-08-17T11:41:42Z</time>
      </trkpt>
      <trkpt lat="45.66448" lon="2.93052">
        <ele>1032</ele>
        <time>2022-08-17T11:41:43Z</time>
      </trkpt>
      <trkpt lat="45.66445" lon="2.93044">
        <ele>1032</ele>
        <time>2022-08-17T11:41:44Z</time>
      </trkpt>
      <trkpt lat="45.66443" lon="2.93036">
        <ele>1032</ele>
        <time>2022-08-17T11:41:45Z</time>
      </trkpt>
      <trkpt lat="45.6644" lon="2.93028">
        <ele>1032</ele>
        <time>2022-08-17T11:41:46Z</time>
      </trkpt>
      <trkpt lat="45.66438" lon="2.93021">
        <ele>1032</ele>
        <time>2022-08-17T11:41:47Z</time>
      </trkpt>
      <trkpt lat="45.66435" lon="2.93013">
        <ele>1031</ele>
        <time>2022-08-17T11:41:48Z</time>
      </trkpt>
      <trkpt lat="45.6643" lon="2.92997">
        <ele>1031</ele>
        <time>2022-08-17T11:41:49Z</time>
      </trkpt>
      <trkpt lat="45.66428" lon="2.9299">
        <ele>1031</ele>
        <time>2022-08-17T11:41:50Z</time>
      </trkpt>
      <trkpt lat="45.66425" lon="2.92982">
        <ele>1031</ele>
        <time>2022-08-17T11:41:51Z</time>
      </trkpt>
      <trkpt lat="45.66423" lon="2.92975">
        <ele>1031</ele>
        <time>2022-08-17T11:41:52Z</time>
      </trkpt>
      <trkpt lat="45.6642" lon="2.92967">
        <ele>1031</ele>
        <time>2022-08-17T11:41:53Z</time>
      </trkpt>
      <trkpt lat="45.66418" lon="2.9296">
        <ele>1031</ele>
        <time>2022-08-17T11:41:54Z</time>
      </trkpt>
      <trkpt lat="45.66415" lon="2.92953">
        <ele>1031</ele>
        <time>2022-08-17T11:41:55Z</time>
      </trkpt>
      <trkpt lat="45.66413" lon="2.92945">
        <ele>1031</ele>
        <time>2022-08-17T11:41:56Z</time>
      </trkpt>
      <trkpt lat="45.66411" lon="2.92938">
        <ele>1031</ele>
        <time>2022-08-17T11:41:57Z</time>
      </trkpt>
      <trkpt lat="45.66408" lon="2.9293">
        <ele>1031</ele>
        <time>2022-08-17T11:41:58Z</time>
      </trkpt>
      <trkpt lat="45.66402" lon="2.92915">
        <ele>1031</ele>
        <time>2022-08-17T11:41:59Z</time>
      </trkpt>
      <trkpt lat="45.66399" lon="2.92908">
        <ele>1031</ele>
        <time>2022-08-17T11:42:00Z</time>
      </trkpt>
      <trkpt lat="45.66397" lon="2.92902">
        <ele>1031</ele>
        <time>2022-08-17T11:42:01Z</time>
      </trkpt>
      <trkpt lat="45.66394" lon="2.92895">
        <ele>1031</ele>
        <time>2022-08-17T11:42:02Z</time>
      </trkpt>
      <trkpt lat="45.66391" lon="2.92888">
        <ele>1031</ele>
        <time>2022-08-17T11:42:03Z</time>
      </trkpt>
      <trkpt lat="45.66388" lon="2.92881">
        <ele>1031</ele>
        <time>2022-08-17T11:42:04Z</time>
      </trkpt>
      <trkpt lat="45.66385" lon="2.92874">
        <ele>1031</ele>
        <time>2022-08-17T11:42:05Z</time>
      </trkpt>
      <trkpt lat="45.66382" lon="2.92867">
        <ele>1031</ele>
        <time>2022-08-17T11:42:06Z</time>
      </trkpt>
      <trkpt lat="45.66379" lon="2.92861">
        <ele>1031</ele>
        <time>2022-08-17T11:42:07Z</time>
      </trkpt>
      <trkpt lat="45.66376" lon="2.92854">
        <ele>1030</ele>
        <time>2022-08-17T11:42:08Z</time>
      </trkpt>
      <trkpt lat="45.66369" lon="2.9284">
        <ele>1030</ele>
        <time>2022-08-17T11:42:09Z</time>
      </trkpt>
      <trkpt lat="45.66366" lon="2.92833">
        <ele>1030</ele>
        <time>2022-08-17T11:42:10Z</time>
      </trkpt>
      <trkpt lat="45.66363" lon="2.92826">
        <ele>1030</ele>
        <time>2022-08-17T11:42:11Z</time>
      </trkpt>
      <trkpt lat="45.66359" lon="2.9282">
        <ele>1030</ele>
        <time>2022-08-17T11:42:12Z</time>
      </trkpt>
      <trkpt lat="45.66356" lon="2.92813">
        <ele>1030</ele>
        <time>2022-08-17T11:42:13Z</time>
      </trkpt>
      <trkpt lat="45.66353" lon="2.92807">
        <ele>1030</ele>
        <time>2022-08-17T11:42:14Z</time>
      </trkpt>
      <trkpt lat="45.66349" lon="2.928">
        <ele>1030</ele>
        <time>2022-08-17T11:42:15Z</time>
      </trkpt>
      <trkpt lat="45.66346" lon="2.92793">
        <ele>1030</ele>
        <time>2022-08-17T11:42:16Z</time>
      </trkpt>
      <trkpt lat="45.66343" lon="2.92787">
        <ele>1030</ele>
        <time>2022-08-17T11:42:17Z</time>
      </trkpt>
      <trkpt lat="45.6634" lon="2.9278">
        <ele>1030</ele>
        <time>2022-08-17T11:42:18Z</time>
      </trkpt>
      <trkpt lat="45.66333" lon="2.92765">
        <ele>1030</ele>
        <time>2022-08-17T11:42:19Z</time>
      </trkpt>
      <trkpt lat="45.66329" lon="2.92757">
        <ele>1030</ele>
        <time>2022-08-17T11:42:20Z</time>
      </trkpt>
      <trkpt lat="45.66326" lon="2.9275">
        <ele>1030</ele>
        <time>2022-08-17T11:42:21Z</time>
      </trkpt>
      <trkpt lat="45.66322" lon="2.92742">
        <ele>1030</ele>
        <time>2022-08-17T11:42:22Z</time>
      </trkpt>
      <trkpt lat="45.66319" lon="2.92734">
        <ele>1030</ele>
        <time>2022-08-17T11:42:23Z</time>
      </trkpt>
      <trkpt lat="45.66316" lon="2.92726">
        <ele>1030</ele>
        <time>2022-08-17T11:42:24Z</time>
      </trkpt>
      <trkpt lat="45.66312" lon="2.92719">
        <ele>1030</ele>
        <time>2022-08-17T11:42:25Z</time>
      </trkpt>
      <trkpt lat="45.66309" lon="2.92711">
        <ele>1030</ele>
        <time>2022-08-17T11:42:26Z</time>
      </trkpt>
      <trkpt lat="45.66305" lon="2.92703">
        <ele>1031</ele>
        <time>2022-08-17T11:42:28Z</time>
      </trkpt>
      <trkpt lat="45.66297" lon="2.9268">
        <ele>1031</ele>
        <time>2022-08-17T11:42:30Z</time>
      </trkpt>
      <trkpt lat="45.66295" lon="2.92673">
        <ele>1031</ele>
        <time>2022-08-17T11:42:31Z</time>
      </trkpt>
      <trkpt lat="45.66293" lon="2.92666">
        <ele>1031</ele>
        <time>2022-08-17T11:42:32Z</time>
      </trkpt>
      <trkpt lat="45.66292" lon="2.92659">
        <ele>1031</ele>
        <time>2022-08-17T11:42:33Z</time>
      </trkpt>
      <trkpt lat="45.6629" lon="2.92652">
        <ele>1031</ele>
        <time>2022-08-17T11:42:34Z</time>
      </trkpt>
      <trkpt lat="45.66288" lon="2.92645">
        <ele>1031</ele>
        <time>2022-08-17T11:42:35Z</time>
      </trkpt>
      <trkpt lat="45.66286" lon="2.92638">
        <ele>1031</ele>
        <time>2022-08-17T11:42:36Z</time>
      </trkpt>
      <trkpt lat="45.66284" lon="2.92631">
        <ele>1031</ele>
        <time>2022-08-17T11:42:37Z</time>
      </trkpt>
      <trkpt lat="45.66282" lon="2.92624">
        <ele>1031</ele>
        <time>2022-08-17T11:42:38Z</time>
      </trkpt>
      <trkpt lat="45.66291" lon="2.92611">
        <ele>1031</ele>
        <time>2022-08-17T11:42:39Z</time>
      </trkpt>
      <trkpt lat="45.66295" lon="2.92604">
        <ele>1031</ele>
        <time>2022-08-17T11:42:40Z</time>
      </trkpt>
      <trkpt lat="45.663" lon="2.92598">
        <ele>1031</ele>
        <time>2022-08-17T11:42:41Z</time>
      </trkpt>
      <trkpt lat="45.66305" lon="2.92591">
        <ele>1031</ele>
        <time>2022-08-17T11:42:42Z</time>
      </trkpt>
      <trkpt lat="45.6631" lon="2.92585">
        <ele>1031</ele>
        <time>2022-08-17T11:42:43Z</time>
      </trkpt>
      <trkpt lat="45.66314" lon="2.92579">
        <ele>1031</ele>
        <time>2022-08-17T11:42:44Z</time>
      </trkpt>
      <trkpt lat="45.66319" lon="2.92572">
        <ele>1031</ele>
        <time>2022-08-17T11:42:45Z</time>
      </trkpt>
      <trkpt lat="45.66324" lon="2.92566">
        <ele>1031</ele>
        <time>2022-08-17T11:42:46Z</time>
      </trkpt>
      <trkpt lat="45.66329" lon="2.92559">
        <ele>1031</ele>
        <time>2022-08-17T11:42:47Z</time>
      </trkpt>
      <trkpt lat="45.66333" lon="2.92553">
        <ele>1029</ele>
        <time>2022-08-17T11:42:48Z</time>
      </trkpt>
      <trkpt lat="45.66343" lon="2.92538">
        <ele>1029</ele>
        <time>2022-08-17T11:42:49Z</time>
      </trkpt>
      <trkpt lat="45.66348" lon="2.9253">
        <ele>1029</ele>
        <time>2022-08-17T11:42:50Z</time>
      </trkpt>
      <trkpt lat="45.66352" lon="2.92523">
        <ele>1029</ele>
        <time>2022-08-17T11:42:51Z</time>
      </trkpt>
      <trkpt lat="45.66357" lon="2.92515">
        <ele>1029</ele>
        <time>2022-08-17T11:42:52Z</time>
      </trkpt>
      <trkpt lat="45.66361" lon="2.92507">
        <ele>1029</ele>
        <time>2022-08-17T11:42:53Z</time>
      </trkpt>
      <trkpt lat="45.66366" lon="2.925">
        <ele>1029</ele>
        <time>2022-08-17T11:42:54Z</time>
      </trkpt>
      <trkpt lat="45.6637" lon="2.92492">
        <ele>1029</ele>
        <time>2022-08-17T11:42:55Z</time>
      </trkpt>
      <trkpt lat="45.66375" lon="2.92485">
        <ele>1029</ele>
        <time>2022-08-17T11:42:56Z</time>
      </trkpt>
      <trkpt lat="45.6638" lon="2.92477">
        <ele>1029</ele>
        <time>2022-08-17T11:42:57Z</time>
      </trkpt>
      <trkpt lat="45.66384" lon="2.92469">
        <ele>1028</ele>
        <time>2022-08-17T11:42:58Z</time>
      </trkpt>
      <trkpt lat="45.66395" lon="2.92449">
        <ele>1028</ele>
        <time>2022-08-17T11:42:59Z</time>
      </trkpt>
      <trkpt lat="45.664" lon="2.9244">
        <ele>1028</ele>
        <time>2022-08-17T11:43:00Z</time>
      </trkpt>
      <trkpt lat="45.66406" lon="2.9243">
        <ele>1028</ele>
        <time>2022-08-17T11:43:01Z</time>
      </trkpt>
      <trkpt lat="45.66411" lon="2.9242">
        <ele>1028</ele>
        <time>2022-08-17T11:43:02Z</time>
      </trkpt>
      <trkpt lat="45.66416" lon="2.9241">
        <ele>1028</ele>
        <time>2022-08-17T11:43:04Z</time>
      </trkpt>
      <trkpt lat="45.66421" lon="2.924">
        <ele>1028</ele>
        <time>2022-08-17T11:43:05Z</time>
      </trkpt>
      <trkpt lat="45.66426" lon="2.9239">
        <ele>1028</ele>
        <time>2022-08-17T11:43:06Z</time>
      </trkpt>
      <trkpt lat="45.66432" lon="2.9238">
        <ele>1028</ele>
        <time>2022-08-17T11:43:07Z</time>
      </trkpt>
      <trkpt lat="45.66437" lon="2.9237">
        <ele>1024</ele>
        <time>2022-08-17T11:43:08Z</time>
      </trkpt>
      <trkpt lat="45.66442" lon="2.92353">
        <ele>1024</ele>
        <time>2022-08-17T11:43:09Z</time>
      </trkpt>
      <trkpt lat="45.66444" lon="2.92346">
        <ele>1024</ele>
        <time>2022-08-17T11:43:10Z</time>
      </trkpt>
      <trkpt lat="45.66446" lon="2.92338">
        <ele>1024</ele>
        <time>2022-08-17T11:43:11Z</time>
      </trkpt>
      <trkpt lat="45.66448" lon="2.92331">
        <ele>1024</ele>
        <time>2022-08-17T11:43:12Z</time>
      </trkpt>
      <trkpt lat="45.66451" lon="2.92324">
        <ele>1024</ele>
        <time>2022-08-17T11:43:13Z</time>
      </trkpt>
      <trkpt lat="45.66453" lon="2.92317">
        <ele>1024</ele>
        <time>2022-08-17T11:43:14Z</time>
      </trkpt>
      <trkpt lat="45.66455" lon="2.9231">
        <ele>1024</ele>
        <time>2022-08-17T11:43:15Z</time>
      </trkpt>
      <trkpt lat="45.66457" lon="2.92302">
        <ele>1024</ele>
        <time>2022-08-17T11:43:16Z</time>
      </trkpt>
      <trkpt lat="45.66459" lon="2.92295">
        <ele>1024</ele>
        <time>2022-08-17T11:43:17Z</time>
      </trkpt>
      <trkpt lat="45.66461" lon="2.92288">
        <ele>1024</ele>
        <time>2022-08-17T11:43:18Z</time>
      </trkpt>
      <trkpt lat="45.66468" lon="2.92277">
        <ele>1024</ele>
        <time>2022-08-17T11:43:19Z</time>
      </trkpt>
      <trkpt lat="45.66472" lon="2.92273">
        <ele>1024</ele>
        <time>2022-08-17T11:43:20Z</time>
      </trkpt>
      <trkpt lat="45.66476" lon="2.92269">
        <ele>1024</ele>
        <time>2022-08-17T11:43:21Z</time>
      </trkpt>
      <trkpt lat="45.6648" lon="2.92265">
        <ele>1024</ele>
        <time>2022-08-17T11:43:22Z</time>
      </trkpt>
      <trkpt lat="45.66484" lon="2.92261">
        <ele>1024</ele>
        <time>2022-08-17T11:43:24Z</time>
      </trkpt>
      <trkpt lat="45.66488" lon="2.92257">
        <ele>1024</ele>
        <time>2022-08-17T11:43:25Z</time>
      </trkpt>
      <trkpt lat="45.66492" lon="2.92252">
        <ele>1024</ele>
        <time>2022-08-17T11:43:26Z</time>
      </trkpt>
      <trkpt lat="45.66496" lon="2.92248">
        <ele>1024</ele>
        <time>2022-08-17T11:43:27Z</time>
      </trkpt>
      <trkpt lat="45.665" lon="2.92244">
        <ele>1024</ele>
        <time>2022-08-17T11:43:28Z</time>
      </trkpt>
      <trkpt lat="45.66509" lon="2.92239">
        <ele>1024</ele>
        <time>2022-08-17T11:43:29Z</time>
      </trkpt>
      <trkpt lat="45.66513" lon="2.92236">
        <ele>1024</ele>
        <time>2022-08-17T11:43:30Z</time>
      </trkpt>
      <trkpt lat="45.66518" lon="2.92233">
        <ele>1024</ele>
        <time>2022-08-17T11:43:31Z</time>
      </trkpt>
      <trkpt lat="45.66522" lon="2.9223">
        <ele>1024</ele>
        <time>2022-08-17T11:43:32Z</time>
      </trkpt>
      <trkpt lat="45.66527" lon="2.92228">
        <ele>1024</ele>
        <time>2022-08-17T11:43:33Z</time>
      </trkpt>
      <trkpt lat="45.66531" lon="2.92225">
        <ele>1024</ele>
        <time>2022-08-17T11:43:34Z</time>
      </trkpt>
      <trkpt lat="45.66536" lon="2.92222">
        <ele>1024</ele>
        <time>2022-08-17T11:43:35Z</time>
      </trkpt>
      <trkpt lat="45.6654" lon="2.92219">
        <ele>1024</ele>
        <time>2022-08-17T11:43:36Z</time>
      </trkpt>
      <trkpt lat="45.66545" lon="2.92217">
        <ele>1029</ele>
        <time>2022-08-17T11:43:38Z</time>
      </trkpt>
      <trkpt lat="45.66553" lon="2.92212">
        <ele>1029</ele>
        <time>2022-08-17T11:43:39Z</time>
      </trkpt>
      <trkpt lat="45.66557" lon="2.9221">
        <ele>1029</ele>
        <time>2022-08-17T11:43:40Z</time>
      </trkpt>
      <trkpt lat="45.66562" lon="2.92208">
        <ele>1029</ele>
        <time>2022-08-17T11:43:41Z</time>
      </trkpt>
      <trkpt lat="45.66566" lon="2.92206">
        <ele>1029</ele>
        <time>2022-08-17T11:43:42Z</time>
      </trkpt>
      <trkpt lat="45.6657" lon="2.92203">
        <ele>1029</ele>
        <time>2022-08-17T11:43:43Z</time>
      </trkpt>
      <trkpt lat="45.66575" lon="2.92201">
        <ele>1029</ele>
        <time>2022-08-17T11:43:44Z</time>
      </trkpt>
      <trkpt lat="45.66579" lon="2.92199">
        <ele>1029</ele>
        <time>2022-08-17T11:43:45Z</time>
      </trkpt>
      <trkpt lat="45.66583" lon="2.92197">
        <ele>1029</ele>
        <time>2022-08-17T11:43:47Z</time>
      </trkpt>
      <trkpt lat="45.66588" lon="2.92195">
        <ele>1028</ele>
        <time>2022-08-17T11:43:48Z</time>
      </trkpt>
      <trkpt lat="45.66597" lon="2.92194">
        <ele>1028</ele>
        <time>2022-08-17T11:43:49Z</time>
      </trkpt>
      <trkpt lat="45.66601" lon="2.92193">
        <ele>1028</ele>
        <time>2022-08-17T11:43:50Z</time>
      </trkpt>
      <trkpt lat="45.66606" lon="2.92193">
        <ele>1028</ele>
        <time>2022-08-17T11:43:51Z</time>
      </trkpt>
      <trkpt lat="45.6661" lon="2.92193">
        <ele>1028</ele>
        <time>2022-08-17T11:43:52Z</time>
      </trkpt>
      <trkpt lat="45.66615" lon="2.92192">
        <ele>1028</ele>
        <time>2022-08-17T11:43:53Z</time>
      </trkpt>
      <trkpt lat="45.66619" lon="2.92192">
        <ele>1028</ele>
        <time>2022-08-17T11:43:54Z</time>
      </trkpt>
      <trkpt lat="45.66624" lon="2.92191">
        <ele>1028</ele>
        <time>2022-08-17T11:43:55Z</time>
      </trkpt>
      <trkpt lat="45.66628" lon="2.92191">
        <ele>1028</ele>
        <time>2022-08-17T11:43:56Z</time>
      </trkpt>
      <trkpt lat="45.66633" lon="2.9219">
        <ele>1028</ele>
        <time>2022-08-17T11:43:57Z</time>
      </trkpt>
      <trkpt lat="45.66637" lon="2.9219">
        <ele>1028</ele>
        <time>2022-08-17T11:43:58Z</time>
      </trkpt>
      <trkpt lat="45.66648" lon="2.92187">
        <ele>1028</ele>
        <time>2022-08-17T11:43:59Z</time>
      </trkpt>
      <trkpt lat="45.66653" lon="2.92185">
        <ele>1028</ele>
        <time>2022-08-17T11:44:00Z</time>
      </trkpt>
      <trkpt lat="45.66659" lon="2.92184">
        <ele>1028</ele>
        <time>2022-08-17T11:44:01Z</time>
      </trkpt>
      <trkpt lat="45.66665" lon="2.92182">
        <ele>1028</ele>
        <time>2022-08-17T11:44:02Z</time>
      </trkpt>
      <trkpt lat="45.6667" lon="2.9218">
        <ele>1028</ele>
        <time>2022-08-17T11:44:03Z</time>
      </trkpt>
      <trkpt lat="45.66676" lon="2.92179">
        <ele>1028</ele>
        <time>2022-08-17T11:44:04Z</time>
      </trkpt>
      <trkpt lat="45.66682" lon="2.92177">
        <ele>1028</ele>
        <time>2022-08-17T11:44:05Z</time>
      </trkpt>
      <trkpt lat="45.66687" lon="2.92176">
        <ele>1028</ele>
        <time>2022-08-17T11:44:06Z</time>
      </trkpt>
      <trkpt lat="45.66693" lon="2.92174">
        <ele>1028</ele>
        <time>2022-08-17T11:44:07Z</time>
      </trkpt>
      <trkpt lat="45.66698" lon="2.92172">
        <ele>1029</ele>
        <time>2022-08-17T11:44:08Z</time>
      </trkpt>
      <trkpt lat="45.66712" lon="2.92169">
        <ele>1029</ele>
        <time>2022-08-17T11:44:09Z</time>
      </trkpt>
      <trkpt lat="45.66718" lon="2.92167">
        <ele>1029</ele>
        <time>2022-08-17T11:44:10Z</time>
      </trkpt>
      <trkpt lat="45.66725" lon="2.92165">
        <ele>1029</ele>
        <time>2022-08-17T11:44:11Z</time>
      </trkpt>
      <trkpt lat="45.66731" lon="2.92163">
        <ele>1029</ele>
        <time>2022-08-17T11:44:12Z</time>
      </trkpt>
      <trkpt lat="45.66737" lon="2.92161">
        <ele>1029</ele>
        <time>2022-08-17T11:44:13Z</time>
      </trkpt>
      <trkpt lat="45.66744" lon="2.9216">
        <ele>1029</ele>
        <time>2022-08-17T11:44:14Z</time>
      </trkpt>
      <trkpt lat="45.6675" lon="2.92158">
        <ele>1029</ele>
        <time>2022-08-17T11:44:15Z</time>
      </trkpt>
      <trkpt lat="45.66757" lon="2.92156">
        <ele>1029</ele>
        <time>2022-08-17T11:44:16Z</time>
      </trkpt>
      <trkpt lat="45.66763" lon="2.92154">
        <ele>1029</ele>
        <time>2022-08-17T11:44:17Z</time>
      </trkpt>
      <trkpt lat="45.66769" lon="2.92153">
        <ele>1027</ele>
        <time>2022-08-17T11:44:18Z</time>
      </trkpt>
      <trkpt lat="45.66781" lon="2.92149">
        <ele>1027</ele>
        <time>2022-08-17T11:44:19Z</time>
      </trkpt>
      <trkpt lat="45.66786" lon="2.92148">
        <ele>1027</ele>
        <time>2022-08-17T11:44:20Z</time>
      </trkpt>
      <trkpt lat="45.66791" lon="2.92147">
        <ele>1027</ele>
        <time>2022-08-17T11:44:21Z</time>
      </trkpt>
      <trkpt lat="45.66796" lon="2.92145">
        <ele>1027</ele>
        <time>2022-08-17T11:44:22Z</time>
      </trkpt>
      <trkpt lat="45.66802" lon="2.92144">
        <ele>1027</ele>
        <time>2022-08-17T11:44:23Z</time>
      </trkpt>
      <trkpt lat="45.66807" lon="2.92143">
        <ele>1027</ele>
        <time>2022-08-17T11:44:24Z</time>
      </trkpt>
      <trkpt lat="45.66812" lon="2.92142">
        <ele>1027</ele>
        <time>2022-08-17T11:44:25Z</time>
      </trkpt>
      <trkpt lat="45.66817" lon="2.9214">
        <ele>1027</ele>
        <time>2022-08-17T11:44:26Z</time>
      </trkpt>
      <trkpt lat="45.66822" lon="2.92139">
        <ele>1027</ele>
        <time>2022-08-17T11:44:27Z</time>
      </trkpt>
      <trkpt lat="45.66828" lon="2.92138">
        <ele>1025</ele>
        <time>2022-08-17T11:44:28Z</time>
      </trkpt>
      <trkpt lat="45.66837" lon="2.92135">
        <ele>1025</ele>
        <time>2022-08-17T11:44:29Z</time>
      </trkpt>
      <trkpt lat="45.66842" lon="2.92134">
        <ele>1025</ele>
        <time>2022-08-17T11:44:30Z</time>
      </trkpt>
      <trkpt lat="45.66847" lon="2.92133">
        <ele>1025</ele>
        <time>2022-08-17T11:44:31Z</time>
      </trkpt>
      <trkpt lat="45.66852" lon="2.92132">
        <ele>1025</ele>
        <time>2022-08-17T11:44:33Z</time>
      </trkpt>
      <trkpt lat="45.66857" lon="2.92131">
        <ele>1025</ele>
        <time>2022-08-17T11:44:35Z</time>
      </trkpt>
      <trkpt lat="45.66862" lon="2.9213">
        <ele>1025</ele>
        <time>2022-08-17T11:44:37Z</time>
      </trkpt>
      <trkpt lat="45.66867" lon="2.92129">
        <ele>1026</ele>
        <time>2022-08-17T11:44:38Z</time>
      </trkpt>
      <trkpt lat="45.66874" lon="2.92128">
        <ele>1026</ele>
        <time>2022-08-17T11:44:39Z</time>
      </trkpt>
      <trkpt lat="45.66877" lon="2.92128">
        <ele>1026</ele>
        <time>2022-08-17T11:44:41Z</time>
      </trkpt>
      <trkpt lat="45.66881" lon="2.92128">
        <ele>1026</ele>
        <time>2022-08-17T11:44:42Z</time>
      </trkpt>
      <trkpt lat="45.66884" lon="2.92128">
        <ele>1026</ele>
        <time>2022-08-17T11:44:43Z</time>
      </trkpt>
      <trkpt lat="45.66888" lon="2.92128">
        <ele>1026</ele>
        <time>2022-08-17T11:44:44Z</time>
      </trkpt>
      <trkpt lat="45.66891" lon="2.92128">
        <ele>1026</ele>
        <time>2022-08-17T11:44:45Z</time>
      </trkpt>
      <trkpt lat="45.66895" lon="2.92128">
        <ele>1026</ele>
        <time>2022-08-17T11:44:46Z</time>
      </trkpt>
      <trkpt lat="45.66898" lon="2.92127">
        <ele>1026</ele>
        <time>2022-08-17T11:44:47Z</time>
      </trkpt>
      <trkpt lat="45.66902" lon="2.92127">
        <ele>1027</ele>
        <time>2022-08-17T11:44:48Z</time>
      </trkpt>
      <trkpt lat="45.66911" lon="2.92127">
        <ele>1027</ele>
        <time>2022-08-17T11:44:49Z</time>
      </trkpt>
      <trkpt lat="45.66916" lon="2.92127">
        <ele>1027</ele>
        <time>2022-08-17T11:44:51Z</time>
      </trkpt>
      <trkpt lat="45.66921" lon="2.92127">
        <ele>1027</ele>
        <time>2022-08-17T11:44:53Z</time>
      </trkpt>
      <trkpt lat="45.66927" lon="2.92127">
        <ele>1027</ele>
        <time>2022-08-17T11:44:55Z</time>
      </trkpt>
      <trkpt lat="45.66932" lon="2.92126">
        <ele>1027</ele>
        <time>2022-08-17T11:44:57Z</time>
      </trkpt>
      <trkpt lat="45.66937" lon="2.92126">
        <ele>1031</ele>
        <time>2022-08-17T11:44:58Z</time>
      </trkpt>
      <trkpt lat="45.66944" lon="2.92126">
        <ele>1031</ele>
        <time>2022-08-17T11:44:59Z</time>
      </trkpt>
      <trkpt lat="45.66948" lon="2.92126">
        <ele>1031</ele>
        <time>2022-08-17T11:45:00Z</time>
      </trkpt>
      <trkpt lat="45.66951" lon="2.92125">
        <ele>1031</ele>
        <time>2022-08-17T11:45:01Z</time>
      </trkpt>
      <trkpt lat="45.66955" lon="2.92125">
        <ele>1031</ele>
        <time>2022-08-17T11:45:02Z</time>
      </trkpt>
      <trkpt lat="45.66958" lon="2.92125">
        <ele>1031</ele>
        <time>2022-08-17T11:45:03Z</time>
      </trkpt>
      <trkpt lat="45.66962" lon="2.92125">
        <ele>1031</ele>
        <time>2022-08-17T11:45:04Z</time>
      </trkpt>
      <trkpt lat="45.66965" lon="2.92125">
        <ele>1031</ele>
        <time>2022-08-17T11:45:05Z</time>
      </trkpt>
      <trkpt lat="45.66969" lon="2.92125">
        <ele>1031</ele>
        <time>2022-08-17T11:45:06Z</time>
      </trkpt>
      <trkpt lat="45.66972" lon="2.92125">
        <ele>1031</ele>
        <time>2022-08-17T11:45:07Z</time>
      </trkpt>
      <trkpt lat="45.66976" lon="2.92125">
        <ele>1032</ele>
        <time>2022-08-17T11:45:08Z</time>
      </trkpt>
      <trkpt lat="45.66986" lon="2.92124">
        <ele>1032</ele>
        <time>2022-08-17T11:45:09Z</time>
      </trkpt>
      <trkpt lat="45.66993" lon="2.92124">
        <ele>1032</ele>
        <time>2022-08-17T11:45:10Z</time>
      </trkpt>
      <trkpt lat="45.66999" lon="2.92124">
        <ele>1032</ele>
        <time>2022-08-17T11:45:12Z</time>
      </trkpt>
      <trkpt lat="45.67005" lon="2.92123">
        <ele>1032</ele>
        <time>2022-08-17T11:45:14Z</time>
      </trkpt>
      <trkpt lat="45.67011" lon="2.92123">
        <ele>1032</ele>
        <time>2022-08-17T11:45:15Z</time>
      </trkpt>
      <trkpt lat="45.67018" lon="2.92123">
        <ele>1032</ele>
        <time>2022-08-17T11:45:16Z</time>
      </trkpt>
      <trkpt lat="45.67024" lon="2.92123">
        <ele>1032</ele>
        <time>2022-08-17T11:45:17Z</time>
      </trkpt>
      <trkpt lat="45.6703" lon="2.92122">
        <ele>1030</ele>
        <time>2022-08-17T11:45:18Z</time>
      </trkpt>
      <trkpt lat="45.67043" lon="2.92121">
        <ele>1030</ele>
        <time>2022-08-17T11:45:19Z</time>
      </trkpt>
      <trkpt lat="45.67049" lon="2.9212">
        <ele>1030</ele>
        <time>2022-08-17T11:45:20Z</time>
      </trkpt>
      <trkpt lat="45.67055" lon="2.9212">
        <ele>1030</ele>
        <time>2022-08-17T11:45:21Z</time>
      </trkpt>
      <trkpt lat="45.67061" lon="2.92119">
        <ele>1030</ele>
        <time>2022-08-17T11:45:22Z</time>
      </trkpt>
      <trkpt lat="45.67067" lon="2.92118">
        <ele>1030</ele>
        <time>2022-08-17T11:45:23Z</time>
      </trkpt>
      <trkpt lat="45.67073" lon="2.92118">
        <ele>1030</ele>
        <time>2022-08-17T11:45:24Z</time>
      </trkpt>
      <trkpt lat="45.67079" lon="2.92117">
        <ele>1030</ele>
        <time>2022-08-17T11:45:25Z</time>
      </trkpt>
      <trkpt lat="45.67085" lon="2.92116">
        <ele>1030</ele>
        <time>2022-08-17T11:45:27Z</time>
      </trkpt>
      <trkpt lat="45.67091" lon="2.92116">
        <ele>1029</ele>
        <time>2022-08-17T11:45:28Z</time>
      </trkpt>
      <trkpt lat="45.67101" lon="2.92115">
        <ele>1029</ele>
        <time>2022-08-17T11:45:29Z</time>
      </trkpt>
      <trkpt lat="45.67107" lon="2.92115">
        <ele>1029</ele>
        <time>2022-08-17T11:45:31Z</time>
      </trkpt>
      <trkpt lat="45.67113" lon="2.92115">
        <ele>1029</ele>
        <time>2022-08-17T11:45:33Z</time>
      </trkpt>
      <trkpt lat="45.67118" lon="2.92115">
        <ele>1029</ele>
        <time>2022-08-17T11:45:35Z</time>
      </trkpt>
      <trkpt lat="45.67124" lon="2.92116">
        <ele>1029</ele>
        <time>2022-08-17T11:45:37Z</time>
      </trkpt>
      <trkpt lat="45.6713" lon="2.92116">
        <ele>1023</ele>
        <time>2022-08-17T11:45:38Z</time>
      </trkpt>
      <trkpt lat="45.67137" lon="2.92109">
        <ele>1023</ele>
        <time>2022-08-17T11:45:39Z</time>
      </trkpt>
      <trkpt lat="45.6714" lon="2.92103">
        <ele>1023</ele>
        <time>2022-08-17T11:45:41Z</time>
      </trkpt>
      <trkpt lat="45.67143" lon="2.92098">
        <ele>1023</ele>
        <time>2022-08-17T11:45:42Z</time>
      </trkpt>
      <trkpt lat="45.67146" lon="2.92092">
        <ele>1023</ele>
        <time>2022-08-17T11:45:43Z</time>
      </trkpt>
      <trkpt lat="45.67149" lon="2.92087">
        <ele>1023</ele>
        <time>2022-08-17T11:45:44Z</time>
      </trkpt>
      <trkpt lat="45.67152" lon="2.92081">
        <ele>1023</ele>
        <time>2022-08-17T11:45:45Z</time>
      </trkpt>
      <trkpt lat="45.67155" lon="2.92076">
        <ele>1023</ele>
        <time>2022-08-17T11:45:46Z</time>
      </trkpt>
      <trkpt lat="45.67159" lon="2.9207">
        <ele>1023</ele>
        <time>2022-08-17T11:45:47Z</time>
      </trkpt>
      <trkpt lat="45.67162" lon="2.92065">
        <ele>1020</ele>
        <time>2022-08-17T11:45:48Z</time>
      </trkpt>
      <trkpt lat="45.67169" lon="2.92052">
        <ele>1020</ele>
        <time>2022-08-17T11:45:49Z</time>
      </trkpt>
      <trkpt lat="45.67172" lon="2.92045">
        <ele>1020</ele>
        <time>2022-08-17T11:45:50Z</time>
      </trkpt>
      <trkpt lat="45.67176" lon="2.92039">
        <ele>1020</ele>
        <time>2022-08-17T11:45:51Z</time>
      </trkpt>
      <trkpt lat="45.6718" lon="2.92032">
        <ele>1020</ele>
        <time>2022-08-17T11:45:53Z</time>
      </trkpt>
      <trkpt lat="45.67184" lon="2.92026">
        <ele>1020</ele>
        <time>2022-08-17T11:45:54Z</time>
      </trkpt>
      <trkpt lat="45.67187" lon="2.92019">
        <ele>1020</ele>
        <time>2022-08-17T11:45:55Z</time>
      </trkpt>
      <trkpt lat="45.67191" lon="2.92012">
        <ele>1020</ele>
        <time>2022-08-17T11:45:56Z</time>
      </trkpt>
      <trkpt lat="45.67195" lon="2.92006">
        <ele>1020</ele>
        <time>2022-08-17T11:45:57Z</time>
      </trkpt>
      <trkpt lat="45.67198" lon="2.91999">
        <ele>1021</ele>
        <time>2022-08-17T11:45:58Z</time>
      </trkpt>
      <trkpt lat="45.67205" lon="2.91985">
        <ele>1021</ele>
        <time>2022-08-17T11:45:59Z</time>
      </trkpt>
      <trkpt lat="45.67208" lon="2.91978">
        <ele>1021</ele>
        <time>2022-08-17T11:46:00Z</time>
      </trkpt>
      <trkpt lat="45.67211" lon="2.91971">
        <ele>1021</ele>
        <time>2022-08-17T11:46:01Z</time>
      </trkpt>
      <trkpt lat="45.67214" lon="2.91964">
        <ele>1021</ele>
        <time>2022-08-17T11:46:02Z</time>
      </trkpt>
      <trkpt lat="45.67218" lon="2.91957">
        <ele>1021</ele>
        <time>2022-08-17T11:46:03Z</time>
      </trkpt>
      <trkpt lat="45.67221" lon="2.91949">
        <ele>1021</ele>
        <time>2022-08-17T11:46:04Z</time>
      </trkpt>
      <trkpt lat="45.67224" lon="2.91942">
        <ele>1021</ele>
        <time>2022-08-17T11:46:05Z</time>
      </trkpt>
      <trkpt lat="45.67227" lon="2.91935">
        <ele>1021</ele>
        <time>2022-08-17T11:46:06Z</time>
      </trkpt>
      <trkpt lat="45.6723" lon="2.91928">
        <ele>1021</ele>
        <time>2022-08-17T11:46:07Z</time>
      </trkpt>
      <trkpt lat="45.67233" lon="2.91921">
        <ele>1017</ele>
        <time>2022-08-17T11:46:08Z</time>
      </trkpt>
      <trkpt lat="45.67241" lon="2.91906">
        <ele>1017</ele>
        <time>2022-08-17T11:46:09Z</time>
      </trkpt>
      <trkpt lat="45.67245" lon="2.91899">
        <ele>1017</ele>
        <time>2022-08-17T11:46:10Z</time>
      </trkpt>
      <trkpt lat="45.6725" lon="2.91893">
        <ele>1017</ele>
        <time>2022-08-17T11:46:11Z</time>
      </trkpt>
      <trkpt lat="45.67254" lon="2.91886">
        <ele>1017</ele>
        <time>2022-08-17T11:46:12Z</time>
      </trkpt>
      <trkpt lat="45.67259" lon="2.9188">
        <ele>1017</ele>
        <time>2022-08-17T11:46:13Z</time>
      </trkpt>
      <trkpt lat="45.67263" lon="2.91873">
        <ele>1017</ele>
        <time>2022-08-17T11:46:14Z</time>
      </trkpt>
      <trkpt lat="45.67268" lon="2.91867">
        <ele>1017</ele>
        <time>2022-08-17T11:46:15Z</time>
      </trkpt>
      <trkpt lat="45.67272" lon="2.9186">
        <ele>1017</ele>
        <time>2022-08-17T11:46:16Z</time>
      </trkpt>
      <trkpt lat="45.67277" lon="2.91854">
        <ele>1017</ele>
        <time>2022-08-17T11:46:17Z</time>
      </trkpt>
      <trkpt lat="45.67281" lon="2.91847">
        <ele>1016</ele>
        <time>2022-08-17T11:46:18Z</time>
      </trkpt>
      <trkpt lat="45.67294" lon="2.91836">
        <ele>1016</ele>
        <time>2022-08-17T11:46:19Z</time>
      </trkpt>
      <trkpt lat="45.67301" lon="2.9183">
        <ele>1016</ele>
        <time>2022-08-17T11:46:20Z</time>
      </trkpt>
      <trkpt lat="45.67308" lon="2.91825">
        <ele>1016</ele>
        <time>2022-08-17T11:46:21Z</time>
      </trkpt>
      <trkpt lat="45.67315" lon="2.91819">
        <ele>1016</ele>
        <time>2022-08-17T11:46:23Z</time>
      </trkpt>
      <trkpt lat="45.67322" lon="2.91813">
        <ele>1016</ele>
        <time>2022-08-17T11:46:24Z</time>
      </trkpt>
      <trkpt lat="45.67329" lon="2.91808">
        <ele>1016</ele>
        <time>2022-08-17T11:46:26Z</time>
      </trkpt>
      <trkpt lat="45.67336" lon="2.91802">
        <ele>1016</ele>
        <time>2022-08-17T11:46:27Z</time>
      </trkpt>
      <trkpt lat="45.67343" lon="2.91797">
        <ele>1014</ele>
        <time>2022-08-17T11:46:28Z</time>
      </trkpt>
      <trkpt lat="45.67354" lon="2.91785">
        <ele>1014</ele>
        <time>2022-08-17T11:46:29Z</time>
      </trkpt>
      <trkpt lat="45.67359" lon="2.91778">
        <ele>1014</ele>
        <time>2022-08-17T11:46:30Z</time>
      </trkpt>
      <trkpt lat="45.67364" lon="2.91772">
        <ele>1014</ele>
        <time>2022-08-17T11:46:31Z</time>
      </trkpt>
      <trkpt lat="45.67369" lon="2.91765">
        <ele>1014</ele>
        <time>2022-08-17T11:46:32Z</time>
      </trkpt>
      <trkpt lat="45.67373" lon="2.91759">
        <ele>1014</ele>
        <time>2022-08-17T11:46:33Z</time>
      </trkpt>
      <trkpt lat="45.67378" lon="2.91753">
        <ele>1014</ele>
        <time>2022-08-17T11:46:34Z</time>
      </trkpt>
      <trkpt lat="45.67383" lon="2.91746">
        <ele>1014</ele>
        <time>2022-08-17T11:46:35Z</time>
      </trkpt>
      <trkpt lat="45.67388" lon="2.9174">
        <ele>1014</ele>
        <time>2022-08-17T11:46:37Z</time>
      </trkpt>
      <trkpt lat="45.67393" lon="2.91733">
        <ele>1012</ele>
        <time>2022-08-17T11:46:38Z</time>
      </trkpt>
      <trkpt lat="45.67402" lon="2.91721">
        <ele>1012</ele>
        <time>2022-08-17T11:46:39Z</time>
      </trkpt>
      <trkpt lat="45.67406" lon="2.91716">
        <ele>1012</ele>
        <time>2022-08-17T11:46:40Z</time>
      </trkpt>
      <trkpt lat="45.67411" lon="2.9171">
        <ele>1012</ele>
        <time>2022-08-17T11:46:41Z</time>
      </trkpt>
      <trkpt lat="45.67415" lon="2.91705">
        <ele>1012</ele>
        <time>2022-08-17T11:46:42Z</time>
      </trkpt>
      <trkpt lat="45.67419" lon="2.91699">
        <ele>1012</ele>
        <time>2022-08-17T11:46:43Z</time>
      </trkpt>
      <trkpt lat="45.67424" lon="2.91694">
        <ele>1012</ele>
        <time>2022-08-17T11:46:44Z</time>
      </trkpt>
      <trkpt lat="45.67428" lon="2.91688">
        <ele>1012</ele>
        <time>2022-08-17T11:46:45Z</time>
      </trkpt>
      <trkpt lat="45.67432" lon="2.91683">
        <ele>1012</ele>
        <time>2022-08-17T11:46:47Z</time>
      </trkpt>
      <trkpt lat="45.67437" lon="2.91677">
        <ele>1011</ele>
        <time>2022-08-17T11:46:48Z</time>
      </trkpt>
      <trkpt lat="45.67447" lon="2.91666">
        <ele>1011</ele>
        <time>2022-08-17T11:46:49Z</time>
      </trkpt>
      <trkpt lat="45.67453" lon="2.91661">
        <ele>1011</ele>
        <time>2022-08-17T11:46:50Z</time>
      </trkpt>
      <trkpt lat="45.67458" lon="2.91656">
        <ele>1011</ele>
        <time>2022-08-17T11:46:51Z</time>
      </trkpt>
      <trkpt lat="45.67464" lon="2.91651">
        <ele>1011</ele>
        <time>2022-08-17T11:46:52Z</time>
      </trkpt>
      <trkpt lat="45.6747" lon="2.91646">
        <ele>1011</ele>
        <time>2022-08-17T11:46:53Z</time>
      </trkpt>
      <trkpt lat="45.67475" lon="2.9164">
        <ele>1011</ele>
        <time>2022-08-17T11:46:54Z</time>
      </trkpt>
      <trkpt lat="45.67481" lon="2.91635">
        <ele>1011</ele>
        <time>2022-08-17T11:46:55Z</time>
      </trkpt>
      <trkpt lat="45.67487" lon="2.9163">
        <ele>1011</ele>
        <time>2022-08-17T11:46:56Z</time>
      </trkpt>
      <trkpt lat="45.67493" lon="2.91625">
        <ele>1011</ele>
        <time>2022-08-17T11:46:57Z</time>
      </trkpt>
      <trkpt lat="45.67498" lon="2.91619">
        <ele>1011</ele>
        <time>2022-08-17T11:46:58Z</time>
      </trkpt>
      <trkpt lat="45.67512" lon="2.91607">
        <ele>1011</ele>
        <time>2022-08-17T11:46:59Z</time>
      </trkpt>
      <trkpt lat="45.67518" lon="2.91601">
        <ele>1011</ele>
        <time>2022-08-17T11:47:00Z</time>
      </trkpt>
      <trkpt lat="45.67525" lon="2.91596">
        <ele>1011</ele>
        <time>2022-08-17T11:47:01Z</time>
      </trkpt>
      <trkpt lat="45.67532" lon="2.9159">
        <ele>1011</ele>
        <time>2022-08-17T11:47:02Z</time>
      </trkpt>
      <trkpt lat="45.67538" lon="2.91584">
        <ele>1011</ele>
        <time>2022-08-17T11:47:03Z</time>
      </trkpt>
      <trkpt lat="45.67545" lon="2.91578">
        <ele>1011</ele>
        <time>2022-08-17T11:47:04Z</time>
      </trkpt>
      <trkpt lat="45.67552" lon="2.91572">
        <ele>1011</ele>
        <time>2022-08-17T11:47:05Z</time>
      </trkpt>
      <trkpt lat="45.67558" lon="2.91566">
        <ele>1011</ele>
        <time>2022-08-17T11:47:06Z</time>
      </trkpt>
      <trkpt lat="45.67565" lon="2.9156">
        <ele>1008</ele>
        <time>2022-08-17T11:47:08Z</time>
      </trkpt>
      <trkpt lat="45.67576" lon="2.91548">
        <ele>1008</ele>
        <time>2022-08-17T11:47:09Z</time>
      </trkpt>
      <trkpt lat="45.67581" lon="2.9154">
        <ele>1008</ele>
        <time>2022-08-17T11:47:10Z</time>
      </trkpt>
      <trkpt lat="45.67586" lon="2.91533">
        <ele>1008</ele>
        <time>2022-08-17T11:47:11Z</time>
      </trkpt>
      <trkpt lat="45.67591" lon="2.91526">
        <ele>1008</ele>
        <time>2022-08-17T11:47:12Z</time>
      </trkpt>
      <trkpt lat="45.67596" lon="2.91519">
        <ele>1008</ele>
        <time>2022-08-17T11:47:13Z</time>
      </trkpt>
      <trkpt lat="45.67601" lon="2.91512">
        <ele>1008</ele>
        <time>2022-08-17T11:47:15Z</time>
      </trkpt>
      <trkpt lat="45.67606" lon="2.91505">
        <ele>1008</ele>
        <time>2022-08-17T11:47:16Z</time>
      </trkpt>
      <trkpt lat="45.67611" lon="2.91498">
        <ele>1008</ele>
        <time>2022-08-17T11:47:17Z</time>
      </trkpt>
      <trkpt lat="45.67616" lon="2.91491">
        <ele>1008</ele>
        <time>2022-08-17T11:47:18Z</time>
      </trkpt>
      <trkpt lat="45.67623" lon="2.91477">
        <ele>1008</ele>
        <time>2022-08-17T11:47:19Z</time>
      </trkpt>
      <trkpt lat="45.67627" lon="2.9147">
        <ele>1008</ele>
        <time>2022-08-17T11:47:20Z</time>
      </trkpt>
      <trkpt lat="45.6763" lon="2.91463">
        <ele>1008</ele>
        <time>2022-08-17T11:47:21Z</time>
      </trkpt>
      <trkpt lat="45.67634" lon="2.91456">
        <ele>1008</ele>
        <time>2022-08-17T11:47:22Z</time>
      </trkpt>
      <trkpt lat="45.67637" lon="2.91449">
        <ele>1008</ele>
        <time>2022-08-17T11:47:23Z</time>
      </trkpt>
      <trkpt lat="45.67641" lon="2.91442">
        <ele>1008</ele>
        <time>2022-08-17T11:47:24Z</time>
      </trkpt>
      <trkpt lat="45.67644" lon="2.91436">
        <ele>1008</ele>
        <time>2022-08-17T11:47:25Z</time>
      </trkpt>
      <trkpt lat="45.67648" lon="2.91429">
        <ele>1008</ele>
        <time>2022-08-17T11:47:26Z</time>
      </trkpt>
      <trkpt lat="45.67651" lon="2.91422">
        <ele>1008</ele>
        <time>2022-08-17T11:47:27Z</time>
      </trkpt>
      <trkpt lat="45.67655" lon="2.91415">
        <ele>1006</ele>
        <time>2022-08-17T11:47:28Z</time>
      </trkpt>
      <trkpt lat="45.67662" lon="2.91401">
        <ele>1006</ele>
        <time>2022-08-17T11:47:29Z</time>
      </trkpt>
      <trkpt lat="45.67665" lon="2.91394">
        <ele>1006</ele>
        <time>2022-08-17T11:47:30Z</time>
      </trkpt>
      <trkpt lat="45.67669" lon="2.91387">
        <ele>1006</ele>
        <time>2022-08-17T11:47:31Z</time>
      </trkpt>
      <trkpt lat="45.67672" lon="2.91381">
        <ele>1006</ele>
        <time>2022-08-17T11:47:32Z</time>
      </trkpt>
      <trkpt lat="45.67675" lon="2.91374">
        <ele>1006</ele>
        <time>2022-08-17T11:47:33Z</time>
      </trkpt>
      <trkpt lat="45.67679" lon="2.91367">
        <ele>1006</ele>
        <time>2022-08-17T11:47:34Z</time>
      </trkpt>
      <trkpt lat="45.67682" lon="2.9136">
        <ele>1006</ele>
        <time>2022-08-17T11:47:35Z</time>
      </trkpt>
      <trkpt lat="45.67686" lon="2.91353">
        <ele>1006</ele>
        <time>2022-08-17T11:47:36Z</time>
      </trkpt>
      <trkpt lat="45.67689" lon="2.91347">
        <ele>1006</ele>
        <time>2022-08-17T11:47:37Z</time>
      </trkpt>
      <trkpt lat="45.67692" lon="2.9134">
        <ele>1007</ele>
        <time>2022-08-17T11:47:38Z</time>
      </trkpt>
      <trkpt lat="45.677" lon="2.91326">
        <ele>1007</ele>
        <time>2022-08-17T11:47:39Z</time>
      </trkpt>
      <trkpt lat="45.67703" lon="2.91319">
        <ele>1007</ele>
        <time>2022-08-17T11:47:40Z</time>
      </trkpt>
      <trkpt lat="45.67706" lon="2.91313">
        <ele>1007</ele>
        <time>2022-08-17T11:47:41Z</time>
      </trkpt>
      <trkpt lat="45.6771" lon="2.91306">
        <ele>1007</ele>
        <time>2022-08-17T11:47:42Z</time>
      </trkpt>
      <trkpt lat="45.67713" lon="2.913">
        <ele>1007</ele>
        <time>2022-08-17T11:47:43Z</time>
      </trkpt>
      <trkpt lat="45.67716" lon="2.91293">
        <ele>1007</ele>
        <time>2022-08-17T11:47:44Z</time>
      </trkpt>
      <trkpt lat="45.6772" lon="2.91287">
        <ele>1007</ele>
        <time>2022-08-17T11:47:45Z</time>
      </trkpt>
      <trkpt lat="45.67723" lon="2.9128">
        <ele>1007</ele>
        <time>2022-08-17T11:47:46Z</time>
      </trkpt>
      <trkpt lat="45.67727" lon="2.91274">
        <ele>1007</ele>
        <time>2022-08-17T11:47:47Z</time>
      </trkpt>
      <trkpt lat="45.6773" lon="2.91267">
        <ele>1007</ele>
        <time>2022-08-17T11:47:48Z</time>
      </trkpt>
      <trkpt lat="45.67737" lon="2.91254">
        <ele>1007</ele>
        <time>2022-08-17T11:47:49Z</time>
      </trkpt>
      <trkpt lat="45.67741" lon="2.91248">
        <ele>1007</ele>
        <time>2022-08-17T11:47:50Z</time>
      </trkpt>
      <trkpt lat="45.67745" lon="2.91242">
        <ele>1007</ele>
        <time>2022-08-17T11:47:51Z</time>
      </trkpt>
      <trkpt lat="45.67748" lon="2.91237">
        <ele>1007</ele>
        <time>2022-08-17T11:47:52Z</time>
      </trkpt>
      <trkpt lat="45.67752" lon="2.91231">
        <ele>1007</ele>
        <time>2022-08-17T11:47:53Z</time>
      </trkpt>
      <trkpt lat="45.67756" lon="2.91225">
        <ele>1007</ele>
        <time>2022-08-17T11:47:54Z</time>
      </trkpt>
      <trkpt lat="45.67759" lon="2.91219">
        <ele>1007</ele>
        <time>2022-08-17T11:47:55Z</time>
      </trkpt>
      <trkpt lat="45.67763" lon="2.91213">
        <ele>1007</ele>
        <time>2022-08-17T11:47:56Z</time>
      </trkpt>
      <trkpt lat="45.67767" lon="2.91208">
        <ele>1007</ele>
        <time>2022-08-17T11:47:57Z</time>
      </trkpt>
      <trkpt lat="45.6777" lon="2.91202">
        <ele>1006</ele>
        <time>2022-08-17T11:47:58Z</time>
      </trkpt>
      <trkpt lat="45.67781" lon="2.91194">
        <ele>1006</ele>
        <time>2022-08-17T11:47:59Z</time>
      </trkpt>
      <trkpt lat="45.67786" lon="2.91191">
        <ele>1006</ele>
        <time>2022-08-17T11:48:00Z</time>
      </trkpt>
      <trkpt lat="45.67791" lon="2.91188">
        <ele>1006</ele>
        <time>2022-08-17T11:48:01Z</time>
      </trkpt>
      <trkpt lat="45.67796" lon="2.91185">
        <ele>1006</ele>
        <time>2022-08-17T11:48:02Z</time>
      </trkpt>
      <trkpt lat="45.67802" lon="2.91182">
        <ele>1006</ele>
        <time>2022-08-17T11:48:03Z</time>
      </trkpt>
      <trkpt lat="45.67807" lon="2.91179">
        <ele>1006</ele>
        <time>2022-08-17T11:48:04Z</time>
      </trkpt>
      <trkpt lat="45.67812" lon="2.91176">
        <ele>1006</ele>
        <time>2022-08-17T11:48:05Z</time>
      </trkpt>
      <trkpt lat="45.67817" lon="2.91173">
        <ele>1006</ele>
        <time>2022-08-17T11:48:06Z</time>
      </trkpt>
      <trkpt lat="45.67822" lon="2.9117">
        <ele>1006</ele>
        <time>2022-08-17T11:48:07Z</time>
      </trkpt>
      <trkpt lat="45.67827" lon="2.91167">
        <ele>1005</ele>
        <time>2022-08-17T11:48:08Z</time>
      </trkpt>
      <trkpt lat="45.67837" lon="2.9116">
        <ele>1005</ele>
        <time>2022-08-17T11:48:09Z</time>
      </trkpt>
      <trkpt lat="45.67842" lon="2.91156">
        <ele>1005</ele>
        <time>2022-08-17T11:48:10Z</time>
      </trkpt>
      <trkpt lat="45.67847" lon="2.91153">
        <ele>1005</ele>
        <time>2022-08-17T11:48:11Z</time>
      </trkpt>
      <trkpt lat="45.67851" lon="2.91149">
        <ele>1005</ele>
        <time>2022-08-17T11:48:12Z</time>
      </trkpt>
      <trkpt lat="45.67856" lon="2.91146">
        <ele>1005</ele>
        <time>2022-08-17T11:48:13Z</time>
      </trkpt>
      <trkpt lat="45.67861" lon="2.91142">
        <ele>1005</ele>
        <time>2022-08-17T11:48:14Z</time>
      </trkpt>
      <trkpt lat="45.67865" lon="2.91139">
        <ele>1005</ele>
        <time>2022-08-17T11:48:15Z</time>
      </trkpt>
      <trkpt lat="45.6787" lon="2.91135">
        <ele>1005</ele>
        <time>2022-08-17T11:48:16Z</time>
      </trkpt>
      <trkpt lat="45.67874" lon="2.91132">
        <ele>1005</ele>
        <time>2022-08-17T11:48:17Z</time>
      </trkpt>
      <trkpt lat="45.67879" lon="2.91128">
        <ele>1005</ele>
        <time>2022-08-17T11:48:18Z</time>
      </trkpt>
      <trkpt lat="45.6789" lon="2.91119">
        <ele>1005</ele>
        <time>2022-08-17T11:48:19Z</time>
      </trkpt>
      <trkpt lat="45.67896" lon="2.91115">
        <ele>1005</ele>
        <time>2022-08-17T11:48:20Z</time>
      </trkpt>
      <trkpt lat="45.67902" lon="2.9111">
        <ele>1005</ele>
        <time>2022-08-17T11:48:21Z</time>
      </trkpt>
      <trkpt lat="45.67907" lon="2.91106">
        <ele>1005</ele>
        <time>2022-08-17T11:48:23Z</time>
      </trkpt>
      <trkpt lat="45.67913" lon="2.91101">
        <ele>1005</ele>
        <time>2022-08-17T11:48:25Z</time>
      </trkpt>
      <trkpt lat="45.67919" lon="2.91097">
        <ele>1005</ele>
        <time>2022-08-17T11:48:26Z</time>
      </trkpt>
      <trkpt lat="45.67925" lon="2.91092">
        <ele>1005</ele>
        <time>2022-08-17T11:48:27Z</time>
      </trkpt>
      <trkpt lat="45.6793" lon="2.91087">
        <ele>1004</ele>
        <time>2022-08-17T11:48:28Z</time>
      </trkpt>
      <trkpt lat="45.6794" lon="2.9108">
        <ele>1004</ele>
        <time>2022-08-17T11:48:29Z</time>
      </trkpt>
      <trkpt lat="45.67945" lon="2.91076">
        <ele>1004</ele>
        <time>2022-08-17T11:48:30Z</time>
      </trkpt>
      <trkpt lat="45.6795" lon="2.91072">
        <ele>1004</ele>
        <time>2022-08-17T11:48:31Z</time>
      </trkpt>
      <trkpt lat="45.67955" lon="2.91068">
        <ele>1004</ele>
        <time>2022-08-17T11:48:32Z</time>
      </trkpt>
      <trkpt lat="45.6796" lon="2.91065">
        <ele>1004</ele>
        <time>2022-08-17T11:48:33Z</time>
      </trkpt>
      <trkpt lat="45.67965" lon="2.91061">
        <ele>1004</ele>
        <time>2022-08-17T11:48:34Z</time>
      </trkpt>
      <trkpt lat="45.6797" lon="2.91057">
        <ele>1004</ele>
        <time>2022-08-17T11:48:35Z</time>
      </trkpt>
      <trkpt lat="45.67975" lon="2.91053">
        <ele>1004</ele>
        <time>2022-08-17T11:48:36Z</time>
      </trkpt>
      <trkpt lat="45.6798" lon="2.91049">
        <ele>1004</ele>
        <time>2022-08-17T11:48:37Z</time>
      </trkpt>
      <trkpt lat="45.67985" lon="2.91046">
        <ele>1002</ele>
        <time>2022-08-17T11:48:38Z</time>
      </trkpt>
      <trkpt lat="45.67994" lon="2.91038">
        <ele>1002</ele>
        <time>2022-08-17T11:48:39Z</time>
      </trkpt>
      <trkpt lat="45.67999" lon="2.91035">
        <ele>1002</ele>
        <time>2022-08-17T11:48:40Z</time>
      </trkpt>
      <trkpt lat="45.68003" lon="2.91031">
        <ele>1002</ele>
        <time>2022-08-17T11:48:41Z</time>
      </trkpt>
      <trkpt lat="45.68008" lon="2.91028">
        <ele>1002</ele>
        <time>2022-08-17T11:48:42Z</time>
      </trkpt>
      <trkpt lat="45.68012" lon="2.91024">
        <ele>1002</ele>
        <time>2022-08-17T11:48:43Z</time>
      </trkpt>
      <trkpt lat="45.68017" lon="2.91021">
        <ele>1002</ele>
        <time>2022-08-17T11:48:44Z</time>
      </trkpt>
      <trkpt lat="45.68021" lon="2.91017">
        <ele>1002</ele>
        <time>2022-08-17T11:48:45Z</time>
      </trkpt>
      <trkpt lat="45.68026" lon="2.91014">
        <ele>1002</ele>
        <time>2022-08-17T11:48:46Z</time>
      </trkpt>
      <trkpt lat="45.6803" lon="2.9101">
        <ele>1002</ele>
        <time>2022-08-17T11:48:47Z</time>
      </trkpt>
      <trkpt lat="45.68035" lon="2.91006">
        <ele>1001</ele>
        <time>2022-08-17T11:48:48Z</time>
      </trkpt>
      <trkpt lat="45.68043" lon="2.90997">
        <ele>1001</ele>
        <time>2022-08-17T11:48:49Z</time>
      </trkpt>
      <trkpt lat="45.68047" lon="2.90992">
        <ele>1001</ele>
        <time>2022-08-17T11:48:50Z</time>
      </trkpt>
      <trkpt lat="45.68051" lon="2.90987">
        <ele>1001</ele>
        <time>2022-08-17T11:48:51Z</time>
      </trkpt>
      <trkpt lat="45.68055" lon="2.90982">
        <ele>1001</ele>
        <time>2022-08-17T11:48:52Z</time>
      </trkpt>
      <trkpt lat="45.68059" lon="2.90977">
        <ele>1001</ele>
        <time>2022-08-17T11:48:53Z</time>
      </trkpt>
      <trkpt lat="45.68063" lon="2.90972">
        <ele>1001</ele>
        <time>2022-08-17T11:48:54Z</time>
      </trkpt>
      <trkpt lat="45.68067" lon="2.90967">
        <ele>1001</ele>
        <time>2022-08-17T11:48:55Z</time>
      </trkpt>
      <trkpt lat="45.68071" lon="2.90962">
        <ele>1001</ele>
        <time>2022-08-17T11:48:56Z</time>
      </trkpt>
      <trkpt lat="45.68075" lon="2.90957">
        <ele>1001</ele>
        <time>2022-08-17T11:48:57Z</time>
      </trkpt>
      <trkpt lat="45.68079" lon="2.90952">
        <ele>1000</ele>
        <time>2022-08-17T11:48:58Z</time>
      </trkpt>
      <trkpt lat="45.68087" lon="2.90939">
        <ele>1000</ele>
        <time>2022-08-17T11:48:59Z</time>
      </trkpt>
      <trkpt lat="45.6809" lon="2.90932">
        <ele>1000</ele>
        <time>2022-08-17T11:49:00Z</time>
      </trkpt>
      <trkpt lat="45.68094" lon="2.90925">
        <ele>1000</ele>
        <time>2022-08-17T11:49:01Z</time>
      </trkpt>
      <trkpt lat="45.68098" lon="2.90918">
        <ele>1000</ele>
        <time>2022-08-17T11:49:02Z</time>
      </trkpt>
      <trkpt lat="45.68101" lon="2.90911">
        <ele>1000</ele>
        <time>2022-08-17T11:49:03Z</time>
      </trkpt>
      <trkpt lat="45.68105" lon="2.90904">
        <ele>1000</ele>
        <time>2022-08-17T11:49:04Z</time>
      </trkpt>
      <trkpt lat="45.68109" lon="2.90897">
        <ele>1000</ele>
        <time>2022-08-17T11:49:05Z</time>
      </trkpt>
      <trkpt lat="45.68112" lon="2.9089">
        <ele>1000</ele>
        <time>2022-08-17T11:49:06Z</time>
      </trkpt>
      <trkpt lat="45.68116" lon="2.90883">
        <ele>1000</ele>
        <time>2022-08-17T11:49:07Z</time>
      </trkpt>
      <trkpt lat="45.6812" lon="2.90876">
        <ele>998</ele>
        <time>2022-08-17T11:49:08Z</time>
      </trkpt>
      <trkpt lat="45.68127" lon="2.90861">
        <ele>998</ele>
        <time>2022-08-17T11:49:09Z</time>
      </trkpt>
      <trkpt lat="45.6813" lon="2.90853">
        <ele>998</ele>
        <time>2022-08-17T11:49:10Z</time>
      </trkpt>
      <trkpt lat="45.68133" lon="2.90846">
        <ele>998</ele>
        <time>2022-08-17T11:49:11Z</time>
      </trkpt>
      <trkpt lat="45.68136" lon="2.90839">
        <ele>998</ele>
        <time>2022-08-17T11:49:12Z</time>
      </trkpt>
      <trkpt lat="45.68139" lon="2.90831">
        <ele>998</ele>
        <time>2022-08-17T11:49:13Z</time>
      </trkpt>
      <trkpt lat="45.68142" lon="2.90824">
        <ele>998</ele>
        <time>2022-08-17T11:49:14Z</time>
      </trkpt>
      <trkpt lat="45.68145" lon="2.90817">
        <ele>998</ele>
        <time>2022-08-17T11:49:15Z</time>
      </trkpt>
      <trkpt lat="45.68148" lon="2.9081">
        <ele>998</ele>
        <time>2022-08-17T11:49:16Z</time>
      </trkpt>
      <trkpt lat="45.68151" lon="2.90802">
        <ele>998</ele>
        <time>2022-08-17T11:49:17Z</time>
      </trkpt>
      <trkpt lat="45.68154" lon="2.90795">
        <ele>998</ele>
        <time>2022-08-17T11:49:18Z</time>
      </trkpt>
      <trkpt lat="45.68161" lon="2.90781">
        <ele>998</ele>
        <time>2022-08-17T11:49:19Z</time>
      </trkpt>
      <trkpt lat="45.68165" lon="2.90775">
        <ele>998</ele>
        <time>2022-08-17T11:49:20Z</time>
      </trkpt>
      <trkpt lat="45.68168" lon="2.90769">
        <ele>998</ele>
        <time>2022-08-17T11:49:21Z</time>
      </trkpt>
      <trkpt lat="45.68172" lon="2.90763">
        <ele>998</ele>
        <time>2022-08-17T11:49:22Z</time>
      </trkpt>
      <trkpt lat="45.68175" lon="2.90757">
        <ele>998</ele>
        <time>2022-08-17T11:49:23Z</time>
      </trkpt>
      <trkpt lat="45.68179" lon="2.90751">
        <ele>998</ele>
        <time>2022-08-17T11:49:24Z</time>
      </trkpt>
      <trkpt lat="45.68183" lon="2.90745">
        <ele>998</ele>
        <time>2022-08-17T11:49:25Z</time>
      </trkpt>
      <trkpt lat="45.68186" lon="2.90739">
        <ele>998</ele>
        <time>2022-08-17T11:49:26Z</time>
      </trkpt>
      <trkpt lat="45.6819" lon="2.90733">
        <ele>998</ele>
        <time>2022-08-17T11:49:27Z</time>
      </trkpt>
      <trkpt lat="45.68193" lon="2.90727">
        <ele>997</ele>
        <time>2022-08-17T11:49:28Z</time>
      </trkpt>
      <trkpt lat="45.68202" lon="2.90719">
        <ele>997</ele>
        <time>2022-08-17T11:49:29Z</time>
      </trkpt>
      <trkpt lat="45.68205" lon="2.90716">
        <ele>997</ele>
        <time>2022-08-17T11:49:30Z</time>
      </trkpt>
      <trkpt lat="45.68209" lon="2.90712">
        <ele>997</ele>
        <time>2022-08-17T11:49:31Z</time>
      </trkpt>
      <trkpt lat="45.68213" lon="2.90709">
        <ele>997</ele>
        <time>2022-08-17T11:49:32Z</time>
      </trkpt>
      <trkpt lat="45.68217" lon="2.90706">
        <ele>997</ele>
        <time>2022-08-17T11:49:33Z</time>
      </trkpt>
      <trkpt lat="45.68221" lon="2.90703">
        <ele>997</ele>
        <time>2022-08-17T11:49:34Z</time>
      </trkpt>
      <trkpt lat="45.68224" lon="2.90699">
        <ele>997</ele>
        <time>2022-08-17T11:49:35Z</time>
      </trkpt>
      <trkpt lat="45.68228" lon="2.90696">
        <ele>997</ele>
        <time>2022-08-17T11:49:37Z</time>
      </trkpt>
      <trkpt lat="45.68232" lon="2.90693">
        <ele>998</ele>
        <time>2022-08-17T11:49:38Z</time>
      </trkpt>
      <trkpt lat="45.68236" lon="2.90685">
        <ele>998</ele>
        <time>2022-08-17T11:49:39Z</time>
      </trkpt>
      <trkpt lat="45.68237" lon="2.90678">
        <ele>998</ele>
        <time>2022-08-17T11:49:41Z</time>
      </trkpt>
      <trkpt lat="45.68238" lon="2.90671">
        <ele>998</ele>
        <time>2022-08-17T11:49:43Z</time>
      </trkpt>
      <trkpt lat="45.68239" lon="2.90665">
        <ele>998</ele>
        <time>2022-08-17T11:49:45Z</time>
      </trkpt>
      <trkpt lat="45.6824" lon="2.90658">
        <ele>998</ele>
        <time>2022-08-17T11:49:47Z</time>
      </trkpt>
      <trkpt lat="45.68241" lon="2.90651">
        <ele>1000</ele>
        <time>2022-08-17T11:49:48Z</time>
      </trkpt>
      <trkpt lat="45.68243" lon="2.90637">
        <ele>1000</ele>
        <time>2022-08-17T11:49:49Z</time>
      </trkpt>
      <trkpt lat="45.68244" lon="2.90628">
        <ele>1000</ele>
        <time>2022-08-17T11:49:51Z</time>
      </trkpt>
      <trkpt lat="45.68245" lon="2.90619">
        <ele>1000</ele>
        <time>2022-08-17T11:49:54Z</time>
      </trkpt>
      <trkpt lat="45.68245" lon="2.90609">
        <ele>1000</ele>
        <time>2022-08-17T11:49:57Z</time>
      </trkpt>
      <trkpt lat="45.68246" lon="2.906">
        <ele>1001</ele>
        <time>2022-08-17T11:49:58Z</time>
      </trkpt>
      <trkpt lat="45.68247" lon="2.90586">
        <ele>1001</ele>
        <time>2022-08-17T11:49:59Z</time>
      </trkpt>
      <trkpt lat="45.68248" lon="2.90576">
        <ele>1001</ele>
        <time>2022-08-17T11:50:02Z</time>
      </trkpt>
      <trkpt lat="45.68249" lon="2.90567">
        <ele>1001</ele>
        <time>2022-08-17T11:50:04Z</time>
      </trkpt>
      <trkpt lat="45.6825" lon="2.90558">
        <ele>1001</ele>
        <time>2022-08-17T11:50:06Z</time>
      </trkpt>
      <trkpt lat="45.68251" lon="2.90548">
        <ele>1006</ele>
        <time>2022-08-17T11:50:08Z</time>
      </trkpt>
      <trkpt lat="45.6825" lon="2.90529">
        <ele>1006</ele>
        <time>2022-08-17T11:50:10Z</time>
      </trkpt>
      <trkpt lat="45.68247" lon="2.9052">
        <ele>1006</ele>
        <time>2022-08-17T11:50:12Z</time>
      </trkpt>
      <trkpt lat="45.68245" lon="2.90512">
        <ele>1006</ele>
        <time>2022-08-17T11:50:14Z</time>
      </trkpt>
      <trkpt lat="45.68242" lon="2.90503">
        <ele>1006</ele>
        <time>2022-08-17T11:50:16Z</time>
      </trkpt>
      <trkpt lat="45.6824" lon="2.90495">
        <ele>1007</ele>
        <time>2022-08-17T11:50:18Z</time>
      </trkpt>
      <trkpt lat="45.68228" lon="2.90478">
        <ele>1007</ele>
        <time>2022-08-17T11:50:20Z</time>
      </trkpt>
      <trkpt lat="45.68222" lon="2.90471">
        <ele>1007</ele>
        <time>2022-08-17T11:50:22Z</time>
      </trkpt>
      <trkpt lat="45.68216" lon="2.90464">
        <ele>1007</ele>
        <time>2022-08-17T11:50:24Z</time>
      </trkpt>
      <trkpt lat="45.68211" lon="2.90457">
        <ele>1007</ele>
        <time>2022-08-17T11:50:26Z</time>
      </trkpt>
      <trkpt lat="45.68205" lon="2.90451">
        <ele>1008</ele>
        <time>2022-08-17T11:50:28Z</time>
      </trkpt>
      <trkpt lat="45.68193" lon="2.90441">
        <ele>1008</ele>
        <time>2022-08-17T11:50:30Z</time>
      </trkpt>
      <trkpt lat="45.68189" lon="2.90438">
        <ele>1008</ele>
        <time>2022-08-17T11:50:31Z</time>
      </trkpt>
      <trkpt lat="45.68186" lon="2.90435">
        <ele>1008</ele>
        <time>2022-08-17T11:50:32Z</time>
      </trkpt>
      <trkpt lat="45.68182" lon="2.90433">
        <ele>1008</ele>
        <time>2022-08-17T11:50:33Z</time>
      </trkpt>
      <trkpt lat="45.68178" lon="2.9043">
        <ele>1008</ele>
        <time>2022-08-17T11:50:34Z</time>
      </trkpt>
      <trkpt lat="45.68175" lon="2.90427">
        <ele>1008</ele>
        <time>2022-08-17T11:50:35Z</time>
      </trkpt>
      <trkpt lat="45.68171" lon="2.90425">
        <ele>1008</ele>
        <time>2022-08-17T11:50:36Z</time>
      </trkpt>
      <trkpt lat="45.68167" lon="2.90422">
        <ele>1008</ele>
        <time>2022-08-17T11:50:37Z</time>
      </trkpt>
      <trkpt lat="45.68163" lon="2.90419">
        <ele>1009</ele>
        <time>2022-08-17T11:50:38Z</time>
      </trkpt>
      <trkpt lat="45.6815" lon="2.90409">
        <ele>1009</ele>
        <time>2022-08-17T11:50:40Z</time>
      </trkpt>
      <trkpt lat="45.68144" lon="2.90405">
        <ele>1009</ele>
        <time>2022-08-17T11:50:42Z</time>
      </trkpt>
      <trkpt lat="45.68138" lon="2.90402">
        <ele>1009</ele>
        <time>2022-08-17T11:50:44Z</time>
      </trkpt>
      <trkpt lat="45.68133" lon="2.90398">
        <ele>1009</ele>
        <time>2022-08-17T11:50:46Z</time>
      </trkpt>
      <trkpt lat="45.68127" lon="2.90394">
        <ele>1009</ele>
        <time>2022-08-17T11:50:47Z</time>
      </trkpt>
      <trkpt lat="45.68121" lon="2.9039">
        <ele>1010</ele>
        <time>2022-08-17T11:50:48Z</time>
      </trkpt>
      <trkpt lat="45.68114" lon="2.90384">
        <ele>1010</ele>
        <time>2022-08-17T11:50:49Z</time>
      </trkpt>
      <trkpt lat="45.6811" lon="2.90381">
        <ele>1010</ele>
        <time>2022-08-17T11:50:51Z</time>
      </trkpt>
      <trkpt lat="45.68106" lon="2.90378">
        <ele>1010</ele>
        <time>2022-08-17T11:50:52Z</time>
      </trkpt>
      <trkpt lat="45.68102" lon="2.90374">
        <ele>1010</ele>
        <time>2022-08-17T11:50:53Z</time>
      </trkpt>
      <trkpt lat="45.68098" lon="2.90371">
        <ele>1010</ele>
        <time>2022-08-17T11:50:54Z</time>
      </trkpt>
      <trkpt lat="45.68094" lon="2.90368">
        <ele>1010</ele>
        <time>2022-08-17T11:50:55Z</time>
      </trkpt>
      <trkpt lat="45.6809" lon="2.90364">
        <ele>1010</ele>
        <time>2022-08-17T11:50:56Z</time>
      </trkpt>
      <trkpt lat="45.68086" lon="2.90361">
        <ele>1010</ele>
        <time>2022-08-17T11:50:57Z</time>
      </trkpt>
      <trkpt lat="45.68083" lon="2.90358">
        <ele>1012</ele>
        <time>2022-08-17T11:50:58Z</time>
      </trkpt>
      <trkpt lat="45.68076" lon="2.90351">
        <ele>1012</ele>
        <time>2022-08-17T11:50:59Z</time>
      </trkpt>
      <trkpt lat="45.68073" lon="2.90348">
        <ele>1012</ele>
        <time>2022-08-17T11:51:00Z</time>
      </trkpt>
      <trkpt lat="45.68069" lon="2.90345">
        <ele>1012</ele>
        <time>2022-08-17T11:51:01Z</time>
      </trkpt>
      <trkpt lat="45.68066" lon="2.90342">
        <ele>1012</ele>
        <time>2022-08-17T11:51:02Z</time>
      </trkpt>
      <trkpt lat="45.68063" lon="2.90339">
        <ele>1012</ele>
        <time>2022-08-17T11:51:03Z</time>
      </trkpt>
      <trkpt lat="45.6806" lon="2.90335">
        <ele>1012</ele>
        <time>2022-08-17T11:51:04Z</time>
      </trkpt>
      <trkpt lat="45.68057" lon="2.90332">
        <ele>1012</ele>
        <time>2022-08-17T11:51:05Z</time>
      </trkpt>
      <trkpt lat="45.68054" lon="2.90329">
        <ele>1012</ele>
        <time>2022-08-17T11:51:06Z</time>
      </trkpt>
      <trkpt lat="45.68051" lon="2.90326">
        <ele>1012</ele>
        <time>2022-08-17T11:51:07Z</time>
      </trkpt>
      <trkpt lat="45.68048" lon="2.90322">
        <ele>1013</ele>
        <time>2022-08-17T11:51:08Z</time>
      </trkpt>
      <trkpt lat="45.68038" lon="2.9031">
        <ele>1013</ele>
        <time>2022-08-17T11:51:10Z</time>
      </trkpt>
      <trkpt lat="45.68033" lon="2.90305">
        <ele>1013</ele>
        <time>2022-08-17T11:51:12Z</time>
      </trkpt>
      <trkpt lat="45.68028" lon="2.90299">
        <ele>1013</ele>
        <time>2022-08-17T11:51:14Z</time>
      </trkpt>
      <trkpt lat="45.68023" lon="2.90294">
        <ele>1013</ele>
        <time>2022-08-17T11:51:16Z</time>
      </trkpt>
      <trkpt lat="45.68019" lon="2.90288">
        <ele>1014</ele>
        <time>2022-08-17T11:51:18Z</time>
      </trkpt>
      <trkpt lat="45.68013" lon="2.90281">
        <ele>1014</ele>
        <time>2022-08-17T11:51:19Z</time>
      </trkpt>
      <trkpt lat="45.6801" lon="2.90277">
        <ele>1014</ele>
        <time>2022-08-17T11:51:20Z</time>
      </trkpt>
      <trkpt lat="45.68006" lon="2.90273">
        <ele>1014</ele>
        <time>2022-08-17T11:51:21Z</time>
      </trkpt>
      <trkpt lat="45.68003" lon="2.90269">
        <ele>1014</ele>
        <time>2022-08-17T11:51:22Z</time>
      </trkpt>
      <trkpt lat="45.68" lon="2.90265">
        <ele>1014</ele>
        <time>2022-08-17T11:51:23Z</time>
      </trkpt>
      <trkpt lat="45.67997" lon="2.90261">
        <ele>1014</ele>
        <time>2022-08-17T11:51:25Z</time>
      </trkpt>
      <trkpt lat="45.67994" lon="2.90257">
        <ele>1014</ele>
        <time>2022-08-17T11:51:26Z</time>
      </trkpt>
      <trkpt lat="45.67991" lon="2.90253">
        <ele>1014</ele>
        <time>2022-08-17T11:51:27Z</time>
      </trkpt>
      <trkpt lat="45.67988" lon="2.90249">
        <ele>1015</ele>
        <time>2022-08-17T11:51:28Z</time>
      </trkpt>
      <trkpt lat="45.67983" lon="2.9024">
        <ele>1015</ele>
        <time>2022-08-17T11:51:29Z</time>
      </trkpt>
      <trkpt lat="45.6798" lon="2.90236">
        <ele>1015</ele>
        <time>2022-08-17T11:51:31Z</time>
      </trkpt>
      <trkpt lat="45.67978" lon="2.90231">
        <ele>1015</ele>
        <time>2022-08-17T11:51:32Z</time>
      </trkpt>
      <trkpt lat="45.67975" lon="2.90226">
        <ele>1015</ele>
        <time>2022-08-17T11:51:33Z</time>
      </trkpt>
      <trkpt lat="45.67973" lon="2.90221">
        <ele>1015</ele>
        <time>2022-08-17T11:51:34Z</time>
      </trkpt>
      <trkpt lat="45.67971" lon="2.90217">
        <ele>1015</ele>
        <time>2022-08-17T11:51:35Z</time>
      </trkpt>
      <trkpt lat="45.67968" lon="2.90212">
        <ele>1015</ele>
        <time>2022-08-17T11:51:36Z</time>
      </trkpt>
      <trkpt lat="45.67966" lon="2.90207">
        <ele>1015</ele>
        <time>2022-08-17T11:51:37Z</time>
      </trkpt>
      <trkpt lat="45.67963" lon="2.90203">
        <ele>1016</ele>
        <time>2022-08-17T11:51:38Z</time>
      </trkpt>
      <trkpt lat="45.67958" lon="2.90193">
        <ele>1016</ele>
        <time>2022-08-17T11:51:39Z</time>
      </trkpt>
      <trkpt lat="45.67956" lon="2.90188">
        <ele>1016</ele>
        <time>2022-08-17T11:51:40Z</time>
      </trkpt>
      <trkpt lat="45.67954" lon="2.90183">
        <ele>1016</ele>
        <time>2022-08-17T11:51:41Z</time>
      </trkpt>
      <trkpt lat="45.67951" lon="2.90178">
        <ele>1016</ele>
        <time>2022-08-17T11:51:42Z</time>
      </trkpt>
      <trkpt lat="45.67949" lon="2.90173">
        <ele>1016</ele>
        <time>2022-08-17T11:51:43Z</time>
      </trkpt>
      <trkpt lat="45.67946" lon="2.90168">
        <ele>1016</ele>
        <time>2022-08-17T11:51:44Z</time>
      </trkpt>
      <trkpt lat="45.67944" lon="2.90163">
        <ele>1016</ele>
        <time>2022-08-17T11:51:45Z</time>
      </trkpt>
      <trkpt lat="45.67942" lon="2.90158">
        <ele>1016</ele>
        <time>2022-08-17T11:51:46Z</time>
      </trkpt>
      <trkpt lat="45.67939" lon="2.90153">
        <ele>1016</ele>
        <time>2022-08-17T11:51:47Z</time>
      </trkpt>
      <trkpt lat="45.67937" lon="2.90148">
        <ele>1018</ele>
        <time>2022-08-17T11:51:48Z</time>
      </trkpt>
      <trkpt lat="45.67932" lon="2.90138">
        <ele>1018</ele>
        <time>2022-08-17T11:51:49Z</time>
      </trkpt>
      <trkpt lat="45.67929" lon="2.90132">
        <ele>1018</ele>
        <time>2022-08-17T11:51:50Z</time>
      </trkpt>
      <trkpt lat="45.67927" lon="2.90127">
        <ele>1018</ele>
        <time>2022-08-17T11:51:51Z</time>
      </trkpt>
      <trkpt lat="45.67924" lon="2.90122">
        <ele>1018</ele>
        <time>2022-08-17T11:51:52Z</time>
      </trkpt>
      <trkpt lat="45.67922" lon="2.90116">
        <ele>1018</ele>
        <time>2022-08-17T11:51:53Z</time>
      </trkpt>
      <trkpt lat="45.6792" lon="2.90111">
        <ele>1018</ele>
        <time>2022-08-17T11:51:54Z</time>
      </trkpt>
      <trkpt lat="45.67917" lon="2.90106">
        <ele>1018</ele>
        <time>2022-08-17T11:51:55Z</time>
      </trkpt>
      <trkpt lat="45.67915" lon="2.901">
        <ele>1018</ele>
        <time>2022-08-17T11:51:57Z</time>
      </trkpt>
      <trkpt lat="45.67912" lon="2.90095">
        <ele>1020</ele>
        <time>2022-08-17T11:51:58Z</time>
      </trkpt>
      <trkpt lat="45.67906" lon="2.9008">
        <ele>1020</ele>
        <time>2022-08-17T11:51:59Z</time>
      </trkpt>
      <trkpt lat="45.67903" lon="2.90072">
        <ele>1020</ele>
        <time>2022-08-17T11:52:00Z</time>
      </trkpt>
      <trkpt lat="45.679" lon="2.90064">
        <ele>1020</ele>
        <time>2022-08-17T11:52:01Z</time>
      </trkpt>
      <trkpt lat="45.67896" lon="2.90055">
        <ele>1020</ele>
        <time>2022-08-17T11:52:02Z</time>
      </trkpt>
      <trkpt lat="45.67893" lon="2.90047">
        <ele>1020</ele>
        <time>2022-08-17T11:52:03Z</time>
      </trkpt>
      <trkpt lat="45.67889" lon="2.90039">
        <ele>1020</ele>
        <time>2022-08-17T11:52:05Z</time>
      </trkpt>
      <trkpt lat="45.67886" lon="2.9003">
        <ele>1020</ele>
        <time>2022-08-17T11:52:06Z</time>
      </trkpt>
      <trkpt lat="45.67883" lon="2.90022">
        <ele>1020</ele>
        <time>2022-08-17T11:52:07Z</time>
      </trkpt>
      <trkpt lat="45.67879" lon="2.90014">
        <ele>1019</ele>
        <time>2022-08-17T11:52:08Z</time>
      </trkpt>
      <trkpt lat="45.67865" lon="2.90006">
        <ele>1019</ele>
        <time>2022-08-17T11:52:09Z</time>
      </trkpt>
      <trkpt lat="45.67858" lon="2.90006">
        <ele>1019</ele>
        <time>2022-08-17T11:52:10Z</time>
      </trkpt>
      <trkpt lat="45.6785" lon="2.90005">
        <ele>1019</ele>
        <time>2022-08-17T11:52:11Z</time>
      </trkpt>
      <trkpt lat="45.67842" lon="2.90004">
        <ele>1019</ele>
        <time>2022-08-17T11:52:12Z</time>
      </trkpt>
      <trkpt lat="45.67835" lon="2.90003">
        <ele>1019</ele>
        <time>2022-08-17T11:52:13Z</time>
      </trkpt>
      <trkpt lat="45.67827" lon="2.90002">
        <ele>1019</ele>
        <time>2022-08-17T11:52:14Z</time>
      </trkpt>
      <trkpt lat="45.67819" lon="2.90002">
        <ele>1019</ele>
        <time>2022-08-17T11:52:15Z</time>
      </trkpt>
      <trkpt lat="45.67812" lon="2.90001">
        <ele>1019</ele>
        <time>2022-08-17T11:52:16Z</time>
      </trkpt>
      <trkpt lat="45.67804" lon="2.9">
        <ele>1019</ele>
        <time>2022-08-17T11:52:17Z</time>
      </trkpt>
      <trkpt lat="45.67796" lon="2.89999">
        <ele>1012</ele>
        <time>2022-08-17T11:52:18Z</time>
      </trkpt>
      <trkpt lat="45.67787" lon="2.90003">
        <ele>1012</ele>
        <time>2022-08-17T11:52:19Z</time>
      </trkpt>
      <trkpt lat="45.67778" lon="2.90007">
        <ele>1012</ele>
        <time>2022-08-17T11:52:20Z</time>
      </trkpt>
      <trkpt lat="45.67768" lon="2.9001">
        <ele>1012</ele>
        <time>2022-08-17T11:52:21Z</time>
      </trkpt>
      <trkpt lat="45.67759" lon="2.90012">
        <ele>1012</ele>
        <time>2022-08-17T11:52:22Z</time>
      </trkpt>
      <trkpt lat="45.67748" lon="2.90014">
        <ele>1012</ele>
        <time>2022-08-17T11:52:23Z</time>
      </trkpt>
      <trkpt lat="45.67738" lon="2.90015">
        <ele>1012</ele>
        <time>2022-08-17T11:52:24Z</time>
      </trkpt>
      <trkpt lat="45.67728" lon="2.90015">
        <ele>1012</ele>
        <time>2022-08-17T11:52:25Z</time>
      </trkpt>
      <trkpt lat="45.67717" lon="2.90015">
        <ele>1012</ele>
        <time>2022-08-17T11:52:26Z</time>
      </trkpt>
      <trkpt lat="45.67706" lon="2.90014">
        <ele>1012</ele>
        <time>2022-08-17T11:52:27Z</time>
      </trkpt>
      <trkpt lat="45.67695" lon="2.90009">
        <ele>1007</ele>
        <time>2022-08-17T11:52:28Z</time>
      </trkpt>
      <trkpt lat="45.67684" lon="2.90003">
        <ele>1007</ele>
        <time>2022-08-17T11:52:29Z</time>
      </trkpt>
      <trkpt lat="45.67675" lon="2.89995">
        <ele>1007</ele>
        <time>2022-08-17T11:52:30Z</time>
      </trkpt>
      <trkpt lat="45.67665" lon="2.89985">
        <ele>1007</ele>
        <time>2022-08-17T11:52:31Z</time>
      </trkpt>
      <trkpt lat="45.67656" lon="2.89975">
        <ele>1007</ele>
        <time>2022-08-17T11:52:32Z</time>
      </trkpt>
      <trkpt lat="45.67647" lon="2.89965">
        <ele>1007</ele>
        <time>2022-08-17T11:52:33Z</time>
      </trkpt>
      <trkpt lat="45.67637" lon="2.89956">
        <ele>1007</ele>
        <time>2022-08-17T11:52:34Z</time>
      </trkpt>
      <trkpt lat="45.67627" lon="2.89947">
        <ele>1007</ele>
        <time>2022-08-17T11:52:35Z</time>
      </trkpt>
      <trkpt lat="45.67617" lon="2.89939">
        <ele>1007</ele>
        <time>2022-08-17T11:52:36Z</time>
      </trkpt>
      <trkpt lat="45.67601" lon="2.8993">
        <ele>1007</ele>
        <time>2022-08-17T11:52:37Z</time>
      </trkpt>
      <trkpt lat="45.67595" lon="2.89927">
        <ele>1002</ele>
        <time>2022-08-17T11:52:38Z</time>
      </trkpt>
      <trkpt lat="45.67584" lon="2.89921">
        <ele>1002</ele>
        <time>2022-08-17T11:52:39Z</time>
      </trkpt>
      <trkpt lat="45.67573" lon="2.89916">
        <ele>1002</ele>
        <time>2022-08-17T11:52:40Z</time>
      </trkpt>
      <trkpt lat="45.67562" lon="2.89911">
        <ele>1002</ele>
        <time>2022-08-17T11:52:41Z</time>
      </trkpt>
      <trkpt lat="45.6755" lon="2.89906">
        <ele>1002</ele>
        <time>2022-08-17T11:52:42Z</time>
      </trkpt>
      <trkpt lat="45.67538" lon="2.89901">
        <ele>1002</ele>
        <time>2022-08-17T11:52:43Z</time>
      </trkpt>
      <trkpt lat="45.67526" lon="2.89896">
        <ele>1002</ele>
        <time>2022-08-17T11:52:44Z</time>
      </trkpt>
      <trkpt lat="45.67515" lon="2.89891">
        <ele>1002</ele>
        <time>2022-08-17T11:52:45Z</time>
      </trkpt>
      <trkpt lat="45.67496" lon="2.89884">
        <ele>1002</ele>
        <time>2022-08-17T11:52:46Z</time>
      </trkpt>
      <trkpt lat="45.67489" lon="2.89881">
        <ele>1002</ele>
        <time>2022-08-17T11:52:47Z</time>
      </trkpt>
      <trkpt lat="45.67481" lon="2.89878">
        <ele>994</ele>
        <time>2022-08-17T11:52:48Z</time>
      </trkpt>
      <trkpt lat="45.6747" lon="2.89874">
        <ele>994</ele>
        <time>2022-08-17T11:52:49Z</time>
      </trkpt>
      <trkpt lat="45.6746" lon="2.8987">
        <ele>994</ele>
        <time>2022-08-17T11:52:50Z</time>
      </trkpt>
      <trkpt lat="45.67449" lon="2.89866">
        <ele>994</ele>
        <time>2022-08-17T11:52:51Z</time>
      </trkpt>
      <trkpt lat="45.6744" lon="2.89861">
        <ele>994</ele>
        <time>2022-08-17T11:52:52Z</time>
      </trkpt>
      <trkpt lat="45.67431" lon="2.89854">
        <ele>994</ele>
        <time>2022-08-17T11:52:53Z</time>
      </trkpt>
      <trkpt lat="45.67423" lon="2.89845">
        <ele>994</ele>
        <time>2022-08-17T11:52:54Z</time>
      </trkpt>
      <trkpt lat="45.67418" lon="2.89833">
        <ele>994</ele>
        <time>2022-08-17T11:52:55Z</time>
      </trkpt>
      <trkpt lat="45.67414" lon="2.8982">
        <ele>994</ele>
        <time>2022-08-17T11:52:56Z</time>
      </trkpt>
      <trkpt lat="45.67411" lon="2.89806">
        <ele>994</ele>
        <time>2022-08-17T11:52:57Z</time>
      </trkpt>
      <trkpt lat="45.67409" lon="2.89793">
        <ele>989</ele>
        <time>2022-08-17T11:52:58Z</time>
      </trkpt>
      <trkpt lat="45.67407" lon="2.89771">
        <ele>989</ele>
        <time>2022-08-17T11:52:59Z</time>
      </trkpt>
      <trkpt lat="45.67407" lon="2.89762">
        <ele>989</ele>
        <time>2022-08-17T11:53:00Z</time>
      </trkpt>
      <trkpt lat="45.67407" lon="2.89753">
        <ele>989</ele>
        <time>2022-08-17T11:53:01Z</time>
      </trkpt>
      <trkpt lat="45.67406" lon="2.89744">
        <ele>989</ele>
        <time>2022-08-17T11:53:02Z</time>
      </trkpt>
      <trkpt lat="45.67406" lon="2.89735">
        <ele>989</ele>
        <time>2022-08-17T11:53:03Z</time>
      </trkpt>
      <trkpt lat="45.67406" lon="2.89726">
        <ele>989</ele>
        <time>2022-08-17T11:53:04Z</time>
      </trkpt>
      <trkpt lat="45.67406" lon="2.89718">
        <ele>989</ele>
        <time>2022-08-17T11:53:05Z</time>
      </trkpt>
      <trkpt lat="45.67405" lon="2.89709">
        <ele>989</ele>
        <time>2022-08-17T11:53:06Z</time>
      </trkpt>
      <trkpt lat="45.67405" lon="2.897">
        <ele>989</ele>
        <time>2022-08-17T11:53:07Z</time>
      </trkpt>
      <trkpt lat="45.67405" lon="2.89691">
        <ele>989</ele>
        <time>2022-08-17T11:53:08Z</time>
      </trkpt>
      <trkpt lat="45.67412" lon="2.89682">
        <ele>989</ele>
        <time>2022-08-17T11:53:09Z</time>
      </trkpt>
      <trkpt lat="45.67417" lon="2.89679">
        <ele>989</ele>
        <time>2022-08-17T11:53:10Z</time>
      </trkpt>
      <trkpt lat="45.67422" lon="2.89677">
        <ele>989</ele>
        <time>2022-08-17T11:53:11Z</time>
      </trkpt>
      <trkpt lat="45.67427" lon="2.89674">
        <ele>989</ele>
        <time>2022-08-17T11:53:12Z</time>
      </trkpt>
      <trkpt lat="45.67432" lon="2.89671">
        <ele>989</ele>
        <time>2022-08-17T11:53:14Z</time>
      </trkpt>
      <trkpt lat="45.67437" lon="2.89669">
        <ele>989</ele>
        <time>2022-08-17T11:53:16Z</time>
      </trkpt>
      <trkpt lat="45.67441" lon="2.89666">
        <ele>991</ele>
        <time>2022-08-17T11:53:18Z</time>
      </trkpt>
      <trkpt lat="45.67455" lon="2.89663">
        <ele>991</ele>
        <time>2022-08-17T11:53:20Z</time>
      </trkpt>
      <trkpt lat="45.67462" lon="2.89661">
        <ele>991</ele>
        <time>2022-08-17T11:53:22Z</time>
      </trkpt>
      <trkpt lat="45.67468" lon="2.89659">
        <ele>991</ele>
        <time>2022-08-17T11:53:24Z</time>
      </trkpt>
      <trkpt lat="45.67475" lon="2.89658">
        <ele>991</ele>
        <time>2022-08-17T11:53:26Z</time>
      </trkpt>
      <trkpt lat="45.67481" lon="2.89656">
        <ele>996</ele>
        <time>2022-08-17T11:53:28Z</time>
      </trkpt>
      <trkpt lat="45.67494" lon="2.89649">
        <ele>996</ele>
        <time>2022-08-17T11:53:30Z</time>
      </trkpt>
      <trkpt lat="45.67499" lon="2.89647">
        <ele>996</ele>
        <time>2022-08-17T11:53:32Z</time>
      </trkpt>
      <trkpt lat="45.67505" lon="2.89644">
        <ele>996</ele>
        <time>2022-08-17T11:53:34Z</time>
      </trkpt>
      <trkpt lat="45.6751" lon="2.89641">
        <ele>996</ele>
        <time>2022-08-17T11:53:36Z</time>
      </trkpt>
      <trkpt lat="45.67516" lon="2.89638">
        <ele>998</ele>
        <time>2022-08-17T11:53:38Z</time>
      </trkpt>
      <trkpt lat="45.67526" lon="2.89629">
        <ele>998</ele>
        <time>2022-08-17T11:53:40Z</time>
      </trkpt>
      <trkpt lat="45.6753" lon="2.89625">
        <ele>998</ele>
        <time>2022-08-17T11:53:42Z</time>
      </trkpt>
      <trkpt lat="45.67534" lon="2.89621">
        <ele>998</ele>
        <time>2022-08-17T11:53:43Z</time>
      </trkpt>
      <trkpt lat="45.67537" lon="2.89617">
        <ele>998</ele>
        <time>2022-08-17T11:53:44Z</time>
      </trkpt>
      <trkpt lat="45.67541" lon="2.89613">
        <ele>998</ele>
        <time>2022-08-17T11:53:46Z</time>
      </trkpt>
      <trkpt lat="45.67545" lon="2.89609">
        <ele>1001</ele>
        <time>2022-08-17T11:53:48Z</time>
      </trkpt>
      <trkpt lat="45.67551" lon="2.89595">
        <ele>1001</ele>
        <time>2022-08-17T11:53:50Z</time>
      </trkpt>
      <trkpt lat="45.67554" lon="2.89588">
        <ele>1001</ele>
        <time>2022-08-17T11:53:52Z</time>
      </trkpt>
      <trkpt lat="45.67556" lon="2.89581">
        <ele>1001</ele>
        <time>2022-08-17T11:53:54Z</time>
      </trkpt>
      <trkpt lat="45.67558" lon="2.89574">
        <ele>1001</ele>
        <time>2022-08-17T11:53:56Z</time>
      </trkpt>
      <trkpt lat="45.6756" lon="2.89567">
        <ele>1002</ele>
        <time>2022-08-17T11:53:58Z</time>
      </trkpt>
      <trkpt lat="45.67565" lon="2.89551">
        <ele>1002</ele>
        <time>2022-08-17T11:54:00Z</time>
      </trkpt>
      <trkpt lat="45.67567" lon="2.89544">
        <ele>1002</ele>
        <time>2022-08-17T11:54:02Z</time>
      </trkpt>
      <trkpt lat="45.6757" lon="2.89537">
        <ele>1002</ele>
        <time>2022-08-17T11:54:04Z</time>
      </trkpt>
      <trkpt lat="45.67572" lon="2.8953">
        <ele>1002</ele>
        <time>2022-08-17T11:54:06Z</time>
      </trkpt>
      <trkpt lat="45.67574" lon="2.89523">
        <ele>1003</ele>
        <time>2022-08-17T11:54:08Z</time>
      </trkpt>
      <trkpt lat="45.67582" lon="2.89511">
        <ele>1003</ele>
        <time>2022-08-17T11:54:10Z</time>
      </trkpt>
      <trkpt lat="45.67586" lon="2.89507">
        <ele>1003</ele>
        <time>2022-08-17T11:54:12Z</time>
      </trkpt>
      <trkpt lat="45.67589" lon="2.89503">
        <ele>1003</ele>
        <time>2022-08-17T11:54:14Z</time>
      </trkpt>
      <trkpt lat="45.67593" lon="2.89499">
        <ele>1003</ele>
        <time>2022-08-17T11:54:17Z</time>
      </trkpt>
      <trkpt lat="45.67597" lon="2.89495">
        <ele>1005</ele>
        <time>2022-08-17T11:54:18Z</time>
      </trkpt>
      <trkpt lat="45.67604" lon="2.89487">
        <ele>1005</ele>
        <time>2022-08-17T11:54:19Z</time>
      </trkpt>
      <trkpt lat="45.67608" lon="2.89482">
        <ele>1005</ele>
        <time>2022-08-17T11:54:21Z</time>
      </trkpt>
      <trkpt lat="45.67612" lon="2.89477">
        <ele>1005</ele>
        <time>2022-08-17T11:54:24Z</time>
      </trkpt>
      <trkpt lat="45.67616" lon="2.89471">
        <ele>1005</ele>
        <time>2022-08-17T11:54:26Z</time>
      </trkpt>
      <trkpt lat="45.6762" lon="2.89466">
        <ele>1007</ele>
        <time>2022-08-17T11:54:28Z</time>
      </trkpt>
      <trkpt lat="45.67622" lon="2.89448">
        <ele>1007</ele>
        <time>2022-08-17T11:54:30Z</time>
      </trkpt>
      <trkpt lat="45.67621" lon="2.8944">
        <ele>1007</ele>
        <time>2022-08-17T11:54:32Z</time>
      </trkpt>
      <trkpt lat="45.67621" lon="2.89431">
        <ele>1007</ele>
        <time>2022-08-17T11:54:34Z</time>
      </trkpt>
      <trkpt lat="45.67621" lon="2.89423">
        <ele>1007</ele>
        <time>2022-08-17T11:54:36Z</time>
      </trkpt>
      <trkpt lat="45.67621" lon="2.89415">
        <ele>1009</ele>
        <time>2022-08-17T11:54:38Z</time>
      </trkpt>
      <trkpt lat="45.67619" lon="2.89397">
        <ele>1009</ele>
        <time>2022-08-17T11:54:40Z</time>
      </trkpt>
      <trkpt lat="45.67619" lon="2.89392">
        <ele>1009</ele>
        <time>2022-08-17T11:54:41Z</time>
      </trkpt>
      <trkpt lat="45.67618" lon="2.89386">
        <ele>1009</ele>
        <time>2022-08-17T11:54:42Z</time>
      </trkpt>
      <trkpt lat="45.67618" lon="2.8938">
        <ele>1009</ele>
        <time>2022-08-17T11:54:43Z</time>
      </trkpt>
      <trkpt lat="45.67617" lon="2.89375">
        <ele>1009</ele>
        <time>2022-08-17T11:54:44Z</time>
      </trkpt>
      <trkpt lat="45.67617" lon="2.89369">
        <ele>1009</ele>
        <time>2022-08-17T11:54:45Z</time>
      </trkpt>
      <trkpt lat="45.67616" lon="2.89364">
        <ele>1009</ele>
        <time>2022-08-17T11:54:46Z</time>
      </trkpt>
      <trkpt lat="45.67616" lon="2.89358">
        <ele>1009</ele>
        <time>2022-08-17T11:54:47Z</time>
      </trkpt>
      <trkpt lat="45.67615" lon="2.89352">
        <ele>1011</ele>
        <time>2022-08-17T11:54:48Z</time>
      </trkpt>
      <trkpt lat="45.67613" lon="2.89331">
        <ele>1011</ele>
        <time>2022-08-17T11:54:50Z</time>
      </trkpt>
      <trkpt lat="45.67613" lon="2.89323">
        <ele>1011</ele>
        <time>2022-08-17T11:54:51Z</time>
      </trkpt>
      <trkpt lat="45.67612" lon="2.89315">
        <ele>1011</ele>
        <time>2022-08-17T11:54:52Z</time>
      </trkpt>
      <trkpt lat="45.67611" lon="2.89307">
        <ele>1011</ele>
        <time>2022-08-17T11:54:54Z</time>
      </trkpt>
      <trkpt lat="45.67611" lon="2.89299">
        <ele>1011</ele>
        <time>2022-08-17T11:54:55Z</time>
      </trkpt>
      <trkpt lat="45.6761" lon="2.89291">
        <ele>1011</ele>
        <time>2022-08-17T11:54:57Z</time>
      </trkpt>
      <trkpt lat="45.6761" lon="2.89283">
        <ele>1012</ele>
        <time>2022-08-17T11:54:58Z</time>
      </trkpt>
      <trkpt lat="45.67609" lon="2.89268">
        <ele>1012</ele>
        <time>2022-08-17T11:54:59Z</time>
      </trkpt>
      <trkpt lat="45.67609" lon="2.8926">
        <ele>1012</ele>
        <time>2022-08-17T11:55:01Z</time>
      </trkpt>
      <trkpt lat="45.67609" lon="2.89252">
        <ele>1012</ele>
        <time>2022-08-17T11:55:02Z</time>
      </trkpt>
      <trkpt lat="45.67608" lon="2.89245">
        <ele>1012</ele>
        <time>2022-08-17T11:55:03Z</time>
      </trkpt>
      <trkpt lat="45.67608" lon="2.89237">
        <ele>1012</ele>
        <time>2022-08-17T11:55:04Z</time>
      </trkpt>
      <trkpt lat="45.67608" lon="2.89229">
        <ele>1012</ele>
        <time>2022-08-17T11:55:05Z</time>
      </trkpt>
      <trkpt lat="45.67607" lon="2.89221">
        <ele>1012</ele>
        <time>2022-08-17T11:55:06Z</time>
      </trkpt>
      <trkpt lat="45.67607" lon="2.89214">
        <ele>1012</ele>
        <time>2022-08-17T11:55:07Z</time>
      </trkpt>
      <trkpt lat="45.67607" lon="2.89206">
        <ele>1012</ele>
        <time>2022-08-17T11:55:08Z</time>
      </trkpt>
      <trkpt lat="45.67605" lon="2.89191">
        <ele>1012</ele>
        <time>2022-08-17T11:55:09Z</time>
      </trkpt>
      <trkpt lat="45.67603" lon="2.89184">
        <ele>1012</ele>
        <time>2022-08-17T11:55:10Z</time>
      </trkpt>
      <trkpt lat="45.67601" lon="2.89177">
        <ele>1012</ele>
        <time>2022-08-17T11:55:11Z</time>
      </trkpt>
      <trkpt lat="45.676" lon="2.8917">
        <ele>1012</ele>
        <time>2022-08-17T11:55:12Z</time>
      </trkpt>
      <trkpt lat="45.67598" lon="2.89163">
        <ele>1012</ele>
        <time>2022-08-17T11:55:13Z</time>
      </trkpt>
      <trkpt lat="45.67597" lon="2.89156">
        <ele>1012</ele>
        <time>2022-08-17T11:55:14Z</time>
      </trkpt>
      <trkpt lat="45.67595" lon="2.89149">
        <ele>1012</ele>
        <time>2022-08-17T11:55:15Z</time>
      </trkpt>
      <trkpt lat="45.67594" lon="2.89142">
        <ele>1012</ele>
        <time>2022-08-17T11:55:16Z</time>
      </trkpt>
      <trkpt lat="45.67592" lon="2.89135">
        <ele>1012</ele>
        <time>2022-08-17T11:55:17Z</time>
      </trkpt>
      <trkpt lat="45.6759" lon="2.89128">
        <ele>1011</ele>
        <time>2022-08-17T11:55:18Z</time>
      </trkpt>
      <trkpt lat="45.67585" lon="2.89115">
        <ele>1011</ele>
        <time>2022-08-17T11:55:19Z</time>
      </trkpt>
      <trkpt lat="45.67583" lon="2.89108">
        <ele>1011</ele>
        <time>2022-08-17T11:55:20Z</time>
      </trkpt>
      <trkpt lat="45.67581" lon="2.89102">
        <ele>1011</ele>
        <time>2022-08-17T11:55:21Z</time>
      </trkpt>
      <trkpt lat="45.67579" lon="2.89095">
        <ele>1011</ele>
        <time>2022-08-17T11:55:22Z</time>
      </trkpt>
      <trkpt lat="45.67576" lon="2.89088">
        <ele>1011</ele>
        <time>2022-08-17T11:55:23Z</time>
      </trkpt>
      <trkpt lat="45.67574" lon="2.89082">
        <ele>1011</ele>
        <time>2022-08-17T11:55:24Z</time>
      </trkpt>
      <trkpt lat="45.67572" lon="2.89075">
        <ele>1011</ele>
        <time>2022-08-17T11:55:25Z</time>
      </trkpt>
      <trkpt lat="45.6757" lon="2.89069">
        <ele>1011</ele>
        <time>2022-08-17T11:55:26Z</time>
      </trkpt>
      <trkpt lat="45.67567" lon="2.89062">
        <ele>1011</ele>
        <time>2022-08-17T11:55:27Z</time>
      </trkpt>
      <trkpt lat="45.67565" lon="2.89056">
        <ele>1010</ele>
        <time>2022-08-17T11:55:28Z</time>
      </trkpt>
      <trkpt lat="45.67561" lon="2.89042">
        <ele>1010</ele>
        <time>2022-08-17T11:55:29Z</time>
      </trkpt>
      <trkpt lat="45.67558" lon="2.89036">
        <ele>1010</ele>
        <time>2022-08-17T11:55:30Z</time>
      </trkpt>
      <trkpt lat="45.67556" lon="2.8903">
        <ele>1010</ele>
        <time>2022-08-17T11:55:31Z</time>
      </trkpt>
      <trkpt lat="45.67554" lon="2.89024">
        <ele>1010</ele>
        <time>2022-08-17T11:55:32Z</time>
      </trkpt>
      <trkpt lat="45.67552" lon="2.89018">
        <ele>1010</ele>
        <time>2022-08-17T11:55:33Z</time>
      </trkpt>
      <trkpt lat="45.6755" lon="2.89012">
        <ele>1010</ele>
        <time>2022-08-17T11:55:34Z</time>
      </trkpt>
      <trkpt lat="45.67548" lon="2.89006">
        <ele>1010</ele>
        <time>2022-08-17T11:55:35Z</time>
      </trkpt>
      <trkpt lat="45.67546" lon="2.89">
        <ele>1010</ele>
        <time>2022-08-17T11:55:36Z</time>
      </trkpt>
      <trkpt lat="45.67544" lon="2.88994">
        <ele>1011</ele>
        <time>2022-08-17T11:55:38Z</time>
      </trkpt>
      <trkpt lat="45.67538" lon="2.88975">
        <ele>1011</ele>
        <time>2022-08-17T11:55:40Z</time>
      </trkpt>
      <trkpt lat="45.67536" lon="2.88968">
        <ele>1011</ele>
        <time>2022-08-17T11:55:41Z</time>
      </trkpt>
      <trkpt lat="45.67535" lon="2.88961">
        <ele>1011</ele>
        <time>2022-08-17T11:55:42Z</time>
      </trkpt>
      <trkpt lat="45.67533" lon="2.88954">
        <ele>1011</ele>
        <time>2022-08-17T11:55:43Z</time>
      </trkpt>
      <trkpt lat="45.67531" lon="2.88946">
        <ele>1011</ele>
        <time>2022-08-17T11:55:45Z</time>
      </trkpt>
      <trkpt lat="45.6753" lon="2.88939">
        <ele>1011</ele>
        <time>2022-08-17T11:55:47Z</time>
      </trkpt>
      <trkpt lat="45.67528" lon="2.88932">
        <ele>1015</ele>
        <time>2022-08-17T11:55:48Z</time>
      </trkpt>
      <trkpt lat="45.67526" lon="2.88918">
        <ele>1015</ele>
        <time>2022-08-17T11:55:49Z</time>
      </trkpt>
      <trkpt lat="45.67524" lon="2.88909">
        <ele>1015</ele>
        <time>2022-08-17T11:55:51Z</time>
      </trkpt>
      <trkpt lat="45.67523" lon="2.88901">
        <ele>1015</ele>
        <time>2022-08-17T11:55:53Z</time>
      </trkpt>
      <trkpt lat="45.67522" lon="2.88893">
        <ele>1015</ele>
        <time>2022-08-17T11:55:55Z</time>
      </trkpt>
      <trkpt lat="45.67521" lon="2.88885">
        <ele>1015</ele>
        <time>2022-08-17T11:55:57Z</time>
      </trkpt>
      <trkpt lat="45.6752" lon="2.88877">
        <ele>1017</ele>
        <time>2022-08-17T11:55:58Z</time>
      </trkpt>
      <trkpt lat="45.67518" lon="2.88865">
        <ele>1017</ele>
        <time>2022-08-17T11:55:59Z</time>
      </trkpt>
      <trkpt lat="45.67516" lon="2.88858">
        <ele>1017</ele>
        <time>2022-08-17T11:56:01Z</time>
      </trkpt>
      <trkpt lat="45.67515" lon="2.88851">
        <ele>1017</ele>
        <time>2022-08-17T11:56:03Z</time>
      </trkpt>
      <trkpt lat="45.67513" lon="2.88845">
        <ele>1017</ele>
        <time>2022-08-17T11:56:04Z</time>
      </trkpt>
      <trkpt lat="45.67512" lon="2.88838">
        <ele>1017</ele>
        <time>2022-08-17T11:56:05Z</time>
      </trkpt>
      <trkpt lat="45.6751" lon="2.88832">
        <ele>1017</ele>
        <time>2022-08-17T11:56:06Z</time>
      </trkpt>
      <trkpt lat="45.67509" lon="2.88825">
        <ele>1017</ele>
        <time>2022-08-17T11:56:07Z</time>
      </trkpt>
      <trkpt lat="45.67508" lon="2.88819">
        <ele>1018</ele>
        <time>2022-08-17T11:56:08Z</time>
      </trkpt>
      <trkpt lat="45.67503" lon="2.88808">
        <ele>1018</ele>
        <time>2022-08-17T11:56:09Z</time>
      </trkpt>
      <trkpt lat="45.67501" lon="2.88804">
        <ele>1018</ele>
        <time>2022-08-17T11:56:11Z</time>
      </trkpt>
      <trkpt lat="45.67498" lon="2.88799">
        <ele>1018</ele>
        <time>2022-08-17T11:56:12Z</time>
      </trkpt>
      <trkpt lat="45.67496" lon="2.88794">
        <ele>1018</ele>
        <time>2022-08-17T11:56:13Z</time>
      </trkpt>
      <trkpt lat="45.67493" lon="2.88789">
        <ele>1018</ele>
        <time>2022-08-17T11:56:14Z</time>
      </trkpt>
      <trkpt lat="45.67491" lon="2.88784">
        <ele>1018</ele>
        <time>2022-08-17T11:56:15Z</time>
      </trkpt>
      <trkpt lat="45.67488" lon="2.88779">
        <ele>1018</ele>
        <time>2022-08-17T11:56:16Z</time>
      </trkpt>
      <trkpt lat="45.67486" lon="2.88774">
        <ele>1018</ele>
        <time>2022-08-17T11:56:17Z</time>
      </trkpt>
      <trkpt lat="45.67483" lon="2.88769">
        <ele>1019</ele>
        <time>2022-08-17T11:56:18Z</time>
      </trkpt>
      <trkpt lat="45.67478" lon="2.88759">
        <ele>1019</ele>
        <time>2022-08-17T11:56:19Z</time>
      </trkpt>
      <trkpt lat="45.67474" lon="2.88754">
        <ele>1019</ele>
        <time>2022-08-17T11:56:21Z</time>
      </trkpt>
      <trkpt lat="45.67471" lon="2.88748">
        <ele>1019</ele>
        <time>2022-08-17T11:56:22Z</time>
      </trkpt>
      <trkpt lat="45.67468" lon="2.88743">
        <ele>1019</ele>
        <time>2022-08-17T11:56:23Z</time>
      </trkpt>
      <trkpt lat="45.67465" lon="2.88737">
        <ele>1019</ele>
        <time>2022-08-17T11:56:25Z</time>
      </trkpt>
      <trkpt lat="45.67462" lon="2.88732">
        <ele>1019</ele>
        <time>2022-08-17T11:56:27Z</time>
      </trkpt>
      <trkpt lat="45.67459" lon="2.88726">
        <ele>1020</ele>
        <time>2022-08-17T11:56:28Z</time>
      </trkpt>
      <trkpt lat="45.67451" lon="2.88713">
        <ele>1020</ele>
        <time>2022-08-17T11:56:30Z</time>
      </trkpt>
      <trkpt lat="45.67449" lon="2.88708">
        <ele>1020</ele>
        <time>2022-08-17T11:56:31Z</time>
      </trkpt>
      <trkpt lat="45.67446" lon="2.88704">
        <ele>1020</ele>
        <time>2022-08-17T11:56:32Z</time>
      </trkpt>
      <trkpt lat="45.67444" lon="2.887">
        <ele>1020</ele>
        <time>2022-08-17T11:56:33Z</time>
      </trkpt>
      <trkpt lat="45.67441" lon="2.88696">
        <ele>1020</ele>
        <time>2022-08-17T11:56:34Z</time>
      </trkpt>
      <trkpt lat="45.67439" lon="2.88692">
        <ele>1020</ele>
        <time>2022-08-17T11:56:35Z</time>
      </trkpt>
      <trkpt lat="45.67436" lon="2.88687">
        <ele>1020</ele>
        <time>2022-08-17T11:56:36Z</time>
      </trkpt>
      <trkpt lat="45.67434" lon="2.88683">
        <ele>1020</ele>
        <time>2022-08-17T11:56:37Z</time>
      </trkpt>
      <trkpt lat="45.67431" lon="2.88679">
        <ele>1022</ele>
        <time>2022-08-17T11:56:38Z</time>
      </trkpt>
      <trkpt lat="45.67426" lon="2.8867">
        <ele>1022</ele>
        <time>2022-08-17T11:56:39Z</time>
      </trkpt>
      <trkpt lat="45.67423" lon="2.88665">
        <ele>1022</ele>
        <time>2022-08-17T11:56:40Z</time>
      </trkpt>
      <trkpt lat="45.67421" lon="2.88661">
        <ele>1022</ele>
        <time>2022-08-17T11:56:41Z</time>
      </trkpt>
      <trkpt lat="45.67418" lon="2.88656">
        <ele>1022</ele>
        <time>2022-08-17T11:56:42Z</time>
      </trkpt>
      <trkpt lat="45.67416" lon="2.88652">
        <ele>1022</ele>
        <time>2022-08-17T11:56:43Z</time>
      </trkpt>
      <trkpt lat="45.67413" lon="2.88648">
        <ele>1022</ele>
        <time>2022-08-17T11:56:44Z</time>
      </trkpt>
      <trkpt lat="45.67411" lon="2.88643">
        <ele>1022</ele>
        <time>2022-08-17T11:56:45Z</time>
      </trkpt>
      <trkpt lat="45.67408" lon="2.88639">
        <ele>1022</ele>
        <time>2022-08-17T11:56:46Z</time>
      </trkpt>
      <trkpt lat="45.67405" lon="2.88634">
        <ele>1022</ele>
        <time>2022-08-17T11:56:47Z</time>
      </trkpt>
      <trkpt lat="45.67403" lon="2.8863">
        <ele>1024</ele>
        <time>2022-08-17T11:56:48Z</time>
      </trkpt>
      <trkpt lat="45.67398" lon="2.8862">
        <ele>1024</ele>
        <time>2022-08-17T11:56:49Z</time>
      </trkpt>
      <trkpt lat="45.67395" lon="2.88616">
        <ele>1024</ele>
        <time>2022-08-17T11:56:50Z</time>
      </trkpt>
      <trkpt lat="45.67392" lon="2.88611">
        <ele>1024</ele>
        <time>2022-08-17T11:56:51Z</time>
      </trkpt>
      <trkpt lat="45.6739" lon="2.88607">
        <ele>1024</ele>
        <time>2022-08-17T11:56:52Z</time>
      </trkpt>
      <trkpt lat="45.67387" lon="2.88602">
        <ele>1024</ele>
        <time>2022-08-17T11:56:53Z</time>
      </trkpt>
      <trkpt lat="45.67385" lon="2.88598">
        <ele>1024</ele>
        <time>2022-08-17T11:56:54Z</time>
      </trkpt>
      <trkpt lat="45.67382" lon="2.88593">
        <ele>1024</ele>
        <time>2022-08-17T11:56:55Z</time>
      </trkpt>
      <trkpt lat="45.6738" lon="2.88589">
        <ele>1024</ele>
        <time>2022-08-17T11:56:56Z</time>
      </trkpt>
      <trkpt lat="45.67377" lon="2.88584">
        <ele>1024</ele>
        <time>2022-08-17T11:56:57Z</time>
      </trkpt>
      <trkpt lat="45.67375" lon="2.88579">
        <ele>1024</ele>
        <time>2022-08-17T11:56:58Z</time>
      </trkpt>
      <trkpt lat="45.67369" lon="2.8857">
        <ele>1024</ele>
        <time>2022-08-17T11:56:59Z</time>
      </trkpt>
      <trkpt lat="45.67367" lon="2.88565">
        <ele>1024</ele>
        <time>2022-08-17T11:57:00Z</time>
      </trkpt>
      <trkpt lat="45.67364" lon="2.88561">
        <ele>1024</ele>
        <time>2022-08-17T11:57:01Z</time>
      </trkpt>
      <trkpt lat="45.67362" lon="2.88556">
        <ele>1024</ele>
        <time>2022-08-17T11:57:02Z</time>
      </trkpt>
      <trkpt lat="45.67359" lon="2.88552">
        <ele>1024</ele>
        <time>2022-08-17T11:57:03Z</time>
      </trkpt>
      <trkpt lat="45.67357" lon="2.88547">
        <ele>1024</ele>
        <time>2022-08-17T11:57:04Z</time>
      </trkpt>
      <trkpt lat="45.67354" lon="2.88542">
        <ele>1024</ele>
        <time>2022-08-17T11:57:05Z</time>
      </trkpt>
      <trkpt lat="45.67352" lon="2.88538">
        <ele>1024</ele>
        <time>2022-08-17T11:57:06Z</time>
      </trkpt>
      <trkpt lat="45.67349" lon="2.88533">
        <ele>1024</ele>
        <time>2022-08-17T11:57:07Z</time>
      </trkpt>
      <trkpt lat="45.67347" lon="2.88529">
        <ele>1026</ele>
        <time>2022-08-17T11:57:08Z</time>
      </trkpt>
      <trkpt lat="45.67341" lon="2.88519">
        <ele>1026</ele>
        <time>2022-08-17T11:57:09Z</time>
      </trkpt>
      <trkpt lat="45.67338" lon="2.88515">
        <ele>1026</ele>
        <time>2022-08-17T11:57:10Z</time>
      </trkpt>
      <trkpt lat="45.67335" lon="2.8851">
        <ele>1026</ele>
        <time>2022-08-17T11:57:12Z</time>
      </trkpt>
      <trkpt lat="45.67332" lon="2.88505">
        <ele>1026</ele>
        <time>2022-08-17T11:57:13Z</time>
      </trkpt>
      <trkpt lat="45.67329" lon="2.88501">
        <ele>1026</ele>
        <time>2022-08-17T11:57:14Z</time>
      </trkpt>
      <trkpt lat="45.67326" lon="2.88496">
        <ele>1026</ele>
        <time>2022-08-17T11:57:15Z</time>
      </trkpt>
      <trkpt lat="45.67323" lon="2.88492">
        <ele>1026</ele>
        <time>2022-08-17T11:57:16Z</time>
      </trkpt>
      <trkpt lat="45.6732" lon="2.88487">
        <ele>1026</ele>
        <time>2022-08-17T11:57:17Z</time>
      </trkpt>
      <trkpt lat="45.67317" lon="2.88483">
        <ele>1027</ele>
        <time>2022-08-17T11:57:18Z</time>
      </trkpt>
      <trkpt lat="45.6731" lon="2.88474">
        <ele>1027</ele>
        <time>2022-08-17T11:57:19Z</time>
      </trkpt>
      <trkpt lat="45.67306" lon="2.8847">
        <ele>1027</ele>
        <time>2022-08-17T11:57:20Z</time>
      </trkpt>
      <trkpt lat="45.67302" lon="2.88466">
        <ele>1027</ele>
        <time>2022-08-17T11:57:21Z</time>
      </trkpt>
      <trkpt lat="45.67299" lon="2.88462">
        <ele>1027</ele>
        <time>2022-08-17T11:57:22Z</time>
      </trkpt>
      <trkpt lat="45.67295" lon="2.88458">
        <ele>1027</ele>
        <time>2022-08-17T11:57:23Z</time>
      </trkpt>
      <trkpt lat="45.67292" lon="2.88454">
        <ele>1027</ele>
        <time>2022-08-17T11:57:24Z</time>
      </trkpt>
      <trkpt lat="45.67288" lon="2.8845">
        <ele>1027</ele>
        <time>2022-08-17T11:57:25Z</time>
      </trkpt>
      <trkpt lat="45.67284" lon="2.88447">
        <ele>1027</ele>
        <time>2022-08-17T11:57:26Z</time>
      </trkpt>
      <trkpt lat="45.67281" lon="2.88443">
        <ele>1027</ele>
        <time>2022-08-17T11:57:27Z</time>
      </trkpt>
      <trkpt lat="45.67277" lon="2.88439">
        <ele>1028</ele>
        <time>2022-08-17T11:57:28Z</time>
      </trkpt>
      <trkpt lat="45.6727" lon="2.88431">
        <ele>1028</ele>
        <time>2022-08-17T11:57:29Z</time>
      </trkpt>
      <trkpt lat="45.67266" lon="2.88427">
        <ele>1028</ele>
        <time>2022-08-17T11:57:30Z</time>
      </trkpt>
      <trkpt lat="45.67262" lon="2.88423">
        <ele>1028</ele>
        <time>2022-08-17T11:57:31Z</time>
      </trkpt>
      <trkpt lat="45.67259" lon="2.88419">
        <ele>1028</ele>
        <time>2022-08-17T11:57:32Z</time>
      </trkpt>
      <trkpt lat="45.67255" lon="2.88416">
        <ele>1028</ele>
        <time>2022-08-17T11:57:33Z</time>
      </trkpt>
      <trkpt lat="45.67251" lon="2.88412">
        <ele>1028</ele>
        <time>2022-08-17T11:57:34Z</time>
      </trkpt>
      <trkpt lat="45.67248" lon="2.88408">
        <ele>1028</ele>
        <time>2022-08-17T11:57:35Z</time>
      </trkpt>
      <trkpt lat="45.67244" lon="2.88405">
        <ele>1028</ele>
        <time>2022-08-17T11:57:36Z</time>
      </trkpt>
      <trkpt lat="45.6724" lon="2.88401">
        <ele>1028</ele>
        <time>2022-08-17T11:57:37Z</time>
      </trkpt>
      <trkpt lat="45.67236" lon="2.88397">
        <ele>1029</ele>
        <time>2022-08-17T11:57:38Z</time>
      </trkpt>
      <trkpt lat="45.67227" lon="2.88392">
        <ele>1029</ele>
        <time>2022-08-17T11:57:39Z</time>
      </trkpt>
      <trkpt lat="45.67223" lon="2.8839">
        <ele>1029</ele>
        <time>2022-08-17T11:57:40Z</time>
      </trkpt>
      <trkpt lat="45.67218" lon="2.88388">
        <ele>1029</ele>
        <time>2022-08-17T11:57:41Z</time>
      </trkpt>
      <trkpt lat="45.67214" lon="2.88386">
        <ele>1029</ele>
        <time>2022-08-17T11:57:42Z</time>
      </trkpt>
      <trkpt lat="45.67209" lon="2.88384">
        <ele>1029</ele>
        <time>2022-08-17T11:57:43Z</time>
      </trkpt>
      <trkpt lat="45.67205" lon="2.88382">
        <ele>1029</ele>
        <time>2022-08-17T11:57:44Z</time>
      </trkpt>
      <trkpt lat="45.672" lon="2.88381">
        <ele>1029</ele>
        <time>2022-08-17T11:57:45Z</time>
      </trkpt>
      <trkpt lat="45.67196" lon="2.88379">
        <ele>1029</ele>
        <time>2022-08-17T11:57:46Z</time>
      </trkpt>
      <trkpt lat="45.67191" lon="2.88377">
        <ele>1029</ele>
        <time>2022-08-17T11:57:47Z</time>
      </trkpt>
      <trkpt lat="45.67187" lon="2.88375">
        <ele>1030</ele>
        <time>2022-08-17T11:57:48Z</time>
      </trkpt>
      <trkpt lat="45.67177" lon="2.88373">
        <ele>1030</ele>
        <time>2022-08-17T11:57:49Z</time>
      </trkpt>
      <trkpt lat="45.67172" lon="2.88372">
        <ele>1030</ele>
        <time>2022-08-17T11:57:50Z</time>
      </trkpt>
      <trkpt lat="45.67168" lon="2.88372">
        <ele>1030</ele>
        <time>2022-08-17T11:57:51Z</time>
      </trkpt>
      <trkpt lat="45.67163" lon="2.88371">
        <ele>1030</ele>
        <time>2022-08-17T11:57:52Z</time>
      </trkpt>
      <trkpt lat="45.67158" lon="2.8837">
        <ele>1030</ele>
        <time>2022-08-17T11:57:53Z</time>
      </trkpt>
      <trkpt lat="45.67154" lon="2.8837">
        <ele>1030</ele>
        <time>2022-08-17T11:57:54Z</time>
      </trkpt>
      <trkpt lat="45.67149" lon="2.88369">
        <ele>1030</ele>
        <time>2022-08-17T11:57:55Z</time>
      </trkpt>
      <trkpt lat="45.67144" lon="2.88368">
        <ele>1030</ele>
        <time>2022-08-17T11:57:56Z</time>
      </trkpt>
      <trkpt lat="45.67139" lon="2.88367">
        <ele>1030</ele>
        <time>2022-08-17T11:57:57Z</time>
      </trkpt>
      <trkpt lat="45.67135" lon="2.88367">
        <ele>1030</ele>
        <time>2022-08-17T11:57:58Z</time>
      </trkpt>
      <trkpt lat="45.67125" lon="2.88364">
        <ele>1030</ele>
        <time>2022-08-17T11:57:59Z</time>
      </trkpt>
      <trkpt lat="45.6712" lon="2.88362">
        <ele>1030</ele>
        <time>2022-08-17T11:58:00Z</time>
      </trkpt>
      <trkpt lat="45.67115" lon="2.8836">
        <ele>1030</ele>
        <time>2022-08-17T11:58:01Z</time>
      </trkpt>
      <trkpt lat="45.67111" lon="2.88359">
        <ele>1030</ele>
        <time>2022-08-17T11:58:02Z</time>
      </trkpt>
      <trkpt lat="45.67106" lon="2.88357">
        <ele>1030</ele>
        <time>2022-08-17T11:58:03Z</time>
      </trkpt>
      <trkpt lat="45.67101" lon="2.88355">
        <ele>1030</ele>
        <time>2022-08-17T11:58:04Z</time>
      </trkpt>
      <trkpt lat="45.67097" lon="2.88353">
        <ele>1030</ele>
        <time>2022-08-17T11:58:05Z</time>
      </trkpt>
      <trkpt lat="45.67092" lon="2.88351">
        <ele>1030</ele>
        <time>2022-08-17T11:58:06Z</time>
      </trkpt>
      <trkpt lat="45.67087" lon="2.88349">
        <ele>1030</ele>
        <time>2022-08-17T11:58:07Z</time>
      </trkpt>
      <trkpt lat="45.67082" lon="2.88348">
        <ele>1029</ele>
        <time>2022-08-17T11:58:08Z</time>
      </trkpt>
      <trkpt lat="45.67072" lon="2.8834">
        <ele>1029</ele>
        <time>2022-08-17T11:58:09Z</time>
      </trkpt>
      <trkpt lat="45.67068" lon="2.88336">
        <ele>1029</ele>
        <time>2022-08-17T11:58:10Z</time>
      </trkpt>
      <trkpt lat="45.67063" lon="2.88332">
        <ele>1029</ele>
        <time>2022-08-17T11:58:11Z</time>
      </trkpt>
      <trkpt lat="45.67058" lon="2.88328">
        <ele>1029</ele>
        <time>2022-08-17T11:58:12Z</time>
      </trkpt>
      <trkpt lat="45.67053" lon="2.88324">
        <ele>1029</ele>
        <time>2022-08-17T11:58:13Z</time>
      </trkpt>
      <trkpt lat="45.67048" lon="2.8832">
        <ele>1029</ele>
        <time>2022-08-17T11:58:14Z</time>
      </trkpt>
      <trkpt lat="45.67043" lon="2.88316">
        <ele>1029</ele>
        <time>2022-08-17T11:58:15Z</time>
      </trkpt>
      <trkpt lat="45.67038" lon="2.88311">
        <ele>1029</ele>
        <time>2022-08-17T11:58:16Z</time>
      </trkpt>
      <trkpt lat="45.67034" lon="2.88307">
        <ele>1029</ele>
        <time>2022-08-17T11:58:17Z</time>
      </trkpt>
      <trkpt lat="45.67029" lon="2.88303">
        <ele>1029</ele>
        <time>2022-08-17T11:58:18Z</time>
      </trkpt>
      <trkpt lat="45.67018" lon="2.88293">
        <ele>1029</ele>
        <time>2022-08-17T11:58:19Z</time>
      </trkpt>
      <trkpt lat="45.67014" lon="2.88289">
        <ele>1029</ele>
        <time>2022-08-17T11:58:20Z</time>
      </trkpt>
      <trkpt lat="45.67009" lon="2.88285">
        <ele>1029</ele>
        <time>2022-08-17T11:58:21Z</time>
      </trkpt>
      <trkpt lat="45.67004" lon="2.8828">
        <ele>1029</ele>
        <time>2022-08-17T11:58:22Z</time>
      </trkpt>
      <trkpt lat="45.66999" lon="2.88276">
        <ele>1029</ele>
        <time>2022-08-17T11:58:23Z</time>
      </trkpt>
      <trkpt lat="45.66994" lon="2.88271">
        <ele>1029</ele>
        <time>2022-08-17T11:58:24Z</time>
      </trkpt>
      <trkpt lat="45.66989" lon="2.88267">
        <ele>1029</ele>
        <time>2022-08-17T11:58:25Z</time>
      </trkpt>
      <trkpt lat="45.66985" lon="2.88263">
        <ele>1029</ele>
        <time>2022-08-17T11:58:26Z</time>
      </trkpt>
      <trkpt lat="45.6698" lon="2.88258">
        <ele>1029</ele>
        <time>2022-08-17T11:58:27Z</time>
      </trkpt>
      <trkpt lat="45.66975" lon="2.88254">
        <ele>1029</ele>
        <time>2022-08-17T11:58:28Z</time>
      </trkpt>
      <trkpt lat="45.66965" lon="2.88244">
        <ele>1029</ele>
        <time>2022-08-17T11:58:29Z</time>
      </trkpt>
      <trkpt lat="45.6696" lon="2.8824">
        <ele>1029</ele>
        <time>2022-08-17T11:58:30Z</time>
      </trkpt>
      <trkpt lat="45.66955" lon="2.88235">
        <ele>1029</ele>
        <time>2022-08-17T11:58:31Z</time>
      </trkpt>
      <trkpt lat="45.66951" lon="2.8823">
        <ele>1029</ele>
        <time>2022-08-17T11:58:32Z</time>
      </trkpt>
      <trkpt lat="45.66946" lon="2.88226">
        <ele>1029</ele>
        <time>2022-08-17T11:58:33Z</time>
      </trkpt>
      <trkpt lat="45.66941" lon="2.88221">
        <ele>1029</ele>
        <time>2022-08-17T11:58:34Z</time>
      </trkpt>
      <trkpt lat="45.66936" lon="2.88216">
        <ele>1029</ele>
        <time>2022-08-17T11:58:35Z</time>
      </trkpt>
      <trkpt lat="45.66932" lon="2.88212">
        <ele>1029</ele>
        <time>2022-08-17T11:58:36Z</time>
      </trkpt>
      <trkpt lat="45.66927" lon="2.88207">
        <ele>1029</ele>
        <time>2022-08-17T11:58:37Z</time>
      </trkpt>
      <trkpt lat="45.66922" lon="2.88203">
        <ele>1028</ele>
        <time>2022-08-17T11:58:38Z</time>
      </trkpt>
      <trkpt lat="45.66917" lon="2.8819">
        <ele>1028</ele>
        <time>2022-08-17T11:58:39Z</time>
      </trkpt>
      <trkpt lat="45.66916" lon="2.88183">
        <ele>1028</ele>
        <time>2022-08-17T11:58:40Z</time>
      </trkpt>
      <trkpt lat="45.66915" lon="2.88175">
        <ele>1028</ele>
        <time>2022-08-17T11:58:41Z</time>
      </trkpt>
      <trkpt lat="45.66914" lon="2.88168">
        <ele>1028</ele>
        <time>2022-08-17T11:58:42Z</time>
      </trkpt>
      <trkpt lat="45.66913" lon="2.88161">
        <ele>1028</ele>
        <time>2022-08-17T11:58:43Z</time>
      </trkpt>
      <trkpt lat="45.66912" lon="2.88154">
        <ele>1028</ele>
        <time>2022-08-17T11:58:44Z</time>
      </trkpt>
      <trkpt lat="45.66911" lon="2.88147">
        <ele>1028</ele>
        <time>2022-08-17T11:58:45Z</time>
      </trkpt>
      <trkpt lat="45.6691" lon="2.8814">
        <ele>1028</ele>
        <time>2022-08-17T11:58:46Z</time>
      </trkpt>
      <trkpt lat="45.66909" lon="2.88132">
        <ele>1028</ele>
        <time>2022-08-17T11:58:47Z</time>
      </trkpt>
      <trkpt lat="45.66908" lon="2.88125">
        <ele>1027</ele>
        <time>2022-08-17T11:58:48Z</time>
      </trkpt>
      <trkpt lat="45.66906" lon="2.8811">
        <ele>1027</ele>
        <time>2022-08-17T11:58:49Z</time>
      </trkpt>
      <trkpt lat="45.66904" lon="2.88102">
        <ele>1027</ele>
        <time>2022-08-17T11:58:50Z</time>
      </trkpt>
      <trkpt lat="45.66903" lon="2.88095">
        <ele>1027</ele>
        <time>2022-08-17T11:58:51Z</time>
      </trkpt>
      <trkpt lat="45.66902" lon="2.88087">
        <ele>1027</ele>
        <time>2022-08-17T11:58:52Z</time>
      </trkpt>
      <trkpt lat="45.669" lon="2.8808">
        <ele>1027</ele>
        <time>2022-08-17T11:58:53Z</time>
      </trkpt>
      <trkpt lat="45.66899" lon="2.88072">
        <ele>1027</ele>
        <time>2022-08-17T11:58:54Z</time>
      </trkpt>
      <trkpt lat="45.66898" lon="2.88065">
        <ele>1027</ele>
        <time>2022-08-17T11:58:55Z</time>
      </trkpt>
      <trkpt lat="45.66896" lon="2.88057">
        <ele>1027</ele>
        <time>2022-08-17T11:58:56Z</time>
      </trkpt>
      <trkpt lat="45.66895" lon="2.8805">
        <ele>1027</ele>
        <time>2022-08-17T11:58:57Z</time>
      </trkpt>
      <trkpt lat="45.66894" lon="2.88042">
        <ele>1026</ele>
        <time>2022-08-17T11:58:58Z</time>
      </trkpt>
      <trkpt lat="45.66893" lon="2.88025">
        <ele>1026</ele>
        <time>2022-08-17T11:58:59Z</time>
      </trkpt>
      <trkpt lat="45.66894" lon="2.88016">
        <ele>1026</ele>
        <time>2022-08-17T11:59:00Z</time>
      </trkpt>
      <trkpt lat="45.66895" lon="2.88008">
        <ele>1026</ele>
        <time>2022-08-17T11:59:01Z</time>
      </trkpt>
      <trkpt lat="45.66896" lon="2.88">
        <ele>1026</ele>
        <time>2022-08-17T11:59:02Z</time>
      </trkpt>
      <trkpt lat="45.66898" lon="2.87991">
        <ele>1026</ele>
        <time>2022-08-17T11:59:03Z</time>
      </trkpt>
      <trkpt lat="45.66899" lon="2.87983">
        <ele>1026</ele>
        <time>2022-08-17T11:59:04Z</time>
      </trkpt>
      <trkpt lat="45.669" lon="2.87975">
        <ele>1026</ele>
        <time>2022-08-17T11:59:05Z</time>
      </trkpt>
      <trkpt lat="45.66901" lon="2.87966">
        <ele>1026</ele>
        <time>2022-08-17T11:59:06Z</time>
      </trkpt>
      <trkpt lat="45.66902" lon="2.87958">
        <ele>1026</ele>
        <time>2022-08-17T11:59:07Z</time>
      </trkpt>
      <trkpt lat="45.66903" lon="2.8795">
        <ele>1025</ele>
        <time>2022-08-17T11:59:08Z</time>
      </trkpt>
      <trkpt lat="45.66907" lon="2.87931">
        <ele>1025</ele>
        <time>2022-08-17T11:59:09Z</time>
      </trkpt>
      <trkpt lat="45.66908" lon="2.87921">
        <ele>1025</ele>
        <time>2022-08-17T11:59:10Z</time>
      </trkpt>
      <trkpt lat="45.6691" lon="2.87911">
        <ele>1025</ele>
        <time>2022-08-17T11:59:11Z</time>
      </trkpt>
      <trkpt lat="45.66911" lon="2.87901">
        <ele>1025</ele>
        <time>2022-08-17T11:59:12Z</time>
      </trkpt>
      <trkpt lat="45.66913" lon="2.87891">
        <ele>1025</ele>
        <time>2022-08-17T11:59:14Z</time>
      </trkpt>
      <trkpt lat="45.66914" lon="2.87881">
        <ele>1025</ele>
        <time>2022-08-17T11:59:16Z</time>
      </trkpt>
      <trkpt lat="45.66915" lon="2.87871">
        <ele>1024</ele>
        <time>2022-08-17T11:59:18Z</time>
      </trkpt>
      <trkpt lat="45.66916" lon="2.8785">
        <ele>1024</ele>
        <time>2022-08-17T11:59:20Z</time>
      </trkpt>
      <trkpt lat="45.66918" lon="2.8784">
        <ele>1024</ele>
        <time>2022-08-17T11:59:22Z</time>
      </trkpt>
      <trkpt lat="45.66919" lon="2.87831">
        <ele>1024</ele>
        <time>2022-08-17T11:59:24Z</time>
      </trkpt>
      <trkpt lat="45.66921" lon="2.87822">
        <ele>1024</ele>
        <time>2022-08-17T11:59:26Z</time>
      </trkpt>
      <trkpt lat="45.66923" lon="2.87813">
        <ele>1025</ele>
        <time>2022-08-17T11:59:28Z</time>
      </trkpt>
      <trkpt lat="45.66919" lon="2.87794">
        <ele>1025</ele>
        <time>2022-08-17T11:59:30Z</time>
      </trkpt>
      <trkpt lat="45.66914" lon="2.87787">
        <ele>1025</ele>
        <time>2022-08-17T11:59:32Z</time>
      </trkpt>
      <trkpt lat="45.66909" lon="2.8778">
        <ele>1025</ele>
        <time>2022-08-17T11:59:34Z</time>
      </trkpt>
      <trkpt lat="45.66904" lon="2.87773">
        <ele>1025</ele>
        <time>2022-08-17T11:59:36Z</time>
      </trkpt>
      <trkpt lat="45.66899" lon="2.87766">
        <ele>1027</ele>
        <time>2022-08-17T11:59:38Z</time>
      </trkpt>
      <trkpt lat="45.6689" lon="2.87747">
        <ele>1027</ele>
        <time>2022-08-17T11:59:40Z</time>
      </trkpt>
      <trkpt lat="45.66888" lon="2.87737">
        <ele>1027</ele>
        <time>2022-08-17T11:59:42Z</time>
      </trkpt>
      <trkpt lat="45.66885" lon="2.87727">
        <ele>1027</ele>
        <time>2022-08-17T11:59:44Z</time>
      </trkpt>
      <trkpt lat="45.66883" lon="2.87718">
        <ele>1027</ele>
        <time>2022-08-17T11:59:46Z</time>
      </trkpt>
      <trkpt lat="45.6688" lon="2.87708">
        <ele>1028</ele>
        <time>2022-08-17T11:59:48Z</time>
      </trkpt>
      <trkpt lat="45.66877" lon="2.87686">
        <ele>1028</ele>
        <time>2022-08-17T11:59:50Z</time>
      </trkpt>
      <trkpt lat="45.66877" lon="2.87677">
        <ele>1028</ele>
        <time>2022-08-17T11:59:52Z</time>
      </trkpt>
      <trkpt lat="45.66876" lon="2.87667">
        <ele>1028</ele>
        <time>2022-08-17T11:59:54Z</time>
      </trkpt>
      <trkpt lat="45.66875" lon="2.87658">
        <ele>1028</ele>
        <time>2022-08-17T11:59:56Z</time>
      </trkpt>
      <trkpt lat="45.66875" lon="2.87649">
        <ele>1030</ele>
        <time>2022-08-17T11:59:58Z</time>
      </trkpt>
      <trkpt lat="45.66875" lon="2.87627">
        <ele>1030</ele>
        <time>2022-08-17T12:00:00Z</time>
      </trkpt>
      <trkpt lat="45.66876" lon="2.87619">
        <ele>1030</ele>
        <time>2022-08-17T12:00:02Z</time>
      </trkpt>
      <trkpt lat="45.66876" lon="2.8761">
        <ele>1030</ele>
        <time>2022-08-17T12:00:03Z</time>
      </trkpt>
      <trkpt lat="45.66877" lon="2.87601">
        <ele>1030</ele>
        <time>2022-08-17T12:00:04Z</time>
      </trkpt>
      <trkpt lat="45.66877" lon="2.87592">
        <ele>1030</ele>
        <time>2022-08-17T12:00:06Z</time>
      </trkpt>
      <trkpt lat="45.66878" lon="2.87583">
        <ele>1032</ele>
        <time>2022-08-17T12:00:08Z</time>
      </trkpt>
      <trkpt lat="45.66877" lon="2.87561">
        <ele>1032</ele>
        <time>2022-08-17T12:00:10Z</time>
      </trkpt>
      <trkpt lat="45.66876" lon="2.87553">
        <ele>1032</ele>
        <time>2022-08-17T12:00:11Z</time>
      </trkpt>
      <trkpt lat="45.66875" lon="2.87544">
        <ele>1032</ele>
        <time>2022-08-17T12:00:13Z</time>
      </trkpt>
      <trkpt lat="45.66874" lon="2.87536">
        <ele>1032</ele>
        <time>2022-08-17T12:00:15Z</time>
      </trkpt>
      <trkpt lat="45.66873" lon="2.87527">
        <ele>1032</ele>
        <time>2022-08-17T12:00:17Z</time>
      </trkpt>
      <trkpt lat="45.66872" lon="2.87518">
        <ele>1033</ele>
        <time>2022-08-17T12:00:18Z</time>
      </trkpt>
      <trkpt lat="45.6687" lon="2.87506">
        <ele>1033</ele>
        <time>2022-08-17T12:00:19Z</time>
      </trkpt>
      <trkpt lat="45.66869" lon="2.87499">
        <ele>1033</ele>
        <time>2022-08-17T12:00:20Z</time>
      </trkpt>
      <trkpt lat="45.66867" lon="2.87493">
        <ele>1033</ele>
        <time>2022-08-17T12:00:21Z</time>
      </trkpt>
      <trkpt lat="45.66866" lon="2.87487">
        <ele>1033</ele>
        <time>2022-08-17T12:00:22Z</time>
      </trkpt>
      <trkpt lat="45.66865" lon="2.87481">
        <ele>1033</ele>
        <time>2022-08-17T12:00:23Z</time>
      </trkpt>
      <trkpt lat="45.66864" lon="2.87474">
        <ele>1033</ele>
        <time>2022-08-17T12:00:24Z</time>
      </trkpt>
      <trkpt lat="45.66862" lon="2.87468">
        <ele>1033</ele>
        <time>2022-08-17T12:00:25Z</time>
      </trkpt>
      <trkpt lat="45.66861" lon="2.87462">
        <ele>1033</ele>
        <time>2022-08-17T12:00:26Z</time>
      </trkpt>
      <trkpt lat="45.6686" lon="2.87455">
        <ele>1033</ele>
        <time>2022-08-17T12:00:27Z</time>
      </trkpt>
      <trkpt lat="45.66859" lon="2.87449">
        <ele>1033</ele>
        <time>2022-08-17T12:00:28Z</time>
      </trkpt>
      <trkpt lat="45.66855" lon="2.87435">
        <ele>1033</ele>
        <time>2022-08-17T12:00:29Z</time>
      </trkpt>
      <trkpt lat="45.66853" lon="2.87428">
        <ele>1033</ele>
        <time>2022-08-17T12:00:30Z</time>
      </trkpt>
      <trkpt lat="45.66851" lon="2.87421">
        <ele>1033</ele>
        <time>2022-08-17T12:00:31Z</time>
      </trkpt>
      <trkpt lat="45.66849" lon="2.87414">
        <ele>1033</ele>
        <time>2022-08-17T12:00:32Z</time>
      </trkpt>
      <trkpt lat="45.66847" lon="2.87407">
        <ele>1033</ele>
        <time>2022-08-17T12:00:33Z</time>
      </trkpt>
      <trkpt lat="45.66845" lon="2.874">
        <ele>1033</ele>
        <time>2022-08-17T12:00:34Z</time>
      </trkpt>
      <trkpt lat="45.66843" lon="2.87393">
        <ele>1033</ele>
        <time>2022-08-17T12:00:35Z</time>
      </trkpt>
      <trkpt lat="45.66841" lon="2.87386">
        <ele>1033</ele>
        <time>2022-08-17T12:00:36Z</time>
      </trkpt>
      <trkpt lat="45.66839" lon="2.87379">
        <ele>1033</ele>
        <time>2022-08-17T12:00:37Z</time>
      </trkpt>
      <trkpt lat="45.66837" lon="2.87372">
        <ele>1033</ele>
        <time>2022-08-17T12:00:38Z</time>
      </trkpt>
      <trkpt lat="45.66828" lon="2.87363">
        <ele>1033</ele>
        <time>2022-08-17T12:00:39Z</time>
      </trkpt>
      <trkpt lat="45.66823" lon="2.87362">
        <ele>1033</ele>
        <time>2022-08-17T12:00:40Z</time>
      </trkpt>
      <trkpt lat="45.66817" lon="2.87361">
        <ele>1033</ele>
        <time>2022-08-17T12:00:41Z</time>
      </trkpt>
      <trkpt lat="45.66811" lon="2.8736">
        <ele>1033</ele>
        <time>2022-08-17T12:00:42Z</time>
      </trkpt>
      <trkpt lat="45.66805" lon="2.87358">
        <ele>1033</ele>
        <time>2022-08-17T12:00:43Z</time>
      </trkpt>
      <trkpt lat="45.66799" lon="2.87357">
        <ele>1033</ele>
        <time>2022-08-17T12:00:44Z</time>
      </trkpt>
      <trkpt lat="45.66794" lon="2.87356">
        <ele>1033</ele>
        <time>2022-08-17T12:00:45Z</time>
      </trkpt>
      <trkpt lat="45.66788" lon="2.87355">
        <ele>1033</ele>
        <time>2022-08-17T12:00:46Z</time>
      </trkpt>
      <trkpt lat="45.66782" lon="2.87354">
        <ele>1033</ele>
        <time>2022-08-17T12:00:47Z</time>
      </trkpt>
      <trkpt lat="45.66776" lon="2.87353">
        <ele>1029</ele>
        <time>2022-08-17T12:00:48Z</time>
      </trkpt>
      <trkpt lat="45.66761" lon="2.87362">
        <ele>1029</ele>
        <time>2022-08-17T12:00:49Z</time>
      </trkpt>
      <trkpt lat="45.66754" lon="2.87366">
        <ele>1029</ele>
        <time>2022-08-17T12:00:50Z</time>
      </trkpt>
      <trkpt lat="45.66747" lon="2.8737">
        <ele>1029</ele>
        <time>2022-08-17T12:00:51Z</time>
      </trkpt>
      <trkpt lat="45.66739" lon="2.87375">
        <ele>1029</ele>
        <time>2022-08-17T12:00:52Z</time>
      </trkpt>
      <trkpt lat="45.66732" lon="2.87379">
        <ele>1029</ele>
        <time>2022-08-17T12:00:53Z</time>
      </trkpt>
      <trkpt lat="45.66725" lon="2.87383">
        <ele>1029</ele>
        <time>2022-08-17T12:00:54Z</time>
      </trkpt>
      <trkpt lat="45.66717" lon="2.87388">
        <ele>1029</ele>
        <time>2022-08-17T12:00:55Z</time>
      </trkpt>
      <trkpt lat="45.6671" lon="2.87392">
        <ele>1029</ele>
        <time>2022-08-17T12:00:56Z</time>
      </trkpt>
      <trkpt lat="45.66703" lon="2.87396">
        <ele>1029</ele>
        <time>2022-08-17T12:00:57Z</time>
      </trkpt>
      <trkpt lat="45.66695" lon="2.87401">
        <ele>1024</ele>
        <time>2022-08-17T12:00:58Z</time>
      </trkpt>
      <trkpt lat="45.66686" lon="2.87403">
        <ele>1024</ele>
        <time>2022-08-17T12:00:59Z</time>
      </trkpt>
      <trkpt lat="45.66676" lon="2.87403">
        <ele>1024</ele>
        <time>2022-08-17T12:01:00Z</time>
      </trkpt>
      <trkpt lat="45.66667" lon="2.87401">
        <ele>1024</ele>
        <time>2022-08-17T12:01:01Z</time>
      </trkpt>
      <trkpt lat="45.66657" lon="2.87399">
        <ele>1024</ele>
        <time>2022-08-17T12:01:02Z</time>
      </trkpt>
      <trkpt lat="45.66647" lon="2.87395">
        <ele>1024</ele>
        <time>2022-08-17T12:01:03Z</time>
      </trkpt>
      <trkpt lat="45.66638" lon="2.87392">
        <ele>1024</ele>
        <time>2022-08-17T12:01:04Z</time>
      </trkpt>
      <trkpt lat="45.66628" lon="2.87389">
        <ele>1024</ele>
        <time>2022-08-17T12:01:05Z</time>
      </trkpt>
      <trkpt lat="45.66618" lon="2.87386">
        <ele>1024</ele>
        <time>2022-08-17T12:01:06Z</time>
      </trkpt>
      <trkpt lat="45.66609" lon="2.87382">
        <ele>1024</ele>
        <time>2022-08-17T12:01:07Z</time>
      </trkpt>
      <trkpt lat="45.666" lon="2.87374">
        <ele>1019</ele>
        <time>2022-08-17T12:01:08Z</time>
      </trkpt>
      <trkpt lat="45.66591" lon="2.87356">
        <ele>1019</ele>
        <time>2022-08-17T12:01:09Z</time>
      </trkpt>
      <trkpt lat="45.66591" lon="2.87346">
        <ele>1019</ele>
        <time>2022-08-17T12:01:10Z</time>
      </trkpt>
      <trkpt lat="45.6659" lon="2.87335">
        <ele>1019</ele>
        <time>2022-08-17T12:01:11Z</time>
      </trkpt>
      <trkpt lat="45.6659" lon="2.87324">
        <ele>1019</ele>
        <time>2022-08-17T12:01:12Z</time>
      </trkpt>
      <trkpt lat="45.6659" lon="2.87313">
        <ele>1019</ele>
        <time>2022-08-17T12:01:13Z</time>
      </trkpt>
      <trkpt lat="45.66589" lon="2.87303">
        <ele>1019</ele>
        <time>2022-08-17T12:01:14Z</time>
      </trkpt>
      <trkpt lat="45.66589" lon="2.87292">
        <ele>1019</ele>
        <time>2022-08-17T12:01:15Z</time>
      </trkpt>
      <trkpt lat="45.66588" lon="2.87281">
        <ele>1019</ele>
        <time>2022-08-17T12:01:16Z</time>
      </trkpt>
      <trkpt lat="45.66588" lon="2.8727">
        <ele>1019</ele>
        <time>2022-08-17T12:01:17Z</time>
      </trkpt>
      <trkpt lat="45.66587" lon="2.8726">
        <ele>1019</ele>
        <time>2022-08-17T12:01:18Z</time>
      </trkpt>
      <trkpt lat="45.66599" lon="2.87246">
        <ele>1019</ele>
        <time>2022-08-17T12:01:19Z</time>
      </trkpt>
      <trkpt lat="45.66604" lon="2.87239">
        <ele>1019</ele>
        <time>2022-08-17T12:01:20Z</time>
      </trkpt>
      <trkpt lat="45.6661" lon="2.87233">
        <ele>1019</ele>
        <time>2022-08-17T12:01:21Z</time>
      </trkpt>
      <trkpt lat="45.66615" lon="2.87226">
        <ele>1019</ele>
        <time>2022-08-17T12:01:23Z</time>
      </trkpt>
      <trkpt lat="45.6662" lon="2.87219">
        <ele>1019</ele>
        <time>2022-08-17T12:01:24Z</time>
      </trkpt>
      <trkpt lat="45.66626" lon="2.87213">
        <ele>1019</ele>
        <time>2022-08-17T12:01:25Z</time>
      </trkpt>
      <trkpt lat="45.66631" lon="2.87206">
        <ele>1019</ele>
        <time>2022-08-17T12:01:26Z</time>
      </trkpt>
      <trkpt lat="45.66636" lon="2.87199">
        <ele>1019</ele>
        <time>2022-08-17T12:01:27Z</time>
      </trkpt>
      <trkpt lat="45.66642" lon="2.87193">
        <ele>1012</ele>
        <time>2022-08-17T12:01:28Z</time>
      </trkpt>
      <trkpt lat="45.66637" lon="2.87175">
        <ele>1012</ele>
        <time>2022-08-17T12:01:29Z</time>
      </trkpt>
      <trkpt lat="45.66633" lon="2.87168">
        <ele>1012</ele>
        <time>2022-08-17T12:01:30Z</time>
      </trkpt>
      <trkpt lat="45.66628" lon="2.87161">
        <ele>1012</ele>
        <time>2022-08-17T12:01:31Z</time>
      </trkpt>
      <trkpt lat="45.66624" lon="2.87154">
        <ele>1012</ele>
        <time>2022-08-17T12:01:32Z</time>
      </trkpt>
      <trkpt lat="45.66619" lon="2.87146">
        <ele>1012</ele>
        <time>2022-08-17T12:01:33Z</time>
      </trkpt>
      <trkpt lat="45.66615" lon="2.87139">
        <ele>1012</ele>
        <time>2022-08-17T12:01:34Z</time>
      </trkpt>
      <trkpt lat="45.6661" lon="2.87132">
        <ele>1012</ele>
        <time>2022-08-17T12:01:35Z</time>
      </trkpt>
      <trkpt lat="45.66606" lon="2.87125">
        <ele>1012</ele>
        <time>2022-08-17T12:01:36Z</time>
      </trkpt>
      <trkpt lat="45.66602" lon="2.87117">
        <ele>1012</ele>
        <time>2022-08-17T12:01:37Z</time>
      </trkpt>
      <trkpt lat="45.66597" lon="2.8711">
        <ele>1009</ele>
        <time>2022-08-17T12:01:38Z</time>
      </trkpt>
      <trkpt lat="45.66595" lon="2.8709">
        <ele>1009</ele>
        <time>2022-08-17T12:01:39Z</time>
      </trkpt>
      <trkpt lat="45.66596" lon="2.87081">
        <ele>1009</ele>
        <time>2022-08-17T12:01:40Z</time>
      </trkpt>
      <trkpt lat="45.66597" lon="2.87071">
        <ele>1009</ele>
        <time>2022-08-17T12:01:41Z</time>
      </trkpt>
      <trkpt lat="45.66598" lon="2.87062">
        <ele>1009</ele>
        <time>2022-08-17T12:01:42Z</time>
      </trkpt>
      <trkpt lat="45.66599" lon="2.87052">
        <ele>1009</ele>
        <time>2022-08-17T12:01:43Z</time>
      </trkpt>
      <trkpt lat="45.66599" lon="2.87043">
        <ele>1009</ele>
        <time>2022-08-17T12:01:44Z</time>
      </trkpt>
      <trkpt lat="45.666" lon="2.87033">
        <ele>1009</ele>
        <time>2022-08-17T12:01:45Z</time>
      </trkpt>
      <trkpt lat="45.66601" lon="2.87024">
        <ele>1009</ele>
        <time>2022-08-17T12:01:46Z</time>
      </trkpt>
      <trkpt lat="45.66602" lon="2.87014">
        <ele>1009</ele>
        <time>2022-08-17T12:01:47Z</time>
      </trkpt>
      <trkpt lat="45.66603" lon="2.87005">
        <ele>1007</ele>
        <time>2022-08-17T12:01:48Z</time>
      </trkpt>
      <trkpt lat="45.66617" lon="2.86991">
        <ele>1007</ele>
        <time>2022-08-17T12:01:49Z</time>
      </trkpt>
      <trkpt lat="45.66626" lon="2.86985">
        <ele>1007</ele>
        <time>2022-08-17T12:01:50Z</time>
      </trkpt>
      <trkpt lat="45.66635" lon="2.86979">
        <ele>1007</ele>
        <time>2022-08-17T12:01:51Z</time>
      </trkpt>
      <trkpt lat="45.66645" lon="2.86974">
        <ele>1007</ele>
        <time>2022-08-17T12:01:52Z</time>
      </trkpt>
      <trkpt lat="45.66654" lon="2.86968">
        <ele>1007</ele>
        <time>2022-08-17T12:01:53Z</time>
      </trkpt>
      <trkpt lat="45.66663" lon="2.86962">
        <ele>1007</ele>
        <time>2022-08-17T12:01:54Z</time>
      </trkpt>
      <trkpt lat="45.66672" lon="2.86956">
        <ele>1007</ele>
        <time>2022-08-17T12:01:56Z</time>
      </trkpt>
      <trkpt lat="45.66681" lon="2.8695">
        <ele>1003</ele>
        <time>2022-08-17T12:01:58Z</time>
      </trkpt>
      <trkpt lat="45.66705" lon="2.86932">
        <ele>1003</ele>
        <time>2022-08-17T12:02:00Z</time>
      </trkpt>
      <trkpt lat="45.66712" lon="2.86926">
        <ele>1003</ele>
        <time>2022-08-17T12:02:01Z</time>
      </trkpt>
      <trkpt lat="45.66719" lon="2.86919">
        <ele>1003</ele>
        <time>2022-08-17T12:02:02Z</time>
      </trkpt>
      <trkpt lat="45.66726" lon="2.86913">
        <ele>1003</ele>
        <time>2022-08-17T12:02:03Z</time>
      </trkpt>
      <trkpt lat="45.66734" lon="2.86906">
        <ele>1003</ele>
        <time>2022-08-17T12:02:04Z</time>
      </trkpt>
      <trkpt lat="45.66741" lon="2.869">
        <ele>1003</ele>
        <time>2022-08-17T12:02:05Z</time>
      </trkpt>
      <trkpt lat="45.66748" lon="2.86893">
        <ele>1003</ele>
        <time>2022-08-17T12:02:06Z</time>
      </trkpt>
      <trkpt lat="45.66755" lon="2.86887">
        <ele>1003</ele>
        <time>2022-08-17T12:02:07Z</time>
      </trkpt>
      <trkpt lat="45.66762" lon="2.8688">
        <ele>996</ele>
        <time>2022-08-17T12:02:08Z</time>
      </trkpt>
      <trkpt lat="45.66775" lon="2.86863">
        <ele>996</ele>
        <time>2022-08-17T12:02:09Z</time>
      </trkpt>
      <trkpt lat="45.6678" lon="2.86855">
        <ele>996</ele>
        <time>2022-08-17T12:02:10Z</time>
      </trkpt>
      <trkpt lat="45.66785" lon="2.86847">
        <ele>996</ele>
        <time>2022-08-17T12:02:11Z</time>
      </trkpt>
      <trkpt lat="45.6679" lon="2.86839">
        <ele>996</ele>
        <time>2022-08-17T12:02:12Z</time>
      </trkpt>
      <trkpt lat="45.66796" lon="2.86831">
        <ele>996</ele>
        <time>2022-08-17T12:02:13Z</time>
      </trkpt>
      <trkpt lat="45.66801" lon="2.86823">
        <ele>996</ele>
        <time>2022-08-17T12:02:14Z</time>
      </trkpt>
      <trkpt lat="45.66806" lon="2.86814">
        <ele>996</ele>
        <time>2022-08-17T12:02:15Z</time>
      </trkpt>
      <trkpt lat="45.66812" lon="2.86806">
        <ele>996</ele>
        <time>2022-08-17T12:02:16Z</time>
      </trkpt>
      <trkpt lat="45.66817" lon="2.86798">
        <ele>996</ele>
        <time>2022-08-17T12:02:17Z</time>
      </trkpt>
      <trkpt lat="45.66822" lon="2.8679">
        <ele>991</ele>
        <time>2022-08-17T12:02:18Z</time>
      </trkpt>
      <trkpt lat="45.66827" lon="2.86769">
        <ele>991</ele>
        <time>2022-08-17T12:02:19Z</time>
      </trkpt>
      <trkpt lat="45.66828" lon="2.86758">
        <ele>991</ele>
        <time>2022-08-17T12:02:20Z</time>
      </trkpt>
      <trkpt lat="45.66829" lon="2.86748">
        <ele>991</ele>
        <time>2022-08-17T12:02:21Z</time>
      </trkpt>
      <trkpt lat="45.6683" lon="2.86738">
        <ele>991</ele>
        <time>2022-08-17T12:02:22Z</time>
      </trkpt>
      <trkpt lat="45.66831" lon="2.86727">
        <ele>991</ele>
        <time>2022-08-17T12:02:23Z</time>
      </trkpt>
      <trkpt lat="45.66832" lon="2.86717">
        <ele>991</ele>
        <time>2022-08-17T12:02:24Z</time>
      </trkpt>
      <trkpt lat="45.66834" lon="2.86707">
        <ele>991</ele>
        <time>2022-08-17T12:02:25Z</time>
      </trkpt>
      <trkpt lat="45.66835" lon="2.86696">
        <ele>991</ele>
        <time>2022-08-17T12:02:26Z</time>
      </trkpt>
      <trkpt lat="45.66836" lon="2.86686">
        <ele>991</ele>
        <time>2022-08-17T12:02:27Z</time>
      </trkpt>
      <trkpt lat="45.66837" lon="2.86676">
        <ele>987</ele>
        <time>2022-08-17T12:02:28Z</time>
      </trkpt>
      <trkpt lat="45.6684" lon="2.86652">
        <ele>987</ele>
        <time>2022-08-17T12:02:29Z</time>
      </trkpt>
      <trkpt lat="45.66841" lon="2.86641">
        <ele>987</ele>
        <time>2022-08-17T12:02:30Z</time>
      </trkpt>
      <trkpt lat="45.66843" lon="2.8663">
        <ele>987</ele>
        <time>2022-08-17T12:02:31Z</time>
      </trkpt>
      <trkpt lat="45.66844" lon="2.86618">
        <ele>987</ele>
        <time>2022-08-17T12:02:32Z</time>
      </trkpt>
      <trkpt lat="45.66846" lon="2.86607">
        <ele>987</ele>
        <time>2022-08-17T12:02:33Z</time>
      </trkpt>
      <trkpt lat="45.66848" lon="2.86596">
        <ele>987</ele>
        <time>2022-08-17T12:02:34Z</time>
      </trkpt>
      <trkpt lat="45.66849" lon="2.86584">
        <ele>987</ele>
        <time>2022-08-17T12:02:35Z</time>
      </trkpt>
      <trkpt lat="45.66851" lon="2.86573">
        <ele>987</ele>
        <time>2022-08-17T12:02:36Z</time>
      </trkpt>
      <trkpt lat="45.66852" lon="2.86562">
        <ele>987</ele>
        <time>2022-08-17T12:02:37Z</time>
      </trkpt>
      <trkpt lat="45.66854" lon="2.86551">
        <ele>982</ele>
        <time>2022-08-17T12:02:38Z</time>
      </trkpt>
      <trkpt lat="45.66855" lon="2.86528">
        <ele>982</ele>
        <time>2022-08-17T12:02:39Z</time>
      </trkpt>
      <trkpt lat="45.66854" lon="2.86519">
        <ele>982</ele>
        <time>2022-08-17T12:02:40Z</time>
      </trkpt>
      <trkpt lat="45.66853" lon="2.86509">
        <ele>982</ele>
        <time>2022-08-17T12:02:41Z</time>
      </trkpt>
      <trkpt lat="45.66852" lon="2.865">
        <ele>982</ele>
        <time>2022-08-17T12:02:42Z</time>
      </trkpt>
      <trkpt lat="45.66851" lon="2.86491">
        <ele>982</ele>
        <time>2022-08-17T12:02:43Z</time>
      </trkpt>
      <trkpt lat="45.66849" lon="2.86481">
        <ele>982</ele>
        <time>2022-08-17T12:02:44Z</time>
      </trkpt>
      <trkpt lat="45.66848" lon="2.86472">
        <ele>982</ele>
        <time>2022-08-17T12:02:45Z</time>
      </trkpt>
      <trkpt lat="45.66847" lon="2.86463">
        <ele>982</ele>
        <time>2022-08-17T12:02:46Z</time>
      </trkpt>
      <trkpt lat="45.66846" lon="2.86453">
        <ele>982</ele>
        <time>2022-08-17T12:02:47Z</time>
      </trkpt>
      <trkpt lat="45.66845" lon="2.86444">
        <ele>979</ele>
        <time>2022-08-17T12:02:48Z</time>
      </trkpt>
      <trkpt lat="45.66839" lon="2.86432">
        <ele>979</ele>
        <time>2022-08-17T12:02:49Z</time>
      </trkpt>
      <trkpt lat="45.66836" lon="2.86428">
        <ele>979</ele>
        <time>2022-08-17T12:02:50Z</time>
      </trkpt>
      <trkpt lat="45.66832" lon="2.86425">
        <ele>979</ele>
        <time>2022-08-17T12:02:52Z</time>
      </trkpt>
      <trkpt lat="45.66829" lon="2.86421">
        <ele>979</ele>
        <time>2022-08-17T12:02:53Z</time>
      </trkpt>
      <trkpt lat="45.66825" lon="2.86417">
        <ele>979</ele>
        <time>2022-08-17T12:02:54Z</time>
      </trkpt>
      <trkpt lat="45.66822" lon="2.86413">
        <ele>979</ele>
        <time>2022-08-17T12:02:55Z</time>
      </trkpt>
      <trkpt lat="45.66819" lon="2.86409">
        <ele>979</ele>
        <time>2022-08-17T12:02:56Z</time>
      </trkpt>
      <trkpt lat="45.66815" lon="2.86405">
        <ele>979</ele>
        <time>2022-08-17T12:02:57Z</time>
      </trkpt>
      <trkpt lat="45.66812" lon="2.86401">
        <ele>979</ele>
        <time>2022-08-17T12:02:58Z</time>
      </trkpt>
      <trkpt lat="45.66804" lon="2.86395">
        <ele>979</ele>
        <time>2022-08-17T12:02:59Z</time>
      </trkpt>
      <trkpt lat="45.66801" lon="2.86392">
        <ele>979</ele>
        <time>2022-08-17T12:03:00Z</time>
      </trkpt>
      <trkpt lat="45.66797" lon="2.86389">
        <ele>979</ele>
        <time>2022-08-17T12:03:01Z</time>
      </trkpt>
      <trkpt lat="45.66794" lon="2.86387">
        <ele>979</ele>
        <time>2022-08-17T12:03:02Z</time>
      </trkpt>
      <trkpt lat="45.6679" lon="2.86384">
        <ele>979</ele>
        <time>2022-08-17T12:03:03Z</time>
      </trkpt>
      <trkpt lat="45.66787" lon="2.86381">
        <ele>979</ele>
        <time>2022-08-17T12:03:04Z</time>
      </trkpt>
      <trkpt lat="45.66783" lon="2.86378">
        <ele>979</ele>
        <time>2022-08-17T12:03:05Z</time>
      </trkpt>
      <trkpt lat="45.6678" lon="2.86375">
        <ele>979</ele>
        <time>2022-08-17T12:03:06Z</time>
      </trkpt>
      <trkpt lat="45.66776" lon="2.86372">
        <ele>979</ele>
        <time>2022-08-17T12:03:07Z</time>
      </trkpt>
      <trkpt lat="45.66772" lon="2.86369">
        <ele>979</ele>
        <time>2022-08-17T12:03:08Z</time>
      </trkpt>
      <trkpt lat="45.66765" lon="2.86362">
        <ele>979</ele>
        <time>2022-08-17T12:03:09Z</time>
      </trkpt>
      <trkpt lat="45.66762" lon="2.86358">
        <ele>979</ele>
        <time>2022-08-17T12:03:10Z</time>
      </trkpt>
      <trkpt lat="45.66759" lon="2.86355">
        <ele>979</ele>
        <time>2022-08-17T12:03:11Z</time>
      </trkpt>
      <trkpt lat="45.66756" lon="2.86351">
        <ele>979</ele>
        <time>2022-08-17T12:03:12Z</time>
      </trkpt>
      <trkpt lat="45.66753" lon="2.86348">
        <ele>979</ele>
        <time>2022-08-17T12:03:13Z</time>
      </trkpt>
      <trkpt lat="45.66749" lon="2.86344">
        <ele>979</ele>
        <time>2022-08-17T12:03:14Z</time>
      </trkpt>
      <trkpt lat="45.66746" lon="2.86341">
        <ele>979</ele>
        <time>2022-08-17T12:03:15Z</time>
      </trkpt>
      <trkpt lat="45.66743" lon="2.86337">
        <ele>979</ele>
        <time>2022-08-17T12:03:16Z</time>
      </trkpt>
      <trkpt lat="45.6674" lon="2.86333">
        <ele>979</ele>
        <time>2022-08-17T12:03:17Z</time>
      </trkpt>
      <trkpt lat="45.66736" lon="2.8633">
        <ele>980</ele>
        <time>2022-08-17T12:03:18Z</time>
      </trkpt>
      <trkpt lat="45.66729" lon="2.86321">
        <ele>980</ele>
        <time>2022-08-17T12:03:19Z</time>
      </trkpt>
      <trkpt lat="45.66725" lon="2.86316">
        <ele>980</ele>
        <time>2022-08-17T12:03:20Z</time>
      </trkpt>
      <trkpt lat="45.66721" lon="2.86311">
        <ele>980</ele>
        <time>2022-08-17T12:03:21Z</time>
      </trkpt>
      <trkpt lat="45.66717" lon="2.86307">
        <ele>980</ele>
        <time>2022-08-17T12:03:22Z</time>
      </trkpt>
      <trkpt lat="45.66713" lon="2.86302">
        <ele>980</ele>
        <time>2022-08-17T12:03:23Z</time>
      </trkpt>
      <trkpt lat="45.66709" lon="2.86297">
        <ele>980</ele>
        <time>2022-08-17T12:03:24Z</time>
      </trkpt>
      <trkpt lat="45.66705" lon="2.86292">
        <ele>980</ele>
        <time>2022-08-17T12:03:25Z</time>
      </trkpt>
      <trkpt lat="45.66701" lon="2.86288">
        <ele>980</ele>
        <time>2022-08-17T12:03:26Z</time>
      </trkpt>
      <trkpt lat="45.66697" lon="2.86283">
        <ele>980</ele>
        <time>2022-08-17T12:03:27Z</time>
      </trkpt>
      <trkpt lat="45.66693" lon="2.86278">
        <ele>979</ele>
        <time>2022-08-17T12:03:28Z</time>
      </trkpt>
      <trkpt lat="45.66681" lon="2.86268">
        <ele>979</ele>
        <time>2022-08-17T12:03:29Z</time>
      </trkpt>
      <trkpt lat="45.66675" lon="2.86264">
        <ele>979</ele>
        <time>2022-08-17T12:03:30Z</time>
      </trkpt>
      <trkpt lat="45.66668" lon="2.8626">
        <ele>979</ele>
        <time>2022-08-17T12:03:31Z</time>
      </trkpt>
      <trkpt lat="45.66662" lon="2.86256">
        <ele>979</ele>
        <time>2022-08-17T12:03:32Z</time>
      </trkpt>
      <trkpt lat="45.66655" lon="2.86252">
        <ele>979</ele>
        <time>2022-08-17T12:03:33Z</time>
      </trkpt>
      <trkpt lat="45.66648" lon="2.86248">
        <ele>979</ele>
        <time>2022-08-17T12:03:34Z</time>
      </trkpt>
      <trkpt lat="45.66642" lon="2.86244">
        <ele>979</ele>
        <time>2022-08-17T12:03:35Z</time>
      </trkpt>
      <trkpt lat="45.66635" lon="2.8624">
        <ele>979</ele>
        <time>2022-08-17T12:03:36Z</time>
      </trkpt>
      <trkpt lat="45.66629" lon="2.86236">
        <ele>979</ele>
        <time>2022-08-17T12:03:37Z</time>
      </trkpt>
      <trkpt lat="45.66622" lon="2.86232">
        <ele>977</ele>
        <time>2022-08-17T12:03:38Z</time>
      </trkpt>
      <trkpt lat="45.66613" lon="2.86228">
        <ele>977</ele>
        <time>2022-08-17T12:03:39Z</time>
      </trkpt>
      <trkpt lat="45.66604" lon="2.86225">
        <ele>977</ele>
        <time>2022-08-17T12:03:40Z</time>
      </trkpt>
      <trkpt lat="45.66595" lon="2.86222">
        <ele>977</ele>
        <time>2022-08-17T12:03:41Z</time>
      </trkpt>
      <trkpt lat="45.66586" lon="2.8622">
        <ele>977</ele>
        <time>2022-08-17T12:03:42Z</time>
      </trkpt>
      <trkpt lat="45.66577" lon="2.86217">
        <ele>977</ele>
        <time>2022-08-17T12:03:43Z</time>
      </trkpt>
      <trkpt lat="45.66568" lon="2.86215">
        <ele>977</ele>
        <time>2022-08-17T12:03:44Z</time>
      </trkpt>
      <trkpt lat="45.66559" lon="2.86213">
        <ele>977</ele>
        <time>2022-08-17T12:03:45Z</time>
      </trkpt>
      <trkpt lat="45.6655" lon="2.86212">
        <ele>977</ele>
        <time>2022-08-17T12:03:46Z</time>
      </trkpt>
      <trkpt lat="45.6654" lon="2.8621">
        <ele>977</ele>
        <time>2022-08-17T12:03:47Z</time>
      </trkpt>
      <trkpt lat="45.66531" lon="2.86208">
        <ele>971</ele>
        <time>2022-08-17T12:03:48Z</time>
      </trkpt>
      <trkpt lat="45.66504" lon="2.86196">
        <ele>971</ele>
        <time>2022-08-17T12:03:50Z</time>
      </trkpt>
      <trkpt lat="45.66497" lon="2.86189">
        <ele>971</ele>
        <time>2022-08-17T12:03:51Z</time>
      </trkpt>
      <trkpt lat="45.66489" lon="2.86181">
        <ele>971</ele>
        <time>2022-08-17T12:03:52Z</time>
      </trkpt>
      <trkpt lat="45.66482" lon="2.86174">
        <ele>971</ele>
        <time>2022-08-17T12:03:54Z</time>
      </trkpt>
      <trkpt lat="45.66475" lon="2.86166">
        <ele>971</ele>
        <time>2022-08-17T12:03:55Z</time>
      </trkpt>
      <trkpt lat="45.66467" lon="2.86159">
        <ele>971</ele>
        <time>2022-08-17T12:03:56Z</time>
      </trkpt>
      <trkpt lat="45.6646" lon="2.86151">
        <ele>971</ele>
        <time>2022-08-17T12:03:57Z</time>
      </trkpt>
      <trkpt lat="45.66453" lon="2.86144">
        <ele>966</ele>
        <time>2022-08-17T12:03:58Z</time>
      </trkpt>
      <trkpt lat="45.66439" lon="2.86122">
        <ele>966</ele>
        <time>2022-08-17T12:04:00Z</time>
      </trkpt>
      <trkpt lat="45.66436" lon="2.86115">
        <ele>966</ele>
        <time>2022-08-17T12:04:01Z</time>
      </trkpt>
      <trkpt lat="45.66433" lon="2.86108">
        <ele>966</ele>
        <time>2022-08-17T12:04:02Z</time>
      </trkpt>
      <trkpt lat="45.6643" lon="2.86101">
        <ele>966</ele>
        <time>2022-08-17T12:04:03Z</time>
      </trkpt>
      <trkpt lat="45.66426" lon="2.86095">
        <ele>966</ele>
        <time>2022-08-17T12:04:04Z</time>
      </trkpt>
      <trkpt lat="45.66423" lon="2.86088">
        <ele>966</ele>
        <time>2022-08-17T12:04:05Z</time>
      </trkpt>
      <trkpt lat="45.6642" lon="2.86081">
        <ele>966</ele>
        <time>2022-08-17T12:04:07Z</time>
      </trkpt>
      <trkpt lat="45.66417" lon="2.86074">
        <ele>967</ele>
        <time>2022-08-17T12:04:08Z</time>
      </trkpt>
      <trkpt lat="45.66422" lon="2.86059">
        <ele>967</ele>
        <time>2022-08-17T12:04:09Z</time>
      </trkpt>
      <trkpt lat="45.66427" lon="2.86051">
        <ele>967</ele>
        <time>2022-08-17T12:04:11Z</time>
      </trkpt>
      <trkpt lat="45.66432" lon="2.86043">
        <ele>967</ele>
        <time>2022-08-17T12:04:13Z</time>
      </trkpt>
      <trkpt lat="45.66437" lon="2.86035">
        <ele>967</ele>
        <time>2022-08-17T12:04:16Z</time>
      </trkpt>
      <trkpt lat="45.66442" lon="2.86027">
        <ele>969</ele>
        <time>2022-08-17T12:04:18Z</time>
      </trkpt>
      <trkpt lat="45.66452" lon="2.86018">
        <ele>969</ele>
        <time>2022-08-17T12:04:19Z</time>
      </trkpt>
      <trkpt lat="45.66457" lon="2.86012">
        <ele>969</ele>
        <time>2022-08-17T12:04:22Z</time>
      </trkpt>
      <trkpt lat="45.66463" lon="2.86006">
        <ele>969</ele>
        <time>2022-08-17T12:04:24Z</time>
      </trkpt>
      <trkpt lat="45.66468" lon="2.86">
        <ele>969</ele>
        <time>2022-08-17T12:04:26Z</time>
      </trkpt>
      <trkpt lat="45.66474" lon="2.85994">
        <ele>975</ele>
        <time>2022-08-17T12:04:28Z</time>
      </trkpt>
      <trkpt lat="45.6648" lon="2.85977">
        <ele>975</ele>
        <time>2022-08-17T12:04:30Z</time>
      </trkpt>
      <trkpt lat="45.66482" lon="2.8597">
        <ele>975</ele>
        <time>2022-08-17T12:04:32Z</time>
      </trkpt>
      <trkpt lat="45.66485" lon="2.85962">
        <ele>975</ele>
        <time>2022-08-17T12:04:34Z</time>
      </trkpt>
      <trkpt lat="45.66488" lon="2.85955">
        <ele>975</ele>
        <time>2022-08-17T12:04:36Z</time>
      </trkpt>
      <trkpt lat="45.6649" lon="2.85947">
        <ele>977</ele>
        <time>2022-08-17T12:04:38Z</time>
      </trkpt>
      <trkpt lat="45.66494" lon="2.8593">
        <ele>977</ele>
        <time>2022-08-17T12:04:40Z</time>
      </trkpt>
      <trkpt lat="45.66494" lon="2.85922">
        <ele>977</ele>
        <time>2022-08-17T12:04:42Z</time>
      </trkpt>
      <trkpt lat="45.66495" lon="2.85914">
        <ele>977</ele>
        <time>2022-08-17T12:04:44Z</time>
      </trkpt>
      <trkpt lat="45.66495" lon="2.85906">
        <ele>977</ele>
        <time>2022-08-17T12:04:46Z</time>
      </trkpt>
      <trkpt lat="45.66496" lon="2.85898">
        <ele>979</ele>
        <time>2022-08-17T12:04:48Z</time>
      </trkpt>
      <trkpt lat="45.66494" lon="2.85881">
        <ele>979</ele>
        <time>2022-08-17T12:04:50Z</time>
      </trkpt>
      <trkpt lat="45.66493" lon="2.85873">
        <ele>979</ele>
        <time>2022-08-17T12:04:52Z</time>
      </trkpt>
      <trkpt lat="45.66491" lon="2.85866">
        <ele>979</ele>
        <time>2022-08-17T12:04:54Z</time>
      </trkpt>
      <trkpt lat="45.6649" lon="2.85858">
        <ele>979</ele>
        <time>2022-08-17T12:04:56Z</time>
      </trkpt>
      <trkpt lat="45.66489" lon="2.85851">
        <ele>979</ele>
        <time>2022-08-17T12:04:58Z</time>
      </trkpt>
      <trkpt lat="45.6649" lon="2.85835">
        <ele>979</ele>
        <time>2022-08-17T12:05:00Z</time>
      </trkpt>
      <trkpt lat="45.66492" lon="2.85829">
        <ele>979</ele>
        <time>2022-08-17T12:05:02Z</time>
      </trkpt>
      <trkpt lat="45.66493" lon="2.85824">
        <ele>979</ele>
        <time>2022-08-17T12:05:04Z</time>
      </trkpt>
      <trkpt lat="45.66495" lon="2.85818">
        <ele>979</ele>
        <time>2022-08-17T12:05:07Z</time>
      </trkpt>
      <trkpt lat="45.66496" lon="2.85812">
        <ele>984</ele>
        <time>2022-08-17T12:05:08Z</time>
      </trkpt>
      <trkpt lat="45.66502" lon="2.85805">
        <ele>984</ele>
        <time>2022-08-17T12:05:10Z</time>
      </trkpt>
      <trkpt lat="45.66507" lon="2.85802">
        <ele>984</ele>
        <time>2022-08-17T12:05:12Z</time>
      </trkpt>
      <trkpt lat="45.66516" lon="2.85801">
        <ele>984</ele>
        <time>2022-08-17T12:05:15Z</time>
      </trkpt>
      <trkpt lat="45.66524" lon="2.85802">
        <ele>984</ele>
        <time>2022-08-17T12:05:18Z</time>
      </trkpt>
      <trkpt lat="45.66534" lon="2.85807">
        <ele>984</ele>
        <time>2022-08-17T12:05:22Z</time>
      </trkpt>
      <trkpt lat="45.66542" lon="2.85812">
        <ele>984</ele>
        <time>2022-08-17T12:05:25Z</time>
      </trkpt>
      <trkpt lat="45.66542" lon="2.85812">
        <ele>984</ele>
        <time>2022-08-17T12:05:28Z</time>
      </trkpt>
      <trkpt lat="45.66556" lon="2.85824">
        <ele>984</ele>
        <time>2022-08-17T12:05:29Z</time>
      </trkpt>
      <trkpt lat="45.66562" lon="2.85828">
        <ele>984</ele>
        <time>2022-08-17T12:05:34Z</time>
      </trkpt>
      <trkpt lat="45.66568" lon="2.85831">
        <ele>984</ele>
        <time>2022-08-17T12:05:37Z</time>
      </trkpt>
      <trkpt lat="45.66574" lon="2.85834">
        <ele>988</ele>
        <time>2022-08-17T12:05:38Z</time>
      </trkpt>
      <trkpt lat="45.66582" lon="2.85836">
        <ele>988</ele>
        <time>2022-08-17T12:05:42Z</time>
      </trkpt>
      <trkpt lat="45.66595" lon="2.85836">
        <ele>988</ele>
        <time>2022-08-17T12:05:45Z</time>
      </trkpt>
      <trkpt lat="45.66608" lon="2.85835">
        <ele>991</ele>
        <time>2022-08-17T12:05:48Z</time>
      </trkpt>
      <trkpt lat="45.66624" lon="2.85833">
        <ele>991</ele>
        <time>2022-08-17T12:05:51Z</time>
      </trkpt>
      <trkpt lat="45.6663" lon="2.85831">
        <ele>991</ele>
        <time>2022-08-17T12:05:54Z</time>
      </trkpt>
      <trkpt lat="45.66636" lon="2.8583">
        <ele>991</ele>
        <time>2022-08-17T12:05:57Z</time>
      </trkpt>
      <trkpt lat="45.66642" lon="2.85828">
        <ele>992</ele>
        <time>2022-08-17T12:05:58Z</time>
      </trkpt>
      <trkpt lat="45.66654" lon="2.85825">
        <ele>992</ele>
        <time>2022-08-17T12:06:00Z</time>
      </trkpt>
      <trkpt lat="45.66659" lon="2.85824">
        <ele>992</ele>
        <time>2022-08-17T12:06:03Z</time>
      </trkpt>
      <trkpt lat="45.66664" lon="2.85822">
        <ele>992</ele>
        <time>2022-08-17T12:06:06Z</time>
      </trkpt>
      <trkpt lat="45.66669" lon="2.8582">
        <ele>995</ele>
        <time>2022-08-17T12:06:08Z</time>
      </trkpt>
      <trkpt lat="45.66683" lon="2.85815">
        <ele>995</ele>
        <time>2022-08-17T12:06:09Z</time>
      </trkpt>
      <trkpt lat="45.66688" lon="2.85812">
        <ele>995</ele>
        <time>2022-08-17T12:06:11Z</time>
      </trkpt>
      <trkpt lat="45.66693" lon="2.8581">
        <ele>995</ele>
        <time>2022-08-17T12:06:13Z</time>
      </trkpt>
      <trkpt lat="45.66697" lon="2.85808">
        <ele>995</ele>
        <time>2022-08-17T12:06:15Z</time>
      </trkpt>
      <trkpt lat="45.66702" lon="2.85805">
        <ele>995</ele>
        <time>2022-08-17T12:06:17Z</time>
      </trkpt>
      <trkpt lat="45.66707" lon="2.85803">
        <ele>996</ele>
        <time>2022-08-17T12:06:18Z</time>
      </trkpt>
      <trkpt lat="45.66712" lon="2.85794">
        <ele>996</ele>
        <time>2022-08-17T12:06:19Z</time>
      </trkpt>
      <trkpt lat="45.66715" lon="2.85788">
        <ele>996</ele>
        <time>2022-08-17T12:06:22Z</time>
      </trkpt>
      <trkpt lat="45.66717" lon="2.85783">
        <ele>996</ele>
        <time>2022-08-17T12:06:23Z</time>
      </trkpt>
      <trkpt lat="45.6672" lon="2.85777">
        <ele>996</ele>
        <time>2022-08-17T12:06:25Z</time>
      </trkpt>
      <trkpt lat="45.66723" lon="2.85771">
        <ele>996</ele>
        <time>2022-08-17T12:06:27Z</time>
      </trkpt>
      <trkpt lat="45.66725" lon="2.85765">
        <ele>998</ele>
        <time>2022-08-17T12:06:28Z</time>
      </trkpt>
      <trkpt lat="45.66726" lon="2.85752">
        <ele>998</ele>
        <time>2022-08-17T12:06:29Z</time>
      </trkpt>
      <trkpt lat="45.66726" lon="2.85744">
        <ele>998</ele>
        <time>2022-08-17T12:06:31Z</time>
      </trkpt>
      <trkpt lat="45.66726" lon="2.85736">
        <ele>998</ele>
        <time>2022-08-17T12:06:33Z</time>
      </trkpt>
      <trkpt lat="45.66726" lon="2.85728">
        <ele>998</ele>
        <time>2022-08-17T12:06:37Z</time>
      </trkpt>
      <trkpt lat="45.66727" lon="2.8572">
        <ele>1002</ele>
        <time>2022-08-17T12:06:38Z</time>
      </trkpt>
      <trkpt lat="45.66725" lon="2.85707">
        <ele>1002</ele>
        <time>2022-08-17T12:06:41Z</time>
      </trkpt>
      <trkpt lat="45.66723" lon="2.85693">
        <ele>1002</ele>
        <time>2022-08-17T12:06:44Z</time>
      </trkpt>
      <trkpt lat="45.66723" lon="2.85675">
        <ele>1005</ele>
        <time>2022-08-17T12:06:48Z</time>
      </trkpt>
      <trkpt lat="45.66725" lon="2.85654">
        <ele>1005</ele>
        <time>2022-08-17T12:06:52Z</time>
      </trkpt>
      <trkpt lat="45.66726" lon="2.8565">
        <ele>1005</ele>
        <time>2022-08-17T12:06:56Z</time>
      </trkpt>
      <trkpt lat="45.66727" lon="2.85645">
        <ele>1005</ele>
        <time>2022-08-17T12:06:58Z</time>
      </trkpt>
      <trkpt lat="45.66733" lon="2.85621">
        <ele>1005</ele>
        <time>2022-08-17T12:07:00Z</time>
      </trkpt>
      <trkpt lat="45.66735" lon="2.85613">
        <ele>1005</ele>
        <time>2022-08-17T12:07:04Z</time>
      </trkpt>
      <trkpt lat="45.66736" lon="2.85604">
        <ele>1005</ele>
        <time>2022-08-17T12:07:07Z</time>
      </trkpt>
      <trkpt lat="45.66737" lon="2.85595">
        <ele>1006</ele>
        <time>2022-08-17T12:07:08Z</time>
      </trkpt>
      <trkpt lat="45.66747" lon="2.85575">
        <ele>1006</ele>
        <time>2022-08-17T12:07:12Z</time>
      </trkpt>
      <trkpt lat="45.66752" lon="2.85568">
        <ele>1006</ele>
        <time>2022-08-17T12:07:14Z</time>
      </trkpt>
      <trkpt lat="45.66756" lon="2.85561">
        <ele>1006</ele>
        <time>2022-08-17T12:07:17Z</time>
      </trkpt>
      <trkpt lat="45.66761" lon="2.85554">
        <ele>1008</ele>
        <time>2022-08-17T12:07:18Z</time>
      </trkpt>
      <trkpt lat="45.6677" lon="2.85541">
        <ele>1008</ele>
        <time>2022-08-17T12:07:20Z</time>
      </trkpt>
      <trkpt lat="45.66774" lon="2.85536">
        <ele>1008</ele>
        <time>2022-08-17T12:07:23Z</time>
      </trkpt>
      <trkpt lat="45.66778" lon="2.85531">
        <ele>1008</ele>
        <time>2022-08-17T12:07:26Z</time>
      </trkpt>
      <trkpt lat="45.66782" lon="2.85526">
        <ele>1010</ele>
        <time>2022-08-17T12:07:28Z</time>
      </trkpt>
      <trkpt lat="45.66788" lon="2.85513">
        <ele>1010</ele>
        <time>2022-08-17T12:07:29Z</time>
      </trkpt>
      <trkpt lat="45.66793" lon="2.855">
        <ele>1010</ele>
        <time>2022-08-17T12:07:32Z</time>
      </trkpt>
      <trkpt lat="45.66795" lon="2.85487">
        <ele>1010</ele>
        <time>2022-08-17T12:07:35Z</time>
      </trkpt>
      <trkpt lat="45.66795" lon="2.85487">
        <ele>1012</ele>
        <time>2022-08-17T12:07:38Z</time>
      </trkpt>
      <trkpt lat="45.66796" lon="2.85458">
        <ele>1012</ele>
        <time>2022-08-17T12:07:39Z</time>
      </trkpt>
      <trkpt lat="45.66796" lon="2.85447">
        <ele>1012</ele>
        <time>2022-08-17T12:07:42Z</time>
      </trkpt>
      <trkpt lat="45.66796" lon="2.85436">
        <ele>1012</ele>
        <time>2022-08-17T12:07:45Z</time>
      </trkpt>
      <trkpt lat="45.66796" lon="2.85425">
        <ele>1014</ele>
        <time>2022-08-17T12:07:48Z</time>
      </trkpt>
      <trkpt lat="45.66798" lon="2.85411">
        <ele>1014</ele>
        <time>2022-08-17T12:07:51Z</time>
      </trkpt>
      <trkpt lat="45.668" lon="2.85397">
        <ele>1014</ele>
        <time>2022-08-17T12:07:54Z</time>
      </trkpt>
      <trkpt lat="45.668" lon="2.85397">
        <ele>1015</ele>
        <time>2022-08-17T12:07:58Z</time>
      </trkpt>
      <trkpt lat="45.66814" lon="2.85381">
        <ele>1015</ele>
        <time>2022-08-17T12:07:59Z</time>
      </trkpt>
      <trkpt lat="45.66821" lon="2.85378">
        <ele>1015</ele>
        <time>2022-08-17T12:08:02Z</time>
      </trkpt>
      <trkpt lat="45.66828" lon="2.85376">
        <ele>1015</ele>
        <time>2022-08-17T12:08:04Z</time>
      </trkpt>
      <trkpt lat="45.66835" lon="2.85374">
        <ele>1015</ele>
        <time>2022-08-17T12:08:07Z</time>
      </trkpt>
      <trkpt lat="45.66842" lon="2.85372">
        <ele>1019</ele>
        <time>2022-08-17T12:08:08Z</time>
      </trkpt>
      <trkpt lat="45.66856" lon="2.85368">
        <ele>1019</ele>
        <time>2022-08-17T12:08:10Z</time>
      </trkpt>
      <trkpt lat="45.66863" lon="2.85366">
        <ele>1019</ele>
        <time>2022-08-17T12:08:13Z</time>
      </trkpt>
      <trkpt lat="45.66871" lon="2.85364">
        <ele>1019</ele>
        <time>2022-08-17T12:08:16Z</time>
      </trkpt>
      <trkpt lat="45.66878" lon="2.85362">
        <ele>1020</ele>
        <time>2022-08-17T12:08:18Z</time>
      </trkpt>
      <trkpt lat="45.66892" lon="2.8536">
        <ele>1020</ele>
        <time>2022-08-17T12:08:20Z</time>
      </trkpt>
      <trkpt lat="45.66897" lon="2.85359">
        <ele>1020</ele>
        <time>2022-08-17T12:08:22Z</time>
      </trkpt>
      <trkpt lat="45.66903" lon="2.85358">
        <ele>1020</ele>
        <time>2022-08-17T12:08:24Z</time>
      </trkpt>
      <trkpt lat="45.66909" lon="2.85357">
        <ele>1020</ele>
        <time>2022-08-17T12:08:26Z</time>
      </trkpt>
      <trkpt lat="45.66914" lon="2.85356">
        <ele>1022</ele>
        <time>2022-08-17T12:08:28Z</time>
      </trkpt>
      <trkpt lat="45.66926" lon="2.85354">
        <ele>1022</ele>
        <time>2022-08-17T12:08:30Z</time>
      </trkpt>
      <trkpt lat="45.66931" lon="2.85353">
        <ele>1022</ele>
        <time>2022-08-17T12:08:32Z</time>
      </trkpt>
      <trkpt lat="45.66936" lon="2.85352">
        <ele>1022</ele>
        <time>2022-08-17T12:08:34Z</time>
      </trkpt>
      <trkpt lat="45.66942" lon="2.85351">
        <ele>1022</ele>
        <time>2022-08-17T12:08:36Z</time>
      </trkpt>
      <trkpt lat="45.66947" lon="2.8535">
        <ele>1026</ele>
        <time>2022-08-17T12:08:38Z</time>
      </trkpt>
      <trkpt lat="45.66958" lon="2.85347">
        <ele>1026</ele>
        <time>2022-08-17T12:08:40Z</time>
      </trkpt>
      <trkpt lat="45.66963" lon="2.85346">
        <ele>1026</ele>
        <time>2022-08-17T12:08:42Z</time>
      </trkpt>
      <trkpt lat="45.66968" lon="2.85345">
        <ele>1026</ele>
        <time>2022-08-17T12:08:44Z</time>
      </trkpt>
      <trkpt lat="45.66973" lon="2.85344">
        <ele>1026</ele>
        <time>2022-08-17T12:08:46Z</time>
      </trkpt>
      <trkpt lat="45.66978" lon="2.85343">
        <ele>1027</ele>
        <time>2022-08-17T12:08:48Z</time>
      </trkpt>
      <trkpt lat="45.66989" lon="2.8534">
        <ele>1027</ele>
        <time>2022-08-17T12:08:50Z</time>
      </trkpt>
      <trkpt lat="45.66993" lon="2.85338">
        <ele>1027</ele>
        <time>2022-08-17T12:08:52Z</time>
      </trkpt>
      <trkpt lat="45.66998" lon="2.85337">
        <ele>1027</ele>
        <time>2022-08-17T12:08:54Z</time>
      </trkpt>
      <trkpt lat="45.67003" lon="2.85335">
        <ele>1027</ele>
        <time>2022-08-17T12:08:56Z</time>
      </trkpt>
      <trkpt lat="45.67008" lon="2.85334">
        <ele>1029</ele>
        <time>2022-08-17T12:08:58Z</time>
      </trkpt>
      <trkpt lat="45.67017" lon="2.85329">
        <ele>1029</ele>
        <time>2022-08-17T12:09:00Z</time>
      </trkpt>
      <trkpt lat="45.67021" lon="2.85326">
        <ele>1029</ele>
        <time>2022-08-17T12:09:02Z</time>
      </trkpt>
      <trkpt lat="45.67024" lon="2.85323">
        <ele>1029</ele>
        <time>2022-08-17T12:09:03Z</time>
      </trkpt>
      <trkpt lat="45.67027" lon="2.8532">
        <ele>1029</ele>
        <time>2022-08-17T12:09:04Z</time>
      </trkpt>
      <trkpt lat="45.6703" lon="2.85317">
        <ele>1029</ele>
        <time>2022-08-17T12:09:05Z</time>
      </trkpt>
      <trkpt lat="45.67033" lon="2.85315">
        <ele>1029</ele>
        <time>2022-08-17T12:09:06Z</time>
      </trkpt>
      <trkpt lat="45.67036" lon="2.85312">
        <ele>1029</ele>
        <time>2022-08-17T12:09:07Z</time>
      </trkpt>
      <trkpt lat="45.67039" lon="2.85309">
        <ele>1030</ele>
        <time>2022-08-17T12:09:08Z</time>
      </trkpt>
      <trkpt lat="45.67046" lon="2.85301">
        <ele>1030</ele>
        <time>2022-08-17T12:09:09Z</time>
      </trkpt>
      <trkpt lat="45.6705" lon="2.85297">
        <ele>1030</ele>
        <time>2022-08-17T12:09:11Z</time>
      </trkpt>
      <trkpt lat="45.67054" lon="2.85292">
        <ele>1030</ele>
        <time>2022-08-17T12:09:13Z</time>
      </trkpt>
      <trkpt lat="45.67058" lon="2.85288">
        <ele>1030</ele>
        <time>2022-08-17T12:09:15Z</time>
      </trkpt>
      <trkpt lat="45.67062" lon="2.85283">
        <ele>1030</ele>
        <time>2022-08-17T12:09:17Z</time>
      </trkpt>
      <trkpt lat="45.67066" lon="2.85278">
        <ele>1032</ele>
        <time>2022-08-17T12:09:18Z</time>
      </trkpt>
      <trkpt lat="45.67073" lon="2.85271">
        <ele>1032</ele>
        <time>2022-08-17T12:09:19Z</time>
      </trkpt>
      <trkpt lat="45.67077" lon="2.85267">
        <ele>1032</ele>
        <time>2022-08-17T12:09:21Z</time>
      </trkpt>
      <trkpt lat="45.67081" lon="2.85263">
        <ele>1032</ele>
        <time>2022-08-17T12:09:23Z</time>
      </trkpt>
      <trkpt lat="45.67085" lon="2.85259">
        <ele>1032</ele>
        <time>2022-08-17T12:09:25Z</time>
      </trkpt>
      <trkpt lat="45.67089" lon="2.85254">
        <ele>1032</ele>
        <time>2022-08-17T12:09:27Z</time>
      </trkpt>
      <trkpt lat="45.67094" lon="2.8525">
        <ele>1034</ele>
        <time>2022-08-17T12:09:28Z</time>
      </trkpt>
      <trkpt lat="45.67101" lon="2.85244">
        <ele>1034</ele>
        <time>2022-08-17T12:09:29Z</time>
      </trkpt>
      <trkpt lat="45.67105" lon="2.85241">
        <ele>1034</ele>
        <time>2022-08-17T12:09:31Z</time>
      </trkpt>
      <trkpt lat="45.67109" lon="2.85237">
        <ele>1034</ele>
        <time>2022-08-17T12:09:32Z</time>
      </trkpt>
      <trkpt lat="45.67113" lon="2.85234">
        <ele>1034</ele>
        <time>2022-08-17T12:09:33Z</time>
      </trkpt>
      <trkpt lat="45.67117" lon="2.85231">
        <ele>1034</ele>
        <time>2022-08-17T12:09:35Z</time>
      </trkpt>
      <trkpt lat="45.67121" lon="2.85227">
        <ele>1034</ele>
        <time>2022-08-17T12:09:37Z</time>
      </trkpt>
      <trkpt lat="45.67125" lon="2.85224">
        <ele>1038</ele>
        <time>2022-08-17T12:09:38Z</time>
      </trkpt>
      <trkpt lat="45.67133" lon="2.85218">
        <ele>1038</ele>
        <time>2022-08-17T12:09:39Z</time>
      </trkpt>
      <trkpt lat="45.67138" lon="2.85215">
        <ele>1038</ele>
        <time>2022-08-17T12:09:41Z</time>
      </trkpt>
      <trkpt lat="45.67142" lon="2.85212">
        <ele>1038</ele>
        <time>2022-08-17T12:09:43Z</time>
      </trkpt>
      <trkpt lat="45.67147" lon="2.85208">
        <ele>1038</ele>
        <time>2022-08-17T12:09:45Z</time>
      </trkpt>
      <trkpt lat="45.67152" lon="2.85205">
        <ele>1038</ele>
        <time>2022-08-17T12:09:47Z</time>
      </trkpt>
      <trkpt lat="45.67156" lon="2.85202">
        <ele>1041</ele>
        <time>2022-08-17T12:09:48Z</time>
      </trkpt>
      <trkpt lat="45.67163" lon="2.85196">
        <ele>1041</ele>
        <time>2022-08-17T12:09:49Z</time>
      </trkpt>
      <trkpt lat="45.67167" lon="2.85193">
        <ele>1041</ele>
        <time>2022-08-17T12:09:51Z</time>
      </trkpt>
      <trkpt lat="45.67171" lon="2.85189">
        <ele>1041</ele>
        <time>2022-08-17T12:09:52Z</time>
      </trkpt>
      <trkpt lat="45.67175" lon="2.85186">
        <ele>1041</ele>
        <time>2022-08-17T12:09:54Z</time>
      </trkpt>
      <trkpt lat="45.67179" lon="2.85183">
        <ele>1041</ele>
        <time>2022-08-17T12:09:56Z</time>
      </trkpt>
      <trkpt lat="45.67183" lon="2.85179">
        <ele>1041</ele>
        <time>2022-08-17T12:09:57Z</time>
      </trkpt>
      <trkpt lat="45.67187" lon="2.85176">
        <ele>1042</ele>
        <time>2022-08-17T12:09:58Z</time>
      </trkpt>
      <trkpt lat="45.67191" lon="2.85166">
        <ele>1042</ele>
        <time>2022-08-17T12:09:59Z</time>
      </trkpt>
      <trkpt lat="45.67193" lon="2.8516">
        <ele>1042</ele>
        <time>2022-08-17T12:10:01Z</time>
      </trkpt>
      <trkpt lat="45.67195" lon="2.85153">
        <ele>1042</ele>
        <time>2022-08-17T12:10:03Z</time>
      </trkpt>
      <trkpt lat="45.67197" lon="2.85147">
        <ele>1042</ele>
        <time>2022-08-17T12:10:05Z</time>
      </trkpt>
      <trkpt lat="45.67199" lon="2.8514">
        <ele>1042</ele>
        <time>2022-08-17T12:10:07Z</time>
      </trkpt>
      <trkpt lat="45.67201" lon="2.85134">
        <ele>1043</ele>
        <time>2022-08-17T12:10:08Z</time>
      </trkpt>
      <trkpt lat="45.67199" lon="2.85124">
        <ele>1043</ele>
        <time>2022-08-17T12:10:09Z</time>
      </trkpt>
      <trkpt lat="45.67197" lon="2.85119">
        <ele>1043</ele>
        <time>2022-08-17T12:10:11Z</time>
      </trkpt>
      <trkpt lat="45.67195" lon="2.85114">
        <ele>1043</ele>
        <time>2022-08-17T12:10:12Z</time>
      </trkpt>
      <trkpt lat="45.67193" lon="2.85109">
        <ele>1043</ele>
        <time>2022-08-17T12:10:13Z</time>
      </trkpt>
      <trkpt lat="45.67192" lon="2.85105">
        <ele>1043</ele>
        <time>2022-08-17T12:10:14Z</time>
      </trkpt>
      <trkpt lat="45.6719" lon="2.851">
        <ele>1043</ele>
        <time>2022-08-17T12:10:15Z</time>
      </trkpt>
      <trkpt lat="45.67188" lon="2.85095">
        <ele>1043</ele>
        <time>2022-08-17T12:10:16Z</time>
      </trkpt>
      <trkpt lat="45.67186" lon="2.8509">
        <ele>1043</ele>
        <time>2022-08-17T12:10:17Z</time>
      </trkpt>
      <trkpt lat="45.67184" lon="2.85085">
        <ele>1044</ele>
        <time>2022-08-17T12:10:18Z</time>
      </trkpt>
      <trkpt lat="45.67177" lon="2.85075">
        <ele>1044</ele>
        <time>2022-08-17T12:10:19Z</time>
      </trkpt>
      <trkpt lat="45.67174" lon="2.85069">
        <ele>1044</ele>
        <time>2022-08-17T12:10:20Z</time>
      </trkpt>
      <trkpt lat="45.67171" lon="2.85064">
        <ele>1044</ele>
        <time>2022-08-17T12:10:21Z</time>
      </trkpt>
      <trkpt lat="45.67167" lon="2.85059">
        <ele>1044</ele>
        <time>2022-08-17T12:10:22Z</time>
      </trkpt>
      <trkpt lat="45.67164" lon="2.85053">
        <ele>1044</ele>
        <time>2022-08-17T12:10:23Z</time>
      </trkpt>
      <trkpt lat="45.6716" lon="2.85048">
        <ele>1044</ele>
        <time>2022-08-17T12:10:24Z</time>
      </trkpt>
      <trkpt lat="45.67157" lon="2.85043">
        <ele>1044</ele>
        <time>2022-08-17T12:10:25Z</time>
      </trkpt>
      <trkpt lat="45.67153" lon="2.85037">
        <ele>1044</ele>
        <time>2022-08-17T12:10:26Z</time>
      </trkpt>
      <trkpt lat="45.6715" lon="2.85032">
        <ele>1044</ele>
        <time>2022-08-17T12:10:27Z</time>
      </trkpt>
      <trkpt lat="45.67147" lon="2.85027">
        <ele>1044</ele>
        <time>2022-08-17T12:10:28Z</time>
      </trkpt>
      <trkpt lat="45.67136" lon="2.85014">
        <ele>1044</ele>
        <time>2022-08-17T12:10:29Z</time>
      </trkpt>
      <trkpt lat="45.6713" lon="2.85008">
        <ele>1044</ele>
        <time>2022-08-17T12:10:30Z</time>
      </trkpt>
      <trkpt lat="45.67125" lon="2.85003">
        <ele>1044</ele>
        <time>2022-08-17T12:10:31Z</time>
      </trkpt>
      <trkpt lat="45.67119" lon="2.84997">
        <ele>1044</ele>
        <time>2022-08-17T12:10:32Z</time>
      </trkpt>
      <trkpt lat="45.67113" lon="2.84991">
        <ele>1044</ele>
        <time>2022-08-17T12:10:33Z</time>
      </trkpt>
      <trkpt lat="45.67107" lon="2.84985">
        <ele>1044</ele>
        <time>2022-08-17T12:10:34Z</time>
      </trkpt>
      <trkpt lat="45.67102" lon="2.84979">
        <ele>1044</ele>
        <time>2022-08-17T12:10:35Z</time>
      </trkpt>
      <trkpt lat="45.67096" lon="2.84973">
        <ele>1044</ele>
        <time>2022-08-17T12:10:36Z</time>
      </trkpt>
      <trkpt lat="45.6709" lon="2.84967">
        <ele>1044</ele>
        <time>2022-08-17T12:10:37Z</time>
      </trkpt>
      <trkpt lat="45.67084" lon="2.84961">
        <ele>1042</ele>
        <time>2022-08-17T12:10:38Z</time>
      </trkpt>
      <trkpt lat="45.67073" lon="2.84946">
        <ele>1042</ele>
        <time>2022-08-17T12:10:39Z</time>
      </trkpt>
      <trkpt lat="45.67069" lon="2.84937">
        <ele>1042</ele>
        <time>2022-08-17T12:10:40Z</time>
      </trkpt>
      <trkpt lat="45.67065" lon="2.84928">
        <ele>1042</ele>
        <time>2022-08-17T12:10:41Z</time>
      </trkpt>
      <trkpt lat="45.6706" lon="2.8492">
        <ele>1042</ele>
        <time>2022-08-17T12:10:42Z</time>
      </trkpt>
      <trkpt lat="45.67056" lon="2.84911">
        <ele>1042</ele>
        <time>2022-08-17T12:10:43Z</time>
      </trkpt>
      <trkpt lat="45.67052" lon="2.84902">
        <ele>1042</ele>
        <time>2022-08-17T12:10:44Z</time>
      </trkpt>
      <trkpt lat="45.67048" lon="2.84893">
        <ele>1042</ele>
        <time>2022-08-17T12:10:45Z</time>
      </trkpt>
      <trkpt lat="45.67044" lon="2.84884">
        <ele>1042</ele>
        <time>2022-08-17T12:10:46Z</time>
      </trkpt>
      <trkpt lat="45.67039" lon="2.84875">
        <ele>1042</ele>
        <time>2022-08-17T12:10:47Z</time>
      </trkpt>
      <trkpt lat="45.67035" lon="2.84867">
        <ele>1033</ele>
        <time>2022-08-17T12:10:48Z</time>
      </trkpt>
      <trkpt lat="45.67036" lon="2.84853">
        <ele>1033</ele>
        <time>2022-08-17T12:10:49Z</time>
      </trkpt>
      <trkpt lat="45.67037" lon="2.84825">
        <ele>1033</ele>
        <time>2022-08-17T12:10:51Z</time>
      </trkpt>
      <trkpt lat="45.67038" lon="2.84811">
        <ele>1033</ele>
        <time>2022-08-17T12:10:52Z</time>
      </trkpt>
      <trkpt lat="45.67039" lon="2.84796">
        <ele>1033</ele>
        <time>2022-08-17T12:10:53Z</time>
      </trkpt>
      <trkpt lat="45.67042" lon="2.84782">
        <ele>1033</ele>
        <time>2022-08-17T12:10:54Z</time>
      </trkpt>
      <trkpt lat="45.67047" lon="2.84768">
        <ele>1033</ele>
        <time>2022-08-17T12:10:55Z</time>
      </trkpt>
      <trkpt lat="45.67051" lon="2.84755">
        <ele>1033</ele>
        <time>2022-08-17T12:10:56Z</time>
      </trkpt>
      <trkpt lat="45.67055" lon="2.84742">
        <ele>1033</ele>
        <time>2022-08-17T12:10:57Z</time>
      </trkpt>
      <trkpt lat="45.67059" lon="2.84728">
        <ele>1025</ele>
        <time>2022-08-17T12:10:58Z</time>
      </trkpt>
      <trkpt lat="45.67063" lon="2.84715">
        <ele>1025</ele>
        <time>2022-08-17T12:10:59Z</time>
      </trkpt>
      <trkpt lat="45.67068" lon="2.84701">
        <ele>1025</ele>
        <time>2022-08-17T12:11:00Z</time>
      </trkpt>
      <trkpt lat="45.67072" lon="2.84687">
        <ele>1025</ele>
        <time>2022-08-17T12:11:01Z</time>
      </trkpt>
      <trkpt lat="45.67075" lon="2.84673">
        <ele>1025</ele>
        <time>2022-08-17T12:11:02Z</time>
      </trkpt>
      <trkpt lat="45.6708" lon="2.84659">
        <ele>1025</ele>
        <time>2022-08-17T12:11:03Z</time>
      </trkpt>
      <trkpt lat="45.67084" lon="2.84645">
        <ele>1025</ele>
        <time>2022-08-17T12:11:04Z</time>
      </trkpt>
      <trkpt lat="45.67087" lon="2.84631">
        <ele>1025</ele>
        <time>2022-08-17T12:11:05Z</time>
      </trkpt>
      <trkpt lat="45.67093" lon="2.84605">
        <ele>1025</ele>
        <time>2022-08-17T12:11:07Z</time>
      </trkpt>
      <trkpt lat="45.67094" lon="2.84593">
        <ele>1017</ele>
        <time>2022-08-17T12:11:08Z</time>
      </trkpt>
      <trkpt lat="45.67088" lon="2.84565">
        <ele>1017</ele>
        <time>2022-08-17T12:11:09Z</time>
      </trkpt>
      <trkpt lat="45.67082" lon="2.8455">
        <ele>1017</ele>
        <time>2022-08-17T12:11:11Z</time>
      </trkpt>
      <trkpt lat="45.67075" lon="2.84535">
        <ele>1017</ele>
        <time>2022-08-17T12:11:12Z</time>
      </trkpt>
      <trkpt lat="45.67069" lon="2.8452">
        <ele>1017</ele>
        <time>2022-08-17T12:11:13Z</time>
      </trkpt>
      <trkpt lat="45.67062" lon="2.84505">
        <ele>1017</ele>
        <time>2022-08-17T12:11:15Z</time>
      </trkpt>
      <trkpt lat="45.67055" lon="2.8449">
        <ele>1017</ele>
        <time>2022-08-17T12:11:16Z</time>
      </trkpt>
      <trkpt lat="45.67049" lon="2.84475">
        <ele>1011</ele>
        <time>2022-08-17T12:11:18Z</time>
      </trkpt>
      <trkpt lat="45.67046" lon="2.84462">
        <ele>1011</ele>
        <time>2022-08-17T12:11:19Z</time>
      </trkpt>
      <trkpt lat="45.67043" lon="2.84448">
        <ele>1011</ele>
        <time>2022-08-17T12:11:20Z</time>
      </trkpt>
      <trkpt lat="45.6704" lon="2.84434">
        <ele>1011</ele>
        <time>2022-08-17T12:11:21Z</time>
      </trkpt>
      <trkpt lat="45.67037" lon="2.84419">
        <ele>1011</ele>
        <time>2022-08-17T12:11:22Z</time>
      </trkpt>
      <trkpt lat="45.67034" lon="2.84405">
        <ele>1011</ele>
        <time>2022-08-17T12:11:23Z</time>
      </trkpt>
      <trkpt lat="45.67031" lon="2.84391">
        <ele>1011</ele>
        <time>2022-08-17T12:11:24Z</time>
      </trkpt>
      <trkpt lat="45.67028" lon="2.84376">
        <ele>1011</ele>
        <time>2022-08-17T12:11:25Z</time>
      </trkpt>
      <trkpt lat="45.67024" lon="2.84362">
        <ele>1011</ele>
        <time>2022-08-17T12:11:26Z</time>
      </trkpt>
      <trkpt lat="45.67019" lon="2.8434">
        <ele>1011</ele>
        <time>2022-08-17T12:11:27Z</time>
      </trkpt>
      <trkpt lat="45.67018" lon="2.84333">
        <ele>1006</ele>
        <time>2022-08-17T12:11:28Z</time>
      </trkpt>
      <trkpt lat="45.67014" lon="2.84319">
        <ele>1006</ele>
        <time>2022-08-17T12:11:29Z</time>
      </trkpt>
      <trkpt lat="45.67006" lon="2.84294">
        <ele>1006</ele>
        <time>2022-08-17T12:11:31Z</time>
      </trkpt>
      <trkpt lat="45.66993" lon="2.84272">
        <ele>1006</ele>
        <time>2022-08-17T12:11:33Z</time>
      </trkpt>
      <trkpt lat="45.66978" lon="2.84256">
        <ele>1006</ele>
        <time>2022-08-17T12:11:35Z</time>
      </trkpt>
      <trkpt lat="45.66968" lon="2.84249">
        <ele>1006</ele>
        <time>2022-08-17T12:11:36Z</time>
      </trkpt>
      <trkpt lat="45.66958" lon="2.84243">
        <ele>1006</ele>
        <time>2022-08-17T12:11:37Z</time>
      </trkpt>
      <trkpt lat="45.66946" lon="2.84237">
        <ele>996</ele>
        <time>2022-08-17T12:11:38Z</time>
      </trkpt>
      <trkpt lat="45.66935" lon="2.84231">
        <ele>996</ele>
        <time>2022-08-17T12:11:39Z</time>
      </trkpt>
      <trkpt lat="45.66911" lon="2.84217">
        <ele>996</ele>
        <time>2022-08-17T12:11:41Z</time>
      </trkpt>
      <trkpt lat="45.66901" lon="2.84211">
        <ele>996</ele>
        <time>2022-08-17T12:11:42Z</time>
      </trkpt>
      <trkpt lat="45.6689" lon="2.84207">
        <ele>996</ele>
        <time>2022-08-17T12:11:43Z</time>
      </trkpt>
      <trkpt lat="45.66878" lon="2.84203">
        <ele>996</ele>
        <time>2022-08-17T12:11:44Z</time>
      </trkpt>
      <trkpt lat="45.66867" lon="2.84201">
        <ele>996</ele>
        <time>2022-08-17T12:11:45Z</time>
      </trkpt>
      <trkpt lat="45.66855" lon="2.84201">
        <ele>996</ele>
        <time>2022-08-17T12:11:46Z</time>
      </trkpt>
      <trkpt lat="45.66838" lon="2.84201">
        <ele>996</ele>
        <time>2022-08-17T12:11:47Z</time>
      </trkpt>
      <trkpt lat="45.66832" lon="2.84201">
        <ele>989</ele>
        <time>2022-08-17T12:11:48Z</time>
      </trkpt>
      <trkpt lat="45.6681" lon="2.84202">
        <ele>989</ele>
        <time>2022-08-17T12:11:49Z</time>
      </trkpt>
      <trkpt lat="45.66799" lon="2.84202">
        <ele>989</ele>
        <time>2022-08-17T12:11:50Z</time>
      </trkpt>
      <trkpt lat="45.66788" lon="2.84202">
        <ele>989</ele>
        <time>2022-08-17T12:11:51Z</time>
      </trkpt>
      <trkpt lat="45.66777" lon="2.84202">
        <ele>989</ele>
        <time>2022-08-17T12:11:53Z</time>
      </trkpt>
      <trkpt lat="45.66766" lon="2.84202">
        <ele>989</ele>
        <time>2022-08-17T12:11:55Z</time>
      </trkpt>
      <trkpt lat="45.66755" lon="2.84203">
        <ele>989</ele>
        <time>2022-08-17T12:11:57Z</time>
      </trkpt>
      <trkpt lat="45.66744" lon="2.84203">
        <ele>981</ele>
        <time>2022-08-17T12:11:58Z</time>
      </trkpt>
      <trkpt lat="45.66737" lon="2.84196">
        <ele>981</ele>
        <time>2022-08-17T12:11:59Z</time>
      </trkpt>
      <trkpt lat="45.66722" lon="2.84182">
        <ele>981</ele>
        <time>2022-08-17T12:12:01Z</time>
      </trkpt>
      <trkpt lat="45.66706" lon="2.8417">
        <ele>981</ele>
        <time>2022-08-17T12:12:03Z</time>
      </trkpt>
      <trkpt lat="45.66687" lon="2.8416">
        <ele>981</ele>
        <time>2022-08-17T12:12:05Z</time>
      </trkpt>
      <trkpt lat="45.66677" lon="2.84156">
        <ele>981</ele>
        <time>2022-08-17T12:12:06Z</time>
      </trkpt>
      <trkpt lat="45.66667" lon="2.84152">
        <ele>981</ele>
        <time>2022-08-17T12:12:07Z</time>
      </trkpt>
      <trkpt lat="45.66657" lon="2.84146">
        <ele>975</ele>
        <time>2022-08-17T12:12:08Z</time>
      </trkpt>
      <trkpt lat="45.66647" lon="2.8414">
        <ele>975</ele>
        <time>2022-08-17T12:12:09Z</time>
      </trkpt>
      <trkpt lat="45.66637" lon="2.84133">
        <ele>975</ele>
        <time>2022-08-17T12:12:10Z</time>
      </trkpt>
      <trkpt lat="45.66627" lon="2.84126">
        <ele>975</ele>
        <time>2022-08-17T12:12:11Z</time>
      </trkpt>
      <trkpt lat="45.66617" lon="2.84118">
        <ele>975</ele>
        <time>2022-08-17T12:12:12Z</time>
      </trkpt>
      <trkpt lat="45.66608" lon="2.8411">
        <ele>975</ele>
        <time>2022-08-17T12:12:13Z</time>
      </trkpt>
      <trkpt lat="45.66599" lon="2.84101">
        <ele>975</ele>
        <time>2022-08-17T12:12:14Z</time>
      </trkpt>
      <trkpt lat="45.66592" lon="2.84092">
        <ele>975</ele>
        <time>2022-08-17T12:12:15Z</time>
      </trkpt>
      <trkpt lat="45.66587" lon="2.84081">
        <ele>975</ele>
        <time>2022-08-17T12:12:16Z</time>
      </trkpt>
      <trkpt lat="45.66582" lon="2.84062">
        <ele>975</ele>
        <time>2022-08-17T12:12:17Z</time>
      </trkpt>
      <trkpt lat="45.66581" lon="2.84056">
        <ele>966</ele>
        <time>2022-08-17T12:12:18Z</time>
      </trkpt>
      <trkpt lat="45.66585" lon="2.84036">
        <ele>966</ele>
        <time>2022-08-17T12:12:19Z</time>
      </trkpt>
      <trkpt lat="45.6659" lon="2.8403">
        <ele>966</ele>
        <time>2022-08-17T12:12:20Z</time>
      </trkpt>
      <trkpt lat="45.66596" lon="2.84024">
        <ele>966</ele>
        <time>2022-08-17T12:12:21Z</time>
      </trkpt>
      <trkpt lat="45.66602" lon="2.84018">
        <ele>966</ele>
        <time>2022-08-17T12:12:22Z</time>
      </trkpt>
      <trkpt lat="45.66607" lon="2.84012">
        <ele>966</ele>
        <time>2022-08-17T12:12:23Z</time>
      </trkpt>
      <trkpt lat="45.66613" lon="2.84006">
        <ele>966</ele>
        <time>2022-08-17T12:12:25Z</time>
      </trkpt>
      <trkpt lat="45.66619" lon="2.84">
        <ele>966</ele>
        <time>2022-08-17T12:12:27Z</time>
      </trkpt>
      <trkpt lat="45.66624" lon="2.83994">
        <ele>968</ele>
        <time>2022-08-17T12:12:28Z</time>
      </trkpt>
      <trkpt lat="45.66638" lon="2.83995">
        <ele>968</ele>
        <time>2022-08-17T12:12:29Z</time>
      </trkpt>
      <trkpt lat="45.66646" lon="2.83994">
        <ele>968</ele>
        <time>2022-08-17T12:12:31Z</time>
      </trkpt>
      <trkpt lat="45.66655" lon="2.83994">
        <ele>968</ele>
        <time>2022-08-17T12:12:33Z</time>
      </trkpt>
      <trkpt lat="45.66663" lon="2.83993">
        <ele>968</ele>
        <time>2022-08-17T12:12:36Z</time>
      </trkpt>
      <trkpt lat="45.66671" lon="2.83993">
        <ele>970</ele>
        <time>2022-08-17T12:12:38Z</time>
      </trkpt>
      <trkpt lat="45.66681" lon="2.83988">
        <ele>970</ele>
        <time>2022-08-17T12:12:39Z</time>
      </trkpt>
      <trkpt lat="45.66686" lon="2.83984">
        <ele>970</ele>
        <time>2022-08-17T12:12:40Z</time>
      </trkpt>
      <trkpt lat="45.66692" lon="2.83981">
        <ele>970</ele>
        <time>2022-08-17T12:12:42Z</time>
      </trkpt>
      <trkpt lat="45.66697" lon="2.83977">
        <ele>970</ele>
        <time>2022-08-17T12:12:44Z</time>
      </trkpt>
      <trkpt lat="45.66703" lon="2.83974">
        <ele>970</ele>
        <time>2022-08-17T12:12:46Z</time>
      </trkpt>
      <trkpt lat="45.66708" lon="2.83971">
        <ele>973</ele>
        <time>2022-08-17T12:12:48Z</time>
      </trkpt>
      <trkpt lat="45.66719" lon="2.8396">
        <ele>973</ele>
        <time>2022-08-17T12:12:50Z</time>
      </trkpt>
      <trkpt lat="45.66724" lon="2.83955">
        <ele>973</ele>
        <time>2022-08-17T12:12:52Z</time>
      </trkpt>
      <trkpt lat="45.66729" lon="2.8395">
        <ele>973</ele>
        <time>2022-08-17T12:12:54Z</time>
      </trkpt>
      <trkpt lat="45.66733" lon="2.83946">
        <ele>973</ele>
        <time>2022-08-17T12:12:56Z</time>
      </trkpt>
      <trkpt lat="45.66738" lon="2.83941">
        <ele>974</ele>
        <time>2022-08-17T12:12:58Z</time>
      </trkpt>
      <trkpt lat="45.66746" lon="2.83929">
        <ele>974</ele>
        <time>2022-08-17T12:13:00Z</time>
      </trkpt>
      <trkpt lat="45.6675" lon="2.83925">
        <ele>974</ele>
        <time>2022-08-17T12:13:02Z</time>
      </trkpt>
      <trkpt lat="45.66754" lon="2.8392">
        <ele>974</ele>
        <time>2022-08-17T12:13:06Z</time>
      </trkpt>
      <trkpt lat="45.66757" lon="2.83916">
        <ele>975</ele>
        <time>2022-08-17T12:13:08Z</time>
      </trkpt>
      <trkpt lat="45.66773" lon="2.83909">
        <ele>975</ele>
        <time>2022-08-17T12:13:09Z</time>
      </trkpt>
      <trkpt lat="45.66778" lon="2.83907">
        <ele>975</ele>
        <time>2022-08-17T12:13:12Z</time>
      </trkpt>
      <trkpt lat="45.66783" lon="2.83905">
        <ele>975</ele>
        <time>2022-08-17T12:13:15Z</time>
      </trkpt>
      <trkpt lat="45.66788" lon="2.83903">
        <ele>977</ele>
        <time>2022-08-17T12:13:18Z</time>
      </trkpt>
      <trkpt lat="45.66807" lon="2.83899">
        <ele>977</ele>
        <time>2022-08-17T12:13:19Z</time>
      </trkpt>
      <trkpt lat="45.66812" lon="2.83898">
        <ele>977</ele>
        <time>2022-08-17T12:13:23Z</time>
      </trkpt>
      <trkpt lat="45.66817" lon="2.83896">
        <ele>977</ele>
        <time>2022-08-17T12:13:26Z</time>
      </trkpt>
      <trkpt lat="45.66823" lon="2.83894">
        <ele>979</ele>
        <time>2022-08-17T12:13:28Z</time>
      </trkpt>
      <trkpt lat="45.66833" lon="2.8389">
        <ele>979</ele>
        <time>2022-08-17T12:13:29Z</time>
      </trkpt>
      <trkpt lat="45.66843" lon="2.83885">
        <ele>979</ele>
        <time>2022-08-17T12:13:32Z</time>
      </trkpt>
      <trkpt lat="45.66852" lon="2.83879">
        <ele>979</ele>
        <time>2022-08-17T12:13:35Z</time>
      </trkpt>
      <trkpt lat="45.66861" lon="2.83873">
        <ele>981</ele>
        <time>2022-08-17T12:13:38Z</time>
      </trkpt>
      <trkpt lat="45.66876" lon="2.83863">
        <ele>981</ele>
        <time>2022-08-17T12:13:41Z</time>
      </trkpt>
      <trkpt lat="45.66881" lon="2.8386">
        <ele>981</ele>
        <time>2022-08-17T12:13:44Z</time>
      </trkpt>
      <trkpt lat="45.66887" lon="2.83856">
        <ele>981</ele>
        <time>2022-08-17T12:13:47Z</time>
      </trkpt>
      <trkpt lat="45.66893" lon="2.83852">
        <ele>985</ele>
        <time>2022-08-17T12:13:48Z</time>
      </trkpt>
      <trkpt lat="45.66904" lon="2.83846">
        <ele>985</ele>
        <time>2022-08-17T12:13:50Z</time>
      </trkpt>
      <trkpt lat="45.66909" lon="2.83844">
        <ele>985</ele>
        <time>2022-08-17T12:13:53Z</time>
      </trkpt>
      <trkpt lat="45.66913" lon="2.83842">
        <ele>985</ele>
        <time>2022-08-17T12:13:56Z</time>
      </trkpt>
      <trkpt lat="45.66918" lon="2.8384">
        <ele>988</ele>
        <time>2022-08-17T12:13:58Z</time>
      </trkpt>
      <trkpt lat="45.66928" lon="2.83836">
        <ele>988</ele>
        <time>2022-08-17T12:13:59Z</time>
      </trkpt>
      <trkpt lat="45.66937" lon="2.83833">
        <ele>988</ele>
        <time>2022-08-17T12:14:02Z</time>
      </trkpt>
      <trkpt lat="45.66947" lon="2.83829">
        <ele>988</ele>
        <time>2022-08-17T12:14:05Z</time>
      </trkpt>
      <trkpt lat="45.66947" lon="2.83829">
        <ele>990</ele>
        <time>2022-08-17T12:14:08Z</time>
      </trkpt>
      <trkpt lat="45.66958" lon="2.83825">
        <ele>990</ele>
        <time>2022-08-17T12:14:09Z</time>
      </trkpt>
      <trkpt lat="45.66968" lon="2.83822">
        <ele>990</ele>
        <time>2022-08-17T12:14:12Z</time>
      </trkpt>
      <trkpt lat="45.66979" lon="2.8382">
        <ele>990</ele>
        <time>2022-08-17T12:14:15Z</time>
      </trkpt>
      <trkpt lat="45.66989" lon="2.83818">
        <ele>990</ele>
        <time>2022-08-17T12:14:18Z</time>
      </trkpt>
      <trkpt lat="45.67009" lon="2.83815">
        <ele>990</ele>
        <time>2022-08-17T12:14:22Z</time>
      </trkpt>
      <trkpt lat="45.67016" lon="2.83816">
        <ele>990</ele>
        <time>2022-08-17T12:14:25Z</time>
      </trkpt>
      <trkpt lat="45.67023" lon="2.83816">
        <ele>991</ele>
        <time>2022-08-17T12:14:28Z</time>
      </trkpt>
      <trkpt lat="45.67038" lon="2.83817">
        <ele>991</ele>
        <time>2022-08-17T12:14:31Z</time>
      </trkpt>
      <trkpt lat="45.67044" lon="2.83818">
        <ele>991</ele>
        <time>2022-08-17T12:14:34Z</time>
      </trkpt>
      <trkpt lat="45.67049" lon="2.83818">
        <ele>991</ele>
        <time>2022-08-17T12:14:37Z</time>
      </trkpt>
      <trkpt lat="45.67055" lon="2.83819">
        <ele>992</ele>
        <time>2022-08-17T12:14:38Z</time>
      </trkpt>
      <trkpt lat="45.67064" lon="2.83815">
        <ele>992</ele>
        <time>2022-08-17T12:14:40Z</time>
      </trkpt>
      <trkpt lat="45.67068" lon="2.83812">
        <ele>992</ele>
        <time>2022-08-17T12:14:43Z</time>
      </trkpt>
      <trkpt lat="45.67073" lon="2.83809">
        <ele>992</ele>
        <time>2022-08-17T12:14:46Z</time>
      </trkpt>
      <trkpt lat="45.67077" lon="2.83806">
        <ele>994</ele>
        <time>2022-08-17T12:14:48Z</time>
      </trkpt>
      <trkpt lat="45.67089" lon="2.83808">
        <ele>994</ele>
        <time>2022-08-17T12:14:50Z</time>
      </trkpt>
      <trkpt lat="45.67101" lon="2.83816">
        <ele>994</ele>
        <time>2022-08-17T12:14:54Z</time>
      </trkpt>
      <trkpt lat="45.67111" lon="2.83826">
        <ele>996</ele>
        <time>2022-08-17T12:14:58Z</time>
      </trkpt>
      <trkpt lat="45.67124" lon="2.83831">
        <ele>996</ele>
        <time>2022-08-17T12:15:02Z</time>
      </trkpt>
      <trkpt lat="45.67128" lon="2.83833">
        <ele>996</ele>
        <time>2022-08-17T12:15:06Z</time>
      </trkpt>
      <trkpt lat="45.67132" lon="2.83834">
        <ele>998</ele>
        <time>2022-08-17T12:15:08Z</time>
      </trkpt>
      <trkpt lat="45.67146" lon="2.83837">
        <ele>998</ele>
        <time>2022-08-17T12:15:09Z</time>
      </trkpt>
      <trkpt lat="45.67151" lon="2.83838">
        <ele>998</ele>
        <time>2022-08-17T12:15:12Z</time>
      </trkpt>
      <trkpt lat="45.67155" lon="2.8384">
        <ele>998</ele>
        <time>2022-08-17T12:15:16Z</time>
      </trkpt>
      <trkpt lat="45.6716" lon="2.83841">
        <ele>999</ele>
        <time>2022-08-17T12:15:18Z</time>
      </trkpt>
      <trkpt lat="45.67178" lon="2.83847">
        <ele>999</ele>
        <time>2022-08-17T12:15:20Z</time>
      </trkpt>
      <trkpt lat="45.67185" lon="2.83849">
        <ele>999</ele>
        <time>2022-08-17T12:15:24Z</time>
      </trkpt>
      <trkpt lat="45.67191" lon="2.8385">
        <ele>999</ele>
        <time>2022-08-17T12:15:27Z</time>
      </trkpt>
      <trkpt lat="45.67197" lon="2.83852">
        <ele>1005</ele>
        <time>2022-08-17T12:15:28Z</time>
      </trkpt>
      <trkpt lat="45.67205" lon="2.83851">
        <ele>1005</ele>
        <time>2022-08-17T12:15:29Z</time>
      </trkpt>
      <trkpt lat="45.6721" lon="2.8385">
        <ele>1005</ele>
        <time>2022-08-17T12:15:31Z</time>
      </trkpt>
      <trkpt lat="45.67215" lon="2.8385">
        <ele>1005</ele>
        <time>2022-08-17T12:15:34Z</time>
      </trkpt>
      <trkpt lat="45.6722" lon="2.83849">
        <ele>1005</ele>
        <time>2022-08-17T12:15:37Z</time>
      </trkpt>
      <trkpt lat="45.67225" lon="2.83848">
        <ele>1007</ele>
        <time>2022-08-17T12:15:38Z</time>
      </trkpt>
      <trkpt lat="45.67235" lon="2.83836">
        <ele>1007</ele>
        <time>2022-08-17T12:15:41Z</time>
      </trkpt>
      <trkpt lat="45.67238" lon="2.8383">
        <ele>1007</ele>
        <time>2022-08-17T12:15:44Z</time>
      </trkpt>
      <trkpt lat="45.67241" lon="2.83824">
        <ele>1007</ele>
        <time>2022-08-17T12:15:47Z</time>
      </trkpt>
      <trkpt lat="45.67245" lon="2.83818">
        <ele>1010</ele>
        <time>2022-08-17T12:15:48Z</time>
      </trkpt>
      <trkpt lat="45.67245" lon="2.83814">
        <ele>1010</ele>
        <time>2022-08-17T12:15:49Z</time>
      </trkpt>
      <trkpt lat="45.67245" lon="2.838">
        <ele>1010</ele>
        <time>2022-08-17T12:15:52Z</time>
      </trkpt>
      <trkpt lat="45.67246" lon="2.83786">
        <ele>1010</ele>
        <time>2022-08-17T12:15:55Z</time>
      </trkpt>
      <trkpt lat="45.67248" lon="2.83772">
        <ele>1010</ele>
        <time>2022-08-17T12:15:58Z</time>
      </trkpt>
      <trkpt lat="45.6725" lon="2.83751">
        <ele>1010</ele>
        <time>2022-08-17T12:16:01Z</time>
      </trkpt>
      <trkpt lat="45.6725" lon="2.83745">
        <ele>1010</ele>
        <time>2022-08-17T12:16:03Z</time>
      </trkpt>
      <trkpt lat="45.6725" lon="2.83738">
        <ele>1010</ele>
        <time>2022-08-17T12:16:05Z</time>
      </trkpt>
      <trkpt lat="45.6725" lon="2.83732">
        <ele>1010</ele>
        <time>2022-08-17T12:16:07Z</time>
      </trkpt>
      <trkpt lat="45.6725" lon="2.83725">
        <ele>1014</ele>
        <time>2022-08-17T12:16:08Z</time>
      </trkpt>
      <trkpt lat="45.67248" lon="2.83714">
        <ele>1014</ele>
        <time>2022-08-17T12:16:09Z</time>
      </trkpt>
      <trkpt lat="45.67246" lon="2.83708">
        <ele>1014</ele>
        <time>2022-08-17T12:16:11Z</time>
      </trkpt>
      <trkpt lat="45.67244" lon="2.83701">
        <ele>1014</ele>
        <time>2022-08-17T12:16:13Z</time>
      </trkpt>
      <trkpt lat="45.67242" lon="2.83695">
        <ele>1014</ele>
        <time>2022-08-17T12:16:15Z</time>
      </trkpt>
      <trkpt lat="45.6724" lon="2.83689">
        <ele>1014</ele>
        <time>2022-08-17T12:16:17Z</time>
      </trkpt>
      <trkpt lat="45.67238" lon="2.83683">
        <ele>1014</ele>
        <time>2022-08-17T12:16:18Z</time>
      </trkpt>
      <trkpt lat="45.67234" lon="2.83667">
        <ele>1014</ele>
        <time>2022-08-17T12:16:20Z</time>
      </trkpt>
      <trkpt lat="45.67232" lon="2.83659">
        <ele>1014</ele>
        <time>2022-08-17T12:16:22Z</time>
      </trkpt>
      <trkpt lat="45.67231" lon="2.83652">
        <ele>1014</ele>
        <time>2022-08-17T12:16:24Z</time>
      </trkpt>
      <trkpt lat="45.6723" lon="2.83644">
        <ele>1014</ele>
        <time>2022-08-17T12:16:26Z</time>
      </trkpt>
      <trkpt lat="45.67229" lon="2.83637">
        <ele>1018</ele>
        <time>2022-08-17T12:16:28Z</time>
      </trkpt>
      <trkpt lat="45.6723" lon="2.83627">
        <ele>1018</ele>
        <time>2022-08-17T12:16:30Z</time>
      </trkpt>
      <trkpt lat="45.67233" lon="2.83618">
        <ele>1018</ele>
        <time>2022-08-17T12:16:32Z</time>
      </trkpt>
      <trkpt lat="45.67239" lon="2.83607">
        <ele>1018</ele>
        <time>2022-08-17T12:16:35Z</time>
      </trkpt>
      <trkpt lat="45.67244" lon="2.83594">
        <ele>1019</ele>
        <time>2022-08-17T12:16:38Z</time>
      </trkpt>
      <trkpt lat="45.6725" lon="2.83581">
        <ele>1019</ele>
        <time>2022-08-17T12:16:40Z</time>
      </trkpt>
      <trkpt lat="45.67253" lon="2.83576">
        <ele>1019</ele>
        <time>2022-08-17T12:16:43Z</time>
      </trkpt>
      <trkpt lat="45.67256" lon="2.83571">
        <ele>1019</ele>
        <time>2022-08-17T12:16:46Z</time>
      </trkpt>
      <trkpt lat="45.67258" lon="2.83565">
        <ele>1021</ele>
        <time>2022-08-17T12:16:48Z</time>
      </trkpt>
      <trkpt lat="45.67266" lon="2.83548">
        <ele>1021</ele>
        <time>2022-08-17T12:16:49Z</time>
      </trkpt>
      <trkpt lat="45.67269" lon="2.83542">
        <ele>1021</ele>
        <time>2022-08-17T12:16:51Z</time>
      </trkpt>
      <trkpt lat="45.67272" lon="2.83536">
        <ele>1021</ele>
        <time>2022-08-17T12:16:53Z</time>
      </trkpt>
      <trkpt lat="45.67275" lon="2.8353">
        <ele>1021</ele>
        <time>2022-08-17T12:16:55Z</time>
      </trkpt>
      <trkpt lat="45.67278" lon="2.83525">
        <ele>1021</ele>
        <time>2022-08-17T12:16:57Z</time>
      </trkpt>
      <trkpt lat="45.67281" lon="2.83519">
        <ele>1025</ele>
        <time>2022-08-17T12:16:58Z</time>
      </trkpt>
      <trkpt lat="45.67283" lon="2.83515">
        <ele>1025</ele>
        <time>2022-08-17T12:16:59Z</time>
      </trkpt>
      <trkpt lat="45.67289" lon="2.83504">
        <ele>1025</ele>
        <time>2022-08-17T12:17:02Z</time>
      </trkpt>
      <trkpt lat="45.67295" lon="2.83492">
        <ele>1025</ele>
        <time>2022-08-17T12:17:05Z</time>
      </trkpt>
      <trkpt lat="45.67302" lon="2.83482">
        <ele>1028</ele>
        <time>2022-08-17T12:17:08Z</time>
      </trkpt>
      <trkpt lat="45.67312" lon="2.8347">
        <ele>1028</ele>
        <time>2022-08-17T12:17:10Z</time>
      </trkpt>
      <trkpt lat="45.67316" lon="2.83465">
        <ele>1028</ele>
        <time>2022-08-17T12:17:12Z</time>
      </trkpt>
      <trkpt lat="45.6732" lon="2.8346">
        <ele>1028</ele>
        <time>2022-08-17T12:17:14Z</time>
      </trkpt>
      <trkpt lat="45.67325" lon="2.83454">
        <ele>1028</ele>
        <time>2022-08-17T12:17:16Z</time>
      </trkpt>
      <trkpt lat="45.67329" lon="2.83449">
        <ele>1031</ele>
        <time>2022-08-17T12:17:18Z</time>
      </trkpt>
      <trkpt lat="45.67339" lon="2.83436">
        <ele>1031</ele>
        <time>2022-08-17T12:17:20Z</time>
      </trkpt>
      <trkpt lat="45.67344" lon="2.8343">
        <ele>1031</ele>
        <time>2022-08-17T12:17:23Z</time>
      </trkpt>
      <trkpt lat="45.67349" lon="2.83423">
        <ele>1031</ele>
        <time>2022-08-17T12:17:26Z</time>
      </trkpt>
      <trkpt lat="45.67354" lon="2.83417">
        <ele>1033</ele>
        <time>2022-08-17T12:17:28Z</time>
      </trkpt>
      <trkpt lat="45.67364" lon="2.83406">
        <ele>1033</ele>
        <time>2022-08-17T12:17:30Z</time>
      </trkpt>
      <trkpt lat="45.67368" lon="2.83401">
        <ele>1033</ele>
        <time>2022-08-17T12:17:32Z</time>
      </trkpt>
      <trkpt lat="45.67372" lon="2.83397">
        <ele>1033</ele>
        <time>2022-08-17T12:17:34Z</time>
      </trkpt>
      <trkpt lat="45.67377" lon="2.83392">
        <ele>1033</ele>
        <time>2022-08-17T12:17:36Z</time>
      </trkpt>
      <trkpt lat="45.67381" lon="2.83388">
        <ele>1036</ele>
        <time>2022-08-17T12:17:38Z</time>
      </trkpt>
      <trkpt lat="45.67393" lon="2.83381">
        <ele>1036</ele>
        <time>2022-08-17T12:17:40Z</time>
      </trkpt>
      <trkpt lat="45.67398" lon="2.83379">
        <ele>1036</ele>
        <time>2022-08-17T12:17:42Z</time>
      </trkpt>
      <trkpt lat="45.67404" lon="2.83378">
        <ele>1036</ele>
        <time>2022-08-17T12:17:44Z</time>
      </trkpt>
      <trkpt lat="45.67409" lon="2.83376">
        <ele>1036</ele>
        <time>2022-08-17T12:17:46Z</time>
      </trkpt>
      <trkpt lat="45.67415" lon="2.83374">
        <ele>1038</ele>
        <time>2022-08-17T12:17:48Z</time>
      </trkpt>
      <trkpt lat="45.67427" lon="2.83369">
        <ele>1038</ele>
        <time>2022-08-17T12:17:50Z</time>
      </trkpt>
      <trkpt lat="45.67433" lon="2.83367">
        <ele>1038</ele>
        <time>2022-08-17T12:17:52Z</time>
      </trkpt>
      <trkpt lat="45.67438" lon="2.83364">
        <ele>1038</ele>
        <time>2022-08-17T12:17:54Z</time>
      </trkpt>
      <trkpt lat="45.67444" lon="2.83362">
        <ele>1038</ele>
        <time>2022-08-17T12:17:56Z</time>
      </trkpt>
      <trkpt lat="45.67449" lon="2.83359">
        <ele>1039</ele>
        <time>2022-08-17T12:17:58Z</time>
      </trkpt>
      <trkpt lat="45.67462" lon="2.83353">
        <ele>1039</ele>
        <time>2022-08-17T12:18:00Z</time>
      </trkpt>
      <trkpt lat="45.67468" lon="2.8335">
        <ele>1039</ele>
        <time>2022-08-17T12:18:02Z</time>
      </trkpt>
      <trkpt lat="45.67473" lon="2.83347">
        <ele>1039</ele>
        <time>2022-08-17T12:18:04Z</time>
      </trkpt>
      <trkpt lat="45.67479" lon="2.83345">
        <ele>1039</ele>
        <time>2022-08-17T12:18:06Z</time>
      </trkpt>
      <trkpt lat="45.67485" lon="2.83342">
        <ele>1040</ele>
        <time>2022-08-17T12:18:08Z</time>
      </trkpt>
      <trkpt lat="45.67499" lon="2.83341">
        <ele>1040</ele>
        <time>2022-08-17T12:18:10Z</time>
      </trkpt>
      <trkpt lat="45.67505" lon="2.83341">
        <ele>1040</ele>
        <time>2022-08-17T12:18:12Z</time>
      </trkpt>
      <trkpt lat="45.67511" lon="2.83342">
        <ele>1040</ele>
        <time>2022-08-17T12:18:14Z</time>
      </trkpt>
      <trkpt lat="45.67517" lon="2.83343">
        <ele>1040</ele>
        <time>2022-08-17T12:18:16Z</time>
      </trkpt>
      <trkpt lat="45.67524" lon="2.83343">
        <ele>1040</ele>
        <time>2022-08-17T12:18:18Z</time>
      </trkpt>
      <trkpt lat="45.67538" lon="2.83346">
        <ele>1040</ele>
        <time>2022-08-17T12:18:20Z</time>
      </trkpt>
      <trkpt lat="45.67544" lon="2.83347">
        <ele>1040</ele>
        <time>2022-08-17T12:18:22Z</time>
      </trkpt>
      <trkpt lat="45.6755" lon="2.83349">
        <ele>1040</ele>
        <time>2022-08-17T12:18:24Z</time>
      </trkpt>
      <trkpt lat="45.67556" lon="2.83351">
        <ele>1040</ele>
        <time>2022-08-17T12:18:26Z</time>
      </trkpt>
      <trkpt lat="45.67563" lon="2.83352">
        <ele>1040</ele>
        <time>2022-08-17T12:18:27Z</time>
      </trkpt>
      <trkpt lat="45.67569" lon="2.83354">
        <ele>1040</ele>
        <time>2022-08-17T12:18:28Z</time>
      </trkpt>
      <trkpt lat="45.6758" lon="2.83358">
        <ele>1040</ele>
        <time>2022-08-17T12:18:29Z</time>
      </trkpt>
      <trkpt lat="45.67586" lon="2.83361">
        <ele>1040</ele>
        <time>2022-08-17T12:18:30Z</time>
      </trkpt>
      <trkpt lat="45.67592" lon="2.83363">
        <ele>1040</ele>
        <time>2022-08-17T12:18:31Z</time>
      </trkpt>
      <trkpt lat="45.67598" lon="2.83366">
        <ele>1040</ele>
        <time>2022-08-17T12:18:32Z</time>
      </trkpt>
      <trkpt lat="45.67604" lon="2.83368">
        <ele>1040</ele>
        <time>2022-08-17T12:18:33Z</time>
      </trkpt>
      <trkpt lat="45.6761" lon="2.83371">
        <ele>1040</ele>
        <time>2022-08-17T12:18:34Z</time>
      </trkpt>
      <trkpt lat="45.67616" lon="2.83373">
        <ele>1040</ele>
        <time>2022-08-17T12:18:37Z</time>
      </trkpt>
      <trkpt lat="45.67622" lon="2.83376">
        <ele>1038</ele>
        <time>2022-08-17T12:18:38Z</time>
      </trkpt>
      <trkpt lat="45.67638" lon="2.83379">
        <ele>1038</ele>
        <time>2022-08-17T12:18:39Z</time>
      </trkpt>
      <trkpt lat="45.67646" lon="2.83379">
        <ele>1038</ele>
        <time>2022-08-17T12:18:40Z</time>
      </trkpt>
      <trkpt lat="45.67654" lon="2.83378">
        <ele>1038</ele>
        <time>2022-08-17T12:18:41Z</time>
      </trkpt>
      <trkpt lat="45.67662" lon="2.83378">
        <ele>1038</ele>
        <time>2022-08-17T12:18:42Z</time>
      </trkpt>
      <trkpt lat="45.6767" lon="2.83377">
        <ele>1038</ele>
        <time>2022-08-17T12:18:44Z</time>
      </trkpt>
      <trkpt lat="45.67678" lon="2.83377">
        <ele>1038</ele>
        <time>2022-08-17T12:18:46Z</time>
      </trkpt>
      <trkpt lat="45.67686" lon="2.83376">
        <ele>1037</ele>
        <time>2022-08-17T12:18:48Z</time>
      </trkpt>
      <trkpt lat="45.67706" lon="2.83366">
        <ele>1037</ele>
        <time>2022-08-17T12:18:50Z</time>
      </trkpt>
      <trkpt lat="45.67712" lon="2.83363">
        <ele>1037</ele>
        <time>2022-08-17T12:18:51Z</time>
      </trkpt>
      <trkpt lat="45.67719" lon="2.83359">
        <ele>1037</ele>
        <time>2022-08-17T12:18:52Z</time>
      </trkpt>
      <trkpt lat="45.67725" lon="2.83355">
        <ele>1037</ele>
        <time>2022-08-17T12:18:53Z</time>
      </trkpt>
      <trkpt lat="45.67731" lon="2.83352">
        <ele>1037</ele>
        <time>2022-08-17T12:18:54Z</time>
      </trkpt>
      <trkpt lat="45.67738" lon="2.83348">
        <ele>1037</ele>
        <time>2022-08-17T12:18:55Z</time>
      </trkpt>
      <trkpt lat="45.67744" lon="2.83344">
        <ele>1037</ele>
        <time>2022-08-17T12:18:56Z</time>
      </trkpt>
      <trkpt lat="45.67751" lon="2.83341">
        <ele>1037</ele>
        <time>2022-08-17T12:18:57Z</time>
      </trkpt>
      <trkpt lat="45.67757" lon="2.83337">
        <ele>1036</ele>
        <time>2022-08-17T12:18:58Z</time>
      </trkpt>
      <trkpt lat="45.67764" lon="2.83332">
        <ele>1036</ele>
        <time>2022-08-17T12:18:59Z</time>
      </trkpt>
      <trkpt lat="45.67772" lon="2.83328">
        <ele>1036</ele>
        <time>2022-08-17T12:19:00Z</time>
      </trkpt>
      <trkpt lat="45.67789" lon="2.83321">
        <ele>1036</ele>
        <time>2022-08-17T12:19:02Z</time>
      </trkpt>
      <trkpt lat="45.67798" lon="2.83319">
        <ele>1036</ele>
        <time>2022-08-17T12:19:03Z</time>
      </trkpt>
      <trkpt lat="45.67807" lon="2.83318">
        <ele>1036</ele>
        <time>2022-08-17T12:19:04Z</time>
      </trkpt>
      <trkpt lat="45.67817" lon="2.83319">
        <ele>1036</ele>
        <time>2022-08-17T12:19:05Z</time>
      </trkpt>
      <trkpt lat="45.67827" lon="2.83322">
        <ele>1036</ele>
        <time>2022-08-17T12:19:06Z</time>
      </trkpt>
      <trkpt lat="45.67837" lon="2.83326">
        <ele>1036</ele>
        <time>2022-08-17T12:19:07Z</time>
      </trkpt>
      <trkpt lat="45.67846" lon="2.83331">
        <ele>1027</ele>
        <time>2022-08-17T12:19:08Z</time>
      </trkpt>
      <trkpt lat="45.67856" lon="2.83335">
        <ele>1027</ele>
        <time>2022-08-17T12:19:09Z</time>
      </trkpt>
      <trkpt lat="45.67865" lon="2.8334">
        <ele>1027</ele>
        <time>2022-08-17T12:19:10Z</time>
      </trkpt>
      <trkpt lat="45.67873" lon="2.83345">
        <ele>1027</ele>
        <time>2022-08-17T12:19:11Z</time>
      </trkpt>
      <trkpt lat="45.67882" lon="2.8335">
        <ele>1027</ele>
        <time>2022-08-17T12:19:12Z</time>
      </trkpt>
      <trkpt lat="45.67891" lon="2.83354">
        <ele>1027</ele>
        <time>2022-08-17T12:19:13Z</time>
      </trkpt>
      <trkpt lat="45.67899" lon="2.83358">
        <ele>1027</ele>
        <time>2022-08-17T12:19:14Z</time>
      </trkpt>
      <trkpt lat="45.67908" lon="2.83361">
        <ele>1027</ele>
        <time>2022-08-17T12:19:15Z</time>
      </trkpt>
      <trkpt lat="45.67917" lon="2.83362">
        <ele>1027</ele>
        <time>2022-08-17T12:19:16Z</time>
      </trkpt>
      <trkpt lat="45.67927" lon="2.83363">
        <ele>1027</ele>
        <time>2022-08-17T12:19:17Z</time>
      </trkpt>
      <trkpt lat="45.67936" lon="2.83362">
        <ele>1018</ele>
        <time>2022-08-17T12:19:18Z</time>
      </trkpt>
      <trkpt lat="45.67953" lon="2.83358">
        <ele>1018</ele>
        <time>2022-08-17T12:19:19Z</time>
      </trkpt>
      <trkpt lat="45.67961" lon="2.83355">
        <ele>1018</ele>
        <time>2022-08-17T12:19:20Z</time>
      </trkpt>
      <trkpt lat="45.67969" lon="2.83352">
        <ele>1018</ele>
        <time>2022-08-17T12:19:21Z</time>
      </trkpt>
      <trkpt lat="45.67977" lon="2.83348">
        <ele>1018</ele>
        <time>2022-08-17T12:19:22Z</time>
      </trkpt>
      <trkpt lat="45.67985" lon="2.83345">
        <ele>1018</ele>
        <time>2022-08-17T12:19:23Z</time>
      </trkpt>
      <trkpt lat="45.67993" lon="2.83341">
        <ele>1018</ele>
        <time>2022-08-17T12:19:24Z</time>
      </trkpt>
      <trkpt lat="45.68001" lon="2.83338">
        <ele>1018</ele>
        <time>2022-08-17T12:19:25Z</time>
      </trkpt>
      <trkpt lat="45.68009" lon="2.83335">
        <ele>1018</ele>
        <time>2022-08-17T12:19:27Z</time>
      </trkpt>
      <trkpt lat="45.68017" lon="2.83331">
        <ele>1011</ele>
        <time>2022-08-17T12:19:28Z</time>
      </trkpt>
      <trkpt lat="45.68017" lon="2.83314">
        <ele>1011</ele>
        <time>2022-08-17T12:19:29Z</time>
      </trkpt>
      <trkpt lat="45.68011" lon="2.83307">
        <ele>1011</ele>
        <time>2022-08-17T12:19:30Z</time>
      </trkpt>
      <trkpt lat="45.68006" lon="2.83299">
        <ele>1011</ele>
        <time>2022-08-17T12:19:31Z</time>
      </trkpt>
      <trkpt lat="45.68001" lon="2.83292">
        <ele>1011</ele>
        <time>2022-08-17T12:19:32Z</time>
      </trkpt>
      <trkpt lat="45.67996" lon="2.83285">
        <ele>1011</ele>
        <time>2022-08-17T12:19:33Z</time>
      </trkpt>
      <trkpt lat="45.67991" lon="2.83278">
        <ele>1011</ele>
        <time>2022-08-17T12:19:34Z</time>
      </trkpt>
      <trkpt lat="45.67986" lon="2.8327">
        <ele>1011</ele>
        <time>2022-08-17T12:19:35Z</time>
      </trkpt>
      <trkpt lat="45.6798" lon="2.83263">
        <ele>1011</ele>
        <time>2022-08-17T12:19:36Z</time>
      </trkpt>
      <trkpt lat="45.67975" lon="2.83256">
        <ele>1011</ele>
        <time>2022-08-17T12:19:37Z</time>
      </trkpt>
      <trkpt lat="45.6797" lon="2.83249">
        <ele>1008</ele>
        <time>2022-08-17T12:19:38Z</time>
      </trkpt>
      <trkpt lat="45.67962" lon="2.83242">
        <ele>1008</ele>
        <time>2022-08-17T12:19:39Z</time>
      </trkpt>
      <trkpt lat="45.67955" lon="2.83233">
        <ele>1008</ele>
        <time>2022-08-17T12:19:40Z</time>
      </trkpt>
      <trkpt lat="45.67949" lon="2.83224">
        <ele>1008</ele>
        <time>2022-08-17T12:19:41Z</time>
      </trkpt>
      <trkpt lat="45.67942" lon="2.83214">
        <ele>1008</ele>
        <time>2022-08-17T12:19:42Z</time>
      </trkpt>
      <trkpt lat="45.67936" lon="2.83204">
        <ele>1008</ele>
        <time>2022-08-17T12:19:43Z</time>
      </trkpt>
      <trkpt lat="45.6793" lon="2.83194">
        <ele>1008</ele>
        <time>2022-08-17T12:19:44Z</time>
      </trkpt>
      <trkpt lat="45.67923" lon="2.83184">
        <ele>1008</ele>
        <time>2022-08-17T12:19:45Z</time>
      </trkpt>
      <trkpt lat="45.67917" lon="2.83173">
        <ele>1008</ele>
        <time>2022-08-17T12:19:46Z</time>
      </trkpt>
      <trkpt lat="45.6791" lon="2.83162">
        <ele>1008</ele>
        <time>2022-08-17T12:19:47Z</time>
      </trkpt>
      <trkpt lat="45.67904" lon="2.83151">
        <ele>1004</ele>
        <time>2022-08-17T12:19:48Z</time>
      </trkpt>
      <trkpt lat="45.67898" lon="2.8314">
        <ele>1004</ele>
        <time>2022-08-17T12:19:49Z</time>
      </trkpt>
      <trkpt lat="45.67892" lon="2.8313">
        <ele>1004</ele>
        <time>2022-08-17T12:19:50Z</time>
      </trkpt>
      <trkpt lat="45.67879" lon="2.83108">
        <ele>1004</ele>
        <time>2022-08-17T12:19:52Z</time>
      </trkpt>
      <trkpt lat="45.67873" lon="2.83097">
        <ele>1004</ele>
        <time>2022-08-17T12:19:53Z</time>
      </trkpt>
      <trkpt lat="45.67867" lon="2.83086">
        <ele>1004</ele>
        <time>2022-08-17T12:19:54Z</time>
      </trkpt>
      <trkpt lat="45.67861" lon="2.83075">
        <ele>1004</ele>
        <time>2022-08-17T12:19:55Z</time>
      </trkpt>
      <trkpt lat="45.67856" lon="2.83063">
        <ele>1004</ele>
        <time>2022-08-17T12:19:56Z</time>
      </trkpt>
      <trkpt lat="45.6785" lon="2.83051">
        <ele>1004</ele>
        <time>2022-08-17T12:19:57Z</time>
      </trkpt>
      <trkpt lat="45.67845" lon="2.83038">
        <ele>997</ele>
        <time>2022-08-17T12:19:58Z</time>
      </trkpt>
      <trkpt lat="45.67839" lon="2.83026">
        <ele>997</ele>
        <time>2022-08-17T12:19:59Z</time>
      </trkpt>
      <trkpt lat="45.67834" lon="2.83013">
        <ele>997</ele>
        <time>2022-08-17T12:20:00Z</time>
      </trkpt>
      <trkpt lat="45.67828" lon="2.82999">
        <ele>997</ele>
        <time>2022-08-17T12:20:01Z</time>
      </trkpt>
      <trkpt lat="45.67823" lon="2.82986">
        <ele>997</ele>
        <time>2022-08-17T12:20:02Z</time>
      </trkpt>
      <trkpt lat="45.67817" lon="2.82972">
        <ele>997</ele>
        <time>2022-08-17T12:20:03Z</time>
      </trkpt>
      <trkpt lat="45.67812" lon="2.82958">
        <ele>997</ele>
        <time>2022-08-17T12:20:04Z</time>
      </trkpt>
      <trkpt lat="45.67806" lon="2.82945">
        <ele>997</ele>
        <time>2022-08-17T12:20:05Z</time>
      </trkpt>
      <trkpt lat="45.67801" lon="2.82931">
        <ele>997</ele>
        <time>2022-08-17T12:20:06Z</time>
      </trkpt>
      <trkpt lat="45.67792" lon="2.82911">
        <ele>997</ele>
        <time>2022-08-17T12:20:07Z</time>
      </trkpt>
      <trkpt lat="45.6779" lon="2.82904">
        <ele>988</ele>
        <time>2022-08-17T12:20:08Z</time>
      </trkpt>
      <trkpt lat="45.67785" lon="2.8289">
        <ele>988</ele>
        <time>2022-08-17T12:20:09Z</time>
      </trkpt>
      <trkpt lat="45.6778" lon="2.82875">
        <ele>988</ele>
        <time>2022-08-17T12:20:10Z</time>
      </trkpt>
      <trkpt lat="45.67776" lon="2.8286">
        <ele>988</ele>
        <time>2022-08-17T12:20:11Z</time>
      </trkpt>
      <trkpt lat="45.67772" lon="2.82844">
        <ele>988</ele>
        <time>2022-08-17T12:20:12Z</time>
      </trkpt>
      <trkpt lat="45.6777" lon="2.82828">
        <ele>988</ele>
        <time>2022-08-17T12:20:13Z</time>
      </trkpt>
      <trkpt lat="45.67768" lon="2.82812">
        <ele>988</ele>
        <time>2022-08-17T12:20:14Z</time>
      </trkpt>
      <trkpt lat="45.67767" lon="2.82796">
        <ele>988</ele>
        <time>2022-08-17T12:20:15Z</time>
      </trkpt>
      <trkpt lat="45.67766" lon="2.8278">
        <ele>988</ele>
        <time>2022-08-17T12:20:16Z</time>
      </trkpt>
      <trkpt lat="45.67765" lon="2.82757">
        <ele>988</ele>
        <time>2022-08-17T12:20:17Z</time>
      </trkpt>
      <trkpt lat="45.67765" lon="2.8275">
        <ele>986</ele>
        <time>2022-08-17T12:20:18Z</time>
      </trkpt>
      <trkpt lat="45.67765" lon="2.82735">
        <ele>986</ele>
        <time>2022-08-17T12:20:19Z</time>
      </trkpt>
      <trkpt lat="45.67765" lon="2.8272">
        <ele>986</ele>
        <time>2022-08-17T12:20:20Z</time>
      </trkpt>
      <trkpt lat="45.67765" lon="2.82705">
        <ele>986</ele>
        <time>2022-08-17T12:20:21Z</time>
      </trkpt>
      <trkpt lat="45.67765" lon="2.82691">
        <ele>986</ele>
        <time>2022-08-17T12:20:22Z</time>
      </trkpt>
      <trkpt lat="45.67765" lon="2.82676">
        <ele>986</ele>
        <time>2022-08-17T12:20:23Z</time>
      </trkpt>
      <trkpt lat="45.67764" lon="2.82661">
        <ele>986</ele>
        <time>2022-08-17T12:20:24Z</time>
      </trkpt>
      <trkpt lat="45.67765" lon="2.82647">
        <ele>986</ele>
        <time>2022-08-17T12:20:25Z</time>
      </trkpt>
      <trkpt lat="45.67766" lon="2.82632">
        <ele>986</ele>
        <time>2022-08-17T12:20:26Z</time>
      </trkpt>
      <trkpt lat="45.67767" lon="2.82618">
        <ele>986</ele>
        <time>2022-08-17T12:20:27Z</time>
      </trkpt>
      <trkpt lat="45.6777" lon="2.82604">
        <ele>977</ele>
        <time>2022-08-17T12:20:28Z</time>
      </trkpt>
      <trkpt lat="45.67775" lon="2.82581">
        <ele>977</ele>
        <time>2022-08-17T12:20:29Z</time>
      </trkpt>
      <trkpt lat="45.67777" lon="2.82571">
        <ele>977</ele>
        <time>2022-08-17T12:20:30Z</time>
      </trkpt>
      <trkpt lat="45.6778" lon="2.82562">
        <ele>977</ele>
        <time>2022-08-17T12:20:31Z</time>
      </trkpt>
      <trkpt lat="45.67782" lon="2.82552">
        <ele>977</ele>
        <time>2022-08-17T12:20:32Z</time>
      </trkpt>
      <trkpt lat="45.67785" lon="2.82542">
        <ele>977</ele>
        <time>2022-08-17T12:20:33Z</time>
      </trkpt>
      <trkpt lat="45.67787" lon="2.82533">
        <ele>977</ele>
        <time>2022-08-17T12:20:34Z</time>
      </trkpt>
      <trkpt lat="45.67789" lon="2.82523">
        <ele>977</ele>
        <time>2022-08-17T12:20:35Z</time>
      </trkpt>
      <trkpt lat="45.67792" lon="2.82514">
        <ele>977</ele>
        <time>2022-08-17T12:20:36Z</time>
      </trkpt>
      <trkpt lat="45.67794" lon="2.82504">
        <ele>977</ele>
        <time>2022-08-17T12:20:37Z</time>
      </trkpt>
      <trkpt lat="45.67797" lon="2.82495">
        <ele>978</ele>
        <time>2022-08-17T12:20:38Z</time>
      </trkpt>
      <trkpt lat="45.67802" lon="2.82477">
        <ele>978</ele>
        <time>2022-08-17T12:20:39Z</time>
      </trkpt>
      <trkpt lat="45.67806" lon="2.82469">
        <ele>978</ele>
        <time>2022-08-17T12:20:40Z</time>
      </trkpt>
      <trkpt lat="45.6781" lon="2.8246">
        <ele>978</ele>
        <time>2022-08-17T12:20:41Z</time>
      </trkpt>
      <trkpt lat="45.67814" lon="2.82451">
        <ele>978</ele>
        <time>2022-08-17T12:20:42Z</time>
      </trkpt>
      <trkpt lat="45.67818" lon="2.82443">
        <ele>978</ele>
        <time>2022-08-17T12:20:44Z</time>
      </trkpt>
      <trkpt lat="45.67822" lon="2.82434">
        <ele>978</ele>
        <time>2022-08-17T12:20:46Z</time>
      </trkpt>
      <trkpt lat="45.67825" lon="2.82425">
        <ele>978</ele>
        <time>2022-08-17T12:20:47Z</time>
      </trkpt>
      <trkpt lat="45.67829" lon="2.82417">
        <ele>978</ele>
        <time>2022-08-17T12:20:48Z</time>
      </trkpt>
      <trkpt lat="45.67844" lon="2.82392">
        <ele>978</ele>
        <time>2022-08-17T12:20:50Z</time>
      </trkpt>
      <trkpt lat="45.67849" lon="2.82383">
        <ele>978</ele>
        <time>2022-08-17T12:20:51Z</time>
      </trkpt>
      <trkpt lat="45.67854" lon="2.82374">
        <ele>978</ele>
        <time>2022-08-17T12:20:52Z</time>
      </trkpt>
      <trkpt lat="45.67858" lon="2.82365">
        <ele>978</ele>
        <time>2022-08-17T12:20:53Z</time>
      </trkpt>
      <trkpt lat="45.67863" lon="2.82357">
        <ele>978</ele>
        <time>2022-08-17T12:20:54Z</time>
      </trkpt>
      <trkpt lat="45.67867" lon="2.82348">
        <ele>978</ele>
        <time>2022-08-17T12:20:55Z</time>
      </trkpt>
      <trkpt lat="45.67872" lon="2.82339">
        <ele>978</ele>
        <time>2022-08-17T12:20:56Z</time>
      </trkpt>
      <trkpt lat="45.67877" lon="2.8233">
        <ele>973</ele>
        <time>2022-08-17T12:20:58Z</time>
      </trkpt>
      <trkpt lat="45.67879" lon="2.82308">
        <ele>973</ele>
        <time>2022-08-17T12:20:59Z</time>
      </trkpt>
      <trkpt lat="45.67879" lon="2.82297">
        <ele>973</ele>
        <time>2022-08-17T12:21:00Z</time>
      </trkpt>
      <trkpt lat="45.67878" lon="2.82286">
        <ele>973</ele>
        <time>2022-08-17T12:21:01Z</time>
      </trkpt>
      <trkpt lat="45.67878" lon="2.82275">
        <ele>973</ele>
        <time>2022-08-17T12:21:02Z</time>
      </trkpt>
      <trkpt lat="45.67877" lon="2.82263">
        <ele>973</ele>
        <time>2022-08-17T12:21:04Z</time>
      </trkpt>
      <trkpt lat="45.67877" lon="2.82252">
        <ele>973</ele>
        <time>2022-08-17T12:21:05Z</time>
      </trkpt>
      <trkpt lat="45.67876" lon="2.82241">
        <ele>973</ele>
        <time>2022-08-17T12:21:06Z</time>
      </trkpt>
      <trkpt lat="45.67876" lon="2.8223">
        <ele>973</ele>
        <time>2022-08-17T12:21:07Z</time>
      </trkpt>
      <trkpt lat="45.67876" lon="2.82218">
        <ele>972</ele>
        <time>2022-08-17T12:21:08Z</time>
      </trkpt>
      <trkpt lat="45.67873" lon="2.82207">
        <ele>972</ele>
        <time>2022-08-17T12:21:09Z</time>
      </trkpt>
      <trkpt lat="45.67871" lon="2.82195">
        <ele>972</ele>
        <time>2022-08-17T12:21:10Z</time>
      </trkpt>
      <trkpt lat="45.67869" lon="2.82182">
        <ele>972</ele>
        <time>2022-08-17T12:21:11Z</time>
      </trkpt>
      <trkpt lat="45.67867" lon="2.8217">
        <ele>972</ele>
        <time>2022-08-17T12:21:12Z</time>
      </trkpt>
      <trkpt lat="45.67866" lon="2.82157">
        <ele>972</ele>
        <time>2022-08-17T12:21:13Z</time>
      </trkpt>
      <trkpt lat="45.67865" lon="2.82144">
        <ele>972</ele>
        <time>2022-08-17T12:21:14Z</time>
      </trkpt>
      <trkpt lat="45.67864" lon="2.82131">
        <ele>972</ele>
        <time>2022-08-17T12:21:15Z</time>
      </trkpt>
      <trkpt lat="45.67863" lon="2.82118">
        <ele>972</ele>
        <time>2022-08-17T12:21:16Z</time>
      </trkpt>
      <trkpt lat="45.67862" lon="2.82105">
        <ele>972</ele>
        <time>2022-08-17T12:21:17Z</time>
      </trkpt>
      <trkpt lat="45.67862" lon="2.82091">
        <ele>968</ele>
        <time>2022-08-17T12:21:18Z</time>
      </trkpt>
      <trkpt lat="45.67865" lon="2.82061">
        <ele>968</ele>
        <time>2022-08-17T12:21:19Z</time>
      </trkpt>
      <trkpt lat="45.67868" lon="2.82044">
        <ele>968</ele>
        <time>2022-08-17T12:21:20Z</time>
      </trkpt>
      <trkpt lat="45.67871" lon="2.82027">
        <ele>968</ele>
        <time>2022-08-17T12:21:21Z</time>
      </trkpt>
      <trkpt lat="45.67874" lon="2.8201">
        <ele>968</ele>
        <time>2022-08-17T12:21:22Z</time>
      </trkpt>
      <trkpt lat="45.67877" lon="2.81993">
        <ele>968</ele>
        <time>2022-08-17T12:21:24Z</time>
      </trkpt>
      <trkpt lat="45.67881" lon="2.81976">
        <ele>968</ele>
        <time>2022-08-17T12:21:26Z</time>
      </trkpt>
      <trkpt lat="45.67884" lon="2.81959">
        <ele>962</ele>
        <time>2022-08-17T12:21:28Z</time>
      </trkpt>
      <trkpt lat="45.67887" lon="2.81946">
        <ele>962</ele>
        <time>2022-08-17T12:21:29Z</time>
      </trkpt>
      <trkpt lat="45.67889" lon="2.81932">
        <ele>962</ele>
        <time>2022-08-17T12:21:30Z</time>
      </trkpt>
      <trkpt lat="45.67892" lon="2.81918">
        <ele>962</ele>
        <time>2022-08-17T12:21:31Z</time>
      </trkpt>
      <trkpt lat="45.67894" lon="2.81904">
        <ele>962</ele>
        <time>2022-08-17T12:21:32Z</time>
      </trkpt>
      <trkpt lat="45.67897" lon="2.81891">
        <ele>962</ele>
        <time>2022-08-17T12:21:33Z</time>
      </trkpt>
      <trkpt lat="45.67899" lon="2.81877">
        <ele>962</ele>
        <time>2022-08-17T12:21:34Z</time>
      </trkpt>
      <trkpt lat="45.67902" lon="2.81864">
        <ele>962</ele>
        <time>2022-08-17T12:21:35Z</time>
      </trkpt>
      <trkpt lat="45.67905" lon="2.8185">
        <ele>962</ele>
        <time>2022-08-17T12:21:36Z</time>
      </trkpt>
      <trkpt lat="45.67909" lon="2.81838">
        <ele>962</ele>
        <time>2022-08-17T12:21:37Z</time>
      </trkpt>
      <trkpt lat="45.67915" lon="2.81827">
        <ele>955</ele>
        <time>2022-08-17T12:21:38Z</time>
      </trkpt>
      <trkpt lat="45.67921" lon="2.81815">
        <ele>955</ele>
        <time>2022-08-17T12:21:39Z</time>
      </trkpt>
      <trkpt lat="45.67927" lon="2.81805">
        <ele>955</ele>
        <time>2022-08-17T12:21:40Z</time>
      </trkpt>
      <trkpt lat="45.67932" lon="2.81794">
        <ele>955</ele>
        <time>2022-08-17T12:21:41Z</time>
      </trkpt>
      <trkpt lat="45.67938" lon="2.81783">
        <ele>955</ele>
        <time>2022-08-17T12:21:42Z</time>
      </trkpt>
      <trkpt lat="45.67943" lon="2.81772">
        <ele>955</ele>
        <time>2022-08-17T12:21:43Z</time>
      </trkpt>
      <trkpt lat="45.67947" lon="2.8176">
        <ele>955</ele>
        <time>2022-08-17T12:21:44Z</time>
      </trkpt>
      <trkpt lat="45.67952" lon="2.81748">
        <ele>955</ele>
        <time>2022-08-17T12:21:45Z</time>
      </trkpt>
      <trkpt lat="45.67956" lon="2.81736">
        <ele>955</ele>
        <time>2022-08-17T12:21:46Z</time>
      </trkpt>
      <trkpt lat="45.67961" lon="2.81725">
        <ele>955</ele>
        <time>2022-08-17T12:21:47Z</time>
      </trkpt>
      <trkpt lat="45.67966" lon="2.81713">
        <ele>950</ele>
        <time>2022-08-17T12:21:48Z</time>
      </trkpt>
      <trkpt lat="45.67971" lon="2.81702">
        <ele>950</ele>
        <time>2022-08-17T12:21:49Z</time>
      </trkpt>
      <trkpt lat="45.67981" lon="2.81679">
        <ele>950</ele>
        <time>2022-08-17T12:21:51Z</time>
      </trkpt>
      <trkpt lat="45.67985" lon="2.81668">
        <ele>950</ele>
        <time>2022-08-17T12:21:52Z</time>
      </trkpt>
      <trkpt lat="45.6799" lon="2.81657">
        <ele>950</ele>
        <time>2022-08-17T12:21:53Z</time>
      </trkpt>
      <trkpt lat="45.67995" lon="2.81646">
        <ele>950</ele>
        <time>2022-08-17T12:21:54Z</time>
      </trkpt>
      <trkpt lat="45.68001" lon="2.81636">
        <ele>950</ele>
        <time>2022-08-17T12:21:55Z</time>
      </trkpt>
      <trkpt lat="45.68007" lon="2.81626">
        <ele>950</ele>
        <time>2022-08-17T12:21:56Z</time>
      </trkpt>
      <trkpt lat="45.68014" lon="2.81617">
        <ele>950</ele>
        <time>2022-08-17T12:21:57Z</time>
      </trkpt>
      <trkpt lat="45.6802" lon="2.81606">
        <ele>940</ele>
        <time>2022-08-17T12:21:58Z</time>
      </trkpt>
      <trkpt lat="45.68026" lon="2.81596">
        <ele>940</ele>
        <time>2022-08-17T12:21:59Z</time>
      </trkpt>
      <trkpt lat="45.68031" lon="2.81585">
        <ele>940</ele>
        <time>2022-08-17T12:22:00Z</time>
      </trkpt>
      <trkpt lat="45.68034" lon="2.81573">
        <ele>940</ele>
        <time>2022-08-17T12:22:01Z</time>
      </trkpt>
      <trkpt lat="45.6804" lon="2.81548">
        <ele>940</ele>
        <time>2022-08-17T12:22:03Z</time>
      </trkpt>
      <trkpt lat="45.68044" lon="2.81535">
        <ele>940</ele>
        <time>2022-08-17T12:22:04Z</time>
      </trkpt>
      <trkpt lat="45.68053" lon="2.81511">
        <ele>940</ele>
        <time>2022-08-17T12:22:06Z</time>
      </trkpt>
      <trkpt lat="45.68058" lon="2.81499">
        <ele>940</ele>
        <time>2022-08-17T12:22:07Z</time>
      </trkpt>
      <trkpt lat="45.68064" lon="2.81488">
        <ele>933</ele>
        <time>2022-08-17T12:22:08Z</time>
      </trkpt>
      <trkpt lat="45.68069" lon="2.81476">
        <ele>933</ele>
        <time>2022-08-17T12:22:09Z</time>
      </trkpt>
      <trkpt lat="45.68074" lon="2.81464">
        <ele>933</ele>
        <time>2022-08-17T12:22:10Z</time>
      </trkpt>
      <trkpt lat="45.68077" lon="2.8145">
        <ele>933</ele>
        <time>2022-08-17T12:22:11Z</time>
      </trkpt>
      <trkpt lat="45.68079" lon="2.81436">
        <ele>933</ele>
        <time>2022-08-17T12:22:12Z</time>
      </trkpt>
      <trkpt lat="45.6808" lon="2.81422">
        <ele>933</ele>
        <time>2022-08-17T12:22:13Z</time>
      </trkpt>
      <trkpt lat="45.68081" lon="2.81407">
        <ele>933</ele>
        <time>2022-08-17T12:22:14Z</time>
      </trkpt>
      <trkpt lat="45.68082" lon="2.81392">
        <ele>933</ele>
        <time>2022-08-17T12:22:15Z</time>
      </trkpt>
      <trkpt lat="45.68084" lon="2.81378">
        <ele>933</ele>
        <time>2022-08-17T12:22:16Z</time>
      </trkpt>
      <trkpt lat="45.68085" lon="2.81363">
        <ele>933</ele>
        <time>2022-08-17T12:22:17Z</time>
      </trkpt>
      <trkpt lat="45.68087" lon="2.81349">
        <ele>924</ele>
        <time>2022-08-17T12:22:18Z</time>
      </trkpt>
      <trkpt lat="45.68089" lon="2.81334">
        <ele>924</ele>
        <time>2022-08-17T12:22:19Z</time>
      </trkpt>
      <trkpt lat="45.68091" lon="2.8132">
        <ele>924</ele>
        <time>2022-08-17T12:22:20Z</time>
      </trkpt>
      <trkpt lat="45.68093" lon="2.81307">
        <ele>924</ele>
        <time>2022-08-17T12:22:21Z</time>
      </trkpt>
      <trkpt lat="45.68095" lon="2.81293">
        <ele>924</ele>
        <time>2022-08-17T12:22:22Z</time>
      </trkpt>
      <trkpt lat="45.68096" lon="2.81279">
        <ele>924</ele>
        <time>2022-08-17T12:22:23Z</time>
      </trkpt>
      <trkpt lat="45.68097" lon="2.81265">
        <ele>924</ele>
        <time>2022-08-17T12:22:24Z</time>
      </trkpt>
      <trkpt lat="45.68097" lon="2.8125">
        <ele>924</ele>
        <time>2022-08-17T12:22:25Z</time>
      </trkpt>
      <trkpt lat="45.68097" lon="2.81236">
        <ele>924</ele>
        <time>2022-08-17T12:22:26Z</time>
      </trkpt>
      <trkpt lat="45.68097" lon="2.81222">
        <ele>924</ele>
        <time>2022-08-17T12:22:27Z</time>
      </trkpt>
      <trkpt lat="45.68098" lon="2.81208">
        <ele>915</ele>
        <time>2022-08-17T12:22:28Z</time>
      </trkpt>
      <trkpt lat="45.681" lon="2.81194">
        <ele>915</ele>
        <time>2022-08-17T12:22:29Z</time>
      </trkpt>
      <trkpt lat="45.68103" lon="2.81181">
        <ele>915</ele>
        <time>2022-08-17T12:22:30Z</time>
      </trkpt>
      <trkpt lat="45.68107" lon="2.81168">
        <ele>915</ele>
        <time>2022-08-17T12:22:31Z</time>
      </trkpt>
      <trkpt lat="45.6811" lon="2.81155">
        <ele>915</ele>
        <time>2022-08-17T12:22:32Z</time>
      </trkpt>
      <trkpt lat="45.68113" lon="2.81141">
        <ele>915</ele>
        <time>2022-08-17T12:22:33Z</time>
      </trkpt>
      <trkpt lat="45.68114" lon="2.81126">
        <ele>915</ele>
        <time>2022-08-17T12:22:34Z</time>
      </trkpt>
      <trkpt lat="45.68116" lon="2.81111">
        <ele>915</ele>
        <time>2022-08-17T12:22:35Z</time>
      </trkpt>
      <trkpt lat="45.68116" lon="2.81096">
        <ele>915</ele>
        <time>2022-08-17T12:22:36Z</time>
      </trkpt>
      <trkpt lat="45.68118" lon="2.81082">
        <ele>915</ele>
        <time>2022-08-17T12:22:37Z</time>
      </trkpt>
      <trkpt lat="45.68121" lon="2.81067">
        <ele>907</ele>
        <time>2022-08-17T12:22:38Z</time>
      </trkpt>
      <trkpt lat="45.68124" lon="2.81053">
        <ele>907</ele>
        <time>2022-08-17T12:22:39Z</time>
      </trkpt>
      <trkpt lat="45.68129" lon="2.81039">
        <ele>907</ele>
        <time>2022-08-17T12:22:40Z</time>
      </trkpt>
      <trkpt lat="45.68134" lon="2.81026">
        <ele>907</ele>
        <time>2022-08-17T12:22:41Z</time>
      </trkpt>
      <trkpt lat="45.68139" lon="2.81014">
        <ele>907</ele>
        <time>2022-08-17T12:22:42Z</time>
      </trkpt>
      <trkpt lat="45.68145" lon="2.81002">
        <ele>907</ele>
        <time>2022-08-17T12:22:43Z</time>
      </trkpt>
      <trkpt lat="45.6815" lon="2.8099">
        <ele>907</ele>
        <time>2022-08-17T12:22:44Z</time>
      </trkpt>
      <trkpt lat="45.68155" lon="2.80979">
        <ele>907</ele>
        <time>2022-08-17T12:22:45Z</time>
      </trkpt>
      <trkpt lat="45.68159" lon="2.80968">
        <ele>907</ele>
        <time>2022-08-17T12:22:46Z</time>
      </trkpt>
      <trkpt lat="45.68163" lon="2.80956">
        <ele>907</ele>
        <time>2022-08-17T12:22:47Z</time>
      </trkpt>
      <trkpt lat="45.68165" lon="2.80944">
        <ele>898</ele>
        <time>2022-08-17T12:22:48Z</time>
      </trkpt>
      <trkpt lat="45.68167" lon="2.80921">
        <ele>898</ele>
        <time>2022-08-17T12:22:49Z</time>
      </trkpt>
      <trkpt lat="45.68167" lon="2.8091">
        <ele>898</ele>
        <time>2022-08-17T12:22:51Z</time>
      </trkpt>
      <trkpt lat="45.68167" lon="2.80899">
        <ele>898</ele>
        <time>2022-08-17T12:22:52Z</time>
      </trkpt>
      <trkpt lat="45.68166" lon="2.80887">
        <ele>898</ele>
        <time>2022-08-17T12:22:53Z</time>
      </trkpt>
      <trkpt lat="45.68166" lon="2.80876">
        <ele>898</ele>
        <time>2022-08-17T12:22:54Z</time>
      </trkpt>
      <trkpt lat="45.68166" lon="2.80864">
        <ele>898</ele>
        <time>2022-08-17T12:22:55Z</time>
      </trkpt>
      <trkpt lat="45.68165" lon="2.80853">
        <ele>898</ele>
        <time>2022-08-17T12:22:56Z</time>
      </trkpt>
      <trkpt lat="45.68165" lon="2.80842">
        <ele>898</ele>
        <time>2022-08-17T12:22:57Z</time>
      </trkpt>
      <trkpt lat="45.68165" lon="2.8083">
        <ele>890</ele>
        <time>2022-08-17T12:22:58Z</time>
      </trkpt>
      <trkpt lat="45.68156" lon="2.80816">
        <ele>890</ele>
        <time>2022-08-17T12:22:59Z</time>
      </trkpt>
      <trkpt lat="45.6815" lon="2.80811">
        <ele>890</ele>
        <time>2022-08-17T12:23:00Z</time>
      </trkpt>
      <trkpt lat="45.68145" lon="2.80806">
        <ele>890</ele>
        <time>2022-08-17T12:23:01Z</time>
      </trkpt>
      <trkpt lat="45.68139" lon="2.80801">
        <ele>890</ele>
        <time>2022-08-17T12:23:02Z</time>
      </trkpt>
      <trkpt lat="45.68133" lon="2.80796">
        <ele>890</ele>
        <time>2022-08-17T12:23:03Z</time>
      </trkpt>
      <trkpt lat="45.68127" lon="2.80791">
        <ele>890</ele>
        <time>2022-08-17T12:23:04Z</time>
      </trkpt>
      <trkpt lat="45.68121" lon="2.80786">
        <ele>890</ele>
        <time>2022-08-17T12:23:05Z</time>
      </trkpt>
      <trkpt lat="45.68115" lon="2.80782">
        <ele>890</ele>
        <time>2022-08-17T12:23:07Z</time>
      </trkpt>
      <trkpt lat="45.68109" lon="2.80777">
        <ele>890</ele>
        <time>2022-08-17T12:23:08Z</time>
      </trkpt>
      <trkpt lat="45.68103" lon="2.80762">
        <ele>890</ele>
        <time>2022-08-17T12:23:09Z</time>
      </trkpt>
      <trkpt lat="45.68102" lon="2.80751">
        <ele>890</ele>
        <time>2022-08-17T12:23:11Z</time>
      </trkpt>
      <trkpt lat="45.68101" lon="2.80741">
        <ele>890</ele>
        <time>2022-08-17T12:23:13Z</time>
      </trkpt>
      <trkpt lat="45.68099" lon="2.8073">
        <ele>890</ele>
        <time>2022-08-17T12:23:15Z</time>
      </trkpt>
      <trkpt lat="45.68098" lon="2.80719">
        <ele>890</ele>
        <time>2022-08-17T12:23:17Z</time>
      </trkpt>
      <trkpt lat="45.68097" lon="2.80708">
        <ele>890</ele>
        <time>2022-08-17T12:23:18Z</time>
      </trkpt>
      <trkpt lat="45.68108" lon="2.80692">
        <ele>890</ele>
        <time>2022-08-17T12:23:19Z</time>
      </trkpt>
      <trkpt lat="45.68117" lon="2.80684">
        <ele>890</ele>
        <time>2022-08-17T12:23:21Z</time>
      </trkpt>
      <trkpt lat="45.68125" lon="2.80676">
        <ele>890</ele>
        <time>2022-08-17T12:23:23Z</time>
      </trkpt>
      <trkpt lat="45.68134" lon="2.80669">
        <ele>890</ele>
        <time>2022-08-17T12:23:25Z</time>
      </trkpt>
      <trkpt lat="45.68142" lon="2.80661">
        <ele>890</ele>
        <time>2022-08-17T12:23:27Z</time>
      </trkpt>
      <trkpt lat="45.6815" lon="2.80653">
        <ele>888</ele>
        <time>2022-08-17T12:23:28Z</time>
      </trkpt>
      <trkpt lat="45.68162" lon="2.80643">
        <ele>888</ele>
        <time>2022-08-17T12:23:29Z</time>
      </trkpt>
      <trkpt lat="45.68168" lon="2.80636">
        <ele>888</ele>
        <time>2022-08-17T12:23:30Z</time>
      </trkpt>
      <trkpt lat="45.68174" lon="2.8063">
        <ele>888</ele>
        <time>2022-08-17T12:23:31Z</time>
      </trkpt>
      <trkpt lat="45.68179" lon="2.80623">
        <ele>888</ele>
        <time>2022-08-17T12:23:32Z</time>
      </trkpt>
      <trkpt lat="45.68185" lon="2.80616">
        <ele>888</ele>
        <time>2022-08-17T12:23:33Z</time>
      </trkpt>
      <trkpt lat="45.68191" lon="2.8061">
        <ele>888</ele>
        <time>2022-08-17T12:23:35Z</time>
      </trkpt>
      <trkpt lat="45.68196" lon="2.80603">
        <ele>888</ele>
        <time>2022-08-17T12:23:37Z</time>
      </trkpt>
      <trkpt lat="45.68202" lon="2.80597">
        <ele>879</ele>
        <time>2022-08-17T12:23:38Z</time>
      </trkpt>
      <trkpt lat="45.68216" lon="2.80579">
        <ele>879</ele>
        <time>2022-08-17T12:23:40Z</time>
      </trkpt>
      <trkpt lat="45.68219" lon="2.80573">
        <ele>879</ele>
        <time>2022-08-17T12:23:41Z</time>
      </trkpt>
      <trkpt lat="45.68222" lon="2.80567">
        <ele>879</ele>
        <time>2022-08-17T12:23:42Z</time>
      </trkpt>
      <trkpt lat="45.68226" lon="2.8056">
        <ele>879</ele>
        <time>2022-08-17T12:23:43Z</time>
      </trkpt>
      <trkpt lat="45.68229" lon="2.80554">
        <ele>879</ele>
        <time>2022-08-17T12:23:44Z</time>
      </trkpt>
      <trkpt lat="45.68232" lon="2.80548">
        <ele>879</ele>
        <time>2022-08-17T12:23:45Z</time>
      </trkpt>
      <trkpt lat="45.68236" lon="2.80542">
        <ele>879</ele>
        <time>2022-08-17T12:23:46Z</time>
      </trkpt>
      <trkpt lat="45.68239" lon="2.80535">
        <ele>879</ele>
        <time>2022-08-17T12:23:47Z</time>
      </trkpt>
      <trkpt lat="45.68242" lon="2.80529">
        <ele>874</ele>
        <time>2022-08-17T12:23:48Z</time>
      </trkpt>
      <trkpt lat="45.68245" lon="2.80523">
        <ele>874</ele>
        <time>2022-08-17T12:23:49Z</time>
      </trkpt>
      <trkpt lat="45.68247" lon="2.80518">
        <ele>874</ele>
        <time>2022-08-17T12:23:50Z</time>
      </trkpt>
      <trkpt lat="45.68249" lon="2.80514">
        <ele>874</ele>
        <time>2022-08-17T12:23:51Z</time>
      </trkpt>
      <trkpt lat="45.68249" lon="2.8051">
        <ele>874</ele>
        <time>2022-08-17T12:23:52Z</time>
      </trkpt>
      <trkpt lat="45.68244" lon="2.80504">
        <ele>874</ele>
        <time>2022-08-17T12:23:55Z</time>
      </trkpt>
      <trkpt lat="45.68237" lon="2.80508">
        <ele>872</ele>
        <time>2022-08-17T12:23:58Z</time>
      </trkpt>
      <trkpt lat="45.68226" lon="2.80525">
        <ele>872</ele>
        <time>2022-08-17T12:24:01Z</time>
      </trkpt>
      <trkpt lat="45.68222" lon="2.80532">
        <ele>872</ele>
        <time>2022-08-17T12:24:04Z</time>
      </trkpt>
      <trkpt lat="45.68218" lon="2.80539">
        <ele>872</ele>
        <time>2022-08-17T12:24:07Z</time>
      </trkpt>
      <trkpt lat="45.68214" lon="2.80546">
        <ele>873</ele>
        <time>2022-08-17T12:24:08Z</time>
      </trkpt>
      <trkpt lat="45.68206" lon="2.80559">
        <ele>873</ele>
        <time>2022-08-17T12:24:10Z</time>
      </trkpt>
      <trkpt lat="45.68202" lon="2.80564">
        <ele>873</ele>
        <time>2022-08-17T12:24:13Z</time>
      </trkpt>
      <trkpt lat="45.68198" lon="2.80569">
        <ele>873</ele>
        <time>2022-08-17T12:24:16Z</time>
      </trkpt>
      <trkpt lat="45.68194" lon="2.80574">
        <ele>875</ele>
        <time>2022-08-17T12:24:18Z</time>
      </trkpt>
      <trkpt lat="45.68186" lon="2.80583">
        <ele>875</ele>
        <time>2022-08-17T12:24:19Z</time>
      </trkpt>
      <trkpt lat="45.68177" lon="2.8059">
        <ele>875</ele>
        <time>2022-08-17T12:24:22Z</time>
      </trkpt>
      <trkpt lat="45.68168" lon="2.80597">
        <ele>875</ele>
        <time>2022-08-17T12:24:25Z</time>
      </trkpt>
      <trkpt lat="45.68168" lon="2.80597">
        <ele>879</ele>
        <time>2022-08-17T12:24:28Z</time>
      </trkpt>
      <trkpt lat="45.68151" lon="2.80605">
        <ele>879</ele>
        <time>2022-08-17T12:24:30Z</time>
      </trkpt>
      <trkpt lat="45.68146" lon="2.80606">
        <ele>879</ele>
        <time>2022-08-17T12:24:33Z</time>
      </trkpt>
      <trkpt lat="45.6814" lon="2.80607">
        <ele>879</ele>
        <time>2022-08-17T12:24:36Z</time>
      </trkpt>
      <trkpt lat="45.68134" lon="2.80607">
        <ele>882</ele>
        <time>2022-08-17T12:24:38Z</time>
      </trkpt>
      <trkpt lat="45.68123" lon="2.80609">
        <ele>882</ele>
        <time>2022-08-17T12:24:39Z</time>
      </trkpt>
      <trkpt lat="45.68112" lon="2.80611">
        <ele>882</ele>
        <time>2022-08-17T12:24:42Z</time>
      </trkpt>
      <trkpt lat="45.68102" lon="2.80613">
        <ele>882</ele>
        <time>2022-08-17T12:24:45Z</time>
      </trkpt>
      <trkpt lat="45.68093" lon="2.80615">
        <ele>883</ele>
        <time>2022-08-17T12:24:48Z</time>
      </trkpt>
      <trkpt lat="45.68077" lon="2.80617">
        <ele>883</ele>
        <time>2022-08-17T12:24:51Z</time>
      </trkpt>
      <trkpt lat="45.68072" lon="2.80617">
        <ele>883</ele>
        <time>2022-08-17T12:24:54Z</time>
      </trkpt>
      <trkpt lat="45.68066" lon="2.80618">
        <ele>883</ele>
        <time>2022-08-17T12:24:57Z</time>
      </trkpt>
      <trkpt lat="45.6806" lon="2.80618">
        <ele>885</ele>
        <time>2022-08-17T12:24:58Z</time>
      </trkpt>
      <trkpt lat="45.68046" lon="2.80619">
        <ele>885</ele>
        <time>2022-08-17T12:25:00Z</time>
      </trkpt>
      <trkpt lat="45.68039" lon="2.80618">
        <ele>885</ele>
        <time>2022-08-17T12:25:03Z</time>
      </trkpt>
      <trkpt lat="45.68032" lon="2.80618">
        <ele>885</ele>
        <time>2022-08-17T12:25:06Z</time>
      </trkpt>
      <trkpt lat="45.68025" lon="2.80618">
        <ele>886</ele>
        <time>2022-08-17T12:25:08Z</time>
      </trkpt>
      <trkpt lat="45.68008" lon="2.80617">
        <ele>886</ele>
        <time>2022-08-17T12:25:11Z</time>
      </trkpt>
      <trkpt lat="45.68002" lon="2.80617">
        <ele>886</ele>
        <time>2022-08-17T12:25:14Z</time>
      </trkpt>
      <trkpt lat="45.67997" lon="2.80617">
        <ele>886</ele>
        <time>2022-08-17T12:25:17Z</time>
      </trkpt>
      <trkpt lat="45.67991" lon="2.80617">
        <ele>888</ele>
        <time>2022-08-17T12:25:18Z</time>
      </trkpt>
      <trkpt lat="45.67987" lon="2.80618">
        <ele>888</ele>
        <time>2022-08-17T12:25:19Z</time>
      </trkpt>
      <trkpt lat="45.67976" lon="2.80622">
        <ele>888</ele>
        <time>2022-08-17T12:25:22Z</time>
      </trkpt>
      <trkpt lat="45.67965" lon="2.80626">
        <ele>888</ele>
        <time>2022-08-17T12:25:25Z</time>
      </trkpt>
      <trkpt lat="45.67955" lon="2.8063">
        <ele>888</ele>
        <time>2022-08-17T12:25:28Z</time>
      </trkpt>
      <trkpt lat="45.67938" lon="2.80629">
        <ele>888</ele>
        <time>2022-08-17T12:25:31Z</time>
      </trkpt>
      <trkpt lat="45.67931" lon="2.80627">
        <ele>888</ele>
        <time>2022-08-17T12:25:34Z</time>
      </trkpt>
      <trkpt lat="45.67925" lon="2.80625">
        <ele>888</ele>
        <time>2022-08-17T12:25:37Z</time>
      </trkpt>
      <trkpt lat="45.67918" lon="2.80623">
        <ele>890</ele>
        <time>2022-08-17T12:25:38Z</time>
      </trkpt>
      <trkpt lat="45.67905" lon="2.80623">
        <ele>890</ele>
        <time>2022-08-17T12:25:40Z</time>
      </trkpt>
      <trkpt lat="45.679" lon="2.80624">
        <ele>890</ele>
        <time>2022-08-17T12:25:43Z</time>
      </trkpt>
      <trkpt lat="45.67894" lon="2.80625">
        <ele>890</ele>
        <time>2022-08-17T12:25:46Z</time>
      </trkpt>
      <trkpt lat="45.67888" lon="2.80627">
        <ele>892</ele>
        <time>2022-08-17T12:25:48Z</time>
      </trkpt>
      <trkpt lat="45.67871" lon="2.80641">
        <ele>892</ele>
        <time>2022-08-17T12:25:49Z</time>
      </trkpt>
      <trkpt lat="45.67865" lon="2.80648">
        <ele>892</ele>
        <time>2022-08-17T12:25:52Z</time>
      </trkpt>
      <trkpt lat="45.67858" lon="2.80656">
        <ele>892</ele>
        <time>2022-08-17T12:25:55Z</time>
      </trkpt>
      <trkpt lat="45.67851" lon="2.80663">
        <ele>894</ele>
        <time>2022-08-17T12:25:58Z</time>
      </trkpt>
      <trkpt lat="45.67838" lon="2.80678">
        <ele>894</ele>
        <time>2022-08-17T12:26:01Z</time>
      </trkpt>
      <trkpt lat="45.67833" lon="2.80685">
        <ele>894</ele>
        <time>2022-08-17T12:26:04Z</time>
      </trkpt>
      <trkpt lat="45.67828" lon="2.80691">
        <ele>894</ele>
        <time>2022-08-17T12:26:07Z</time>
      </trkpt>
      <trkpt lat="45.67823" lon="2.80698">
        <ele>895</ele>
        <time>2022-08-17T12:26:08Z</time>
      </trkpt>
      <trkpt lat="45.67813" lon="2.80711">
        <ele>895</ele>
        <time>2022-08-17T12:26:10Z</time>
      </trkpt>
      <trkpt lat="45.67808" lon="2.80715">
        <ele>895</ele>
        <time>2022-08-17T12:26:13Z</time>
      </trkpt>
      <trkpt lat="45.67804" lon="2.8072">
        <ele>895</ele>
        <time>2022-08-17T12:26:16Z</time>
      </trkpt>
      <trkpt lat="45.67799" lon="2.80725">
        <ele>897</ele>
        <time>2022-08-17T12:26:18Z</time>
      </trkpt>
      <trkpt lat="45.67781" lon="2.80739">
        <ele>897</ele>
        <time>2022-08-17T12:26:19Z</time>
      </trkpt>
      <trkpt lat="45.67774" lon="2.80745">
        <ele>897</ele>
        <time>2022-08-17T12:26:22Z</time>
      </trkpt>
      <trkpt lat="45.67767" lon="2.80751">
        <ele>897</ele>
        <time>2022-08-17T12:26:25Z</time>
      </trkpt>
      <trkpt lat="45.6776" lon="2.80757">
        <ele>898</ele>
        <time>2022-08-17T12:26:28Z</time>
      </trkpt>
      <trkpt lat="45.67745" lon="2.80766">
        <ele>898</ele>
        <time>2022-08-17T12:26:31Z</time>
      </trkpt>
      <trkpt lat="45.67739" lon="2.80769">
        <ele>898</ele>
        <time>2022-08-17T12:26:34Z</time>
      </trkpt>
      <trkpt lat="45.67734" lon="2.80773">
        <ele>898</ele>
        <time>2022-08-17T12:26:37Z</time>
      </trkpt>
      <trkpt lat="45.67728" lon="2.80776">
        <ele>900</ele>
        <time>2022-08-17T12:26:38Z</time>
      </trkpt>
      <trkpt lat="45.67716" lon="2.80782">
        <ele>900</ele>
        <time>2022-08-17T12:26:40Z</time>
      </trkpt>
      <trkpt lat="45.67709" lon="2.80783">
        <ele>900</ele>
        <time>2022-08-17T12:26:44Z</time>
      </trkpt>
      <trkpt lat="45.67702" lon="2.80783">
        <ele>900</ele>
        <time>2022-08-17T12:26:47Z</time>
      </trkpt>
      <trkpt lat="45.67696" lon="2.80784">
        <ele>902</ele>
        <time>2022-08-17T12:26:48Z</time>
      </trkpt>
      <trkpt lat="45.6768" lon="2.80787">
        <ele>902</ele>
        <time>2022-08-17T12:26:51Z</time>
      </trkpt>
      <trkpt lat="45.67675" lon="2.80789">
        <ele>902</ele>
        <time>2022-08-17T12:26:54Z</time>
      </trkpt>
      <trkpt lat="45.67669" lon="2.80791">
        <ele>902</ele>
        <time>2022-08-17T12:26:57Z</time>
      </trkpt>
      <trkpt lat="45.67664" lon="2.80793">
        <ele>904</ele>
        <time>2022-08-17T12:26:58Z</time>
      </trkpt>
      <trkpt lat="45.67652" lon="2.80802">
        <ele>904</ele>
        <time>2022-08-17T12:27:01Z</time>
      </trkpt>
      <trkpt lat="45.67648" lon="2.80805">
        <ele>904</ele>
        <time>2022-08-17T12:27:03Z</time>
      </trkpt>
      <trkpt lat="45.67643" lon="2.80809">
        <ele>904</ele>
        <time>2022-08-17T12:27:06Z</time>
      </trkpt>
      <trkpt lat="45.67638" lon="2.80812">
        <ele>907</ele>
        <time>2022-08-17T12:27:08Z</time>
      </trkpt>
      <trkpt lat="45.6763" lon="2.80819">
        <ele>907</ele>
        <time>2022-08-17T12:27:09Z</time>
      </trkpt>
      <trkpt lat="45.67621" lon="2.80825">
        <ele>907</ele>
        <time>2022-08-17T12:27:12Z</time>
      </trkpt>
      <trkpt lat="45.67611" lon="2.8083">
        <ele>907</ele>
        <time>2022-08-17T12:27:15Z</time>
      </trkpt>
      <trkpt lat="45.67601" lon="2.80833">
        <ele>909</ele>
        <time>2022-08-17T12:27:18Z</time>
      </trkpt>
      <trkpt lat="45.67586" lon="2.80836">
        <ele>909</ele>
        <time>2022-08-17T12:27:21Z</time>
      </trkpt>
      <trkpt lat="45.6758" lon="2.80837">
        <ele>909</ele>
        <time>2022-08-17T12:27:24Z</time>
      </trkpt>
      <trkpt lat="45.67575" lon="2.80837">
        <ele>909</ele>
        <time>2022-08-17T12:27:27Z</time>
      </trkpt>
      <trkpt lat="45.67569" lon="2.80837">
        <ele>911</ele>
        <time>2022-08-17T12:27:28Z</time>
      </trkpt>
      <trkpt lat="45.67558" lon="2.80836">
        <ele>911</ele>
        <time>2022-08-17T12:27:30Z</time>
      </trkpt>
      <trkpt lat="45.67552" lon="2.80836">
        <ele>911</ele>
        <time>2022-08-17T12:27:33Z</time>
      </trkpt>
      <trkpt lat="45.67547" lon="2.80835">
        <ele>911</ele>
        <time>2022-08-17T12:27:36Z</time>
      </trkpt>
      <trkpt lat="45.67542" lon="2.80835">
        <ele>913</ele>
        <time>2022-08-17T12:27:38Z</time>
      </trkpt>
      <trkpt lat="45.67525" lon="2.80835">
        <ele>913</ele>
        <time>2022-08-17T12:27:39Z</time>
      </trkpt>
      <trkpt lat="45.67519" lon="2.80835">
        <ele>913</ele>
        <time>2022-08-17T12:27:41Z</time>
      </trkpt>
      <trkpt lat="45.67513" lon="2.80834">
        <ele>913</ele>
        <time>2022-08-17T12:27:44Z</time>
      </trkpt>
      <trkpt lat="45.67506" lon="2.80834">
        <ele>913</ele>
        <time>2022-08-17T12:27:46Z</time>
      </trkpt>
      <trkpt lat="45.675" lon="2.80834">
        <ele>914</ele>
        <time>2022-08-17T12:27:48Z</time>
      </trkpt>
      <trkpt lat="45.67484" lon="2.80832">
        <ele>914</ele>
        <time>2022-08-17T12:27:51Z</time>
      </trkpt>
      <trkpt lat="45.67479" lon="2.80832">
        <ele>914</ele>
        <time>2022-08-17T12:27:53Z</time>
      </trkpt>
      <trkpt lat="45.67474" lon="2.80831">
        <ele>914</ele>
        <time>2022-08-17T12:27:55Z</time>
      </trkpt>
      <trkpt lat="45.67469" lon="2.80831">
        <ele>914</ele>
        <time>2022-08-17T12:27:57Z</time>
      </trkpt>
      <trkpt lat="45.67464" lon="2.80831">
        <ele>915</ele>
        <time>2022-08-17T12:27:58Z</time>
      </trkpt>
      <trkpt lat="45.67457" lon="2.8083">
        <ele>915</ele>
        <time>2022-08-17T12:28:00Z</time>
      </trkpt>
      <trkpt lat="45.67446" lon="2.80829">
        <ele>915</ele>
        <time>2022-08-17T12:28:03Z</time>
      </trkpt>
      <trkpt lat="45.67439" lon="2.80829">
        <ele>915</ele>
        <time>2022-08-17T12:28:05Z</time>
      </trkpt>
      <trkpt lat="45.67429" lon="2.80828">
        <ele>919</ele>
        <time>2022-08-17T12:28:08Z</time>
      </trkpt>
      <trkpt lat="45.67415" lon="2.80827">
        <ele>919</ele>
        <time>2022-08-17T12:28:10Z</time>
      </trkpt>
      <trkpt lat="45.67409" lon="2.80827">
        <ele>919</ele>
        <time>2022-08-17T12:28:13Z</time>
      </trkpt>
      <trkpt lat="45.67404" lon="2.80826">
        <ele>919</ele>
        <time>2022-08-17T12:28:14Z</time>
      </trkpt>
      <trkpt lat="45.67398" lon="2.80826">
        <ele>919</ele>
        <time>2022-08-17T12:28:16Z</time>
      </trkpt>
      <trkpt lat="45.67392" lon="2.80825">
        <ele>919</ele>
        <time>2022-08-17T12:28:18Z</time>
      </trkpt>
      <trkpt lat="45.67388" lon="2.80825">
        <ele>919</ele>
        <time>2022-08-17T12:28:19Z</time>
      </trkpt>
      <trkpt lat="45.67378" lon="2.80822">
        <ele>919</ele>
        <time>2022-08-17T12:28:22Z</time>
      </trkpt>
      <trkpt lat="45.67367" lon="2.80817">
        <ele>919</ele>
        <time>2022-08-17T12:28:25Z</time>
      </trkpt>
      <trkpt lat="45.67357" lon="2.8081">
        <ele>920</ele>
        <time>2022-08-17T12:28:28Z</time>
      </trkpt>
      <trkpt lat="45.67344" lon="2.80804">
        <ele>920</ele>
        <time>2022-08-17T12:28:30Z</time>
      </trkpt>
      <trkpt lat="45.67338" lon="2.80802">
        <ele>920</ele>
        <time>2022-08-17T12:28:32Z</time>
      </trkpt>
      <trkpt lat="45.67332" lon="2.808">
        <ele>920</ele>
        <time>2022-08-17T12:28:34Z</time>
      </trkpt>
      <trkpt lat="45.67326" lon="2.80798">
        <ele>920</ele>
        <time>2022-08-17T12:28:36Z</time>
      </trkpt>
      <trkpt lat="45.67321" lon="2.80796">
        <ele>922</ele>
        <time>2022-08-17T12:28:38Z</time>
      </trkpt>
      <trkpt lat="45.67307" lon="2.80797">
        <ele>922</ele>
        <time>2022-08-17T12:28:40Z</time>
      </trkpt>
      <trkpt lat="45.67301" lon="2.80799">
        <ele>922</ele>
        <time>2022-08-17T12:28:42Z</time>
      </trkpt>
      <trkpt lat="45.67296" lon="2.808">
        <ele>922</ele>
        <time>2022-08-17T12:28:44Z</time>
      </trkpt>
      <trkpt lat="45.6729" lon="2.80802">
        <ele>922</ele>
        <time>2022-08-17T12:28:46Z</time>
      </trkpt>
      <trkpt lat="45.67284" lon="2.80804">
        <ele>924</ele>
        <time>2022-08-17T12:28:48Z</time>
      </trkpt>
      <trkpt lat="45.67271" lon="2.80808">
        <ele>924</ele>
        <time>2022-08-17T12:28:50Z</time>
      </trkpt>
      <trkpt lat="45.67265" lon="2.80809">
        <ele>924</ele>
        <time>2022-08-17T12:28:52Z</time>
      </trkpt>
      <trkpt lat="45.67259" lon="2.8081">
        <ele>924</ele>
        <time>2022-08-17T12:28:54Z</time>
      </trkpt>
      <trkpt lat="45.67253" lon="2.80811">
        <ele>924</ele>
        <time>2022-08-17T12:28:56Z</time>
      </trkpt>
      <trkpt lat="45.67247" lon="2.80812">
        <ele>925</ele>
        <time>2022-08-17T12:28:58Z</time>
      </trkpt>
      <trkpt lat="45.67233" lon="2.80808">
        <ele>925</ele>
        <time>2022-08-17T12:29:00Z</time>
      </trkpt>
      <trkpt lat="45.67226" lon="2.80805">
        <ele>925</ele>
        <time>2022-08-17T12:29:03Z</time>
      </trkpt>
      <trkpt lat="45.67219" lon="2.80801">
        <ele>925</ele>
        <time>2022-08-17T12:29:05Z</time>
      </trkpt>
      <trkpt lat="45.67213" lon="2.80798">
        <ele>927</ele>
        <time>2022-08-17T12:29:08Z</time>
      </trkpt>
      <trkpt lat="45.67201" lon="2.80786">
        <ele>927</ele>
        <time>2022-08-17T12:29:10Z</time>
      </trkpt>
      <trkpt lat="45.67196" lon="2.80781">
        <ele>927</ele>
        <time>2022-08-17T12:29:12Z</time>
      </trkpt>
      <trkpt lat="45.67192" lon="2.80776">
        <ele>927</ele>
        <time>2022-08-17T12:29:14Z</time>
      </trkpt>
      <trkpt lat="45.67187" lon="2.8077">
        <ele>927</ele>
        <time>2022-08-17T12:29:16Z</time>
      </trkpt>
      <trkpt lat="45.67182" lon="2.80765">
        <ele>929</ele>
        <time>2022-08-17T12:29:18Z</time>
      </trkpt>
      <trkpt lat="45.6717" lon="2.80754">
        <ele>929</ele>
        <time>2022-08-17T12:29:20Z</time>
      </trkpt>
      <trkpt lat="45.67165" lon="2.8075">
        <ele>929</ele>
        <time>2022-08-17T12:29:22Z</time>
      </trkpt>
      <trkpt lat="45.67161" lon="2.80746">
        <ele>929</ele>
        <time>2022-08-17T12:29:24Z</time>
      </trkpt>
      <trkpt lat="45.67156" lon="2.80741">
        <ele>929</ele>
        <time>2022-08-17T12:29:26Z</time>
      </trkpt>
      <trkpt lat="45.67151" lon="2.80737">
        <ele>930</ele>
        <time>2022-08-17T12:29:28Z</time>
      </trkpt>
      <trkpt lat="45.6714" lon="2.80728">
        <ele>930</ele>
        <time>2022-08-17T12:29:30Z</time>
      </trkpt>
      <trkpt lat="45.67135" lon="2.80725">
        <ele>930</ele>
        <time>2022-08-17T12:29:32Z</time>
      </trkpt>
      <trkpt lat="45.6713" lon="2.80721">
        <ele>930</ele>
        <time>2022-08-17T12:29:35Z</time>
      </trkpt>
      <trkpt lat="45.67125" lon="2.80717">
        <ele>930</ele>
        <time>2022-08-17T12:29:37Z</time>
      </trkpt>
      <trkpt lat="45.6712" lon="2.80713">
        <ele>931</ele>
        <time>2022-08-17T12:29:38Z</time>
      </trkpt>
      <trkpt lat="45.67113" lon="2.80705">
        <ele>931</ele>
        <time>2022-08-17T12:29:39Z</time>
      </trkpt>
      <trkpt lat="45.67109" lon="2.807">
        <ele>931</ele>
        <time>2022-08-17T12:29:41Z</time>
      </trkpt>
      <trkpt lat="45.67105" lon="2.80695">
        <ele>931</ele>
        <time>2022-08-17T12:29:43Z</time>
      </trkpt>
      <trkpt lat="45.67101" lon="2.8069">
        <ele>931</ele>
        <time>2022-08-17T12:29:45Z</time>
      </trkpt>
      <trkpt lat="45.67097" lon="2.80685">
        <ele>931</ele>
        <time>2022-08-17T12:29:47Z</time>
      </trkpt>
      <trkpt lat="45.67093" lon="2.8068">
        <ele>935</ele>
        <time>2022-08-17T12:29:48Z</time>
      </trkpt>
      <trkpt lat="45.67085" lon="2.80672">
        <ele>935</ele>
        <time>2022-08-17T12:29:49Z</time>
      </trkpt>
      <trkpt lat="45.67079" lon="2.80667">
        <ele>935</ele>
        <time>2022-08-17T12:29:51Z</time>
      </trkpt>
      <trkpt lat="45.67074" lon="2.80663">
        <ele>935</ele>
        <time>2022-08-17T12:29:53Z</time>
      </trkpt>
      <trkpt lat="45.67068" lon="2.80659">
        <ele>935</ele>
        <time>2022-08-17T12:29:56Z</time>
      </trkpt>
      <trkpt lat="45.67063" lon="2.80654">
        <ele>936</ele>
        <time>2022-08-17T12:29:58Z</time>
      </trkpt>
      <trkpt lat="45.6705" lon="2.80658">
        <ele>936</ele>
        <time>2022-08-17T12:30:00Z</time>
      </trkpt>
      <trkpt lat="45.67045" lon="2.8066">
        <ele>936</ele>
        <time>2022-08-17T12:30:03Z</time>
      </trkpt>
      <trkpt lat="45.6704" lon="2.80662">
        <ele>936</ele>
        <time>2022-08-17T12:30:06Z</time>
      </trkpt>
      <trkpt lat="45.67035" lon="2.80664">
        <ele>937</ele>
        <time>2022-08-17T12:30:08Z</time>
      </trkpt>
      <trkpt lat="45.67019" lon="2.80669">
        <ele>937</ele>
        <time>2022-08-17T12:30:09Z</time>
      </trkpt>
      <trkpt lat="45.67013" lon="2.80669">
        <ele>937</ele>
        <time>2022-08-17T12:30:12Z</time>
      </trkpt>
      <trkpt lat="45.67007" lon="2.8067">
        <ele>937</ele>
        <time>2022-08-17T12:30:14Z</time>
      </trkpt>
      <trkpt lat="45.67001" lon="2.8067">
        <ele>937</ele>
        <time>2022-08-17T12:30:16Z</time>
      </trkpt>
      <trkpt lat="45.66995" lon="2.8067">
        <ele>939</ele>
        <time>2022-08-17T12:30:18Z</time>
      </trkpt>
      <trkpt lat="45.66981" lon="2.80668">
        <ele>939</ele>
        <time>2022-08-17T12:30:21Z</time>
      </trkpt>
      <trkpt lat="45.66976" lon="2.80667">
        <ele>939</ele>
        <time>2022-08-17T12:30:23Z</time>
      </trkpt>
      <trkpt lat="45.66972" lon="2.80667">
        <ele>939</ele>
        <time>2022-08-17T12:30:25Z</time>
      </trkpt>
      <trkpt lat="45.66967" lon="2.80666">
        <ele>939</ele>
        <time>2022-08-17T12:30:27Z</time>
      </trkpt>
      <trkpt lat="45.66963" lon="2.80665">
        <ele>941</ele>
        <time>2022-08-17T12:30:28Z</time>
      </trkpt>
      <trkpt lat="45.66953" lon="2.80664">
        <ele>941</ele>
        <time>2022-08-17T12:30:29Z</time>
      </trkpt>
      <trkpt lat="45.66947" lon="2.80664">
        <ele>941</ele>
        <time>2022-08-17T12:30:31Z</time>
      </trkpt>
      <trkpt lat="45.66941" lon="2.80663">
        <ele>941</ele>
        <time>2022-08-17T12:30:33Z</time>
      </trkpt>
      <trkpt lat="45.66935" lon="2.80662">
        <ele>941</ele>
        <time>2022-08-17T12:30:36Z</time>
      </trkpt>
      <trkpt lat="45.66929" lon="2.80662">
        <ele>942</ele>
        <time>2022-08-17T12:30:38Z</time>
      </trkpt>
      <trkpt lat="45.66917" lon="2.8066">
        <ele>942</ele>
        <time>2022-08-17T12:30:40Z</time>
      </trkpt>
      <trkpt lat="45.66911" lon="2.80659">
        <ele>942</ele>
        <time>2022-08-17T12:30:42Z</time>
      </trkpt>
      <trkpt lat="45.66906" lon="2.80659">
        <ele>942</ele>
        <time>2022-08-17T12:30:44Z</time>
      </trkpt>
      <trkpt lat="45.66901" lon="2.80658">
        <ele>942</ele>
        <time>2022-08-17T12:30:46Z</time>
      </trkpt>
      <trkpt lat="45.66895" lon="2.80657">
        <ele>943</ele>
        <time>2022-08-17T12:30:48Z</time>
      </trkpt>
      <trkpt lat="45.66883" lon="2.80655">
        <ele>943</ele>
        <time>2022-08-17T12:30:50Z</time>
      </trkpt>
      <trkpt lat="45.66877" lon="2.80654">
        <ele>943</ele>
        <time>2022-08-17T12:30:52Z</time>
      </trkpt>
      <trkpt lat="45.66871" lon="2.80653">
        <ele>943</ele>
        <time>2022-08-17T12:30:54Z</time>
      </trkpt>
      <trkpt lat="45.66865" lon="2.80652">
        <ele>943</ele>
        <time>2022-08-17T12:30:57Z</time>
      </trkpt>
      <trkpt lat="45.66859" lon="2.80651">
        <ele>945</ele>
        <time>2022-08-17T12:30:58Z</time>
      </trkpt>
      <trkpt lat="45.66851" lon="2.8065">
        <ele>945</ele>
        <time>2022-08-17T12:30:59Z</time>
      </trkpt>
      <trkpt lat="45.66845" lon="2.80649">
        <ele>945</ele>
        <time>2022-08-17T12:31:01Z</time>
      </trkpt>
      <trkpt lat="45.6684" lon="2.80648">
        <ele>945</ele>
        <time>2022-08-17T12:31:03Z</time>
      </trkpt>
      <trkpt lat="45.66835" lon="2.80648">
        <ele>945</ele>
        <time>2022-08-17T12:31:05Z</time>
      </trkpt>
      <trkpt lat="45.6683" lon="2.80647">
        <ele>945</ele>
        <time>2022-08-17T12:31:07Z</time>
      </trkpt>
      <trkpt lat="45.66824" lon="2.80646">
        <ele>946</ele>
        <time>2022-08-17T12:31:08Z</time>
      </trkpt>
      <trkpt lat="45.66816" lon="2.80645">
        <ele>946</ele>
        <time>2022-08-17T12:31:09Z</time>
      </trkpt>
      <trkpt lat="45.6681" lon="2.80644">
        <ele>946</ele>
        <time>2022-08-17T12:31:11Z</time>
      </trkpt>
      <trkpt lat="45.66805" lon="2.80643">
        <ele>946</ele>
        <time>2022-08-17T12:31:13Z</time>
      </trkpt>
      <trkpt lat="45.668" lon="2.80642">
        <ele>946</ele>
        <time>2022-08-17T12:31:15Z</time>
      </trkpt>
      <trkpt lat="45.66794" lon="2.80641">
        <ele>946</ele>
        <time>2022-08-17T12:31:17Z</time>
      </trkpt>
      <trkpt lat="45.66789" lon="2.80641">
        <ele>949</ele>
        <time>2022-08-17T12:31:18Z</time>
      </trkpt>
      <trkpt lat="45.6678" lon="2.80646">
        <ele>949</ele>
        <time>2022-08-17T12:31:19Z</time>
      </trkpt>
      <trkpt lat="45.66774" lon="2.80651">
        <ele>949</ele>
        <time>2022-08-17T12:31:21Z</time>
      </trkpt>
      <trkpt lat="45.66769" lon="2.80655">
        <ele>949</ele>
        <time>2022-08-17T12:31:24Z</time>
      </trkpt>
      <trkpt lat="45.66763" lon="2.8066">
        <ele>949</ele>
        <time>2022-08-17T12:31:27Z</time>
      </trkpt>
      <trkpt lat="45.66757" lon="2.80665">
        <ele>950</ele>
        <time>2022-08-17T12:31:28Z</time>
      </trkpt>
      <trkpt lat="45.66754" lon="2.80668">
        <ele>950</ele>
        <time>2022-08-17T12:31:29Z</time>
      </trkpt>
      <trkpt lat="45.66748" lon="2.80673">
        <ele>950</ele>
        <time>2022-08-17T12:31:31Z</time>
      </trkpt>
      <trkpt lat="45.66741" lon="2.80676">
        <ele>950</ele>
        <time>2022-08-17T12:31:33Z</time>
      </trkpt>
      <trkpt lat="45.66733" lon="2.80677">
        <ele>950</ele>
        <time>2022-08-17T12:31:35Z</time>
      </trkpt>
      <trkpt lat="45.66722" lon="2.80679">
        <ele>951</ele>
        <time>2022-08-17T12:31:38Z</time>
      </trkpt>
      <trkpt lat="45.66709" lon="2.80678">
        <ele>951</ele>
        <time>2022-08-17T12:31:40Z</time>
      </trkpt>
      <trkpt lat="45.66703" lon="2.80677">
        <ele>951</ele>
        <time>2022-08-17T12:31:42Z</time>
      </trkpt>
      <trkpt lat="45.66697" lon="2.80677">
        <ele>951</ele>
        <time>2022-08-17T12:31:44Z</time>
      </trkpt>
      <trkpt lat="45.66691" lon="2.80676">
        <ele>951</ele>
        <time>2022-08-17T12:31:46Z</time>
      </trkpt>
      <trkpt lat="45.66686" lon="2.80676">
        <ele>952</ele>
        <time>2022-08-17T12:31:48Z</time>
      </trkpt>
      <trkpt lat="45.66673" lon="2.80673">
        <ele>952</ele>
        <time>2022-08-17T12:31:50Z</time>
      </trkpt>
      <trkpt lat="45.66667" lon="2.80671">
        <ele>952</ele>
        <time>2022-08-17T12:31:52Z</time>
      </trkpt>
      <trkpt lat="45.66661" lon="2.8067">
        <ele>952</ele>
        <time>2022-08-17T12:31:54Z</time>
      </trkpt>
      <trkpt lat="45.66656" lon="2.80668">
        <ele>952</ele>
        <time>2022-08-17T12:31:56Z</time>
      </trkpt>
      <trkpt lat="45.6665" lon="2.80666">
        <ele>954</ele>
        <time>2022-08-17T12:31:58Z</time>
      </trkpt>
      <trkpt lat="45.66638" lon="2.8066">
        <ele>954</ele>
        <time>2022-08-17T12:32:00Z</time>
      </trkpt>
      <trkpt lat="45.66633" lon="2.80655">
        <ele>954</ele>
        <time>2022-08-17T12:32:02Z</time>
      </trkpt>
      <trkpt lat="45.66628" lon="2.80651">
        <ele>954</ele>
        <time>2022-08-17T12:32:04Z</time>
      </trkpt>
      <trkpt lat="45.66624" lon="2.80647">
        <ele>954</ele>
        <time>2022-08-17T12:32:06Z</time>
      </trkpt>
      <trkpt lat="45.66619" lon="2.80642">
        <ele>956</ele>
        <time>2022-08-17T12:32:08Z</time>
      </trkpt>
      <trkpt lat="45.66613" lon="2.80626">
        <ele>956</ele>
        <time>2022-08-17T12:32:10Z</time>
      </trkpt>
      <trkpt lat="45.6661" lon="2.80619">
        <ele>956</ele>
        <time>2022-08-17T12:32:12Z</time>
      </trkpt>
      <trkpt lat="45.66608" lon="2.80612">
        <ele>956</ele>
        <time>2022-08-17T12:32:14Z</time>
      </trkpt>
      <trkpt lat="45.66606" lon="2.80604">
        <ele>956</ele>
        <time>2022-08-17T12:32:16Z</time>
      </trkpt>
      <trkpt lat="45.66604" lon="2.80597">
        <ele>957</ele>
        <time>2022-08-17T12:32:18Z</time>
      </trkpt>
      <trkpt lat="45.66599" lon="2.8058">
        <ele>957</ele>
        <time>2022-08-17T12:32:20Z</time>
      </trkpt>
      <trkpt lat="45.66597" lon="2.80572">
        <ele>957</ele>
        <time>2022-08-17T12:32:22Z</time>
      </trkpt>
      <trkpt lat="45.66594" lon="2.80565">
        <ele>957</ele>
        <time>2022-08-17T12:32:24Z</time>
      </trkpt>
      <trkpt lat="45.66592" lon="2.80557">
        <ele>957</ele>
        <time>2022-08-17T12:32:26Z</time>
      </trkpt>
      <trkpt lat="45.6659" lon="2.8055">
        <ele>959</ele>
        <time>2022-08-17T12:32:28Z</time>
      </trkpt>
      <trkpt lat="45.66586" lon="2.80542">
        <ele>959</ele>
        <time>2022-08-17T12:32:30Z</time>
      </trkpt>
      <trkpt lat="45.66581" lon="2.80534">
        <ele>959</ele>
        <time>2022-08-17T12:32:32Z</time>
      </trkpt>
      <trkpt lat="45.66573" lon="2.80525">
        <ele>959</ele>
        <time>2022-08-17T12:32:35Z</time>
      </trkpt>
      <trkpt lat="45.66564" lon="2.80518">
        <ele>961</ele>
        <time>2022-08-17T12:32:38Z</time>
      </trkpt>
      <trkpt lat="45.66547" lon="2.80512">
        <ele>961</ele>
        <time>2022-08-17T12:32:41Z</time>
      </trkpt>
      <trkpt lat="45.66542" lon="2.8051">
        <ele>961</ele>
        <time>2022-08-17T12:32:43Z</time>
      </trkpt>
      <trkpt lat="45.66536" lon="2.80509">
        <ele>961</ele>
        <time>2022-08-17T12:32:45Z</time>
      </trkpt>
      <trkpt lat="45.66531" lon="2.80507">
        <ele>961</ele>
        <time>2022-08-17T12:32:47Z</time>
      </trkpt>
      <trkpt lat="45.66525" lon="2.80505">
        <ele>962</ele>
        <time>2022-08-17T12:32:48Z</time>
      </trkpt>
      <trkpt lat="45.66517" lon="2.80509">
        <ele>962</ele>
        <time>2022-08-17T12:32:49Z</time>
      </trkpt>
      <trkpt lat="45.66513" lon="2.80513">
        <ele>962</ele>
        <time>2022-08-17T12:32:50Z</time>
      </trkpt>
      <trkpt lat="45.6651" lon="2.80516">
        <ele>962</ele>
        <time>2022-08-17T12:32:51Z</time>
      </trkpt>
      <trkpt lat="45.66506" lon="2.8052">
        <ele>962</ele>
        <time>2022-08-17T12:32:52Z</time>
      </trkpt>
      <trkpt lat="45.66502" lon="2.80523">
        <ele>962</ele>
        <time>2022-08-17T12:32:53Z</time>
      </trkpt>
      <trkpt lat="45.66498" lon="2.80527">
        <ele>962</ele>
        <time>2022-08-17T12:32:54Z</time>
      </trkpt>
      <trkpt lat="45.66495" lon="2.8053">
        <ele>962</ele>
        <time>2022-08-17T12:32:55Z</time>
      </trkpt>
      <trkpt lat="45.66491" lon="2.80534">
        <ele>962</ele>
        <time>2022-08-17T12:32:56Z</time>
      </trkpt>
      <trkpt lat="45.66487" lon="2.80537">
        <ele>964</ele>
        <time>2022-08-17T12:32:58Z</time>
      </trkpt>
      <trkpt lat="45.66475" lon="2.80552">
        <ele>964</ele>
        <time>2022-08-17T12:33:00Z</time>
      </trkpt>
      <trkpt lat="45.6647" lon="2.80559">
        <ele>964</ele>
        <time>2022-08-17T12:33:02Z</time>
      </trkpt>
      <trkpt lat="45.66465" lon="2.80566">
        <ele>964</ele>
        <time>2022-08-17T12:33:04Z</time>
      </trkpt>
      <trkpt lat="45.66459" lon="2.80573">
        <ele>964</ele>
        <time>2022-08-17T12:33:06Z</time>
      </trkpt>
      <trkpt lat="45.66454" lon="2.8058">
        <ele>964</ele>
        <time>2022-08-17T12:33:08Z</time>
      </trkpt>
      <trkpt lat="45.66441" lon="2.80594">
        <ele>964</ele>
        <time>2022-08-17T12:33:10Z</time>
      </trkpt>
      <trkpt lat="45.66435" lon="2.80599">
        <ele>964</ele>
        <time>2022-08-17T12:33:12Z</time>
      </trkpt>
      <trkpt lat="45.66428" lon="2.80604">
        <ele>964</ele>
        <time>2022-08-17T12:33:14Z</time>
      </trkpt>
      <trkpt lat="45.66422" lon="2.80609">
        <ele>964</ele>
        <time>2022-08-17T12:33:16Z</time>
      </trkpt>
      <trkpt lat="45.66416" lon="2.80614">
        <ele>963</ele>
        <time>2022-08-17T12:33:18Z</time>
      </trkpt>
      <trkpt lat="45.66399" lon="2.80614">
        <ele>963</ele>
        <time>2022-08-17T12:33:20Z</time>
      </trkpt>
      <trkpt lat="45.66392" lon="2.80611">
        <ele>963</ele>
        <time>2022-08-17T12:33:22Z</time>
      </trkpt>
      <trkpt lat="45.66385" lon="2.80609">
        <ele>963</ele>
        <time>2022-08-17T12:33:24Z</time>
      </trkpt>
      <trkpt lat="45.66378" lon="2.80606">
        <ele>963</ele>
        <time>2022-08-17T12:33:26Z</time>
      </trkpt>
      <trkpt lat="45.66371" lon="2.80604">
        <ele>963</ele>
        <time>2022-08-17T12:33:28Z</time>
      </trkpt>
      <trkpt lat="45.66356" lon="2.80599">
        <ele>963</ele>
        <time>2022-08-17T12:33:30Z</time>
      </trkpt>
      <trkpt lat="45.6635" lon="2.80598">
        <ele>963</ele>
        <time>2022-08-17T12:33:32Z</time>
      </trkpt>
      <trkpt lat="45.66344" lon="2.80597">
        <ele>963</ele>
        <time>2022-08-17T12:33:34Z</time>
      </trkpt>
      <trkpt lat="45.66337" lon="2.80595">
        <ele>963</ele>
        <time>2022-08-17T12:33:36Z</time>
      </trkpt>
      <trkpt lat="45.66331" lon="2.80594">
        <ele>964</ele>
        <time>2022-08-17T12:33:38Z</time>
      </trkpt>
      <trkpt lat="45.66316" lon="2.80593">
        <ele>964</ele>
        <time>2022-08-17T12:33:40Z</time>
      </trkpt>
      <trkpt lat="45.6631" lon="2.80592">
        <ele>964</ele>
        <time>2022-08-17T12:33:42Z</time>
      </trkpt>
      <trkpt lat="45.66304" lon="2.80592">
        <ele>964</ele>
        <time>2022-08-17T12:33:44Z</time>
      </trkpt>
      <trkpt lat="45.66297" lon="2.80592">
        <ele>964</ele>
        <time>2022-08-17T12:33:46Z</time>
      </trkpt>
      <trkpt lat="45.66291" lon="2.80591">
        <ele>966</ele>
        <time>2022-08-17T12:33:48Z</time>
      </trkpt>
      <trkpt lat="45.66278" lon="2.80592">
        <ele>966</ele>
        <time>2022-08-17T12:33:50Z</time>
      </trkpt>
      <trkpt lat="45.66272" lon="2.80592">
        <ele>966</ele>
        <time>2022-08-17T12:33:52Z</time>
      </trkpt>
      <trkpt lat="45.66266" lon="2.80592">
        <ele>966</ele>
        <time>2022-08-17T12:33:54Z</time>
      </trkpt>
      <trkpt lat="45.6626" lon="2.80592">
        <ele>966</ele>
        <time>2022-08-17T12:33:56Z</time>
      </trkpt>
      <trkpt lat="45.66254" lon="2.80593">
        <ele>968</ele>
        <time>2022-08-17T12:33:58Z</time>
      </trkpt>
      <trkpt lat="45.66241" lon="2.80592">
        <ele>968</ele>
        <time>2022-08-17T12:34:00Z</time>
      </trkpt>
      <trkpt lat="45.66236" lon="2.80592">
        <ele>968</ele>
        <time>2022-08-17T12:34:02Z</time>
      </trkpt>
      <trkpt lat="45.6623" lon="2.80591">
        <ele>968</ele>
        <time>2022-08-17T12:34:04Z</time>
      </trkpt>
      <trkpt lat="45.66224" lon="2.80591">
        <ele>968</ele>
        <time>2022-08-17T12:34:07Z</time>
      </trkpt>
      <trkpt lat="45.66219" lon="2.8059">
        <ele>971</ele>
        <time>2022-08-17T12:34:08Z</time>
      </trkpt>
      <trkpt lat="45.6621" lon="2.80587">
        <ele>971</ele>
        <time>2022-08-17T12:34:09Z</time>
      </trkpt>
      <trkpt lat="45.66205" lon="2.80586">
        <ele>971</ele>
        <time>2022-08-17T12:34:11Z</time>
      </trkpt>
      <trkpt lat="45.66199" lon="2.80584">
        <ele>971</ele>
        <time>2022-08-17T12:34:13Z</time>
      </trkpt>
      <trkpt lat="45.66194" lon="2.80582">
        <ele>971</ele>
        <time>2022-08-17T12:34:15Z</time>
      </trkpt>
      <trkpt lat="45.66189" lon="2.8058">
        <ele>971</ele>
        <time>2022-08-17T12:34:17Z</time>
      </trkpt>
      <trkpt lat="45.66184" lon="2.80579">
        <ele>972</ele>
        <time>2022-08-17T12:34:18Z</time>
      </trkpt>
      <trkpt lat="45.66175" lon="2.80576">
        <ele>972</ele>
        <time>2022-08-17T12:34:19Z</time>
      </trkpt>
      <trkpt lat="45.6617" lon="2.80574">
        <ele>972</ele>
        <time>2022-08-17T12:34:21Z</time>
      </trkpt>
      <trkpt lat="45.66165" lon="2.80573">
        <ele>972</ele>
        <time>2022-08-17T12:34:23Z</time>
      </trkpt>
      <trkpt lat="45.6616" lon="2.80571">
        <ele>972</ele>
        <time>2022-08-17T12:34:25Z</time>
      </trkpt>
      <trkpt lat="45.66155" lon="2.80569">
        <ele>972</ele>
        <time>2022-08-17T12:34:27Z</time>
      </trkpt>
      <trkpt lat="45.66151" lon="2.80568">
        <ele>974</ele>
        <time>2022-08-17T12:34:28Z</time>
      </trkpt>
      <trkpt lat="45.66141" lon="2.80564">
        <ele>974</ele>
        <time>2022-08-17T12:34:29Z</time>
      </trkpt>
      <trkpt lat="45.66136" lon="2.80562">
        <ele>974</ele>
        <time>2022-08-17T12:34:32Z</time>
      </trkpt>
      <trkpt lat="45.6613" lon="2.80559">
        <ele>974</ele>
        <time>2022-08-17T12:34:35Z</time>
      </trkpt>
      <trkpt lat="45.66124" lon="2.80557">
        <ele>974</ele>
        <time>2022-08-17T12:34:37Z</time>
      </trkpt>
      <trkpt lat="45.66118" lon="2.80554">
        <ele>976</ele>
        <time>2022-08-17T12:34:38Z</time>
      </trkpt>
      <trkpt lat="45.6611" lon="2.8055">
        <ele>976</ele>
        <time>2022-08-17T12:34:39Z</time>
      </trkpt>
      <trkpt lat="45.66105" lon="2.80548">
        <ele>976</ele>
        <time>2022-08-17T12:34:41Z</time>
      </trkpt>
      <trkpt lat="45.661" lon="2.80546">
        <ele>976</ele>
        <time>2022-08-17T12:34:43Z</time>
      </trkpt>
      <trkpt lat="45.66095" lon="2.80543">
        <ele>976</ele>
        <time>2022-08-17T12:34:45Z</time>
      </trkpt>
      <trkpt lat="45.6609" lon="2.80541">
        <ele>976</ele>
        <time>2022-08-17T12:34:47Z</time>
      </trkpt>
      <trkpt lat="45.66085" lon="2.80539">
        <ele>980</ele>
        <time>2022-08-17T12:34:48Z</time>
      </trkpt>
      <trkpt lat="45.66077" lon="2.80535">
        <ele>980</ele>
        <time>2022-08-17T12:34:49Z</time>
      </trkpt>
      <trkpt lat="45.66072" lon="2.80533">
        <ele>980</ele>
        <time>2022-08-17T12:34:51Z</time>
      </trkpt>
      <trkpt lat="45.66068" lon="2.80531">
        <ele>980</ele>
        <time>2022-08-17T12:34:53Z</time>
      </trkpt>
      <trkpt lat="45.66063" lon="2.80529">
        <ele>980</ele>
        <time>2022-08-17T12:34:56Z</time>
      </trkpt>
      <trkpt lat="45.66059" lon="2.80527">
        <ele>981</ele>
        <time>2022-08-17T12:34:58Z</time>
      </trkpt>
      <trkpt lat="45.66043" lon="2.8052">
        <ele>981</ele>
        <time>2022-08-17T12:34:59Z</time>
      </trkpt>
      <trkpt lat="45.66037" lon="2.80518">
        <ele>981</ele>
        <time>2022-08-17T12:35:02Z</time>
      </trkpt>
      <trkpt lat="45.66031" lon="2.80515">
        <ele>981</ele>
        <time>2022-08-17T12:35:04Z</time>
      </trkpt>
      <trkpt lat="45.66025" lon="2.80513">
        <ele>981</ele>
        <time>2022-08-17T12:35:07Z</time>
      </trkpt>
      <trkpt lat="45.66019" lon="2.80511">
        <ele>983</ele>
        <time>2022-08-17T12:35:08Z</time>
      </trkpt>
      <trkpt lat="45.66008" lon="2.80505">
        <ele>983</ele>
        <time>2022-08-17T12:35:10Z</time>
      </trkpt>
      <trkpt lat="45.66004" lon="2.80503">
        <ele>983</ele>
        <time>2022-08-17T12:35:13Z</time>
      </trkpt>
      <trkpt lat="45.65999" lon="2.805">
        <ele>983</ele>
        <time>2022-08-17T12:35:16Z</time>
      </trkpt>
      <trkpt lat="45.65994" lon="2.80497">
        <ele>985</ele>
        <time>2022-08-17T12:35:18Z</time>
      </trkpt>
      <trkpt lat="45.65986" lon="2.8049">
        <ele>985</ele>
        <time>2022-08-17T12:35:19Z</time>
      </trkpt>
      <trkpt lat="45.65977" lon="2.80481">
        <ele>985</ele>
        <time>2022-08-17T12:35:22Z</time>
      </trkpt>
      <trkpt lat="45.65969" lon="2.80473">
        <ele>985</ele>
        <time>2022-08-17T12:35:25Z</time>
      </trkpt>
      <trkpt lat="45.6596" lon="2.80465">
        <ele>987</ele>
        <time>2022-08-17T12:35:28Z</time>
      </trkpt>
      <trkpt lat="45.65946" lon="2.80461">
        <ele>987</ele>
        <time>2022-08-17T12:35:31Z</time>
      </trkpt>
      <trkpt lat="45.65941" lon="2.80462">
        <ele>987</ele>
        <time>2022-08-17T12:35:33Z</time>
      </trkpt>
      <trkpt lat="45.65937" lon="2.80462">
        <ele>987</ele>
        <time>2022-08-17T12:35:35Z</time>
      </trkpt>
      <trkpt lat="45.65932" lon="2.80463">
        <ele>987</ele>
        <time>2022-08-17T12:35:37Z</time>
      </trkpt>
      <trkpt lat="45.65927" lon="2.80464">
        <ele>989</ele>
        <time>2022-08-17T12:35:38Z</time>
      </trkpt>
      <trkpt lat="45.65922" lon="2.80474">
        <ele>989</ele>
        <time>2022-08-17T12:35:39Z</time>
      </trkpt>
      <trkpt lat="45.65919" lon="2.80481">
        <ele>989</ele>
        <time>2022-08-17T12:35:41Z</time>
      </trkpt>
      <trkpt lat="45.65917" lon="2.80489">
        <ele>989</ele>
        <time>2022-08-17T12:35:44Z</time>
      </trkpt>
      <trkpt lat="45.65914" lon="2.80496">
        <ele>989</ele>
        <time>2022-08-17T12:35:47Z</time>
      </trkpt>
      <trkpt lat="45.65912" lon="2.80504">
        <ele>990</ele>
        <time>2022-08-17T12:35:48Z</time>
      </trkpt>
      <trkpt lat="45.6591" lon="2.80514">
        <ele>990</ele>
        <time>2022-08-17T12:35:49Z</time>
      </trkpt>
      <trkpt lat="45.65909" lon="2.8052">
        <ele>990</ele>
        <time>2022-08-17T12:35:51Z</time>
      </trkpt>
      <trkpt lat="45.65907" lon="2.80526">
        <ele>990</ele>
        <time>2022-08-17T12:35:54Z</time>
      </trkpt>
      <trkpt lat="45.65906" lon="2.80532">
        <ele>990</ele>
        <time>2022-08-17T12:35:56Z</time>
      </trkpt>
      <trkpt lat="45.65904" lon="2.80538">
        <ele>992</ele>
        <time>2022-08-17T12:35:58Z</time>
      </trkpt>
      <trkpt lat="45.65897" lon="2.80547">
        <ele>992</ele>
        <time>2022-08-17T12:35:59Z</time>
      </trkpt>
      <trkpt lat="45.65889" lon="2.80552">
        <ele>992</ele>
        <time>2022-08-17T12:36:02Z</time>
      </trkpt>
      <trkpt lat="45.6588" lon="2.80552">
        <ele>992</ele>
        <time>2022-08-17T12:36:05Z</time>
      </trkpt>
      <trkpt lat="45.65873" lon="2.8055">
        <ele>997</ele>
        <time>2022-08-17T12:36:08Z</time>
      </trkpt>
      <trkpt lat="45.6586" lon="2.80546">
        <ele>997</ele>
        <time>2022-08-17T12:36:11Z</time>
      </trkpt>
      <trkpt lat="45.65856" lon="2.80544">
        <ele>997</ele>
        <time>2022-08-17T12:36:14Z</time>
      </trkpt>
      <trkpt lat="45.65851" lon="2.80543">
        <ele>997</ele>
        <time>2022-08-17T12:36:17Z</time>
      </trkpt>
      <trkpt lat="45.65846" lon="2.80541">
        <ele>998</ele>
        <time>2022-08-17T12:36:18Z</time>
      </trkpt>
      <trkpt lat="45.65835" lon="2.80541">
        <ele>998</ele>
        <time>2022-08-17T12:36:20Z</time>
      </trkpt>
      <trkpt lat="45.6583" lon="2.80543">
        <ele>998</ele>
        <time>2022-08-17T12:36:23Z</time>
      </trkpt>
      <trkpt lat="45.65825" lon="2.80544">
        <ele>998</ele>
        <time>2022-08-17T12:36:25Z</time>
      </trkpt>
      <trkpt lat="45.65821" lon="2.80545">
        <ele>998</ele>
        <time>2022-08-17T12:36:27Z</time>
      </trkpt>
      <trkpt lat="45.65816" lon="2.80546">
        <ele>999</ele>
        <time>2022-08-17T12:36:28Z</time>
      </trkpt>
      <trkpt lat="45.65808" lon="2.80549">
        <ele>999</ele>
        <time>2022-08-17T12:36:29Z</time>
      </trkpt>
      <trkpt lat="45.65802" lon="2.8055">
        <ele>999</ele>
        <time>2022-08-17T12:36:31Z</time>
      </trkpt>
      <trkpt lat="45.65797" lon="2.80552">
        <ele>999</ele>
        <time>2022-08-17T12:36:33Z</time>
      </trkpt>
      <trkpt lat="45.65792" lon="2.80554">
        <ele>999</ele>
        <time>2022-08-17T12:36:35Z</time>
      </trkpt>
      <trkpt lat="45.65787" lon="2.80555">
        <ele>999</ele>
        <time>2022-08-17T12:36:37Z</time>
      </trkpt>
      <trkpt lat="45.65782" lon="2.80557">
        <ele>999</ele>
        <time>2022-08-17T12:36:38Z</time>
      </trkpt>
      <trkpt lat="45.65772" lon="2.8056">
        <ele>999</ele>
        <time>2022-08-17T12:36:39Z</time>
      </trkpt>
      <trkpt lat="45.65766" lon="2.80561">
        <ele>999</ele>
        <time>2022-08-17T12:36:41Z</time>
      </trkpt>
      <trkpt lat="45.65759" lon="2.80563">
        <ele>999</ele>
        <time>2022-08-17T12:36:44Z</time>
      </trkpt>
      <trkpt lat="45.65753" lon="2.80564">
        <ele>999</ele>
        <time>2022-08-17T12:36:47Z</time>
      </trkpt>
      <trkpt lat="45.65746" lon="2.80566">
        <ele>1001</ele>
        <time>2022-08-17T12:36:48Z</time>
      </trkpt>
      <trkpt lat="45.65732" lon="2.80567">
        <ele>1001</ele>
        <time>2022-08-17T12:36:50Z</time>
      </trkpt>
      <trkpt lat="45.65727" lon="2.80568">
        <ele>1001</ele>
        <time>2022-08-17T12:36:53Z</time>
      </trkpt>
      <trkpt lat="45.65721" lon="2.80568">
        <ele>1001</ele>
        <time>2022-08-17T12:36:56Z</time>
      </trkpt>
      <trkpt lat="45.65715" lon="2.80569">
        <ele>1002</ele>
        <time>2022-08-17T12:36:58Z</time>
      </trkpt>
      <trkpt lat="45.65696" lon="2.80574">
        <ele>1002</ele>
        <time>2022-08-17T12:36:59Z</time>
      </trkpt>
      <trkpt lat="45.65689" lon="2.80577">
        <ele>1002</ele>
        <time>2022-08-17T12:37:02Z</time>
      </trkpt>
      <trkpt lat="45.65682" lon="2.80581">
        <ele>1002</ele>
        <time>2022-08-17T12:37:04Z</time>
      </trkpt>
      <trkpt lat="45.65674" lon="2.80585">
        <ele>1002</ele>
        <time>2022-08-17T12:37:06Z</time>
      </trkpt>
      <trkpt lat="45.65667" lon="2.80588">
        <ele>1002</ele>
        <time>2022-08-17T12:37:08Z</time>
      </trkpt>
      <trkpt lat="45.65652" lon="2.80597">
        <ele>1002</ele>
        <time>2022-08-17T12:37:10Z</time>
      </trkpt>
      <trkpt lat="45.65646" lon="2.80601">
        <ele>1002</ele>
        <time>2022-08-17T12:37:12Z</time>
      </trkpt>
      <trkpt lat="45.6564" lon="2.80605">
        <ele>1002</ele>
        <time>2022-08-17T12:37:14Z</time>
      </trkpt>
      <trkpt lat="45.65633" lon="2.80609">
        <ele>1002</ele>
        <time>2022-08-17T12:37:16Z</time>
      </trkpt>
      <trkpt lat="45.65627" lon="2.80614">
        <ele>1003</ele>
        <time>2022-08-17T12:37:18Z</time>
      </trkpt>
      <trkpt lat="45.65612" lon="2.80623">
        <ele>1003</ele>
        <time>2022-08-17T12:37:20Z</time>
      </trkpt>
      <trkpt lat="45.65606" lon="2.80626">
        <ele>1003</ele>
        <time>2022-08-17T12:37:22Z</time>
      </trkpt>
      <trkpt lat="45.65599" lon="2.8063">
        <ele>1003</ele>
        <time>2022-08-17T12:37:24Z</time>
      </trkpt>
      <trkpt lat="45.65593" lon="2.80634">
        <ele>1003</ele>
        <time>2022-08-17T12:37:26Z</time>
      </trkpt>
      <trkpt lat="45.65586" lon="2.80638">
        <ele>1003</ele>
        <time>2022-08-17T12:37:28Z</time>
      </trkpt>
      <trkpt lat="45.6557" lon="2.80644">
        <ele>1003</ele>
        <time>2022-08-17T12:37:30Z</time>
      </trkpt>
      <trkpt lat="45.65563" lon="2.80646">
        <ele>1003</ele>
        <time>2022-08-17T12:37:32Z</time>
      </trkpt>
      <trkpt lat="45.65556" lon="2.80647">
        <ele>1003</ele>
        <time>2022-08-17T12:37:34Z</time>
      </trkpt>
      <trkpt lat="45.65549" lon="2.80649">
        <ele>1003</ele>
        <time>2022-08-17T12:37:36Z</time>
      </trkpt>
      <trkpt lat="45.65542" lon="2.80651">
        <ele>1003</ele>
        <time>2022-08-17T12:37:38Z</time>
      </trkpt>
      <trkpt lat="45.65527" lon="2.80653">
        <ele>1003</ele>
        <time>2022-08-17T12:37:40Z</time>
      </trkpt>
      <trkpt lat="45.65521" lon="2.80653">
        <ele>1003</ele>
        <time>2022-08-17T12:37:42Z</time>
      </trkpt>
      <trkpt lat="45.65515" lon="2.80654">
        <ele>1003</ele>
        <time>2022-08-17T12:37:44Z</time>
      </trkpt>
      <trkpt lat="45.65509" lon="2.80655">
        <ele>1003</ele>
        <time>2022-08-17T12:37:46Z</time>
      </trkpt>
      <trkpt lat="45.65502" lon="2.80655">
        <ele>1005</ele>
        <time>2022-08-17T12:37:48Z</time>
      </trkpt>
      <trkpt lat="45.65489" lon="2.80658">
        <ele>1005</ele>
        <time>2022-08-17T12:37:50Z</time>
      </trkpt>
      <trkpt lat="45.65482" lon="2.80659">
        <ele>1005</ele>
        <time>2022-08-17T12:37:52Z</time>
      </trkpt>
      <trkpt lat="45.65476" lon="2.8066">
        <ele>1005</ele>
        <time>2022-08-17T12:37:54Z</time>
      </trkpt>
      <trkpt lat="45.6547" lon="2.80661">
        <ele>1005</ele>
        <time>2022-08-17T12:37:56Z</time>
      </trkpt>
      <trkpt lat="45.65464" lon="2.80663">
        <ele>1005</ele>
        <time>2022-08-17T12:37:58Z</time>
      </trkpt>
      <trkpt lat="45.6545" lon="2.80664">
        <ele>1005</ele>
        <time>2022-08-17T12:38:00Z</time>
      </trkpt>
      <trkpt lat="45.65443" lon="2.80665">
        <ele>1005</ele>
        <time>2022-08-17T12:38:02Z</time>
      </trkpt>
      <trkpt lat="45.65437" lon="2.80665">
        <ele>1005</ele>
        <time>2022-08-17T12:38:04Z</time>
      </trkpt>
      <trkpt lat="45.65431" lon="2.80666">
        <ele>1005</ele>
        <time>2022-08-17T12:38:06Z</time>
      </trkpt>
      <trkpt lat="45.65424" lon="2.80667">
        <ele>1005</ele>
        <time>2022-08-17T12:38:08Z</time>
      </trkpt>
      <trkpt lat="45.65406" lon="2.80668">
        <ele>1005</ele>
        <time>2022-08-17T12:38:11Z</time>
      </trkpt>
      <trkpt lat="45.65398" lon="2.80669">
        <ele>1005</ele>
        <time>2022-08-17T12:38:14Z</time>
      </trkpt>
      <trkpt lat="45.65391" lon="2.80669">
        <ele>1005</ele>
        <time>2022-08-17T12:38:17Z</time>
      </trkpt>
      <trkpt lat="45.65384" lon="2.8067">
        <ele>1006</ele>
        <time>2022-08-17T12:38:18Z</time>
      </trkpt>
      <trkpt lat="45.65368" lon="2.80672">
        <ele>1006</ele>
        <time>2022-08-17T12:38:20Z</time>
      </trkpt>
      <trkpt lat="45.65361" lon="2.80672">
        <ele>1006</ele>
        <time>2022-08-17T12:38:22Z</time>
      </trkpt>
      <trkpt lat="45.65354" lon="2.80673">
        <ele>1006</ele>
        <time>2022-08-17T12:38:24Z</time>
      </trkpt>
      <trkpt lat="45.65347" lon="2.80674">
        <ele>1006</ele>
        <time>2022-08-17T12:38:26Z</time>
      </trkpt>
      <trkpt lat="45.6534" lon="2.80675">
        <ele>1008</ele>
        <time>2022-08-17T12:38:28Z</time>
      </trkpt>
      <trkpt lat="45.65324" lon="2.80677">
        <ele>1008</ele>
        <time>2022-08-17T12:38:30Z</time>
      </trkpt>
      <trkpt lat="45.65317" lon="2.80678">
        <ele>1008</ele>
        <time>2022-08-17T12:38:32Z</time>
      </trkpt>
      <trkpt lat="45.6531" lon="2.80679">
        <ele>1008</ele>
        <time>2022-08-17T12:38:34Z</time>
      </trkpt>
      <trkpt lat="45.65303" lon="2.80681">
        <ele>1008</ele>
        <time>2022-08-17T12:38:36Z</time>
      </trkpt>
      <trkpt lat="45.65296" lon="2.80682">
        <ele>1009</ele>
        <time>2022-08-17T12:38:38Z</time>
      </trkpt>
      <trkpt lat="45.65279" lon="2.80682">
        <ele>1009</ele>
        <time>2022-08-17T12:38:40Z</time>
      </trkpt>
      <trkpt lat="45.65271" lon="2.80682">
        <ele>1009</ele>
        <time>2022-08-17T12:38:42Z</time>
      </trkpt>
      <trkpt lat="45.65263" lon="2.80681">
        <ele>1009</ele>
        <time>2022-08-17T12:38:44Z</time>
      </trkpt>
      <trkpt lat="45.65255" lon="2.8068">
        <ele>1009</ele>
        <time>2022-08-17T12:38:46Z</time>
      </trkpt>
      <trkpt lat="45.65247" lon="2.8068">
        <ele>1009</ele>
        <time>2022-08-17T12:38:48Z</time>
      </trkpt>
      <trkpt lat="45.65225" lon="2.80675">
        <ele>1009</ele>
        <time>2022-08-17T12:38:51Z</time>
      </trkpt>
      <trkpt lat="45.65218" lon="2.80674">
        <ele>1009</ele>
        <time>2022-08-17T12:38:53Z</time>
      </trkpt>
      <trkpt lat="45.65211" lon="2.80673">
        <ele>1009</ele>
        <time>2022-08-17T12:38:56Z</time>
      </trkpt>
      <trkpt lat="45.65204" lon="2.80672">
        <ele>1009</ele>
        <time>2022-08-17T12:38:57Z</time>
      </trkpt>
      <trkpt lat="45.65196" lon="2.80672">
        <ele>1009</ele>
        <time>2022-08-17T12:38:58Z</time>
      </trkpt>
      <trkpt lat="45.65187" lon="2.80682">
        <ele>1009</ele>
        <time>2022-08-17T12:38:59Z</time>
      </trkpt>
      <trkpt lat="45.65182" lon="2.80691">
        <ele>1009</ele>
        <time>2022-08-17T12:39:01Z</time>
      </trkpt>
      <trkpt lat="45.65178" lon="2.807">
        <ele>1009</ele>
        <time>2022-08-17T12:39:03Z</time>
      </trkpt>
      <trkpt lat="45.65173" lon="2.80709">
        <ele>1009</ele>
        <time>2022-08-17T12:39:05Z</time>
      </trkpt>
      <trkpt lat="45.65169" lon="2.80718">
        <ele>1009</ele>
        <time>2022-08-17T12:39:07Z</time>
      </trkpt>
      <trkpt lat="45.65164" lon="2.80727">
        <ele>1009</ele>
        <time>2022-08-17T12:39:08Z</time>
      </trkpt>
      <trkpt lat="45.65157" lon="2.80743">
        <ele>1009</ele>
        <time>2022-08-17T12:39:09Z</time>
      </trkpt>
      <trkpt lat="45.65151" lon="2.80753">
        <ele>1009</ele>
        <time>2022-08-17T12:39:11Z</time>
      </trkpt>
      <trkpt lat="45.65146" lon="2.80763">
        <ele>1009</ele>
        <time>2022-08-17T12:39:13Z</time>
      </trkpt>
      <trkpt lat="45.6514" lon="2.80772">
        <ele>1009</ele>
        <time>2022-08-17T12:39:15Z</time>
      </trkpt>
      <trkpt lat="45.65135" lon="2.80782">
        <ele>1008</ele>
        <time>2022-08-17T12:39:18Z</time>
      </trkpt>
      <trkpt lat="45.6512" lon="2.808">
        <ele>1008</ele>
        <time>2022-08-17T12:39:20Z</time>
      </trkpt>
      <trkpt lat="45.65112" lon="2.80809">
        <ele>1008</ele>
        <time>2022-08-17T12:39:22Z</time>
      </trkpt>
      <trkpt lat="45.65105" lon="2.80817">
        <ele>1008</ele>
        <time>2022-08-17T12:39:25Z</time>
      </trkpt>
      <trkpt lat="45.65097" lon="2.80825">
        <ele>1008</ele>
        <time>2022-08-17T12:39:28Z</time>
      </trkpt>
      <trkpt lat="45.65079" lon="2.80835">
        <ele>1008</ele>
        <time>2022-08-17T12:39:30Z</time>
      </trkpt>
      <trkpt lat="45.65071" lon="2.80838">
        <ele>1008</ele>
        <time>2022-08-17T12:39:32Z</time>
      </trkpt>
      <trkpt lat="45.65062" lon="2.8084">
        <ele>1008</ele>
        <time>2022-08-17T12:39:34Z</time>
      </trkpt>
      <trkpt lat="45.65054" lon="2.80843">
        <ele>1008</ele>
        <time>2022-08-17T12:39:36Z</time>
      </trkpt>
      <trkpt lat="45.65046" lon="2.80846">
        <ele>1008</ele>
        <time>2022-08-17T12:39:38Z</time>
      </trkpt>
      <trkpt lat="45.65024" lon="2.80857">
        <ele>1008</ele>
        <time>2022-08-17T12:39:41Z</time>
      </trkpt>
      <trkpt lat="45.65017" lon="2.80862">
        <ele>1008</ele>
        <time>2022-08-17T12:39:43Z</time>
      </trkpt>
      <trkpt lat="45.6501" lon="2.80867">
        <ele>1008</ele>
        <time>2022-08-17T12:39:45Z</time>
      </trkpt>
      <trkpt lat="45.65003" lon="2.80872">
        <ele>1008</ele>
        <time>2022-08-17T12:39:47Z</time>
      </trkpt>
      <trkpt lat="45.64997" lon="2.80877">
        <ele>1009</ele>
        <time>2022-08-17T12:39:48Z</time>
      </trkpt>
      <trkpt lat="45.64984" lon="2.80882">
        <ele>1009</ele>
        <time>2022-08-17T12:39:49Z</time>
      </trkpt>
      <trkpt lat="45.64976" lon="2.80883">
        <ele>1009</ele>
        <time>2022-08-17T12:39:51Z</time>
      </trkpt>
      <trkpt lat="45.64968" lon="2.80884">
        <ele>1009</ele>
        <time>2022-08-17T12:39:53Z</time>
      </trkpt>
      <trkpt lat="45.6496" lon="2.80886">
        <ele>1009</ele>
        <time>2022-08-17T12:39:55Z</time>
      </trkpt>
      <trkpt lat="45.64952" lon="2.80887">
        <ele>1009</ele>
        <time>2022-08-17T12:39:57Z</time>
      </trkpt>
      <trkpt lat="45.64944" lon="2.80888">
        <ele>1009</ele>
        <time>2022-08-17T12:39:58Z</time>
      </trkpt>
      <trkpt lat="45.6493" lon="2.80885">
        <ele>1009</ele>
        <time>2022-08-17T12:39:59Z</time>
      </trkpt>
      <trkpt lat="45.64922" lon="2.80882">
        <ele>1009</ele>
        <time>2022-08-17T12:40:01Z</time>
      </trkpt>
      <trkpt lat="45.64914" lon="2.80879">
        <ele>1009</ele>
        <time>2022-08-17T12:40:03Z</time>
      </trkpt>
      <trkpt lat="45.64905" lon="2.80876">
        <ele>1009</ele>
        <time>2022-08-17T12:40:05Z</time>
      </trkpt>
      <trkpt lat="45.64897" lon="2.80873">
        <ele>1009</ele>
        <time>2022-08-17T12:40:07Z</time>
      </trkpt>
      <trkpt lat="45.64888" lon="2.8087">
        <ele>1007</ele>
        <time>2022-08-17T12:40:08Z</time>
      </trkpt>
      <trkpt lat="45.64875" lon="2.80869">
        <ele>1007</ele>
        <time>2022-08-17T12:40:09Z</time>
      </trkpt>
      <trkpt lat="45.64867" lon="2.8087">
        <ele>1007</ele>
        <time>2022-08-17T12:40:11Z</time>
      </trkpt>
      <trkpt lat="45.64859" lon="2.80872">
        <ele>1007</ele>
        <time>2022-08-17T12:40:13Z</time>
      </trkpt>
      <trkpt lat="45.6485" lon="2.80873">
        <ele>1007</ele>
        <time>2022-08-17T12:40:15Z</time>
      </trkpt>
      <trkpt lat="45.64842" lon="2.80875">
        <ele>1007</ele>
        <time>2022-08-17T12:40:17Z</time>
      </trkpt>
      <trkpt lat="45.64834" lon="2.80876">
        <ele>1007</ele>
        <time>2022-08-17T12:40:18Z</time>
      </trkpt>
      <trkpt lat="45.64822" lon="2.80889">
        <ele>1007</ele>
        <time>2022-08-17T12:40:19Z</time>
      </trkpt>
      <trkpt lat="45.64815" lon="2.80897">
        <ele>1007</ele>
        <time>2022-08-17T12:40:21Z</time>
      </trkpt>
      <trkpt lat="45.64807" lon="2.80904">
        <ele>1007</ele>
        <time>2022-08-17T12:40:23Z</time>
      </trkpt>
      <trkpt lat="45.648" lon="2.80912">
        <ele>1007</ele>
        <time>2022-08-17T12:40:25Z</time>
      </trkpt>
      <trkpt lat="45.64793" lon="2.80919">
        <ele>1007</ele>
        <time>2022-08-17T12:40:28Z</time>
      </trkpt>
      <trkpt lat="45.64774" lon="2.80932">
        <ele>1007</ele>
        <time>2022-08-17T12:40:31Z</time>
      </trkpt>
      <trkpt lat="45.64765" lon="2.80935">
        <ele>1007</ele>
        <time>2022-08-17T12:40:34Z</time>
      </trkpt>
      <trkpt lat="45.64756" lon="2.80939">
        <ele>1007</ele>
        <time>2022-08-17T12:40:36Z</time>
      </trkpt>
      <trkpt lat="45.64747" lon="2.80942">
        <ele>1007</ele>
        <time>2022-08-17T12:40:38Z</time>
      </trkpt>
      <trkpt lat="45.64725" lon="2.80946">
        <ele>1007</ele>
        <time>2022-08-17T12:40:40Z</time>
      </trkpt>
      <trkpt lat="45.64716" lon="2.80947">
        <ele>1007</ele>
        <time>2022-08-17T12:40:42Z</time>
      </trkpt>
      <trkpt lat="45.64707" lon="2.80948">
        <ele>1007</ele>
        <time>2022-08-17T12:40:44Z</time>
      </trkpt>
      <trkpt lat="45.64698" lon="2.80949">
        <ele>1007</ele>
        <time>2022-08-17T12:40:46Z</time>
      </trkpt>
      <trkpt lat="45.64689" lon="2.8095">
        <ele>1007</ele>
        <time>2022-08-17T12:40:48Z</time>
      </trkpt>
      <trkpt lat="45.64669" lon="2.80955">
        <ele>1007</ele>
        <time>2022-08-17T12:40:50Z</time>
      </trkpt>
      <trkpt lat="45.6466" lon="2.80958">
        <ele>1007</ele>
        <time>2022-08-17T12:40:52Z</time>
      </trkpt>
      <trkpt lat="45.64651" lon="2.80962">
        <ele>1007</ele>
        <time>2022-08-17T12:40:54Z</time>
      </trkpt>
      <trkpt lat="45.64642" lon="2.80966">
        <ele>1007</ele>
        <time>2022-08-17T12:40:56Z</time>
      </trkpt>
      <trkpt lat="45.64634" lon="2.80969">
        <ele>1008</ele>
        <time>2022-08-17T12:40:58Z</time>
      </trkpt>
      <trkpt lat="45.64616" lon="2.80983">
        <ele>1008</ele>
        <time>2022-08-17T12:41:00Z</time>
      </trkpt>
      <trkpt lat="45.6461" lon="2.80992">
        <ele>1008</ele>
        <time>2022-08-17T12:41:02Z</time>
      </trkpt>
      <trkpt lat="45.64603" lon="2.81001">
        <ele>1008</ele>
        <time>2022-08-17T12:41:04Z</time>
      </trkpt>
      <trkpt lat="45.64596" lon="2.8101">
        <ele>1008</ele>
        <time>2022-08-17T12:41:06Z</time>
      </trkpt>
      <trkpt lat="45.6459" lon="2.81018">
        <ele>1008</ele>
        <time>2022-08-17T12:41:08Z</time>
      </trkpt>
      <trkpt lat="45.64579" lon="2.81034">
        <ele>1008</ele>
        <time>2022-08-17T12:41:10Z</time>
      </trkpt>
      <trkpt lat="45.64574" lon="2.81038">
        <ele>1008</ele>
        <time>2022-08-17T12:41:12Z</time>
      </trkpt>
      <trkpt lat="45.64569" lon="2.81042">
        <ele>1008</ele>
        <time>2022-08-17T12:41:14Z</time>
      </trkpt>
      <trkpt lat="45.64564" lon="2.81046">
        <ele>1008</ele>
        <time>2022-08-17T12:41:15Z</time>
      </trkpt>
      <trkpt lat="45.64559" lon="2.8105">
        <ele>1008</ele>
        <time>2022-08-17T12:41:16Z</time>
      </trkpt>
      <trkpt lat="45.64554" lon="2.81054">
        <ele>1008</ele>
        <time>2022-08-17T12:41:17Z</time>
      </trkpt>
      <trkpt lat="45.64549" lon="2.81058">
        <ele>1008</ele>
        <time>2022-08-17T12:41:18Z</time>
      </trkpt>
      <trkpt lat="45.64538" lon="2.81057">
        <ele>1008</ele>
        <time>2022-08-17T12:41:19Z</time>
      </trkpt>
      <trkpt lat="45.64533" lon="2.81056">
        <ele>1008</ele>
        <time>2022-08-17T12:41:20Z</time>
      </trkpt>
      <trkpt lat="45.64528" lon="2.81054">
        <ele>1008</ele>
        <time>2022-08-17T12:41:21Z</time>
      </trkpt>
      <trkpt lat="45.64522" lon="2.81053">
        <ele>1008</ele>
        <time>2022-08-17T12:41:22Z</time>
      </trkpt>
      <trkpt lat="45.64517" lon="2.81052">
        <ele>1008</ele>
        <time>2022-08-17T12:41:24Z</time>
      </trkpt>
      <trkpt lat="45.64511" lon="2.8105">
        <ele>1008</ele>
        <time>2022-08-17T12:41:26Z</time>
      </trkpt>
      <trkpt lat="45.64506" lon="2.81049">
        <ele>1008</ele>
        <time>2022-08-17T12:41:27Z</time>
      </trkpt>
      <trkpt lat="45.64501" lon="2.81048">
        <ele>1009</ele>
        <time>2022-08-17T12:41:28Z</time>
      </trkpt>
      <trkpt lat="45.64492" lon="2.81045">
        <ele>1009</ele>
        <time>2022-08-17T12:41:29Z</time>
      </trkpt>
      <trkpt lat="45.64487" lon="2.81044">
        <ele>1009</ele>
        <time>2022-08-17T12:41:30Z</time>
      </trkpt>
      <trkpt lat="45.64483" lon="2.81043">
        <ele>1009</ele>
        <time>2022-08-17T12:41:31Z</time>
      </trkpt>
      <trkpt lat="45.64479" lon="2.81041">
        <ele>1009</ele>
        <time>2022-08-17T12:41:32Z</time>
      </trkpt>
      <trkpt lat="45.64474" lon="2.8104">
        <ele>1009</ele>
        <time>2022-08-17T12:41:33Z</time>
      </trkpt>
      <trkpt lat="45.6447" lon="2.81039">
        <ele>1009</ele>
        <time>2022-08-17T12:41:34Z</time>
      </trkpt>
      <trkpt lat="45.64466" lon="2.81038">
        <ele>1009</ele>
        <time>2022-08-17T12:41:35Z</time>
      </trkpt>
      <trkpt lat="45.64462" lon="2.81037">
        <ele>1009</ele>
        <time>2022-08-17T12:41:36Z</time>
      </trkpt>
      <trkpt lat="45.64457" lon="2.81035">
        <ele>1009</ele>
        <time>2022-08-17T12:41:37Z</time>
      </trkpt>
      <trkpt lat="45.64453" lon="2.81034">
        <ele>1010</ele>
        <time>2022-08-17T12:41:38Z</time>
      </trkpt>
      <trkpt lat="45.64439" lon="2.81031">
        <ele>1010</ele>
        <time>2022-08-17T12:41:40Z</time>
      </trkpt>
      <trkpt lat="45.64434" lon="2.81029">
        <ele>1010</ele>
        <time>2022-08-17T12:41:42Z</time>
      </trkpt>
      <trkpt lat="45.64429" lon="2.81028">
        <ele>1010</ele>
        <time>2022-08-17T12:41:43Z</time>
      </trkpt>
      <trkpt lat="45.64425" lon="2.81026">
        <ele>1010</ele>
        <time>2022-08-17T12:41:44Z</time>
      </trkpt>
      <trkpt lat="45.6442" lon="2.81025">
        <ele>1010</ele>
        <time>2022-08-17T12:41:45Z</time>
      </trkpt>
      <trkpt lat="45.64415" lon="2.81024">
        <ele>1010</ele>
        <time>2022-08-17T12:41:46Z</time>
      </trkpt>
      <trkpt lat="45.6441" lon="2.81022">
        <ele>1010</ele>
        <time>2022-08-17T12:41:47Z</time>
      </trkpt>
      <trkpt lat="45.64406" lon="2.81021">
        <ele>1010</ele>
        <time>2022-08-17T12:41:48Z</time>
      </trkpt>
      <trkpt lat="45.64394" lon="2.81018">
        <ele>1010</ele>
        <time>2022-08-17T12:41:49Z</time>
      </trkpt>
      <trkpt lat="45.64387" lon="2.81016">
        <ele>1010</ele>
        <time>2022-08-17T12:41:51Z</time>
      </trkpt>
      <trkpt lat="45.6438" lon="2.81014">
        <ele>1010</ele>
        <time>2022-08-17T12:41:53Z</time>
      </trkpt>
      <trkpt lat="45.64373" lon="2.81013">
        <ele>1010</ele>
        <time>2022-08-17T12:41:55Z</time>
      </trkpt>
      <trkpt lat="45.64366" lon="2.81011">
        <ele>1010</ele>
        <time>2022-08-17T12:41:57Z</time>
      </trkpt>
      <trkpt lat="45.64359" lon="2.81009">
        <ele>1011</ele>
        <time>2022-08-17T12:41:58Z</time>
      </trkpt>
      <trkpt lat="45.64347" lon="2.81008">
        <ele>1011</ele>
        <time>2022-08-17T12:41:59Z</time>
      </trkpt>
      <trkpt lat="45.6434" lon="2.81008">
        <ele>1011</ele>
        <time>2022-08-17T12:42:01Z</time>
      </trkpt>
      <trkpt lat="45.64333" lon="2.81008">
        <ele>1011</ele>
        <time>2022-08-17T12:42:03Z</time>
      </trkpt>
      <trkpt lat="45.64325" lon="2.81007">
        <ele>1011</ele>
        <time>2022-08-17T12:42:05Z</time>
      </trkpt>
      <trkpt lat="45.64318" lon="2.81007">
        <ele>1011</ele>
        <time>2022-08-17T12:42:07Z</time>
      </trkpt>
      <trkpt lat="45.64311" lon="2.81007">
        <ele>1012</ele>
        <time>2022-08-17T12:42:08Z</time>
      </trkpt>
      <trkpt lat="45.64298" lon="2.81007">
        <ele>1012</ele>
        <time>2022-08-17T12:42:09Z</time>
      </trkpt>
      <trkpt lat="45.6429" lon="2.81006">
        <ele>1012</ele>
        <time>2022-08-17T12:42:11Z</time>
      </trkpt>
      <trkpt lat="45.64281" lon="2.81006">
        <ele>1012</ele>
        <time>2022-08-17T12:42:13Z</time>
      </trkpt>
      <trkpt lat="45.64273" lon="2.81006">
        <ele>1012</ele>
        <time>2022-08-17T12:42:15Z</time>
      </trkpt>
      <trkpt lat="45.64265" lon="2.81005">
        <ele>1012</ele>
        <time>2022-08-17T12:42:18Z</time>
      </trkpt>
      <trkpt lat="45.64244" lon="2.81007">
        <ele>1012</ele>
        <time>2022-08-17T12:42:21Z</time>
      </trkpt>
      <trkpt lat="45.64236" lon="2.81008">
        <ele>1012</ele>
        <time>2022-08-17T12:42:24Z</time>
      </trkpt>
      <trkpt lat="45.64228" lon="2.8101">
        <ele>1012</ele>
        <time>2022-08-17T12:42:27Z</time>
      </trkpt>
      <trkpt lat="45.6422" lon="2.81011">
        <ele>1014</ele>
        <time>2022-08-17T12:42:28Z</time>
      </trkpt>
      <trkpt lat="45.64205" lon="2.81016">
        <ele>1014</ele>
        <time>2022-08-17T12:42:30Z</time>
      </trkpt>
      <trkpt lat="45.64198" lon="2.81019">
        <ele>1014</ele>
        <time>2022-08-17T12:42:32Z</time>
      </trkpt>
      <trkpt lat="45.64191" lon="2.81021">
        <ele>1014</ele>
        <time>2022-08-17T12:42:34Z</time>
      </trkpt>
      <trkpt lat="45.64185" lon="2.81024">
        <ele>1014</ele>
        <time>2022-08-17T12:42:36Z</time>
      </trkpt>
      <trkpt lat="45.64178" lon="2.81026">
        <ele>1016</ele>
        <time>2022-08-17T12:42:38Z</time>
      </trkpt>
      <trkpt lat="45.64164" lon="2.81031">
        <ele>1016</ele>
        <time>2022-08-17T12:42:40Z</time>
      </trkpt>
      <trkpt lat="45.64158" lon="2.81033">
        <ele>1016</ele>
        <time>2022-08-17T12:42:42Z</time>
      </trkpt>
      <trkpt lat="45.64151" lon="2.81036">
        <ele>1016</ele>
        <time>2022-08-17T12:42:44Z</time>
      </trkpt>
      <trkpt lat="45.64145" lon="2.81038">
        <ele>1016</ele>
        <time>2022-08-17T12:42:46Z</time>
      </trkpt>
      <trkpt lat="45.64139" lon="2.8104">
        <ele>1016</ele>
        <time>2022-08-17T12:42:48Z</time>
      </trkpt>
      <trkpt lat="45.64125" lon="2.81045">
        <ele>1016</ele>
        <time>2022-08-17T12:42:50Z</time>
      </trkpt>
      <trkpt lat="45.64118" lon="2.81047">
        <ele>1016</ele>
        <time>2022-08-17T12:42:52Z</time>
      </trkpt>
      <trkpt lat="45.64112" lon="2.81049">
        <ele>1016</ele>
        <time>2022-08-17T12:42:54Z</time>
      </trkpt>
      <trkpt lat="45.64105" lon="2.81051">
        <ele>1016</ele>
        <time>2022-08-17T12:42:56Z</time>
      </trkpt>
      <trkpt lat="45.64099" lon="2.81053">
        <ele>1017</ele>
        <time>2022-08-17T12:42:58Z</time>
      </trkpt>
      <trkpt lat="45.64085" lon="2.81057">
        <ele>1017</ele>
        <time>2022-08-17T12:43:00Z</time>
      </trkpt>
      <trkpt lat="45.64079" lon="2.81057">
        <ele>1017</ele>
        <time>2022-08-17T12:43:02Z</time>
      </trkpt>
      <trkpt lat="45.64072" lon="2.81058">
        <ele>1017</ele>
        <time>2022-08-17T12:43:04Z</time>
      </trkpt>
      <trkpt lat="45.64066" lon="2.81059">
        <ele>1017</ele>
        <time>2022-08-17T12:43:06Z</time>
      </trkpt>
      <trkpt lat="45.6406" lon="2.81059">
        <ele>1018</ele>
        <time>2022-08-17T12:43:08Z</time>
      </trkpt>
      <trkpt lat="45.64047" lon="2.81055">
        <ele>1018</ele>
        <time>2022-08-17T12:43:10Z</time>
      </trkpt>
      <trkpt lat="45.64041" lon="2.81052">
        <ele>1018</ele>
        <time>2022-08-17T12:43:12Z</time>
      </trkpt>
      <trkpt lat="45.64036" lon="2.81049">
        <ele>1018</ele>
        <time>2022-08-17T12:43:14Z</time>
      </trkpt>
      <trkpt lat="45.6403" lon="2.81046">
        <ele>1018</ele>
        <time>2022-08-17T12:43:16Z</time>
      </trkpt>
      <trkpt lat="45.64024" lon="2.81043">
        <ele>1020</ele>
        <time>2022-08-17T12:43:18Z</time>
      </trkpt>
      <trkpt lat="45.64013" lon="2.81033">
        <ele>1020</ele>
        <time>2022-08-17T12:43:20Z</time>
      </trkpt>
      <trkpt lat="45.64008" lon="2.8103">
        <ele>1020</ele>
        <time>2022-08-17T12:43:22Z</time>
      </trkpt>
      <trkpt lat="45.64003" lon="2.81026">
        <ele>1020</ele>
        <time>2022-08-17T12:43:24Z</time>
      </trkpt>
      <trkpt lat="45.63998" lon="2.81022">
        <ele>1020</ele>
        <time>2022-08-17T12:43:26Z</time>
      </trkpt>
      <trkpt lat="45.63993" lon="2.81018">
        <ele>1022</ele>
        <time>2022-08-17T12:43:28Z</time>
      </trkpt>
      <trkpt lat="45.63982" lon="2.81014">
        <ele>1022</ele>
        <time>2022-08-17T12:43:30Z</time>
      </trkpt>
      <trkpt lat="45.63977" lon="2.81013">
        <ele>1022</ele>
        <time>2022-08-17T12:43:32Z</time>
      </trkpt>
      <trkpt lat="45.63972" lon="2.81012">
        <ele>1022</ele>
        <time>2022-08-17T12:43:34Z</time>
      </trkpt>
      <trkpt lat="45.63966" lon="2.81011">
        <ele>1022</ele>
        <time>2022-08-17T12:43:37Z</time>
      </trkpt>
      <trkpt lat="45.63961" lon="2.8101">
        <ele>1025</ele>
        <time>2022-08-17T12:43:38Z</time>
      </trkpt>
      <trkpt lat="45.6395" lon="2.81011">
        <ele>1025</ele>
        <time>2022-08-17T12:43:40Z</time>
      </trkpt>
      <trkpt lat="45.63945" lon="2.81012">
        <ele>1025</ele>
        <time>2022-08-17T12:43:43Z</time>
      </trkpt>
      <trkpt lat="45.6394" lon="2.81012">
        <ele>1025</ele>
        <time>2022-08-17T12:43:45Z</time>
      </trkpt>
      <trkpt lat="45.63935" lon="2.81013">
        <ele>1025</ele>
        <time>2022-08-17T12:43:47Z</time>
      </trkpt>
      <trkpt lat="45.63931" lon="2.81014">
        <ele>1026</ele>
        <time>2022-08-17T12:43:48Z</time>
      </trkpt>
      <trkpt lat="45.63922" lon="2.81015">
        <ele>1026</ele>
        <time>2022-08-17T12:43:49Z</time>
      </trkpt>
      <trkpt lat="45.63916" lon="2.81016">
        <ele>1026</ele>
        <time>2022-08-17T12:43:51Z</time>
      </trkpt>
      <trkpt lat="45.63911" lon="2.81017">
        <ele>1026</ele>
        <time>2022-08-17T12:43:54Z</time>
      </trkpt>
      <trkpt lat="45.63906" lon="2.81018">
        <ele>1026</ele>
        <time>2022-08-17T12:43:56Z</time>
      </trkpt>
      <trkpt lat="45.639" lon="2.81019">
        <ele>1027</ele>
        <time>2022-08-17T12:43:58Z</time>
      </trkpt>
      <trkpt lat="45.63886" lon="2.81022">
        <ele>1027</ele>
        <time>2022-08-17T12:44:01Z</time>
      </trkpt>
      <trkpt lat="45.6388" lon="2.81024">
        <ele>1027</ele>
        <time>2022-08-17T12:44:04Z</time>
      </trkpt>
      <trkpt lat="45.63874" lon="2.81025">
        <ele>1027</ele>
        <time>2022-08-17T12:44:06Z</time>
      </trkpt>
      <trkpt lat="45.63869" lon="2.81026">
        <ele>1030</ele>
        <time>2022-08-17T12:44:08Z</time>
      </trkpt>
      <trkpt lat="45.63855" lon="2.81031">
        <ele>1030</ele>
        <time>2022-08-17T12:44:12Z</time>
      </trkpt>
      <trkpt lat="45.63851" lon="2.81033">
        <ele>1030</ele>
        <time>2022-08-17T12:44:13Z</time>
      </trkpt>
      <trkpt lat="45.63847" lon="2.81035">
        <ele>1030</ele>
        <time>2022-08-17T12:44:16Z</time>
      </trkpt>
      <trkpt lat="45.63844" lon="2.81036">
        <ele>1032</ele>
        <time>2022-08-17T12:44:18Z</time>
      </trkpt>
      <trkpt lat="45.63834" lon="2.8104">
        <ele>1032</ele>
        <time>2022-08-17T12:44:19Z</time>
      </trkpt>
      <trkpt lat="45.63823" lon="2.81046">
        <ele>1032</ele>
        <time>2022-08-17T12:44:22Z</time>
      </trkpt>
      <trkpt lat="45.63814" lon="2.81053">
        <ele>1032</ele>
        <time>2022-08-17T12:44:25Z</time>
      </trkpt>
      <trkpt lat="45.63805" lon="2.81058">
        <ele>1032</ele>
        <time>2022-08-17T12:44:28Z</time>
      </trkpt>
      <trkpt lat="45.63792" lon="2.81066">
        <ele>1032</ele>
        <time>2022-08-17T12:44:31Z</time>
      </trkpt>
      <trkpt lat="45.63787" lon="2.81069">
        <ele>1032</ele>
        <time>2022-08-17T12:44:33Z</time>
      </trkpt>
      <trkpt lat="45.63783" lon="2.81073">
        <ele>1032</ele>
        <time>2022-08-17T12:44:35Z</time>
      </trkpt>
      <trkpt lat="45.63778" lon="2.81077">
        <ele>1032</ele>
        <time>2022-08-17T12:44:37Z</time>
      </trkpt>
      <trkpt lat="45.63774" lon="2.8108">
        <ele>1032</ele>
        <time>2022-08-17T12:44:38Z</time>
      </trkpt>
      <trkpt lat="45.63764" lon="2.81089">
        <ele>1032</ele>
        <time>2022-08-17T12:44:39Z</time>
      </trkpt>
      <trkpt lat="45.63758" lon="2.81095">
        <ele>1032</ele>
        <time>2022-08-17T12:44:41Z</time>
      </trkpt>
      <trkpt lat="45.63752" lon="2.811">
        <ele>1032</ele>
        <time>2022-08-17T12:44:43Z</time>
      </trkpt>
      <trkpt lat="45.63746" lon="2.81106">
        <ele>1032</ele>
        <time>2022-08-17T12:44:44Z</time>
      </trkpt>
      <trkpt lat="45.6374" lon="2.81111">
        <ele>1032</ele>
        <time>2022-08-17T12:44:45Z</time>
      </trkpt>
      <trkpt lat="45.63734" lon="2.81117">
        <ele>1032</ele>
        <time>2022-08-17T12:44:47Z</time>
      </trkpt>
      <trkpt lat="45.63728" lon="2.81122">
        <ele>1032</ele>
        <time>2022-08-17T12:44:48Z</time>
      </trkpt>
      <trkpt lat="45.63715" lon="2.81127">
        <ele>1032</ele>
        <time>2022-08-17T12:44:49Z</time>
      </trkpt>
      <trkpt lat="45.63707" lon="2.81129">
        <ele>1032</ele>
        <time>2022-08-17T12:44:51Z</time>
      </trkpt>
      <trkpt lat="45.63699" lon="2.8113">
        <ele>1032</ele>
        <time>2022-08-17T12:44:53Z</time>
      </trkpt>
      <trkpt lat="45.63691" lon="2.81131">
        <ele>1032</ele>
        <time>2022-08-17T12:44:55Z</time>
      </trkpt>
      <trkpt lat="45.63684" lon="2.81132">
        <ele>1031</ele>
        <time>2022-08-17T12:44:58Z</time>
      </trkpt>
      <trkpt lat="45.63667" lon="2.8113">
        <ele>1031</ele>
        <time>2022-08-17T12:45:01Z</time>
      </trkpt>
      <trkpt lat="45.63662" lon="2.81131">
        <ele>1031</ele>
        <time>2022-08-17T12:45:03Z</time>
      </trkpt>
      <trkpt lat="45.63656" lon="2.81131">
        <ele>1031</ele>
        <time>2022-08-17T12:45:05Z</time>
      </trkpt>
      <trkpt lat="45.63651" lon="2.81131">
        <ele>1031</ele>
        <time>2022-08-17T12:45:07Z</time>
      </trkpt>
      <trkpt lat="45.63645" lon="2.81131">
        <ele>1032</ele>
        <time>2022-08-17T12:45:08Z</time>
      </trkpt>
      <trkpt lat="45.63634" lon="2.81134">
        <ele>1032</ele>
        <time>2022-08-17T12:45:09Z</time>
      </trkpt>
      <trkpt lat="45.63627" lon="2.81136">
        <ele>1032</ele>
        <time>2022-08-17T12:45:11Z</time>
      </trkpt>
      <trkpt lat="45.6362" lon="2.81137">
        <ele>1032</ele>
        <time>2022-08-17T12:45:13Z</time>
      </trkpt>
      <trkpt lat="45.63613" lon="2.81139">
        <ele>1032</ele>
        <time>2022-08-17T12:45:15Z</time>
      </trkpt>
      <trkpt lat="45.63606" lon="2.81141">
        <ele>1032</ele>
        <time>2022-08-17T12:45:17Z</time>
      </trkpt>
      <trkpt lat="45.63599" lon="2.81143">
        <ele>1033</ele>
        <time>2022-08-17T12:45:18Z</time>
      </trkpt>
      <trkpt lat="45.63587" lon="2.81149">
        <ele>1033</ele>
        <time>2022-08-17T12:45:19Z</time>
      </trkpt>
      <trkpt lat="45.6358" lon="2.81153">
        <ele>1033</ele>
        <time>2022-08-17T12:45:21Z</time>
      </trkpt>
      <trkpt lat="45.63573" lon="2.81157">
        <ele>1033</ele>
        <time>2022-08-17T12:45:23Z</time>
      </trkpt>
      <trkpt lat="45.63567" lon="2.81162">
        <ele>1033</ele>
        <time>2022-08-17T12:45:24Z</time>
      </trkpt>
      <trkpt lat="45.6356" lon="2.81166">
        <ele>1033</ele>
        <time>2022-08-17T12:45:25Z</time>
      </trkpt>
      <trkpt lat="45.63553" lon="2.81171">
        <ele>1033</ele>
        <time>2022-08-17T12:45:27Z</time>
      </trkpt>
      <trkpt lat="45.63546" lon="2.81175">
        <ele>1032</ele>
        <time>2022-08-17T12:45:28Z</time>
      </trkpt>
      <trkpt lat="45.63533" lon="2.81184">
        <ele>1032</ele>
        <time>2022-08-17T12:45:29Z</time>
      </trkpt>
      <trkpt lat="45.63526" lon="2.81189">
        <ele>1032</ele>
        <time>2022-08-17T12:45:31Z</time>
      </trkpt>
      <trkpt lat="45.63519" lon="2.81194">
        <ele>1032</ele>
        <time>2022-08-17T12:45:32Z</time>
      </trkpt>
      <trkpt lat="45.63511" lon="2.812">
        <ele>1032</ele>
        <time>2022-08-17T12:45:34Z</time>
      </trkpt>
      <trkpt lat="45.63504" lon="2.81205">
        <ele>1032</ele>
        <time>2022-08-17T12:45:36Z</time>
      </trkpt>
      <trkpt lat="45.63497" lon="2.8121">
        <ele>1031</ele>
        <time>2022-08-17T12:45:38Z</time>
      </trkpt>
      <trkpt lat="45.63481" lon="2.81232">
        <ele>1031</ele>
        <time>2022-08-17T12:45:41Z</time>
      </trkpt>
      <trkpt lat="45.63476" lon="2.81241">
        <ele>1031</ele>
        <time>2022-08-17T12:45:43Z</time>
      </trkpt>
      <trkpt lat="45.63472" lon="2.8125">
        <ele>1031</ele>
        <time>2022-08-17T12:45:46Z</time>
      </trkpt>
      <trkpt lat="45.63467" lon="2.81259">
        <ele>1032</ele>
        <time>2022-08-17T12:45:48Z</time>
      </trkpt>
      <trkpt lat="45.63459" lon="2.81273">
        <ele>1032</ele>
        <time>2022-08-17T12:45:49Z</time>
      </trkpt>
      <trkpt lat="45.63454" lon="2.81281">
        <ele>1032</ele>
        <time>2022-08-17T12:45:52Z</time>
      </trkpt>
      <trkpt lat="45.63448" lon="2.81289">
        <ele>1032</ele>
        <time>2022-08-17T12:45:55Z</time>
      </trkpt>
      <trkpt lat="45.63443" lon="2.81297">
        <ele>1032</ele>
        <time>2022-08-17T12:45:58Z</time>
      </trkpt>
      <trkpt lat="45.63429" lon="2.8131">
        <ele>1032</ele>
        <time>2022-08-17T12:46:01Z</time>
      </trkpt>
      <trkpt lat="45.63423" lon="2.81315">
        <ele>1032</ele>
        <time>2022-08-17T12:46:04Z</time>
      </trkpt>
      <trkpt lat="45.63417" lon="2.81319">
        <ele>1032</ele>
        <time>2022-08-17T12:46:07Z</time>
      </trkpt>
      <trkpt lat="45.63412" lon="2.81323">
        <ele>1035</ele>
        <time>2022-08-17T12:46:08Z</time>
      </trkpt>
      <trkpt lat="45.63401" lon="2.81331">
        <ele>1035</ele>
        <time>2022-08-17T12:46:10Z</time>
      </trkpt>
      <trkpt lat="45.63397" lon="2.81335">
        <ele>1035</ele>
        <time>2022-08-17T12:46:14Z</time>
      </trkpt>
      <trkpt lat="45.63392" lon="2.81338">
        <ele>1035</ele>
        <time>2022-08-17T12:46:16Z</time>
      </trkpt>
      <trkpt lat="45.63388" lon="2.81342">
        <ele>1037</ele>
        <time>2022-08-17T12:46:18Z</time>
      </trkpt>
      <trkpt lat="45.63374" lon="2.81355">
        <ele>1037</ele>
        <time>2022-08-17T12:46:19Z</time>
      </trkpt>
      <trkpt lat="45.6337" lon="2.81361">
        <ele>1037</ele>
        <time>2022-08-17T12:46:23Z</time>
      </trkpt>
      <trkpt lat="45.63365" lon="2.81366">
        <ele>1037</ele>
        <time>2022-08-17T12:46:26Z</time>
      </trkpt>
      <trkpt lat="45.63361" lon="2.81371">
        <ele>1039</ele>
        <time>2022-08-17T12:46:28Z</time>
      </trkpt>
      <trkpt lat="45.63354" lon="2.81382">
        <ele>1039</ele>
        <time>2022-08-17T12:46:29Z</time>
      </trkpt>
      <trkpt lat="45.63348" lon="2.81393">
        <ele>1039</ele>
        <time>2022-08-17T12:46:32Z</time>
      </trkpt>
      <trkpt lat="45.63341" lon="2.81403">
        <ele>1039</ele>
        <time>2022-08-17T12:46:35Z</time>
      </trkpt>
      <trkpt lat="45.63341" lon="2.81403">
        <ele>1040</ele>
        <time>2022-08-17T12:46:38Z</time>
      </trkpt>
      <trkpt lat="45.63332" lon="2.8142">
        <ele>1040</ele>
        <time>2022-08-17T12:46:39Z</time>
      </trkpt>
      <trkpt lat="45.63328" lon="2.81426">
        <ele>1040</ele>
        <time>2022-08-17T12:46:41Z</time>
      </trkpt>
      <trkpt lat="45.63325" lon="2.81432">
        <ele>1040</ele>
        <time>2022-08-17T12:46:44Z</time>
      </trkpt>
      <trkpt lat="45.63321" lon="2.81437">
        <ele>1040</ele>
        <time>2022-08-17T12:46:46Z</time>
      </trkpt>
      <trkpt lat="45.63318" lon="2.81443">
        <ele>1042</ele>
        <time>2022-08-17T12:46:48Z</time>
      </trkpt>
      <trkpt lat="45.63309" lon="2.8146">
        <ele>1042</ele>
        <time>2022-08-17T12:46:49Z</time>
      </trkpt>
      <trkpt lat="45.63305" lon="2.81465">
        <ele>1042</ele>
        <time>2022-08-17T12:46:52Z</time>
      </trkpt>
      <trkpt lat="45.63302" lon="2.8147">
        <ele>1042</ele>
        <time>2022-08-17T12:46:56Z</time>
      </trkpt>
      <trkpt lat="45.63298" lon="2.81476">
        <ele>1043</ele>
        <time>2022-08-17T12:46:58Z</time>
      </trkpt>
      <trkpt lat="45.63287" lon="2.81492">
        <ele>1043</ele>
        <time>2022-08-17T12:47:00Z</time>
      </trkpt>
      <trkpt lat="45.63283" lon="2.81496">
        <ele>1043</ele>
        <time>2022-08-17T12:47:04Z</time>
      </trkpt>
      <trkpt lat="45.63279" lon="2.81501">
        <ele>1043</ele>
        <time>2022-08-17T12:47:06Z</time>
      </trkpt>
      <trkpt lat="45.63275" lon="2.81505">
        <ele>1045</ele>
        <time>2022-08-17T12:47:08Z</time>
      </trkpt>
      <trkpt lat="45.63267" lon="2.81514">
        <ele>1045</ele>
        <time>2022-08-17T12:47:09Z</time>
      </trkpt>
      <trkpt lat="45.63259" lon="2.81521">
        <ele>1045</ele>
        <time>2022-08-17T12:47:12Z</time>
      </trkpt>
      <trkpt lat="45.63252" lon="2.81528">
        <ele>1045</ele>
        <time>2022-08-17T12:47:15Z</time>
      </trkpt>
      <trkpt lat="45.63244" lon="2.81533">
        <ele>1047</ele>
        <time>2022-08-17T12:47:18Z</time>
      </trkpt>
      <trkpt lat="45.63235" lon="2.81541">
        <ele>1047</ele>
        <time>2022-08-17T12:47:22Z</time>
      </trkpt>
      <trkpt lat="45.63228" lon="2.81549">
        <ele>1047</ele>
        <time>2022-08-17T12:47:25Z</time>
      </trkpt>
      <trkpt lat="45.63228" lon="2.81549">
        <ele>1051</ele>
        <time>2022-08-17T12:47:28Z</time>
      </trkpt>
      <trkpt lat="45.63213" lon="2.81559">
        <ele>1051</ele>
        <time>2022-08-17T12:47:29Z</time>
      </trkpt>
      <trkpt lat="45.63208" lon="2.81564">
        <ele>1051</ele>
        <time>2022-08-17T12:47:33Z</time>
      </trkpt>
      <trkpt lat="45.63203" lon="2.81568">
        <ele>1051</ele>
        <time>2022-08-17T12:47:37Z</time>
      </trkpt>
      <trkpt lat="45.63198" lon="2.81573">
        <ele>1053</ele>
        <time>2022-08-17T12:47:38Z</time>
      </trkpt>
      <trkpt lat="45.63187" lon="2.81582">
        <ele>1053</ele>
        <time>2022-08-17T12:47:41Z</time>
      </trkpt>
      <trkpt lat="45.63183" lon="2.81585">
        <ele>1053</ele>
        <time>2022-08-17T12:47:46Z</time>
      </trkpt>
      <trkpt lat="45.6318" lon="2.81587">
        <ele>1053</ele>
        <time>2022-08-17T12:47:48Z</time>
      </trkpt>
      <trkpt lat="45.63171" lon="2.81599">
        <ele>1053</ele>
        <time>2022-08-17T12:47:50Z</time>
      </trkpt>
      <trkpt lat="45.63163" lon="2.8161">
        <ele>1053</ele>
        <time>2022-08-17T12:47:54Z</time>
      </trkpt>
      <trkpt lat="45.63155" lon="2.8162">
        <ele>1055</ele>
        <time>2022-08-17T12:47:58Z</time>
      </trkpt>
      <trkpt lat="45.6314" lon="2.81626">
        <ele>1055</ele>
        <time>2022-08-17T12:48:02Z</time>
      </trkpt>
      <trkpt lat="45.63137" lon="2.81627">
        <ele>1055</ele>
        <time>2022-08-17T12:48:06Z</time>
      </trkpt>
      <trkpt lat="45.63133" lon="2.81627">
        <ele>1056</ele>
        <time>2022-08-17T12:48:08Z</time>
      </trkpt>
      <trkpt lat="45.63121" lon="2.81628">
        <ele>1056</ele>
        <time>2022-08-17T12:48:10Z</time>
      </trkpt>
      <trkpt lat="45.6311" lon="2.81632">
        <ele>1056</ele>
        <time>2022-08-17T12:48:15Z</time>
      </trkpt>
      <trkpt lat="45.6311" lon="2.81632">
        <ele>1058</ele>
        <time>2022-08-17T12:48:18Z</time>
      </trkpt>
      <trkpt lat="45.63093" lon="2.81633">
        <ele>1058</ele>
        <time>2022-08-17T12:48:19Z</time>
      </trkpt>
      <trkpt lat="45.63087" lon="2.81631">
        <ele>1058</ele>
        <time>2022-08-17T12:48:23Z</time>
      </trkpt>
      <trkpt lat="45.6308" lon="2.8163">
        <ele>1058</ele>
        <time>2022-08-17T12:48:27Z</time>
      </trkpt>
      <trkpt lat="45.63073" lon="2.81628">
        <ele>1060</ele>
        <time>2022-08-17T12:48:28Z</time>
      </trkpt>
      <trkpt lat="45.63064" lon="2.81625">
        <ele>1060</ele>
        <time>2022-08-17T12:48:31Z</time>
      </trkpt>
      <trkpt lat="45.63054" lon="2.81625">
        <ele>1060</ele>
        <time>2022-08-17T12:48:35Z</time>
      </trkpt>
      <trkpt lat="45.63054" lon="2.81625">
        <ele>1062</ele>
        <time>2022-08-17T12:48:38Z</time>
      </trkpt>
      <trkpt lat="45.63044" lon="2.81626">
        <ele>1062</ele>
        <time>2022-08-17T12:48:39Z</time>
      </trkpt>
      <trkpt lat="45.63033" lon="2.81628">
        <ele>1062</ele>
        <time>2022-08-17T12:48:42Z</time>
      </trkpt>
      <trkpt lat="45.63022" lon="2.8163">
        <ele>1062</ele>
        <time>2022-08-17T12:48:45Z</time>
      </trkpt>
      <trkpt lat="45.63022" lon="2.8163">
        <ele>1064</ele>
        <time>2022-08-17T12:48:48Z</time>
      </trkpt>
      <trkpt lat="45.63003" lon="2.81634">
        <ele>1064</ele>
        <time>2022-08-17T12:48:49Z</time>
      </trkpt>
      <trkpt lat="45.62997" lon="2.81637">
        <ele>1064</ele>
        <time>2022-08-17T12:48:53Z</time>
      </trkpt>
      <trkpt lat="45.6299" lon="2.81639">
        <ele>1064</ele>
        <time>2022-08-17T12:48:57Z</time>
      </trkpt>
      <trkpt lat="45.62983" lon="2.81642">
        <ele>1064</ele>
        <time>2022-08-17T12:48:58Z</time>
      </trkpt>
      <trkpt lat="45.62975" lon="2.81645">
        <ele>1064</ele>
        <time>2022-08-17T12:49:01Z</time>
      </trkpt>
      <trkpt lat="45.62963" lon="2.8165">
        <ele>1064</ele>
        <time>2022-08-17T12:49:05Z</time>
      </trkpt>
      <trkpt lat="45.62963" lon="2.8165">
        <ele>1066</ele>
        <time>2022-08-17T12:49:08Z</time>
      </trkpt>
      <trkpt lat="45.62945" lon="2.81658">
        <ele>1066</ele>
        <time>2022-08-17T12:49:09Z</time>
      </trkpt>
      <trkpt lat="45.6294" lon="2.81661">
        <ele>1066</ele>
        <time>2022-08-17T12:49:13Z</time>
      </trkpt>
      <trkpt lat="45.62934" lon="2.81664">
        <ele>1066</ele>
        <time>2022-08-17T12:49:17Z</time>
      </trkpt>
      <trkpt lat="45.62928" lon="2.81667">
        <ele>1067</ele>
        <time>2022-08-17T12:49:18Z</time>
      </trkpt>
      <trkpt lat="45.6292" lon="2.8167">
        <ele>1067</ele>
        <time>2022-08-17T12:49:21Z</time>
      </trkpt>
      <trkpt lat="45.62909" lon="2.8167">
        <ele>1067</ele>
        <time>2022-08-17T12:49:25Z</time>
      </trkpt>
      <trkpt lat="45.62909" lon="2.8167">
        <ele>1069</ele>
        <time>2022-08-17T12:49:28Z</time>
      </trkpt>
      <trkpt lat="45.62892" lon="2.81669">
        <ele>1069</ele>
        <time>2022-08-17T12:49:29Z</time>
      </trkpt>
      <trkpt lat="45.62887" lon="2.81669">
        <ele>1069</ele>
        <time>2022-08-17T12:49:34Z</time>
      </trkpt>
      <trkpt lat="45.62881" lon="2.81669">
        <ele>1069</ele>
        <time>2022-08-17T12:49:36Z</time>
      </trkpt>
      <trkpt lat="45.62876" lon="2.81669">
        <ele>1071</ele>
        <time>2022-08-17T12:49:38Z</time>
      </trkpt>
      <trkpt lat="45.62864" lon="2.81668">
        <ele>1071</ele>
        <time>2022-08-17T12:49:40Z</time>
      </trkpt>
      <trkpt lat="45.62853" lon="2.81664">
        <ele>1071</ele>
        <time>2022-08-17T12:49:44Z</time>
      </trkpt>
      <trkpt lat="45.62841" lon="2.81665">
        <ele>1073</ele>
        <time>2022-08-17T12:49:48Z</time>
      </trkpt>
      <trkpt lat="45.62827" lon="2.81671">
        <ele>1073</ele>
        <time>2022-08-17T12:49:52Z</time>
      </trkpt>
      <trkpt lat="45.62824" lon="2.81673">
        <ele>1073</ele>
        <time>2022-08-17T12:49:56Z</time>
      </trkpt>
      <trkpt lat="45.62821" lon="2.81675">
        <ele>1076</ele>
        <time>2022-08-17T12:49:58Z</time>
      </trkpt>
      <trkpt lat="45.62808" lon="2.81681">
        <ele>1076</ele>
        <time>2022-08-17T12:50:00Z</time>
      </trkpt>
      <trkpt lat="45.62797" lon="2.8169">
        <ele>1076</ele>
        <time>2022-08-17T12:50:04Z</time>
      </trkpt>
      <trkpt lat="45.62787" lon="2.81697">
        <ele>1078</ele>
        <time>2022-08-17T12:50:08Z</time>
      </trkpt>
      <trkpt lat="45.62774" lon="2.81709">
        <ele>1078</ele>
        <time>2022-08-17T12:50:12Z</time>
      </trkpt>
      <trkpt lat="45.62772" lon="2.81712">
        <ele>1078</ele>
        <time>2022-08-17T12:50:15Z</time>
      </trkpt>
      <trkpt lat="45.62769" lon="2.81715">
        <ele>1079</ele>
        <time>2022-08-17T12:50:18Z</time>
      </trkpt>
      <trkpt lat="45.62756" lon="2.81736">
        <ele>1079</ele>
        <time>2022-08-17T12:50:19Z</time>
      </trkpt>
      <trkpt lat="45.62751" lon="2.81742">
        <ele>1079</ele>
        <time>2022-08-17T12:50:23Z</time>
      </trkpt>
      <trkpt lat="45.62747" lon="2.81748">
        <ele>1079</ele>
        <time>2022-08-17T12:50:27Z</time>
      </trkpt>
      <trkpt lat="45.62742" lon="2.81754">
        <ele>1081</ele>
        <time>2022-08-17T12:50:28Z</time>
      </trkpt>
      <trkpt lat="45.62736" lon="2.81762">
        <ele>1081</ele>
        <time>2022-08-17T12:50:31Z</time>
      </trkpt>
      <trkpt lat="45.62729" lon="2.81775">
        <ele>1081</ele>
        <time>2022-08-17T12:50:35Z</time>
      </trkpt>
      <trkpt lat="45.62729" lon="2.81775">
        <ele>1083</ele>
        <time>2022-08-17T12:50:38Z</time>
      </trkpt>
      <trkpt lat="45.62723" lon="2.81786">
        <ele>1083</ele>
        <time>2022-08-17T12:50:39Z</time>
      </trkpt>
      <trkpt lat="45.62715" lon="2.81795">
        <ele>1083</ele>
        <time>2022-08-17T12:50:44Z</time>
      </trkpt>
      <trkpt lat="45.62709" lon="2.81808">
        <ele>1085</ele>
        <time>2022-08-17T12:50:48Z</time>
      </trkpt>
      <trkpt lat="45.62706" lon="2.81823">
        <ele>1085</ele>
        <time>2022-08-17T12:50:53Z</time>
      </trkpt>
      <trkpt lat="45.62705" lon="2.8184">
        <ele>1087</ele>
        <time>2022-08-17T12:50:58Z</time>
      </trkpt>
      <trkpt lat="45.62704" lon="2.81856">
        <ele>1087</ele>
        <time>2022-08-17T12:51:03Z</time>
      </trkpt>
      <trkpt lat="45.62703" lon="2.81872">
        <ele>1088</ele>
        <time>2022-08-17T12:51:08Z</time>
      </trkpt>
      <trkpt lat="45.62697" lon="2.81895">
        <ele>1088</ele>
        <time>2022-08-17T12:51:12Z</time>
      </trkpt>
      <trkpt lat="45.62696" lon="2.819">
        <ele>1088</ele>
        <time>2022-08-17T12:51:15Z</time>
      </trkpt>
      <trkpt lat="45.62695" lon="2.81906">
        <ele>1090</ele>
        <time>2022-08-17T12:51:18Z</time>
      </trkpt>
      <trkpt lat="45.62686" lon="2.81929">
        <ele>1090</ele>
        <time>2022-08-17T12:51:19Z</time>
      </trkpt>
      <trkpt lat="45.62685" lon="2.81939">
        <ele>1090</ele>
        <time>2022-08-17T12:51:23Z</time>
      </trkpt>
      <trkpt lat="45.62683" lon="2.81949">
        <ele>1090</ele>
        <time>2022-08-17T12:51:27Z</time>
      </trkpt>
      <trkpt lat="45.62682" lon="2.81959">
        <ele>1091</ele>
        <time>2022-08-17T12:51:28Z</time>
      </trkpt>
      <trkpt lat="45.62684" lon="2.81972">
        <ele>1091</ele>
        <time>2022-08-17T12:51:31Z</time>
      </trkpt>
      <trkpt lat="45.62688" lon="2.8199">
        <ele>1091</ele>
        <time>2022-08-17T12:51:35Z</time>
      </trkpt>
      <trkpt lat="45.62695" lon="2.82">
        <ele>1093</ele>
        <time>2022-08-17T12:51:38Z</time>
      </trkpt>
      <trkpt lat="45.62707" lon="2.82016">
        <ele>1093</ele>
        <time>2022-08-17T12:51:42Z</time>
      </trkpt>
      <trkpt lat="45.62711" lon="2.8202">
        <ele>1093</ele>
        <time>2022-08-17T12:51:47Z</time>
      </trkpt>
      <trkpt lat="45.62715" lon="2.82024">
        <ele>1095</ele>
        <time>2022-08-17T12:51:48Z</time>
      </trkpt>
      <trkpt lat="45.62721" lon="2.82033">
        <ele>1095</ele>
        <time>2022-08-17T12:51:52Z</time>
      </trkpt>
      <trkpt lat="45.62728" lon="2.82044">
        <ele>1095</ele>
        <time>2022-08-17T12:51:55Z</time>
      </trkpt>
      <trkpt lat="45.62728" lon="2.82044">
        <ele>1095</ele>
        <time>2022-08-17T12:51:58Z</time>
      </trkpt>
      <trkpt lat="45.62742" lon="2.82063">
        <ele>1095</ele>
        <time>2022-08-17T12:51:59Z</time>
      </trkpt>
      <trkpt lat="45.62748" lon="2.82071">
        <ele>1095</ele>
        <time>2022-08-17T12:52:02Z</time>
      </trkpt>
      <trkpt lat="45.62754" lon="2.82079">
        <ele>1095</ele>
        <time>2022-08-17T12:52:05Z</time>
      </trkpt>
      <trkpt lat="45.6276" lon="2.82087">
        <ele>1096</ele>
        <time>2022-08-17T12:52:08Z</time>
      </trkpt>
      <trkpt lat="45.62767" lon="2.82097">
        <ele>1096</ele>
        <time>2022-08-17T12:52:11Z</time>
      </trkpt>
      <trkpt lat="45.62774" lon="2.82106">
        <ele>1096</ele>
        <time>2022-08-17T12:52:14Z</time>
      </trkpt>
      <trkpt lat="45.62783" lon="2.82117">
        <ele>1098</ele>
        <time>2022-08-17T12:52:18Z</time>
      </trkpt>
      <trkpt lat="45.62795" lon="2.82129">
        <ele>1098</ele>
        <time>2022-08-17T12:52:22Z</time>
      </trkpt>
      <trkpt lat="45.62798" lon="2.82132">
        <ele>1098</ele>
        <time>2022-08-17T12:52:26Z</time>
      </trkpt>
      <trkpt lat="45.62802" lon="2.82135">
        <ele>1100</ele>
        <time>2022-08-17T12:52:28Z</time>
      </trkpt>
      <trkpt lat="45.62809" lon="2.82145">
        <ele>1100</ele>
        <time>2022-08-17T12:52:30Z</time>
      </trkpt>
      <trkpt lat="45.62818" lon="2.82156">
        <ele>1100</ele>
        <time>2022-08-17T12:52:35Z</time>
      </trkpt>
      <trkpt lat="45.62818" lon="2.82156">
        <ele>1102</ele>
        <time>2022-08-17T12:52:38Z</time>
      </trkpt>
      <trkpt lat="45.62836" lon="2.82158">
        <ele>1102</ele>
        <time>2022-08-17T12:52:39Z</time>
      </trkpt>
      <trkpt lat="45.62843" lon="2.82157">
        <ele>1102</ele>
        <time>2022-08-17T12:52:43Z</time>
      </trkpt>
      <trkpt lat="45.6285" lon="2.82157">
        <ele>1102</ele>
        <time>2022-08-17T12:52:47Z</time>
      </trkpt>
      <trkpt lat="45.62856" lon="2.82156">
        <ele>1107</ele>
        <time>2022-08-17T12:52:48Z</time>
      </trkpt>
      <trkpt lat="45.6287" lon="2.82152">
        <ele>1107</ele>
        <time>2022-08-17T12:52:52Z</time>
      </trkpt>
      <trkpt lat="45.62874" lon="2.8215">
        <ele>1107</ele>
        <time>2022-08-17T12:52:56Z</time>
      </trkpt>
      <trkpt lat="45.62878" lon="2.82149">
        <ele>1110</ele>
        <time>2022-08-17T12:52:58Z</time>
      </trkpt>
      <trkpt lat="45.62889" lon="2.82142">
        <ele>1110</ele>
        <time>2022-08-17T12:53:00Z</time>
      </trkpt>
      <trkpt lat="45.629" lon="2.82135">
        <ele>1110</ele>
        <time>2022-08-17T12:53:04Z</time>
      </trkpt>
      <trkpt lat="45.62911" lon="2.82132">
        <ele>1110</ele>
        <time>2022-08-17T12:53:08Z</time>
      </trkpt>
      <trkpt lat="45.62926" lon="2.8214">
        <ele>1110</ele>
        <time>2022-08-17T12:53:12Z</time>
      </trkpt>
      <trkpt lat="45.62929" lon="2.82144">
        <ele>1110</ele>
        <time>2022-08-17T12:53:16Z</time>
      </trkpt>
      <trkpt lat="45.62932" lon="2.82148">
        <ele>1111</ele>
        <time>2022-08-17T12:53:18Z</time>
      </trkpt>
      <trkpt lat="45.6294" lon="2.8216">
        <ele>1111</ele>
        <time>2022-08-17T12:53:19Z</time>
      </trkpt>
      <trkpt lat="45.6295" lon="2.82171">
        <ele>1111</ele>
        <time>2022-08-17T12:53:23Z</time>
      </trkpt>
      <trkpt lat="45.62959" lon="2.82178">
        <ele>1116</ele>
        <time>2022-08-17T12:53:28Z</time>
      </trkpt>
      <trkpt lat="45.62968" lon="2.82182">
        <ele>1116</ele>
        <time>2022-08-17T12:53:33Z</time>
      </trkpt>
      <trkpt lat="45.6298" lon="2.82186">
        <ele>1118</ele>
        <time>2022-08-17T12:53:38Z</time>
      </trkpt>
      <trkpt lat="45.62995" lon="2.82187">
        <ele>1118</ele>
        <time>2022-08-17T12:53:43Z</time>
      </trkpt>
      <trkpt lat="45.62999" lon="2.82188">
        <ele>1118</ele>
        <time>2022-08-17T12:53:47Z</time>
      </trkpt>
      <trkpt lat="45.63003" lon="2.82188">
        <ele>1119</ele>
        <time>2022-08-17T12:53:48Z</time>
      </trkpt>
      <trkpt lat="45.63017" lon="2.8219">
        <ele>1119</ele>
        <time>2022-08-17T12:53:52Z</time>
      </trkpt>
      <trkpt lat="45.6302" lon="2.8219">
        <ele>1119</ele>
        <time>2022-08-17T12:53:56Z</time>
      </trkpt>
      <trkpt lat="45.63024" lon="2.8219">
        <ele>1121</ele>
        <time>2022-08-17T12:53:58Z</time>
      </trkpt>
      <trkpt lat="45.63036" lon="2.82192">
        <ele>1121</ele>
        <time>2022-08-17T12:54:01Z</time>
      </trkpt>
      <trkpt lat="45.63047" lon="2.82194">
        <ele>1121</ele>
        <time>2022-08-17T12:54:05Z</time>
      </trkpt>
      <trkpt lat="45.63047" lon="2.82194">
        <ele>1123</ele>
        <time>2022-08-17T12:54:08Z</time>
      </trkpt>
      <trkpt lat="45.63062" lon="2.82203">
        <ele>1123</ele>
        <time>2022-08-17T12:54:09Z</time>
      </trkpt>
      <trkpt lat="45.63067" lon="2.82206">
        <ele>1123</ele>
        <time>2022-08-17T12:54:13Z</time>
      </trkpt>
      <trkpt lat="45.63072" lon="2.82209">
        <ele>1123</ele>
        <time>2022-08-17T12:54:17Z</time>
      </trkpt>
      <trkpt lat="45.63078" lon="2.82212">
        <ele>1125</ele>
        <time>2022-08-17T12:54:18Z</time>
      </trkpt>
      <trkpt lat="45.63086" lon="2.82213">
        <ele>1125</ele>
        <time>2022-08-17T12:54:21Z</time>
      </trkpt>
      <trkpt lat="45.63095" lon="2.82209">
        <ele>1125</ele>
        <time>2022-08-17T12:54:25Z</time>
      </trkpt>
      <trkpt lat="45.63095" lon="2.82209">
        <ele>1128</ele>
        <time>2022-08-17T12:54:28Z</time>
      </trkpt>
      <trkpt lat="45.63102" lon="2.82203">
        <ele>1128</ele>
        <time>2022-08-17T12:54:29Z</time>
      </trkpt>
      <trkpt lat="45.63108" lon="2.82196">
        <ele>1128</ele>
        <time>2022-08-17T12:54:32Z</time>
      </trkpt>
      <trkpt lat="45.63111" lon="2.82193">
        <ele>1128</ele>
        <time>2022-08-17T12:54:34Z</time>
      </trkpt>
      <trkpt lat="45.63119" lon="2.82184">
        <ele>1128</ele>
        <time>2022-08-17T12:54:38Z</time>
      </trkpt>
      <trkpt lat="45.63132" lon="2.8218">
        <ele>1128</ele>
        <time>2022-08-17T12:54:42Z</time>
      </trkpt>
      <trkpt lat="45.63135" lon="2.82182">
        <ele>1128</ele>
        <time>2022-08-17T12:54:47Z</time>
      </trkpt>
      <trkpt lat="45.63139" lon="2.82185">
        <ele>1130</ele>
        <time>2022-08-17T12:54:48Z</time>
      </trkpt>
      <trkpt lat="45.63146" lon="2.82192">
        <ele>1130</ele>
        <time>2022-08-17T12:54:51Z</time>
      </trkpt>
      <trkpt lat="45.63153" lon="2.82205">
        <ele>1130</ele>
        <time>2022-08-17T12:54:55Z</time>
      </trkpt>
      <trkpt lat="45.63153" lon="2.82205">
        <ele>1135</ele>
        <time>2022-08-17T12:54:58Z</time>
      </trkpt>
      <trkpt lat="45.63154" lon="2.82226">
        <ele>1135</ele>
        <time>2022-08-17T12:54:59Z</time>
      </trkpt>
      <trkpt lat="45.63152" lon="2.82233">
        <ele>1135</ele>
        <time>2022-08-17T12:55:03Z</time>
      </trkpt>
      <trkpt lat="45.63149" lon="2.82241">
        <ele>1135</ele>
        <time>2022-08-17T12:55:07Z</time>
      </trkpt>
      <trkpt lat="45.63147" lon="2.82248">
        <ele>1137</ele>
        <time>2022-08-17T12:55:08Z</time>
      </trkpt>
      <trkpt lat="45.63137" lon="2.82256">
        <ele>1137</ele>
        <time>2022-08-17T12:55:11Z</time>
      </trkpt>
      <trkpt lat="45.63134" lon="2.82258">
        <ele>1137</ele>
        <time>2022-08-17T12:55:16Z</time>
      </trkpt>
      <trkpt lat="45.6313" lon="2.8226">
        <ele>1137</ele>
        <time>2022-08-17T12:55:18Z</time>
      </trkpt>
      <trkpt lat="45.63116" lon="2.82266">
        <ele>1137</ele>
        <time>2022-08-17T12:55:21Z</time>
      </trkpt>
      <trkpt lat="45.63112" lon="2.82267">
        <ele>1137</ele>
        <time>2022-08-17T12:55:26Z</time>
      </trkpt>
      <trkpt lat="45.63109" lon="2.82268">
        <ele>1139</ele>
        <time>2022-08-17T12:55:28Z</time>
      </trkpt>
      <trkpt lat="45.63094" lon="2.8227">
        <ele>1139</ele>
        <time>2022-08-17T12:55:31Z</time>
      </trkpt>
      <trkpt lat="45.6309" lon="2.82269">
        <ele>1139</ele>
        <time>2022-08-17T12:55:36Z</time>
      </trkpt>
      <trkpt lat="45.63086" lon="2.82268">
        <ele>1141</ele>
        <time>2022-08-17T12:55:38Z</time>
      </trkpt>
      <trkpt lat="45.63073" lon="2.82261">
        <ele>1141</ele>
        <time>2022-08-17T12:55:40Z</time>
      </trkpt>
      <trkpt lat="45.63069" lon="2.82259">
        <ele>1141</ele>
        <time>2022-08-17T12:55:43Z</time>
      </trkpt>
      <trkpt lat="45.63066" lon="2.82256">
        <ele>1141</ele>
        <time>2022-08-17T12:55:46Z</time>
      </trkpt>
      <trkpt lat="45.63063" lon="2.82254">
        <ele>1142</ele>
        <time>2022-08-17T12:55:48Z</time>
      </trkpt>
      <trkpt lat="45.63054" lon="2.82249">
        <ele>1142</ele>
        <time>2022-08-17T12:55:50Z</time>
      </trkpt>
      <trkpt lat="45.63044" lon="2.82246">
        <ele>1142</ele>
        <time>2022-08-17T12:55:54Z</time>
      </trkpt>
      <trkpt lat="45.63044" lon="2.82246">
        <ele>1144</ele>
        <time>2022-08-17T12:55:58Z</time>
      </trkpt>
      <trkpt lat="45.63033" lon="2.82246">
        <ele>1144</ele>
        <time>2022-08-17T12:55:59Z</time>
      </trkpt>
      <trkpt lat="45.63022" lon="2.82249">
        <ele>1144</ele>
        <time>2022-08-17T12:56:04Z</time>
      </trkpt>
      <trkpt lat="45.63022" lon="2.82249">
        <ele>1148</ele>
        <time>2022-08-17T12:56:08Z</time>
      </trkpt>
      <trkpt lat="45.63006" lon="2.82254">
        <ele>1148</ele>
        <time>2022-08-17T12:56:09Z</time>
      </trkpt>
      <trkpt lat="45.63" lon="2.82256">
        <ele>1148</ele>
        <time>2022-08-17T12:56:13Z</time>
      </trkpt>
      <trkpt lat="45.62995" lon="2.82257">
        <ele>1148</ele>
        <time>2022-08-17T12:56:17Z</time>
      </trkpt>
      <trkpt lat="45.62989" lon="2.82259">
        <ele>1151</ele>
        <time>2022-08-17T12:56:18Z</time>
      </trkpt>
      <trkpt lat="45.62979" lon="2.82265">
        <ele>1151</ele>
        <time>2022-08-17T12:56:21Z</time>
      </trkpt>
      <trkpt lat="45.62975" lon="2.82268">
        <ele>1151</ele>
        <time>2022-08-17T12:56:26Z</time>
      </trkpt>
      <trkpt lat="45.62972" lon="2.82272">
        <ele>1152</ele>
        <time>2022-08-17T12:56:28Z</time>
      </trkpt>
      <trkpt lat="45.62961" lon="2.82282">
        <ele>1152</ele>
        <time>2022-08-17T12:56:31Z</time>
      </trkpt>
      <trkpt lat="45.62958" lon="2.82286">
        <ele>1152</ele>
        <time>2022-08-17T12:56:36Z</time>
      </trkpt>
      <trkpt lat="45.62955" lon="2.8229">
        <ele>1154</ele>
        <time>2022-08-17T12:56:38Z</time>
      </trkpt>
      <trkpt lat="45.62946" lon="2.82306">
        <ele>1154</ele>
        <time>2022-08-17T12:56:41Z</time>
      </trkpt>
      <trkpt lat="45.62944" lon="2.8231">
        <ele>1154</ele>
        <time>2022-08-17T12:56:46Z</time>
      </trkpt>
      <trkpt lat="45.62942" lon="2.82315">
        <ele>1156</ele>
        <time>2022-08-17T12:56:48Z</time>
      </trkpt>
      <trkpt lat="45.62942" lon="2.82337">
        <ele>1156</ele>
        <time>2022-08-17T12:56:52Z</time>
      </trkpt>
      <trkpt lat="45.62942" lon="2.82342">
        <ele>1156</ele>
        <time>2022-08-17T12:56:56Z</time>
      </trkpt>
      <trkpt lat="45.62943" lon="2.82346">
        <ele>1158</ele>
        <time>2022-08-17T12:56:58Z</time>
      </trkpt>
      <trkpt lat="45.62941" lon="2.82365">
        <ele>1158</ele>
        <time>2022-08-17T12:57:00Z</time>
      </trkpt>
      <trkpt lat="45.62939" lon="2.8237">
        <ele>1158</ele>
        <time>2022-08-17T12:57:03Z</time>
      </trkpt>
      <trkpt lat="45.62938" lon="2.82374">
        <ele>1158</ele>
        <time>2022-08-17T12:57:06Z</time>
      </trkpt>
      <trkpt lat="45.62936" lon="2.82379">
        <ele>1159</ele>
        <time>2022-08-17T12:57:08Z</time>
      </trkpt>
      <trkpt lat="45.62926" lon="2.82388">
        <ele>1159</ele>
        <time>2022-08-17T12:57:10Z</time>
      </trkpt>
      <trkpt lat="45.62923" lon="2.8239">
        <ele>1159</ele>
        <time>2022-08-17T12:57:13Z</time>
      </trkpt>
      <trkpt lat="45.6292" lon="2.82392">
        <ele>1159</ele>
        <time>2022-08-17T12:57:16Z</time>
      </trkpt>
      <trkpt lat="45.62916" lon="2.82394">
        <ele>1161</ele>
        <time>2022-08-17T12:57:18Z</time>
      </trkpt>
      <trkpt lat="45.62903" lon="2.824">
        <ele>1161</ele>
        <time>2022-08-17T12:57:21Z</time>
      </trkpt>
      <trkpt lat="45.62899" lon="2.824">
        <ele>1161</ele>
        <time>2022-08-17T12:57:26Z</time>
      </trkpt>
      <trkpt lat="45.62895" lon="2.82401">
        <ele>1163</ele>
        <time>2022-08-17T12:57:28Z</time>
      </trkpt>
      <trkpt lat="45.62879" lon="2.824">
        <ele>1163</ele>
        <time>2022-08-17T12:57:31Z</time>
      </trkpt>
      <trkpt lat="45.62875" lon="2.82399">
        <ele>1163</ele>
        <time>2022-08-17T12:57:36Z</time>
      </trkpt>
      <trkpt lat="45.62872" lon="2.82399">
        <ele>1165</ele>
        <time>2022-08-17T12:57:38Z</time>
      </trkpt>
      <trkpt lat="45.62856" lon="2.82393">
        <ele>1165</ele>
        <time>2022-08-17T12:57:42Z</time>
      </trkpt>
      <trkpt lat="45.62852" lon="2.82391">
        <ele>1165</ele>
        <time>2022-08-17T12:57:47Z</time>
      </trkpt>
      <trkpt lat="45.62848" lon="2.8239">
        <ele>1168</ele>
        <time>2022-08-17T12:57:48Z</time>
      </trkpt>
      <trkpt lat="45.62835" lon="2.82388">
        <ele>1168</ele>
        <time>2022-08-17T12:57:52Z</time>
      </trkpt>
      <trkpt lat="45.62831" lon="2.82388">
        <ele>1168</ele>
        <time>2022-08-17T12:57:56Z</time>
      </trkpt>
      <trkpt lat="45.62828" lon="2.82388">
        <ele>1168</ele>
        <time>2022-08-17T12:57:58Z</time>
      </trkpt>
      <trkpt lat="45.62814" lon="2.8239">
        <ele>1168</ele>
        <time>2022-08-17T12:58:01Z</time>
      </trkpt>
      <trkpt lat="45.62811" lon="2.82391">
        <ele>1168</ele>
        <time>2022-08-17T12:58:06Z</time>
      </trkpt>
      <trkpt lat="45.62807" lon="2.82392">
        <ele>1172</ele>
        <time>2022-08-17T12:58:08Z</time>
      </trkpt>
      <trkpt lat="45.62798" lon="2.82395">
        <ele>1172</ele>
        <time>2022-08-17T12:58:10Z</time>
      </trkpt>
      <trkpt lat="45.62786" lon="2.824">
        <ele>1172</ele>
        <time>2022-08-17T12:58:15Z</time>
      </trkpt>
      <trkpt lat="45.62786" lon="2.824">
        <ele>1173</ele>
        <time>2022-08-17T12:58:18Z</time>
      </trkpt>
      <trkpt lat="45.62775" lon="2.82408">
        <ele>1173</ele>
        <time>2022-08-17T12:58:20Z</time>
      </trkpt>
      <trkpt lat="45.62767" lon="2.82416">
        <ele>1173</ele>
        <time>2022-08-17T12:58:24Z</time>
      </trkpt>
      <trkpt lat="45.6276" lon="2.82425">
        <ele>1175</ele>
        <time>2022-08-17T12:58:28Z</time>
      </trkpt>
      <trkpt lat="45.6275" lon="2.82434">
        <ele>1175</ele>
        <time>2022-08-17T12:58:31Z</time>
      </trkpt>
      <trkpt lat="45.62746" lon="2.82438">
        <ele>1175</ele>
        <time>2022-08-17T12:58:34Z</time>
      </trkpt>
      <trkpt lat="45.62742" lon="2.82442">
        <ele>1175</ele>
        <time>2022-08-17T12:58:37Z</time>
      </trkpt>
      <trkpt lat="45.62739" lon="2.82446">
        <ele>1176</ele>
        <time>2022-08-17T12:58:38Z</time>
      </trkpt>
      <trkpt lat="45.62735" lon="2.82451">
        <ele>1176</ele>
        <time>2022-08-17T12:58:40Z</time>
      </trkpt>
      <trkpt lat="45.62727" lon="2.82459">
        <ele>1176</ele>
        <time>2022-08-17T12:58:44Z</time>
      </trkpt>
      <trkpt lat="45.62727" lon="2.82459">
        <ele>1178</ele>
        <time>2022-08-17T12:58:48Z</time>
      </trkpt>
      <trkpt lat="45.62713" lon="2.82464">
        <ele>1178</ele>
        <time>2022-08-17T12:58:49Z</time>
      </trkpt>
      <trkpt lat="45.6271" lon="2.82462">
        <ele>1178</ele>
        <time>2022-08-17T12:58:53Z</time>
      </trkpt>
      <trkpt lat="45.62707" lon="2.8246">
        <ele>1178</ele>
        <time>2022-08-17T12:58:56Z</time>
      </trkpt>
      <trkpt lat="45.62704" lon="2.82458">
        <ele>1179</ele>
        <time>2022-08-17T12:58:58Z</time>
      </trkpt>
      <trkpt lat="45.627" lon="2.82446">
        <ele>1179</ele>
        <time>2022-08-17T12:59:00Z</time>
      </trkpt>
      <trkpt lat="45.62696" lon="2.82433">
        <ele>1179</ele>
        <time>2022-08-17T12:59:04Z</time>
      </trkpt>
      <trkpt lat="45.62696" lon="2.82433">
        <ele>1183</ele>
        <time>2022-08-17T12:59:08Z</time>
      </trkpt>
      <trkpt lat="45.62689" lon="2.8242">
        <ele>1183</ele>
        <time>2022-08-17T12:59:09Z</time>
      </trkpt>
      <trkpt lat="45.6268" lon="2.8241">
        <ele>1183</ele>
        <time>2022-08-17T12:59:14Z</time>
      </trkpt>
      <trkpt lat="45.6268" lon="2.8241">
        <ele>1184</ele>
        <time>2022-08-17T12:59:18Z</time>
      </trkpt>
      <trkpt lat="45.62671" lon="2.824">
        <ele>1184</ele>
        <time>2022-08-17T12:59:19Z</time>
      </trkpt>
      <trkpt lat="45.62664" lon="2.82387">
        <ele>1184</ele>
        <time>2022-08-17T12:59:25Z</time>
      </trkpt>
      <trkpt lat="45.62664" lon="2.82387">
        <ele>1186</ele>
        <time>2022-08-17T12:59:28Z</time>
      </trkpt>
      <trkpt lat="45.62657" lon="2.82378">
        <ele>1186</ele>
        <time>2022-08-17T12:59:31Z</time>
      </trkpt>
      <trkpt lat="45.62647" lon="2.82367">
        <ele>1186</ele>
        <time>2022-08-17T12:59:35Z</time>
      </trkpt>
      <trkpt lat="45.62647" lon="2.82367">
        <ele>1188</ele>
        <time>2022-08-17T12:59:38Z</time>
      </trkpt>
      <trkpt lat="45.62639" lon="2.82357">
        <ele>1188</ele>
        <time>2022-08-17T12:59:39Z</time>
      </trkpt>
      <trkpt lat="45.62629" lon="2.82347">
        <ele>1188</ele>
        <time>2022-08-17T12:59:44Z</time>
      </trkpt>
      <trkpt lat="45.6262" lon="2.82339">
        <ele>1190</ele>
        <time>2022-08-17T12:59:48Z</time>
      </trkpt>
      <trkpt lat="45.62607" lon="2.82329">
        <ele>1190</ele>
        <time>2022-08-17T12:59:52Z</time>
      </trkpt>
      <trkpt lat="45.62603" lon="2.82326">
        <ele>1190</ele>
        <time>2022-08-17T12:59:57Z</time>
      </trkpt>
      <trkpt lat="45.62598" lon="2.82324">
        <ele>1192</ele>
        <time>2022-08-17T12:59:58Z</time>
      </trkpt>
      <trkpt lat="45.62586" lon="2.82318">
        <ele>1192</ele>
        <time>2022-08-17T13:00:02Z</time>
      </trkpt>
      <trkpt lat="45.62583" lon="2.82318">
        <ele>1192</ele>
        <time>2022-08-17T13:00:06Z</time>
      </trkpt>
      <trkpt lat="45.6258" lon="2.82318">
        <ele>1193</ele>
        <time>2022-08-17T13:00:08Z</time>
      </trkpt>
      <trkpt lat="45.62569" lon="2.8232">
        <ele>1193</ele>
        <time>2022-08-17T13:00:11Z</time>
      </trkpt>
      <trkpt lat="45.6256" lon="2.82326">
        <ele>1193</ele>
        <time>2022-08-17T13:00:15Z</time>
      </trkpt>
      <trkpt lat="45.6256" lon="2.82326">
        <ele>1197</ele>
        <time>2022-08-17T13:00:18Z</time>
      </trkpt>
      <trkpt lat="45.62546" lon="2.82328">
        <ele>1197</ele>
        <time>2022-08-17T13:00:19Z</time>
      </trkpt>
      <trkpt lat="45.62542" lon="2.82326">
        <ele>1197</ele>
        <time>2022-08-17T13:00:23Z</time>
      </trkpt>
      <trkpt lat="45.62538" lon="2.82324">
        <ele>1197</ele>
        <time>2022-08-17T13:00:26Z</time>
      </trkpt>
      <trkpt lat="45.62535" lon="2.82323">
        <ele>1199</ele>
        <time>2022-08-17T13:00:28Z</time>
      </trkpt>
      <trkpt lat="45.62523" lon="2.82311">
        <ele>1199</ele>
        <time>2022-08-17T13:00:30Z</time>
      </trkpt>
      <trkpt lat="45.62519" lon="2.82307">
        <ele>1199</ele>
        <time>2022-08-17T13:00:34Z</time>
      </trkpt>
      <trkpt lat="45.62515" lon="2.82303">
        <ele>1199</ele>
        <time>2022-08-17T13:00:37Z</time>
      </trkpt>
      <trkpt lat="45.62511" lon="2.82299">
        <ele>1200</ele>
        <time>2022-08-17T13:00:38Z</time>
      </trkpt>
      <trkpt lat="45.62506" lon="2.82293">
        <ele>1200</ele>
        <time>2022-08-17T13:00:41Z</time>
      </trkpt>
      <trkpt lat="45.62497" lon="2.82284">
        <ele>1200</ele>
        <time>2022-08-17T13:00:45Z</time>
      </trkpt>
      <trkpt lat="45.62497" lon="2.82284">
        <ele>1202</ele>
        <time>2022-08-17T13:00:48Z</time>
      </trkpt>
      <trkpt lat="45.62484" lon="2.82272">
        <ele>1202</ele>
        <time>2022-08-17T13:00:49Z</time>
      </trkpt>
      <trkpt lat="45.6248" lon="2.82268">
        <ele>1202</ele>
        <time>2022-08-17T13:00:53Z</time>
      </trkpt>
      <trkpt lat="45.62476" lon="2.82264">
        <ele>1202</ele>
        <time>2022-08-17T13:00:57Z</time>
      </trkpt>
      <trkpt lat="45.62471" lon="2.82259">
        <ele>1204</ele>
        <time>2022-08-17T13:00:58Z</time>
      </trkpt>
      <trkpt lat="45.62465" lon="2.82253">
        <ele>1204</ele>
        <time>2022-08-17T13:01:01Z</time>
      </trkpt>
      <trkpt lat="45.62456" lon="2.82245">
        <ele>1204</ele>
        <time>2022-08-17T13:01:05Z</time>
      </trkpt>
      <trkpt lat="45.62456" lon="2.82245">
        <ele>1206</ele>
        <time>2022-08-17T13:01:08Z</time>
      </trkpt>
      <trkpt lat="45.62448" lon="2.82236">
        <ele>1206</ele>
        <time>2022-08-17T13:01:09Z</time>
      </trkpt>
      <trkpt lat="45.62438" lon="2.82227">
        <ele>1206</ele>
        <time>2022-08-17T13:01:14Z</time>
      </trkpt>
      <trkpt lat="45.6243" lon="2.82219">
        <ele>1208</ele>
        <time>2022-08-17T13:01:18Z</time>
      </trkpt>
      <trkpt lat="45.62419" lon="2.8221">
        <ele>1208</ele>
        <time>2022-08-17T13:01:22Z</time>
      </trkpt>
      <trkpt lat="45.62417" lon="2.82207">
        <ele>1208</ele>
        <time>2022-08-17T13:01:26Z</time>
      </trkpt>
      <trkpt lat="45.62414" lon="2.82205">
        <ele>1210</ele>
        <time>2022-08-17T13:01:28Z</time>
      </trkpt>
      <trkpt lat="45.624" lon="2.82197">
        <ele>1210</ele>
        <time>2022-08-17T13:01:30Z</time>
      </trkpt>
      <trkpt lat="45.62396" lon="2.82194">
        <ele>1210</ele>
        <time>2022-08-17T13:01:33Z</time>
      </trkpt>
      <trkpt lat="45.62391" lon="2.82191">
        <ele>1210</ele>
        <time>2022-08-17T13:01:37Z</time>
      </trkpt>
      <trkpt lat="45.62387" lon="2.82189">
        <ele>1214</ele>
        <time>2022-08-17T13:01:38Z</time>
      </trkpt>
      <trkpt lat="45.62382" lon="2.82186">
        <ele>1214</ele>
        <time>2022-08-17T13:01:40Z</time>
      </trkpt>
      <trkpt lat="45.62371" lon="2.82185">
        <ele>1214</ele>
        <time>2022-08-17T13:01:45Z</time>
      </trkpt>
      <trkpt lat="45.62371" lon="2.82185">
        <ele>1214</ele>
        <time>2022-08-17T13:01:48Z</time>
      </trkpt>
      <trkpt lat="45.62356" lon="2.82183">
        <ele>1214</ele>
        <time>2022-08-17T13:01:50Z</time>
      </trkpt>
      <trkpt lat="45.62351" lon="2.82181">
        <ele>1214</ele>
        <time>2022-08-17T13:01:55Z</time>
      </trkpt>
      <trkpt lat="45.62347" lon="2.82179">
        <ele>1214</ele>
        <time>2022-08-17T13:01:57Z</time>
      </trkpt>
      <trkpt lat="45.62342" lon="2.82177">
        <ele>1216</ele>
        <time>2022-08-17T13:01:58Z</time>
      </trkpt>
      <trkpt lat="45.62335" lon="2.82167">
        <ele>1216</ele>
        <time>2022-08-17T13:02:00Z</time>
      </trkpt>
      <trkpt lat="45.62332" lon="2.82162">
        <ele>1216</ele>
        <time>2022-08-17T13:02:03Z</time>
      </trkpt>
      <trkpt lat="45.62329" lon="2.82157">
        <ele>1216</ele>
        <time>2022-08-17T13:02:07Z</time>
      </trkpt>
      <trkpt lat="45.62326" lon="2.82152">
        <ele>1220</ele>
        <time>2022-08-17T13:02:08Z</time>
      </trkpt>
      <trkpt lat="45.62317" lon="2.82138">
        <ele>1220</ele>
        <time>2022-08-17T13:02:12Z</time>
      </trkpt>
      <trkpt lat="45.62314" lon="2.82133">
        <ele>1220</ele>
        <time>2022-08-17T13:02:17Z</time>
      </trkpt>
      <trkpt lat="45.62311" lon="2.82129">
        <ele>1221</ele>
        <time>2022-08-17T13:02:18Z</time>
      </trkpt>
      <trkpt lat="45.62304" lon="2.82116">
        <ele>1221</ele>
        <time>2022-08-17T13:02:21Z</time>
      </trkpt>
      <trkpt lat="45.62302" lon="2.8211">
        <ele>1221</ele>
        <time>2022-08-17T13:02:24Z</time>
      </trkpt>
      <trkpt lat="45.62299" lon="2.82105">
        <ele>1221</ele>
        <time>2022-08-17T13:02:27Z</time>
      </trkpt>
      <trkpt lat="45.62297" lon="2.821">
        <ele>1223</ele>
        <time>2022-08-17T13:02:28Z</time>
      </trkpt>
      <trkpt lat="45.62293" lon="2.82084">
        <ele>1223</ele>
        <time>2022-08-17T13:02:31Z</time>
      </trkpt>
      <trkpt lat="45.62291" lon="2.82077">
        <ele>1223</ele>
        <time>2022-08-17T13:02:34Z</time>
      </trkpt>
      <trkpt lat="45.6229" lon="2.8207">
        <ele>1223</ele>
        <time>2022-08-17T13:02:37Z</time>
      </trkpt>
      <trkpt lat="45.62289" lon="2.82063">
        <ele>1224</ele>
        <time>2022-08-17T13:02:38Z</time>
      </trkpt>
      <trkpt lat="45.62287" lon="2.82051">
        <ele>1224</ele>
        <time>2022-08-17T13:02:42Z</time>
      </trkpt>
      <trkpt lat="45.62284" lon="2.82035">
        <ele>1224</ele>
        <time>2022-08-17T13:02:45Z</time>
      </trkpt>
      <trkpt lat="45.62284" lon="2.82035">
        <ele>1226</ele>
        <time>2022-08-17T13:02:48Z</time>
      </trkpt>
      <trkpt lat="45.62281" lon="2.82021">
        <ele>1226</ele>
        <time>2022-08-17T13:02:49Z</time>
      </trkpt>
      <trkpt lat="45.62277" lon="2.82005">
        <ele>1226</ele>
        <time>2022-08-17T13:02:54Z</time>
      </trkpt>
      <trkpt lat="45.62277" lon="2.82005">
        <ele>1230</ele>
        <time>2022-08-17T13:02:58Z</time>
      </trkpt>
      <trkpt lat="45.62271" lon="2.81992">
        <ele>1230</ele>
        <time>2022-08-17T13:02:59Z</time>
      </trkpt>
      <trkpt lat="45.62262" lon="2.8198">
        <ele>1230</ele>
        <time>2022-08-17T13:03:04Z</time>
      </trkpt>
      <trkpt lat="45.62254" lon="2.81971">
        <ele>1230</ele>
        <time>2022-08-17T13:03:08Z</time>
      </trkpt>
      <trkpt lat="45.62246" lon="2.81963">
        <ele>1230</ele>
        <time>2022-08-17T13:03:12Z</time>
      </trkpt>
      <trkpt lat="45.62239" lon="2.81957">
        <ele>1230</ele>
        <time>2022-08-17T13:03:15Z</time>
      </trkpt>
      <trkpt lat="45.62233" lon="2.8195">
        <ele>1232</ele>
        <time>2022-08-17T13:03:18Z</time>
      </trkpt>
      <trkpt lat="45.62224" lon="2.81937">
        <ele>1232</ele>
        <time>2022-08-17T13:03:21Z</time>
      </trkpt>
      <trkpt lat="45.62222" lon="2.81931">
        <ele>1232</ele>
        <time>2022-08-17T13:03:24Z</time>
      </trkpt>
      <trkpt lat="45.62219" lon="2.81926">
        <ele>1232</ele>
        <time>2022-08-17T13:03:27Z</time>
      </trkpt>
      <trkpt lat="45.62216" lon="2.8192">
        <ele>1237</ele>
        <time>2022-08-17T13:03:28Z</time>
      </trkpt>
      <trkpt lat="45.62214" lon="2.81907">
        <ele>1237</ele>
        <time>2022-08-17T13:03:30Z</time>
      </trkpt>
      <trkpt lat="45.62214" lon="2.81901">
        <ele>1237</ele>
        <time>2022-08-17T13:03:33Z</time>
      </trkpt>
      <trkpt lat="45.62213" lon="2.81895">
        <ele>1237</ele>
        <time>2022-08-17T13:03:36Z</time>
      </trkpt>
      <trkpt lat="45.62213" lon="2.81889">
        <ele>1239</ele>
        <time>2022-08-17T13:03:38Z</time>
      </trkpt>
      <trkpt lat="45.62215" lon="2.81869">
        <ele>1239</ele>
        <time>2022-08-17T13:03:39Z</time>
      </trkpt>
      <trkpt lat="45.62217" lon="2.81861">
        <ele>1239</ele>
        <time>2022-08-17T13:03:43Z</time>
      </trkpt>
      <trkpt lat="45.6222" lon="2.81853">
        <ele>1239</ele>
        <time>2022-08-17T13:03:47Z</time>
      </trkpt>
      <trkpt lat="45.62222" lon="2.81844">
        <ele>1240</ele>
        <time>2022-08-17T13:03:48Z</time>
      </trkpt>
      <trkpt lat="45.62228" lon="2.81837">
        <ele>1240</ele>
        <time>2022-08-17T13:03:51Z</time>
      </trkpt>
      <trkpt lat="45.62234" lon="2.81825">
        <ele>1240</ele>
        <time>2022-08-17T13:03:55Z</time>
      </trkpt>
      <trkpt lat="45.62234" lon="2.81825">
        <ele>1242</ele>
        <time>2022-08-17T13:03:58Z</time>
      </trkpt>
      <trkpt lat="45.62242" lon="2.81815">
        <ele>1242</ele>
        <time>2022-08-17T13:03:59Z</time>
      </trkpt>
      <trkpt lat="45.62248" lon="2.81807">
        <ele>1242</ele>
        <time>2022-08-17T13:04:02Z</time>
      </trkpt>
      <trkpt lat="45.62253" lon="2.81799">
        <ele>1242</ele>
        <time>2022-08-17T13:04:05Z</time>
      </trkpt>
      <trkpt lat="45.62259" lon="2.81791">
        <ele>1247</ele>
        <time>2022-08-17T13:04:08Z</time>
      </trkpt>
      <trkpt lat="45.62263" lon="2.81775">
        <ele>1247</ele>
        <time>2022-08-17T13:04:11Z</time>
      </trkpt>
      <trkpt lat="45.62263" lon="2.81768">
        <ele>1247</ele>
        <time>2022-08-17T13:04:14Z</time>
      </trkpt>
      <trkpt lat="45.62263" lon="2.81762">
        <ele>1247</ele>
        <time>2022-08-17T13:04:17Z</time>
      </trkpt>
      <trkpt lat="45.62263" lon="2.81756">
        <ele>1248</ele>
        <time>2022-08-17T13:04:18Z</time>
      </trkpt>
      <trkpt lat="45.62259" lon="2.81747">
        <ele>1248</ele>
        <time>2022-08-17T13:04:21Z</time>
      </trkpt>
      <trkpt lat="45.62252" lon="2.8174">
        <ele>1248</ele>
        <time>2022-08-17T13:04:25Z</time>
      </trkpt>
      <trkpt lat="45.62252" lon="2.8174">
        <ele>1250</ele>
        <time>2022-08-17T13:04:28Z</time>
      </trkpt>
      <trkpt lat="45.62239" lon="2.81748">
        <ele>1250</ele>
        <time>2022-08-17T13:04:29Z</time>
      </trkpt>
      <trkpt lat="45.62236" lon="2.81753">
        <ele>1250</ele>
        <time>2022-08-17T13:04:32Z</time>
      </trkpt>
      <trkpt lat="45.62233" lon="2.81758">
        <ele>1250</ele>
        <time>2022-08-17T13:04:36Z</time>
      </trkpt>
      <trkpt lat="45.6223" lon="2.81763">
        <ele>1252</ele>
        <time>2022-08-17T13:04:38Z</time>
      </trkpt>
      <trkpt lat="45.62223" lon="2.81785">
        <ele>1252</ele>
        <time>2022-08-17T13:04:40Z</time>
      </trkpt>
      <trkpt lat="45.6222" lon="2.81792">
        <ele>1252</ele>
        <time>2022-08-17T13:04:44Z</time>
      </trkpt>
      <trkpt lat="45.62218" lon="2.81799">
        <ele>1252</ele>
        <time>2022-08-17T13:04:47Z</time>
      </trkpt>
      <trkpt lat="45.62215" lon="2.81806">
        <ele>1254</ele>
        <time>2022-08-17T13:04:48Z</time>
      </trkpt>
      <trkpt lat="45.62211" lon="2.81812">
        <ele>1254</ele>
        <time>2022-08-17T13:04:50Z</time>
      </trkpt>
      <trkpt lat="45.62203" lon="2.81823">
        <ele>1254</ele>
        <time>2022-08-17T13:04:54Z</time>
      </trkpt>
      <trkpt lat="45.62194" lon="2.81834">
        <ele>1256</ele>
        <time>2022-08-17T13:04:58Z</time>
      </trkpt>
      <trkpt lat="45.62188" lon="2.81843">
        <ele>1256</ele>
        <time>2022-08-17T13:05:01Z</time>
      </trkpt>
      <trkpt lat="45.62181" lon="2.81856">
        <ele>1256</ele>
        <time>2022-08-17T13:05:05Z</time>
      </trkpt>
      <trkpt lat="45.62181" lon="2.81856">
        <ele>1258</ele>
        <time>2022-08-17T13:05:08Z</time>
      </trkpt>
      <trkpt lat="45.62176" lon="2.8187">
        <ele>1258</ele>
        <time>2022-08-17T13:05:09Z</time>
      </trkpt>
      <trkpt lat="45.62174" lon="2.81881">
        <ele>1258</ele>
        <time>2022-08-17T13:05:12Z</time>
      </trkpt>
      <trkpt lat="45.62171" lon="2.81892">
        <ele>1258</ele>
        <time>2022-08-17T13:05:15Z</time>
      </trkpt>
      <trkpt lat="45.62168" lon="2.81903">
        <ele>1260</ele>
        <time>2022-08-17T13:05:18Z</time>
      </trkpt>
      <trkpt lat="45.62167" lon="2.81918">
        <ele>1260</ele>
        <time>2022-08-17T13:05:22Z</time>
      </trkpt>
      <trkpt lat="45.62166" lon="2.81929">
        <ele>1260</ele>
        <time>2022-08-17T13:05:25Z</time>
      </trkpt>
      <trkpt lat="45.62164" lon="2.81941">
        <ele>1262</ele>
        <time>2022-08-17T13:05:28Z</time>
      </trkpt>
      <trkpt lat="45.62159" lon="2.81959">
        <ele>1262</ele>
        <time>2022-08-17T13:05:31Z</time>
      </trkpt>
      <trkpt lat="45.62156" lon="2.81965">
        <ele>1262</ele>
        <time>2022-08-17T13:05:34Z</time>
      </trkpt>
      <trkpt lat="45.62154" lon="2.81971">
        <ele>1262</ele>
        <time>2022-08-17T13:05:37Z</time>
      </trkpt>
      <trkpt lat="45.62151" lon="2.81977">
        <ele>1263</ele>
        <time>2022-08-17T13:05:38Z</time>
      </trkpt>
      <trkpt lat="45.62145" lon="2.81988">
        <ele>1263</ele>
        <time>2022-08-17T13:05:40Z</time>
      </trkpt>
      <trkpt lat="45.62141" lon="2.81994">
        <ele>1263</ele>
        <time>2022-08-17T13:05:44Z</time>
      </trkpt>
      <trkpt lat="45.62138" lon="2.81999">
        <ele>1263</ele>
        <time>2022-08-17T13:05:47Z</time>
      </trkpt>
      <trkpt lat="45.62134" lon="2.82004">
        <ele>1265</ele>
        <time>2022-08-17T13:05:48Z</time>
      </trkpt>
      <trkpt lat="45.62127" lon="2.82015">
        <ele>1265</ele>
        <time>2022-08-17T13:05:50Z</time>
      </trkpt>
      <trkpt lat="45.62122" lon="2.82021">
        <ele>1265</ele>
        <time>2022-08-17T13:05:53Z</time>
      </trkpt>
      <trkpt lat="45.62118" lon="2.82027">
        <ele>1265</ele>
        <time>2022-08-17T13:05:57Z</time>
      </trkpt>
      <trkpt lat="45.62114" lon="2.82032">
        <ele>1266</ele>
        <time>2022-08-17T13:05:58Z</time>
      </trkpt>
      <trkpt lat="45.62106" lon="2.82041">
        <ele>1266</ele>
        <time>2022-08-17T13:06:00Z</time>
      </trkpt>
      <trkpt lat="45.62102" lon="2.82045">
        <ele>1266</ele>
        <time>2022-08-17T13:06:03Z</time>
      </trkpt>
      <trkpt lat="45.62098" lon="2.82049">
        <ele>1266</ele>
        <time>2022-08-17T13:06:06Z</time>
      </trkpt>
      <trkpt lat="45.62094" lon="2.82052">
        <ele>1268</ele>
        <time>2022-08-17T13:06:08Z</time>
      </trkpt>
      <trkpt lat="45.62087" lon="2.82053">
        <ele>1268</ele>
        <time>2022-08-17T13:06:09Z</time>
      </trkpt>
      <trkpt lat="45.62079" lon="2.82052">
        <ele>1268</ele>
        <time>2022-08-17T13:06:13Z</time>
      </trkpt>
      <trkpt lat="45.62079" lon="2.82052">
        <ele>1269</ele>
        <time>2022-08-17T13:06:18Z</time>
      </trkpt>
      <trkpt lat="45.62079" lon="2.82052">
        <ele>1269</ele>
        <time>2022-08-17T13:06:28Z</time>
      </trkpt>
      <trkpt lat="45.62079" lon="2.82052">
        <ele>1269</ele>
        <time>2022-08-17T13:06:38Z</time>
      </trkpt>
      <trkpt lat="45.62079" lon="2.82052">
        <ele>1270</ele>
        <time>2022-08-17T13:06:48Z</time>
      </trkpt>
      <trkpt lat="45.62079" lon="2.82052">
        <ele>1270</ele>
        <time>2022-08-17T13:06:58Z</time>
      </trkpt>
      <trkpt lat="45.62079" lon="2.82052">
        <ele>1269</ele>
        <time>2022-08-17T13:07:08Z</time>
      </trkpt>
      <trkpt lat="45.62079" lon="2.82052">
        <ele>1269</ele>
        <time>2022-08-17T13:07:18Z</time>
      </trkpt>
      <trkpt lat="45.62076" lon="2.8205">
        <ele>1269</ele>
        <time>2022-08-17T13:07:22Z</time>
      </trkpt>
      <trkpt lat="45.62076" lon="2.8205">
        <ele>1270</ele>
        <time>2022-08-17T13:07:28Z</time>
      </trkpt>
      <trkpt lat="45.62076" lon="2.8205">
        <ele>1270</ele>
        <time>2022-08-17T13:07:38Z</time>
      </trkpt>
      <trkpt lat="45.62076" lon="2.8205">
        <ele>1270</ele>
        <time>2022-08-17T13:07:48Z</time>
      </trkpt>
      <trkpt lat="45.62076" lon="2.8205">
        <ele>1270</ele>
        <time>2022-08-17T13:07:58Z</time>
      </trkpt>
      <trkpt lat="45.62076" lon="2.8205">
        <ele>1270</ele>
        <time>2022-08-17T13:08:08Z</time>
      </trkpt>
      <trkpt lat="45.62076" lon="2.8205">
        <ele>1271</ele>
        <time>2022-08-17T13:08:18Z</time>
      </trkpt>
      <trkpt lat="45.62076" lon="2.8205">
        <ele>1271</ele>
        <time>2022-08-17T13:08:28Z</time>
      </trkpt>
      <trkpt lat="45.62076" lon="2.8205">
        <ele>1271</ele>
        <time>2022-08-17T13:08:38Z</time>
      </trkpt>
      <trkpt lat="45.62076" lon="2.8205">
        <ele>1271</ele>
        <time>2022-08-17T13:08:48Z</time>
      </trkpt>
      <trkpt lat="45.62076" lon="2.8205">
        <ele>1271</ele>
        <time>2022-08-17T13:08:58Z</time>
      </trkpt>
      <trkpt lat="45.62076" lon="2.8205">
        <ele>1271</ele>
        <time>2022-08-17T13:09:08Z</time>
      </trkpt>
      <trkpt lat="45.62076" lon="2.8205">
        <ele>1271</ele>
        <time>2022-08-17T13:09:18Z</time>
      </trkpt>
      <trkpt lat="45.62076" lon="2.8205">
        <ele>1271</ele>
        <time>2022-08-17T13:09:28Z</time>
      </trkpt>
      <trkpt lat="45.62076" lon="2.8205">
        <ele>1272</ele>
        <time>2022-08-17T13:09:38Z</time>
      </trkpt>
      <trkpt lat="45.62076" lon="2.8205">
        <ele>1272</ele>
        <time>2022-08-17T13:09:48Z</time>
      </trkpt>
      <trkpt lat="45.62076" lon="2.8205">
        <ele>1271</ele>
        <time>2022-08-17T13:09:58Z</time>
      </trkpt>
      <trkpt lat="45.62076" lon="2.8205">
        <ele>1272</ele>
        <time>2022-08-17T13:10:08Z</time>
      </trkpt>
      <trkpt lat="45.62076" lon="2.8205">
        <ele>1272</ele>
        <time>2022-08-17T13:10:18Z</time>
      </trkpt>
      <trkpt lat="45.62084" lon="2.82048">
        <ele>1272</ele>
        <time>2022-08-17T13:10:26Z</time>
      </trkpt>
      <trkpt lat="45.62084" lon="2.82048">
        <ele>1272</ele>
        <time>2022-08-17T13:10:28Z</time>
      </trkpt>
      <trkpt lat="45.62084" lon="2.82048">
        <ele>1272</ele>
        <time>2022-08-17T13:10:38Z</time>
      </trkpt>
      <trkpt lat="45.62084" lon="2.82048">
        <ele>1271</ele>
        <time>2022-08-17T13:10:48Z</time>
      </trkpt>
      <trkpt lat="45.62084" lon="2.82048">
        <ele>1271</ele>
        <time>2022-08-17T13:10:58Z</time>
      </trkpt>
      <trkpt lat="45.62084" lon="2.82048">
        <ele>1271</ele>
        <time>2022-08-17T13:11:08Z</time>
      </trkpt>
      <trkpt lat="45.62084" lon="2.82048">
        <ele>1272</ele>
        <time>2022-08-17T13:11:18Z</time>
      </trkpt>
      <trkpt lat="45.62084" lon="2.82048">
        <ele>1272</ele>
        <time>2022-08-17T13:11:28Z</time>
      </trkpt>
      <trkpt lat="45.62084" lon="2.82048">
        <ele>1272</ele>
        <time>2022-08-17T13:11:38Z</time>
      </trkpt>
      <trkpt lat="45.62084" lon="2.82048">
        <ele>1272</ele>
        <time>2022-08-17T13:11:48Z</time>
      </trkpt>
      <trkpt lat="45.62084" lon="2.82048">
        <ele>1272</ele>
        <time>2022-08-17T13:11:58Z</time>
      </trkpt>
      <trkpt lat="45.62084" lon="2.82048">
        <ele>1272</ele>
        <time>2022-08-17T13:12:08Z</time>
      </trkpt>
      <trkpt lat="45.62087" lon="2.82054">
        <ele>1272</ele>
        <time>2022-08-17T13:12:10Z</time>
      </trkpt>
      <trkpt lat="45.62087" lon="2.82054">
        <ele>1272</ele>
        <time>2022-08-17T13:12:18Z</time>
      </trkpt>
      <trkpt lat="45.62087" lon="2.82054">
        <ele>1272</ele>
        <time>2022-08-17T13:12:28Z</time>
      </trkpt>
      <trkpt lat="45.62087" lon="2.82054">
        <ele>1272</ele>
        <time>2022-08-17T13:12:38Z</time>
      </trkpt>
      <trkpt lat="45.62087" lon="2.82054">
        <ele>1272</ele>
        <time>2022-08-17T13:12:48Z</time>
      </trkpt>
      <trkpt lat="45.62087" lon="2.82054">
        <ele>1273</ele>
        <time>2022-08-17T13:12:58Z</time>
      </trkpt>
      <trkpt lat="45.62087" lon="2.82054">
        <ele>1273</ele>
        <time>2022-08-17T13:13:08Z</time>
      </trkpt>
      <trkpt lat="45.62087" lon="2.82054">
        <ele>1273</ele>
        <time>2022-08-17T13:13:18Z</time>
      </trkpt>
      <trkpt lat="45.62087" lon="2.82054">
        <ele>1273</ele>
        <time>2022-08-17T13:13:28Z</time>
      </trkpt>
      <trkpt lat="45.62087" lon="2.82054">
        <ele>1273</ele>
        <time>2022-08-17T13:13:38Z</time>
      </trkpt>
      <trkpt lat="45.62087" lon="2.82054">
        <ele>1273</ele>
        <time>2022-08-17T13:13:48Z</time>
      </trkpt>
      <trkpt lat="45.62087" lon="2.82054">
        <ele>1273</ele>
        <time>2022-08-17T13:13:58Z</time>
      </trkpt>
      <trkpt lat="45.62087" lon="2.82054">
        <ele>1273</ele>
        <time>2022-08-17T13:14:08Z</time>
      </trkpt>
      <trkpt lat="45.62087" lon="2.82054">
        <ele>1274</ele>
        <time>2022-08-17T13:14:18Z</time>
      </trkpt>
      <trkpt lat="45.62087" lon="2.82054">
        <ele>1274</ele>
        <time>2022-08-17T13:14:28Z</time>
      </trkpt>
      <trkpt lat="45.62087" lon="2.82054">
        <ele>1274</ele>
        <time>2022-08-17T13:14:38Z</time>
      </trkpt>
      <trkpt lat="45.62087" lon="2.82054">
        <ele>1274</ele>
        <time>2022-08-17T13:14:48Z</time>
      </trkpt>
      <trkpt lat="45.62087" lon="2.82054">
        <ele>1274</ele>
        <time>2022-08-17T13:14:58Z</time>
      </trkpt>
      <trkpt lat="45.62087" lon="2.82054">
        <ele>1274</ele>
        <time>2022-08-17T13:15:08Z</time>
      </trkpt>
      <trkpt lat="45.62087" lon="2.82054">
        <ele>1274</ele>
        <time>2022-08-17T13:15:18Z</time>
      </trkpt>
      <trkpt lat="45.62087" lon="2.82054">
        <ele>1275</ele>
        <time>2022-08-17T13:15:28Z</time>
      </trkpt>
      <trkpt lat="45.62087" lon="2.82054">
        <ele>1275</ele>
        <time>2022-08-17T13:15:38Z</time>
      </trkpt>
      <trkpt lat="45.62087" lon="2.82054">
        <ele>1274</ele>
        <time>2022-08-17T13:15:48Z</time>
      </trkpt>
      <trkpt lat="45.62087" lon="2.82054">
        <ele>1274</ele>
        <time>2022-08-17T13:15:58Z</time>
      </trkpt>
      <trkpt lat="45.62087" lon="2.82054">
        <ele>1273</ele>
        <time>2022-08-17T13:16:08Z</time>
      </trkpt>
      <trkpt lat="45.62087" lon="2.82054">
        <ele>1275</ele>
        <time>2022-08-17T13:16:18Z</time>
      </trkpt>
      <trkpt lat="45.62087" lon="2.82054">
        <ele>1274</ele>
        <time>2022-08-17T13:16:28Z</time>
      </trkpt>
      <trkpt lat="45.62082" lon="2.82066">
        <ele>1274</ele>
        <time>2022-08-17T13:16:36Z</time>
      </trkpt>
      <trkpt lat="45.62082" lon="2.82066">
        <ele>1273</ele>
        <time>2022-08-17T13:16:38Z</time>
      </trkpt>
      <trkpt lat="45.62082" lon="2.82066">
        <ele>1274</ele>
        <time>2022-08-17T13:16:48Z</time>
      </trkpt>
      <trkpt lat="45.62082" lon="2.82066">
        <ele>1274</ele>
        <time>2022-08-17T13:16:58Z</time>
      </trkpt>
      <trkpt lat="45.62082" lon="2.82066">
        <ele>1273</ele>
        <time>2022-08-17T13:17:08Z</time>
      </trkpt>
      <trkpt lat="45.62082" lon="2.82066">
        <ele>1273</ele>
        <time>2022-08-17T13:17:18Z</time>
      </trkpt>
      <trkpt lat="45.62082" lon="2.82066">
        <ele>1273</ele>
        <time>2022-08-17T13:17:28Z</time>
      </trkpt>
      <trkpt lat="45.62092" lon="2.82063">
        <ele>1273</ele>
        <time>2022-08-17T13:17:32Z</time>
      </trkpt>
      <trkpt lat="45.62092" lon="2.82063">
        <ele>1274</ele>
        <time>2022-08-17T13:17:38Z</time>
      </trkpt>
      <trkpt lat="45.62092" lon="2.82063">
        <ele>1274</ele>
        <time>2022-08-17T13:17:48Z</time>
      </trkpt>
      <trkpt lat="45.62092" lon="2.82063">
        <ele>1273</ele>
        <time>2022-08-17T13:17:58Z</time>
      </trkpt>
      <trkpt lat="45.62092" lon="2.82063">
        <ele>1273</ele>
        <time>2022-08-17T13:18:08Z</time>
      </trkpt>
      <trkpt lat="45.62092" lon="2.82063">
        <ele>1273</ele>
        <time>2022-08-17T13:18:18Z</time>
      </trkpt>
      <trkpt lat="45.62092" lon="2.82063">
        <ele>1273</ele>
        <time>2022-08-17T13:18:28Z</time>
      </trkpt>
      <trkpt lat="45.62092" lon="2.82063">
        <ele>1274</ele>
        <time>2022-08-17T13:18:38Z</time>
      </trkpt>
      <trkpt lat="45.62092" lon="2.82063">
        <ele>1275</ele>
        <time>2022-08-17T13:18:48Z</time>
      </trkpt>
      <trkpt lat="45.62089" lon="2.82052">
        <ele>1275</ele>
        <time>2022-08-17T13:18:49Z</time>
      </trkpt>
      <trkpt lat="45.62089" lon="2.82052">
        <ele>1274</ele>
        <time>2022-08-17T13:18:58Z</time>
      </trkpt>
      <trkpt lat="45.62089" lon="2.82052">
        <ele>1273</ele>
        <time>2022-08-17T13:19:08Z</time>
      </trkpt>
      <trkpt lat="45.62089" lon="2.82052">
        <ele>1274</ele>
        <time>2022-08-17T13:19:18Z</time>
      </trkpt>
      <trkpt lat="45.62089" lon="2.82052">
        <ele>1274</ele>
        <time>2022-08-17T13:19:28Z</time>
      </trkpt>
      <trkpt lat="45.62089" lon="2.82052">
        <ele>1273</ele>
        <time>2022-08-17T13:19:38Z</time>
      </trkpt>
      <trkpt lat="45.62089" lon="2.82052">
        <ele>1273</ele>
        <time>2022-08-17T13:19:48Z</time>
      </trkpt>
      <trkpt lat="45.62089" lon="2.82052">
        <ele>1273</ele>
        <time>2022-08-17T13:19:58Z</time>
      </trkpt>
      <trkpt lat="45.62089" lon="2.82052">
        <ele>1273</ele>
        <time>2022-08-17T13:20:08Z</time>
      </trkpt>
      <trkpt lat="45.62089" lon="2.82052">
        <ele>1273</ele>
        <time>2022-08-17T13:20:18Z</time>
      </trkpt>
      <trkpt lat="45.62089" lon="2.82052">
        <ele>1273</ele>
        <time>2022-08-17T13:20:28Z</time>
      </trkpt>
      <trkpt lat="45.62089" lon="2.82052">
        <ele>1273</ele>
        <time>2022-08-17T13:20:38Z</time>
      </trkpt>
      <trkpt lat="45.62089" lon="2.82052">
        <ele>1273</ele>
        <time>2022-08-17T13:20:48Z</time>
      </trkpt>
      <trkpt lat="45.62089" lon="2.82052">
        <ele>1273</ele>
        <time>2022-08-17T13:20:58Z</time>
      </trkpt>
      <trkpt lat="45.62089" lon="2.82052">
        <ele>1273</ele>
        <time>2022-08-17T13:21:08Z</time>
      </trkpt>
      <trkpt lat="45.62089" lon="2.82052">
        <ele>1273</ele>
        <time>2022-08-17T13:21:18Z</time>
      </trkpt>
      <trkpt lat="45.62089" lon="2.82052">
        <ele>1273</ele>
        <time>2022-08-17T13:21:28Z</time>
      </trkpt>
      <trkpt lat="45.62089" lon="2.82052">
        <ele>1273</ele>
        <time>2022-08-17T13:21:38Z</time>
      </trkpt>
      <trkpt lat="45.62089" lon="2.82052">
        <ele>1273</ele>
        <time>2022-08-17T13:21:48Z</time>
      </trkpt>
      <trkpt lat="45.62089" lon="2.82052">
        <ele>1273</ele>
        <time>2022-08-17T13:21:58Z</time>
      </trkpt>
      <trkpt lat="45.62089" lon="2.82052">
        <ele>1273</ele>
        <time>2022-08-17T13:22:08Z</time>
      </trkpt>
      <trkpt lat="45.62083" lon="2.82064">
        <ele>1273</ele>
        <time>2022-08-17T13:22:16Z</time>
      </trkpt>
      <trkpt lat="45.62083" lon="2.82064">
        <ele>1273</ele>
        <time>2022-08-17T13:22:18Z</time>
      </trkpt>
      <trkpt lat="45.62083" lon="2.82064">
        <ele>1273</ele>
        <time>2022-08-17T13:22:28Z</time>
      </trkpt>
      <trkpt lat="45.62083" lon="2.82064">
        <ele>1273</ele>
        <time>2022-08-17T13:22:38Z</time>
      </trkpt>
      <trkpt lat="45.62083" lon="2.82064">
        <ele>1273</ele>
        <time>2022-08-17T13:22:48Z</time>
      </trkpt>
      <trkpt lat="45.62091" lon="2.82055">
        <ele>1273</ele>
        <time>2022-08-17T13:22:53Z</time>
      </trkpt>
      <trkpt lat="45.62091" lon="2.82055">
        <ele>1273</ele>
        <time>2022-08-17T13:22:58Z</time>
      </trkpt>
      <trkpt lat="45.62091" lon="2.82055">
        <ele>1273</ele>
        <time>2022-08-17T13:23:08Z</time>
      </trkpt>
      <trkpt lat="45.6209" lon="2.82064">
        <ele>1273</ele>
        <time>2022-08-17T13:23:18Z</time>
      </trkpt>
      <trkpt lat="45.62085" lon="2.82068">
        <ele>1273</ele>
        <time>2022-08-17T13:23:24Z</time>
      </trkpt>
      <trkpt lat="45.62085" lon="2.82068">
        <ele>1273</ele>
        <time>2022-08-17T13:23:28Z</time>
      </trkpt>
      <trkpt lat="45.62089" lon="2.82074">
        <ele>1273</ele>
        <time>2022-08-17T13:23:34Z</time>
      </trkpt>
      <trkpt lat="45.62095" lon="2.82073">
        <ele>1273</ele>
        <time>2022-08-17T13:23:36Z</time>
      </trkpt>
      <trkpt lat="45.62095" lon="2.82073">
        <ele>1273</ele>
        <time>2022-08-17T13:23:38Z</time>
      </trkpt>
      <trkpt lat="45.6211" lon="2.82073">
        <ele>1273</ele>
        <time>2022-08-17T13:23:39Z</time>
      </trkpt>
      <trkpt lat="45.62115" lon="2.82074">
        <ele>1273</ele>
        <time>2022-08-17T13:23:41Z</time>
      </trkpt>
      <trkpt lat="45.62121" lon="2.82074">
        <ele>1273</ele>
        <time>2022-08-17T13:23:43Z</time>
      </trkpt>
      <trkpt lat="45.62126" lon="2.82075">
        <ele>1273</ele>
        <time>2022-08-17T13:23:45Z</time>
      </trkpt>
      <trkpt lat="45.62132" lon="2.82075">
        <ele>1273</ele>
        <time>2022-08-17T13:23:47Z</time>
      </trkpt>
      <trkpt lat="45.62137" lon="2.82076">
        <ele>1273</ele>
        <time>2022-08-17T13:23:48Z</time>
      </trkpt>
      <trkpt lat="45.62146" lon="2.82077">
        <ele>1273</ele>
        <time>2022-08-17T13:23:49Z</time>
      </trkpt>
      <trkpt lat="45.62152" lon="2.82078">
        <ele>1273</ele>
        <time>2022-08-17T13:23:51Z</time>
      </trkpt>
      <trkpt lat="45.62157" lon="2.82079">
        <ele>1273</ele>
        <time>2022-08-17T13:23:53Z</time>
      </trkpt>
      <trkpt lat="45.62163" lon="2.82079">
        <ele>1273</ele>
        <time>2022-08-17T13:23:55Z</time>
      </trkpt>
      <trkpt lat="45.62169" lon="2.8208">
        <ele>1273</ele>
        <time>2022-08-17T13:23:57Z</time>
      </trkpt>
      <trkpt lat="45.62174" lon="2.82081">
        <ele>1273</ele>
        <time>2022-08-17T13:23:58Z</time>
      </trkpt>
      <trkpt lat="45.62182" lon="2.82083">
        <ele>1273</ele>
        <time>2022-08-17T13:23:59Z</time>
      </trkpt>
      <trkpt lat="45.62187" lon="2.82084">
        <ele>1273</ele>
        <time>2022-08-17T13:24:01Z</time>
      </trkpt>
      <trkpt lat="45.62192" lon="2.82086">
        <ele>1273</ele>
        <time>2022-08-17T13:24:03Z</time>
      </trkpt>
      <trkpt lat="45.62197" lon="2.82087">
        <ele>1273</ele>
        <time>2022-08-17T13:24:06Z</time>
      </trkpt>
      <trkpt lat="45.62202" lon="2.82089">
        <ele>1273</ele>
        <time>2022-08-17T13:24:08Z</time>
      </trkpt>
      <trkpt lat="45.62216" lon="2.82101">
        <ele>1273</ele>
        <time>2022-08-17T13:24:09Z</time>
      </trkpt>
      <trkpt lat="45.62221" lon="2.82108">
        <ele>1273</ele>
        <time>2022-08-17T13:24:11Z</time>
      </trkpt>
      <trkpt lat="45.62225" lon="2.82115">
        <ele>1273</ele>
        <time>2022-08-17T13:24:14Z</time>
      </trkpt>
      <trkpt lat="45.6223" lon="2.82121">
        <ele>1273</ele>
        <time>2022-08-17T13:24:17Z</time>
      </trkpt>
      <trkpt lat="45.62235" lon="2.82128">
        <ele>1273</ele>
        <time>2022-08-17T13:24:18Z</time>
      </trkpt>
      <trkpt lat="45.62242" lon="2.82151">
        <ele>1273</ele>
        <time>2022-08-17T13:24:20Z</time>
      </trkpt>
      <trkpt lat="45.62246" lon="2.82163">
        <ele>1273</ele>
        <time>2022-08-17T13:24:23Z</time>
      </trkpt>
      <trkpt lat="45.6225" lon="2.82175">
        <ele>1273</ele>
        <time>2022-08-17T13:24:25Z</time>
      </trkpt>
      <trkpt lat="45.62254" lon="2.82187">
        <ele>1273</ele>
        <time>2022-08-17T13:24:28Z</time>
      </trkpt>
      <trkpt lat="45.62261" lon="2.82208">
        <ele>1273</ele>
        <time>2022-08-17T13:24:30Z</time>
      </trkpt>
      <trkpt lat="45.62263" lon="2.82215">
        <ele>1273</ele>
        <time>2022-08-17T13:24:32Z</time>
      </trkpt>
      <trkpt lat="45.62266" lon="2.82222">
        <ele>1273</ele>
        <time>2022-08-17T13:24:33Z</time>
      </trkpt>
      <trkpt lat="45.62268" lon="2.82229">
        <ele>1273</ele>
        <time>2022-08-17T13:24:34Z</time>
      </trkpt>
      <trkpt lat="45.62271" lon="2.82237">
        <ele>1273</ele>
        <time>2022-08-17T13:24:35Z</time>
      </trkpt>
      <trkpt lat="45.62273" lon="2.82244">
        <ele>1273</ele>
        <time>2022-08-17T13:24:36Z</time>
      </trkpt>
      <trkpt lat="45.62276" lon="2.82251">
        <ele>1273</ele>
        <time>2022-08-17T13:24:37Z</time>
      </trkpt>
      <trkpt lat="45.62278" lon="2.82259">
        <ele>1273</ele>
        <time>2022-08-17T13:24:38Z</time>
      </trkpt>
      <trkpt lat="45.62287" lon="2.82268">
        <ele>1273</ele>
        <time>2022-08-17T13:24:39Z</time>
      </trkpt>
      <trkpt lat="45.62292" lon="2.8227">
        <ele>1273</ele>
        <time>2022-08-17T13:24:40Z</time>
      </trkpt>
      <trkpt lat="45.62298" lon="2.82273">
        <ele>1273</ele>
        <time>2022-08-17T13:24:41Z</time>
      </trkpt>
      <trkpt lat="45.62303" lon="2.82275">
        <ele>1273</ele>
        <time>2022-08-17T13:24:42Z</time>
      </trkpt>
      <trkpt lat="45.62309" lon="2.82277">
        <ele>1273</ele>
        <time>2022-08-17T13:24:43Z</time>
      </trkpt>
      <trkpt lat="45.62314" lon="2.82279">
        <ele>1273</ele>
        <time>2022-08-17T13:24:44Z</time>
      </trkpt>
      <trkpt lat="45.6232" lon="2.82281">
        <ele>1273</ele>
        <time>2022-08-17T13:24:45Z</time>
      </trkpt>
      <trkpt lat="45.62325" lon="2.82284">
        <ele>1273</ele>
        <time>2022-08-17T13:24:46Z</time>
      </trkpt>
      <trkpt lat="45.62331" lon="2.82286">
        <ele>1273</ele>
        <time>2022-08-17T13:24:47Z</time>
      </trkpt>
      <trkpt lat="45.62336" lon="2.82288">
        <ele>1273</ele>
        <time>2022-08-17T13:24:48Z</time>
      </trkpt>
      <trkpt lat="45.62353" lon="2.82296">
        <ele>1273</ele>
        <time>2022-08-17T13:24:49Z</time>
      </trkpt>
      <trkpt lat="45.62363" lon="2.82303">
        <ele>1273</ele>
        <time>2022-08-17T13:24:50Z</time>
      </trkpt>
      <trkpt lat="45.62372" lon="2.8231">
        <ele>1273</ele>
        <time>2022-08-17T13:24:51Z</time>
      </trkpt>
      <trkpt lat="45.62381" lon="2.82317">
        <ele>1273</ele>
        <time>2022-08-17T13:24:53Z</time>
      </trkpt>
      <trkpt lat="45.62391" lon="2.82323">
        <ele>1273</ele>
        <time>2022-08-17T13:24:55Z</time>
      </trkpt>
      <trkpt lat="45.624" lon="2.8233">
        <ele>1273</ele>
        <time>2022-08-17T13:24:57Z</time>
      </trkpt>
      <trkpt lat="45.62409" lon="2.82337">
        <ele>1273</ele>
        <time>2022-08-17T13:24:58Z</time>
      </trkpt>
      <trkpt lat="45.62424" lon="2.82355">
        <ele>1273</ele>
        <time>2022-08-17T13:24:59Z</time>
      </trkpt>
      <trkpt lat="45.62434" lon="2.82365">
        <ele>1273</ele>
        <time>2022-08-17T13:25:01Z</time>
      </trkpt>
      <trkpt lat="45.62443" lon="2.82374">
        <ele>1273</ele>
        <time>2022-08-17T13:25:03Z</time>
      </trkpt>
      <trkpt lat="45.62452" lon="2.82384">
        <ele>1273</ele>
        <time>2022-08-17T13:25:05Z</time>
      </trkpt>
      <trkpt lat="45.62461" lon="2.82394">
        <ele>1273</ele>
        <time>2022-08-17T13:25:07Z</time>
      </trkpt>
      <trkpt lat="45.62471" lon="2.82404">
        <ele>1273</ele>
        <time>2022-08-17T13:25:08Z</time>
      </trkpt>
      <trkpt lat="45.62486" lon="2.8242">
        <ele>1273</ele>
        <time>2022-08-17T13:25:09Z</time>
      </trkpt>
      <trkpt lat="45.62495" lon="2.82429">
        <ele>1273</ele>
        <time>2022-08-17T13:25:11Z</time>
      </trkpt>
      <trkpt lat="45.62504" lon="2.82439">
        <ele>1273</ele>
        <time>2022-08-17T13:25:13Z</time>
      </trkpt>
      <trkpt lat="45.62513" lon="2.82449">
        <ele>1273</ele>
        <time>2022-08-17T13:25:15Z</time>
      </trkpt>
      <trkpt lat="45.62522" lon="2.82458">
        <ele>1273</ele>
        <time>2022-08-17T13:25:17Z</time>
      </trkpt>
      <trkpt lat="45.62531" lon="2.82468">
        <ele>1273</ele>
        <time>2022-08-17T13:25:18Z</time>
      </trkpt>
      <trkpt lat="45.62547" lon="2.82484">
        <ele>1273</ele>
        <time>2022-08-17T13:25:19Z</time>
      </trkpt>
      <trkpt lat="45.62555" lon="2.82496">
        <ele>1273</ele>
        <time>2022-08-17T13:25:21Z</time>
      </trkpt>
      <trkpt lat="45.62564" lon="2.82508">
        <ele>1273</ele>
        <time>2022-08-17T13:25:23Z</time>
      </trkpt>
      <trkpt lat="45.62573" lon="2.8252">
        <ele>1273</ele>
        <time>2022-08-17T13:25:25Z</time>
      </trkpt>
      <trkpt lat="45.62581" lon="2.82531">
        <ele>1273</ele>
        <time>2022-08-17T13:25:27Z</time>
      </trkpt>
      <trkpt lat="45.6259" lon="2.82543">
        <ele>1273</ele>
        <time>2022-08-17T13:25:28Z</time>
      </trkpt>
      <trkpt lat="45.62594" lon="2.82555">
        <ele>1273</ele>
        <time>2022-08-17T13:25:29Z</time>
      </trkpt>
      <trkpt lat="45.62603" lon="2.82579">
        <ele>1273</ele>
        <time>2022-08-17T13:25:31Z</time>
      </trkpt>
      <trkpt lat="45.6261" lon="2.82604">
        <ele>1273</ele>
        <time>2022-08-17T13:25:33Z</time>
      </trkpt>
      <trkpt lat="45.62617" lon="2.82629">
        <ele>1273</ele>
        <time>2022-08-17T13:25:35Z</time>
      </trkpt>
      <trkpt lat="45.62624" lon="2.82654">
        <ele>1273</ele>
        <time>2022-08-17T13:25:37Z</time>
      </trkpt>
      <trkpt lat="45.62627" lon="2.82666">
        <ele>1264</ele>
        <time>2022-08-17T13:25:38Z</time>
      </trkpt>
      <trkpt lat="45.6264" lon="2.82676">
        <ele>1264</ele>
        <time>2022-08-17T13:25:39Z</time>
      </trkpt>
      <trkpt lat="45.62649" lon="2.82673">
        <ele>1264</ele>
        <time>2022-08-17T13:25:41Z</time>
      </trkpt>
      <trkpt lat="45.62659" lon="2.82671">
        <ele>1264</ele>
        <time>2022-08-17T13:25:43Z</time>
      </trkpt>
      <trkpt lat="45.62668" lon="2.82668">
        <ele>1264</ele>
        <time>2022-08-17T13:25:45Z</time>
      </trkpt>
      <trkpt lat="45.62678" lon="2.82666">
        <ele>1264</ele>
        <time>2022-08-17T13:25:46Z</time>
      </trkpt>
      <trkpt lat="45.62687" lon="2.82663">
        <ele>1261</ele>
        <time>2022-08-17T13:25:48Z</time>
      </trkpt>
      <trkpt lat="45.62712" lon="2.8263">
        <ele>1261</ele>
        <time>2022-08-17T13:25:51Z</time>
      </trkpt>
      <trkpt lat="45.62722" lon="2.82616">
        <ele>1261</ele>
        <time>2022-08-17T13:25:52Z</time>
      </trkpt>
      <trkpt lat="45.62733" lon="2.82603">
        <ele>1261</ele>
        <time>2022-08-17T13:25:54Z</time>
      </trkpt>
      <trkpt lat="45.62743" lon="2.82589">
        <ele>1261</ele>
        <time>2022-08-17T13:25:56Z</time>
      </trkpt>
      <trkpt lat="45.62754" lon="2.82576">
        <ele>1260</ele>
        <time>2022-08-17T13:25:58Z</time>
      </trkpt>
      <trkpt lat="45.62781" lon="2.82557">
        <ele>1260</ele>
        <time>2022-08-17T13:26:00Z</time>
      </trkpt>
      <trkpt lat="45.62794" lon="2.82553">
        <ele>1260</ele>
        <time>2022-08-17T13:26:02Z</time>
      </trkpt>
      <trkpt lat="45.62808" lon="2.8255">
        <ele>1260</ele>
        <time>2022-08-17T13:26:04Z</time>
      </trkpt>
      <trkpt lat="45.62821" lon="2.82546">
        <ele>1260</ele>
        <time>2022-08-17T13:26:06Z</time>
      </trkpt>
      <trkpt lat="45.62834" lon="2.82542">
        <ele>1255</ele>
        <time>2022-08-17T13:26:08Z</time>
      </trkpt>
      <trkpt lat="45.62864" lon="2.82551">
        <ele>1255</ele>
        <time>2022-08-17T13:26:10Z</time>
      </trkpt>
      <trkpt lat="45.62877" lon="2.82561">
        <ele>1255</ele>
        <time>2022-08-17T13:26:12Z</time>
      </trkpt>
      <trkpt lat="45.62889" lon="2.82571">
        <ele>1255</ele>
        <time>2022-08-17T13:26:14Z</time>
      </trkpt>
      <trkpt lat="45.62902" lon="2.8258">
        <ele>1255</ele>
        <time>2022-08-17T13:26:16Z</time>
      </trkpt>
      <trkpt lat="45.62914" lon="2.8259">
        <ele>1253</ele>
        <time>2022-08-17T13:26:18Z</time>
      </trkpt>
      <trkpt lat="45.62944" lon="2.82592">
        <ele>1253</ele>
        <time>2022-08-17T13:26:20Z</time>
      </trkpt>
      <trkpt lat="45.62958" lon="2.82589">
        <ele>1253</ele>
        <time>2022-08-17T13:26:22Z</time>
      </trkpt>
      <trkpt lat="45.62971" lon="2.82585">
        <ele>1253</ele>
        <time>2022-08-17T13:26:24Z</time>
      </trkpt>
      <trkpt lat="45.62985" lon="2.82581">
        <ele>1253</ele>
        <time>2022-08-17T13:26:26Z</time>
      </trkpt>
      <trkpt lat="45.62999" lon="2.82577">
        <ele>1250</ele>
        <time>2022-08-17T13:26:28Z</time>
      </trkpt>
      <trkpt lat="45.63026" lon="2.82568">
        <ele>1250</ele>
        <time>2022-08-17T13:26:30Z</time>
      </trkpt>
      <trkpt lat="45.63037" lon="2.82556">
        <ele>1250</ele>
        <time>2022-08-17T13:26:32Z</time>
      </trkpt>
      <trkpt lat="45.63047" lon="2.82544">
        <ele>1250</ele>
        <time>2022-08-17T13:26:34Z</time>
      </trkpt>
      <trkpt lat="45.63058" lon="2.82532">
        <ele>1250</ele>
        <time>2022-08-17T13:26:36Z</time>
      </trkpt>
      <trkpt lat="45.63068" lon="2.82519">
        <ele>1249</ele>
        <time>2022-08-17T13:26:38Z</time>
      </trkpt>
      <trkpt lat="45.63105" lon="2.82509">
        <ele>1249</ele>
        <time>2022-08-17T13:26:41Z</time>
      </trkpt>
      <trkpt lat="45.6312" lon="2.82505">
        <ele>1249</ele>
        <time>2022-08-17T13:26:42Z</time>
      </trkpt>
      <trkpt lat="45.63134" lon="2.82502">
        <ele>1249</ele>
        <time>2022-08-17T13:26:44Z</time>
      </trkpt>
      <trkpt lat="45.63149" lon="2.82499">
        <ele>1249</ele>
        <time>2022-08-17T13:26:46Z</time>
      </trkpt>
      <trkpt lat="45.63164" lon="2.82495">
        <ele>1244</ele>
        <time>2022-08-17T13:26:48Z</time>
      </trkpt>
      <trkpt lat="45.63192" lon="2.82498">
        <ele>1244</ele>
        <time>2022-08-17T13:26:50Z</time>
      </trkpt>
      <trkpt lat="45.63202" lon="2.82505">
        <ele>1244</ele>
        <time>2022-08-17T13:26:52Z</time>
      </trkpt>
      <trkpt lat="45.63213" lon="2.82512">
        <ele>1244</ele>
        <time>2022-08-17T13:26:54Z</time>
      </trkpt>
      <trkpt lat="45.63223" lon="2.8252">
        <ele>1244</ele>
        <time>2022-08-17T13:26:56Z</time>
      </trkpt>
      <trkpt lat="45.63233" lon="2.82527">
        <ele>1242</ele>
        <time>2022-08-17T13:26:58Z</time>
      </trkpt>
      <trkpt lat="45.63235" lon="2.82566">
        <ele>1242</ele>
        <time>2022-08-17T13:27:00Z</time>
      </trkpt>
      <trkpt lat="45.63237" lon="2.82581">
        <ele>1242</ele>
        <time>2022-08-17T13:27:02Z</time>
      </trkpt>
      <trkpt lat="45.6324" lon="2.82597">
        <ele>1242</ele>
        <time>2022-08-17T13:27:04Z</time>
      </trkpt>
      <trkpt lat="45.63242" lon="2.82612">
        <ele>1242</ele>
        <time>2022-08-17T13:27:06Z</time>
      </trkpt>
      <trkpt lat="45.63244" lon="2.82627">
        <ele>1242</ele>
        <time>2022-08-17T13:27:08Z</time>
      </trkpt>
      <trkpt lat="45.63258" lon="2.82649">
        <ele>1242</ele>
        <time>2022-08-17T13:27:10Z</time>
      </trkpt>
      <trkpt lat="45.63266" lon="2.82655">
        <ele>1242</ele>
        <time>2022-08-17T13:27:12Z</time>
      </trkpt>
      <trkpt lat="45.63274" lon="2.82662">
        <ele>1242</ele>
        <time>2022-08-17T13:27:14Z</time>
      </trkpt>
      <trkpt lat="45.63281" lon="2.82668">
        <ele>1242</ele>
        <time>2022-08-17T13:27:16Z</time>
      </trkpt>
      <trkpt lat="45.63289" lon="2.82675">
        <ele>1244</ele>
        <time>2022-08-17T13:27:18Z</time>
      </trkpt>
      <trkpt lat="45.63308" lon="2.8268">
        <ele>1244</ele>
        <time>2022-08-17T13:27:20Z</time>
      </trkpt>
      <trkpt lat="45.63317" lon="2.82679">
        <ele>1244</ele>
        <time>2022-08-17T13:27:22Z</time>
      </trkpt>
      <trkpt lat="45.63325" lon="2.82677">
        <ele>1244</ele>
        <time>2022-08-17T13:27:24Z</time>
      </trkpt>
      <trkpt lat="45.63334" lon="2.82676">
        <ele>1244</ele>
        <time>2022-08-17T13:27:26Z</time>
      </trkpt>
      <trkpt lat="45.63342" lon="2.82675">
        <ele>1246</ele>
        <time>2022-08-17T13:27:28Z</time>
      </trkpt>
      <trkpt lat="45.63364" lon="2.82668">
        <ele>1246</ele>
        <time>2022-08-17T13:27:31Z</time>
      </trkpt>
      <trkpt lat="45.63371" lon="2.82668">
        <ele>1246</ele>
        <time>2022-08-17T13:27:34Z</time>
      </trkpt>
      <trkpt lat="45.63379" lon="2.82668">
        <ele>1246</ele>
        <time>2022-08-17T13:27:37Z</time>
      </trkpt>
      <trkpt lat="45.63386" lon="2.82668">
        <ele>1248</ele>
        <time>2022-08-17T13:27:38Z</time>
      </trkpt>
      <trkpt lat="45.63401" lon="2.82669">
        <ele>1248</ele>
        <time>2022-08-17T13:27:40Z</time>
      </trkpt>
      <trkpt lat="45.63406" lon="2.8267">
        <ele>1248</ele>
        <time>2022-08-17T13:27:43Z</time>
      </trkpt>
      <trkpt lat="45.63412" lon="2.82671">
        <ele>1248</ele>
        <time>2022-08-17T13:27:46Z</time>
      </trkpt>
      <trkpt lat="45.63418" lon="2.82672">
        <ele>1250</ele>
        <time>2022-08-17T13:27:48Z</time>
      </trkpt>
      <trkpt lat="45.63429" lon="2.82676">
        <ele>1250</ele>
        <time>2022-08-17T13:27:49Z</time>
      </trkpt>
      <trkpt lat="45.63439" lon="2.82682">
        <ele>1250</ele>
        <time>2022-08-17T13:27:52Z</time>
      </trkpt>
      <trkpt lat="45.63448" lon="2.82688">
        <ele>1250</ele>
        <time>2022-08-17T13:27:55Z</time>
      </trkpt>
      <trkpt lat="45.63458" lon="2.82692">
        <ele>1252</ele>
        <time>2022-08-17T13:27:58Z</time>
      </trkpt>
      <trkpt lat="45.63469" lon="2.82699">
        <ele>1252</ele>
        <time>2022-08-17T13:28:02Z</time>
      </trkpt>
      <trkpt lat="45.63478" lon="2.82704">
        <ele>1252</ele>
        <time>2022-08-17T13:28:05Z</time>
      </trkpt>
      <trkpt lat="45.63488" lon="2.82706">
        <ele>1253</ele>
        <time>2022-08-17T13:28:08Z</time>
      </trkpt>
      <trkpt lat="45.63498" lon="2.82707">
        <ele>1253</ele>
        <time>2022-08-17T13:28:11Z</time>
      </trkpt>
      <trkpt lat="45.63509" lon="2.82709">
        <ele>1253</ele>
        <time>2022-08-17T13:28:15Z</time>
      </trkpt>
      <trkpt lat="45.63519" lon="2.82711">
        <ele>1255</ele>
        <time>2022-08-17T13:28:18Z</time>
      </trkpt>
      <trkpt lat="45.63535" lon="2.82713">
        <ele>1255</ele>
        <time>2022-08-17T13:28:22Z</time>
      </trkpt>
      <trkpt lat="45.63539" lon="2.82714">
        <ele>1255</ele>
        <time>2022-08-17T13:28:26Z</time>
      </trkpt>
      <trkpt lat="45.63544" lon="2.82714">
        <ele>1256</ele>
        <time>2022-08-17T13:28:28Z</time>
      </trkpt>
      <trkpt lat="45.63561" lon="2.82718">
        <ele>1256</ele>
        <time>2022-08-17T13:28:29Z</time>
      </trkpt>
      <trkpt lat="45.63568" lon="2.82719">
        <ele>1256</ele>
        <time>2022-08-17T13:28:32Z</time>
      </trkpt>
      <trkpt lat="45.63574" lon="2.82721">
        <ele>1256</ele>
        <time>2022-08-17T13:28:35Z</time>
      </trkpt>
      <trkpt lat="45.63581" lon="2.82722">
        <ele>1256</ele>
        <time>2022-08-17T13:28:37Z</time>
      </trkpt>
      <trkpt lat="45.63588" lon="2.82723">
        <ele>1257</ele>
        <time>2022-08-17T13:28:38Z</time>
      </trkpt>
      <trkpt lat="45.63598" lon="2.82726">
        <ele>1257</ele>
        <time>2022-08-17T13:28:39Z</time>
      </trkpt>
      <trkpt lat="45.63604" lon="2.82727">
        <ele>1257</ele>
        <time>2022-08-17T13:28:42Z</time>
      </trkpt>
      <trkpt lat="45.63611" lon="2.82728">
        <ele>1257</ele>
        <time>2022-08-17T13:28:44Z</time>
      </trkpt>
      <trkpt lat="45.63617" lon="2.8273">
        <ele>1257</ele>
        <time>2022-08-17T13:28:46Z</time>
      </trkpt>
      <trkpt lat="45.63624" lon="2.82731">
        <ele>1259</ele>
        <time>2022-08-17T13:28:48Z</time>
      </trkpt>
      <trkpt lat="45.63636" lon="2.82736">
        <ele>1259</ele>
        <time>2022-08-17T13:28:50Z</time>
      </trkpt>
      <trkpt lat="45.63642" lon="2.82739">
        <ele>1259</ele>
        <time>2022-08-17T13:28:53Z</time>
      </trkpt>
      <trkpt lat="45.63647" lon="2.82742">
        <ele>1259</ele>
        <time>2022-08-17T13:28:55Z</time>
      </trkpt>
      <trkpt lat="45.63653" lon="2.82745">
        <ele>1259</ele>
        <time>2022-08-17T13:28:57Z</time>
      </trkpt>
      <trkpt lat="45.63658" lon="2.82748">
        <ele>1261</ele>
        <time>2022-08-17T13:28:58Z</time>
      </trkpt>
      <trkpt lat="45.63667" lon="2.82753">
        <ele>1261</ele>
        <time>2022-08-17T13:28:59Z</time>
      </trkpt>
      <trkpt lat="45.63672" lon="2.82757">
        <ele>1261</ele>
        <time>2022-08-17T13:29:01Z</time>
      </trkpt>
      <trkpt lat="45.63676" lon="2.82761">
        <ele>1261</ele>
        <time>2022-08-17T13:29:03Z</time>
      </trkpt>
      <trkpt lat="45.63681" lon="2.82764">
        <ele>1261</ele>
        <time>2022-08-17T13:29:05Z</time>
      </trkpt>
      <trkpt lat="45.63686" lon="2.82768">
        <ele>1261</ele>
        <time>2022-08-17T13:29:07Z</time>
      </trkpt>
      <trkpt lat="45.63691" lon="2.82771">
        <ele>1261</ele>
        <time>2022-08-17T13:29:08Z</time>
      </trkpt>
      <trkpt lat="45.63704" lon="2.8278">
        <ele>1261</ele>
        <time>2022-08-17T13:29:10Z</time>
      </trkpt>
      <trkpt lat="45.63709" lon="2.82784">
        <ele>1261</ele>
        <time>2022-08-17T13:29:13Z</time>
      </trkpt>
      <trkpt lat="45.63715" lon="2.82788">
        <ele>1261</ele>
        <time>2022-08-17T13:29:15Z</time>
      </trkpt>
      <trkpt lat="45.63721" lon="2.82792">
        <ele>1261</ele>
        <time>2022-08-17T13:29:17Z</time>
      </trkpt>
      <trkpt lat="45.63726" lon="2.82796">
        <ele>1263</ele>
        <time>2022-08-17T13:29:18Z</time>
      </trkpt>
      <trkpt lat="45.63735" lon="2.82804">
        <ele>1263</ele>
        <time>2022-08-17T13:29:19Z</time>
      </trkpt>
      <trkpt lat="45.6374" lon="2.82809">
        <ele>1263</ele>
        <time>2022-08-17T13:29:21Z</time>
      </trkpt>
      <trkpt lat="45.63745" lon="2.82814">
        <ele>1263</ele>
        <time>2022-08-17T13:29:23Z</time>
      </trkpt>
      <trkpt lat="45.6375" lon="2.82819">
        <ele>1263</ele>
        <time>2022-08-17T13:29:25Z</time>
      </trkpt>
      <trkpt lat="45.63756" lon="2.82824">
        <ele>1263</ele>
        <time>2022-08-17T13:29:27Z</time>
      </trkpt>
      <trkpt lat="45.63761" lon="2.82829">
        <ele>1264</ele>
        <time>2022-08-17T13:29:28Z</time>
      </trkpt>
      <trkpt lat="45.63769" lon="2.82839">
        <ele>1264</ele>
        <time>2022-08-17T13:29:29Z</time>
      </trkpt>
      <trkpt lat="45.63774" lon="2.82846">
        <ele>1264</ele>
        <time>2022-08-17T13:29:31Z</time>
      </trkpt>
      <trkpt lat="45.63778" lon="2.82853">
        <ele>1264</ele>
        <time>2022-08-17T13:29:33Z</time>
      </trkpt>
      <trkpt lat="45.63783" lon="2.8286">
        <ele>1264</ele>
        <time>2022-08-17T13:29:35Z</time>
      </trkpt>
      <trkpt lat="45.63788" lon="2.82867">
        <ele>1264</ele>
        <time>2022-08-17T13:29:37Z</time>
      </trkpt>
      <trkpt lat="45.63793" lon="2.82874">
        <ele>1266</ele>
        <time>2022-08-17T13:29:38Z</time>
      </trkpt>
      <trkpt lat="45.63798" lon="2.82889">
        <ele>1266</ele>
        <time>2022-08-17T13:29:39Z</time>
      </trkpt>
      <trkpt lat="45.63801" lon="2.82897">
        <ele>1266</ele>
        <time>2022-08-17T13:29:41Z</time>
      </trkpt>
      <trkpt lat="45.63803" lon="2.82905">
        <ele>1266</ele>
        <time>2022-08-17T13:29:42Z</time>
      </trkpt>
      <trkpt lat="45.63806" lon="2.82914">
        <ele>1266</ele>
        <time>2022-08-17T13:29:43Z</time>
      </trkpt>
      <trkpt lat="45.63808" lon="2.82922">
        <ele>1266</ele>
        <time>2022-08-17T13:29:44Z</time>
      </trkpt>
      <trkpt lat="45.63811" lon="2.82931">
        <ele>1266</ele>
        <time>2022-08-17T13:29:45Z</time>
      </trkpt>
      <trkpt lat="45.63814" lon="2.82939">
        <ele>1266</ele>
        <time>2022-08-17T13:29:46Z</time>
      </trkpt>
      <trkpt lat="45.63816" lon="2.82947">
        <ele>1266</ele>
        <time>2022-08-17T13:29:47Z</time>
      </trkpt>
      <trkpt lat="45.63819" lon="2.82956">
        <ele>1265</ele>
        <time>2022-08-17T13:29:48Z</time>
      </trkpt>
      <trkpt lat="45.63825" lon="2.82976">
        <ele>1265</ele>
        <time>2022-08-17T13:29:49Z</time>
      </trkpt>
      <trkpt lat="45.63828" lon="2.82986">
        <ele>1265</ele>
        <time>2022-08-17T13:29:50Z</time>
      </trkpt>
      <trkpt lat="45.63831" lon="2.82997">
        <ele>1265</ele>
        <time>2022-08-17T13:29:51Z</time>
      </trkpt>
      <trkpt lat="45.63835" lon="2.83007">
        <ele>1265</ele>
        <time>2022-08-17T13:29:52Z</time>
      </trkpt>
      <trkpt lat="45.63838" lon="2.83017">
        <ele>1265</ele>
        <time>2022-08-17T13:29:53Z</time>
      </trkpt>
      <trkpt lat="45.63841" lon="2.83028">
        <ele>1265</ele>
        <time>2022-08-17T13:29:54Z</time>
      </trkpt>
      <trkpt lat="45.63844" lon="2.83038">
        <ele>1265</ele>
        <time>2022-08-17T13:29:55Z</time>
      </trkpt>
      <trkpt lat="45.63848" lon="2.83048">
        <ele>1265</ele>
        <time>2022-08-17T13:29:56Z</time>
      </trkpt>
      <trkpt lat="45.63851" lon="2.83059">
        <ele>1265</ele>
        <time>2022-08-17T13:29:57Z</time>
      </trkpt>
      <trkpt lat="45.63854" lon="2.83069">
        <ele>1259</ele>
        <time>2022-08-17T13:29:58Z</time>
      </trkpt>
      <trkpt lat="45.63859" lon="2.83081">
        <ele>1259</ele>
        <time>2022-08-17T13:29:59Z</time>
      </trkpt>
      <trkpt lat="45.63863" lon="2.83094">
        <ele>1259</ele>
        <time>2022-08-17T13:30:00Z</time>
      </trkpt>
      <trkpt lat="45.63868" lon="2.83106">
        <ele>1259</ele>
        <time>2022-08-17T13:30:01Z</time>
      </trkpt>
      <trkpt lat="45.63873" lon="2.83119">
        <ele>1259</ele>
        <time>2022-08-17T13:30:02Z</time>
      </trkpt>
      <trkpt lat="45.63878" lon="2.83132">
        <ele>1259</ele>
        <time>2022-08-17T13:30:03Z</time>
      </trkpt>
      <trkpt lat="45.63882" lon="2.83145">
        <ele>1259</ele>
        <time>2022-08-17T13:30:04Z</time>
      </trkpt>
      <trkpt lat="45.63887" lon="2.83158">
        <ele>1259</ele>
        <time>2022-08-17T13:30:05Z</time>
      </trkpt>
      <trkpt lat="45.63892" lon="2.83171">
        <ele>1259</ele>
        <time>2022-08-17T13:30:06Z</time>
      </trkpt>
      <trkpt lat="45.63897" lon="2.83184">
        <ele>1259</ele>
        <time>2022-08-17T13:30:07Z</time>
      </trkpt>
      <trkpt lat="45.63902" lon="2.83198">
        <ele>1253</ele>
        <time>2022-08-17T13:30:08Z</time>
      </trkpt>
      <trkpt lat="45.63907" lon="2.83211">
        <ele>1253</ele>
        <time>2022-08-17T13:30:09Z</time>
      </trkpt>
      <trkpt lat="45.63912" lon="2.83225">
        <ele>1253</ele>
        <time>2022-08-17T13:30:10Z</time>
      </trkpt>
      <trkpt lat="45.63917" lon="2.83239">
        <ele>1253</ele>
        <time>2022-08-17T13:30:11Z</time>
      </trkpt>
      <trkpt lat="45.63922" lon="2.83253">
        <ele>1253</ele>
        <time>2022-08-17T13:30:12Z</time>
      </trkpt>
      <trkpt lat="45.63927" lon="2.83267">
        <ele>1253</ele>
        <time>2022-08-17T13:30:13Z</time>
      </trkpt>
      <trkpt lat="45.63932" lon="2.83282">
        <ele>1253</ele>
        <time>2022-08-17T13:30:14Z</time>
      </trkpt>
      <trkpt lat="45.63937" lon="2.83297">
        <ele>1253</ele>
        <time>2022-08-17T13:30:15Z</time>
      </trkpt>
      <trkpt lat="45.63942" lon="2.83311">
        <ele>1253</ele>
        <time>2022-08-17T13:30:16Z</time>
      </trkpt>
      <trkpt lat="45.63948" lon="2.83334">
        <ele>1253</ele>
        <time>2022-08-17T13:30:17Z</time>
      </trkpt>
      <trkpt lat="45.6395" lon="2.83342">
        <ele>1250</ele>
        <time>2022-08-17T13:30:18Z</time>
      </trkpt>
      <trkpt lat="45.63954" lon="2.83357">
        <ele>1250</ele>
        <time>2022-08-17T13:30:19Z</time>
      </trkpt>
      <trkpt lat="45.63957" lon="2.83373">
        <ele>1250</ele>
        <time>2022-08-17T13:30:20Z</time>
      </trkpt>
      <trkpt lat="45.6396" lon="2.8339">
        <ele>1250</ele>
        <time>2022-08-17T13:30:21Z</time>
      </trkpt>
      <trkpt lat="45.63962" lon="2.83406">
        <ele>1250</ele>
        <time>2022-08-17T13:30:22Z</time>
      </trkpt>
      <trkpt lat="45.63965" lon="2.83423">
        <ele>1250</ele>
        <time>2022-08-17T13:30:23Z</time>
      </trkpt>
      <trkpt lat="45.63969" lon="2.83439">
        <ele>1250</ele>
        <time>2022-08-17T13:30:24Z</time>
      </trkpt>
      <trkpt lat="45.63972" lon="2.83455">
        <ele>1250</ele>
        <time>2022-08-17T13:30:25Z</time>
      </trkpt>
      <trkpt lat="45.63977" lon="2.83471">
        <ele>1250</ele>
        <time>2022-08-17T13:30:26Z</time>
      </trkpt>
      <trkpt lat="45.63985" lon="2.83494">
        <ele>1250</ele>
        <time>2022-08-17T13:30:27Z</time>
      </trkpt>
      <trkpt lat="45.63988" lon="2.83501">
        <ele>1246</ele>
        <time>2022-08-17T13:30:28Z</time>
      </trkpt>
      <trkpt lat="45.63994" lon="2.83517">
        <ele>1246</ele>
        <time>2022-08-17T13:30:29Z</time>
      </trkpt>
      <trkpt lat="45.64" lon="2.83532">
        <ele>1246</ele>
        <time>2022-08-17T13:30:30Z</time>
      </trkpt>
      <trkpt lat="45.64006" lon="2.83547">
        <ele>1246</ele>
        <time>2022-08-17T13:30:31Z</time>
      </trkpt>
      <trkpt lat="45.64011" lon="2.83562">
        <ele>1246</ele>
        <time>2022-08-17T13:30:32Z</time>
      </trkpt>
      <trkpt lat="45.64016" lon="2.83578">
        <ele>1246</ele>
        <time>2022-08-17T13:30:33Z</time>
      </trkpt>
      <trkpt lat="45.6402" lon="2.83594">
        <ele>1246</ele>
        <time>2022-08-17T13:30:34Z</time>
      </trkpt>
      <trkpt lat="45.64024" lon="2.83611">
        <ele>1246</ele>
        <time>2022-08-17T13:30:35Z</time>
      </trkpt>
      <trkpt lat="45.64029" lon="2.8364">
        <ele>1246</ele>
        <time>2022-08-17T13:30:36Z</time>
      </trkpt>
      <trkpt lat="45.64031" lon="2.83651">
        <ele>1246</ele>
        <time>2022-08-17T13:30:37Z</time>
      </trkpt>
      <trkpt lat="45.64033" lon="2.83663">
        <ele>1242</ele>
        <time>2022-08-17T13:30:38Z</time>
      </trkpt>
      <trkpt lat="45.64037" lon="2.8368">
        <ele>1242</ele>
        <time>2022-08-17T13:30:39Z</time>
      </trkpt>
      <trkpt lat="45.6404" lon="2.83698">
        <ele>1242</ele>
        <time>2022-08-17T13:30:40Z</time>
      </trkpt>
      <trkpt lat="45.64043" lon="2.83715">
        <ele>1242</ele>
        <time>2022-08-17T13:30:41Z</time>
      </trkpt>
      <trkpt lat="45.64047" lon="2.83733">
        <ele>1242</ele>
        <time>2022-08-17T13:30:42Z</time>
      </trkpt>
      <trkpt lat="45.6405" lon="2.8375">
        <ele>1242</ele>
        <time>2022-08-17T13:30:43Z</time>
      </trkpt>
      <trkpt lat="45.64053" lon="2.83768">
        <ele>1242</ele>
        <time>2022-08-17T13:30:44Z</time>
      </trkpt>
      <trkpt lat="45.64056" lon="2.83785">
        <ele>1242</ele>
        <time>2022-08-17T13:30:45Z</time>
      </trkpt>
      <trkpt lat="45.64062" lon="2.83814">
        <ele>1242</ele>
        <time>2022-08-17T13:30:46Z</time>
      </trkpt>
      <trkpt lat="45.64064" lon="2.83826">
        <ele>1242</ele>
        <time>2022-08-17T13:30:47Z</time>
      </trkpt>
      <trkpt lat="45.64066" lon="2.83837">
        <ele>1235</ele>
        <time>2022-08-17T13:30:48Z</time>
      </trkpt>
      <trkpt lat="45.6407" lon="2.83855">
        <ele>1235</ele>
        <time>2022-08-17T13:30:49Z</time>
      </trkpt>
      <trkpt lat="45.64073" lon="2.83872">
        <ele>1235</ele>
        <time>2022-08-17T13:30:50Z</time>
      </trkpt>
      <trkpt lat="45.64076" lon="2.83889">
        <ele>1235</ele>
        <time>2022-08-17T13:30:51Z</time>
      </trkpt>
      <trkpt lat="45.64079" lon="2.83907">
        <ele>1235</ele>
        <time>2022-08-17T13:30:52Z</time>
      </trkpt>
      <trkpt lat="45.64083" lon="2.83923">
        <ele>1235</ele>
        <time>2022-08-17T13:30:53Z</time>
      </trkpt>
      <trkpt lat="45.64087" lon="2.8394">
        <ele>1235</ele>
        <time>2022-08-17T13:30:54Z</time>
      </trkpt>
      <trkpt lat="45.64092" lon="2.83956">
        <ele>1235</ele>
        <time>2022-08-17T13:30:55Z</time>
      </trkpt>
      <trkpt lat="45.64102" lon="2.83981">
        <ele>1235</ele>
        <time>2022-08-17T13:30:56Z</time>
      </trkpt>
      <trkpt lat="45.64106" lon="2.83991">
        <ele>1235</ele>
        <time>2022-08-17T13:30:57Z</time>
      </trkpt>
      <trkpt lat="45.64111" lon="2.84001">
        <ele>1227</ele>
        <time>2022-08-17T13:30:58Z</time>
      </trkpt>
      <trkpt lat="45.64117" lon="2.84016">
        <ele>1227</ele>
        <time>2022-08-17T13:30:59Z</time>
      </trkpt>
      <trkpt lat="45.64124" lon="2.8403">
        <ele>1227</ele>
        <time>2022-08-17T13:31:00Z</time>
      </trkpt>
      <trkpt lat="45.64131" lon="2.84045">
        <ele>1227</ele>
        <time>2022-08-17T13:31:01Z</time>
      </trkpt>
      <trkpt lat="45.64138" lon="2.84058">
        <ele>1227</ele>
        <time>2022-08-17T13:31:02Z</time>
      </trkpt>
      <trkpt lat="45.64146" lon="2.84071">
        <ele>1227</ele>
        <time>2022-08-17T13:31:03Z</time>
      </trkpt>
      <trkpt lat="45.64154" lon="2.84084">
        <ele>1227</ele>
        <time>2022-08-17T13:31:04Z</time>
      </trkpt>
      <trkpt lat="45.64163" lon="2.84095">
        <ele>1227</ele>
        <time>2022-08-17T13:31:05Z</time>
      </trkpt>
      <trkpt lat="45.64177" lon="2.84115">
        <ele>1227</ele>
        <time>2022-08-17T13:31:06Z</time>
      </trkpt>
      <trkpt lat="45.64182" lon="2.84123">
        <ele>1227</ele>
        <time>2022-08-17T13:31:07Z</time>
      </trkpt>
      <trkpt lat="45.64188" lon="2.84131">
        <ele>1222</ele>
        <time>2022-08-17T13:31:08Z</time>
      </trkpt>
      <trkpt lat="45.64196" lon="2.84144">
        <ele>1222</ele>
        <time>2022-08-17T13:31:09Z</time>
      </trkpt>
      <trkpt lat="45.64203" lon="2.84157">
        <ele>1222</ele>
        <time>2022-08-17T13:31:10Z</time>
      </trkpt>
      <trkpt lat="45.64209" lon="2.84172">
        <ele>1222</ele>
        <time>2022-08-17T13:31:11Z</time>
      </trkpt>
      <trkpt lat="45.64213" lon="2.84187">
        <ele>1222</ele>
        <time>2022-08-17T13:31:12Z</time>
      </trkpt>
      <trkpt lat="45.64218" lon="2.84202">
        <ele>1222</ele>
        <time>2022-08-17T13:31:13Z</time>
      </trkpt>
      <trkpt lat="45.64223" lon="2.84217">
        <ele>1222</ele>
        <time>2022-08-17T13:31:14Z</time>
      </trkpt>
      <trkpt lat="45.64228" lon="2.84232">
        <ele>1222</ele>
        <time>2022-08-17T13:31:15Z</time>
      </trkpt>
      <trkpt lat="45.64233" lon="2.84247">
        <ele>1222</ele>
        <time>2022-08-17T13:31:16Z</time>
      </trkpt>
      <trkpt lat="45.6424" lon="2.8427">
        <ele>1222</ele>
        <time>2022-08-17T13:31:17Z</time>
      </trkpt>
      <trkpt lat="45.64241" lon="2.84278">
        <ele>1217</ele>
        <time>2022-08-17T13:31:18Z</time>
      </trkpt>
      <trkpt lat="45.64244" lon="2.84294">
        <ele>1217</ele>
        <time>2022-08-17T13:31:19Z</time>
      </trkpt>
      <trkpt lat="45.64246" lon="2.84311">
        <ele>1217</ele>
        <time>2022-08-17T13:31:20Z</time>
      </trkpt>
      <trkpt lat="45.64247" lon="2.84327">
        <ele>1217</ele>
        <time>2022-08-17T13:31:21Z</time>
      </trkpt>
      <trkpt lat="45.64247" lon="2.84343">
        <ele>1217</ele>
        <time>2022-08-17T13:31:22Z</time>
      </trkpt>
      <trkpt lat="45.64244" lon="2.84358">
        <ele>1217</ele>
        <time>2022-08-17T13:31:23Z</time>
      </trkpt>
      <trkpt lat="45.64239" lon="2.84371">
        <ele>1217</ele>
        <time>2022-08-17T13:31:24Z</time>
      </trkpt>
      <trkpt lat="45.6423" lon="2.84379">
        <ele>1217</ele>
        <time>2022-08-17T13:31:25Z</time>
      </trkpt>
      <trkpt lat="45.64219" lon="2.84383">
        <ele>1217</ele>
        <time>2022-08-17T13:31:26Z</time>
      </trkpt>
      <trkpt lat="45.64209" lon="2.84386">
        <ele>1217</ele>
        <time>2022-08-17T13:31:27Z</time>
      </trkpt>
      <trkpt lat="45.64198" lon="2.84388">
        <ele>1211</ele>
        <time>2022-08-17T13:31:28Z</time>
      </trkpt>
      <trkpt lat="45.64188" lon="2.8439">
        <ele>1211</ele>
        <time>2022-08-17T13:31:29Z</time>
      </trkpt>
      <trkpt lat="45.64178" lon="2.84393">
        <ele>1211</ele>
        <time>2022-08-17T13:31:30Z</time>
      </trkpt>
      <trkpt lat="45.64167" lon="2.84396">
        <ele>1211</ele>
        <time>2022-08-17T13:31:31Z</time>
      </trkpt>
      <trkpt lat="45.64157" lon="2.84398">
        <ele>1211</ele>
        <time>2022-08-17T13:31:32Z</time>
      </trkpt>
      <trkpt lat="45.64147" lon="2.84401">
        <ele>1211</ele>
        <time>2022-08-17T13:31:33Z</time>
      </trkpt>
      <trkpt lat="45.64137" lon="2.84404">
        <ele>1211</ele>
        <time>2022-08-17T13:31:34Z</time>
      </trkpt>
      <trkpt lat="45.64127" lon="2.84407">
        <ele>1211</ele>
        <time>2022-08-17T13:31:35Z</time>
      </trkpt>
      <trkpt lat="45.64117" lon="2.8441">
        <ele>1211</ele>
        <time>2022-08-17T13:31:36Z</time>
      </trkpt>
      <trkpt lat="45.64104" lon="2.8442">
        <ele>1211</ele>
        <time>2022-08-17T13:31:37Z</time>
      </trkpt>
      <trkpt lat="45.64101" lon="2.84424">
        <ele>1209</ele>
        <time>2022-08-17T13:31:38Z</time>
      </trkpt>
      <trkpt lat="45.64094" lon="2.84433">
        <ele>1209</ele>
        <time>2022-08-17T13:31:39Z</time>
      </trkpt>
      <trkpt lat="45.64087" lon="2.84444">
        <ele>1209</ele>
        <time>2022-08-17T13:31:40Z</time>
      </trkpt>
      <trkpt lat="45.64079" lon="2.84453">
        <ele>1209</ele>
        <time>2022-08-17T13:31:41Z</time>
      </trkpt>
      <trkpt lat="45.64071" lon="2.84461">
        <ele>1209</ele>
        <time>2022-08-17T13:31:42Z</time>
      </trkpt>
      <trkpt lat="45.64051" lon="2.84465">
        <ele>1209</ele>
        <time>2022-08-17T13:31:44Z</time>
      </trkpt>
      <trkpt lat="45.64041" lon="2.84463">
        <ele>1209</ele>
        <time>2022-08-17T13:31:45Z</time>
      </trkpt>
      <trkpt lat="45.64031" lon="2.84461">
        <ele>1209</ele>
        <time>2022-08-17T13:31:46Z</time>
      </trkpt>
      <trkpt lat="45.64021" lon="2.84458">
        <ele>1209</ele>
        <time>2022-08-17T13:31:47Z</time>
      </trkpt>
      <trkpt lat="45.64011" lon="2.84455">
        <ele>1203</ele>
        <time>2022-08-17T13:31:48Z</time>
      </trkpt>
      <trkpt lat="45.64002" lon="2.84452">
        <ele>1203</ele>
        <time>2022-08-17T13:31:49Z</time>
      </trkpt>
      <trkpt lat="45.63992" lon="2.8445">
        <ele>1203</ele>
        <time>2022-08-17T13:31:50Z</time>
      </trkpt>
      <trkpt lat="45.63982" lon="2.84451">
        <ele>1203</ele>
        <time>2022-08-17T13:31:51Z</time>
      </trkpt>
      <trkpt lat="45.63973" lon="2.84456">
        <ele>1203</ele>
        <time>2022-08-17T13:31:52Z</time>
      </trkpt>
      <trkpt lat="45.63965" lon="2.84464">
        <ele>1203</ele>
        <time>2022-08-17T13:31:53Z</time>
      </trkpt>
      <trkpt lat="45.6395" lon="2.84482">
        <ele>1203</ele>
        <time>2022-08-17T13:31:55Z</time>
      </trkpt>
      <trkpt lat="45.63941" lon="2.84489">
        <ele>1203</ele>
        <time>2022-08-17T13:31:56Z</time>
      </trkpt>
      <trkpt lat="45.63931" lon="2.84495">
        <ele>1203</ele>
        <time>2022-08-17T13:31:57Z</time>
      </trkpt>
      <trkpt lat="45.63921" lon="2.84498">
        <ele>1199</ele>
        <time>2022-08-17T13:31:58Z</time>
      </trkpt>
      <trkpt lat="45.63911" lon="2.84501">
        <ele>1199</ele>
        <time>2022-08-17T13:31:59Z</time>
      </trkpt>
      <trkpt lat="45.639" lon="2.845">
        <ele>1199</ele>
        <time>2022-08-17T13:32:00Z</time>
      </trkpt>
      <trkpt lat="45.6389" lon="2.84502">
        <ele>1199</ele>
        <time>2022-08-17T13:32:01Z</time>
      </trkpt>
      <trkpt lat="45.6388" lon="2.84508">
        <ele>1199</ele>
        <time>2022-08-17T13:32:02Z</time>
      </trkpt>
      <trkpt lat="45.6387" lon="2.84515">
        <ele>1199</ele>
        <time>2022-08-17T13:32:03Z</time>
      </trkpt>
      <trkpt lat="45.63861" lon="2.84523">
        <ele>1199</ele>
        <time>2022-08-17T13:32:04Z</time>
      </trkpt>
      <trkpt lat="45.63852" lon="2.84531">
        <ele>1199</ele>
        <time>2022-08-17T13:32:05Z</time>
      </trkpt>
      <trkpt lat="45.63843" lon="2.84535">
        <ele>1199</ele>
        <time>2022-08-17T13:32:06Z</time>
      </trkpt>
      <trkpt lat="45.63827" lon="2.84539">
        <ele>1199</ele>
        <time>2022-08-17T13:32:07Z</time>
      </trkpt>
      <trkpt lat="45.63822" lon="2.8454">
        <ele>1194</ele>
        <time>2022-08-17T13:32:08Z</time>
      </trkpt>
      <trkpt lat="45.63812" lon="2.84541">
        <ele>1194</ele>
        <time>2022-08-17T13:32:09Z</time>
      </trkpt>
      <trkpt lat="45.63801" lon="2.84543">
        <ele>1194</ele>
        <time>2022-08-17T13:32:10Z</time>
      </trkpt>
      <trkpt lat="45.63791" lon="2.84547">
        <ele>1194</ele>
        <time>2022-08-17T13:32:11Z</time>
      </trkpt>
      <trkpt lat="45.63782" lon="2.84551">
        <ele>1194</ele>
        <time>2022-08-17T13:32:12Z</time>
      </trkpt>
      <trkpt lat="45.63772" lon="2.84557">
        <ele>1194</ele>
        <time>2022-08-17T13:32:13Z</time>
      </trkpt>
      <trkpt lat="45.63762" lon="2.84563">
        <ele>1194</ele>
        <time>2022-08-17T13:32:14Z</time>
      </trkpt>
      <trkpt lat="45.63753" lon="2.84569">
        <ele>1194</ele>
        <time>2022-08-17T13:32:15Z</time>
      </trkpt>
      <trkpt lat="45.63745" lon="2.84578">
        <ele>1194</ele>
        <time>2022-08-17T13:32:16Z</time>
      </trkpt>
      <trkpt lat="45.63738" lon="2.84589">
        <ele>1194</ele>
        <time>2022-08-17T13:32:17Z</time>
      </trkpt>
      <trkpt lat="45.63736" lon="2.84602">
        <ele>1188</ele>
        <time>2022-08-17T13:32:18Z</time>
      </trkpt>
      <trkpt lat="45.63741" lon="2.84636">
        <ele>1188</ele>
        <time>2022-08-17T13:32:20Z</time>
      </trkpt>
      <trkpt lat="45.63749" lon="2.84642">
        <ele>1188</ele>
        <time>2022-08-17T13:32:22Z</time>
      </trkpt>
      <trkpt lat="45.63757" lon="2.84648">
        <ele>1188</ele>
        <time>2022-08-17T13:32:24Z</time>
      </trkpt>
      <trkpt lat="45.63765" lon="2.84654">
        <ele>1188</ele>
        <time>2022-08-17T13:32:25Z</time>
      </trkpt>
      <trkpt lat="45.63773" lon="2.8466">
        <ele>1188</ele>
        <time>2022-08-17T13:32:26Z</time>
      </trkpt>
      <trkpt lat="45.63781" lon="2.84667">
        <ele>1188</ele>
        <time>2022-08-17T13:32:27Z</time>
      </trkpt>
      <trkpt lat="45.63789" lon="2.84673">
        <ele>1187</ele>
        <time>2022-08-17T13:32:28Z</time>
      </trkpt>
      <trkpt lat="45.63805" lon="2.84676">
        <ele>1187</ele>
        <time>2022-08-17T13:32:29Z</time>
      </trkpt>
      <trkpt lat="45.63813" lon="2.84679">
        <ele>1187</ele>
        <time>2022-08-17T13:32:30Z</time>
      </trkpt>
      <trkpt lat="45.63822" lon="2.84681">
        <ele>1187</ele>
        <time>2022-08-17T13:32:31Z</time>
      </trkpt>
      <trkpt lat="45.6383" lon="2.84683">
        <ele>1187</ele>
        <time>2022-08-17T13:32:33Z</time>
      </trkpt>
      <trkpt lat="45.63838" lon="2.84686">
        <ele>1187</ele>
        <time>2022-08-17T13:32:35Z</time>
      </trkpt>
      <trkpt lat="45.63847" lon="2.84688">
        <ele>1187</ele>
        <time>2022-08-17T13:32:37Z</time>
      </trkpt>
      <trkpt lat="45.63855" lon="2.8469">
        <ele>1187</ele>
        <time>2022-08-17T13:32:38Z</time>
      </trkpt>
      <trkpt lat="45.63869" lon="2.84701">
        <ele>1187</ele>
        <time>2022-08-17T13:32:39Z</time>
      </trkpt>
      <trkpt lat="45.63877" lon="2.84708">
        <ele>1187</ele>
        <time>2022-08-17T13:32:41Z</time>
      </trkpt>
      <trkpt lat="45.63885" lon="2.84715">
        <ele>1187</ele>
        <time>2022-08-17T13:32:43Z</time>
      </trkpt>
      <trkpt lat="45.63893" lon="2.84721">
        <ele>1187</ele>
        <time>2022-08-17T13:32:45Z</time>
      </trkpt>
      <trkpt lat="45.63901" lon="2.84728">
        <ele>1187</ele>
        <time>2022-08-17T13:32:47Z</time>
      </trkpt>
      <trkpt lat="45.63908" lon="2.84735">
        <ele>1187</ele>
        <time>2022-08-17T13:32:48Z</time>
      </trkpt>
      <trkpt lat="45.63923" lon="2.84735">
        <ele>1187</ele>
        <time>2022-08-17T13:32:49Z</time>
      </trkpt>
      <trkpt lat="45.63932" lon="2.84734">
        <ele>1187</ele>
        <time>2022-08-17T13:32:51Z</time>
      </trkpt>
      <trkpt lat="45.63941" lon="2.84732">
        <ele>1187</ele>
        <time>2022-08-17T13:32:52Z</time>
      </trkpt>
      <trkpt lat="45.6395" lon="2.84731">
        <ele>1187</ele>
        <time>2022-08-17T13:32:54Z</time>
      </trkpt>
      <trkpt lat="45.63959" lon="2.8473">
        <ele>1187</ele>
        <time>2022-08-17T13:32:56Z</time>
      </trkpt>
      <trkpt lat="45.63967" lon="2.84729">
        <ele>1188</ele>
        <time>2022-08-17T13:32:58Z</time>
      </trkpt>
      <trkpt lat="45.63987" lon="2.84728">
        <ele>1188</ele>
        <time>2022-08-17T13:33:00Z</time>
      </trkpt>
      <trkpt lat="45.63996" lon="2.84728">
        <ele>1188</ele>
        <time>2022-08-17T13:33:02Z</time>
      </trkpt>
      <trkpt lat="45.64005" lon="2.84728">
        <ele>1188</ele>
        <time>2022-08-17T13:33:04Z</time>
      </trkpt>
      <trkpt lat="45.64014" lon="2.84728">
        <ele>1188</ele>
        <time>2022-08-17T13:33:06Z</time>
      </trkpt>
      <trkpt lat="45.64023" lon="2.84728">
        <ele>1188</ele>
        <time>2022-08-17T13:33:08Z</time>
      </trkpt>
      <trkpt lat="45.64041" lon="2.84728">
        <ele>1188</ele>
        <time>2022-08-17T13:33:10Z</time>
      </trkpt>
      <trkpt lat="45.64049" lon="2.84729">
        <ele>1188</ele>
        <time>2022-08-17T13:33:12Z</time>
      </trkpt>
      <trkpt lat="45.64057" lon="2.8473">
        <ele>1188</ele>
        <time>2022-08-17T13:33:14Z</time>
      </trkpt>
      <trkpt lat="45.64065" lon="2.84731">
        <ele>1188</ele>
        <time>2022-08-17T13:33:16Z</time>
      </trkpt>
      <trkpt lat="45.64073" lon="2.84731">
        <ele>1190</ele>
        <time>2022-08-17T13:33:18Z</time>
      </trkpt>
      <trkpt lat="45.64089" lon="2.84739">
        <ele>1190</ele>
        <time>2022-08-17T13:33:20Z</time>
      </trkpt>
      <trkpt lat="45.64096" lon="2.84744">
        <ele>1190</ele>
        <time>2022-08-17T13:33:22Z</time>
      </trkpt>
      <trkpt lat="45.64103" lon="2.84749">
        <ele>1190</ele>
        <time>2022-08-17T13:33:24Z</time>
      </trkpt>
      <trkpt lat="45.6411" lon="2.84753">
        <ele>1190</ele>
        <time>2022-08-17T13:33:26Z</time>
      </trkpt>
      <trkpt lat="45.64117" lon="2.84758">
        <ele>1191</ele>
        <time>2022-08-17T13:33:28Z</time>
      </trkpt>
      <trkpt lat="45.64133" lon="2.84769">
        <ele>1191</ele>
        <time>2022-08-17T13:33:30Z</time>
      </trkpt>
      <trkpt lat="45.6414" lon="2.84773">
        <ele>1191</ele>
        <time>2022-08-17T13:33:32Z</time>
      </trkpt>
      <trkpt lat="45.64148" lon="2.84778">
        <ele>1191</ele>
        <time>2022-08-17T13:33:34Z</time>
      </trkpt>
      <trkpt lat="45.64155" lon="2.84782">
        <ele>1191</ele>
        <time>2022-08-17T13:33:36Z</time>
      </trkpt>
      <trkpt lat="45.64163" lon="2.84787">
        <ele>1193</ele>
        <time>2022-08-17T13:33:38Z</time>
      </trkpt>
      <trkpt lat="45.64178" lon="2.84793">
        <ele>1193</ele>
        <time>2022-08-17T13:33:40Z</time>
      </trkpt>
      <trkpt lat="45.64184" lon="2.84796">
        <ele>1193</ele>
        <time>2022-08-17T13:33:42Z</time>
      </trkpt>
      <trkpt lat="45.6419" lon="2.84798">
        <ele>1193</ele>
        <time>2022-08-17T13:33:44Z</time>
      </trkpt>
      <trkpt lat="45.64195" lon="2.848">
        <ele>1193</ele>
        <time>2022-08-17T13:33:45Z</time>
      </trkpt>
      <trkpt lat="45.64201" lon="2.84803">
        <ele>1193</ele>
        <time>2022-08-17T13:33:46Z</time>
      </trkpt>
      <trkpt lat="45.64207" lon="2.84805">
        <ele>1193</ele>
        <time>2022-08-17T13:33:47Z</time>
      </trkpt>
      <trkpt lat="45.64213" lon="2.84808">
        <ele>1194</ele>
        <time>2022-08-17T13:33:48Z</time>
      </trkpt>
      <trkpt lat="45.64229" lon="2.84818">
        <ele>1194</ele>
        <time>2022-08-17T13:33:50Z</time>
      </trkpt>
      <trkpt lat="45.64236" lon="2.84825">
        <ele>1194</ele>
        <time>2022-08-17T13:33:52Z</time>
      </trkpt>
      <trkpt lat="45.64243" lon="2.84831">
        <ele>1194</ele>
        <time>2022-08-17T13:33:54Z</time>
      </trkpt>
      <trkpt lat="45.64249" lon="2.84838">
        <ele>1194</ele>
        <time>2022-08-17T13:33:56Z</time>
      </trkpt>
      <trkpt lat="45.64256" lon="2.84844">
        <ele>1195</ele>
        <time>2022-08-17T13:33:58Z</time>
      </trkpt>
      <trkpt lat="45.64268" lon="2.84863">
        <ele>1195</ele>
        <time>2022-08-17T13:34:00Z</time>
      </trkpt>
      <trkpt lat="45.64273" lon="2.84872">
        <ele>1195</ele>
        <time>2022-08-17T13:34:02Z</time>
      </trkpt>
      <trkpt lat="45.64279" lon="2.8488">
        <ele>1195</ele>
        <time>2022-08-17T13:34:04Z</time>
      </trkpt>
      <trkpt lat="45.64284" lon="2.84888">
        <ele>1195</ele>
        <time>2022-08-17T13:34:06Z</time>
      </trkpt>
      <trkpt lat="45.6429" lon="2.84896">
        <ele>1196</ele>
        <time>2022-08-17T13:34:08Z</time>
      </trkpt>
      <trkpt lat="45.64305" lon="2.84911">
        <ele>1196</ele>
        <time>2022-08-17T13:34:10Z</time>
      </trkpt>
      <trkpt lat="45.64312" lon="2.84917">
        <ele>1196</ele>
        <time>2022-08-17T13:34:12Z</time>
      </trkpt>
      <trkpt lat="45.64319" lon="2.84923">
        <ele>1196</ele>
        <time>2022-08-17T13:34:14Z</time>
      </trkpt>
      <trkpt lat="45.64326" lon="2.84929">
        <ele>1196</ele>
        <time>2022-08-17T13:34:16Z</time>
      </trkpt>
      <trkpt lat="45.64333" lon="2.84936">
        <ele>1198</ele>
        <time>2022-08-17T13:34:18Z</time>
      </trkpt>
      <trkpt lat="45.64351" lon="2.84949">
        <ele>1198</ele>
        <time>2022-08-17T13:34:20Z</time>
      </trkpt>
      <trkpt lat="45.64359" lon="2.84954">
        <ele>1198</ele>
        <time>2022-08-17T13:34:22Z</time>
      </trkpt>
      <trkpt lat="45.64367" lon="2.84959">
        <ele>1198</ele>
        <time>2022-08-17T13:34:24Z</time>
      </trkpt>
      <trkpt lat="45.64375" lon="2.84965">
        <ele>1198</ele>
        <time>2022-08-17T13:34:26Z</time>
      </trkpt>
      <trkpt lat="45.64383" lon="2.8497">
        <ele>1198</ele>
        <time>2022-08-17T13:34:28Z</time>
      </trkpt>
      <trkpt lat="45.64401" lon="2.8498">
        <ele>1198</ele>
        <time>2022-08-17T13:34:30Z</time>
      </trkpt>
      <trkpt lat="45.64409" lon="2.84985">
        <ele>1198</ele>
        <time>2022-08-17T13:34:32Z</time>
      </trkpt>
      <trkpt lat="45.64417" lon="2.84989">
        <ele>1198</ele>
        <time>2022-08-17T13:34:34Z</time>
      </trkpt>
      <trkpt lat="45.64425" lon="2.84994">
        <ele>1198</ele>
        <time>2022-08-17T13:34:36Z</time>
      </trkpt>
      <trkpt lat="45.64433" lon="2.84999">
        <ele>1198</ele>
        <time>2022-08-17T13:34:38Z</time>
      </trkpt>
      <trkpt lat="45.64451" lon="2.85009">
        <ele>1198</ele>
        <time>2022-08-17T13:34:40Z</time>
      </trkpt>
      <trkpt lat="45.64459" lon="2.85014">
        <ele>1198</ele>
        <time>2022-08-17T13:34:42Z</time>
      </trkpt>
      <trkpt lat="45.64467" lon="2.85018">
        <ele>1198</ele>
        <time>2022-08-17T13:34:44Z</time>
      </trkpt>
      <trkpt lat="45.64475" lon="2.85023">
        <ele>1198</ele>
        <time>2022-08-17T13:34:46Z</time>
      </trkpt>
      <trkpt lat="45.64483" lon="2.85028">
        <ele>1197</ele>
        <time>2022-08-17T13:34:48Z</time>
      </trkpt>
      <trkpt lat="45.64501" lon="2.85038">
        <ele>1197</ele>
        <time>2022-08-17T13:34:50Z</time>
      </trkpt>
      <trkpt lat="45.64509" lon="2.85042">
        <ele>1197</ele>
        <time>2022-08-17T13:34:52Z</time>
      </trkpt>
      <trkpt lat="45.64517" lon="2.85047">
        <ele>1197</ele>
        <time>2022-08-17T13:34:54Z</time>
      </trkpt>
      <trkpt lat="45.64525" lon="2.85051">
        <ele>1197</ele>
        <time>2022-08-17T13:34:56Z</time>
      </trkpt>
      <trkpt lat="45.64533" lon="2.85056">
        <ele>1197</ele>
        <time>2022-08-17T13:34:58Z</time>
      </trkpt>
      <trkpt lat="45.6455" lon="2.85065">
        <ele>1197</ele>
        <time>2022-08-17T13:35:00Z</time>
      </trkpt>
      <trkpt lat="45.64558" lon="2.85069">
        <ele>1197</ele>
        <time>2022-08-17T13:35:02Z</time>
      </trkpt>
      <trkpt lat="45.64565" lon="2.85073">
        <ele>1197</ele>
        <time>2022-08-17T13:35:04Z</time>
      </trkpt>
      <trkpt lat="45.64573" lon="2.85077">
        <ele>1197</ele>
        <time>2022-08-17T13:35:05Z</time>
      </trkpt>
      <trkpt lat="45.64581" lon="2.85081">
        <ele>1197</ele>
        <time>2022-08-17T13:35:07Z</time>
      </trkpt>
      <trkpt lat="45.64588" lon="2.85085">
        <ele>1198</ele>
        <time>2022-08-17T13:35:08Z</time>
      </trkpt>
      <trkpt lat="45.64601" lon="2.85092">
        <ele>1198</ele>
        <time>2022-08-17T13:35:09Z</time>
      </trkpt>
      <trkpt lat="45.64608" lon="2.85096">
        <ele>1198</ele>
        <time>2022-08-17T13:35:10Z</time>
      </trkpt>
      <trkpt lat="45.64615" lon="2.85099">
        <ele>1198</ele>
        <time>2022-08-17T13:35:11Z</time>
      </trkpt>
      <trkpt lat="45.64621" lon="2.85103">
        <ele>1198</ele>
        <time>2022-08-17T13:35:12Z</time>
      </trkpt>
      <trkpt lat="45.64628" lon="2.85107">
        <ele>1198</ele>
        <time>2022-08-17T13:35:13Z</time>
      </trkpt>
      <trkpt lat="45.64634" lon="2.8511">
        <ele>1198</ele>
        <time>2022-08-17T13:35:14Z</time>
      </trkpt>
      <trkpt lat="45.64641" lon="2.85114">
        <ele>1198</ele>
        <time>2022-08-17T13:35:15Z</time>
      </trkpt>
      <trkpt lat="45.64648" lon="2.85117">
        <ele>1198</ele>
        <time>2022-08-17T13:35:16Z</time>
      </trkpt>
      <trkpt lat="45.64654" lon="2.85121">
        <ele>1198</ele>
        <time>2022-08-17T13:35:17Z</time>
      </trkpt>
      <trkpt lat="45.64661" lon="2.85124">
        <ele>1197</ele>
        <time>2022-08-17T13:35:18Z</time>
      </trkpt>
      <trkpt lat="45.64676" lon="2.85132">
        <ele>1197</ele>
        <time>2022-08-17T13:35:19Z</time>
      </trkpt>
      <trkpt lat="45.64683" lon="2.85136">
        <ele>1197</ele>
        <time>2022-08-17T13:35:20Z</time>
      </trkpt>
      <trkpt lat="45.6469" lon="2.8514">
        <ele>1197</ele>
        <time>2022-08-17T13:35:21Z</time>
      </trkpt>
      <trkpt lat="45.64697" lon="2.85143">
        <ele>1197</ele>
        <time>2022-08-17T13:35:22Z</time>
      </trkpt>
      <trkpt lat="45.64705" lon="2.85147">
        <ele>1197</ele>
        <time>2022-08-17T13:35:23Z</time>
      </trkpt>
      <trkpt lat="45.64712" lon="2.85151">
        <ele>1197</ele>
        <time>2022-08-17T13:35:24Z</time>
      </trkpt>
      <trkpt lat="45.64719" lon="2.85155">
        <ele>1197</ele>
        <time>2022-08-17T13:35:25Z</time>
      </trkpt>
      <trkpt lat="45.64726" lon="2.85158">
        <ele>1197</ele>
        <time>2022-08-17T13:35:26Z</time>
      </trkpt>
      <trkpt lat="45.64733" lon="2.85162">
        <ele>1197</ele>
        <time>2022-08-17T13:35:27Z</time>
      </trkpt>
      <trkpt lat="45.6474" lon="2.85166">
        <ele>1192</ele>
        <time>2022-08-17T13:35:28Z</time>
      </trkpt>
      <trkpt lat="45.64755" lon="2.85172">
        <ele>1192</ele>
        <time>2022-08-17T13:35:29Z</time>
      </trkpt>
      <trkpt lat="45.64761" lon="2.85174">
        <ele>1192</ele>
        <time>2022-08-17T13:35:30Z</time>
      </trkpt>
      <trkpt lat="45.64768" lon="2.85177">
        <ele>1192</ele>
        <time>2022-08-17T13:35:31Z</time>
      </trkpt>
      <trkpt lat="45.64775" lon="2.85179">
        <ele>1192</ele>
        <time>2022-08-17T13:35:32Z</time>
      </trkpt>
      <trkpt lat="45.64781" lon="2.85181">
        <ele>1192</ele>
        <time>2022-08-17T13:35:33Z</time>
      </trkpt>
      <trkpt lat="45.64788" lon="2.85184">
        <ele>1192</ele>
        <time>2022-08-17T13:35:34Z</time>
      </trkpt>
      <trkpt lat="45.64794" lon="2.85186">
        <ele>1192</ele>
        <time>2022-08-17T13:35:35Z</time>
      </trkpt>
      <trkpt lat="45.64801" lon="2.85188">
        <ele>1192</ele>
        <time>2022-08-17T13:35:36Z</time>
      </trkpt>
      <trkpt lat="45.64808" lon="2.85191">
        <ele>1192</ele>
        <time>2022-08-17T13:35:37Z</time>
      </trkpt>
      <trkpt lat="45.64814" lon="2.85193">
        <ele>1193</ele>
        <time>2022-08-17T13:35:38Z</time>
      </trkpt>
      <trkpt lat="45.64827" lon="2.85194">
        <ele>1193</ele>
        <time>2022-08-17T13:35:39Z</time>
      </trkpt>
      <trkpt lat="45.64833" lon="2.85195">
        <ele>1193</ele>
        <time>2022-08-17T13:35:40Z</time>
      </trkpt>
      <trkpt lat="45.6484" lon="2.85196">
        <ele>1193</ele>
        <time>2022-08-17T13:35:41Z</time>
      </trkpt>
      <trkpt lat="45.64846" lon="2.85196">
        <ele>1193</ele>
        <time>2022-08-17T13:35:42Z</time>
      </trkpt>
      <trkpt lat="45.64852" lon="2.85197">
        <ele>1193</ele>
        <time>2022-08-17T13:35:43Z</time>
      </trkpt>
      <trkpt lat="45.64858" lon="2.85197">
        <ele>1193</ele>
        <time>2022-08-17T13:35:44Z</time>
      </trkpt>
      <trkpt lat="45.64865" lon="2.85198">
        <ele>1193</ele>
        <time>2022-08-17T13:35:45Z</time>
      </trkpt>
      <trkpt lat="45.64871" lon="2.85198">
        <ele>1193</ele>
        <time>2022-08-17T13:35:46Z</time>
      </trkpt>
      <trkpt lat="45.64877" lon="2.85199">
        <ele>1192</ele>
        <time>2022-08-17T13:35:48Z</time>
      </trkpt>
      <trkpt lat="45.649" lon="2.85201">
        <ele>1192</ele>
        <time>2022-08-17T13:35:50Z</time>
      </trkpt>
      <trkpt lat="45.6491" lon="2.85203">
        <ele>1192</ele>
        <time>2022-08-17T13:35:52Z</time>
      </trkpt>
      <trkpt lat="45.6492" lon="2.85204">
        <ele>1192</ele>
        <time>2022-08-17T13:35:54Z</time>
      </trkpt>
      <trkpt lat="45.6493" lon="2.85205">
        <ele>1192</ele>
        <time>2022-08-17T13:35:56Z</time>
      </trkpt>
      <trkpt lat="45.6494" lon="2.85207">
        <ele>1191</ele>
        <time>2022-08-17T13:35:58Z</time>
      </trkpt>
      <trkpt lat="45.64959" lon="2.85209">
        <ele>1191</ele>
        <time>2022-08-17T13:36:00Z</time>
      </trkpt>
      <trkpt lat="45.64966" lon="2.8521">
        <ele>1191</ele>
        <time>2022-08-17T13:36:02Z</time>
      </trkpt>
      <trkpt lat="45.64972" lon="2.8521">
        <ele>1191</ele>
        <time>2022-08-17T13:36:03Z</time>
      </trkpt>
      <trkpt lat="45.64979" lon="2.85211">
        <ele>1191</ele>
        <time>2022-08-17T13:36:04Z</time>
      </trkpt>
      <trkpt lat="45.64985" lon="2.85212">
        <ele>1191</ele>
        <time>2022-08-17T13:36:05Z</time>
      </trkpt>
      <trkpt lat="45.64991" lon="2.85213">
        <ele>1191</ele>
        <time>2022-08-17T13:36:06Z</time>
      </trkpt>
      <trkpt lat="45.64998" lon="2.85213">
        <ele>1191</ele>
        <time>2022-08-17T13:36:07Z</time>
      </trkpt>
      <trkpt lat="45.65004" lon="2.85214">
        <ele>1189</ele>
        <time>2022-08-17T13:36:08Z</time>
      </trkpt>
      <trkpt lat="45.65018" lon="2.85216">
        <ele>1189</ele>
        <time>2022-08-17T13:36:09Z</time>
      </trkpt>
      <trkpt lat="45.65025" lon="2.85217">
        <ele>1189</ele>
        <time>2022-08-17T13:36:10Z</time>
      </trkpt>
      <trkpt lat="45.65032" lon="2.85218">
        <ele>1189</ele>
        <time>2022-08-17T13:36:11Z</time>
      </trkpt>
      <trkpt lat="45.65039" lon="2.85219">
        <ele>1189</ele>
        <time>2022-08-17T13:36:12Z</time>
      </trkpt>
      <trkpt lat="45.65046" lon="2.8522">
        <ele>1189</ele>
        <time>2022-08-17T13:36:13Z</time>
      </trkpt>
      <trkpt lat="45.65053" lon="2.85221">
        <ele>1189</ele>
        <time>2022-08-17T13:36:15Z</time>
      </trkpt>
      <trkpt lat="45.6506" lon="2.85222">
        <ele>1189</ele>
        <time>2022-08-17T13:36:17Z</time>
      </trkpt>
      <trkpt lat="45.65067" lon="2.85223">
        <ele>1190</ele>
        <time>2022-08-17T13:36:18Z</time>
      </trkpt>
      <trkpt lat="45.6508" lon="2.85225">
        <ele>1190</ele>
        <time>2022-08-17T13:36:19Z</time>
      </trkpt>
      <trkpt lat="45.65088" lon="2.85226">
        <ele>1190</ele>
        <time>2022-08-17T13:36:21Z</time>
      </trkpt>
      <trkpt lat="45.65096" lon="2.85227">
        <ele>1190</ele>
        <time>2022-08-17T13:36:23Z</time>
      </trkpt>
      <trkpt lat="45.65104" lon="2.85228">
        <ele>1190</ele>
        <time>2022-08-17T13:36:25Z</time>
      </trkpt>
      <trkpt lat="45.65112" lon="2.85229">
        <ele>1190</ele>
        <time>2022-08-17T13:36:27Z</time>
      </trkpt>
      <trkpt lat="45.6512" lon="2.85231">
        <ele>1192</ele>
        <time>2022-08-17T13:36:28Z</time>
      </trkpt>
      <trkpt lat="45.65133" lon="2.85232">
        <ele>1192</ele>
        <time>2022-08-17T13:36:29Z</time>
      </trkpt>
      <trkpt lat="45.65141" lon="2.85233">
        <ele>1192</ele>
        <time>2022-08-17T13:36:31Z</time>
      </trkpt>
      <trkpt lat="45.65149" lon="2.85234">
        <ele>1192</ele>
        <time>2022-08-17T13:36:33Z</time>
      </trkpt>
      <trkpt lat="45.65158" lon="2.85235">
        <ele>1192</ele>
        <time>2022-08-17T13:36:35Z</time>
      </trkpt>
      <trkpt lat="45.65166" lon="2.85236">
        <ele>1192</ele>
        <time>2022-08-17T13:36:37Z</time>
      </trkpt>
      <trkpt lat="45.65174" lon="2.85236">
        <ele>1192</ele>
        <time>2022-08-17T13:36:38Z</time>
      </trkpt>
      <trkpt lat="45.65189" lon="2.8524">
        <ele>1192</ele>
        <time>2022-08-17T13:36:39Z</time>
      </trkpt>
      <trkpt lat="45.65198" lon="2.85243">
        <ele>1192</ele>
        <time>2022-08-17T13:36:41Z</time>
      </trkpt>
      <trkpt lat="45.65208" lon="2.85245">
        <ele>1192</ele>
        <time>2022-08-17T13:36:43Z</time>
      </trkpt>
      <trkpt lat="45.65217" lon="2.85248">
        <ele>1192</ele>
        <time>2022-08-17T13:36:45Z</time>
      </trkpt>
      <trkpt lat="45.65226" lon="2.85251">
        <ele>1192</ele>
        <time>2022-08-17T13:36:47Z</time>
      </trkpt>
      <trkpt lat="45.65236" lon="2.85253">
        <ele>1192</ele>
        <time>2022-08-17T13:36:48Z</time>
      </trkpt>
      <trkpt lat="45.65248" lon="2.85265">
        <ele>1192</ele>
        <time>2022-08-17T13:36:49Z</time>
      </trkpt>
      <trkpt lat="45.65254" lon="2.85273">
        <ele>1192</ele>
        <time>2022-08-17T13:36:50Z</time>
      </trkpt>
      <trkpt lat="45.65259" lon="2.85281">
        <ele>1192</ele>
        <time>2022-08-17T13:36:52Z</time>
      </trkpt>
      <trkpt lat="45.65265" lon="2.85289">
        <ele>1192</ele>
        <time>2022-08-17T13:36:53Z</time>
      </trkpt>
      <trkpt lat="45.6527" lon="2.85297">
        <ele>1192</ele>
        <time>2022-08-17T13:36:54Z</time>
      </trkpt>
      <trkpt lat="45.65276" lon="2.85305">
        <ele>1192</ele>
        <time>2022-08-17T13:36:55Z</time>
      </trkpt>
      <trkpt lat="45.65281" lon="2.85313">
        <ele>1192</ele>
        <time>2022-08-17T13:36:56Z</time>
      </trkpt>
      <trkpt lat="45.65287" lon="2.85321">
        <ele>1192</ele>
        <time>2022-08-17T13:36:57Z</time>
      </trkpt>
      <trkpt lat="45.65292" lon="2.85329">
        <ele>1191</ele>
        <time>2022-08-17T13:36:58Z</time>
      </trkpt>
      <trkpt lat="45.653" lon="2.85351">
        <ele>1191</ele>
        <time>2022-08-17T13:36:59Z</time>
      </trkpt>
      <trkpt lat="45.65304" lon="2.85363">
        <ele>1191</ele>
        <time>2022-08-17T13:37:00Z</time>
      </trkpt>
      <trkpt lat="45.65307" lon="2.85375">
        <ele>1191</ele>
        <time>2022-08-17T13:37:01Z</time>
      </trkpt>
      <trkpt lat="45.6531" lon="2.85387">
        <ele>1191</ele>
        <time>2022-08-17T13:37:02Z</time>
      </trkpt>
      <trkpt lat="45.65314" lon="2.85399">
        <ele>1191</ele>
        <time>2022-08-17T13:37:03Z</time>
      </trkpt>
      <trkpt lat="45.65317" lon="2.8541">
        <ele>1191</ele>
        <time>2022-08-17T13:37:04Z</time>
      </trkpt>
      <trkpt lat="45.6532" lon="2.85422">
        <ele>1191</ele>
        <time>2022-08-17T13:37:05Z</time>
      </trkpt>
      <trkpt lat="45.65324" lon="2.85434">
        <ele>1191</ele>
        <time>2022-08-17T13:37:07Z</time>
      </trkpt>
      <trkpt lat="45.65327" lon="2.85446">
        <ele>1186</ele>
        <time>2022-08-17T13:37:08Z</time>
      </trkpt>
      <trkpt lat="45.65329" lon="2.85459">
        <ele>1186</ele>
        <time>2022-08-17T13:37:09Z</time>
      </trkpt>
      <trkpt lat="45.65331" lon="2.85472">
        <ele>1186</ele>
        <time>2022-08-17T13:37:10Z</time>
      </trkpt>
      <trkpt lat="45.65334" lon="2.85485">
        <ele>1186</ele>
        <time>2022-08-17T13:37:11Z</time>
      </trkpt>
      <trkpt lat="45.65336" lon="2.85498">
        <ele>1186</ele>
        <time>2022-08-17T13:37:12Z</time>
      </trkpt>
      <trkpt lat="45.65338" lon="2.85511">
        <ele>1186</ele>
        <time>2022-08-17T13:37:13Z</time>
      </trkpt>
      <trkpt lat="45.6534" lon="2.85525">
        <ele>1186</ele>
        <time>2022-08-17T13:37:14Z</time>
      </trkpt>
      <trkpt lat="45.65342" lon="2.85538">
        <ele>1186</ele>
        <time>2022-08-17T13:37:15Z</time>
      </trkpt>
      <trkpt lat="45.65344" lon="2.85551">
        <ele>1186</ele>
        <time>2022-08-17T13:37:16Z</time>
      </trkpt>
      <trkpt lat="45.65346" lon="2.85564">
        <ele>1186</ele>
        <time>2022-08-17T13:37:17Z</time>
      </trkpt>
      <trkpt lat="45.65348" lon="2.85576">
        <ele>1184</ele>
        <time>2022-08-17T13:37:18Z</time>
      </trkpt>
      <trkpt lat="45.6535" lon="2.85589">
        <ele>1184</ele>
        <time>2022-08-17T13:37:19Z</time>
      </trkpt>
      <trkpt lat="45.65353" lon="2.85602">
        <ele>1184</ele>
        <time>2022-08-17T13:37:20Z</time>
      </trkpt>
      <trkpt lat="45.65355" lon="2.85615">
        <ele>1184</ele>
        <time>2022-08-17T13:37:21Z</time>
      </trkpt>
      <trkpt lat="45.65357" lon="2.85628">
        <ele>1184</ele>
        <time>2022-08-17T13:37:22Z</time>
      </trkpt>
      <trkpt lat="45.65359" lon="2.85641">
        <ele>1184</ele>
        <time>2022-08-17T13:37:23Z</time>
      </trkpt>
      <trkpt lat="45.65361" lon="2.85654">
        <ele>1184</ele>
        <time>2022-08-17T13:37:24Z</time>
      </trkpt>
      <trkpt lat="45.65363" lon="2.85666">
        <ele>1184</ele>
        <time>2022-08-17T13:37:25Z</time>
      </trkpt>
      <trkpt lat="45.65365" lon="2.8568">
        <ele>1184</ele>
        <time>2022-08-17T13:37:26Z</time>
      </trkpt>
      <trkpt lat="45.65367" lon="2.85693">
        <ele>1184</ele>
        <time>2022-08-17T13:37:27Z</time>
      </trkpt>
      <trkpt lat="45.65369" lon="2.85706">
        <ele>1179</ele>
        <time>2022-08-17T13:37:28Z</time>
      </trkpt>
      <trkpt lat="45.65371" lon="2.85719">
        <ele>1179</ele>
        <time>2022-08-17T13:37:29Z</time>
      </trkpt>
      <trkpt lat="45.65373" lon="2.85732">
        <ele>1179</ele>
        <time>2022-08-17T13:37:30Z</time>
      </trkpt>
      <trkpt lat="45.65374" lon="2.85745">
        <ele>1179</ele>
        <time>2022-08-17T13:37:31Z</time>
      </trkpt>
      <trkpt lat="45.65376" lon="2.85759">
        <ele>1179</ele>
        <time>2022-08-17T13:37:32Z</time>
      </trkpt>
      <trkpt lat="45.65378" lon="2.85772">
        <ele>1179</ele>
        <time>2022-08-17T13:37:33Z</time>
      </trkpt>
      <trkpt lat="45.65379" lon="2.85785">
        <ele>1179</ele>
        <time>2022-08-17T13:37:34Z</time>
      </trkpt>
      <trkpt lat="45.65381" lon="2.85798">
        <ele>1179</ele>
        <time>2022-08-17T13:37:35Z</time>
      </trkpt>
      <trkpt lat="45.65383" lon="2.85811">
        <ele>1179</ele>
        <time>2022-08-17T13:37:36Z</time>
      </trkpt>
      <trkpt lat="45.65384" lon="2.85825">
        <ele>1179</ele>
        <time>2022-08-17T13:37:37Z</time>
      </trkpt>
      <trkpt lat="45.65385" lon="2.85838">
        <ele>1178</ele>
        <time>2022-08-17T13:37:38Z</time>
      </trkpt>
      <trkpt lat="45.65386" lon="2.85851">
        <ele>1178</ele>
        <time>2022-08-17T13:37:39Z</time>
      </trkpt>
      <trkpt lat="45.65387" lon="2.85864">
        <ele>1178</ele>
        <time>2022-08-17T13:37:40Z</time>
      </trkpt>
      <trkpt lat="45.65387" lon="2.85877">
        <ele>1178</ele>
        <time>2022-08-17T13:37:41Z</time>
      </trkpt>
      <trkpt lat="45.65388" lon="2.8589">
        <ele>1178</ele>
        <time>2022-08-17T13:37:42Z</time>
      </trkpt>
      <trkpt lat="45.65389" lon="2.85903">
        <ele>1178</ele>
        <time>2022-08-17T13:37:43Z</time>
      </trkpt>
      <trkpt lat="45.65389" lon="2.85916">
        <ele>1178</ele>
        <time>2022-08-17T13:37:44Z</time>
      </trkpt>
      <trkpt lat="45.65389" lon="2.85944">
        <ele>1178</ele>
        <time>2022-08-17T13:37:46Z</time>
      </trkpt>
      <trkpt lat="45.65389" lon="2.85958">
        <ele>1178</ele>
        <time>2022-08-17T13:37:47Z</time>
      </trkpt>
      <trkpt lat="45.65388" lon="2.85972">
        <ele>1172</ele>
        <time>2022-08-17T13:37:48Z</time>
      </trkpt>
      <trkpt lat="45.65387" lon="2.85986">
        <ele>1172</ele>
        <time>2022-08-17T13:37:49Z</time>
      </trkpt>
      <trkpt lat="45.65385" lon="2.86">
        <ele>1172</ele>
        <time>2022-08-17T13:37:50Z</time>
      </trkpt>
      <trkpt lat="45.65383" lon="2.86027">
        <ele>1172</ele>
        <time>2022-08-17T13:37:52Z</time>
      </trkpt>
      <trkpt lat="45.65382" lon="2.86053">
        <ele>1172</ele>
        <time>2022-08-17T13:37:54Z</time>
      </trkpt>
      <trkpt lat="45.65379" lon="2.8608">
        <ele>1172</ele>
        <time>2022-08-17T13:37:56Z</time>
      </trkpt>
      <trkpt lat="45.65379" lon="2.86094">
        <ele>1172</ele>
        <time>2022-08-17T13:37:57Z</time>
      </trkpt>
      <trkpt lat="45.6538" lon="2.86109">
        <ele>1166</ele>
        <time>2022-08-17T13:37:58Z</time>
      </trkpt>
      <trkpt lat="45.65381" lon="2.86137">
        <ele>1166</ele>
        <time>2022-08-17T13:38:00Z</time>
      </trkpt>
      <trkpt lat="45.65383" lon="2.86153">
        <ele>1166</ele>
        <time>2022-08-17T13:38:01Z</time>
      </trkpt>
      <trkpt lat="45.65383" lon="2.86167">
        <ele>1166</ele>
        <time>2022-08-17T13:38:02Z</time>
      </trkpt>
      <trkpt lat="45.65383" lon="2.86182">
        <ele>1166</ele>
        <time>2022-08-17T13:38:03Z</time>
      </trkpt>
      <trkpt lat="45.65383" lon="2.8621">
        <ele>1166</ele>
        <time>2022-08-17T13:38:05Z</time>
      </trkpt>
      <trkpt lat="45.65382" lon="2.86225">
        <ele>1166</ele>
        <time>2022-08-17T13:38:06Z</time>
      </trkpt>
      <trkpt lat="45.65382" lon="2.86241">
        <ele>1166</ele>
        <time>2022-08-17T13:38:07Z</time>
      </trkpt>
      <trkpt lat="45.65383" lon="2.86256">
        <ele>1163</ele>
        <time>2022-08-17T13:38:08Z</time>
      </trkpt>
      <trkpt lat="45.65384" lon="2.86271">
        <ele>1163</ele>
        <time>2022-08-17T13:38:09Z</time>
      </trkpt>
      <trkpt lat="45.65385" lon="2.86286">
        <ele>1163</ele>
        <time>2022-08-17T13:38:10Z</time>
      </trkpt>
      <trkpt lat="45.65388" lon="2.86302">
        <ele>1163</ele>
        <time>2022-08-17T13:38:11Z</time>
      </trkpt>
      <trkpt lat="45.6539" lon="2.86316">
        <ele>1163</ele>
        <time>2022-08-17T13:38:12Z</time>
      </trkpt>
      <trkpt lat="45.65393" lon="2.86331">
        <ele>1163</ele>
        <time>2022-08-17T13:38:13Z</time>
      </trkpt>
      <trkpt lat="45.65395" lon="2.86346">
        <ele>1163</ele>
        <time>2022-08-17T13:38:14Z</time>
      </trkpt>
      <trkpt lat="45.65398" lon="2.8636">
        <ele>1163</ele>
        <time>2022-08-17T13:38:15Z</time>
      </trkpt>
      <trkpt lat="45.65399" lon="2.86375">
        <ele>1163</ele>
        <time>2022-08-17T13:38:16Z</time>
      </trkpt>
      <trkpt lat="45.65399" lon="2.86397">
        <ele>1163</ele>
        <time>2022-08-17T13:38:17Z</time>
      </trkpt>
      <trkpt lat="45.65398" lon="2.86404">
        <ele>1160</ele>
        <time>2022-08-17T13:38:18Z</time>
      </trkpt>
      <trkpt lat="45.65397" lon="2.86419">
        <ele>1160</ele>
        <time>2022-08-17T13:38:19Z</time>
      </trkpt>
      <trkpt lat="45.65394" lon="2.86433">
        <ele>1160</ele>
        <time>2022-08-17T13:38:20Z</time>
      </trkpt>
      <trkpt lat="45.65389" lon="2.86446">
        <ele>1160</ele>
        <time>2022-08-17T13:38:21Z</time>
      </trkpt>
      <trkpt lat="45.6538" lon="2.8646">
        <ele>1160</ele>
        <time>2022-08-17T13:38:22Z</time>
      </trkpt>
      <trkpt lat="45.65372" lon="2.86472">
        <ele>1160</ele>
        <time>2022-08-17T13:38:23Z</time>
      </trkpt>
      <trkpt lat="45.65362" lon="2.86481">
        <ele>1160</ele>
        <time>2022-08-17T13:38:24Z</time>
      </trkpt>
      <trkpt lat="45.65351" lon="2.86488">
        <ele>1160</ele>
        <time>2022-08-17T13:38:25Z</time>
      </trkpt>
      <trkpt lat="45.6533" lon="2.86499">
        <ele>1160</ele>
        <time>2022-08-17T13:38:27Z</time>
      </trkpt>
      <trkpt lat="45.6532" lon="2.86505">
        <ele>1157</ele>
        <time>2022-08-17T13:38:28Z</time>
      </trkpt>
      <trkpt lat="45.6531" lon="2.86512">
        <ele>1157</ele>
        <time>2022-08-17T13:38:29Z</time>
      </trkpt>
      <trkpt lat="45.65301" lon="2.8652">
        <ele>1157</ele>
        <time>2022-08-17T13:38:30Z</time>
      </trkpt>
      <trkpt lat="45.65293" lon="2.8653">
        <ele>1157</ele>
        <time>2022-08-17T13:38:31Z</time>
      </trkpt>
      <trkpt lat="45.65285" lon="2.86541">
        <ele>1157</ele>
        <time>2022-08-17T13:38:32Z</time>
      </trkpt>
      <trkpt lat="45.65279" lon="2.86553">
        <ele>1157</ele>
        <time>2022-08-17T13:38:33Z</time>
      </trkpt>
      <trkpt lat="45.65272" lon="2.86565">
        <ele>1157</ele>
        <time>2022-08-17T13:38:34Z</time>
      </trkpt>
      <trkpt lat="45.65265" lon="2.86577">
        <ele>1157</ele>
        <time>2022-08-17T13:38:35Z</time>
      </trkpt>
      <trkpt lat="45.65258" lon="2.86588">
        <ele>1157</ele>
        <time>2022-08-17T13:38:36Z</time>
      </trkpt>
      <trkpt lat="45.65247" lon="2.86605">
        <ele>1157</ele>
        <time>2022-08-17T13:38:37Z</time>
      </trkpt>
      <trkpt lat="45.65244" lon="2.86611">
        <ele>1153</ele>
        <time>2022-08-17T13:38:38Z</time>
      </trkpt>
      <trkpt lat="45.65237" lon="2.86622">
        <ele>1153</ele>
        <time>2022-08-17T13:38:39Z</time>
      </trkpt>
      <trkpt lat="45.6523" lon="2.86633">
        <ele>1153</ele>
        <time>2022-08-17T13:38:40Z</time>
      </trkpt>
      <trkpt lat="45.65222" lon="2.86643">
        <ele>1153</ele>
        <time>2022-08-17T13:38:41Z</time>
      </trkpt>
      <trkpt lat="45.65216" lon="2.86653">
        <ele>1153</ele>
        <time>2022-08-17T13:38:42Z</time>
      </trkpt>
      <trkpt lat="45.65209" lon="2.86664">
        <ele>1153</ele>
        <time>2022-08-17T13:38:43Z</time>
      </trkpt>
      <trkpt lat="45.65197" lon="2.86684">
        <ele>1153</ele>
        <time>2022-08-17T13:38:45Z</time>
      </trkpt>
      <trkpt lat="45.65189" lon="2.86706">
        <ele>1153</ele>
        <time>2022-08-17T13:38:47Z</time>
      </trkpt>
      <trkpt lat="45.65187" lon="2.86719">
        <ele>1152</ele>
        <time>2022-08-17T13:38:48Z</time>
      </trkpt>
      <trkpt lat="45.65185" lon="2.86751">
        <ele>1152</ele>
        <time>2022-08-17T13:38:49Z</time>
      </trkpt>
      <trkpt lat="45.65184" lon="2.8677">
        <ele>1152</ele>
        <time>2022-08-17T13:38:50Z</time>
      </trkpt>
      <trkpt lat="45.65184" lon="2.8679">
        <ele>1152</ele>
        <time>2022-08-17T13:38:52Z</time>
      </trkpt>
      <trkpt lat="45.65184" lon="2.86809">
        <ele>1152</ele>
        <time>2022-08-17T13:38:54Z</time>
      </trkpt>
      <trkpt lat="45.65183" lon="2.86828">
        <ele>1152</ele>
        <time>2022-08-17T13:38:56Z</time>
      </trkpt>
      <trkpt lat="45.65183" lon="2.86847">
        <ele>1148</ele>
        <time>2022-08-17T13:38:58Z</time>
      </trkpt>
      <trkpt lat="45.65184" lon="2.86888">
        <ele>1148</ele>
        <time>2022-08-17T13:39:00Z</time>
      </trkpt>
      <trkpt lat="45.65186" lon="2.86904">
        <ele>1148</ele>
        <time>2022-08-17T13:39:02Z</time>
      </trkpt>
      <trkpt lat="45.65188" lon="2.8692">
        <ele>1148</ele>
        <time>2022-08-17T13:39:03Z</time>
      </trkpt>
      <trkpt lat="45.6519" lon="2.86936">
        <ele>1148</ele>
        <time>2022-08-17T13:39:05Z</time>
      </trkpt>
      <trkpt lat="45.65192" lon="2.86952">
        <ele>1148</ele>
        <time>2022-08-17T13:39:07Z</time>
      </trkpt>
      <trkpt lat="45.65194" lon="2.86968">
        <ele>1145</ele>
        <time>2022-08-17T13:39:08Z</time>
      </trkpt>
      <trkpt lat="45.652" lon="2.86979">
        <ele>1145</ele>
        <time>2022-08-17T13:39:09Z</time>
      </trkpt>
      <trkpt lat="45.65212" lon="2.86999">
        <ele>1145</ele>
        <time>2022-08-17T13:39:11Z</time>
      </trkpt>
      <trkpt lat="45.65224" lon="2.8702">
        <ele>1145</ele>
        <time>2022-08-17T13:39:13Z</time>
      </trkpt>
      <trkpt lat="45.6523" lon="2.87031">
        <ele>1145</ele>
        <time>2022-08-17T13:39:14Z</time>
      </trkpt>
      <trkpt lat="45.65236" lon="2.87041">
        <ele>1145</ele>
        <time>2022-08-17T13:39:15Z</time>
      </trkpt>
      <trkpt lat="45.65242" lon="2.87052">
        <ele>1145</ele>
        <time>2022-08-17T13:39:16Z</time>
      </trkpt>
      <trkpt lat="45.65248" lon="2.87063">
        <ele>1145</ele>
        <time>2022-08-17T13:39:17Z</time>
      </trkpt>
      <trkpt lat="45.65254" lon="2.87074">
        <ele>1144</ele>
        <time>2022-08-17T13:39:18Z</time>
      </trkpt>
      <trkpt lat="45.65259" lon="2.87085">
        <ele>1144</ele>
        <time>2022-08-17T13:39:19Z</time>
      </trkpt>
      <trkpt lat="45.65265" lon="2.87097">
        <ele>1144</ele>
        <time>2022-08-17T13:39:20Z</time>
      </trkpt>
      <trkpt lat="45.6527" lon="2.87109">
        <ele>1144</ele>
        <time>2022-08-17T13:39:21Z</time>
      </trkpt>
      <trkpt lat="45.65274" lon="2.87122">
        <ele>1144</ele>
        <time>2022-08-17T13:39:22Z</time>
      </trkpt>
      <trkpt lat="45.65277" lon="2.87136">
        <ele>1144</ele>
        <time>2022-08-17T13:39:23Z</time>
      </trkpt>
      <trkpt lat="45.65279" lon="2.87151">
        <ele>1144</ele>
        <time>2022-08-17T13:39:24Z</time>
      </trkpt>
      <trkpt lat="45.65279" lon="2.87166">
        <ele>1144</ele>
        <time>2022-08-17T13:39:25Z</time>
      </trkpt>
      <trkpt lat="45.65279" lon="2.87181">
        <ele>1144</ele>
        <time>2022-08-17T13:39:26Z</time>
      </trkpt>
      <trkpt lat="45.65279" lon="2.87197">
        <ele>1144</ele>
        <time>2022-08-17T13:39:27Z</time>
      </trkpt>
      <trkpt lat="45.65277" lon="2.87212">
        <ele>1140</ele>
        <time>2022-08-17T13:39:28Z</time>
      </trkpt>
      <trkpt lat="45.65276" lon="2.87227">
        <ele>1140</ele>
        <time>2022-08-17T13:39:29Z</time>
      </trkpt>
      <trkpt lat="45.65274" lon="2.87243">
        <ele>1140</ele>
        <time>2022-08-17T13:39:30Z</time>
      </trkpt>
      <trkpt lat="45.65271" lon="2.87257">
        <ele>1140</ele>
        <time>2022-08-17T13:39:31Z</time>
      </trkpt>
      <trkpt lat="45.65268" lon="2.87272">
        <ele>1140</ele>
        <time>2022-08-17T13:39:32Z</time>
      </trkpt>
      <trkpt lat="45.65265" lon="2.87287">
        <ele>1140</ele>
        <time>2022-08-17T13:39:33Z</time>
      </trkpt>
      <trkpt lat="45.65262" lon="2.87302">
        <ele>1140</ele>
        <time>2022-08-17T13:39:34Z</time>
      </trkpt>
      <trkpt lat="45.65258" lon="2.87317">
        <ele>1140</ele>
        <time>2022-08-17T13:39:35Z</time>
      </trkpt>
      <trkpt lat="45.65254" lon="2.87332">
        <ele>1140</ele>
        <time>2022-08-17T13:39:36Z</time>
      </trkpt>
      <trkpt lat="45.6525" lon="2.87354">
        <ele>1140</ele>
        <time>2022-08-17T13:39:37Z</time>
      </trkpt>
      <trkpt lat="45.65249" lon="2.87362">
        <ele>1139</ele>
        <time>2022-08-17T13:39:38Z</time>
      </trkpt>
      <trkpt lat="45.65251" lon="2.87391">
        <ele>1139</ele>
        <time>2022-08-17T13:39:39Z</time>
      </trkpt>
      <trkpt lat="45.65255" lon="2.87404">
        <ele>1139</ele>
        <time>2022-08-17T13:39:40Z</time>
      </trkpt>
      <trkpt lat="45.65259" lon="2.87418">
        <ele>1139</ele>
        <time>2022-08-17T13:39:41Z</time>
      </trkpt>
      <trkpt lat="45.65262" lon="2.87431">
        <ele>1139</ele>
        <time>2022-08-17T13:39:42Z</time>
      </trkpt>
      <trkpt lat="45.65266" lon="2.87444">
        <ele>1139</ele>
        <time>2022-08-17T13:39:43Z</time>
      </trkpt>
      <trkpt lat="45.6527" lon="2.87458">
        <ele>1139</ele>
        <time>2022-08-17T13:39:44Z</time>
      </trkpt>
      <trkpt lat="45.65274" lon="2.87471">
        <ele>1139</ele>
        <time>2022-08-17T13:39:45Z</time>
      </trkpt>
      <trkpt lat="45.65278" lon="2.87484">
        <ele>1139</ele>
        <time>2022-08-17T13:39:46Z</time>
      </trkpt>
      <trkpt lat="45.65282" lon="2.87498">
        <ele>1133</ele>
        <time>2022-08-17T13:39:48Z</time>
      </trkpt>
      <trkpt lat="45.65295" lon="2.87534">
        <ele>1133</ele>
        <time>2022-08-17T13:39:50Z</time>
      </trkpt>
      <trkpt lat="45.65298" lon="2.87547">
        <ele>1133</ele>
        <time>2022-08-17T13:39:52Z</time>
      </trkpt>
      <trkpt lat="45.65301" lon="2.8756">
        <ele>1133</ele>
        <time>2022-08-17T13:39:53Z</time>
      </trkpt>
      <trkpt lat="45.65304" lon="2.87573">
        <ele>1133</ele>
        <time>2022-08-17T13:39:54Z</time>
      </trkpt>
      <trkpt lat="45.65308" lon="2.87586">
        <ele>1133</ele>
        <time>2022-08-17T13:39:55Z</time>
      </trkpt>
      <trkpt lat="45.65311" lon="2.87599">
        <ele>1133</ele>
        <time>2022-08-17T13:39:56Z</time>
      </trkpt>
      <trkpt lat="45.65314" lon="2.87612">
        <ele>1133</ele>
        <time>2022-08-17T13:39:57Z</time>
      </trkpt>
      <trkpt lat="45.65317" lon="2.87625">
        <ele>1130</ele>
        <time>2022-08-17T13:39:58Z</time>
      </trkpt>
      <trkpt lat="45.65317" lon="2.87639">
        <ele>1130</ele>
        <time>2022-08-17T13:39:59Z</time>
      </trkpt>
      <trkpt lat="45.65314" lon="2.87653">
        <ele>1130</ele>
        <time>2022-08-17T13:40:00Z</time>
      </trkpt>
      <trkpt lat="45.65311" lon="2.87666">
        <ele>1130</ele>
        <time>2022-08-17T13:40:01Z</time>
      </trkpt>
      <trkpt lat="45.65308" lon="2.8768">
        <ele>1130</ele>
        <time>2022-08-17T13:40:02Z</time>
      </trkpt>
      <trkpt lat="45.65304" lon="2.87693">
        <ele>1130</ele>
        <time>2022-08-17T13:40:03Z</time>
      </trkpt>
      <trkpt lat="45.65301" lon="2.87707">
        <ele>1130</ele>
        <time>2022-08-17T13:40:04Z</time>
      </trkpt>
      <trkpt lat="45.65297" lon="2.8772">
        <ele>1130</ele>
        <time>2022-08-17T13:40:05Z</time>
      </trkpt>
      <trkpt lat="45.65294" lon="2.87734">
        <ele>1130</ele>
        <time>2022-08-17T13:40:06Z</time>
      </trkpt>
      <trkpt lat="45.6529" lon="2.87747">
        <ele>1130</ele>
        <time>2022-08-17T13:40:07Z</time>
      </trkpt>
      <trkpt lat="45.65287" lon="2.87761">
        <ele>1129</ele>
        <time>2022-08-17T13:40:08Z</time>
      </trkpt>
      <trkpt lat="45.6528" lon="2.87789">
        <ele>1129</ele>
        <time>2022-08-17T13:40:10Z</time>
      </trkpt>
      <trkpt lat="45.65277" lon="2.87803">
        <ele>1129</ele>
        <time>2022-08-17T13:40:11Z</time>
      </trkpt>
      <trkpt lat="45.65273" lon="2.87818">
        <ele>1129</ele>
        <time>2022-08-17T13:40:12Z</time>
      </trkpt>
      <trkpt lat="45.6527" lon="2.87833">
        <ele>1129</ele>
        <time>2022-08-17T13:40:13Z</time>
      </trkpt>
      <trkpt lat="45.65267" lon="2.87848">
        <ele>1129</ele>
        <time>2022-08-17T13:40:14Z</time>
      </trkpt>
      <trkpt lat="45.65265" lon="2.87862">
        <ele>1129</ele>
        <time>2022-08-17T13:40:15Z</time>
      </trkpt>
      <trkpt lat="45.65264" lon="2.87878">
        <ele>1129</ele>
        <time>2022-08-17T13:40:16Z</time>
      </trkpt>
      <trkpt lat="45.65265" lon="2.87894">
        <ele>1129</ele>
        <time>2022-08-17T13:40:17Z</time>
      </trkpt>
      <trkpt lat="45.65267" lon="2.87909">
        <ele>1120</ele>
        <time>2022-08-17T13:40:18Z</time>
      </trkpt>
      <trkpt lat="45.6527" lon="2.87924">
        <ele>1120</ele>
        <time>2022-08-17T13:40:19Z</time>
      </trkpt>
      <trkpt lat="45.65275" lon="2.87938">
        <ele>1120</ele>
        <time>2022-08-17T13:40:20Z</time>
      </trkpt>
      <trkpt lat="45.65281" lon="2.87951">
        <ele>1120</ele>
        <time>2022-08-17T13:40:21Z</time>
      </trkpt>
      <trkpt lat="45.65286" lon="2.87964">
        <ele>1120</ele>
        <time>2022-08-17T13:40:22Z</time>
      </trkpt>
      <trkpt lat="45.65291" lon="2.87978">
        <ele>1120</ele>
        <time>2022-08-17T13:40:23Z</time>
      </trkpt>
      <trkpt lat="45.65294" lon="2.87993">
        <ele>1120</ele>
        <time>2022-08-17T13:40:24Z</time>
      </trkpt>
      <trkpt lat="45.65297" lon="2.88007">
        <ele>1120</ele>
        <time>2022-08-17T13:40:25Z</time>
      </trkpt>
      <trkpt lat="45.65298" lon="2.88022">
        <ele>1120</ele>
        <time>2022-08-17T13:40:26Z</time>
      </trkpt>
      <trkpt lat="45.65297" lon="2.88044">
        <ele>1120</ele>
        <time>2022-08-17T13:40:27Z</time>
      </trkpt>
      <trkpt lat="45.65296" lon="2.88051">
        <ele>1116</ele>
        <time>2022-08-17T13:40:28Z</time>
      </trkpt>
      <trkpt lat="45.65294" lon="2.88065">
        <ele>1116</ele>
        <time>2022-08-17T13:40:29Z</time>
      </trkpt>
      <trkpt lat="45.6529" lon="2.88079">
        <ele>1116</ele>
        <time>2022-08-17T13:40:30Z</time>
      </trkpt>
      <trkpt lat="45.65285" lon="2.88093">
        <ele>1116</ele>
        <time>2022-08-17T13:40:31Z</time>
      </trkpt>
      <trkpt lat="45.65279" lon="2.88107">
        <ele>1116</ele>
        <time>2022-08-17T13:40:32Z</time>
      </trkpt>
      <trkpt lat="45.65274" lon="2.8812">
        <ele>1116</ele>
        <time>2022-08-17T13:40:33Z</time>
      </trkpt>
      <trkpt lat="45.65268" lon="2.88133">
        <ele>1116</ele>
        <time>2022-08-17T13:40:34Z</time>
      </trkpt>
      <trkpt lat="45.65263" lon="2.88146">
        <ele>1116</ele>
        <time>2022-08-17T13:40:35Z</time>
      </trkpt>
      <trkpt lat="45.65259" lon="2.88159">
        <ele>1116</ele>
        <time>2022-08-17T13:40:36Z</time>
      </trkpt>
      <trkpt lat="45.65253" lon="2.8818">
        <ele>1116</ele>
        <time>2022-08-17T13:40:37Z</time>
      </trkpt>
      <trkpt lat="45.65252" lon="2.88187">
        <ele>1113</ele>
        <time>2022-08-17T13:40:38Z</time>
      </trkpt>
      <trkpt lat="45.6525" lon="2.88201">
        <ele>1113</ele>
        <time>2022-08-17T13:40:39Z</time>
      </trkpt>
      <trkpt lat="45.65249" lon="2.88216">
        <ele>1113</ele>
        <time>2022-08-17T13:40:40Z</time>
      </trkpt>
      <trkpt lat="45.65248" lon="2.88231">
        <ele>1113</ele>
        <time>2022-08-17T13:40:41Z</time>
      </trkpt>
      <trkpt lat="45.65247" lon="2.88245">
        <ele>1113</ele>
        <time>2022-08-17T13:40:42Z</time>
      </trkpt>
      <trkpt lat="45.65245" lon="2.8826">
        <ele>1113</ele>
        <time>2022-08-17T13:40:43Z</time>
      </trkpt>
      <trkpt lat="45.65242" lon="2.88275">
        <ele>1113</ele>
        <time>2022-08-17T13:40:44Z</time>
      </trkpt>
      <trkpt lat="45.65239" lon="2.88289">
        <ele>1113</ele>
        <time>2022-08-17T13:40:45Z</time>
      </trkpt>
      <trkpt lat="45.65235" lon="2.88303">
        <ele>1113</ele>
        <time>2022-08-17T13:40:46Z</time>
      </trkpt>
      <trkpt lat="45.65228" lon="2.88324">
        <ele>1113</ele>
        <time>2022-08-17T13:40:47Z</time>
      </trkpt>
      <trkpt lat="45.65225" lon="2.8833">
        <ele>1111</ele>
        <time>2022-08-17T13:40:48Z</time>
      </trkpt>
      <trkpt lat="45.6522" lon="2.88344">
        <ele>1111</ele>
        <time>2022-08-17T13:40:49Z</time>
      </trkpt>
      <trkpt lat="45.65216" lon="2.88357">
        <ele>1111</ele>
        <time>2022-08-17T13:40:50Z</time>
      </trkpt>
      <trkpt lat="45.6521" lon="2.8837">
        <ele>1111</ele>
        <time>2022-08-17T13:40:51Z</time>
      </trkpt>
      <trkpt lat="45.65205" lon="2.88383">
        <ele>1111</ele>
        <time>2022-08-17T13:40:52Z</time>
      </trkpt>
      <trkpt lat="45.65199" lon="2.88396">
        <ele>1111</ele>
        <time>2022-08-17T13:40:53Z</time>
      </trkpt>
      <trkpt lat="45.65193" lon="2.88407">
        <ele>1111</ele>
        <time>2022-08-17T13:40:54Z</time>
      </trkpt>
      <trkpt lat="45.65187" lon="2.88419">
        <ele>1111</ele>
        <time>2022-08-17T13:40:55Z</time>
      </trkpt>
      <trkpt lat="45.65181" lon="2.8843">
        <ele>1111</ele>
        <time>2022-08-17T13:40:56Z</time>
      </trkpt>
      <trkpt lat="45.65172" lon="2.88447">
        <ele>1111</ele>
        <time>2022-08-17T13:40:57Z</time>
      </trkpt>
      <trkpt lat="45.65169" lon="2.88452">
        <ele>1106</ele>
        <time>2022-08-17T13:40:58Z</time>
      </trkpt>
      <trkpt lat="45.65162" lon="2.88464">
        <ele>1106</ele>
        <time>2022-08-17T13:40:59Z</time>
      </trkpt>
      <trkpt lat="45.65156" lon="2.88475">
        <ele>1106</ele>
        <time>2022-08-17T13:41:00Z</time>
      </trkpt>
      <trkpt lat="45.6515" lon="2.88486">
        <ele>1106</ele>
        <time>2022-08-17T13:41:01Z</time>
      </trkpt>
      <trkpt lat="45.65144" lon="2.88497">
        <ele>1106</ele>
        <time>2022-08-17T13:41:02Z</time>
      </trkpt>
      <trkpt lat="45.65138" lon="2.88508">
        <ele>1106</ele>
        <time>2022-08-17T13:41:03Z</time>
      </trkpt>
      <trkpt lat="45.65132" lon="2.88519">
        <ele>1106</ele>
        <time>2022-08-17T13:41:04Z</time>
      </trkpt>
      <trkpt lat="45.65126" lon="2.8853">
        <ele>1106</ele>
        <time>2022-08-17T13:41:05Z</time>
      </trkpt>
      <trkpt lat="45.6512" lon="2.88541">
        <ele>1106</ele>
        <time>2022-08-17T13:41:06Z</time>
      </trkpt>
      <trkpt lat="45.65114" lon="2.88552">
        <ele>1106</ele>
        <time>2022-08-17T13:41:07Z</time>
      </trkpt>
      <trkpt lat="45.65108" lon="2.88563">
        <ele>1105</ele>
        <time>2022-08-17T13:41:08Z</time>
      </trkpt>
      <trkpt lat="45.65101" lon="2.88573">
        <ele>1105</ele>
        <time>2022-08-17T13:41:09Z</time>
      </trkpt>
      <trkpt lat="45.65094" lon="2.88584">
        <ele>1105</ele>
        <time>2022-08-17T13:41:10Z</time>
      </trkpt>
      <trkpt lat="45.65087" lon="2.88592">
        <ele>1105</ele>
        <time>2022-08-17T13:41:11Z</time>
      </trkpt>
      <trkpt lat="45.65078" lon="2.886">
        <ele>1105</ele>
        <time>2022-08-17T13:41:12Z</time>
      </trkpt>
      <trkpt lat="45.65068" lon="2.88606">
        <ele>1105</ele>
        <time>2022-08-17T13:41:13Z</time>
      </trkpt>
      <trkpt lat="45.65058" lon="2.8861">
        <ele>1105</ele>
        <time>2022-08-17T13:41:14Z</time>
      </trkpt>
      <trkpt lat="45.65047" lon="2.88613">
        <ele>1105</ele>
        <time>2022-08-17T13:41:15Z</time>
      </trkpt>
      <trkpt lat="45.65036" lon="2.88613">
        <ele>1105</ele>
        <time>2022-08-17T13:41:16Z</time>
      </trkpt>
      <trkpt lat="45.65025" lon="2.88611">
        <ele>1105</ele>
        <time>2022-08-17T13:41:17Z</time>
      </trkpt>
      <trkpt lat="45.65015" lon="2.88607">
        <ele>1100</ele>
        <time>2022-08-17T13:41:18Z</time>
      </trkpt>
      <trkpt lat="45.64997" lon="2.88606">
        <ele>1100</ele>
        <time>2022-08-17T13:41:19Z</time>
      </trkpt>
      <trkpt lat="45.64989" lon="2.8861">
        <ele>1100</ele>
        <time>2022-08-17T13:41:20Z</time>
      </trkpt>
      <trkpt lat="45.64982" lon="2.88613">
        <ele>1100</ele>
        <time>2022-08-17T13:41:21Z</time>
      </trkpt>
      <trkpt lat="45.64975" lon="2.88617">
        <ele>1100</ele>
        <time>2022-08-17T13:41:22Z</time>
      </trkpt>
      <trkpt lat="45.64968" lon="2.8862">
        <ele>1100</ele>
        <time>2022-08-17T13:41:23Z</time>
      </trkpt>
      <trkpt lat="45.64961" lon="2.88624">
        <ele>1100</ele>
        <time>2022-08-17T13:41:24Z</time>
      </trkpt>
      <trkpt lat="45.64954" lon="2.88628">
        <ele>1100</ele>
        <time>2022-08-17T13:41:26Z</time>
      </trkpt>
      <trkpt lat="45.64947" lon="2.88631">
        <ele>1094</ele>
        <time>2022-08-17T13:41:28Z</time>
      </trkpt>
      <trkpt lat="45.64943" lon="2.88659">
        <ele>1094</ele>
        <time>2022-08-17T13:41:30Z</time>
      </trkpt>
      <trkpt lat="45.64942" lon="2.88668">
        <ele>1094</ele>
        <time>2022-08-17T13:41:32Z</time>
      </trkpt>
      <trkpt lat="45.6494" lon="2.88676">
        <ele>1094</ele>
        <time>2022-08-17T13:41:34Z</time>
      </trkpt>
      <trkpt lat="45.64939" lon="2.88684">
        <ele>1094</ele>
        <time>2022-08-17T13:41:35Z</time>
      </trkpt>
      <trkpt lat="45.64937" lon="2.88693">
        <ele>1094</ele>
        <time>2022-08-17T13:41:36Z</time>
      </trkpt>
      <trkpt lat="45.64936" lon="2.88701">
        <ele>1094</ele>
        <time>2022-08-17T13:41:37Z</time>
      </trkpt>
      <trkpt lat="45.64934" lon="2.8871">
        <ele>1094</ele>
        <time>2022-08-17T13:41:38Z</time>
      </trkpt>
      <trkpt lat="45.64919" lon="2.88722">
        <ele>1094</ele>
        <time>2022-08-17T13:41:40Z</time>
      </trkpt>
      <trkpt lat="45.64913" lon="2.88727">
        <ele>1094</ele>
        <time>2022-08-17T13:41:42Z</time>
      </trkpt>
      <trkpt lat="45.64906" lon="2.88732">
        <ele>1094</ele>
        <time>2022-08-17T13:41:44Z</time>
      </trkpt>
      <trkpt lat="45.649" lon="2.88737">
        <ele>1094</ele>
        <time>2022-08-17T13:41:46Z</time>
      </trkpt>
      <trkpt lat="45.64893" lon="2.88742">
        <ele>1098</ele>
        <time>2022-08-17T13:41:48Z</time>
      </trkpt>
      <trkpt lat="45.6488" lon="2.88753">
        <ele>1098</ele>
        <time>2022-08-17T13:41:50Z</time>
      </trkpt>
      <trkpt lat="45.64875" lon="2.88757">
        <ele>1098</ele>
        <time>2022-08-17T13:41:53Z</time>
      </trkpt>
      <trkpt lat="45.64869" lon="2.88762">
        <ele>1098</ele>
        <time>2022-08-17T13:41:54Z</time>
      </trkpt>
      <trkpt lat="45.64863" lon="2.88766">
        <ele>1098</ele>
        <time>2022-08-17T13:41:56Z</time>
      </trkpt>
      <trkpt lat="45.64858" lon="2.88771">
        <ele>1100</ele>
        <time>2022-08-17T13:41:58Z</time>
      </trkpt>
      <trkpt lat="45.6485" lon="2.88776">
        <ele>1100</ele>
        <time>2022-08-17T13:41:59Z</time>
      </trkpt>
      <trkpt lat="45.64846" lon="2.88779">
        <ele>1100</ele>
        <time>2022-08-17T13:42:01Z</time>
      </trkpt>
      <trkpt lat="45.64841" lon="2.88782">
        <ele>1100</ele>
        <time>2022-08-17T13:42:03Z</time>
      </trkpt>
      <trkpt lat="45.64837" lon="2.88785">
        <ele>1100</ele>
        <time>2022-08-17T13:42:05Z</time>
      </trkpt>
      <trkpt lat="45.64832" lon="2.88788">
        <ele>1100</ele>
        <time>2022-08-17T13:42:07Z</time>
      </trkpt>
      <trkpt lat="45.64828" lon="2.88791">
        <ele>1101</ele>
        <time>2022-08-17T13:42:08Z</time>
      </trkpt>
      <trkpt lat="45.64821" lon="2.88793">
        <ele>1101</ele>
        <time>2022-08-17T13:42:09Z</time>
      </trkpt>
      <trkpt lat="45.64817" lon="2.88794">
        <ele>1101</ele>
        <time>2022-08-17T13:42:11Z</time>
      </trkpt>
      <trkpt lat="45.64813" lon="2.88795">
        <ele>1101</ele>
        <time>2022-08-17T13:42:13Z</time>
      </trkpt>
      <trkpt lat="45.64809" lon="2.88797">
        <ele>1101</ele>
        <time>2022-08-17T13:42:15Z</time>
      </trkpt>
      <trkpt lat="45.64805" lon="2.88798">
        <ele>1101</ele>
        <time>2022-08-17T13:42:16Z</time>
      </trkpt>
      <trkpt lat="45.64801" lon="2.88799">
        <ele>1101</ele>
        <time>2022-08-17T13:42:17Z</time>
      </trkpt>
      <trkpt lat="45.64797" lon="2.888">
        <ele>1102</ele>
        <time>2022-08-17T13:42:18Z</time>
      </trkpt>
      <trkpt lat="45.6479" lon="2.88801">
        <ele>1102</ele>
        <time>2022-08-17T13:42:19Z</time>
      </trkpt>
      <trkpt lat="45.64786" lon="2.88801">
        <ele>1102</ele>
        <time>2022-08-17T13:42:20Z</time>
      </trkpt>
      <trkpt lat="45.64783" lon="2.88802">
        <ele>1102</ele>
        <time>2022-08-17T13:42:21Z</time>
      </trkpt>
      <trkpt lat="45.64779" lon="2.88802">
        <ele>1102</ele>
        <time>2022-08-17T13:42:22Z</time>
      </trkpt>
      <trkpt lat="45.64775" lon="2.88803">
        <ele>1102</ele>
        <time>2022-08-17T13:42:23Z</time>
      </trkpt>
      <trkpt lat="45.64772" lon="2.88803">
        <ele>1102</ele>
        <time>2022-08-17T13:42:25Z</time>
      </trkpt>
      <trkpt lat="45.64768" lon="2.88804">
        <ele>1102</ele>
        <time>2022-08-17T13:42:27Z</time>
      </trkpt>
      <trkpt lat="45.64764" lon="2.88804">
        <ele>1104</ele>
        <time>2022-08-17T13:42:28Z</time>
      </trkpt>
      <trkpt lat="45.64756" lon="2.88806">
        <ele>1104</ele>
        <time>2022-08-17T13:42:29Z</time>
      </trkpt>
      <trkpt lat="45.64752" lon="2.88807">
        <ele>1104</ele>
        <time>2022-08-17T13:42:31Z</time>
      </trkpt>
      <trkpt lat="45.64747" lon="2.88809">
        <ele>1104</ele>
        <time>2022-08-17T13:42:33Z</time>
      </trkpt>
      <trkpt lat="45.64742" lon="2.8881">
        <ele>1104</ele>
        <time>2022-08-17T13:42:35Z</time>
      </trkpt>
      <trkpt lat="45.64738" lon="2.88811">
        <ele>1104</ele>
        <time>2022-08-17T13:42:37Z</time>
      </trkpt>
      <trkpt lat="45.64733" lon="2.88812">
        <ele>1106</ele>
        <time>2022-08-17T13:42:38Z</time>
      </trkpt>
      <trkpt lat="45.64726" lon="2.88818">
        <ele>1106</ele>
        <time>2022-08-17T13:42:39Z</time>
      </trkpt>
      <trkpt lat="45.64721" lon="2.88823">
        <ele>1106</ele>
        <time>2022-08-17T13:42:41Z</time>
      </trkpt>
      <trkpt lat="45.64717" lon="2.88827">
        <ele>1106</ele>
        <time>2022-08-17T13:42:44Z</time>
      </trkpt>
      <trkpt lat="45.64712" lon="2.88831">
        <ele>1106</ele>
        <time>2022-08-17T13:42:46Z</time>
      </trkpt>
      <trkpt lat="45.64708" lon="2.88835">
        <ele>1108</ele>
        <time>2022-08-17T13:42:48Z</time>
      </trkpt>
      <trkpt lat="45.64703" lon="2.88841">
        <ele>1108</ele>
        <time>2022-08-17T13:42:50Z</time>
      </trkpt>
      <trkpt lat="45.64698" lon="2.88847">
        <ele>1108</ele>
        <time>2022-08-17T13:42:52Z</time>
      </trkpt>
      <trkpt lat="45.64692" lon="2.88857">
        <ele>1108</ele>
        <time>2022-08-17T13:42:55Z</time>
      </trkpt>
      <trkpt lat="45.64686" lon="2.88867">
        <ele>1110</ele>
        <time>2022-08-17T13:42:58Z</time>
      </trkpt>
      <trkpt lat="45.64678" lon="2.88878">
        <ele>1110</ele>
        <time>2022-08-17T13:43:00Z</time>
      </trkpt>
      <trkpt lat="45.64676" lon="2.88882">
        <ele>1110</ele>
        <time>2022-08-17T13:43:02Z</time>
      </trkpt>
      <trkpt lat="45.64673" lon="2.88887">
        <ele>1110</ele>
        <time>2022-08-17T13:43:04Z</time>
      </trkpt>
      <trkpt lat="45.64671" lon="2.88892">
        <ele>1110</ele>
        <time>2022-08-17T13:43:07Z</time>
      </trkpt>
      <trkpt lat="45.64668" lon="2.88896">
        <ele>1112</ele>
        <time>2022-08-17T13:43:08Z</time>
      </trkpt>
      <trkpt lat="45.64664" lon="2.88905">
        <ele>1112</ele>
        <time>2022-08-17T13:43:11Z</time>
      </trkpt>
      <trkpt lat="45.64661" lon="2.88908">
        <ele>1112</ele>
        <time>2022-08-17T13:43:13Z</time>
      </trkpt>
      <trkpt lat="45.64658" lon="2.88911">
        <ele>1112</ele>
        <time>2022-08-17T13:43:16Z</time>
      </trkpt>
      <trkpt lat="45.64655" lon="2.88914">
        <ele>1112</ele>
        <time>2022-08-17T13:43:18Z</time>
      </trkpt>
      <trkpt lat="45.64645" lon="2.88928">
        <ele>1112</ele>
        <time>2022-08-17T13:43:19Z</time>
      </trkpt>
      <trkpt lat="45.64641" lon="2.88934">
        <ele>1112</ele>
        <time>2022-08-17T13:43:22Z</time>
      </trkpt>
      <trkpt lat="45.64637" lon="2.88939">
        <ele>1112</ele>
        <time>2022-08-17T13:43:24Z</time>
      </trkpt>
      <trkpt lat="45.64634" lon="2.88945">
        <ele>1112</ele>
        <time>2022-08-17T13:43:26Z</time>
      </trkpt>
      <trkpt lat="45.6463" lon="2.88951">
        <ele>1113</ele>
        <time>2022-08-17T13:43:28Z</time>
      </trkpt>
      <trkpt lat="45.64623" lon="2.88963">
        <ele>1113</ele>
        <time>2022-08-17T13:43:30Z</time>
      </trkpt>
      <trkpt lat="45.6462" lon="2.88968">
        <ele>1113</ele>
        <time>2022-08-17T13:43:32Z</time>
      </trkpt>
      <trkpt lat="45.64617" lon="2.88973">
        <ele>1113</ele>
        <time>2022-08-17T13:43:34Z</time>
      </trkpt>
      <trkpt lat="45.64614" lon="2.88978">
        <ele>1113</ele>
        <time>2022-08-17T13:43:37Z</time>
      </trkpt>
      <trkpt lat="45.64611" lon="2.88983">
        <ele>1114</ele>
        <time>2022-08-17T13:43:38Z</time>
      </trkpt>
      <trkpt lat="45.64606" lon="2.88996">
        <ele>1114</ele>
        <time>2022-08-17T13:43:40Z</time>
      </trkpt>
      <trkpt lat="45.64604" lon="2.89003">
        <ele>1114</ele>
        <time>2022-08-17T13:43:43Z</time>
      </trkpt>
      <trkpt lat="45.64602" lon="2.8901">
        <ele>1114</ele>
        <time>2022-08-17T13:43:46Z</time>
      </trkpt>
      <trkpt lat="45.646" lon="2.89017">
        <ele>1116</ele>
        <time>2022-08-17T13:43:48Z</time>
      </trkpt>
      <trkpt lat="45.646" lon="2.89031">
        <ele>1116</ele>
        <time>2022-08-17T13:43:50Z</time>
      </trkpt>
      <trkpt lat="45.646" lon="2.89037">
        <ele>1116</ele>
        <time>2022-08-17T13:43:52Z</time>
      </trkpt>
      <trkpt lat="45.646" lon="2.89043">
        <ele>1116</ele>
        <time>2022-08-17T13:43:54Z</time>
      </trkpt>
      <trkpt lat="45.64601" lon="2.8905">
        <ele>1116</ele>
        <time>2022-08-17T13:43:56Z</time>
      </trkpt>
      <trkpt lat="45.64601" lon="2.89056">
        <ele>1116</ele>
        <time>2022-08-17T13:43:58Z</time>
      </trkpt>
      <trkpt lat="45.64604" lon="2.89074">
        <ele>1116</ele>
        <time>2022-08-17T13:44:00Z</time>
      </trkpt>
      <trkpt lat="45.64605" lon="2.89081">
        <ele>1116</ele>
        <time>2022-08-17T13:44:02Z</time>
      </trkpt>
      <trkpt lat="45.64606" lon="2.89089">
        <ele>1116</ele>
        <time>2022-08-17T13:44:04Z</time>
      </trkpt>
      <trkpt lat="45.64608" lon="2.89096">
        <ele>1116</ele>
        <time>2022-08-17T13:44:06Z</time>
      </trkpt>
      <trkpt lat="45.64609" lon="2.89103">
        <ele>1116</ele>
        <time>2022-08-17T13:44:07Z</time>
      </trkpt>
      <trkpt lat="45.6461" lon="2.89111">
        <ele>1115</ele>
        <time>2022-08-17T13:44:08Z</time>
      </trkpt>
      <trkpt lat="45.64612" lon="2.89123">
        <ele>1115</ele>
        <time>2022-08-17T13:44:09Z</time>
      </trkpt>
      <trkpt lat="45.64614" lon="2.89129">
        <ele>1115</ele>
        <time>2022-08-17T13:44:10Z</time>
      </trkpt>
      <trkpt lat="45.64615" lon="2.89135">
        <ele>1115</ele>
        <time>2022-08-17T13:44:11Z</time>
      </trkpt>
      <trkpt lat="45.64616" lon="2.89141">
        <ele>1115</ele>
        <time>2022-08-17T13:44:12Z</time>
      </trkpt>
      <trkpt lat="45.64617" lon="2.89147">
        <ele>1115</ele>
        <time>2022-08-17T13:44:13Z</time>
      </trkpt>
      <trkpt lat="45.64618" lon="2.89153">
        <ele>1115</ele>
        <time>2022-08-17T13:44:14Z</time>
      </trkpt>
      <trkpt lat="45.64619" lon="2.89159">
        <ele>1115</ele>
        <time>2022-08-17T13:44:15Z</time>
      </trkpt>
      <trkpt lat="45.64621" lon="2.89165">
        <ele>1115</ele>
        <time>2022-08-17T13:44:16Z</time>
      </trkpt>
      <trkpt lat="45.64622" lon="2.89171">
        <ele>1115</ele>
        <time>2022-08-17T13:44:17Z</time>
      </trkpt>
      <trkpt lat="45.64623" lon="2.89177">
        <ele>1114</ele>
        <time>2022-08-17T13:44:18Z</time>
      </trkpt>
      <trkpt lat="45.64622" lon="2.89194">
        <ele>1114</ele>
        <time>2022-08-17T13:44:19Z</time>
      </trkpt>
      <trkpt lat="45.6462" lon="2.89205">
        <ele>1114</ele>
        <time>2022-08-17T13:44:20Z</time>
      </trkpt>
      <trkpt lat="45.64618" lon="2.89215">
        <ele>1114</ele>
        <time>2022-08-17T13:44:21Z</time>
      </trkpt>
      <trkpt lat="45.64616" lon="2.89225">
        <ele>1114</ele>
        <time>2022-08-17T13:44:22Z</time>
      </trkpt>
      <trkpt lat="45.64614" lon="2.89236">
        <ele>1114</ele>
        <time>2022-08-17T13:44:24Z</time>
      </trkpt>
      <trkpt lat="45.64612" lon="2.89246">
        <ele>1114</ele>
        <time>2022-08-17T13:44:26Z</time>
      </trkpt>
      <trkpt lat="45.64609" lon="2.89256">
        <ele>1114</ele>
        <time>2022-08-17T13:44:28Z</time>
      </trkpt>
      <trkpt lat="45.64598" lon="2.89278">
        <ele>1114</ele>
        <time>2022-08-17T13:44:30Z</time>
      </trkpt>
      <trkpt lat="45.64595" lon="2.89285">
        <ele>1114</ele>
        <time>2022-08-17T13:44:31Z</time>
      </trkpt>
      <trkpt lat="45.64591" lon="2.89292">
        <ele>1114</ele>
        <time>2022-08-17T13:44:32Z</time>
      </trkpt>
      <trkpt lat="45.64587" lon="2.89298">
        <ele>1114</ele>
        <time>2022-08-17T13:44:33Z</time>
      </trkpt>
      <trkpt lat="45.64584" lon="2.89305">
        <ele>1114</ele>
        <time>2022-08-17T13:44:34Z</time>
      </trkpt>
      <trkpt lat="45.6458" lon="2.89312">
        <ele>1114</ele>
        <time>2022-08-17T13:44:35Z</time>
      </trkpt>
      <trkpt lat="45.64577" lon="2.89318">
        <ele>1114</ele>
        <time>2022-08-17T13:44:36Z</time>
      </trkpt>
      <trkpt lat="45.64573" lon="2.89325">
        <ele>1114</ele>
        <time>2022-08-17T13:44:37Z</time>
      </trkpt>
      <trkpt lat="45.64569" lon="2.89332">
        <ele>1113</ele>
        <time>2022-08-17T13:44:38Z</time>
      </trkpt>
      <trkpt lat="45.64562" lon="2.89346">
        <ele>1113</ele>
        <time>2022-08-17T13:44:39Z</time>
      </trkpt>
      <trkpt lat="45.64559" lon="2.89352">
        <ele>1113</ele>
        <time>2022-08-17T13:44:40Z</time>
      </trkpt>
      <trkpt lat="45.64555" lon="2.89359">
        <ele>1113</ele>
        <time>2022-08-17T13:44:41Z</time>
      </trkpt>
      <trkpt lat="45.64552" lon="2.89365">
        <ele>1113</ele>
        <time>2022-08-17T13:44:42Z</time>
      </trkpt>
      <trkpt lat="45.64548" lon="2.89372">
        <ele>1113</ele>
        <time>2022-08-17T13:44:43Z</time>
      </trkpt>
      <trkpt lat="45.64545" lon="2.89378">
        <ele>1113</ele>
        <time>2022-08-17T13:44:44Z</time>
      </trkpt>
      <trkpt lat="45.64541" lon="2.89385">
        <ele>1113</ele>
        <time>2022-08-17T13:44:45Z</time>
      </trkpt>
      <trkpt lat="45.64538" lon="2.89391">
        <ele>1113</ele>
        <time>2022-08-17T13:44:46Z</time>
      </trkpt>
      <trkpt lat="45.64534" lon="2.89397">
        <ele>1113</ele>
        <time>2022-08-17T13:44:47Z</time>
      </trkpt>
      <trkpt lat="45.6453" lon="2.89404">
        <ele>1111</ele>
        <time>2022-08-17T13:44:48Z</time>
      </trkpt>
      <trkpt lat="45.64522" lon="2.8942">
        <ele>1111</ele>
        <time>2022-08-17T13:44:49Z</time>
      </trkpt>
      <trkpt lat="45.64517" lon="2.8943">
        <ele>1111</ele>
        <time>2022-08-17T13:44:51Z</time>
      </trkpt>
      <trkpt lat="45.64511" lon="2.89439">
        <ele>1111</ele>
        <time>2022-08-17T13:44:53Z</time>
      </trkpt>
      <trkpt lat="45.64506" lon="2.89449">
        <ele>1111</ele>
        <time>2022-08-17T13:44:55Z</time>
      </trkpt>
      <trkpt lat="45.64501" lon="2.89458">
        <ele>1111</ele>
        <time>2022-08-17T13:44:56Z</time>
      </trkpt>
      <trkpt lat="45.64496" lon="2.89468">
        <ele>1111</ele>
        <time>2022-08-17T13:44:57Z</time>
      </trkpt>
      <trkpt lat="45.64491" lon="2.89477">
        <ele>1110</ele>
        <time>2022-08-17T13:44:58Z</time>
      </trkpt>
      <trkpt lat="45.6448" lon="2.8949">
        <ele>1110</ele>
        <time>2022-08-17T13:44:59Z</time>
      </trkpt>
      <trkpt lat="45.64474" lon="2.89494">
        <ele>1110</ele>
        <time>2022-08-17T13:45:00Z</time>
      </trkpt>
      <trkpt lat="45.64467" lon="2.89498">
        <ele>1110</ele>
        <time>2022-08-17T13:45:01Z</time>
      </trkpt>
      <trkpt lat="45.64461" lon="2.89502">
        <ele>1110</ele>
        <time>2022-08-17T13:45:02Z</time>
      </trkpt>
      <trkpt lat="45.64454" lon="2.89507">
        <ele>1110</ele>
        <time>2022-08-17T13:45:03Z</time>
      </trkpt>
      <trkpt lat="45.64448" lon="2.89511">
        <ele>1110</ele>
        <time>2022-08-17T13:45:04Z</time>
      </trkpt>
      <trkpt lat="45.64441" lon="2.89515">
        <ele>1110</ele>
        <time>2022-08-17T13:45:05Z</time>
      </trkpt>
      <trkpt lat="45.64435" lon="2.89519">
        <ele>1110</ele>
        <time>2022-08-17T13:45:06Z</time>
      </trkpt>
      <trkpt lat="45.64428" lon="2.89524">
        <ele>1110</ele>
        <time>2022-08-17T13:45:07Z</time>
      </trkpt>
      <trkpt lat="45.64421" lon="2.89528">
        <ele>1108</ele>
        <time>2022-08-17T13:45:08Z</time>
      </trkpt>
      <trkpt lat="45.64412" lon="2.8953">
        <ele>1108</ele>
        <time>2022-08-17T13:45:09Z</time>
      </trkpt>
      <trkpt lat="45.64402" lon="2.89533">
        <ele>1108</ele>
        <time>2022-08-17T13:45:10Z</time>
      </trkpt>
      <trkpt lat="45.64393" lon="2.89536">
        <ele>1108</ele>
        <time>2022-08-17T13:45:11Z</time>
      </trkpt>
      <trkpt lat="45.64383" lon="2.89539">
        <ele>1108</ele>
        <time>2022-08-17T13:45:12Z</time>
      </trkpt>
      <trkpt lat="45.64373" lon="2.89542">
        <ele>1108</ele>
        <time>2022-08-17T13:45:13Z</time>
      </trkpt>
      <trkpt lat="45.64363" lon="2.89546">
        <ele>1108</ele>
        <time>2022-08-17T13:45:14Z</time>
      </trkpt>
      <trkpt lat="45.64354" lon="2.8955">
        <ele>1108</ele>
        <time>2022-08-17T13:45:15Z</time>
      </trkpt>
      <trkpt lat="45.64345" lon="2.89555">
        <ele>1108</ele>
        <time>2022-08-17T13:45:16Z</time>
      </trkpt>
      <trkpt lat="45.64338" lon="2.89562">
        <ele>1108</ele>
        <time>2022-08-17T13:45:17Z</time>
      </trkpt>
      <trkpt lat="45.64332" lon="2.8957">
        <ele>1106</ele>
        <time>2022-08-17T13:45:18Z</time>
      </trkpt>
      <trkpt lat="45.64326" lon="2.89589">
        <ele>1106</ele>
        <time>2022-08-17T13:45:19Z</time>
      </trkpt>
      <trkpt lat="45.64324" lon="2.89599">
        <ele>1106</ele>
        <time>2022-08-17T13:45:20Z</time>
      </trkpt>
      <trkpt lat="45.64323" lon="2.89609">
        <ele>1106</ele>
        <time>2022-08-17T13:45:21Z</time>
      </trkpt>
      <trkpt lat="45.64322" lon="2.89619">
        <ele>1106</ele>
        <time>2022-08-17T13:45:22Z</time>
      </trkpt>
      <trkpt lat="45.6432" lon="2.89628">
        <ele>1106</ele>
        <time>2022-08-17T13:45:23Z</time>
      </trkpt>
      <trkpt lat="45.64319" lon="2.89638">
        <ele>1106</ele>
        <time>2022-08-17T13:45:24Z</time>
      </trkpt>
      <trkpt lat="45.64318" lon="2.89648">
        <ele>1106</ele>
        <time>2022-08-17T13:45:25Z</time>
      </trkpt>
      <trkpt lat="45.64317" lon="2.89658">
        <ele>1106</ele>
        <time>2022-08-17T13:45:26Z</time>
      </trkpt>
      <trkpt lat="45.64315" lon="2.89668">
        <ele>1106</ele>
        <time>2022-08-17T13:45:27Z</time>
      </trkpt>
      <trkpt lat="45.64314" lon="2.89677">
        <ele>1102</ele>
        <time>2022-08-17T13:45:28Z</time>
      </trkpt>
      <trkpt lat="45.64313" lon="2.89698">
        <ele>1102</ele>
        <time>2022-08-17T13:45:29Z</time>
      </trkpt>
      <trkpt lat="45.64313" lon="2.89708">
        <ele>1102</ele>
        <time>2022-08-17T13:45:30Z</time>
      </trkpt>
      <trkpt lat="45.64312" lon="2.89718">
        <ele>1102</ele>
        <time>2022-08-17T13:45:31Z</time>
      </trkpt>
      <trkpt lat="45.64312" lon="2.89728">
        <ele>1102</ele>
        <time>2022-08-17T13:45:32Z</time>
      </trkpt>
      <trkpt lat="45.64312" lon="2.89738">
        <ele>1102</ele>
        <time>2022-08-17T13:45:34Z</time>
      </trkpt>
      <trkpt lat="45.64311" lon="2.89748">
        <ele>1102</ele>
        <time>2022-08-17T13:45:36Z</time>
      </trkpt>
      <trkpt lat="45.64311" lon="2.89758">
        <ele>1102</ele>
        <time>2022-08-17T13:45:37Z</time>
      </trkpt>
      <trkpt lat="45.6431" lon="2.89768">
        <ele>1102</ele>
        <time>2022-08-17T13:45:38Z</time>
      </trkpt>
      <trkpt lat="45.64307" lon="2.89788">
        <ele>1102</ele>
        <time>2022-08-17T13:45:39Z</time>
      </trkpt>
      <trkpt lat="45.64305" lon="2.89798">
        <ele>1102</ele>
        <time>2022-08-17T13:45:40Z</time>
      </trkpt>
      <trkpt lat="45.64302" lon="2.89809">
        <ele>1102</ele>
        <time>2022-08-17T13:45:41Z</time>
      </trkpt>
      <trkpt lat="45.643" lon="2.8982">
        <ele>1102</ele>
        <time>2022-08-17T13:45:42Z</time>
      </trkpt>
      <trkpt lat="45.64297" lon="2.8983">
        <ele>1102</ele>
        <time>2022-08-17T13:45:44Z</time>
      </trkpt>
      <trkpt lat="45.64295" lon="2.89841">
        <ele>1102</ele>
        <time>2022-08-17T13:45:46Z</time>
      </trkpt>
      <trkpt lat="45.64292" lon="2.89851">
        <ele>1102</ele>
        <time>2022-08-17T13:45:48Z</time>
      </trkpt>
      <trkpt lat="45.64285" lon="2.8988">
        <ele>1102</ele>
        <time>2022-08-17T13:45:50Z</time>
      </trkpt>
      <trkpt lat="45.64282" lon="2.89893">
        <ele>1102</ele>
        <time>2022-08-17T13:45:52Z</time>
      </trkpt>
      <trkpt lat="45.64279" lon="2.89906">
        <ele>1102</ele>
        <time>2022-08-17T13:45:54Z</time>
      </trkpt>
      <trkpt lat="45.64275" lon="2.89919">
        <ele>1102</ele>
        <time>2022-08-17T13:45:56Z</time>
      </trkpt>
      <trkpt lat="45.64272" lon="2.89931">
        <ele>1102</ele>
        <time>2022-08-17T13:45:58Z</time>
      </trkpt>
      <trkpt lat="45.64265" lon="2.89961">
        <ele>1102</ele>
        <time>2022-08-17T13:46:00Z</time>
      </trkpt>
      <trkpt lat="45.64263" lon="2.89973">
        <ele>1102</ele>
        <time>2022-08-17T13:46:02Z</time>
      </trkpt>
      <trkpt lat="45.6426" lon="2.89986">
        <ele>1102</ele>
        <time>2022-08-17T13:46:04Z</time>
      </trkpt>
      <trkpt lat="45.64258" lon="2.89998">
        <ele>1102</ele>
        <time>2022-08-17T13:46:06Z</time>
      </trkpt>
      <trkpt lat="45.64256" lon="2.90011">
        <ele>1102</ele>
        <time>2022-08-17T13:46:08Z</time>
      </trkpt>
      <trkpt lat="45.64254" lon="2.90035">
        <ele>1102</ele>
        <time>2022-08-17T13:46:09Z</time>
      </trkpt>
      <trkpt lat="45.64254" lon="2.90053">
        <ele>1102</ele>
        <time>2022-08-17T13:46:10Z</time>
      </trkpt>
      <trkpt lat="45.64253" lon="2.90071">
        <ele>1102</ele>
        <time>2022-08-17T13:46:12Z</time>
      </trkpt>
      <trkpt lat="45.64253" lon="2.90088">
        <ele>1102</ele>
        <time>2022-08-17T13:46:14Z</time>
      </trkpt>
      <trkpt lat="45.64252" lon="2.90106">
        <ele>1102</ele>
        <time>2022-08-17T13:46:16Z</time>
      </trkpt>
      <trkpt lat="45.64252" lon="2.90124">
        <ele>1100</ele>
        <time>2022-08-17T13:46:18Z</time>
      </trkpt>
      <trkpt lat="45.64246" lon="2.90167">
        <ele>1100</ele>
        <time>2022-08-17T13:46:20Z</time>
      </trkpt>
      <trkpt lat="45.64242" lon="2.90186">
        <ele>1100</ele>
        <time>2022-08-17T13:46:22Z</time>
      </trkpt>
      <trkpt lat="45.64238" lon="2.90205">
        <ele>1100</ele>
        <time>2022-08-17T13:46:24Z</time>
      </trkpt>
      <trkpt lat="45.64233" lon="2.90224">
        <ele>1100</ele>
        <time>2022-08-17T13:46:26Z</time>
      </trkpt>
      <trkpt lat="45.64229" lon="2.90244">
        <ele>1098</ele>
        <time>2022-08-17T13:46:28Z</time>
      </trkpt>
      <trkpt lat="45.64224" lon="2.90255">
        <ele>1098</ele>
        <time>2022-08-17T13:46:29Z</time>
      </trkpt>
      <trkpt lat="45.64212" lon="2.90277">
        <ele>1098</ele>
        <time>2022-08-17T13:46:31Z</time>
      </trkpt>
      <trkpt lat="45.64199" lon="2.90298">
        <ele>1098</ele>
        <time>2022-08-17T13:46:33Z</time>
      </trkpt>
      <trkpt lat="45.64187" lon="2.90319">
        <ele>1098</ele>
        <time>2022-08-17T13:46:35Z</time>
      </trkpt>
      <trkpt lat="45.64176" lon="2.9034">
        <ele>1098</ele>
        <time>2022-08-17T13:46:37Z</time>
      </trkpt>
      <trkpt lat="45.6417" lon="2.9035">
        <ele>1092</ele>
        <time>2022-08-17T13:46:38Z</time>
      </trkpt>
      <trkpt lat="45.6416" lon="2.90375">
        <ele>1092</ele>
        <time>2022-08-17T13:46:39Z</time>
      </trkpt>
      <trkpt lat="45.64154" lon="2.90391">
        <ele>1092</ele>
        <time>2022-08-17T13:46:41Z</time>
      </trkpt>
      <trkpt lat="45.64149" lon="2.90407">
        <ele>1092</ele>
        <time>2022-08-17T13:46:43Z</time>
      </trkpt>
      <trkpt lat="45.64144" lon="2.90422">
        <ele>1092</ele>
        <time>2022-08-17T13:46:45Z</time>
      </trkpt>
      <trkpt lat="45.64139" lon="2.90438">
        <ele>1092</ele>
        <time>2022-08-17T13:46:47Z</time>
      </trkpt>
      <trkpt lat="45.64134" lon="2.90454">
        <ele>1089</ele>
        <time>2022-08-17T13:46:48Z</time>
      </trkpt>
      <trkpt lat="45.64134" lon="2.90483">
        <ele>1089</ele>
        <time>2022-08-17T13:46:49Z</time>
      </trkpt>
      <trkpt lat="45.64134" lon="2.905">
        <ele>1089</ele>
        <time>2022-08-17T13:46:51Z</time>
      </trkpt>
      <trkpt lat="45.64135" lon="2.90517">
        <ele>1089</ele>
        <time>2022-08-17T13:46:53Z</time>
      </trkpt>
      <trkpt lat="45.64136" lon="2.90535">
        <ele>1089</ele>
        <time>2022-08-17T13:46:55Z</time>
      </trkpt>
      <trkpt lat="45.64136" lon="2.90552">
        <ele>1089</ele>
        <time>2022-08-17T13:46:57Z</time>
      </trkpt>
      <trkpt lat="45.64137" lon="2.90569">
        <ele>1090</ele>
        <time>2022-08-17T13:46:58Z</time>
      </trkpt>
      <trkpt lat="45.64146" lon="2.90592">
        <ele>1090</ele>
        <time>2022-08-17T13:46:59Z</time>
      </trkpt>
      <trkpt lat="45.64155" lon="2.90605">
        <ele>1090</ele>
        <time>2022-08-17T13:47:01Z</time>
      </trkpt>
      <trkpt lat="45.64163" lon="2.90617">
        <ele>1090</ele>
        <time>2022-08-17T13:47:03Z</time>
      </trkpt>
      <trkpt lat="45.64172" lon="2.90629">
        <ele>1090</ele>
        <time>2022-08-17T13:47:05Z</time>
      </trkpt>
      <trkpt lat="45.6418" lon="2.90641">
        <ele>1090</ele>
        <time>2022-08-17T13:47:07Z</time>
      </trkpt>
      <trkpt lat="45.64188" lon="2.90653">
        <ele>1086</ele>
        <time>2022-08-17T13:47:08Z</time>
      </trkpt>
      <trkpt lat="45.642" lon="2.9067">
        <ele>1086</ele>
        <time>2022-08-17T13:47:09Z</time>
      </trkpt>
      <trkpt lat="45.64207" lon="2.9068">
        <ele>1086</ele>
        <time>2022-08-17T13:47:10Z</time>
      </trkpt>
      <trkpt lat="45.64213" lon="2.90689">
        <ele>1086</ele>
        <time>2022-08-17T13:47:11Z</time>
      </trkpt>
      <trkpt lat="45.64219" lon="2.90699">
        <ele>1086</ele>
        <time>2022-08-17T13:47:12Z</time>
      </trkpt>
      <trkpt lat="45.64225" lon="2.90708">
        <ele>1086</ele>
        <time>2022-08-17T13:47:13Z</time>
      </trkpt>
      <trkpt lat="45.64231" lon="2.90718">
        <ele>1086</ele>
        <time>2022-08-17T13:47:15Z</time>
      </trkpt>
      <trkpt lat="45.64237" lon="2.90727">
        <ele>1086</ele>
        <time>2022-08-17T13:47:17Z</time>
      </trkpt>
      <trkpt lat="45.64244" lon="2.90736">
        <ele>1086</ele>
        <time>2022-08-17T13:47:18Z</time>
      </trkpt>
      <trkpt lat="45.64256" lon="2.90756">
        <ele>1086</ele>
        <time>2022-08-17T13:47:19Z</time>
      </trkpt>
      <trkpt lat="45.64263" lon="2.90768">
        <ele>1086</ele>
        <time>2022-08-17T13:47:21Z</time>
      </trkpt>
      <trkpt lat="45.6427" lon="2.9078">
        <ele>1086</ele>
        <time>2022-08-17T13:47:23Z</time>
      </trkpt>
      <trkpt lat="45.64277" lon="2.90792">
        <ele>1086</ele>
        <time>2022-08-17T13:47:25Z</time>
      </trkpt>
      <trkpt lat="45.64283" lon="2.90804">
        <ele>1086</ele>
        <time>2022-08-17T13:47:27Z</time>
      </trkpt>
      <trkpt lat="45.6429" lon="2.90816">
        <ele>1086</ele>
        <time>2022-08-17T13:47:28Z</time>
      </trkpt>
      <trkpt lat="45.64296" lon="2.9084">
        <ele>1086</ele>
        <time>2022-08-17T13:47:29Z</time>
      </trkpt>
      <trkpt lat="45.643" lon="2.90855">
        <ele>1086</ele>
        <time>2022-08-17T13:47:31Z</time>
      </trkpt>
      <trkpt lat="45.64304" lon="2.9087">
        <ele>1086</ele>
        <time>2022-08-17T13:47:33Z</time>
      </trkpt>
      <trkpt lat="45.64307" lon="2.90885">
        <ele>1086</ele>
        <time>2022-08-17T13:47:35Z</time>
      </trkpt>
      <trkpt lat="45.64311" lon="2.909">
        <ele>1086</ele>
        <time>2022-08-17T13:47:37Z</time>
      </trkpt>
      <trkpt lat="45.64315" lon="2.90915">
        <ele>1084</ele>
        <time>2022-08-17T13:47:38Z</time>
      </trkpt>
      <trkpt lat="45.64325" lon="2.90937">
        <ele>1084</ele>
        <time>2022-08-17T13:47:39Z</time>
      </trkpt>
      <trkpt lat="45.64333" lon="2.90948">
        <ele>1084</ele>
        <time>2022-08-17T13:47:41Z</time>
      </trkpt>
      <trkpt lat="45.64341" lon="2.9096">
        <ele>1084</ele>
        <time>2022-08-17T13:47:43Z</time>
      </trkpt>
      <trkpt lat="45.64349" lon="2.90972">
        <ele>1084</ele>
        <time>2022-08-17T13:47:45Z</time>
      </trkpt>
      <trkpt lat="45.64357" lon="2.90984">
        <ele>1084</ele>
        <time>2022-08-17T13:47:47Z</time>
      </trkpt>
      <trkpt lat="45.64365" lon="2.90996">
        <ele>1083</ele>
        <time>2022-08-17T13:47:48Z</time>
      </trkpt>
      <trkpt lat="45.64376" lon="2.91017">
        <ele>1083</ele>
        <time>2022-08-17T13:47:49Z</time>
      </trkpt>
      <trkpt lat="45.64383" lon="2.9103">
        <ele>1083</ele>
        <time>2022-08-17T13:47:51Z</time>
      </trkpt>
      <trkpt lat="45.6439" lon="2.91043">
        <ele>1083</ele>
        <time>2022-08-17T13:47:53Z</time>
      </trkpt>
      <trkpt lat="45.64396" lon="2.91056">
        <ele>1083</ele>
        <time>2022-08-17T13:47:55Z</time>
      </trkpt>
      <trkpt lat="45.64403" lon="2.91069">
        <ele>1083</ele>
        <time>2022-08-17T13:47:57Z</time>
      </trkpt>
      <trkpt lat="45.64409" lon="2.91082">
        <ele>1082</ele>
        <time>2022-08-17T13:47:58Z</time>
      </trkpt>
      <trkpt lat="45.64414" lon="2.91107">
        <ele>1082</ele>
        <time>2022-08-17T13:47:59Z</time>
      </trkpt>
      <trkpt lat="45.64414" lon="2.91123">
        <ele>1082</ele>
        <time>2022-08-17T13:48:01Z</time>
      </trkpt>
      <trkpt lat="45.64414" lon="2.91138">
        <ele>1082</ele>
        <time>2022-08-17T13:48:03Z</time>
      </trkpt>
      <trkpt lat="45.64414" lon="2.91154">
        <ele>1082</ele>
        <time>2022-08-17T13:48:05Z</time>
      </trkpt>
      <trkpt lat="45.64414" lon="2.9117">
        <ele>1082</ele>
        <time>2022-08-17T13:48:07Z</time>
      </trkpt>
      <trkpt lat="45.64414" lon="2.91186">
        <ele>1080</ele>
        <time>2022-08-17T13:48:08Z</time>
      </trkpt>
      <trkpt lat="45.64411" lon="2.91214">
        <ele>1080</ele>
        <time>2022-08-17T13:48:09Z</time>
      </trkpt>
      <trkpt lat="45.64412" lon="2.91231">
        <ele>1080</ele>
        <time>2022-08-17T13:48:11Z</time>
      </trkpt>
      <trkpt lat="45.64412" lon="2.91248">
        <ele>1080</ele>
        <time>2022-08-17T13:48:13Z</time>
      </trkpt>
      <trkpt lat="45.64412" lon="2.91265">
        <ele>1080</ele>
        <time>2022-08-17T13:48:15Z</time>
      </trkpt>
      <trkpt lat="45.64412" lon="2.91282">
        <ele>1080</ele>
        <time>2022-08-17T13:48:17Z</time>
      </trkpt>
      <trkpt lat="45.64412" lon="2.91299">
        <ele>1078</ele>
        <time>2022-08-17T13:48:18Z</time>
      </trkpt>
      <trkpt lat="45.64418" lon="2.91325">
        <ele>1078</ele>
        <time>2022-08-17T13:48:19Z</time>
      </trkpt>
      <trkpt lat="45.64422" lon="2.91339">
        <ele>1078</ele>
        <time>2022-08-17T13:48:21Z</time>
      </trkpt>
      <trkpt lat="45.64427" lon="2.91354">
        <ele>1078</ele>
        <time>2022-08-17T13:48:23Z</time>
      </trkpt>
      <trkpt lat="45.64431" lon="2.91368">
        <ele>1078</ele>
        <time>2022-08-17T13:48:25Z</time>
      </trkpt>
      <trkpt lat="45.64435" lon="2.91383">
        <ele>1078</ele>
        <time>2022-08-17T13:48:27Z</time>
      </trkpt>
      <trkpt lat="45.6444" lon="2.91397">
        <ele>1076</ele>
        <time>2022-08-17T13:48:28Z</time>
      </trkpt>
      <trkpt lat="45.64447" lon="2.9142">
        <ele>1076</ele>
        <time>2022-08-17T13:48:29Z</time>
      </trkpt>
      <trkpt lat="45.64451" lon="2.91433">
        <ele>1076</ele>
        <time>2022-08-17T13:48:31Z</time>
      </trkpt>
      <trkpt lat="45.64454" lon="2.91447">
        <ele>1076</ele>
        <time>2022-08-17T13:48:33Z</time>
      </trkpt>
      <trkpt lat="45.64457" lon="2.9146">
        <ele>1076</ele>
        <time>2022-08-17T13:48:35Z</time>
      </trkpt>
      <trkpt lat="45.64461" lon="2.91474">
        <ele>1076</ele>
        <time>2022-08-17T13:48:36Z</time>
      </trkpt>
      <trkpt lat="45.64464" lon="2.91487">
        <ele>1076</ele>
        <time>2022-08-17T13:48:37Z</time>
      </trkpt>
      <trkpt lat="45.64467" lon="2.91501">
        <ele>1072</ele>
        <time>2022-08-17T13:48:38Z</time>
      </trkpt>
      <trkpt lat="45.64471" lon="2.91523">
        <ele>1072</ele>
        <time>2022-08-17T13:48:39Z</time>
      </trkpt>
      <trkpt lat="45.64473" lon="2.91534">
        <ele>1072</ele>
        <time>2022-08-17T13:48:40Z</time>
      </trkpt>
      <trkpt lat="45.64476" lon="2.91544">
        <ele>1072</ele>
        <time>2022-08-17T13:48:41Z</time>
      </trkpt>
      <trkpt lat="45.64478" lon="2.91555">
        <ele>1072</ele>
        <time>2022-08-17T13:48:42Z</time>
      </trkpt>
      <trkpt lat="45.6448" lon="2.91565">
        <ele>1072</ele>
        <time>2022-08-17T13:48:43Z</time>
      </trkpt>
      <trkpt lat="45.64483" lon="2.91576">
        <ele>1072</ele>
        <time>2022-08-17T13:48:44Z</time>
      </trkpt>
      <trkpt lat="45.64485" lon="2.91586">
        <ele>1072</ele>
        <time>2022-08-17T13:48:45Z</time>
      </trkpt>
      <trkpt lat="45.64488" lon="2.91597">
        <ele>1072</ele>
        <time>2022-08-17T13:48:46Z</time>
      </trkpt>
      <trkpt lat="45.6449" lon="2.91607">
        <ele>1072</ele>
        <time>2022-08-17T13:48:47Z</time>
      </trkpt>
      <trkpt lat="45.64493" lon="2.91618">
        <ele>1071</ele>
        <time>2022-08-17T13:48:48Z</time>
      </trkpt>
      <trkpt lat="45.64501" lon="2.91638">
        <ele>1071</ele>
        <time>2022-08-17T13:48:49Z</time>
      </trkpt>
      <trkpt lat="45.64504" lon="2.91647">
        <ele>1071</ele>
        <time>2022-08-17T13:48:50Z</time>
      </trkpt>
      <trkpt lat="45.64507" lon="2.91657">
        <ele>1071</ele>
        <time>2022-08-17T13:48:51Z</time>
      </trkpt>
      <trkpt lat="45.64511" lon="2.91666">
        <ele>1071</ele>
        <time>2022-08-17T13:48:52Z</time>
      </trkpt>
      <trkpt lat="45.64514" lon="2.91675">
        <ele>1071</ele>
        <time>2022-08-17T13:48:53Z</time>
      </trkpt>
      <trkpt lat="45.64518" lon="2.91685">
        <ele>1071</ele>
        <time>2022-08-17T13:48:54Z</time>
      </trkpt>
      <trkpt lat="45.64521" lon="2.91694">
        <ele>1071</ele>
        <time>2022-08-17T13:48:55Z</time>
      </trkpt>
      <trkpt lat="45.64524" lon="2.91704">
        <ele>1071</ele>
        <time>2022-08-17T13:48:56Z</time>
      </trkpt>
      <trkpt lat="45.64528" lon="2.91713">
        <ele>1071</ele>
        <time>2022-08-17T13:48:57Z</time>
      </trkpt>
      <trkpt lat="45.64531" lon="2.91722">
        <ele>1067</ele>
        <time>2022-08-17T13:48:58Z</time>
      </trkpt>
      <trkpt lat="45.64528" lon="2.91742">
        <ele>1067</ele>
        <time>2022-08-17T13:48:59Z</time>
      </trkpt>
      <trkpt lat="45.64523" lon="2.9175">
        <ele>1067</ele>
        <time>2022-08-17T13:49:00Z</time>
      </trkpt>
      <trkpt lat="45.64519" lon="2.91758">
        <ele>1067</ele>
        <time>2022-08-17T13:49:01Z</time>
      </trkpt>
      <trkpt lat="45.64515" lon="2.91766">
        <ele>1067</ele>
        <time>2022-08-17T13:49:02Z</time>
      </trkpt>
      <trkpt lat="45.64511" lon="2.91774">
        <ele>1067</ele>
        <time>2022-08-17T13:49:03Z</time>
      </trkpt>
      <trkpt lat="45.64506" lon="2.91782">
        <ele>1067</ele>
        <time>2022-08-17T13:49:04Z</time>
      </trkpt>
      <trkpt lat="45.64502" lon="2.9179">
        <ele>1067</ele>
        <time>2022-08-17T13:49:05Z</time>
      </trkpt>
      <trkpt lat="45.64498" lon="2.91798">
        <ele>1067</ele>
        <time>2022-08-17T13:49:06Z</time>
      </trkpt>
      <trkpt lat="45.64493" lon="2.91806">
        <ele>1067</ele>
        <time>2022-08-17T13:49:07Z</time>
      </trkpt>
      <trkpt lat="45.64489" lon="2.91814">
        <ele>1065</ele>
        <time>2022-08-17T13:49:08Z</time>
      </trkpt>
      <trkpt lat="45.64483" lon="2.91822">
        <ele>1065</ele>
        <time>2022-08-17T13:49:09Z</time>
      </trkpt>
      <trkpt lat="45.64476" lon="2.91829">
        <ele>1065</ele>
        <time>2022-08-17T13:49:10Z</time>
      </trkpt>
      <trkpt lat="45.64469" lon="2.91836">
        <ele>1065</ele>
        <time>2022-08-17T13:49:11Z</time>
      </trkpt>
      <trkpt lat="45.64461" lon="2.91843">
        <ele>1065</ele>
        <time>2022-08-17T13:49:12Z</time>
      </trkpt>
      <trkpt lat="45.64453" lon="2.9185">
        <ele>1065</ele>
        <time>2022-08-17T13:49:13Z</time>
      </trkpt>
      <trkpt lat="45.64445" lon="2.91856">
        <ele>1065</ele>
        <time>2022-08-17T13:49:14Z</time>
      </trkpt>
      <trkpt lat="45.64435" lon="2.91859">
        <ele>1065</ele>
        <time>2022-08-17T13:49:15Z</time>
      </trkpt>
      <trkpt lat="45.64425" lon="2.9186">
        <ele>1065</ele>
        <time>2022-08-17T13:49:16Z</time>
      </trkpt>
      <trkpt lat="45.64414" lon="2.91859">
        <ele>1065</ele>
        <time>2022-08-17T13:49:17Z</time>
      </trkpt>
      <trkpt lat="45.64404" lon="2.91857">
        <ele>1064</ele>
        <time>2022-08-17T13:49:18Z</time>
      </trkpt>
      <trkpt lat="45.64393" lon="2.91854">
        <ele>1064</ele>
        <time>2022-08-17T13:49:19Z</time>
      </trkpt>
      <trkpt lat="45.64383" lon="2.91852">
        <ele>1064</ele>
        <time>2022-08-17T13:49:20Z</time>
      </trkpt>
      <trkpt lat="45.64372" lon="2.9185">
        <ele>1064</ele>
        <time>2022-08-17T13:49:21Z</time>
      </trkpt>
      <trkpt lat="45.64362" lon="2.91848">
        <ele>1064</ele>
        <time>2022-08-17T13:49:22Z</time>
      </trkpt>
      <trkpt lat="45.64352" lon="2.91846">
        <ele>1064</ele>
        <time>2022-08-17T13:49:23Z</time>
      </trkpt>
      <trkpt lat="45.64342" lon="2.91844">
        <ele>1064</ele>
        <time>2022-08-17T13:49:24Z</time>
      </trkpt>
      <trkpt lat="45.64332" lon="2.91843">
        <ele>1064</ele>
        <time>2022-08-17T13:49:25Z</time>
      </trkpt>
      <trkpt lat="45.64322" lon="2.91843">
        <ele>1064</ele>
        <time>2022-08-17T13:49:26Z</time>
      </trkpt>
      <trkpt lat="45.64313" lon="2.91843">
        <ele>1064</ele>
        <time>2022-08-17T13:49:27Z</time>
      </trkpt>
      <trkpt lat="45.64305" lon="2.91844">
        <ele>1053</ele>
        <time>2022-08-17T13:49:28Z</time>
      </trkpt>
      <trkpt lat="45.64289" lon="2.91848">
        <ele>1053</ele>
        <time>2022-08-17T13:49:29Z</time>
      </trkpt>
      <trkpt lat="45.64283" lon="2.9185">
        <ele>1053</ele>
        <time>2022-08-17T13:49:30Z</time>
      </trkpt>
      <trkpt lat="45.64276" lon="2.91852">
        <ele>1053</ele>
        <time>2022-08-17T13:49:31Z</time>
      </trkpt>
      <trkpt lat="45.64269" lon="2.91855">
        <ele>1053</ele>
        <time>2022-08-17T13:49:32Z</time>
      </trkpt>
      <trkpt lat="45.64262" lon="2.91857">
        <ele>1053</ele>
        <time>2022-08-17T13:49:33Z</time>
      </trkpt>
      <trkpt lat="45.64255" lon="2.91859">
        <ele>1053</ele>
        <time>2022-08-17T13:49:34Z</time>
      </trkpt>
      <trkpt lat="45.64248" lon="2.91862">
        <ele>1053</ele>
        <time>2022-08-17T13:49:35Z</time>
      </trkpt>
      <trkpt lat="45.64241" lon="2.91864">
        <ele>1053</ele>
        <time>2022-08-17T13:49:36Z</time>
      </trkpt>
      <trkpt lat="45.64234" lon="2.91866">
        <ele>1044</ele>
        <time>2022-08-17T13:49:38Z</time>
      </trkpt>
      <trkpt lat="45.64224" lon="2.91878">
        <ele>1044</ele>
        <time>2022-08-17T13:49:39Z</time>
      </trkpt>
      <trkpt lat="45.64219" lon="2.91886">
        <ele>1044</ele>
        <time>2022-08-17T13:49:40Z</time>
      </trkpt>
      <trkpt lat="45.64214" lon="2.91894">
        <ele>1044</ele>
        <time>2022-08-17T13:49:41Z</time>
      </trkpt>
      <trkpt lat="45.64209" lon="2.91901">
        <ele>1044</ele>
        <time>2022-08-17T13:49:42Z</time>
      </trkpt>
      <trkpt lat="45.64204" lon="2.91909">
        <ele>1044</ele>
        <time>2022-08-17T13:49:43Z</time>
      </trkpt>
      <trkpt lat="45.64198" lon="2.91917">
        <ele>1044</ele>
        <time>2022-08-17T13:49:45Z</time>
      </trkpt>
      <trkpt lat="45.64193" lon="2.91924">
        <ele>1044</ele>
        <time>2022-08-17T13:49:47Z</time>
      </trkpt>
      <trkpt lat="45.64188" lon="2.91932">
        <ele>1038</ele>
        <time>2022-08-17T13:49:48Z</time>
      </trkpt>
      <trkpt lat="45.64169" lon="2.91946">
        <ele>1038</ele>
        <time>2022-08-17T13:49:50Z</time>
      </trkpt>
      <trkpt lat="45.64164" lon="2.91957">
        <ele>1038</ele>
        <time>2022-08-17T13:49:52Z</time>
      </trkpt>
      <trkpt lat="45.64159" lon="2.91968">
        <ele>1038</ele>
        <time>2022-08-17T13:49:54Z</time>
      </trkpt>
      <trkpt lat="45.64155" lon="2.91979">
        <ele>1038</ele>
        <time>2022-08-17T13:49:56Z</time>
      </trkpt>
      <trkpt lat="45.6415" lon="2.9199">
        <ele>1035</ele>
        <time>2022-08-17T13:49:58Z</time>
      </trkpt>
      <trkpt lat="45.64157" lon="2.92021">
        <ele>1035</ele>
        <time>2022-08-17T13:50:00Z</time>
      </trkpt>
      <trkpt lat="45.64161" lon="2.92035">
        <ele>1035</ele>
        <time>2022-08-17T13:50:02Z</time>
      </trkpt>
      <trkpt lat="45.64165" lon="2.92049">
        <ele>1035</ele>
        <time>2022-08-17T13:50:04Z</time>
      </trkpt>
      <trkpt lat="45.64169" lon="2.92063">
        <ele>1035</ele>
        <time>2022-08-17T13:50:06Z</time>
      </trkpt>
      <trkpt lat="45.64173" lon="2.92076">
        <ele>1034</ele>
        <time>2022-08-17T13:50:08Z</time>
      </trkpt>
      <trkpt lat="45.64184" lon="2.92102">
        <ele>1034</ele>
        <time>2022-08-17T13:50:10Z</time>
      </trkpt>
      <trkpt lat="45.64188" lon="2.92111">
        <ele>1034</ele>
        <time>2022-08-17T13:50:11Z</time>
      </trkpt>
      <trkpt lat="45.64192" lon="2.92119">
        <ele>1034</ele>
        <time>2022-08-17T13:50:12Z</time>
      </trkpt>
      <trkpt lat="45.64196" lon="2.92128">
        <ele>1034</ele>
        <time>2022-08-17T13:50:13Z</time>
      </trkpt>
      <trkpt lat="45.642" lon="2.92137">
        <ele>1034</ele>
        <time>2022-08-17T13:50:14Z</time>
      </trkpt>
      <trkpt lat="45.64204" lon="2.92145">
        <ele>1034</ele>
        <time>2022-08-17T13:50:15Z</time>
      </trkpt>
      <trkpt lat="45.64208" lon="2.92154">
        <ele>1034</ele>
        <time>2022-08-17T13:50:16Z</time>
      </trkpt>
      <trkpt lat="45.64212" lon="2.92162">
        <ele>1034</ele>
        <time>2022-08-17T13:50:17Z</time>
      </trkpt>
      <trkpt lat="45.64215" lon="2.92171">
        <ele>1032</ele>
        <time>2022-08-17T13:50:18Z</time>
      </trkpt>
      <trkpt lat="45.64219" lon="2.92182">
        <ele>1032</ele>
        <time>2022-08-17T13:50:19Z</time>
      </trkpt>
      <trkpt lat="45.64222" lon="2.92194">
        <ele>1032</ele>
        <time>2022-08-17T13:50:20Z</time>
      </trkpt>
      <trkpt lat="45.64225" lon="2.92207">
        <ele>1032</ele>
        <time>2022-08-17T13:50:21Z</time>
      </trkpt>
      <trkpt lat="45.64227" lon="2.9222">
        <ele>1032</ele>
        <time>2022-08-17T13:50:22Z</time>
      </trkpt>
      <trkpt lat="45.64228" lon="2.92233">
        <ele>1032</ele>
        <time>2022-08-17T13:50:23Z</time>
      </trkpt>
      <trkpt lat="45.64229" lon="2.92247">
        <ele>1032</ele>
        <time>2022-08-17T13:50:24Z</time>
      </trkpt>
      <trkpt lat="45.6423" lon="2.92261">
        <ele>1032</ele>
        <time>2022-08-17T13:50:25Z</time>
      </trkpt>
      <trkpt lat="45.6423" lon="2.92275">
        <ele>1032</ele>
        <time>2022-08-17T13:50:26Z</time>
      </trkpt>
      <trkpt lat="45.64231" lon="2.92289">
        <ele>1032</ele>
        <time>2022-08-17T13:50:27Z</time>
      </trkpt>
      <trkpt lat="45.64231" lon="2.92302">
        <ele>1026</ele>
        <time>2022-08-17T13:50:28Z</time>
      </trkpt>
      <trkpt lat="45.64232" lon="2.92316">
        <ele>1026</ele>
        <time>2022-08-17T13:50:29Z</time>
      </trkpt>
      <trkpt lat="45.64232" lon="2.9233">
        <ele>1026</ele>
        <time>2022-08-17T13:50:30Z</time>
      </trkpt>
      <trkpt lat="45.64233" lon="2.92343">
        <ele>1026</ele>
        <time>2022-08-17T13:50:31Z</time>
      </trkpt>
      <trkpt lat="45.64233" lon="2.92357">
        <ele>1026</ele>
        <time>2022-08-17T13:50:32Z</time>
      </trkpt>
      <trkpt lat="45.64233" lon="2.92371">
        <ele>1026</ele>
        <time>2022-08-17T13:50:33Z</time>
      </trkpt>
      <trkpt lat="45.64232" lon="2.92385">
        <ele>1026</ele>
        <time>2022-08-17T13:50:34Z</time>
      </trkpt>
      <trkpt lat="45.64231" lon="2.92398">
        <ele>1026</ele>
        <time>2022-08-17T13:50:35Z</time>
      </trkpt>
      <trkpt lat="45.6423" lon="2.92412">
        <ele>1026</ele>
        <time>2022-08-17T13:50:36Z</time>
      </trkpt>
      <trkpt lat="45.64229" lon="2.92425">
        <ele>1026</ele>
        <time>2022-08-17T13:50:37Z</time>
      </trkpt>
      <trkpt lat="45.64228" lon="2.9244">
        <ele>1021</ele>
        <time>2022-08-17T13:50:38Z</time>
      </trkpt>
      <trkpt lat="45.64227" lon="2.92454">
        <ele>1021</ele>
        <time>2022-08-17T13:50:39Z</time>
      </trkpt>
      <trkpt lat="45.64226" lon="2.92468">
        <ele>1021</ele>
        <time>2022-08-17T13:50:40Z</time>
      </trkpt>
      <trkpt lat="45.64225" lon="2.92483">
        <ele>1021</ele>
        <time>2022-08-17T13:50:41Z</time>
      </trkpt>
      <trkpt lat="45.64224" lon="2.92498">
        <ele>1021</ele>
        <time>2022-08-17T13:50:42Z</time>
      </trkpt>
      <trkpt lat="45.64223" lon="2.92512">
        <ele>1021</ele>
        <time>2022-08-17T13:50:43Z</time>
      </trkpt>
      <trkpt lat="45.64222" lon="2.92526">
        <ele>1021</ele>
        <time>2022-08-17T13:50:44Z</time>
      </trkpt>
      <trkpt lat="45.64221" lon="2.92541">
        <ele>1021</ele>
        <time>2022-08-17T13:50:45Z</time>
      </trkpt>
      <trkpt lat="45.64219" lon="2.92555">
        <ele>1021</ele>
        <time>2022-08-17T13:50:46Z</time>
      </trkpt>
      <trkpt lat="45.64217" lon="2.92569">
        <ele>1021</ele>
        <time>2022-08-17T13:50:47Z</time>
      </trkpt>
      <trkpt lat="45.64215" lon="2.92584">
        <ele>1019</ele>
        <time>2022-08-17T13:50:48Z</time>
      </trkpt>
      <trkpt lat="45.64213" lon="2.92598">
        <ele>1019</ele>
        <time>2022-08-17T13:50:49Z</time>
      </trkpt>
      <trkpt lat="45.64211" lon="2.92612">
        <ele>1019</ele>
        <time>2022-08-17T13:50:50Z</time>
      </trkpt>
      <trkpt lat="45.6421" lon="2.92627">
        <ele>1019</ele>
        <time>2022-08-17T13:50:51Z</time>
      </trkpt>
      <trkpt lat="45.64206" lon="2.92656">
        <ele>1019</ele>
        <time>2022-08-17T13:50:53Z</time>
      </trkpt>
      <trkpt lat="45.64203" lon="2.9267">
        <ele>1019</ele>
        <time>2022-08-17T13:50:54Z</time>
      </trkpt>
      <trkpt lat="45.64199" lon="2.92684">
        <ele>1019</ele>
        <time>2022-08-17T13:50:55Z</time>
      </trkpt>
      <trkpt lat="45.64193" lon="2.92696">
        <ele>1019</ele>
        <time>2022-08-17T13:50:56Z</time>
      </trkpt>
      <trkpt lat="45.64185" lon="2.92709">
        <ele>1019</ele>
        <time>2022-08-17T13:50:57Z</time>
      </trkpt>
      <trkpt lat="45.64178" lon="2.92722">
        <ele>1012</ele>
        <time>2022-08-17T13:50:58Z</time>
      </trkpt>
      <trkpt lat="45.64171" lon="2.92734">
        <ele>1012</ele>
        <time>2022-08-17T13:50:59Z</time>
      </trkpt>
      <trkpt lat="45.64164" lon="2.92747">
        <ele>1012</ele>
        <time>2022-08-17T13:51:00Z</time>
      </trkpt>
      <trkpt lat="45.64158" lon="2.9276">
        <ele>1012</ele>
        <time>2022-08-17T13:51:01Z</time>
      </trkpt>
      <trkpt lat="45.64153" lon="2.92774">
        <ele>1012</ele>
        <time>2022-08-17T13:51:02Z</time>
      </trkpt>
      <trkpt lat="45.64149" lon="2.92789">
        <ele>1012</ele>
        <time>2022-08-17T13:51:03Z</time>
      </trkpt>
      <trkpt lat="45.64147" lon="2.92804">
        <ele>1012</ele>
        <time>2022-08-17T13:51:04Z</time>
      </trkpt>
      <trkpt lat="45.64145" lon="2.9282">
        <ele>1012</ele>
        <time>2022-08-17T13:51:05Z</time>
      </trkpt>
      <trkpt lat="45.64144" lon="2.92836">
        <ele>1012</ele>
        <time>2022-08-17T13:51:06Z</time>
      </trkpt>
      <trkpt lat="45.64143" lon="2.92858">
        <ele>1012</ele>
        <time>2022-08-17T13:51:07Z</time>
      </trkpt>
      <trkpt lat="45.64144" lon="2.92865">
        <ele>1008</ele>
        <time>2022-08-17T13:51:08Z</time>
      </trkpt>
      <trkpt lat="45.64143" lon="2.9289">
        <ele>1008</ele>
        <time>2022-08-17T13:51:09Z</time>
      </trkpt>
      <trkpt lat="45.64142" lon="2.92901">
        <ele>1008</ele>
        <time>2022-08-17T13:51:10Z</time>
      </trkpt>
      <trkpt lat="45.64142" lon="2.92912">
        <ele>1008</ele>
        <time>2022-08-17T13:51:11Z</time>
      </trkpt>
      <trkpt lat="45.64141" lon="2.92924">
        <ele>1008</ele>
        <time>2022-08-17T13:51:12Z</time>
      </trkpt>
      <trkpt lat="45.6414" lon="2.92935">
        <ele>1008</ele>
        <time>2022-08-17T13:51:13Z</time>
      </trkpt>
      <trkpt lat="45.6414" lon="2.92946">
        <ele>1008</ele>
        <time>2022-08-17T13:51:14Z</time>
      </trkpt>
      <trkpt lat="45.64139" lon="2.92957">
        <ele>1008</ele>
        <time>2022-08-17T13:51:15Z</time>
      </trkpt>
      <trkpt lat="45.64139" lon="2.92968">
        <ele>1008</ele>
        <time>2022-08-17T13:51:16Z</time>
      </trkpt>
      <trkpt lat="45.64138" lon="2.92979">
        <ele>1008</ele>
        <time>2022-08-17T13:51:18Z</time>
      </trkpt>
      <trkpt lat="45.64134" lon="2.92998">
        <ele>1008</ele>
        <time>2022-08-17T13:51:19Z</time>
      </trkpt>
      <trkpt lat="45.64132" lon="2.93008">
        <ele>1008</ele>
        <time>2022-08-17T13:51:20Z</time>
      </trkpt>
      <trkpt lat="45.64129" lon="2.93017">
        <ele>1008</ele>
        <time>2022-08-17T13:51:21Z</time>
      </trkpt>
      <trkpt lat="45.64127" lon="2.93027">
        <ele>1008</ele>
        <time>2022-08-17T13:51:22Z</time>
      </trkpt>
      <trkpt lat="45.64124" lon="2.93036">
        <ele>1008</ele>
        <time>2022-08-17T13:51:23Z</time>
      </trkpt>
      <trkpt lat="45.64121" lon="2.93045">
        <ele>1008</ele>
        <time>2022-08-17T13:51:24Z</time>
      </trkpt>
      <trkpt lat="45.64119" lon="2.93055">
        <ele>1008</ele>
        <time>2022-08-17T13:51:26Z</time>
      </trkpt>
      <trkpt lat="45.64116" lon="2.93064">
        <ele>1009</ele>
        <time>2022-08-17T13:51:28Z</time>
      </trkpt>
      <trkpt lat="45.6411" lon="2.93089">
        <ele>1009</ele>
        <time>2022-08-17T13:51:30Z</time>
      </trkpt>
      <trkpt lat="45.64108" lon="2.93098">
        <ele>1009</ele>
        <time>2022-08-17T13:51:32Z</time>
      </trkpt>
      <trkpt lat="45.64106" lon="2.93107">
        <ele>1009</ele>
        <time>2022-08-17T13:51:34Z</time>
      </trkpt>
      <trkpt lat="45.64104" lon="2.93116">
        <ele>1009</ele>
        <time>2022-08-17T13:51:35Z</time>
      </trkpt>
      <trkpt lat="45.64102" lon="2.93125">
        <ele>1009</ele>
        <time>2022-08-17T13:51:36Z</time>
      </trkpt>
      <trkpt lat="45.64101" lon="2.93134">
        <ele>1011</ele>
        <time>2022-08-17T13:51:38Z</time>
      </trkpt>
      <trkpt lat="45.64102" lon="2.93156">
        <ele>1011</ele>
        <time>2022-08-17T13:51:40Z</time>
      </trkpt>
      <trkpt lat="45.64104" lon="2.93164">
        <ele>1011</ele>
        <time>2022-08-17T13:51:42Z</time>
      </trkpt>
      <trkpt lat="45.64105" lon="2.93173">
        <ele>1011</ele>
        <time>2022-08-17T13:51:44Z</time>
      </trkpt>
      <trkpt lat="45.64107" lon="2.93182">
        <ele>1011</ele>
        <time>2022-08-17T13:51:46Z</time>
      </trkpt>
      <trkpt lat="45.64109" lon="2.93191">
        <ele>1013</ele>
        <time>2022-08-17T13:51:48Z</time>
      </trkpt>
      <trkpt lat="45.64115" lon="2.9321">
        <ele>1013</ele>
        <time>2022-08-17T13:51:50Z</time>
      </trkpt>
      <trkpt lat="45.64118" lon="2.93219">
        <ele>1013</ele>
        <time>2022-08-17T13:51:52Z</time>
      </trkpt>
      <trkpt lat="45.6412" lon="2.93227">
        <ele>1013</ele>
        <time>2022-08-17T13:51:54Z</time>
      </trkpt>
      <trkpt lat="45.64123" lon="2.93236">
        <ele>1013</ele>
        <time>2022-08-17T13:51:56Z</time>
      </trkpt>
      <trkpt lat="45.64125" lon="2.93244">
        <ele>1015</ele>
        <time>2022-08-17T13:51:58Z</time>
      </trkpt>
      <trkpt lat="45.64131" lon="2.93262">
        <ele>1015</ele>
        <time>2022-08-17T13:52:00Z</time>
      </trkpt>
      <trkpt lat="45.64133" lon="2.9327">
        <ele>1015</ele>
        <time>2022-08-17T13:52:02Z</time>
      </trkpt>
      <trkpt lat="45.64135" lon="2.93279">
        <ele>1015</ele>
        <time>2022-08-17T13:52:04Z</time>
      </trkpt>
      <trkpt lat="45.64137" lon="2.93287">
        <ele>1015</ele>
        <time>2022-08-17T13:52:06Z</time>
      </trkpt>
      <trkpt lat="45.64139" lon="2.93295">
        <ele>1016</ele>
        <time>2022-08-17T13:52:08Z</time>
      </trkpt>
      <trkpt lat="45.64142" lon="2.93313">
        <ele>1016</ele>
        <time>2022-08-17T13:52:10Z</time>
      </trkpt>
      <trkpt lat="45.64142" lon="2.93321">
        <ele>1016</ele>
        <time>2022-08-17T13:52:12Z</time>
      </trkpt>
      <trkpt lat="45.64143" lon="2.93329">
        <ele>1016</ele>
        <time>2022-08-17T13:52:14Z</time>
      </trkpt>
      <trkpt lat="45.64143" lon="2.93337">
        <ele>1016</ele>
        <time>2022-08-17T13:52:16Z</time>
      </trkpt>
      <trkpt lat="45.64143" lon="2.93345">
        <ele>1018</ele>
        <time>2022-08-17T13:52:18Z</time>
      </trkpt>
      <trkpt lat="45.64141" lon="2.93362">
        <ele>1018</ele>
        <time>2022-08-17T13:52:20Z</time>
      </trkpt>
      <trkpt lat="45.6414" lon="2.9337">
        <ele>1018</ele>
        <time>2022-08-17T13:52:22Z</time>
      </trkpt>
      <trkpt lat="45.64138" lon="2.93378">
        <ele>1018</ele>
        <time>2022-08-17T13:52:24Z</time>
      </trkpt>
      <trkpt lat="45.64137" lon="2.93386">
        <ele>1018</ele>
        <time>2022-08-17T13:52:26Z</time>
      </trkpt>
      <trkpt lat="45.64136" lon="2.93394">
        <ele>1020</ele>
        <time>2022-08-17T13:52:28Z</time>
      </trkpt>
      <trkpt lat="45.64132" lon="2.93411">
        <ele>1020</ele>
        <time>2022-08-17T13:52:30Z</time>
      </trkpt>
      <trkpt lat="45.64131" lon="2.93417">
        <ele>1020</ele>
        <time>2022-08-17T13:52:32Z</time>
      </trkpt>
      <trkpt lat="45.6413" lon="2.93424">
        <ele>1020</ele>
        <time>2022-08-17T13:52:36Z</time>
      </trkpt>
      <trkpt lat="45.64129" lon="2.9343">
        <ele>1025</ele>
        <time>2022-08-17T13:52:38Z</time>
      </trkpt>
      <trkpt lat="45.64127" lon="2.93443">
        <ele>1025</ele>
        <time>2022-08-17T13:52:39Z</time>
      </trkpt>
      <trkpt lat="45.64125" lon="2.93456">
        <ele>1025</ele>
        <time>2022-08-17T13:52:42Z</time>
      </trkpt>
      <trkpt lat="45.64124" lon="2.93467">
        <ele>1025</ele>
        <time>2022-08-17T13:52:45Z</time>
      </trkpt>
      <trkpt lat="45.64124" lon="2.93467">
        <ele>1026</ele>
        <time>2022-08-17T13:52:48Z</time>
      </trkpt>
      <trkpt lat="45.64122" lon="2.93484">
        <ele>1026</ele>
        <time>2022-08-17T13:52:49Z</time>
      </trkpt>
      <trkpt lat="45.64121" lon="2.9349">
        <ele>1026</ele>
        <time>2022-08-17T13:52:53Z</time>
      </trkpt>
      <trkpt lat="45.6412" lon="2.93497">
        <ele>1026</ele>
        <time>2022-08-17T13:52:56Z</time>
      </trkpt>
      <trkpt lat="45.64119" lon="2.93503">
        <ele>1026</ele>
        <time>2022-08-17T13:52:58Z</time>
      </trkpt>
      <trkpt lat="45.64116" lon="2.93522">
        <ele>1026</ele>
        <time>2022-08-17T13:53:02Z</time>
      </trkpt>
      <trkpt lat="45.64115" lon="2.93526">
        <ele>1026</ele>
        <time>2022-08-17T13:53:06Z</time>
      </trkpt>
      <trkpt lat="45.64115" lon="2.9353">
        <ele>1030</ele>
        <time>2022-08-17T13:53:08Z</time>
      </trkpt>
      <trkpt lat="45.64112" lon="2.93548">
        <ele>1030</ele>
        <time>2022-08-17T13:53:09Z</time>
      </trkpt>
      <trkpt lat="45.64111" lon="2.93554">
        <ele>1030</ele>
        <time>2022-08-17T13:53:12Z</time>
      </trkpt>
      <trkpt lat="45.6411" lon="2.93559">
        <ele>1030</ele>
        <time>2022-08-17T13:53:16Z</time>
      </trkpt>
      <trkpt lat="45.64109" lon="2.93565">
        <ele>1030</ele>
        <time>2022-08-17T13:53:18Z</time>
      </trkpt>
      <trkpt lat="45.64107" lon="2.93575">
        <ele>1030</ele>
        <time>2022-08-17T13:53:19Z</time>
      </trkpt>
      <trkpt lat="45.64106" lon="2.93585">
        <ele>1030</ele>
        <time>2022-08-17T13:53:22Z</time>
      </trkpt>
      <trkpt lat="45.64104" lon="2.93596">
        <ele>1030</ele>
        <time>2022-08-17T13:53:25Z</time>
      </trkpt>
      <trkpt lat="45.64103" lon="2.93607">
        <ele>1032</ele>
        <time>2022-08-17T13:53:28Z</time>
      </trkpt>
      <trkpt lat="45.64102" lon="2.93624">
        <ele>1032</ele>
        <time>2022-08-17T13:53:31Z</time>
      </trkpt>
      <trkpt lat="45.64101" lon="2.9363">
        <ele>1032</ele>
        <time>2022-08-17T13:53:34Z</time>
      </trkpt>
      <trkpt lat="45.64101" lon="2.93636">
        <ele>1032</ele>
        <time>2022-08-17T13:53:37Z</time>
      </trkpt>
      <trkpt lat="45.64101" lon="2.93643">
        <ele>1034</ele>
        <time>2022-08-17T13:53:38Z</time>
      </trkpt>
      <trkpt lat="45.64101" lon="2.93657">
        <ele>1034</ele>
        <time>2022-08-17T13:53:40Z</time>
      </trkpt>
      <trkpt lat="45.64102" lon="2.93665">
        <ele>1034</ele>
        <time>2022-08-17T13:53:43Z</time>
      </trkpt>
      <trkpt lat="45.64102" lon="2.93672">
        <ele>1034</ele>
        <time>2022-08-17T13:53:46Z</time>
      </trkpt>
      <trkpt lat="45.64103" lon="2.93679">
        <ele>1038</ele>
        <time>2022-08-17T13:53:48Z</time>
      </trkpt>
      <trkpt lat="45.64104" lon="2.93693">
        <ele>1038</ele>
        <time>2022-08-17T13:53:50Z</time>
      </trkpt>
      <trkpt lat="45.64105" lon="2.93699">
        <ele>1038</ele>
        <time>2022-08-17T13:53:53Z</time>
      </trkpt>
      <trkpt lat="45.64105" lon="2.93705">
        <ele>1038</ele>
        <time>2022-08-17T13:53:55Z</time>
      </trkpt>
      <trkpt lat="45.64106" lon="2.93711">
        <ele>1038</ele>
        <time>2022-08-17T13:53:57Z</time>
      </trkpt>
      <trkpt lat="45.64106" lon="2.93717">
        <ele>1038</ele>
        <time>2022-08-17T13:53:58Z</time>
      </trkpt>
      <trkpt lat="45.64107" lon="2.93726">
        <ele>1038</ele>
        <time>2022-08-17T13:53:59Z</time>
      </trkpt>
      <trkpt lat="45.64108" lon="2.93732">
        <ele>1038</ele>
        <time>2022-08-17T13:54:01Z</time>
      </trkpt>
      <trkpt lat="45.64109" lon="2.93737">
        <ele>1038</ele>
        <time>2022-08-17T13:54:03Z</time>
      </trkpt>
      <trkpt lat="45.6411" lon="2.93743">
        <ele>1038</ele>
        <time>2022-08-17T13:54:06Z</time>
      </trkpt>
      <trkpt lat="45.64111" lon="2.93748">
        <ele>1038</ele>
        <time>2022-08-17T13:54:08Z</time>
      </trkpt>
      <trkpt lat="45.64113" lon="2.93767">
        <ele>1038</ele>
        <time>2022-08-17T13:54:09Z</time>
      </trkpt>
      <trkpt lat="45.64114" lon="2.93774">
        <ele>1038</ele>
        <time>2022-08-17T13:54:11Z</time>
      </trkpt>
      <trkpt lat="45.64114" lon="2.93782">
        <ele>1038</ele>
        <time>2022-08-17T13:54:14Z</time>
      </trkpt>
      <trkpt lat="45.64115" lon="2.93789">
        <ele>1038</ele>
        <time>2022-08-17T13:54:17Z</time>
      </trkpt>
      <trkpt lat="45.64116" lon="2.93796">
        <ele>1039</ele>
        <time>2022-08-17T13:54:18Z</time>
      </trkpt>
      <trkpt lat="45.64117" lon="2.9381">
        <ele>1039</ele>
        <time>2022-08-17T13:54:20Z</time>
      </trkpt>
      <trkpt lat="45.64117" lon="2.93816">
        <ele>1039</ele>
        <time>2022-08-17T13:54:23Z</time>
      </trkpt>
      <trkpt lat="45.64118" lon="2.93822">
        <ele>1039</ele>
        <time>2022-08-17T13:54:26Z</time>
      </trkpt>
      <trkpt lat="45.64118" lon="2.93828">
        <ele>1040</ele>
        <time>2022-08-17T13:54:28Z</time>
      </trkpt>
      <trkpt lat="45.64116" lon="2.93845">
        <ele>1040</ele>
        <time>2022-08-17T13:54:29Z</time>
      </trkpt>
      <trkpt lat="45.64114" lon="2.93851">
        <ele>1040</ele>
        <time>2022-08-17T13:54:33Z</time>
      </trkpt>
      <trkpt lat="45.64112" lon="2.93857">
        <ele>1040</ele>
        <time>2022-08-17T13:54:36Z</time>
      </trkpt>
      <trkpt lat="45.6411" lon="2.93863">
        <ele>1042</ele>
        <time>2022-08-17T13:54:38Z</time>
      </trkpt>
      <trkpt lat="45.64105" lon="2.93872">
        <ele>1042</ele>
        <time>2022-08-17T13:54:39Z</time>
      </trkpt>
      <trkpt lat="45.64099" lon="2.93879">
        <ele>1042</ele>
        <time>2022-08-17T13:54:42Z</time>
      </trkpt>
      <trkpt lat="45.64094" lon="2.93886">
        <ele>1042</ele>
        <time>2022-08-17T13:54:45Z</time>
      </trkpt>
      <trkpt lat="45.64087" lon="2.93894">
        <ele>1043</ele>
        <time>2022-08-17T13:54:48Z</time>
      </trkpt>
      <trkpt lat="45.64079" lon="2.93902">
        <ele>1043</ele>
        <time>2022-08-17T13:54:50Z</time>
      </trkpt>
      <trkpt lat="45.64076" lon="2.93905">
        <ele>1043</ele>
        <time>2022-08-17T13:54:52Z</time>
      </trkpt>
      <trkpt lat="45.64073" lon="2.93909">
        <ele>1043</ele>
        <time>2022-08-17T13:54:54Z</time>
      </trkpt>
      <trkpt lat="45.64069" lon="2.93912">
        <ele>1043</ele>
        <time>2022-08-17T13:54:56Z</time>
      </trkpt>
      <trkpt lat="45.64066" lon="2.93916">
        <ele>1045</ele>
        <time>2022-08-17T13:54:58Z</time>
      </trkpt>
      <trkpt lat="45.64062" lon="2.93921">
        <ele>1045</ele>
        <time>2022-08-17T13:55:00Z</time>
      </trkpt>
      <trkpt lat="45.64057" lon="2.93927">
        <ele>1045</ele>
        <time>2022-08-17T13:55:02Z</time>
      </trkpt>
      <trkpt lat="45.64053" lon="2.93933">
        <ele>1045</ele>
        <time>2022-08-17T13:55:05Z</time>
      </trkpt>
      <trkpt lat="45.64048" lon="2.93939">
        <ele>1045</ele>
        <time>2022-08-17T13:55:08Z</time>
      </trkpt>
      <trkpt lat="45.64042" lon="2.93947">
        <ele>1045</ele>
        <time>2022-08-17T13:55:11Z</time>
      </trkpt>
      <trkpt lat="45.6404" lon="2.9395">
        <ele>1045</ele>
        <time>2022-08-17T13:55:14Z</time>
      </trkpt>
      <trkpt lat="45.64037" lon="2.93954">
        <ele>1045</ele>
        <time>2022-08-17T13:55:17Z</time>
      </trkpt>
      <trkpt lat="45.64035" lon="2.93957">
        <ele>1045</ele>
        <time>2022-08-17T13:55:18Z</time>
      </trkpt>
      <trkpt lat="45.64031" lon="2.93968">
        <ele>1045</ele>
        <time>2022-08-17T13:55:20Z</time>
      </trkpt>
      <trkpt lat="45.6403" lon="2.93975">
        <ele>1045</ele>
        <time>2022-08-17T13:55:22Z</time>
      </trkpt>
      <trkpt lat="45.64029" lon="2.93982">
        <ele>1045</ele>
        <time>2022-08-17T13:55:24Z</time>
      </trkpt>
      <trkpt lat="45.64028" lon="2.93988">
        <ele>1045</ele>
        <time>2022-08-17T13:55:26Z</time>
      </trkpt>
      <trkpt lat="45.64027" lon="2.93995">
        <ele>1045</ele>
        <time>2022-08-17T13:55:27Z</time>
      </trkpt>
      <trkpt lat="45.64026" lon="2.94002">
        <ele>1045</ele>
        <time>2022-08-17T13:55:28Z</time>
      </trkpt>
      <trkpt lat="45.64027" lon="2.9402">
        <ele>1045</ele>
        <time>2022-08-17T13:55:30Z</time>
      </trkpt>
      <trkpt lat="45.64027" lon="2.94027">
        <ele>1045</ele>
        <time>2022-08-17T13:55:31Z</time>
      </trkpt>
      <trkpt lat="45.64027" lon="2.94034">
        <ele>1045</ele>
        <time>2022-08-17T13:55:32Z</time>
      </trkpt>
      <trkpt lat="45.64027" lon="2.94041">
        <ele>1045</ele>
        <time>2022-08-17T13:55:33Z</time>
      </trkpt>
      <trkpt lat="45.64027" lon="2.94048">
        <ele>1045</ele>
        <time>2022-08-17T13:55:34Z</time>
      </trkpt>
      <trkpt lat="45.64028" lon="2.94055">
        <ele>1045</ele>
        <time>2022-08-17T13:55:35Z</time>
      </trkpt>
      <trkpt lat="45.64028" lon="2.94062">
        <ele>1045</ele>
        <time>2022-08-17T13:55:37Z</time>
      </trkpt>
      <trkpt lat="45.64028" lon="2.94069">
        <ele>1045</ele>
        <time>2022-08-17T13:55:38Z</time>
      </trkpt>
      <trkpt lat="45.64028" lon="2.94083">
        <ele>1045</ele>
        <time>2022-08-17T13:55:39Z</time>
      </trkpt>
      <trkpt lat="45.64029" lon="2.9409">
        <ele>1045</ele>
        <time>2022-08-17T13:55:40Z</time>
      </trkpt>
      <trkpt lat="45.64029" lon="2.94096">
        <ele>1045</ele>
        <time>2022-08-17T13:55:41Z</time>
      </trkpt>
      <trkpt lat="45.6403" lon="2.94103">
        <ele>1045</ele>
        <time>2022-08-17T13:55:42Z</time>
      </trkpt>
      <trkpt lat="45.6403" lon="2.94109">
        <ele>1045</ele>
        <time>2022-08-17T13:55:43Z</time>
      </trkpt>
      <trkpt lat="45.6403" lon="2.94116">
        <ele>1045</ele>
        <time>2022-08-17T13:55:44Z</time>
      </trkpt>
      <trkpt lat="45.64031" lon="2.94122">
        <ele>1045</ele>
        <time>2022-08-17T13:55:45Z</time>
      </trkpt>
      <trkpt lat="45.64031" lon="2.94129">
        <ele>1045</ele>
        <time>2022-08-17T13:55:46Z</time>
      </trkpt>
      <trkpt lat="45.64031" lon="2.94136">
        <ele>1045</ele>
        <time>2022-08-17T13:55:47Z</time>
      </trkpt>
      <trkpt lat="45.64032" lon="2.94142">
        <ele>1043</ele>
        <time>2022-08-17T13:55:48Z</time>
      </trkpt>
      <trkpt lat="45.64036" lon="2.94164">
        <ele>1043</ele>
        <time>2022-08-17T13:55:50Z</time>
      </trkpt>
      <trkpt lat="45.64037" lon="2.94172">
        <ele>1043</ele>
        <time>2022-08-17T13:55:52Z</time>
      </trkpt>
      <trkpt lat="45.64038" lon="2.9418">
        <ele>1043</ele>
        <time>2022-08-17T13:55:54Z</time>
      </trkpt>
      <trkpt lat="45.64039" lon="2.94188">
        <ele>1043</ele>
        <time>2022-08-17T13:55:55Z</time>
      </trkpt>
      <trkpt lat="45.64041" lon="2.94196">
        <ele>1043</ele>
        <time>2022-08-17T13:55:56Z</time>
      </trkpt>
      <trkpt lat="45.64042" lon="2.94204">
        <ele>1043</ele>
        <time>2022-08-17T13:55:57Z</time>
      </trkpt>
      <trkpt lat="45.64043" lon="2.94212">
        <ele>1042</ele>
        <time>2022-08-17T13:55:58Z</time>
      </trkpt>
      <trkpt lat="45.64045" lon="2.94225">
        <ele>1042</ele>
        <time>2022-08-17T13:55:59Z</time>
      </trkpt>
      <trkpt lat="45.64046" lon="2.94231">
        <ele>1042</ele>
        <time>2022-08-17T13:56:01Z</time>
      </trkpt>
      <trkpt lat="45.64047" lon="2.94236">
        <ele>1042</ele>
        <time>2022-08-17T13:56:02Z</time>
      </trkpt>
      <trkpt lat="45.64047" lon="2.94242">
        <ele>1042</ele>
        <time>2022-08-17T13:56:04Z</time>
      </trkpt>
      <trkpt lat="45.64048" lon="2.94248">
        <ele>1042</ele>
        <time>2022-08-17T13:56:06Z</time>
      </trkpt>
      <trkpt lat="45.64049" lon="2.94254">
        <ele>1041</ele>
        <time>2022-08-17T13:56:08Z</time>
      </trkpt>
      <trkpt lat="45.64048" lon="2.94261">
        <ele>1041</ele>
        <time>2022-08-17T13:56:09Z</time>
      </trkpt>
      <trkpt lat="45.64048" lon="2.94261">
        <ele>1039</ele>
        <time>2022-08-17T13:56:18Z</time>
      </trkpt>
      <trkpt lat="45.64047" lon="2.94261">
        <ele>1039</ele>
        <time>2022-08-17T13:56:28Z</time>
      </trkpt>
      <trkpt lat="45.64046" lon="2.94261">
        <ele>1039</ele>
        <time>2022-08-17T13:56:38Z</time>
      </trkpt>
      <trkpt lat="45.64046" lon="2.94262">
        <ele>1039</ele>
        <time>2022-08-17T13:56:48Z</time>
      </trkpt>
      <trkpt lat="45.64045" lon="2.94262">
        <ele>1039</ele>
        <time>2022-08-17T13:56:58Z</time>
      </trkpt>
      <trkpt lat="45.64044" lon="2.94262">
        <ele>1039</ele>
        <time>2022-08-17T13:57:08Z</time>
      </trkpt>
      <trkpt lat="45.64044" lon="2.94263">
        <ele>1040</ele>
        <time>2022-08-17T13:57:18Z</time>
      </trkpt>
      <trkpt lat="45.64043" lon="2.94263">
        <ele>1040</ele>
        <time>2022-08-17T13:57:28Z</time>
      </trkpt>
      <trkpt lat="45.64042" lon="2.94263">
        <ele>1039</ele>
        <time>2022-08-17T13:57:38Z</time>
      </trkpt>
      <trkpt lat="45.64042" lon="2.94263">
        <ele>1039</ele>
        <time>2022-08-17T13:57:48Z</time>
      </trkpt>
      <trkpt lat="45.64041" lon="2.94264">
        <ele>1039</ele>
        <time>2022-08-17T13:57:58Z</time>
      </trkpt>
      <trkpt lat="45.6404" lon="2.94264">
        <ele>1039</ele>
        <time>2022-08-17T13:58:08Z</time>
      </trkpt>
      <trkpt lat="45.6404" lon="2.94264">
        <ele>1039</ele>
        <time>2022-08-17T13:58:18Z</time>
      </trkpt>
      <trkpt lat="45.64039" lon="2.94265">
        <ele>1039</ele>
        <time>2022-08-17T13:58:23Z</time>
      </trkpt>
      <trkpt lat="45.64038" lon="2.94265">
        <ele>1040</ele>
        <time>2022-08-17T13:58:28Z</time>
      </trkpt>
      <trkpt lat="45.64038" lon="2.94265">
        <ele>1040</ele>
        <time>2022-08-17T13:58:38Z</time>
      </trkpt>
      <trkpt lat="45.64037" lon="2.94266">
        <ele>1039</ele>
        <time>2022-08-17T13:58:48Z</time>
      </trkpt>
      <trkpt lat="45.64036" lon="2.94266">
        <ele>1039</ele>
        <time>2022-08-17T13:58:58Z</time>
      </trkpt>
      <trkpt lat="45.64036" lon="2.94266">
        <ele>1039</ele>
        <time>2022-08-17T13:59:08Z</time>
      </trkpt>
      <trkpt lat="45.64035" lon="2.94266">
        <ele>1039</ele>
        <time>2022-08-17T13:59:18Z</time>
      </trkpt>
      <trkpt lat="45.64034" lon="2.94267">
        <ele>1039</ele>
        <time>2022-08-17T13:59:28Z</time>
      </trkpt>
      <trkpt lat="45.64034" lon="2.94267">
        <ele>1038</ele>
        <time>2022-08-17T13:59:38Z</time>
      </trkpt>
      <trkpt lat="45.64033" lon="2.94267">
        <ele>1039</ele>
        <time>2022-08-17T13:59:48Z</time>
      </trkpt>
      <trkpt lat="45.64032" lon="2.94268">
        <ele>1039</ele>
        <time>2022-08-17T13:59:58Z</time>
      </trkpt>
      <trkpt lat="45.64032" lon="2.94268">
        <ele>1039</ele>
        <time>2022-08-17T14:00:08Z</time>
      </trkpt>
      <trkpt lat="45.64031" lon="2.94268">
        <ele>1039</ele>
        <time>2022-08-17T14:00:09Z</time>
      </trkpt>
      <trkpt lat="45.6403" lon="2.94268">
        <ele>1039</ele>
        <time>2022-08-17T14:00:12Z</time>
      </trkpt>
      <trkpt lat="45.6403" lon="2.94269">
        <ele>1039</ele>
        <time>2022-08-17T14:00:15Z</time>
      </trkpt>
      <trkpt lat="45.64029" lon="2.94269">
        <ele>1039</ele>
        <time>2022-08-17T14:00:17Z</time>
      </trkpt>
      <trkpt lat="45.64028" lon="2.94269">
        <ele>1039</ele>
        <time>2022-08-17T14:00:18Z</time>
      </trkpt>
      <trkpt lat="45.64021" lon="2.9427">
        <ele>1039</ele>
        <time>2022-08-17T14:00:19Z</time>
      </trkpt>
      <trkpt lat="45.64016" lon="2.9427">
        <ele>1039</ele>
        <time>2022-08-17T14:00:22Z</time>
      </trkpt>
      <trkpt lat="45.64011" lon="2.9427">
        <ele>1039</ele>
        <time>2022-08-17T14:00:24Z</time>
      </trkpt>
      <trkpt lat="45.64007" lon="2.94271">
        <ele>1039</ele>
        <time>2022-08-17T14:00:26Z</time>
      </trkpt>
      <trkpt lat="45.64002" lon="2.94271">
        <ele>1041</ele>
        <time>2022-08-17T14:00:28Z</time>
      </trkpt>
      <trkpt lat="45.63991" lon="2.94272">
        <ele>1041</ele>
        <time>2022-08-17T14:00:30Z</time>
      </trkpt>
      <trkpt lat="45.63987" lon="2.94273">
        <ele>1041</ele>
        <time>2022-08-17T14:00:32Z</time>
      </trkpt>
      <trkpt lat="45.63982" lon="2.94273">
        <ele>1041</ele>
        <time>2022-08-17T14:00:34Z</time>
      </trkpt>
      <trkpt lat="45.63978" lon="2.94274">
        <ele>1041</ele>
        <time>2022-08-17T14:00:36Z</time>
      </trkpt>
      <trkpt lat="45.63973" lon="2.94274">
        <ele>1041</ele>
        <time>2022-08-17T14:00:37Z</time>
      </trkpt>
      <trkpt lat="45.63969" lon="2.94274">
        <ele>1042</ele>
        <time>2022-08-17T14:00:38Z</time>
      </trkpt>
      <trkpt lat="45.63962" lon="2.94275">
        <ele>1042</ele>
        <time>2022-08-17T14:00:39Z</time>
      </trkpt>
      <trkpt lat="45.63958" lon="2.94276">
        <ele>1042</ele>
        <time>2022-08-17T14:00:40Z</time>
      </trkpt>
      <trkpt lat="45.63955" lon="2.94276">
        <ele>1042</ele>
        <time>2022-08-17T14:00:41Z</time>
      </trkpt>
      <trkpt lat="45.63951" lon="2.94277">
        <ele>1042</ele>
        <time>2022-08-17T14:00:42Z</time>
      </trkpt>
      <trkpt lat="45.63948" lon="2.94277">
        <ele>1042</ele>
        <time>2022-08-17T14:00:43Z</time>
      </trkpt>
      <trkpt lat="45.63944" lon="2.94277">
        <ele>1042</ele>
        <time>2022-08-17T14:00:44Z</time>
      </trkpt>
      <trkpt lat="45.63941" lon="2.94278">
        <ele>1042</ele>
        <time>2022-08-17T14:00:45Z</time>
      </trkpt>
      <trkpt lat="45.63937" lon="2.94278">
        <ele>1042</ele>
        <time>2022-08-17T14:00:46Z</time>
      </trkpt>
      <trkpt lat="45.63934" lon="2.94279">
        <ele>1043</ele>
        <time>2022-08-17T14:00:48Z</time>
      </trkpt>
      <trkpt lat="45.6392" lon="2.9428">
        <ele>1043</ele>
        <time>2022-08-17T14:00:50Z</time>
      </trkpt>
      <trkpt lat="45.63914" lon="2.94281">
        <ele>1043</ele>
        <time>2022-08-17T14:00:52Z</time>
      </trkpt>
      <trkpt lat="45.63907" lon="2.94282">
        <ele>1043</ele>
        <time>2022-08-17T14:00:54Z</time>
      </trkpt>
      <trkpt lat="45.63901" lon="2.94283">
        <ele>1043</ele>
        <time>2022-08-17T14:00:56Z</time>
      </trkpt>
      <trkpt lat="45.63895" lon="2.94284">
        <ele>1043</ele>
        <time>2022-08-17T14:00:58Z</time>
      </trkpt>
      <trkpt lat="45.63878" lon="2.94286">
        <ele>1043</ele>
        <time>2022-08-17T14:01:00Z</time>
      </trkpt>
      <trkpt lat="45.63871" lon="2.94287">
        <ele>1043</ele>
        <time>2022-08-17T14:01:02Z</time>
      </trkpt>
      <trkpt lat="45.63864" lon="2.94288">
        <ele>1043</ele>
        <time>2022-08-17T14:01:04Z</time>
      </trkpt>
      <trkpt lat="45.63857" lon="2.9429">
        <ele>1043</ele>
        <time>2022-08-17T14:01:06Z</time>
      </trkpt>
      <trkpt lat="45.63849" lon="2.94291">
        <ele>1045</ele>
        <time>2022-08-17T14:01:08Z</time>
      </trkpt>
      <trkpt lat="45.63835" lon="2.94294">
        <ele>1045</ele>
        <time>2022-08-17T14:01:10Z</time>
      </trkpt>
      <trkpt lat="45.63829" lon="2.94296">
        <ele>1045</ele>
        <time>2022-08-17T14:01:11Z</time>
      </trkpt>
      <trkpt lat="45.63824" lon="2.94298">
        <ele>1045</ele>
        <time>2022-08-17T14:01:12Z</time>
      </trkpt>
      <trkpt lat="45.63818" lon="2.943">
        <ele>1045</ele>
        <time>2022-08-17T14:01:14Z</time>
      </trkpt>
      <trkpt lat="45.63813" lon="2.94302">
        <ele>1045</ele>
        <time>2022-08-17T14:01:16Z</time>
      </trkpt>
      <trkpt lat="45.63807" lon="2.94303">
        <ele>1046</ele>
        <time>2022-08-17T14:01:18Z</time>
      </trkpt>
      <trkpt lat="45.63793" lon="2.94309">
        <ele>1046</ele>
        <time>2022-08-17T14:01:20Z</time>
      </trkpt>
      <trkpt lat="45.63786" lon="2.94312">
        <ele>1046</ele>
        <time>2022-08-17T14:01:22Z</time>
      </trkpt>
      <trkpt lat="45.6378" lon="2.94315">
        <ele>1046</ele>
        <time>2022-08-17T14:01:24Z</time>
      </trkpt>
      <trkpt lat="45.63774" lon="2.94318">
        <ele>1046</ele>
        <time>2022-08-17T14:01:26Z</time>
      </trkpt>
      <trkpt lat="45.63767" lon="2.9432">
        <ele>1046</ele>
        <time>2022-08-17T14:01:28Z</time>
      </trkpt>
      <trkpt lat="45.63753" lon="2.94327">
        <ele>1046</ele>
        <time>2022-08-17T14:01:30Z</time>
      </trkpt>
      <trkpt lat="45.63747" lon="2.9433">
        <ele>1046</ele>
        <time>2022-08-17T14:01:32Z</time>
      </trkpt>
      <trkpt lat="45.63741" lon="2.94334">
        <ele>1046</ele>
        <time>2022-08-17T14:01:34Z</time>
      </trkpt>
      <trkpt lat="45.63735" lon="2.94337">
        <ele>1046</ele>
        <time>2022-08-17T14:01:36Z</time>
      </trkpt>
      <trkpt lat="45.63729" lon="2.9434">
        <ele>1048</ele>
        <time>2022-08-17T14:01:38Z</time>
      </trkpt>
      <trkpt lat="45.63715" lon="2.94347">
        <ele>1048</ele>
        <time>2022-08-17T14:01:40Z</time>
      </trkpt>
      <trkpt lat="45.63709" lon="2.9435">
        <ele>1048</ele>
        <time>2022-08-17T14:01:42Z</time>
      </trkpt>
      <trkpt lat="45.63703" lon="2.94353">
        <ele>1048</ele>
        <time>2022-08-17T14:01:44Z</time>
      </trkpt>
      <trkpt lat="45.63697" lon="2.94356">
        <ele>1048</ele>
        <time>2022-08-17T14:01:46Z</time>
      </trkpt>
      <trkpt lat="45.63691" lon="2.94359">
        <ele>1050</ele>
        <time>2022-08-17T14:01:48Z</time>
      </trkpt>
      <trkpt lat="45.63677" lon="2.94366">
        <ele>1050</ele>
        <time>2022-08-17T14:01:50Z</time>
      </trkpt>
      <trkpt lat="45.63671" lon="2.94369">
        <ele>1050</ele>
        <time>2022-08-17T14:01:52Z</time>
      </trkpt>
      <trkpt lat="45.63665" lon="2.94373">
        <ele>1050</ele>
        <time>2022-08-17T14:01:54Z</time>
      </trkpt>
      <trkpt lat="45.63659" lon="2.94376">
        <ele>1050</ele>
        <time>2022-08-17T14:01:56Z</time>
      </trkpt>
      <trkpt lat="45.63653" lon="2.94379">
        <ele>1051</ele>
        <time>2022-08-17T14:01:58Z</time>
      </trkpt>
      <trkpt lat="45.63644" lon="2.94384">
        <ele>1051</ele>
        <time>2022-08-17T14:01:59Z</time>
      </trkpt>
      <trkpt lat="45.63639" lon="2.94387">
        <ele>1051</ele>
        <time>2022-08-17T14:02:01Z</time>
      </trkpt>
      <trkpt lat="45.63633" lon="2.94389">
        <ele>1051</ele>
        <time>2022-08-17T14:02:03Z</time>
      </trkpt>
      <trkpt lat="45.63628" lon="2.94392">
        <ele>1051</ele>
        <time>2022-08-17T14:02:04Z</time>
      </trkpt>
      <trkpt lat="45.63623" lon="2.94395">
        <ele>1051</ele>
        <time>2022-08-17T14:02:05Z</time>
      </trkpt>
      <trkpt lat="45.63618" lon="2.94398">
        <ele>1051</ele>
        <time>2022-08-17T14:02:07Z</time>
      </trkpt>
      <trkpt lat="45.63612" lon="2.944">
        <ele>1053</ele>
        <time>2022-08-17T14:02:08Z</time>
      </trkpt>
      <trkpt lat="45.63603" lon="2.94405">
        <ele>1053</ele>
        <time>2022-08-17T14:02:09Z</time>
      </trkpt>
      <trkpt lat="45.63598" lon="2.94408">
        <ele>1053</ele>
        <time>2022-08-17T14:02:11Z</time>
      </trkpt>
      <trkpt lat="45.63593" lon="2.9441">
        <ele>1053</ele>
        <time>2022-08-17T14:02:12Z</time>
      </trkpt>
      <trkpt lat="45.63589" lon="2.94413">
        <ele>1053</ele>
        <time>2022-08-17T14:02:13Z</time>
      </trkpt>
      <trkpt lat="45.63584" lon="2.94415">
        <ele>1053</ele>
        <time>2022-08-17T14:02:14Z</time>
      </trkpt>
      <trkpt lat="45.63579" lon="2.94418">
        <ele>1053</ele>
        <time>2022-08-17T14:02:15Z</time>
      </trkpt>
      <trkpt lat="45.63574" lon="2.94421">
        <ele>1053</ele>
        <time>2022-08-17T14:02:16Z</time>
      </trkpt>
      <trkpt lat="45.63569" lon="2.94423">
        <ele>1053</ele>
        <time>2022-08-17T14:02:17Z</time>
      </trkpt>
      <trkpt lat="45.63564" lon="2.94426">
        <ele>1053</ele>
        <time>2022-08-17T14:02:18Z</time>
      </trkpt>
      <trkpt lat="45.63554" lon="2.94431">
        <ele>1053</ele>
        <time>2022-08-17T14:02:19Z</time>
      </trkpt>
      <trkpt lat="45.63549" lon="2.94434">
        <ele>1053</ele>
        <time>2022-08-17T14:02:20Z</time>
      </trkpt>
      <trkpt lat="45.63544" lon="2.94436">
        <ele>1053</ele>
        <time>2022-08-17T14:02:21Z</time>
      </trkpt>
      <trkpt lat="45.63539" lon="2.94439">
        <ele>1053</ele>
        <time>2022-08-17T14:02:22Z</time>
      </trkpt>
      <trkpt lat="45.63534" lon="2.94441">
        <ele>1053</ele>
        <time>2022-08-17T14:02:23Z</time>
      </trkpt>
      <trkpt lat="45.63529" lon="2.94444">
        <ele>1053</ele>
        <time>2022-08-17T14:02:24Z</time>
      </trkpt>
      <trkpt lat="45.63524" lon="2.94446">
        <ele>1053</ele>
        <time>2022-08-17T14:02:25Z</time>
      </trkpt>
      <trkpt lat="45.63519" lon="2.94449">
        <ele>1053</ele>
        <time>2022-08-17T14:02:26Z</time>
      </trkpt>
      <trkpt lat="45.63514" lon="2.94452">
        <ele>1053</ele>
        <time>2022-08-17T14:02:27Z</time>
      </trkpt>
      <trkpt lat="45.63509" lon="2.94454">
        <ele>1053</ele>
        <time>2022-08-17T14:02:28Z</time>
      </trkpt>
      <trkpt lat="45.63498" lon="2.9446">
        <ele>1053</ele>
        <time>2022-08-17T14:02:29Z</time>
      </trkpt>
      <trkpt lat="45.63493" lon="2.94463">
        <ele>1053</ele>
        <time>2022-08-17T14:02:30Z</time>
      </trkpt>
      <trkpt lat="45.63487" lon="2.94465">
        <ele>1053</ele>
        <time>2022-08-17T14:02:31Z</time>
      </trkpt>
      <trkpt lat="45.63482" lon="2.94468">
        <ele>1053</ele>
        <time>2022-08-17T14:02:32Z</time>
      </trkpt>
      <trkpt lat="45.63477" lon="2.94471">
        <ele>1053</ele>
        <time>2022-08-17T14:02:33Z</time>
      </trkpt>
      <trkpt lat="45.63471" lon="2.94474">
        <ele>1053</ele>
        <time>2022-08-17T14:02:34Z</time>
      </trkpt>
      <trkpt lat="45.63466" lon="2.94476">
        <ele>1053</ele>
        <time>2022-08-17T14:02:35Z</time>
      </trkpt>
      <trkpt lat="45.6346" lon="2.94479">
        <ele>1053</ele>
        <time>2022-08-17T14:02:36Z</time>
      </trkpt>
      <trkpt lat="45.63455" lon="2.94482">
        <ele>1053</ele>
        <time>2022-08-17T14:02:37Z</time>
      </trkpt>
      <trkpt lat="45.63449" lon="2.94485">
        <ele>1052</ele>
        <time>2022-08-17T14:02:38Z</time>
      </trkpt>
      <trkpt lat="45.63438" lon="2.94491">
        <ele>1052</ele>
        <time>2022-08-17T14:02:39Z</time>
      </trkpt>
      <trkpt lat="45.63432" lon="2.94494">
        <ele>1052</ele>
        <time>2022-08-17T14:02:40Z</time>
      </trkpt>
      <trkpt lat="45.63426" lon="2.94497">
        <ele>1052</ele>
        <time>2022-08-17T14:02:41Z</time>
      </trkpt>
      <trkpt lat="45.6342" lon="2.945">
        <ele>1052</ele>
        <time>2022-08-17T14:02:42Z</time>
      </trkpt>
      <trkpt lat="45.63414" lon="2.94503">
        <ele>1052</ele>
        <time>2022-08-17T14:02:43Z</time>
      </trkpt>
      <trkpt lat="45.63408" lon="2.94506">
        <ele>1052</ele>
        <time>2022-08-17T14:02:44Z</time>
      </trkpt>
      <trkpt lat="45.63403" lon="2.94509">
        <ele>1052</ele>
        <time>2022-08-17T14:02:45Z</time>
      </trkpt>
      <trkpt lat="45.63397" lon="2.94512">
        <ele>1052</ele>
        <time>2022-08-17T14:02:46Z</time>
      </trkpt>
      <trkpt lat="45.63391" lon="2.94515">
        <ele>1052</ele>
        <time>2022-08-17T14:02:47Z</time>
      </trkpt>
      <trkpt lat="45.63385" lon="2.94518">
        <ele>1050</ele>
        <time>2022-08-17T14:02:48Z</time>
      </trkpt>
      <trkpt lat="45.63372" lon="2.94525">
        <ele>1050</ele>
        <time>2022-08-17T14:02:49Z</time>
      </trkpt>
      <trkpt lat="45.63366" lon="2.94528">
        <ele>1050</ele>
        <time>2022-08-17T14:02:50Z</time>
      </trkpt>
      <trkpt lat="45.6336" lon="2.94531">
        <ele>1050</ele>
        <time>2022-08-17T14:02:51Z</time>
      </trkpt>
      <trkpt lat="45.63354" lon="2.94535">
        <ele>1050</ele>
        <time>2022-08-17T14:02:52Z</time>
      </trkpt>
      <trkpt lat="45.63348" lon="2.94538">
        <ele>1050</ele>
        <time>2022-08-17T14:02:53Z</time>
      </trkpt>
      <trkpt lat="45.63342" lon="2.94541">
        <ele>1050</ele>
        <time>2022-08-17T14:02:54Z</time>
      </trkpt>
      <trkpt lat="45.63336" lon="2.94544">
        <ele>1050</ele>
        <time>2022-08-17T14:02:55Z</time>
      </trkpt>
      <trkpt lat="45.6333" lon="2.94548">
        <ele>1050</ele>
        <time>2022-08-17T14:02:56Z</time>
      </trkpt>
      <trkpt lat="45.63324" lon="2.94551">
        <ele>1050</ele>
        <time>2022-08-17T14:02:57Z</time>
      </trkpt>
      <trkpt lat="45.63318" lon="2.94554">
        <ele>1049</ele>
        <time>2022-08-17T14:02:58Z</time>
      </trkpt>
      <trkpt lat="45.63304" lon="2.94561">
        <ele>1049</ele>
        <time>2022-08-17T14:02:59Z</time>
      </trkpt>
      <trkpt lat="45.63298" lon="2.94565">
        <ele>1049</ele>
        <time>2022-08-17T14:03:00Z</time>
      </trkpt>
      <trkpt lat="45.63291" lon="2.94568">
        <ele>1049</ele>
        <time>2022-08-17T14:03:01Z</time>
      </trkpt>
      <trkpt lat="45.63285" lon="2.94572">
        <ele>1049</ele>
        <time>2022-08-17T14:03:02Z</time>
      </trkpt>
      <trkpt lat="45.63278" lon="2.94575">
        <ele>1049</ele>
        <time>2022-08-17T14:03:03Z</time>
      </trkpt>
      <trkpt lat="45.63272" lon="2.94579">
        <ele>1049</ele>
        <time>2022-08-17T14:03:04Z</time>
      </trkpt>
      <trkpt lat="45.63265" lon="2.94583">
        <ele>1049</ele>
        <time>2022-08-17T14:03:05Z</time>
      </trkpt>
      <trkpt lat="45.63259" lon="2.94586">
        <ele>1049</ele>
        <time>2022-08-17T14:03:06Z</time>
      </trkpt>
      <trkpt lat="45.63253" lon="2.9459">
        <ele>1049</ele>
        <time>2022-08-17T14:03:07Z</time>
      </trkpt>
      <trkpt lat="45.63246" lon="2.94593">
        <ele>1047</ele>
        <time>2022-08-17T14:03:08Z</time>
      </trkpt>
      <trkpt lat="45.63238" lon="2.9461">
        <ele>1047</ele>
        <time>2022-08-17T14:03:09Z</time>
      </trkpt>
      <trkpt lat="45.63236" lon="2.9462">
        <ele>1047</ele>
        <time>2022-08-17T14:03:10Z</time>
      </trkpt>
      <trkpt lat="45.63233" lon="2.9463">
        <ele>1047</ele>
        <time>2022-08-17T14:03:11Z</time>
      </trkpt>
      <trkpt lat="45.6323" lon="2.9464">
        <ele>1047</ele>
        <time>2022-08-17T14:03:12Z</time>
      </trkpt>
      <trkpt lat="45.63228" lon="2.94651">
        <ele>1047</ele>
        <time>2022-08-17T14:03:13Z</time>
      </trkpt>
      <trkpt lat="45.63225" lon="2.94661">
        <ele>1047</ele>
        <time>2022-08-17T14:03:14Z</time>
      </trkpt>
      <trkpt lat="45.63222" lon="2.94671">
        <ele>1047</ele>
        <time>2022-08-17T14:03:15Z</time>
      </trkpt>
      <trkpt lat="45.6322" lon="2.94681">
        <ele>1047</ele>
        <time>2022-08-17T14:03:16Z</time>
      </trkpt>
      <trkpt lat="45.63217" lon="2.94692">
        <ele>1047</ele>
        <time>2022-08-17T14:03:17Z</time>
      </trkpt>
      <trkpt lat="45.63214" lon="2.94702">
        <ele>1042</ele>
        <time>2022-08-17T14:03:18Z</time>
      </trkpt>
      <trkpt lat="45.63208" lon="2.94712">
        <ele>1042</ele>
        <time>2022-08-17T14:03:19Z</time>
      </trkpt>
      <trkpt lat="45.63198" lon="2.94716">
        <ele>1042</ele>
        <time>2022-08-17T14:03:20Z</time>
      </trkpt>
      <trkpt lat="45.63187" lon="2.94716">
        <ele>1042</ele>
        <time>2022-08-17T14:03:21Z</time>
      </trkpt>
      <trkpt lat="45.63177" lon="2.94713">
        <ele>1042</ele>
        <time>2022-08-17T14:03:22Z</time>
      </trkpt>
      <trkpt lat="45.63166" lon="2.9471">
        <ele>1042</ele>
        <time>2022-08-17T14:03:23Z</time>
      </trkpt>
      <trkpt lat="45.63156" lon="2.94707">
        <ele>1042</ele>
        <time>2022-08-17T14:03:24Z</time>
      </trkpt>
      <trkpt lat="45.63145" lon="2.94704">
        <ele>1042</ele>
        <time>2022-08-17T14:03:25Z</time>
      </trkpt>
      <trkpt lat="45.63134" lon="2.94701">
        <ele>1042</ele>
        <time>2022-08-17T14:03:26Z</time>
      </trkpt>
      <trkpt lat="45.63118" lon="2.94698">
        <ele>1042</ele>
        <time>2022-08-17T14:03:27Z</time>
      </trkpt>
      <trkpt lat="45.63113" lon="2.94698">
        <ele>1035</ele>
        <time>2022-08-17T14:03:28Z</time>
      </trkpt>
      <trkpt lat="45.63102" lon="2.94698">
        <ele>1035</ele>
        <time>2022-08-17T14:03:29Z</time>
      </trkpt>
      <trkpt lat="45.63091" lon="2.94699">
        <ele>1035</ele>
        <time>2022-08-17T14:03:30Z</time>
      </trkpt>
      <trkpt lat="45.63081" lon="2.94702">
        <ele>1035</ele>
        <time>2022-08-17T14:03:31Z</time>
      </trkpt>
      <trkpt lat="45.6307" lon="2.94704">
        <ele>1035</ele>
        <time>2022-08-17T14:03:32Z</time>
      </trkpt>
      <trkpt lat="45.63059" lon="2.94707">
        <ele>1035</ele>
        <time>2022-08-17T14:03:33Z</time>
      </trkpt>
      <trkpt lat="45.63049" lon="2.94711">
        <ele>1035</ele>
        <time>2022-08-17T14:03:34Z</time>
      </trkpt>
      <trkpt lat="45.63038" lon="2.94714">
        <ele>1035</ele>
        <time>2022-08-17T14:03:35Z</time>
      </trkpt>
      <trkpt lat="45.63028" lon="2.94719">
        <ele>1035</ele>
        <time>2022-08-17T14:03:36Z</time>
      </trkpt>
      <trkpt lat="45.63013" lon="2.94728">
        <ele>1035</ele>
        <time>2022-08-17T14:03:37Z</time>
      </trkpt>
      <trkpt lat="45.63008" lon="2.94732">
        <ele>1027</ele>
        <time>2022-08-17T14:03:38Z</time>
      </trkpt>
      <trkpt lat="45.62999" lon="2.94739">
        <ele>1027</ele>
        <time>2022-08-17T14:03:39Z</time>
      </trkpt>
      <trkpt lat="45.6299" lon="2.94747">
        <ele>1027</ele>
        <time>2022-08-17T14:03:40Z</time>
      </trkpt>
      <trkpt lat="45.62982" lon="2.94756">
        <ele>1027</ele>
        <time>2022-08-17T14:03:41Z</time>
      </trkpt>
      <trkpt lat="45.62973" lon="2.94764">
        <ele>1027</ele>
        <time>2022-08-17T14:03:42Z</time>
      </trkpt>
      <trkpt lat="45.62964" lon="2.94771">
        <ele>1027</ele>
        <time>2022-08-17T14:03:43Z</time>
      </trkpt>
      <trkpt lat="45.62955" lon="2.94778">
        <ele>1027</ele>
        <time>2022-08-17T14:03:44Z</time>
      </trkpt>
      <trkpt lat="45.62945" lon="2.94784">
        <ele>1027</ele>
        <time>2022-08-17T14:03:45Z</time>
      </trkpt>
      <trkpt lat="45.62936" lon="2.9479">
        <ele>1027</ele>
        <time>2022-08-17T14:03:46Z</time>
      </trkpt>
      <trkpt lat="45.62922" lon="2.94797">
        <ele>1027</ele>
        <time>2022-08-17T14:03:47Z</time>
      </trkpt>
      <trkpt lat="45.62917" lon="2.94799">
        <ele>1024</ele>
        <time>2022-08-17T14:03:48Z</time>
      </trkpt>
      <trkpt lat="45.62908" lon="2.94804">
        <ele>1024</ele>
        <time>2022-08-17T14:03:49Z</time>
      </trkpt>
      <trkpt lat="45.62899" lon="2.94807">
        <ele>1024</ele>
        <time>2022-08-17T14:03:50Z</time>
      </trkpt>
      <trkpt lat="45.6289" lon="2.94811">
        <ele>1024</ele>
        <time>2022-08-17T14:03:51Z</time>
      </trkpt>
      <trkpt lat="45.62881" lon="2.94814">
        <ele>1024</ele>
        <time>2022-08-17T14:03:52Z</time>
      </trkpt>
      <trkpt lat="45.62872" lon="2.94818">
        <ele>1024</ele>
        <time>2022-08-17T14:03:53Z</time>
      </trkpt>
      <trkpt lat="45.62863" lon="2.94822">
        <ele>1024</ele>
        <time>2022-08-17T14:03:54Z</time>
      </trkpt>
      <trkpt lat="45.62855" lon="2.94826">
        <ele>1024</ele>
        <time>2022-08-17T14:03:55Z</time>
      </trkpt>
      <trkpt lat="45.62846" lon="2.9483">
        <ele>1024</ele>
        <time>2022-08-17T14:03:56Z</time>
      </trkpt>
      <trkpt lat="45.62837" lon="2.94834">
        <ele>1024</ele>
        <time>2022-08-17T14:03:57Z</time>
      </trkpt>
      <trkpt lat="45.62829" lon="2.94839">
        <ele>1022</ele>
        <time>2022-08-17T14:03:58Z</time>
      </trkpt>
      <trkpt lat="45.6282" lon="2.94843">
        <ele>1022</ele>
        <time>2022-08-17T14:03:59Z</time>
      </trkpt>
      <trkpt lat="45.62812" lon="2.94849">
        <ele>1022</ele>
        <time>2022-08-17T14:04:00Z</time>
      </trkpt>
      <trkpt lat="45.62804" lon="2.94855">
        <ele>1022</ele>
        <time>2022-08-17T14:04:01Z</time>
      </trkpt>
      <trkpt lat="45.62797" lon="2.94862">
        <ele>1022</ele>
        <time>2022-08-17T14:04:02Z</time>
      </trkpt>
      <trkpt lat="45.62789" lon="2.9487">
        <ele>1022</ele>
        <time>2022-08-17T14:04:03Z</time>
      </trkpt>
      <trkpt lat="45.62782" lon="2.94879">
        <ele>1022</ele>
        <time>2022-08-17T14:04:04Z</time>
      </trkpt>
      <trkpt lat="45.62776" lon="2.94889">
        <ele>1022</ele>
        <time>2022-08-17T14:04:05Z</time>
      </trkpt>
      <trkpt lat="45.6277" lon="2.949">
        <ele>1022</ele>
        <time>2022-08-17T14:04:06Z</time>
      </trkpt>
      <trkpt lat="45.62764" lon="2.94911">
        <ele>1022</ele>
        <time>2022-08-17T14:04:07Z</time>
      </trkpt>
      <trkpt lat="45.62757" lon="2.94921">
        <ele>1017</ele>
        <time>2022-08-17T14:04:08Z</time>
      </trkpt>
      <trkpt lat="45.62751" lon="2.94931">
        <ele>1017</ele>
        <time>2022-08-17T14:04:09Z</time>
      </trkpt>
      <trkpt lat="45.62743" lon="2.94939">
        <ele>1017</ele>
        <time>2022-08-17T14:04:10Z</time>
      </trkpt>
      <trkpt lat="45.62735" lon="2.94946">
        <ele>1017</ele>
        <time>2022-08-17T14:04:11Z</time>
      </trkpt>
      <trkpt lat="45.62727" lon="2.94953">
        <ele>1017</ele>
        <time>2022-08-17T14:04:12Z</time>
      </trkpt>
      <trkpt lat="45.62718" lon="2.94958">
        <ele>1017</ele>
        <time>2022-08-17T14:04:13Z</time>
      </trkpt>
      <trkpt lat="45.62709" lon="2.94963">
        <ele>1017</ele>
        <time>2022-08-17T14:04:14Z</time>
      </trkpt>
      <trkpt lat="45.627" lon="2.94968">
        <ele>1017</ele>
        <time>2022-08-17T14:04:15Z</time>
      </trkpt>
      <trkpt lat="45.62691" lon="2.94973">
        <ele>1017</ele>
        <time>2022-08-17T14:04:16Z</time>
      </trkpt>
      <trkpt lat="45.62682" lon="2.94977">
        <ele>1017</ele>
        <time>2022-08-17T14:04:17Z</time>
      </trkpt>
      <trkpt lat="45.62672" lon="2.94982">
        <ele>1013</ele>
        <time>2022-08-17T14:04:18Z</time>
      </trkpt>
      <trkpt lat="45.62663" lon="2.94986">
        <ele>1013</ele>
        <time>2022-08-17T14:04:19Z</time>
      </trkpt>
      <trkpt lat="45.62654" lon="2.94991">
        <ele>1013</ele>
        <time>2022-08-17T14:04:20Z</time>
      </trkpt>
      <trkpt lat="45.62645" lon="2.94995">
        <ele>1013</ele>
        <time>2022-08-17T14:04:21Z</time>
      </trkpt>
      <trkpt lat="45.62635" lon="2.94999">
        <ele>1013</ele>
        <time>2022-08-17T14:04:22Z</time>
      </trkpt>
      <trkpt lat="45.62625" lon="2.95004">
        <ele>1013</ele>
        <time>2022-08-17T14:04:23Z</time>
      </trkpt>
      <trkpt lat="45.62616" lon="2.95008">
        <ele>1013</ele>
        <time>2022-08-17T14:04:24Z</time>
      </trkpt>
      <trkpt lat="45.62606" lon="2.95012">
        <ele>1013</ele>
        <time>2022-08-17T14:04:25Z</time>
      </trkpt>
      <trkpt lat="45.62596" lon="2.95015">
        <ele>1013</ele>
        <time>2022-08-17T14:04:26Z</time>
      </trkpt>
      <trkpt lat="45.62586" lon="2.95017">
        <ele>1013</ele>
        <time>2022-08-17T14:04:27Z</time>
      </trkpt>
      <trkpt lat="45.62575" lon="2.95017">
        <ele>1011</ele>
        <time>2022-08-17T14:04:28Z</time>
      </trkpt>
      <trkpt lat="45.62565" lon="2.95017">
        <ele>1011</ele>
        <time>2022-08-17T14:04:29Z</time>
      </trkpt>
      <trkpt lat="45.62555" lon="2.95016">
        <ele>1011</ele>
        <time>2022-08-17T14:04:30Z</time>
      </trkpt>
      <trkpt lat="45.62545" lon="2.95014">
        <ele>1011</ele>
        <time>2022-08-17T14:04:31Z</time>
      </trkpt>
      <trkpt lat="45.62535" lon="2.95013">
        <ele>1011</ele>
        <time>2022-08-17T14:04:32Z</time>
      </trkpt>
      <trkpt lat="45.62525" lon="2.95012">
        <ele>1011</ele>
        <time>2022-08-17T14:04:33Z</time>
      </trkpt>
      <trkpt lat="45.62516" lon="2.95012">
        <ele>1011</ele>
        <time>2022-08-17T14:04:34Z</time>
      </trkpt>
      <trkpt lat="45.62507" lon="2.95014">
        <ele>1011</ele>
        <time>2022-08-17T14:04:35Z</time>
      </trkpt>
      <trkpt lat="45.62498" lon="2.95019">
        <ele>1011</ele>
        <time>2022-08-17T14:04:36Z</time>
      </trkpt>
      <trkpt lat="45.6249" lon="2.95027">
        <ele>1011</ele>
        <time>2022-08-17T14:04:37Z</time>
      </trkpt>
      <trkpt lat="45.62484" lon="2.95038">
        <ele>1006</ele>
        <time>2022-08-17T14:04:38Z</time>
      </trkpt>
      <trkpt lat="45.62477" lon="2.95048">
        <ele>1006</ele>
        <time>2022-08-17T14:04:39Z</time>
      </trkpt>
      <trkpt lat="45.6247" lon="2.95059">
        <ele>1006</ele>
        <time>2022-08-17T14:04:40Z</time>
      </trkpt>
      <trkpt lat="45.62464" lon="2.95071">
        <ele>1006</ele>
        <time>2022-08-17T14:04:41Z</time>
      </trkpt>
      <trkpt lat="45.62458" lon="2.95083">
        <ele>1006</ele>
        <time>2022-08-17T14:04:42Z</time>
      </trkpt>
      <trkpt lat="45.62452" lon="2.95096">
        <ele>1006</ele>
        <time>2022-08-17T14:04:43Z</time>
      </trkpt>
      <trkpt lat="45.62445" lon="2.95108">
        <ele>1006</ele>
        <time>2022-08-17T14:04:44Z</time>
      </trkpt>
      <trkpt lat="45.62438" lon="2.9512">
        <ele>1006</ele>
        <time>2022-08-17T14:04:45Z</time>
      </trkpt>
      <trkpt lat="45.62432" lon="2.95132">
        <ele>1006</ele>
        <time>2022-08-17T14:04:46Z</time>
      </trkpt>
      <trkpt lat="45.62421" lon="2.95151">
        <ele>1006</ele>
        <time>2022-08-17T14:04:47Z</time>
      </trkpt>
      <trkpt lat="45.62418" lon="2.95157">
        <ele>1000</ele>
        <time>2022-08-17T14:04:48Z</time>
      </trkpt>
      <trkpt lat="45.62411" lon="2.95169">
        <ele>1000</ele>
        <time>2022-08-17T14:04:49Z</time>
      </trkpt>
      <trkpt lat="45.62404" lon="2.95181">
        <ele>1000</ele>
        <time>2022-08-17T14:04:50Z</time>
      </trkpt>
      <trkpt lat="45.62398" lon="2.95193">
        <ele>1000</ele>
        <time>2022-08-17T14:04:51Z</time>
      </trkpt>
      <trkpt lat="45.62391" lon="2.95206">
        <ele>1000</ele>
        <time>2022-08-17T14:04:52Z</time>
      </trkpt>
      <trkpt lat="45.62384" lon="2.95218">
        <ele>1000</ele>
        <time>2022-08-17T14:04:53Z</time>
      </trkpt>
      <trkpt lat="45.62378" lon="2.9523">
        <ele>1000</ele>
        <time>2022-08-17T14:04:54Z</time>
      </trkpt>
      <trkpt lat="45.6237" lon="2.95241">
        <ele>1000</ele>
        <time>2022-08-17T14:04:55Z</time>
      </trkpt>
      <trkpt lat="45.62363" lon="2.95252">
        <ele>1000</ele>
        <time>2022-08-17T14:04:56Z</time>
      </trkpt>
      <trkpt lat="45.62349" lon="2.95264">
        <ele>1000</ele>
        <time>2022-08-17T14:04:57Z</time>
      </trkpt>
      <trkpt lat="45.62344" lon="2.95267">
        <ele>995</ele>
        <time>2022-08-17T14:04:58Z</time>
      </trkpt>
      <trkpt lat="45.62334" lon="2.95274">
        <ele>995</ele>
        <time>2022-08-17T14:04:59Z</time>
      </trkpt>
      <trkpt lat="45.62324" lon="2.95278">
        <ele>995</ele>
        <time>2022-08-17T14:05:00Z</time>
      </trkpt>
      <trkpt lat="45.62313" lon="2.95283">
        <ele>995</ele>
        <time>2022-08-17T14:05:01Z</time>
      </trkpt>
      <trkpt lat="45.62303" lon="2.95287">
        <ele>995</ele>
        <time>2022-08-17T14:05:02Z</time>
      </trkpt>
      <trkpt lat="45.62293" lon="2.95292">
        <ele>995</ele>
        <time>2022-08-17T14:05:03Z</time>
      </trkpt>
      <trkpt lat="45.62282" lon="2.95297">
        <ele>995</ele>
        <time>2022-08-17T14:05:04Z</time>
      </trkpt>
      <trkpt lat="45.62272" lon="2.95302">
        <ele>995</ele>
        <time>2022-08-17T14:05:05Z</time>
      </trkpt>
      <trkpt lat="45.62262" lon="2.95307">
        <ele>995</ele>
        <time>2022-08-17T14:05:06Z</time>
      </trkpt>
      <trkpt lat="45.62249" lon="2.95316">
        <ele>995</ele>
        <time>2022-08-17T14:05:07Z</time>
      </trkpt>
      <trkpt lat="45.62245" lon="2.95319">
        <ele>991</ele>
        <time>2022-08-17T14:05:08Z</time>
      </trkpt>
      <trkpt lat="45.62231" lon="2.95332">
        <ele>991</ele>
        <time>2022-08-17T14:05:09Z</time>
      </trkpt>
      <trkpt lat="45.62226" lon="2.95339">
        <ele>991</ele>
        <time>2022-08-17T14:05:10Z</time>
      </trkpt>
      <trkpt lat="45.62221" lon="2.95347">
        <ele>991</ele>
        <time>2022-08-17T14:05:11Z</time>
      </trkpt>
      <trkpt lat="45.62216" lon="2.95354">
        <ele>991</ele>
        <time>2022-08-17T14:05:12Z</time>
      </trkpt>
      <trkpt lat="45.62211" lon="2.95361">
        <ele>991</ele>
        <time>2022-08-17T14:05:13Z</time>
      </trkpt>
      <trkpt lat="45.62206" lon="2.95368">
        <ele>991</ele>
        <time>2022-08-17T14:05:14Z</time>
      </trkpt>
      <trkpt lat="45.62201" lon="2.95375">
        <ele>991</ele>
        <time>2022-08-17T14:05:15Z</time>
      </trkpt>
      <trkpt lat="45.62196" lon="2.95383">
        <ele>991</ele>
        <time>2022-08-17T14:05:16Z</time>
      </trkpt>
      <trkpt lat="45.62191" lon="2.9539">
        <ele>991</ele>
        <time>2022-08-17T14:05:17Z</time>
      </trkpt>
      <trkpt lat="45.62186" lon="2.95397">
        <ele>990</ele>
        <time>2022-08-17T14:05:18Z</time>
      </trkpt>
      <trkpt lat="45.62179" lon="2.9541">
        <ele>990</ele>
        <time>2022-08-17T14:05:19Z</time>
      </trkpt>
      <trkpt lat="45.62176" lon="2.95415">
        <ele>990</ele>
        <time>2022-08-17T14:05:20Z</time>
      </trkpt>
      <trkpt lat="45.62173" lon="2.9542">
        <ele>990</ele>
        <time>2022-08-17T14:05:22Z</time>
      </trkpt>
      <trkpt lat="45.6217" lon="2.95425">
        <ele>990</ele>
        <time>2022-08-17T14:05:23Z</time>
      </trkpt>
      <trkpt lat="45.62167" lon="2.9543">
        <ele>990</ele>
        <time>2022-08-17T14:05:24Z</time>
      </trkpt>
      <trkpt lat="45.62164" lon="2.95435">
        <ele>990</ele>
        <time>2022-08-17T14:05:25Z</time>
      </trkpt>
      <trkpt lat="45.62161" lon="2.9544">
        <ele>990</ele>
        <time>2022-08-17T14:05:26Z</time>
      </trkpt>
      <trkpt lat="45.62158" lon="2.95445">
        <ele>990</ele>
        <time>2022-08-17T14:05:27Z</time>
      </trkpt>
      <trkpt lat="45.62155" lon="2.9545">
        <ele>991</ele>
        <time>2022-08-17T14:05:28Z</time>
      </trkpt>
      <trkpt lat="45.62148" lon="2.95453">
        <ele>991</ele>
        <time>2022-08-17T14:05:29Z</time>
      </trkpt>
      <trkpt lat="45.62144" lon="2.95452">
        <ele>991</ele>
        <time>2022-08-17T14:05:30Z</time>
      </trkpt>
      <trkpt lat="45.6214" lon="2.95451">
        <ele>991</ele>
        <time>2022-08-17T14:05:31Z</time>
      </trkpt>
      <trkpt lat="45.62136" lon="2.9545">
        <ele>991</ele>
        <time>2022-08-17T14:05:32Z</time>
      </trkpt>
      <trkpt lat="45.62132" lon="2.95449">
        <ele>991</ele>
        <time>2022-08-17T14:05:33Z</time>
      </trkpt>
      <trkpt lat="45.62128" lon="2.95448">
        <ele>991</ele>
        <time>2022-08-17T14:05:34Z</time>
      </trkpt>
      <trkpt lat="45.62124" lon="2.95447">
        <ele>991</ele>
        <time>2022-08-17T14:05:36Z</time>
      </trkpt>
      <trkpt lat="45.6212" lon="2.95447">
        <ele>997</ele>
        <time>2022-08-17T14:05:38Z</time>
      </trkpt>
      <trkpt lat="45.62111" lon="2.95433">
        <ele>997</ele>
        <time>2022-08-17T14:05:40Z</time>
      </trkpt>
      <trkpt lat="45.62108" lon="2.95427">
        <ele>997</ele>
        <time>2022-08-17T14:05:42Z</time>
      </trkpt>
      <trkpt lat="45.62104" lon="2.95421">
        <ele>997</ele>
        <time>2022-08-17T14:05:44Z</time>
      </trkpt>
      <trkpt lat="45.62101" lon="2.95415">
        <ele>997</ele>
        <time>2022-08-17T14:05:46Z</time>
      </trkpt>
      <trkpt lat="45.62097" lon="2.95409">
        <ele>999</ele>
        <time>2022-08-17T14:05:48Z</time>
      </trkpt>
      <trkpt lat="45.62086" lon="2.95403">
        <ele>999</ele>
        <time>2022-08-17T14:05:50Z</time>
      </trkpt>
      <trkpt lat="45.6208" lon="2.95403">
        <ele>999</ele>
        <time>2022-08-17T14:05:52Z</time>
      </trkpt>
      <trkpt lat="45.62074" lon="2.95403">
        <ele>999</ele>
        <time>2022-08-17T14:05:54Z</time>
      </trkpt>
      <trkpt lat="45.62069" lon="2.95403">
        <ele>999</ele>
        <time>2022-08-17T14:05:56Z</time>
      </trkpt>
      <trkpt lat="45.62063" lon="2.95403">
        <ele>1003</ele>
        <time>2022-08-17T14:05:58Z</time>
      </trkpt>
      <trkpt lat="45.62051" lon="2.95406">
        <ele>1003</ele>
        <time>2022-08-17T14:06:00Z</time>
      </trkpt>
      <trkpt lat="45.62046" lon="2.95408">
        <ele>1003</ele>
        <time>2022-08-17T14:06:02Z</time>
      </trkpt>
      <trkpt lat="45.6204" lon="2.95409">
        <ele>1003</ele>
        <time>2022-08-17T14:06:04Z</time>
      </trkpt>
      <trkpt lat="45.62035" lon="2.9541">
        <ele>1003</ele>
        <time>2022-08-17T14:06:06Z</time>
      </trkpt>
      <trkpt lat="45.6203" lon="2.95412">
        <ele>1005</ele>
        <time>2022-08-17T14:06:08Z</time>
      </trkpt>
      <trkpt lat="45.62017" lon="2.95411">
        <ele>1005</ele>
        <time>2022-08-17T14:06:10Z</time>
      </trkpt>
      <trkpt lat="45.62011" lon="2.9541">
        <ele>1005</ele>
        <time>2022-08-17T14:06:12Z</time>
      </trkpt>
      <trkpt lat="45.62005" lon="2.95409">
        <ele>1005</ele>
        <time>2022-08-17T14:06:14Z</time>
      </trkpt>
      <trkpt lat="45.61999" lon="2.95408">
        <ele>1005</ele>
        <time>2022-08-17T14:06:16Z</time>
      </trkpt>
      <trkpt lat="45.61994" lon="2.95407">
        <ele>1006</ele>
        <time>2022-08-17T14:06:18Z</time>
      </trkpt>
      <trkpt lat="45.61983" lon="2.95404">
        <ele>1006</ele>
        <time>2022-08-17T14:06:20Z</time>
      </trkpt>
      <trkpt lat="45.6198" lon="2.95403">
        <ele>1006</ele>
        <time>2022-08-17T14:06:21Z</time>
      </trkpt>
      <trkpt lat="45.61977" lon="2.95401">
        <ele>1006</ele>
        <time>2022-08-17T14:06:22Z</time>
      </trkpt>
      <trkpt lat="45.61973" lon="2.954">
        <ele>1006</ele>
        <time>2022-08-17T14:06:23Z</time>
      </trkpt>
      <trkpt lat="45.6197" lon="2.95399">
        <ele>1006</ele>
        <time>2022-08-17T14:06:24Z</time>
      </trkpt>
      <trkpt lat="45.61967" lon="2.95398">
        <ele>1006</ele>
        <time>2022-08-17T14:06:25Z</time>
      </trkpt>
      <trkpt lat="45.61964" lon="2.95397">
        <ele>1006</ele>
        <time>2022-08-17T14:06:26Z</time>
      </trkpt>
      <trkpt lat="45.61961" lon="2.95396">
        <ele>1006</ele>
        <time>2022-08-17T14:06:27Z</time>
      </trkpt>
      <trkpt lat="45.61958" lon="2.95395">
        <ele>1008</ele>
        <time>2022-08-17T14:06:28Z</time>
      </trkpt>
      <trkpt lat="45.61946" lon="2.9539">
        <ele>1008</ele>
        <time>2022-08-17T14:06:30Z</time>
      </trkpt>
      <trkpt lat="45.61941" lon="2.95388">
        <ele>1008</ele>
        <time>2022-08-17T14:06:32Z</time>
      </trkpt>
      <trkpt lat="45.61937" lon="2.95386">
        <ele>1008</ele>
        <time>2022-08-17T14:06:34Z</time>
      </trkpt>
      <trkpt lat="45.61932" lon="2.95384">
        <ele>1008</ele>
        <time>2022-08-17T14:06:36Z</time>
      </trkpt>
      <trkpt lat="45.61927" lon="2.95383">
        <ele>1008</ele>
        <time>2022-08-17T14:06:37Z</time>
      </trkpt>
      <trkpt lat="45.61923" lon="2.95381">
        <ele>1010</ele>
        <time>2022-08-17T14:06:38Z</time>
      </trkpt>
      <trkpt lat="45.61915" lon="2.95378">
        <ele>1010</ele>
        <time>2022-08-17T14:06:39Z</time>
      </trkpt>
      <trkpt lat="45.61912" lon="2.95376">
        <ele>1010</ele>
        <time>2022-08-17T14:06:41Z</time>
      </trkpt>
      <trkpt lat="45.61908" lon="2.95374">
        <ele>1010</ele>
        <time>2022-08-17T14:06:43Z</time>
      </trkpt>
      <trkpt lat="45.61904" lon="2.95373">
        <ele>1010</ele>
        <time>2022-08-17T14:06:44Z</time>
      </trkpt>
      <trkpt lat="45.619" lon="2.95371">
        <ele>1010</ele>
        <time>2022-08-17T14:06:45Z</time>
      </trkpt>
      <trkpt lat="45.61896" lon="2.95369">
        <ele>1010</ele>
        <time>2022-08-17T14:06:46Z</time>
      </trkpt>
      <trkpt lat="45.61892" lon="2.95368">
        <ele>1010</ele>
        <time>2022-08-17T14:06:47Z</time>
      </trkpt>
      <trkpt lat="45.61889" lon="2.95366">
        <ele>1012</ele>
        <time>2022-08-17T14:06:48Z</time>
      </trkpt>
      <trkpt lat="45.61882" lon="2.95357">
        <ele>1012</ele>
        <time>2022-08-17T14:06:49Z</time>
      </trkpt>
      <trkpt lat="45.61879" lon="2.95351">
        <ele>1012</ele>
        <time>2022-08-17T14:06:51Z</time>
      </trkpt>
      <trkpt lat="45.61876" lon="2.95345">
        <ele>1012</ele>
        <time>2022-08-17T14:06:53Z</time>
      </trkpt>
      <trkpt lat="45.61872" lon="2.95338">
        <ele>1012</ele>
        <time>2022-08-17T14:06:55Z</time>
      </trkpt>
      <trkpt lat="45.61869" lon="2.95332">
        <ele>1012</ele>
        <time>2022-08-17T14:06:56Z</time>
      </trkpt>
      <trkpt lat="45.61866" lon="2.95326">
        <ele>1012</ele>
        <time>2022-08-17T14:06:57Z</time>
      </trkpt>
      <trkpt lat="45.61863" lon="2.9532">
        <ele>1013</ele>
        <time>2022-08-17T14:06:58Z</time>
      </trkpt>
      <trkpt lat="45.61858" lon="2.95309">
        <ele>1013</ele>
        <time>2022-08-17T14:06:59Z</time>
      </trkpt>
      <trkpt lat="45.61856" lon="2.95304">
        <ele>1013</ele>
        <time>2022-08-17T14:07:00Z</time>
      </trkpt>
      <trkpt lat="45.61854" lon="2.95299">
        <ele>1013</ele>
        <time>2022-08-17T14:07:01Z</time>
      </trkpt>
      <trkpt lat="45.61851" lon="2.95294">
        <ele>1013</ele>
        <time>2022-08-17T14:07:02Z</time>
      </trkpt>
      <trkpt lat="45.61849" lon="2.95289">
        <ele>1013</ele>
        <time>2022-08-17T14:07:03Z</time>
      </trkpt>
      <trkpt lat="45.61847" lon="2.95284">
        <ele>1013</ele>
        <time>2022-08-17T14:07:04Z</time>
      </trkpt>
      <trkpt lat="45.61845" lon="2.95279">
        <ele>1013</ele>
        <time>2022-08-17T14:07:05Z</time>
      </trkpt>
      <trkpt lat="45.61842" lon="2.95274">
        <ele>1013</ele>
        <time>2022-08-17T14:07:06Z</time>
      </trkpt>
      <trkpt lat="45.6184" lon="2.95269">
        <ele>1013</ele>
        <time>2022-08-17T14:07:07Z</time>
      </trkpt>
      <trkpt lat="45.61838" lon="2.95264">
        <ele>1015</ele>
        <time>2022-08-17T14:07:08Z</time>
      </trkpt>
      <trkpt lat="45.61833" lon="2.95253">
        <ele>1015</ele>
        <time>2022-08-17T14:07:09Z</time>
      </trkpt>
      <trkpt lat="45.61831" lon="2.95248">
        <ele>1015</ele>
        <time>2022-08-17T14:07:10Z</time>
      </trkpt>
      <trkpt lat="45.61829" lon="2.95244">
        <ele>1015</ele>
        <time>2022-08-17T14:07:11Z</time>
      </trkpt>
      <trkpt lat="45.61826" lon="2.95239">
        <ele>1015</ele>
        <time>2022-08-17T14:07:12Z</time>
      </trkpt>
      <trkpt lat="45.61824" lon="2.95234">
        <ele>1015</ele>
        <time>2022-08-17T14:07:13Z</time>
      </trkpt>
      <trkpt lat="45.61822" lon="2.95229">
        <ele>1015</ele>
        <time>2022-08-17T14:07:14Z</time>
      </trkpt>
      <trkpt lat="45.61819" lon="2.95224">
        <ele>1015</ele>
        <time>2022-08-17T14:07:15Z</time>
      </trkpt>
      <trkpt lat="45.61817" lon="2.9522">
        <ele>1015</ele>
        <time>2022-08-17T14:07:16Z</time>
      </trkpt>
      <trkpt lat="45.61815" lon="2.95215">
        <ele>1015</ele>
        <time>2022-08-17T14:07:17Z</time>
      </trkpt>
      <trkpt lat="45.61813" lon="2.9521">
        <ele>1015</ele>
        <time>2022-08-17T14:07:18Z</time>
      </trkpt>
      <trkpt lat="45.61807" lon="2.952">
        <ele>1015</ele>
        <time>2022-08-17T14:07:19Z</time>
      </trkpt>
      <trkpt lat="45.61804" lon="2.95196">
        <ele>1015</ele>
        <time>2022-08-17T14:07:20Z</time>
      </trkpt>
      <trkpt lat="45.61801" lon="2.95192">
        <ele>1015</ele>
        <time>2022-08-17T14:07:21Z</time>
      </trkpt>
      <trkpt lat="45.61798" lon="2.95187">
        <ele>1015</ele>
        <time>2022-08-17T14:07:22Z</time>
      </trkpt>
      <trkpt lat="45.61794" lon="2.95183">
        <ele>1015</ele>
        <time>2022-08-17T14:07:23Z</time>
      </trkpt>
      <trkpt lat="45.61791" lon="2.95179">
        <ele>1015</ele>
        <time>2022-08-17T14:07:24Z</time>
      </trkpt>
      <trkpt lat="45.61788" lon="2.95175">
        <ele>1015</ele>
        <time>2022-08-17T14:07:25Z</time>
      </trkpt>
      <trkpt lat="45.61785" lon="2.95171">
        <ele>1015</ele>
        <time>2022-08-17T14:07:26Z</time>
      </trkpt>
      <trkpt lat="45.61782" lon="2.95166">
        <ele>1015</ele>
        <time>2022-08-17T14:07:27Z</time>
      </trkpt>
      <trkpt lat="45.61779" lon="2.95162">
        <ele>1014</ele>
        <time>2022-08-17T14:07:28Z</time>
      </trkpt>
      <trkpt lat="45.61765" lon="2.95153">
        <ele>1014</ele>
        <time>2022-08-17T14:07:30Z</time>
      </trkpt>
      <trkpt lat="45.6176" lon="2.95152">
        <ele>1014</ele>
        <time>2022-08-17T14:07:31Z</time>
      </trkpt>
      <trkpt lat="45.61755" lon="2.9515">
        <ele>1014</ele>
        <time>2022-08-17T14:07:32Z</time>
      </trkpt>
      <trkpt lat="45.61751" lon="2.95149">
        <ele>1014</ele>
        <time>2022-08-17T14:07:33Z</time>
      </trkpt>
      <trkpt lat="45.61746" lon="2.95147">
        <ele>1014</ele>
        <time>2022-08-17T14:07:34Z</time>
      </trkpt>
      <trkpt lat="45.61741" lon="2.95146">
        <ele>1014</ele>
        <time>2022-08-17T14:07:35Z</time>
      </trkpt>
      <trkpt lat="45.61736" lon="2.95144">
        <ele>1014</ele>
        <time>2022-08-17T14:07:36Z</time>
      </trkpt>
      <trkpt lat="45.61731" lon="2.95143">
        <ele>1014</ele>
        <time>2022-08-17T14:07:37Z</time>
      </trkpt>
      <trkpt lat="45.61726" lon="2.95141">
        <ele>1015</ele>
        <time>2022-08-17T14:07:38Z</time>
      </trkpt>
      <trkpt lat="45.61715" lon="2.95142">
        <ele>1015</ele>
        <time>2022-08-17T14:07:39Z</time>
      </trkpt>
      <trkpt lat="45.61711" lon="2.95143">
        <ele>1015</ele>
        <time>2022-08-17T14:07:40Z</time>
      </trkpt>
      <trkpt lat="45.61706" lon="2.95143">
        <ele>1015</ele>
        <time>2022-08-17T14:07:41Z</time>
      </trkpt>
      <trkpt lat="45.61701" lon="2.95144">
        <ele>1015</ele>
        <time>2022-08-17T14:07:42Z</time>
      </trkpt>
      <trkpt lat="45.61696" lon="2.95145">
        <ele>1015</ele>
        <time>2022-08-17T14:07:43Z</time>
      </trkpt>
      <trkpt lat="45.61691" lon="2.95146">
        <ele>1015</ele>
        <time>2022-08-17T14:07:44Z</time>
      </trkpt>
      <trkpt lat="45.61686" lon="2.95147">
        <ele>1015</ele>
        <time>2022-08-17T14:07:45Z</time>
      </trkpt>
      <trkpt lat="45.61681" lon="2.95148">
        <ele>1015</ele>
        <time>2022-08-17T14:07:46Z</time>
      </trkpt>
      <trkpt lat="45.61676" lon="2.95149">
        <ele>1015</ele>
        <time>2022-08-17T14:07:47Z</time>
      </trkpt>
      <trkpt lat="45.61671" lon="2.9515">
        <ele>1016</ele>
        <time>2022-08-17T14:07:48Z</time>
      </trkpt>
      <trkpt lat="45.61661" lon="2.95156">
        <ele>1016</ele>
        <time>2022-08-17T14:07:49Z</time>
      </trkpt>
      <trkpt lat="45.61657" lon="2.95161">
        <ele>1016</ele>
        <time>2022-08-17T14:07:50Z</time>
      </trkpt>
      <trkpt lat="45.61653" lon="2.95165">
        <ele>1016</ele>
        <time>2022-08-17T14:07:51Z</time>
      </trkpt>
      <trkpt lat="45.61648" lon="2.95169">
        <ele>1016</ele>
        <time>2022-08-17T14:07:52Z</time>
      </trkpt>
      <trkpt lat="45.61644" lon="2.95174">
        <ele>1016</ele>
        <time>2022-08-17T14:07:53Z</time>
      </trkpt>
      <trkpt lat="45.61639" lon="2.95178">
        <ele>1016</ele>
        <time>2022-08-17T14:07:55Z</time>
      </trkpt>
      <trkpt lat="45.61635" lon="2.95182">
        <ele>1016</ele>
        <time>2022-08-17T14:07:57Z</time>
      </trkpt>
      <trkpt lat="45.61631" lon="2.95187">
        <ele>1018</ele>
        <time>2022-08-17T14:07:58Z</time>
      </trkpt>
      <trkpt lat="45.61623" lon="2.952">
        <ele>1018</ele>
        <time>2022-08-17T14:07:59Z</time>
      </trkpt>
      <trkpt lat="45.61619" lon="2.95208">
        <ele>1018</ele>
        <time>2022-08-17T14:08:01Z</time>
      </trkpt>
      <trkpt lat="45.61614" lon="2.95216">
        <ele>1018</ele>
        <time>2022-08-17T14:08:03Z</time>
      </trkpt>
      <trkpt lat="45.6161" lon="2.95224">
        <ele>1018</ele>
        <time>2022-08-17T14:08:05Z</time>
      </trkpt>
      <trkpt lat="45.61605" lon="2.95232">
        <ele>1018</ele>
        <time>2022-08-17T14:08:06Z</time>
      </trkpt>
      <trkpt lat="45.61601" lon="2.9524">
        <ele>1023</ele>
        <time>2022-08-17T14:08:08Z</time>
      </trkpt>
      <trkpt lat="45.6159" lon="2.95256">
        <ele>1023</ele>
        <time>2022-08-17T14:08:10Z</time>
      </trkpt>
      <trkpt lat="45.61585" lon="2.95263">
        <ele>1023</ele>
        <time>2022-08-17T14:08:12Z</time>
      </trkpt>
      <trkpt lat="45.6158" lon="2.95269">
        <ele>1023</ele>
        <time>2022-08-17T14:08:14Z</time>
      </trkpt>
      <trkpt lat="45.61576" lon="2.95275">
        <ele>1023</ele>
        <time>2022-08-17T14:08:16Z</time>
      </trkpt>
      <trkpt lat="45.61571" lon="2.95281">
        <ele>1024</ele>
        <time>2022-08-17T14:08:18Z</time>
      </trkpt>
      <trkpt lat="45.6156" lon="2.95293">
        <ele>1024</ele>
        <time>2022-08-17T14:08:20Z</time>
      </trkpt>
      <trkpt lat="45.61555" lon="2.95297">
        <ele>1024</ele>
        <time>2022-08-17T14:08:22Z</time>
      </trkpt>
      <trkpt lat="45.61551" lon="2.95302">
        <ele>1024</ele>
        <time>2022-08-17T14:08:24Z</time>
      </trkpt>
      <trkpt lat="45.61546" lon="2.95306">
        <ele>1024</ele>
        <time>2022-08-17T14:08:25Z</time>
      </trkpt>
      <trkpt lat="45.61542" lon="2.95311">
        <ele>1024</ele>
        <time>2022-08-17T14:08:27Z</time>
      </trkpt>
      <trkpt lat="45.61537" lon="2.95315">
        <ele>1025</ele>
        <time>2022-08-17T14:08:28Z</time>
      </trkpt>
      <trkpt lat="45.6153" lon="2.95322">
        <ele>1025</ele>
        <time>2022-08-17T14:08:29Z</time>
      </trkpt>
      <trkpt lat="45.61526" lon="2.95326">
        <ele>1025</ele>
        <time>2022-08-17T14:08:31Z</time>
      </trkpt>
      <trkpt lat="45.61523" lon="2.9533">
        <ele>1025</ele>
        <time>2022-08-17T14:08:33Z</time>
      </trkpt>
      <trkpt lat="45.61519" lon="2.95334">
        <ele>1025</ele>
        <time>2022-08-17T14:08:34Z</time>
      </trkpt>
      <trkpt lat="45.61515" lon="2.95337">
        <ele>1025</ele>
        <time>2022-08-17T14:08:35Z</time>
      </trkpt>
      <trkpt lat="45.61511" lon="2.95341">
        <ele>1025</ele>
        <time>2022-08-17T14:08:36Z</time>
      </trkpt>
      <trkpt lat="45.61508" lon="2.95345">
        <ele>1025</ele>
        <time>2022-08-17T14:08:37Z</time>
      </trkpt>
      <trkpt lat="45.61504" lon="2.95349">
        <ele>1027</ele>
        <time>2022-08-17T14:08:38Z</time>
      </trkpt>
      <trkpt lat="45.61497" lon="2.95355">
        <ele>1027</ele>
        <time>2022-08-17T14:08:39Z</time>
      </trkpt>
      <trkpt lat="45.61493" lon="2.95359">
        <ele>1027</ele>
        <time>2022-08-17T14:08:40Z</time>
      </trkpt>
      <trkpt lat="45.6149" lon="2.95362">
        <ele>1027</ele>
        <time>2022-08-17T14:08:41Z</time>
      </trkpt>
      <trkpt lat="45.61486" lon="2.95365">
        <ele>1027</ele>
        <time>2022-08-17T14:08:42Z</time>
      </trkpt>
      <trkpt lat="45.61482" lon="2.95368">
        <ele>1027</ele>
        <time>2022-08-17T14:08:43Z</time>
      </trkpt>
      <trkpt lat="45.61479" lon="2.95372">
        <ele>1027</ele>
        <time>2022-08-17T14:08:45Z</time>
      </trkpt>
      <trkpt lat="45.61475" lon="2.95375">
        <ele>1027</ele>
        <time>2022-08-17T14:08:47Z</time>
      </trkpt>
      <trkpt lat="45.61472" lon="2.95378">
        <ele>1031</ele>
        <time>2022-08-17T14:08:48Z</time>
      </trkpt>
      <trkpt lat="45.61464" lon="2.95385">
        <ele>1031</ele>
        <time>2022-08-17T14:08:49Z</time>
      </trkpt>
      <trkpt lat="45.61459" lon="2.95389">
        <ele>1031</ele>
        <time>2022-08-17T14:08:51Z</time>
      </trkpt>
      <trkpt lat="45.61454" lon="2.95392">
        <ele>1031</ele>
        <time>2022-08-17T14:08:53Z</time>
      </trkpt>
      <trkpt lat="45.61449" lon="2.95396">
        <ele>1031</ele>
        <time>2022-08-17T14:08:55Z</time>
      </trkpt>
      <trkpt lat="45.61445" lon="2.954">
        <ele>1031</ele>
        <time>2022-08-17T14:08:57Z</time>
      </trkpt>
      <trkpt lat="45.6144" lon="2.95404">
        <ele>1032</ele>
        <time>2022-08-17T14:08:58Z</time>
      </trkpt>
      <trkpt lat="45.61432" lon="2.95407">
        <ele>1032</ele>
        <time>2022-08-17T14:08:59Z</time>
      </trkpt>
      <trkpt lat="45.61427" lon="2.95409">
        <ele>1032</ele>
        <time>2022-08-17T14:09:01Z</time>
      </trkpt>
      <trkpt lat="45.61423" lon="2.9541">
        <ele>1032</ele>
        <time>2022-08-17T14:09:02Z</time>
      </trkpt>
      <trkpt lat="45.61418" lon="2.95412">
        <ele>1032</ele>
        <time>2022-08-17T14:09:03Z</time>
      </trkpt>
      <trkpt lat="45.61414" lon="2.95413">
        <ele>1032</ele>
        <time>2022-08-17T14:09:04Z</time>
      </trkpt>
      <trkpt lat="45.61409" lon="2.95415">
        <ele>1032</ele>
        <time>2022-08-17T14:09:06Z</time>
      </trkpt>
      <trkpt lat="45.61405" lon="2.95416">
        <ele>1035</ele>
        <time>2022-08-17T14:09:08Z</time>
      </trkpt>
      <trkpt lat="45.61394" lon="2.95414">
        <ele>1035</ele>
        <time>2022-08-17T14:09:10Z</time>
      </trkpt>
      <trkpt lat="45.6139" lon="2.95412">
        <ele>1035</ele>
        <time>2022-08-17T14:09:12Z</time>
      </trkpt>
      <trkpt lat="45.61386" lon="2.95411">
        <ele>1035</ele>
        <time>2022-08-17T14:09:13Z</time>
      </trkpt>
      <trkpt lat="45.61382" lon="2.95409">
        <ele>1035</ele>
        <time>2022-08-17T14:09:14Z</time>
      </trkpt>
      <trkpt lat="45.61378" lon="2.95407">
        <ele>1035</ele>
        <time>2022-08-17T14:09:15Z</time>
      </trkpt>
      <trkpt lat="45.61375" lon="2.95406">
        <ele>1035</ele>
        <time>2022-08-17T14:09:16Z</time>
      </trkpt>
      <trkpt lat="45.61371" lon="2.95404">
        <ele>1035</ele>
        <time>2022-08-17T14:09:17Z</time>
      </trkpt>
      <trkpt lat="45.61367" lon="2.95403">
        <ele>1036</ele>
        <time>2022-08-17T14:09:18Z</time>
      </trkpt>
      <trkpt lat="45.61358" lon="2.95398">
        <ele>1036</ele>
        <time>2022-08-17T14:09:19Z</time>
      </trkpt>
      <trkpt lat="45.61353" lon="2.95396">
        <ele>1036</ele>
        <time>2022-08-17T14:09:20Z</time>
      </trkpt>
      <trkpt lat="45.61347" lon="2.95393">
        <ele>1036</ele>
        <time>2022-08-17T14:09:21Z</time>
      </trkpt>
      <trkpt lat="45.61342" lon="2.95391">
        <ele>1036</ele>
        <time>2022-08-17T14:09:23Z</time>
      </trkpt>
      <trkpt lat="45.61337" lon="2.95388">
        <ele>1036</ele>
        <time>2022-08-17T14:09:25Z</time>
      </trkpt>
      <trkpt lat="45.61331" lon="2.95386">
        <ele>1036</ele>
        <time>2022-08-17T14:09:27Z</time>
      </trkpt>
      <trkpt lat="45.61326" lon="2.95383">
        <ele>1037</ele>
        <time>2022-08-17T14:09:28Z</time>
      </trkpt>
      <trkpt lat="45.61316" lon="2.95378">
        <ele>1037</ele>
        <time>2022-08-17T14:09:29Z</time>
      </trkpt>
      <trkpt lat="45.6131" lon="2.95375">
        <ele>1037</ele>
        <time>2022-08-17T14:09:31Z</time>
      </trkpt>
      <trkpt lat="45.61305" lon="2.95373">
        <ele>1037</ele>
        <time>2022-08-17T14:09:33Z</time>
      </trkpt>
      <trkpt lat="45.61299" lon="2.9537">
        <ele>1037</ele>
        <time>2022-08-17T14:09:34Z</time>
      </trkpt>
      <trkpt lat="45.61293" lon="2.95367">
        <ele>1037</ele>
        <time>2022-08-17T14:09:35Z</time>
      </trkpt>
      <trkpt lat="45.61288" lon="2.95364">
        <ele>1038</ele>
        <time>2022-08-17T14:09:38Z</time>
      </trkpt>
      <trkpt lat="45.61271" lon="2.95356">
        <ele>1038</ele>
        <time>2022-08-17T14:09:39Z</time>
      </trkpt>
      <trkpt lat="45.61264" lon="2.95353">
        <ele>1038</ele>
        <time>2022-08-17T14:09:41Z</time>
      </trkpt>
      <trkpt lat="45.61257" lon="2.95349">
        <ele>1038</ele>
        <time>2022-08-17T14:09:43Z</time>
      </trkpt>
      <trkpt lat="45.6125" lon="2.95346">
        <ele>1038</ele>
        <time>2022-08-17T14:09:45Z</time>
      </trkpt>
      <trkpt lat="45.61243" lon="2.95343">
        <ele>1038</ele>
        <time>2022-08-17T14:09:47Z</time>
      </trkpt>
      <trkpt lat="45.61236" lon="2.95339">
        <ele>1038</ele>
        <time>2022-08-17T14:09:48Z</time>
      </trkpt>
      <trkpt lat="45.61226" lon="2.95335">
        <ele>1038</ele>
        <time>2022-08-17T14:09:49Z</time>
      </trkpt>
      <trkpt lat="45.61222" lon="2.95333">
        <ele>1038</ele>
        <time>2022-08-17T14:09:51Z</time>
      </trkpt>
      <trkpt lat="45.61217" lon="2.95331">
        <ele>1038</ele>
        <time>2022-08-17T14:09:52Z</time>
      </trkpt>
      <trkpt lat="45.61212" lon="2.95328">
        <ele>1038</ele>
        <time>2022-08-17T14:09:53Z</time>
      </trkpt>
      <trkpt lat="45.61208" lon="2.95326">
        <ele>1038</ele>
        <time>2022-08-17T14:09:54Z</time>
      </trkpt>
      <trkpt lat="45.61203" lon="2.95324">
        <ele>1038</ele>
        <time>2022-08-17T14:09:55Z</time>
      </trkpt>
      <trkpt lat="45.61198" lon="2.95322">
        <ele>1038</ele>
        <time>2022-08-17T14:09:56Z</time>
      </trkpt>
      <trkpt lat="45.61193" lon="2.95319">
        <ele>1038</ele>
        <time>2022-08-17T14:09:57Z</time>
      </trkpt>
      <trkpt lat="45.61189" lon="2.95317">
        <ele>1039</ele>
        <time>2022-08-17T14:09:58Z</time>
      </trkpt>
      <trkpt lat="45.6118" lon="2.95313">
        <ele>1039</ele>
        <time>2022-08-17T14:09:59Z</time>
      </trkpt>
      <trkpt lat="45.61175" lon="2.9531">
        <ele>1039</ele>
        <time>2022-08-17T14:10:00Z</time>
      </trkpt>
      <trkpt lat="45.6117" lon="2.95308">
        <ele>1039</ele>
        <time>2022-08-17T14:10:01Z</time>
      </trkpt>
      <trkpt lat="45.61166" lon="2.95306">
        <ele>1039</ele>
        <time>2022-08-17T14:10:02Z</time>
      </trkpt>
      <trkpt lat="45.61161" lon="2.95303">
        <ele>1039</ele>
        <time>2022-08-17T14:10:03Z</time>
      </trkpt>
      <trkpt lat="45.61157" lon="2.95301">
        <ele>1039</ele>
        <time>2022-08-17T14:10:04Z</time>
      </trkpt>
      <trkpt lat="45.61152" lon="2.95299">
        <ele>1039</ele>
        <time>2022-08-17T14:10:05Z</time>
      </trkpt>
      <trkpt lat="45.61148" lon="2.95297">
        <ele>1039</ele>
        <time>2022-08-17T14:10:06Z</time>
      </trkpt>
      <trkpt lat="45.61143" lon="2.95294">
        <ele>1039</ele>
        <time>2022-08-17T14:10:07Z</time>
      </trkpt>
      <trkpt lat="45.61139" lon="2.95292">
        <ele>1040</ele>
        <time>2022-08-17T14:10:08Z</time>
      </trkpt>
      <trkpt lat="45.61129" lon="2.95287">
        <ele>1040</ele>
        <time>2022-08-17T14:10:09Z</time>
      </trkpt>
      <trkpt lat="45.61124" lon="2.95285">
        <ele>1040</ele>
        <time>2022-08-17T14:10:10Z</time>
      </trkpt>
      <trkpt lat="45.61119" lon="2.95283">
        <ele>1040</ele>
        <time>2022-08-17T14:10:11Z</time>
      </trkpt>
      <trkpt lat="45.61115" lon="2.95281">
        <ele>1040</ele>
        <time>2022-08-17T14:10:12Z</time>
      </trkpt>
      <trkpt lat="45.6111" lon="2.95278">
        <ele>1040</ele>
        <time>2022-08-17T14:10:13Z</time>
      </trkpt>
      <trkpt lat="45.61105" lon="2.95276">
        <ele>1040</ele>
        <time>2022-08-17T14:10:14Z</time>
      </trkpt>
      <trkpt lat="45.61101" lon="2.95274">
        <ele>1040</ele>
        <time>2022-08-17T14:10:15Z</time>
      </trkpt>
      <trkpt lat="45.61096" lon="2.95272">
        <ele>1040</ele>
        <time>2022-08-17T14:10:16Z</time>
      </trkpt>
      <trkpt lat="45.61091" lon="2.9527">
        <ele>1040</ele>
        <time>2022-08-17T14:10:17Z</time>
      </trkpt>
      <trkpt lat="45.61087" lon="2.95267">
        <ele>1040</ele>
        <time>2022-08-17T14:10:18Z</time>
      </trkpt>
      <trkpt lat="45.61077" lon="2.95258">
        <ele>1040</ele>
        <time>2022-08-17T14:10:19Z</time>
      </trkpt>
      <trkpt lat="45.61073" lon="2.95251">
        <ele>1040</ele>
        <time>2022-08-17T14:10:20Z</time>
      </trkpt>
      <trkpt lat="45.61069" lon="2.95245">
        <ele>1040</ele>
        <time>2022-08-17T14:10:21Z</time>
      </trkpt>
      <trkpt lat="45.61065" lon="2.95239">
        <ele>1040</ele>
        <time>2022-08-17T14:10:22Z</time>
      </trkpt>
      <trkpt lat="45.61061" lon="2.95232">
        <ele>1040</ele>
        <time>2022-08-17T14:10:23Z</time>
      </trkpt>
      <trkpt lat="45.61057" lon="2.95226">
        <ele>1040</ele>
        <time>2022-08-17T14:10:24Z</time>
      </trkpt>
      <trkpt lat="45.61053" lon="2.95219">
        <ele>1040</ele>
        <time>2022-08-17T14:10:25Z</time>
      </trkpt>
      <trkpt lat="45.6105" lon="2.95213">
        <ele>1040</ele>
        <time>2022-08-17T14:10:26Z</time>
      </trkpt>
      <trkpt lat="45.61046" lon="2.95206">
        <ele>1040</ele>
        <time>2022-08-17T14:10:27Z</time>
      </trkpt>
      <trkpt lat="45.61042" lon="2.952">
        <ele>1039</ele>
        <time>2022-08-17T14:10:28Z</time>
      </trkpt>
      <trkpt lat="45.61041" lon="2.95188">
        <ele>1039</ele>
        <time>2022-08-17T14:10:29Z</time>
      </trkpt>
      <trkpt lat="45.61044" lon="2.95175">
        <ele>1039</ele>
        <time>2022-08-17T14:10:30Z</time>
      </trkpt>
      <trkpt lat="45.61047" lon="2.95163">
        <ele>1039</ele>
        <time>2022-08-17T14:10:31Z</time>
      </trkpt>
      <trkpt lat="45.61051" lon="2.9515">
        <ele>1039</ele>
        <time>2022-08-17T14:10:32Z</time>
      </trkpt>
      <trkpt lat="45.61055" lon="2.95138">
        <ele>1039</ele>
        <time>2022-08-17T14:10:33Z</time>
      </trkpt>
      <trkpt lat="45.61059" lon="2.95125">
        <ele>1039</ele>
        <time>2022-08-17T14:10:34Z</time>
      </trkpt>
      <trkpt lat="45.61062" lon="2.95112">
        <ele>1039</ele>
        <time>2022-08-17T14:10:35Z</time>
      </trkpt>
      <trkpt lat="45.61064" lon="2.95098">
        <ele>1039</ele>
        <time>2022-08-17T14:10:36Z</time>
      </trkpt>
      <trkpt lat="45.61065" lon="2.95084">
        <ele>1039</ele>
        <time>2022-08-17T14:10:37Z</time>
      </trkpt>
      <trkpt lat="45.61066" lon="2.9507">
        <ele>1032</ele>
        <time>2022-08-17T14:10:38Z</time>
      </trkpt>
      <trkpt lat="45.61063" lon="2.95047">
        <ele>1032</ele>
        <time>2022-08-17T14:10:39Z</time>
      </trkpt>
      <trkpt lat="45.6106" lon="2.95038">
        <ele>1032</ele>
        <time>2022-08-17T14:10:40Z</time>
      </trkpt>
      <trkpt lat="45.61056" lon="2.95028">
        <ele>1032</ele>
        <time>2022-08-17T14:10:41Z</time>
      </trkpt>
      <trkpt lat="45.61053" lon="2.95019">
        <ele>1032</ele>
        <time>2022-08-17T14:10:42Z</time>
      </trkpt>
      <trkpt lat="45.61049" lon="2.95009">
        <ele>1032</ele>
        <time>2022-08-17T14:10:43Z</time>
      </trkpt>
      <trkpt lat="45.61046" lon="2.95">
        <ele>1032</ele>
        <time>2022-08-17T14:10:44Z</time>
      </trkpt>
      <trkpt lat="45.61042" lon="2.9499">
        <ele>1032</ele>
        <time>2022-08-17T14:10:45Z</time>
      </trkpt>
      <trkpt lat="45.61039" lon="2.94981">
        <ele>1032</ele>
        <time>2022-08-17T14:10:46Z</time>
      </trkpt>
      <trkpt lat="45.61036" lon="2.94971">
        <ele>1032</ele>
        <time>2022-08-17T14:10:47Z</time>
      </trkpt>
      <trkpt lat="45.61032" lon="2.94962">
        <ele>1025</ele>
        <time>2022-08-17T14:10:48Z</time>
      </trkpt>
      <trkpt lat="45.61017" lon="2.94948">
        <ele>1025</ele>
        <time>2022-08-17T14:10:49Z</time>
      </trkpt>
      <trkpt lat="45.6101" lon="2.94941">
        <ele>1025</ele>
        <time>2022-08-17T14:10:50Z</time>
      </trkpt>
      <trkpt lat="45.61004" lon="2.94934">
        <ele>1025</ele>
        <time>2022-08-17T14:10:51Z</time>
      </trkpt>
      <trkpt lat="45.60997" lon="2.94927">
        <ele>1025</ele>
        <time>2022-08-17T14:10:52Z</time>
      </trkpt>
      <trkpt lat="45.6099" lon="2.9492">
        <ele>1025</ele>
        <time>2022-08-17T14:10:53Z</time>
      </trkpt>
      <trkpt lat="45.60984" lon="2.94912">
        <ele>1025</ele>
        <time>2022-08-17T14:10:54Z</time>
      </trkpt>
      <trkpt lat="45.60977" lon="2.94905">
        <ele>1025</ele>
        <time>2022-08-17T14:10:56Z</time>
      </trkpt>
      <trkpt lat="45.6097" lon="2.94898">
        <ele>1025</ele>
        <time>2022-08-17T14:10:57Z</time>
      </trkpt>
      <trkpt lat="45.60964" lon="2.94891">
        <ele>1017</ele>
        <time>2022-08-17T14:10:58Z</time>
      </trkpt>
      <trkpt lat="45.60955" lon="2.94877">
        <ele>1017</ele>
        <time>2022-08-17T14:10:59Z</time>
      </trkpt>
      <trkpt lat="45.6095" lon="2.94871">
        <ele>1017</ele>
        <time>2022-08-17T14:11:00Z</time>
      </trkpt>
      <trkpt lat="45.60944" lon="2.94865">
        <ele>1017</ele>
        <time>2022-08-17T14:11:01Z</time>
      </trkpt>
      <trkpt lat="45.60939" lon="2.94859">
        <ele>1017</ele>
        <time>2022-08-17T14:11:02Z</time>
      </trkpt>
      <trkpt lat="45.60934" lon="2.94854">
        <ele>1017</ele>
        <time>2022-08-17T14:11:03Z</time>
      </trkpt>
      <trkpt lat="45.60928" lon="2.94848">
        <ele>1017</ele>
        <time>2022-08-17T14:11:05Z</time>
      </trkpt>
      <trkpt lat="45.60923" lon="2.94842">
        <ele>1017</ele>
        <time>2022-08-17T14:11:07Z</time>
      </trkpt>
      <trkpt lat="45.60918" lon="2.94836">
        <ele>1011</ele>
        <time>2022-08-17T14:11:08Z</time>
      </trkpt>
      <trkpt lat="45.60906" lon="2.9482">
        <ele>1011</ele>
        <time>2022-08-17T14:11:10Z</time>
      </trkpt>
      <trkpt lat="45.60903" lon="2.94812">
        <ele>1011</ele>
        <time>2022-08-17T14:11:12Z</time>
      </trkpt>
      <trkpt lat="45.60901" lon="2.94805">
        <ele>1011</ele>
        <time>2022-08-17T14:11:13Z</time>
      </trkpt>
      <trkpt lat="45.60898" lon="2.94798">
        <ele>1011</ele>
        <time>2022-08-17T14:11:14Z</time>
      </trkpt>
      <trkpt lat="45.60895" lon="2.94791">
        <ele>1011</ele>
        <time>2022-08-17T14:11:15Z</time>
      </trkpt>
      <trkpt lat="45.60893" lon="2.94784">
        <ele>1011</ele>
        <time>2022-08-17T14:11:16Z</time>
      </trkpt>
      <trkpt lat="45.6089" lon="2.94776">
        <ele>1011</ele>
        <time>2022-08-17T14:11:17Z</time>
      </trkpt>
      <trkpt lat="45.60887" lon="2.94769">
        <ele>1009</ele>
        <time>2022-08-17T14:11:18Z</time>
      </trkpt>
      <trkpt lat="45.60878" lon="2.94753">
        <ele>1009</ele>
        <time>2022-08-17T14:11:19Z</time>
      </trkpt>
      <trkpt lat="45.60873" lon="2.94743">
        <ele>1009</ele>
        <time>2022-08-17T14:11:20Z</time>
      </trkpt>
      <trkpt lat="45.60868" lon="2.94734">
        <ele>1009</ele>
        <time>2022-08-17T14:11:21Z</time>
      </trkpt>
      <trkpt lat="45.60863" lon="2.94725">
        <ele>1009</ele>
        <time>2022-08-17T14:11:22Z</time>
      </trkpt>
      <trkpt lat="45.60858" lon="2.94716">
        <ele>1009</ele>
        <time>2022-08-17T14:11:23Z</time>
      </trkpt>
      <trkpt lat="45.60853" lon="2.94707">
        <ele>1009</ele>
        <time>2022-08-17T14:11:24Z</time>
      </trkpt>
      <trkpt lat="45.60848" lon="2.94698">
        <ele>1009</ele>
        <time>2022-08-17T14:11:25Z</time>
      </trkpt>
      <trkpt lat="45.60842" lon="2.94688">
        <ele>1009</ele>
        <time>2022-08-17T14:11:27Z</time>
      </trkpt>
      <trkpt lat="45.60837" lon="2.94679">
        <ele>1008</ele>
        <time>2022-08-17T14:11:28Z</time>
      </trkpt>
      <trkpt lat="45.60824" lon="2.94666">
        <ele>1008</ele>
        <time>2022-08-17T14:11:29Z</time>
      </trkpt>
      <trkpt lat="45.60817" lon="2.94663">
        <ele>1008</ele>
        <time>2022-08-17T14:11:30Z</time>
      </trkpt>
      <trkpt lat="45.6081" lon="2.94659">
        <ele>1008</ele>
        <time>2022-08-17T14:11:31Z</time>
      </trkpt>
      <trkpt lat="45.60803" lon="2.94655">
        <ele>1008</ele>
        <time>2022-08-17T14:11:32Z</time>
      </trkpt>
      <trkpt lat="45.60796" lon="2.94651">
        <ele>1008</ele>
        <time>2022-08-17T14:11:33Z</time>
      </trkpt>
      <trkpt lat="45.60788" lon="2.94647">
        <ele>1008</ele>
        <time>2022-08-17T14:11:34Z</time>
      </trkpt>
      <trkpt lat="45.60781" lon="2.94643">
        <ele>1008</ele>
        <time>2022-08-17T14:11:35Z</time>
      </trkpt>
      <trkpt lat="45.60774" lon="2.9464">
        <ele>1008</ele>
        <time>2022-08-17T14:11:36Z</time>
      </trkpt>
      <trkpt lat="45.60767" lon="2.94636">
        <ele>1008</ele>
        <time>2022-08-17T14:11:37Z</time>
      </trkpt>
      <trkpt lat="45.6076" lon="2.94632">
        <ele>1001</ele>
        <time>2022-08-17T14:11:38Z</time>
      </trkpt>
      <trkpt lat="45.60747" lon="2.94636">
        <ele>1001</ele>
        <time>2022-08-17T14:11:39Z</time>
      </trkpt>
      <trkpt lat="45.60742" lon="2.9464">
        <ele>1001</ele>
        <time>2022-08-17T14:11:40Z</time>
      </trkpt>
      <trkpt lat="45.60737" lon="2.94643">
        <ele>1001</ele>
        <time>2022-08-17T14:11:41Z</time>
      </trkpt>
      <trkpt lat="45.60732" lon="2.94646">
        <ele>1001</ele>
        <time>2022-08-17T14:11:42Z</time>
      </trkpt>
      <trkpt lat="45.60727" lon="2.94649">
        <ele>1001</ele>
        <time>2022-08-17T14:11:43Z</time>
      </trkpt>
      <trkpt lat="45.60722" lon="2.94652">
        <ele>1001</ele>
        <time>2022-08-17T14:11:44Z</time>
      </trkpt>
      <trkpt lat="45.60717" lon="2.94655">
        <ele>1001</ele>
        <time>2022-08-17T14:11:45Z</time>
      </trkpt>
      <trkpt lat="45.60712" lon="2.94659">
        <ele>1001</ele>
        <time>2022-08-17T14:11:46Z</time>
      </trkpt>
      <trkpt lat="45.60706" lon="2.94662">
        <ele>1001</ele>
        <time>2022-08-17T14:11:47Z</time>
      </trkpt>
      <trkpt lat="45.60701" lon="2.94665">
        <ele>1002</ele>
        <time>2022-08-17T14:11:48Z</time>
      </trkpt>
      <trkpt lat="45.60695" lon="2.94674">
        <ele>1002</ele>
        <time>2022-08-17T14:11:49Z</time>
      </trkpt>
      <trkpt lat="45.60693" lon="2.94679">
        <ele>1002</ele>
        <time>2022-08-17T14:11:50Z</time>
      </trkpt>
      <trkpt lat="45.60691" lon="2.94684">
        <ele>1002</ele>
        <time>2022-08-17T14:11:51Z</time>
      </trkpt>
      <trkpt lat="45.60688" lon="2.94689">
        <ele>1002</ele>
        <time>2022-08-17T14:11:52Z</time>
      </trkpt>
      <trkpt lat="45.60686" lon="2.94693">
        <ele>1002</ele>
        <time>2022-08-17T14:11:53Z</time>
      </trkpt>
      <trkpt lat="45.60683" lon="2.94698">
        <ele>1002</ele>
        <time>2022-08-17T14:11:54Z</time>
      </trkpt>
      <trkpt lat="45.60681" lon="2.94703">
        <ele>1002</ele>
        <time>2022-08-17T14:11:55Z</time>
      </trkpt>
      <trkpt lat="45.60679" lon="2.94708">
        <ele>1002</ele>
        <time>2022-08-17T14:11:56Z</time>
      </trkpt>
      <trkpt lat="45.60676" lon="2.94713">
        <ele>1002</ele>
        <time>2022-08-17T14:11:57Z</time>
      </trkpt>
      <trkpt lat="45.60674" lon="2.94718">
        <ele>1005</ele>
        <time>2022-08-17T14:11:58Z</time>
      </trkpt>
      <trkpt lat="45.60667" lon="2.94733">
        <ele>1005</ele>
        <time>2022-08-17T14:12:00Z</time>
      </trkpt>
      <trkpt lat="45.60665" lon="2.94739">
        <ele>1005</ele>
        <time>2022-08-17T14:12:02Z</time>
      </trkpt>
      <trkpt lat="45.60663" lon="2.94745">
        <ele>1005</ele>
        <time>2022-08-17T14:12:03Z</time>
      </trkpt>
      <trkpt lat="45.60661" lon="2.94751">
        <ele>1005</ele>
        <time>2022-08-17T14:12:04Z</time>
      </trkpt>
      <trkpt lat="45.60659" lon="2.94757">
        <ele>1005</ele>
        <time>2022-08-17T14:12:05Z</time>
      </trkpt>
      <trkpt lat="45.60656" lon="2.94763">
        <ele>1005</ele>
        <time>2022-08-17T14:12:07Z</time>
      </trkpt>
      <trkpt lat="45.60654" lon="2.94768">
        <ele>1008</ele>
        <time>2022-08-17T14:12:08Z</time>
      </trkpt>
      <trkpt lat="45.60649" lon="2.94784">
        <ele>1008</ele>
        <time>2022-08-17T14:12:10Z</time>
      </trkpt>
      <trkpt lat="45.60646" lon="2.94789">
        <ele>1008</ele>
        <time>2022-08-17T14:12:12Z</time>
      </trkpt>
      <trkpt lat="45.60644" lon="2.94795">
        <ele>1008</ele>
        <time>2022-08-17T14:12:14Z</time>
      </trkpt>
      <trkpt lat="45.60642" lon="2.948">
        <ele>1008</ele>
        <time>2022-08-17T14:12:15Z</time>
      </trkpt>
      <trkpt lat="45.60639" lon="2.94805">
        <ele>1008</ele>
        <time>2022-08-17T14:12:16Z</time>
      </trkpt>
      <trkpt lat="45.60637" lon="2.94811">
        <ele>1008</ele>
        <time>2022-08-17T14:12:17Z</time>
      </trkpt>
      <trkpt lat="45.60635" lon="2.94816">
        <ele>1010</ele>
        <time>2022-08-17T14:12:18Z</time>
      </trkpt>
      <trkpt lat="45.60628" lon="2.94829">
        <ele>1010</ele>
        <time>2022-08-17T14:12:20Z</time>
      </trkpt>
      <trkpt lat="45.60626" lon="2.94833">
        <ele>1010</ele>
        <time>2022-08-17T14:12:22Z</time>
      </trkpt>
      <trkpt lat="45.60623" lon="2.94838">
        <ele>1010</ele>
        <time>2022-08-17T14:12:23Z</time>
      </trkpt>
      <trkpt lat="45.60621" lon="2.94842">
        <ele>1010</ele>
        <time>2022-08-17T14:12:24Z</time>
      </trkpt>
      <trkpt lat="45.60618" lon="2.94846">
        <ele>1010</ele>
        <time>2022-08-17T14:12:25Z</time>
      </trkpt>
      <trkpt lat="45.60616" lon="2.94851">
        <ele>1010</ele>
        <time>2022-08-17T14:12:26Z</time>
      </trkpt>
      <trkpt lat="45.60614" lon="2.94855">
        <ele>1010</ele>
        <time>2022-08-17T14:12:27Z</time>
      </trkpt>
      <trkpt lat="45.60611" lon="2.94859">
        <ele>1011</ele>
        <time>2022-08-17T14:12:28Z</time>
      </trkpt>
      <trkpt lat="45.60604" lon="2.94876">
        <ele>1011</ele>
        <time>2022-08-17T14:12:30Z</time>
      </trkpt>
      <trkpt lat="45.60601" lon="2.94884">
        <ele>1011</ele>
        <time>2022-08-17T14:12:32Z</time>
      </trkpt>
      <trkpt lat="45.60599" lon="2.94891">
        <ele>1011</ele>
        <time>2022-08-17T14:12:34Z</time>
      </trkpt>
      <trkpt lat="45.60596" lon="2.94899">
        <ele>1011</ele>
        <time>2022-08-17T14:12:36Z</time>
      </trkpt>
      <trkpt lat="45.60593" lon="2.94907">
        <ele>1016</ele>
        <time>2022-08-17T14:12:38Z</time>
      </trkpt>
      <trkpt lat="45.60588" lon="2.94923">
        <ele>1016</ele>
        <time>2022-08-17T14:12:40Z</time>
      </trkpt>
      <trkpt lat="45.60586" lon="2.94929">
        <ele>1016</ele>
        <time>2022-08-17T14:12:42Z</time>
      </trkpt>
      <trkpt lat="45.60584" lon="2.94935">
        <ele>1016</ele>
        <time>2022-08-17T14:12:44Z</time>
      </trkpt>
      <trkpt lat="45.60582" lon="2.94942">
        <ele>1016</ele>
        <time>2022-08-17T14:12:46Z</time>
      </trkpt>
      <trkpt lat="45.6058" lon="2.94948">
        <ele>1016</ele>
        <time>2022-08-17T14:12:47Z</time>
      </trkpt>
      <trkpt lat="45.60578" lon="2.94954">
        <ele>1018</ele>
        <time>2022-08-17T14:12:48Z</time>
      </trkpt>
      <trkpt lat="45.60576" lon="2.94966">
        <ele>1018</ele>
        <time>2022-08-17T14:12:49Z</time>
      </trkpt>
      <trkpt lat="45.60574" lon="2.94973">
        <ele>1018</ele>
        <time>2022-08-17T14:12:51Z</time>
      </trkpt>
      <trkpt lat="45.60573" lon="2.9498">
        <ele>1018</ele>
        <time>2022-08-17T14:12:53Z</time>
      </trkpt>
      <trkpt lat="45.60572" lon="2.94987">
        <ele>1018</ele>
        <time>2022-08-17T14:12:55Z</time>
      </trkpt>
      <trkpt lat="45.6057" lon="2.94995">
        <ele>1018</ele>
        <time>2022-08-17T14:12:57Z</time>
      </trkpt>
      <trkpt lat="45.60569" lon="2.95002">
        <ele>1019</ele>
        <time>2022-08-17T14:12:58Z</time>
      </trkpt>
      <trkpt lat="45.60568" lon="2.95015">
        <ele>1019</ele>
        <time>2022-08-17T14:12:59Z</time>
      </trkpt>
      <trkpt lat="45.60567" lon="2.95022">
        <ele>1019</ele>
        <time>2022-08-17T14:13:01Z</time>
      </trkpt>
      <trkpt lat="45.60566" lon="2.9503">
        <ele>1019</ele>
        <time>2022-08-17T14:13:03Z</time>
      </trkpt>
      <trkpt lat="45.60565" lon="2.95038">
        <ele>1019</ele>
        <time>2022-08-17T14:13:05Z</time>
      </trkpt>
      <trkpt lat="45.60564" lon="2.95046">
        <ele>1019</ele>
        <time>2022-08-17T14:13:07Z</time>
      </trkpt>
      <trkpt lat="45.60564" lon="2.95054">
        <ele>1021</ele>
        <time>2022-08-17T14:13:08Z</time>
      </trkpt>
      <trkpt lat="45.60559" lon="2.95064">
        <ele>1021</ele>
        <time>2022-08-17T14:13:09Z</time>
      </trkpt>
      <trkpt lat="45.60556" lon="2.95069">
        <ele>1021</ele>
        <time>2022-08-17T14:13:10Z</time>
      </trkpt>
      <trkpt lat="45.60553" lon="2.95074">
        <ele>1021</ele>
        <time>2022-08-17T14:13:11Z</time>
      </trkpt>
      <trkpt lat="45.6055" lon="2.95079">
        <ele>1021</ele>
        <time>2022-08-17T14:13:12Z</time>
      </trkpt>
      <trkpt lat="45.60547" lon="2.95083">
        <ele>1021</ele>
        <time>2022-08-17T14:13:13Z</time>
      </trkpt>
      <trkpt lat="45.60544" lon="2.95088">
        <ele>1021</ele>
        <time>2022-08-17T14:13:14Z</time>
      </trkpt>
      <trkpt lat="45.60541" lon="2.95093">
        <ele>1021</ele>
        <time>2022-08-17T14:13:15Z</time>
      </trkpt>
      <trkpt lat="45.60538" lon="2.95098">
        <ele>1021</ele>
        <time>2022-08-17T14:13:16Z</time>
      </trkpt>
      <trkpt lat="45.60535" lon="2.95102">
        <ele>1021</ele>
        <time>2022-08-17T14:13:17Z</time>
      </trkpt>
      <trkpt lat="45.60531" lon="2.95107">
        <ele>1021</ele>
        <time>2022-08-17T14:13:18Z</time>
      </trkpt>
      <trkpt lat="45.60521" lon="2.95112">
        <ele>1021</ele>
        <time>2022-08-17T14:13:19Z</time>
      </trkpt>
      <trkpt lat="45.60516" lon="2.95114">
        <ele>1021</ele>
        <time>2022-08-17T14:13:20Z</time>
      </trkpt>
      <trkpt lat="45.6051" lon="2.95116">
        <ele>1021</ele>
        <time>2022-08-17T14:13:21Z</time>
      </trkpt>
      <trkpt lat="45.60505" lon="2.95118">
        <ele>1021</ele>
        <time>2022-08-17T14:13:22Z</time>
      </trkpt>
      <trkpt lat="45.605" lon="2.9512">
        <ele>1021</ele>
        <time>2022-08-17T14:13:23Z</time>
      </trkpt>
      <trkpt lat="45.60495" lon="2.95122">
        <ele>1021</ele>
        <time>2022-08-17T14:13:24Z</time>
      </trkpt>
      <trkpt lat="45.6049" lon="2.95125">
        <ele>1021</ele>
        <time>2022-08-17T14:13:25Z</time>
      </trkpt>
      <trkpt lat="45.60485" lon="2.95127">
        <ele>1021</ele>
        <time>2022-08-17T14:13:26Z</time>
      </trkpt>
      <trkpt lat="45.6048" lon="2.95129">
        <ele>1021</ele>
        <time>2022-08-17T14:13:27Z</time>
      </trkpt>
      <trkpt lat="45.60475" lon="2.95131">
        <ele>1022</ele>
        <time>2022-08-17T14:13:28Z</time>
      </trkpt>
      <trkpt lat="45.60464" lon="2.95137">
        <ele>1022</ele>
        <time>2022-08-17T14:13:29Z</time>
      </trkpt>
      <trkpt lat="45.60459" lon="2.9514">
        <ele>1022</ele>
        <time>2022-08-17T14:13:30Z</time>
      </trkpt>
      <trkpt lat="45.60454" lon="2.95143">
        <ele>1022</ele>
        <time>2022-08-17T14:13:31Z</time>
      </trkpt>
      <trkpt lat="45.60449" lon="2.95147">
        <ele>1022</ele>
        <time>2022-08-17T14:13:32Z</time>
      </trkpt>
      <trkpt lat="45.60445" lon="2.9515">
        <ele>1022</ele>
        <time>2022-08-17T14:13:33Z</time>
      </trkpt>
      <trkpt lat="45.6044" lon="2.95153">
        <ele>1022</ele>
        <time>2022-08-17T14:13:34Z</time>
      </trkpt>
      <trkpt lat="45.60435" lon="2.95156">
        <ele>1022</ele>
        <time>2022-08-17T14:13:35Z</time>
      </trkpt>
      <trkpt lat="45.6043" lon="2.95159">
        <ele>1022</ele>
        <time>2022-08-17T14:13:36Z</time>
      </trkpt>
      <trkpt lat="45.60425" lon="2.95162">
        <ele>1022</ele>
        <time>2022-08-17T14:13:37Z</time>
      </trkpt>
      <trkpt lat="45.6042" lon="2.95166">
        <ele>1022</ele>
        <time>2022-08-17T14:13:38Z</time>
      </trkpt>
      <trkpt lat="45.60409" lon="2.95169">
        <ele>1022</ele>
        <time>2022-08-17T14:13:39Z</time>
      </trkpt>
      <trkpt lat="45.60403" lon="2.95169">
        <ele>1022</ele>
        <time>2022-08-17T14:13:40Z</time>
      </trkpt>
      <trkpt lat="45.60397" lon="2.95169">
        <ele>1022</ele>
        <time>2022-08-17T14:13:41Z</time>
      </trkpt>
      <trkpt lat="45.60392" lon="2.95169">
        <ele>1022</ele>
        <time>2022-08-17T14:13:42Z</time>
      </trkpt>
      <trkpt lat="45.60386" lon="2.95169">
        <ele>1022</ele>
        <time>2022-08-17T14:13:43Z</time>
      </trkpt>
      <trkpt lat="45.6038" lon="2.95169">
        <ele>1022</ele>
        <time>2022-08-17T14:13:44Z</time>
      </trkpt>
      <trkpt lat="45.60375" lon="2.95169">
        <ele>1022</ele>
        <time>2022-08-17T14:13:45Z</time>
      </trkpt>
      <trkpt lat="45.60369" lon="2.9517">
        <ele>1022</ele>
        <time>2022-08-17T14:13:46Z</time>
      </trkpt>
      <trkpt lat="45.60363" lon="2.9517">
        <ele>1022</ele>
        <time>2022-08-17T14:13:47Z</time>
      </trkpt>
      <trkpt lat="45.60357" lon="2.9517">
        <ele>1021</ele>
        <time>2022-08-17T14:13:48Z</time>
      </trkpt>
      <trkpt lat="45.60345" lon="2.95163">
        <ele>1021</ele>
        <time>2022-08-17T14:13:49Z</time>
      </trkpt>
      <trkpt lat="45.60339" lon="2.95158">
        <ele>1021</ele>
        <time>2022-08-17T14:13:50Z</time>
      </trkpt>
      <trkpt lat="45.60334" lon="2.95154">
        <ele>1021</ele>
        <time>2022-08-17T14:13:51Z</time>
      </trkpt>
      <trkpt lat="45.60328" lon="2.95149">
        <ele>1021</ele>
        <time>2022-08-17T14:13:52Z</time>
      </trkpt>
      <trkpt lat="45.60322" lon="2.95145">
        <ele>1021</ele>
        <time>2022-08-17T14:13:53Z</time>
      </trkpt>
      <trkpt lat="45.60317" lon="2.9514">
        <ele>1021</ele>
        <time>2022-08-17T14:13:54Z</time>
      </trkpt>
      <trkpt lat="45.60311" lon="2.95136">
        <ele>1021</ele>
        <time>2022-08-17T14:13:55Z</time>
      </trkpt>
      <trkpt lat="45.60305" lon="2.95131">
        <ele>1021</ele>
        <time>2022-08-17T14:13:56Z</time>
      </trkpt>
      <trkpt lat="45.603" lon="2.95127">
        <ele>1021</ele>
        <time>2022-08-17T14:13:57Z</time>
      </trkpt>
      <trkpt lat="45.60294" lon="2.95122">
        <ele>1020</ele>
        <time>2022-08-17T14:13:58Z</time>
      </trkpt>
      <trkpt lat="45.60282" lon="2.95112">
        <ele>1020</ele>
        <time>2022-08-17T14:13:59Z</time>
      </trkpt>
      <trkpt lat="45.60277" lon="2.95108">
        <ele>1020</ele>
        <time>2022-08-17T14:14:00Z</time>
      </trkpt>
      <trkpt lat="45.60271" lon="2.95103">
        <ele>1020</ele>
        <time>2022-08-17T14:14:01Z</time>
      </trkpt>
      <trkpt lat="45.60266" lon="2.95099">
        <ele>1020</ele>
        <time>2022-08-17T14:14:02Z</time>
      </trkpt>
      <trkpt lat="45.6026" lon="2.95094">
        <ele>1020</ele>
        <time>2022-08-17T14:14:03Z</time>
      </trkpt>
      <trkpt lat="45.60255" lon="2.95089">
        <ele>1020</ele>
        <time>2022-08-17T14:14:04Z</time>
      </trkpt>
      <trkpt lat="45.60249" lon="2.95085">
        <ele>1020</ele>
        <time>2022-08-17T14:14:05Z</time>
      </trkpt>
      <trkpt lat="45.60244" lon="2.9508">
        <ele>1020</ele>
        <time>2022-08-17T14:14:06Z</time>
      </trkpt>
      <trkpt lat="45.60238" lon="2.95076">
        <ele>1020</ele>
        <time>2022-08-17T14:14:07Z</time>
      </trkpt>
      <trkpt lat="45.60233" lon="2.95071">
        <ele>1018</ele>
        <time>2022-08-17T14:14:08Z</time>
      </trkpt>
      <trkpt lat="45.6022" lon="2.95064">
        <ele>1018</ele>
        <time>2022-08-17T14:14:09Z</time>
      </trkpt>
      <trkpt lat="45.60214" lon="2.95062">
        <ele>1018</ele>
        <time>2022-08-17T14:14:10Z</time>
      </trkpt>
      <trkpt lat="45.60208" lon="2.9506">
        <ele>1018</ele>
        <time>2022-08-17T14:14:11Z</time>
      </trkpt>
      <trkpt lat="45.60202" lon="2.95057">
        <ele>1018</ele>
        <time>2022-08-17T14:14:12Z</time>
      </trkpt>
      <trkpt lat="45.60196" lon="2.95055">
        <ele>1018</ele>
        <time>2022-08-17T14:14:13Z</time>
      </trkpt>
      <trkpt lat="45.6019" lon="2.95053">
        <ele>1018</ele>
        <time>2022-08-17T14:14:14Z</time>
      </trkpt>
      <trkpt lat="45.60184" lon="2.95051">
        <ele>1018</ele>
        <time>2022-08-17T14:14:15Z</time>
      </trkpt>
      <trkpt lat="45.60178" lon="2.95048">
        <ele>1018</ele>
        <time>2022-08-17T14:14:16Z</time>
      </trkpt>
      <trkpt lat="45.60172" lon="2.95046">
        <ele>1018</ele>
        <time>2022-08-17T14:14:17Z</time>
      </trkpt>
      <trkpt lat="45.60166" lon="2.95044">
        <ele>1018</ele>
        <time>2022-08-17T14:14:18Z</time>
      </trkpt>
      <trkpt lat="45.60154" lon="2.95051">
        <ele>1018</ele>
        <time>2022-08-17T14:14:19Z</time>
      </trkpt>
      <trkpt lat="45.60148" lon="2.95056">
        <ele>1018</ele>
        <time>2022-08-17T14:14:20Z</time>
      </trkpt>
      <trkpt lat="45.60143" lon="2.95061">
        <ele>1018</ele>
        <time>2022-08-17T14:14:21Z</time>
      </trkpt>
      <trkpt lat="45.60138" lon="2.95066">
        <ele>1018</ele>
        <time>2022-08-17T14:14:22Z</time>
      </trkpt>
      <trkpt lat="45.60132" lon="2.95072">
        <ele>1018</ele>
        <time>2022-08-17T14:14:23Z</time>
      </trkpt>
      <trkpt lat="45.60127" lon="2.95077">
        <ele>1018</ele>
        <time>2022-08-17T14:14:24Z</time>
      </trkpt>
      <trkpt lat="45.60122" lon="2.95082">
        <ele>1018</ele>
        <time>2022-08-17T14:14:25Z</time>
      </trkpt>
      <trkpt lat="45.60117" lon="2.95087">
        <ele>1018</ele>
        <time>2022-08-17T14:14:26Z</time>
      </trkpt>
      <trkpt lat="45.60111" lon="2.95092">
        <ele>1018</ele>
        <time>2022-08-17T14:14:27Z</time>
      </trkpt>
      <trkpt lat="45.60106" lon="2.95098">
        <ele>1016</ele>
        <time>2022-08-17T14:14:28Z</time>
      </trkpt>
      <trkpt lat="45.60097" lon="2.95113">
        <ele>1016</ele>
        <time>2022-08-17T14:14:29Z</time>
      </trkpt>
      <trkpt lat="45.60094" lon="2.95122">
        <ele>1016</ele>
        <time>2022-08-17T14:14:30Z</time>
      </trkpt>
      <trkpt lat="45.60091" lon="2.95131">
        <ele>1016</ele>
        <time>2022-08-17T14:14:31Z</time>
      </trkpt>
      <trkpt lat="45.60087" lon="2.95139">
        <ele>1016</ele>
        <time>2022-08-17T14:14:32Z</time>
      </trkpt>
      <trkpt lat="45.60084" lon="2.95148">
        <ele>1016</ele>
        <time>2022-08-17T14:14:33Z</time>
      </trkpt>
      <trkpt lat="45.60081" lon="2.95157">
        <ele>1016</ele>
        <time>2022-08-17T14:14:34Z</time>
      </trkpt>
      <trkpt lat="45.60078" lon="2.95165">
        <ele>1016</ele>
        <time>2022-08-17T14:14:35Z</time>
      </trkpt>
      <trkpt lat="45.60075" lon="2.95174">
        <ele>1016</ele>
        <time>2022-08-17T14:14:36Z</time>
      </trkpt>
      <trkpt lat="45.60071" lon="2.95183">
        <ele>1016</ele>
        <time>2022-08-17T14:14:37Z</time>
      </trkpt>
      <trkpt lat="45.60068" lon="2.95191">
        <ele>1015</ele>
        <time>2022-08-17T14:14:38Z</time>
      </trkpt>
      <trkpt lat="45.60062" lon="2.9521">
        <ele>1015</ele>
        <time>2022-08-17T14:14:39Z</time>
      </trkpt>
      <trkpt lat="45.60059" lon="2.95219">
        <ele>1015</ele>
        <time>2022-08-17T14:14:40Z</time>
      </trkpt>
      <trkpt lat="45.60057" lon="2.95228">
        <ele>1015</ele>
        <time>2022-08-17T14:14:41Z</time>
      </trkpt>
      <trkpt lat="45.60054" lon="2.95238">
        <ele>1015</ele>
        <time>2022-08-17T14:14:42Z</time>
      </trkpt>
      <trkpt lat="45.60051" lon="2.95247">
        <ele>1015</ele>
        <time>2022-08-17T14:14:43Z</time>
      </trkpt>
      <trkpt lat="45.60048" lon="2.95256">
        <ele>1015</ele>
        <time>2022-08-17T14:14:44Z</time>
      </trkpt>
      <trkpt lat="45.60045" lon="2.95265">
        <ele>1015</ele>
        <time>2022-08-17T14:14:45Z</time>
      </trkpt>
      <trkpt lat="45.60043" lon="2.95274">
        <ele>1015</ele>
        <time>2022-08-17T14:14:46Z</time>
      </trkpt>
      <trkpt lat="45.6004" lon="2.95283">
        <ele>1015</ele>
        <time>2022-08-17T14:14:47Z</time>
      </trkpt>
      <trkpt lat="45.60037" lon="2.95292">
        <ele>1013</ele>
        <time>2022-08-17T14:14:48Z</time>
      </trkpt>
      <trkpt lat="45.6003" lon="2.95309">
        <ele>1013</ele>
        <time>2022-08-17T14:14:49Z</time>
      </trkpt>
      <trkpt lat="45.60027" lon="2.95316">
        <ele>1013</ele>
        <time>2022-08-17T14:14:50Z</time>
      </trkpt>
      <trkpt lat="45.60023" lon="2.95323">
        <ele>1013</ele>
        <time>2022-08-17T14:14:51Z</time>
      </trkpt>
      <trkpt lat="45.60019" lon="2.9533">
        <ele>1013</ele>
        <time>2022-08-17T14:14:52Z</time>
      </trkpt>
      <trkpt lat="45.60016" lon="2.95337">
        <ele>1013</ele>
        <time>2022-08-17T14:14:53Z</time>
      </trkpt>
      <trkpt lat="45.60012" lon="2.95344">
        <ele>1013</ele>
        <time>2022-08-17T14:14:54Z</time>
      </trkpt>
      <trkpt lat="45.60009" lon="2.95351">
        <ele>1013</ele>
        <time>2022-08-17T14:14:55Z</time>
      </trkpt>
      <trkpt lat="45.60005" lon="2.95358">
        <ele>1013</ele>
        <time>2022-08-17T14:14:56Z</time>
      </trkpt>
      <trkpt lat="45.60001" lon="2.95366">
        <ele>1013</ele>
        <time>2022-08-17T14:14:57Z</time>
      </trkpt>
      <trkpt lat="45.59998" lon="2.95373">
        <ele>1010</ele>
        <time>2022-08-17T14:14:58Z</time>
      </trkpt>
      <trkpt lat="45.59987" lon="2.95367">
        <ele>1010</ele>
        <time>2022-08-17T14:14:59Z</time>
      </trkpt>
      <trkpt lat="45.59983" lon="2.95361">
        <ele>1010</ele>
        <time>2022-08-17T14:15:00Z</time>
      </trkpt>
      <trkpt lat="45.59978" lon="2.95354">
        <ele>1010</ele>
        <time>2022-08-17T14:15:01Z</time>
      </trkpt>
      <trkpt lat="45.59974" lon="2.95348">
        <ele>1010</ele>
        <time>2022-08-17T14:15:02Z</time>
      </trkpt>
      <trkpt lat="45.5997" lon="2.95341">
        <ele>1010</ele>
        <time>2022-08-17T14:15:03Z</time>
      </trkpt>
      <trkpt lat="45.59966" lon="2.95334">
        <ele>1010</ele>
        <time>2022-08-17T14:15:04Z</time>
      </trkpt>
      <trkpt lat="45.59961" lon="2.95328">
        <ele>1010</ele>
        <time>2022-08-17T14:15:05Z</time>
      </trkpt>
      <trkpt lat="45.59957" lon="2.95321">
        <ele>1010</ele>
        <time>2022-08-17T14:15:06Z</time>
      </trkpt>
      <trkpt lat="45.59953" lon="2.95315">
        <ele>1010</ele>
        <time>2022-08-17T14:15:07Z</time>
      </trkpt>
      <trkpt lat="45.59948" lon="2.95308">
        <ele>1006</ele>
        <time>2022-08-17T14:15:08Z</time>
      </trkpt>
      <trkpt lat="45.59946" lon="2.95296">
        <ele>1006</ele>
        <time>2022-08-17T14:15:09Z</time>
      </trkpt>
      <trkpt lat="45.59943" lon="2.95284">
        <ele>1006</ele>
        <time>2022-08-17T14:15:10Z</time>
      </trkpt>
      <trkpt lat="45.59941" lon="2.95271">
        <ele>1006</ele>
        <time>2022-08-17T14:15:11Z</time>
      </trkpt>
      <trkpt lat="45.59939" lon="2.95258">
        <ele>1006</ele>
        <time>2022-08-17T14:15:12Z</time>
      </trkpt>
      <trkpt lat="45.59937" lon="2.95244">
        <ele>1006</ele>
        <time>2022-08-17T14:15:13Z</time>
      </trkpt>
      <trkpt lat="45.59935" lon="2.9523">
        <ele>1006</ele>
        <time>2022-08-17T14:15:14Z</time>
      </trkpt>
      <trkpt lat="45.59934" lon="2.95215">
        <ele>1006</ele>
        <time>2022-08-17T14:15:15Z</time>
      </trkpt>
      <trkpt lat="45.59933" lon="2.95201">
        <ele>1006</ele>
        <time>2022-08-17T14:15:16Z</time>
      </trkpt>
      <trkpt lat="45.59932" lon="2.95186">
        <ele>1006</ele>
        <time>2022-08-17T14:15:17Z</time>
      </trkpt>
      <trkpt lat="45.59931" lon="2.9517">
        <ele>997</ele>
        <time>2022-08-17T14:15:18Z</time>
      </trkpt>
      <trkpt lat="45.5993" lon="2.95155">
        <ele>997</ele>
        <time>2022-08-17T14:15:19Z</time>
      </trkpt>
      <trkpt lat="45.59928" lon="2.9514">
        <ele>997</ele>
        <time>2022-08-17T14:15:20Z</time>
      </trkpt>
      <trkpt lat="45.59927" lon="2.95125">
        <ele>997</ele>
        <time>2022-08-17T14:15:21Z</time>
      </trkpt>
      <trkpt lat="45.59924" lon="2.9511">
        <ele>997</ele>
        <time>2022-08-17T14:15:22Z</time>
      </trkpt>
      <trkpt lat="45.59921" lon="2.95096">
        <ele>997</ele>
        <time>2022-08-17T14:15:23Z</time>
      </trkpt>
      <trkpt lat="45.59916" lon="2.95082">
        <ele>997</ele>
        <time>2022-08-17T14:15:24Z</time>
      </trkpt>
      <trkpt lat="45.5991" lon="2.95069">
        <ele>997</ele>
        <time>2022-08-17T14:15:25Z</time>
      </trkpt>
      <trkpt lat="45.59903" lon="2.95057">
        <ele>997</ele>
        <time>2022-08-17T14:15:26Z</time>
      </trkpt>
      <trkpt lat="45.5989" lon="2.95044">
        <ele>997</ele>
        <time>2022-08-17T14:15:27Z</time>
      </trkpt>
      <trkpt lat="45.59885" lon="2.95041">
        <ele>994</ele>
        <time>2022-08-17T14:15:28Z</time>
      </trkpt>
      <trkpt lat="45.59875" lon="2.95034">
        <ele>994</ele>
        <time>2022-08-17T14:15:29Z</time>
      </trkpt>
      <trkpt lat="45.59865" lon="2.95029">
        <ele>994</ele>
        <time>2022-08-17T14:15:30Z</time>
      </trkpt>
      <trkpt lat="45.59854" lon="2.95024">
        <ele>994</ele>
        <time>2022-08-17T14:15:31Z</time>
      </trkpt>
      <trkpt lat="45.59844" lon="2.95018">
        <ele>994</ele>
        <time>2022-08-17T14:15:32Z</time>
      </trkpt>
      <trkpt lat="45.59834" lon="2.95012">
        <ele>994</ele>
        <time>2022-08-17T14:15:33Z</time>
      </trkpt>
      <trkpt lat="45.59824" lon="2.95005">
        <ele>994</ele>
        <time>2022-08-17T14:15:34Z</time>
      </trkpt>
      <trkpt lat="45.59814" lon="2.94997">
        <ele>994</ele>
        <time>2022-08-17T14:15:35Z</time>
      </trkpt>
      <trkpt lat="45.59804" lon="2.94989">
        <ele>994</ele>
        <time>2022-08-17T14:15:36Z</time>
      </trkpt>
      <trkpt lat="45.59791" lon="2.94976">
        <ele>994</ele>
        <time>2022-08-17T14:15:37Z</time>
      </trkpt>
      <trkpt lat="45.59786" lon="2.94971">
        <ele>986</ele>
        <time>2022-08-17T14:15:38Z</time>
      </trkpt>
      <trkpt lat="45.59777" lon="2.9496">
        <ele>986</ele>
        <time>2022-08-17T14:15:39Z</time>
      </trkpt>
      <trkpt lat="45.5977" lon="2.94947">
        <ele>986</ele>
        <time>2022-08-17T14:15:40Z</time>
      </trkpt>
      <trkpt lat="45.59764" lon="2.94933">
        <ele>986</ele>
        <time>2022-08-17T14:15:41Z</time>
      </trkpt>
      <trkpt lat="45.59758" lon="2.94919">
        <ele>986</ele>
        <time>2022-08-17T14:15:42Z</time>
      </trkpt>
      <trkpt lat="45.59752" lon="2.94905">
        <ele>986</ele>
        <time>2022-08-17T14:15:43Z</time>
      </trkpt>
      <trkpt lat="45.59745" lon="2.94891">
        <ele>986</ele>
        <time>2022-08-17T14:15:44Z</time>
      </trkpt>
      <trkpt lat="45.59739" lon="2.94878">
        <ele>986</ele>
        <time>2022-08-17T14:15:45Z</time>
      </trkpt>
      <trkpt lat="45.59732" lon="2.94863">
        <ele>986</ele>
        <time>2022-08-17T14:15:46Z</time>
      </trkpt>
      <trkpt lat="45.59723" lon="2.94842">
        <ele>986</ele>
        <time>2022-08-17T14:15:47Z</time>
      </trkpt>
      <trkpt lat="45.5972" lon="2.94835">
        <ele>979</ele>
        <time>2022-08-17T14:15:48Z</time>
      </trkpt>
      <trkpt lat="45.59714" lon="2.94821">
        <ele>979</ele>
        <time>2022-08-17T14:15:49Z</time>
      </trkpt>
      <trkpt lat="45.5971" lon="2.94806">
        <ele>979</ele>
        <time>2022-08-17T14:15:50Z</time>
      </trkpt>
      <trkpt lat="45.59705" lon="2.94792">
        <ele>979</ele>
        <time>2022-08-17T14:15:51Z</time>
      </trkpt>
      <trkpt lat="45.59701" lon="2.94778">
        <ele>979</ele>
        <time>2022-08-17T14:15:52Z</time>
      </trkpt>
      <trkpt lat="45.59696" lon="2.94765">
        <ele>979</ele>
        <time>2022-08-17T14:15:53Z</time>
      </trkpt>
      <trkpt lat="45.59691" lon="2.94751">
        <ele>979</ele>
        <time>2022-08-17T14:15:54Z</time>
      </trkpt>
      <trkpt lat="45.59686" lon="2.94737">
        <ele>979</ele>
        <time>2022-08-17T14:15:55Z</time>
      </trkpt>
      <trkpt lat="45.59681" lon="2.94723">
        <ele>979</ele>
        <time>2022-08-17T14:15:56Z</time>
      </trkpt>
      <trkpt lat="45.59673" lon="2.94703">
        <ele>979</ele>
        <time>2022-08-17T14:15:57Z</time>
      </trkpt>
      <trkpt lat="45.59671" lon="2.94696">
        <ele>971</ele>
        <time>2022-08-17T14:15:58Z</time>
      </trkpt>
      <trkpt lat="45.59665" lon="2.94682">
        <ele>971</ele>
        <time>2022-08-17T14:15:59Z</time>
      </trkpt>
      <trkpt lat="45.5966" lon="2.94669">
        <ele>971</ele>
        <time>2022-08-17T14:16:00Z</time>
      </trkpt>
      <trkpt lat="45.59655" lon="2.94655">
        <ele>971</ele>
        <time>2022-08-17T14:16:01Z</time>
      </trkpt>
      <trkpt lat="45.5965" lon="2.94643">
        <ele>971</ele>
        <time>2022-08-17T14:16:02Z</time>
      </trkpt>
      <trkpt lat="45.59644" lon="2.9463">
        <ele>971</ele>
        <time>2022-08-17T14:16:03Z</time>
      </trkpt>
      <trkpt lat="45.59638" lon="2.94619">
        <ele>971</ele>
        <time>2022-08-17T14:16:04Z</time>
      </trkpt>
      <trkpt lat="45.59633" lon="2.94607">
        <ele>971</ele>
        <time>2022-08-17T14:16:05Z</time>
      </trkpt>
      <trkpt lat="45.59627" lon="2.94596">
        <ele>971</ele>
        <time>2022-08-17T14:16:06Z</time>
      </trkpt>
      <trkpt lat="45.59622" lon="2.94585">
        <ele>971</ele>
        <time>2022-08-17T14:16:07Z</time>
      </trkpt>
      <trkpt lat="45.59616" lon="2.94575">
        <ele>962</ele>
        <time>2022-08-17T14:16:08Z</time>
      </trkpt>
      <trkpt lat="45.59603" lon="2.94559">
        <ele>962</ele>
        <time>2022-08-17T14:16:09Z</time>
      </trkpt>
      <trkpt lat="45.59596" lon="2.94554">
        <ele>962</ele>
        <time>2022-08-17T14:16:10Z</time>
      </trkpt>
      <trkpt lat="45.59588" lon="2.94549">
        <ele>962</ele>
        <time>2022-08-17T14:16:11Z</time>
      </trkpt>
      <trkpt lat="45.59581" lon="2.94544">
        <ele>962</ele>
        <time>2022-08-17T14:16:12Z</time>
      </trkpt>
      <trkpt lat="45.59573" lon="2.94539">
        <ele>962</ele>
        <time>2022-08-17T14:16:14Z</time>
      </trkpt>
      <trkpt lat="45.59566" lon="2.94534">
        <ele>962</ele>
        <time>2022-08-17T14:16:15Z</time>
      </trkpt>
      <trkpt lat="45.59559" lon="2.94529">
        <ele>962</ele>
        <time>2022-08-17T14:16:16Z</time>
      </trkpt>
      <trkpt lat="45.59551" lon="2.94524">
        <ele>962</ele>
        <time>2022-08-17T14:16:17Z</time>
      </trkpt>
      <trkpt lat="45.59544" lon="2.94519">
        <ele>957</ele>
        <time>2022-08-17T14:16:18Z</time>
      </trkpt>
      <trkpt lat="45.59537" lon="2.94536">
        <ele>957</ele>
        <time>2022-08-17T14:16:19Z</time>
      </trkpt>
      <trkpt lat="45.59538" lon="2.94547">
        <ele>957</ele>
        <time>2022-08-17T14:16:20Z</time>
      </trkpt>
      <trkpt lat="45.59539" lon="2.94558">
        <ele>957</ele>
        <time>2022-08-17T14:16:21Z</time>
      </trkpt>
      <trkpt lat="45.5954" lon="2.94569">
        <ele>957</ele>
        <time>2022-08-17T14:16:22Z</time>
      </trkpt>
      <trkpt lat="45.59541" lon="2.9458">
        <ele>957</ele>
        <time>2022-08-17T14:16:23Z</time>
      </trkpt>
      <trkpt lat="45.59542" lon="2.94591">
        <ele>957</ele>
        <time>2022-08-17T14:16:24Z</time>
      </trkpt>
      <trkpt lat="45.59543" lon="2.94602">
        <ele>957</ele>
        <time>2022-08-17T14:16:25Z</time>
      </trkpt>
      <trkpt lat="45.59544" lon="2.94613">
        <ele>957</ele>
        <time>2022-08-17T14:16:26Z</time>
      </trkpt>
      <trkpt lat="45.59545" lon="2.94624">
        <ele>957</ele>
        <time>2022-08-17T14:16:27Z</time>
      </trkpt>
      <trkpt lat="45.59545" lon="2.94635">
        <ele>952</ele>
        <time>2022-08-17T14:16:28Z</time>
      </trkpt>
      <trkpt lat="45.59549" lon="2.94648">
        <ele>952</ele>
        <time>2022-08-17T14:16:29Z</time>
      </trkpt>
      <trkpt lat="45.59552" lon="2.9466">
        <ele>952</ele>
        <time>2022-08-17T14:16:30Z</time>
      </trkpt>
      <trkpt lat="45.59556" lon="2.94671">
        <ele>952</ele>
        <time>2022-08-17T14:16:31Z</time>
      </trkpt>
      <trkpt lat="45.59559" lon="2.94683">
        <ele>952</ele>
        <time>2022-08-17T14:16:32Z</time>
      </trkpt>
      <trkpt lat="45.59562" lon="2.94695">
        <ele>952</ele>
        <time>2022-08-17T14:16:33Z</time>
      </trkpt>
      <trkpt lat="45.59565" lon="2.94707">
        <ele>952</ele>
        <time>2022-08-17T14:16:34Z</time>
      </trkpt>
      <trkpt lat="45.59567" lon="2.9472">
        <ele>952</ele>
        <time>2022-08-17T14:16:35Z</time>
      </trkpt>
      <trkpt lat="45.59571" lon="2.94746">
        <ele>952</ele>
        <time>2022-08-17T14:16:37Z</time>
      </trkpt>
      <trkpt lat="45.59574" lon="2.94759">
        <ele>945</ele>
        <time>2022-08-17T14:16:38Z</time>
      </trkpt>
      <trkpt lat="45.59576" lon="2.94773">
        <ele>945</ele>
        <time>2022-08-17T14:16:39Z</time>
      </trkpt>
      <trkpt lat="45.59578" lon="2.94787">
        <ele>945</ele>
        <time>2022-08-17T14:16:40Z</time>
      </trkpt>
      <trkpt lat="45.59584" lon="2.94813">
        <ele>945</ele>
        <time>2022-08-17T14:16:42Z</time>
      </trkpt>
      <trkpt lat="45.59588" lon="2.94826">
        <ele>945</ele>
        <time>2022-08-17T14:16:43Z</time>
      </trkpt>
      <trkpt lat="45.59591" lon="2.94839">
        <ele>945</ele>
        <time>2022-08-17T14:16:44Z</time>
      </trkpt>
      <trkpt lat="45.59595" lon="2.94852">
        <ele>945</ele>
        <time>2022-08-17T14:16:45Z</time>
      </trkpt>
      <trkpt lat="45.59599" lon="2.94865">
        <ele>945</ele>
        <time>2022-08-17T14:16:46Z</time>
      </trkpt>
      <trkpt lat="45.59603" lon="2.94879">
        <ele>945</ele>
        <time>2022-08-17T14:16:47Z</time>
      </trkpt>
      <trkpt lat="45.59607" lon="2.94892">
        <ele>942</ele>
        <time>2022-08-17T14:16:48Z</time>
      </trkpt>
      <trkpt lat="45.59611" lon="2.94906">
        <ele>942</ele>
        <time>2022-08-17T14:16:49Z</time>
      </trkpt>
      <trkpt lat="45.59614" lon="2.9492">
        <ele>942</ele>
        <time>2022-08-17T14:16:50Z</time>
      </trkpt>
      <trkpt lat="45.59618" lon="2.94933">
        <ele>942</ele>
        <time>2022-08-17T14:16:51Z</time>
      </trkpt>
      <trkpt lat="45.59621" lon="2.94948">
        <ele>942</ele>
        <time>2022-08-17T14:16:52Z</time>
      </trkpt>
      <trkpt lat="45.59624" lon="2.94962">
        <ele>942</ele>
        <time>2022-08-17T14:16:53Z</time>
      </trkpt>
      <trkpt lat="45.59627" lon="2.94976">
        <ele>942</ele>
        <time>2022-08-17T14:16:54Z</time>
      </trkpt>
      <trkpt lat="45.5963" lon="2.9499">
        <ele>942</ele>
        <time>2022-08-17T14:16:55Z</time>
      </trkpt>
      <trkpt lat="45.59634" lon="2.95004">
        <ele>942</ele>
        <time>2022-08-17T14:16:56Z</time>
      </trkpt>
      <trkpt lat="45.59639" lon="2.95024">
        <ele>942</ele>
        <time>2022-08-17T14:16:57Z</time>
      </trkpt>
      <trkpt lat="45.5964" lon="2.95031">
        <ele>935</ele>
        <time>2022-08-17T14:16:58Z</time>
      </trkpt>
      <trkpt lat="45.59644" lon="2.95044">
        <ele>935</ele>
        <time>2022-08-17T14:16:59Z</time>
      </trkpt>
      <trkpt lat="45.59649" lon="2.95057">
        <ele>935</ele>
        <time>2022-08-17T14:17:00Z</time>
      </trkpt>
      <trkpt lat="45.59653" lon="2.9507">
        <ele>935</ele>
        <time>2022-08-17T14:17:01Z</time>
      </trkpt>
      <trkpt lat="45.59658" lon="2.95082">
        <ele>935</ele>
        <time>2022-08-17T14:17:02Z</time>
      </trkpt>
      <trkpt lat="45.59664" lon="2.95094">
        <ele>935</ele>
        <time>2022-08-17T14:17:03Z</time>
      </trkpt>
      <trkpt lat="45.59669" lon="2.95106">
        <ele>935</ele>
        <time>2022-08-17T14:17:04Z</time>
      </trkpt>
      <trkpt lat="45.59674" lon="2.95119">
        <ele>935</ele>
        <time>2022-08-17T14:17:05Z</time>
      </trkpt>
      <trkpt lat="45.59678" lon="2.95133">
        <ele>935</ele>
        <time>2022-08-17T14:17:06Z</time>
      </trkpt>
      <trkpt lat="45.59679" lon="2.95148">
        <ele>935</ele>
        <time>2022-08-17T14:17:07Z</time>
      </trkpt>
      <trkpt lat="45.59679" lon="2.95163">
        <ele>931</ele>
        <time>2022-08-17T14:17:08Z</time>
      </trkpt>
      <trkpt lat="45.59679" lon="2.95178">
        <ele>931</ele>
        <time>2022-08-17T14:17:09Z</time>
      </trkpt>
      <trkpt lat="45.59677" lon="2.95193">
        <ele>931</ele>
        <time>2022-08-17T14:17:10Z</time>
      </trkpt>
      <trkpt lat="45.59676" lon="2.95208">
        <ele>931</ele>
        <time>2022-08-17T14:17:11Z</time>
      </trkpt>
      <trkpt lat="45.59676" lon="2.95223">
        <ele>931</ele>
        <time>2022-08-17T14:17:12Z</time>
      </trkpt>
      <trkpt lat="45.59676" lon="2.95238">
        <ele>931</ele>
        <time>2022-08-17T14:17:13Z</time>
      </trkpt>
      <trkpt lat="45.59677" lon="2.95253">
        <ele>931</ele>
        <time>2022-08-17T14:17:14Z</time>
      </trkpt>
      <trkpt lat="45.59676" lon="2.95269">
        <ele>931</ele>
        <time>2022-08-17T14:17:15Z</time>
      </trkpt>
      <trkpt lat="45.59675" lon="2.95285">
        <ele>931</ele>
        <time>2022-08-17T14:17:16Z</time>
      </trkpt>
      <trkpt lat="45.59673" lon="2.95308">
        <ele>931</ele>
        <time>2022-08-17T14:17:17Z</time>
      </trkpt>
      <trkpt lat="45.59673" lon="2.95316">
        <ele>925</ele>
        <time>2022-08-17T14:17:18Z</time>
      </trkpt>
      <trkpt lat="45.59671" lon="2.95332">
        <ele>925</ele>
        <time>2022-08-17T14:17:19Z</time>
      </trkpt>
      <trkpt lat="45.59669" lon="2.95348">
        <ele>925</ele>
        <time>2022-08-17T14:17:20Z</time>
      </trkpt>
      <trkpt lat="45.59665" lon="2.95363">
        <ele>925</ele>
        <time>2022-08-17T14:17:21Z</time>
      </trkpt>
      <trkpt lat="45.59661" lon="2.95378">
        <ele>925</ele>
        <time>2022-08-17T14:17:22Z</time>
      </trkpt>
      <trkpt lat="45.59656" lon="2.95393">
        <ele>925</ele>
        <time>2022-08-17T14:17:23Z</time>
      </trkpt>
      <trkpt lat="45.59651" lon="2.95407">
        <ele>925</ele>
        <time>2022-08-17T14:17:24Z</time>
      </trkpt>
      <trkpt lat="45.59646" lon="2.95422">
        <ele>925</ele>
        <time>2022-08-17T14:17:25Z</time>
      </trkpt>
      <trkpt lat="45.59641" lon="2.95436">
        <ele>925</ele>
        <time>2022-08-17T14:17:26Z</time>
      </trkpt>
      <trkpt lat="45.59633" lon="2.95459">
        <ele>925</ele>
        <time>2022-08-17T14:17:27Z</time>
      </trkpt>
      <trkpt lat="45.59631" lon="2.95466">
        <ele>919</ele>
        <time>2022-08-17T14:17:28Z</time>
      </trkpt>
      <trkpt lat="45.59626" lon="2.95481">
        <ele>919</ele>
        <time>2022-08-17T14:17:29Z</time>
      </trkpt>
      <trkpt lat="45.59622" lon="2.95496">
        <ele>919</ele>
        <time>2022-08-17T14:17:30Z</time>
      </trkpt>
      <trkpt lat="45.59618" lon="2.9551">
        <ele>919</ele>
        <time>2022-08-17T14:17:31Z</time>
      </trkpt>
      <trkpt lat="45.59614" lon="2.95524">
        <ele>919</ele>
        <time>2022-08-17T14:17:32Z</time>
      </trkpt>
      <trkpt lat="45.59609" lon="2.95538">
        <ele>919</ele>
        <time>2022-08-17T14:17:33Z</time>
      </trkpt>
      <trkpt lat="45.59593" lon="2.95558">
        <ele>919</ele>
        <time>2022-08-17T14:17:35Z</time>
      </trkpt>
      <trkpt lat="45.59584" lon="2.95566">
        <ele>919</ele>
        <time>2022-08-17T14:17:36Z</time>
      </trkpt>
      <trkpt lat="45.59571" lon="2.95578">
        <ele>919</ele>
        <time>2022-08-17T14:17:37Z</time>
      </trkpt>
      <trkpt lat="45.59567" lon="2.95583">
        <ele>913</ele>
        <time>2022-08-17T14:17:38Z</time>
      </trkpt>
      <trkpt lat="45.59559" lon="2.95593">
        <ele>913</ele>
        <time>2022-08-17T14:17:39Z</time>
      </trkpt>
      <trkpt lat="45.59552" lon="2.95605">
        <ele>913</ele>
        <time>2022-08-17T14:17:40Z</time>
      </trkpt>
      <trkpt lat="45.59545" lon="2.95617">
        <ele>913</ele>
        <time>2022-08-17T14:17:41Z</time>
      </trkpt>
      <trkpt lat="45.59539" lon="2.95629">
        <ele>913</ele>
        <time>2022-08-17T14:17:42Z</time>
      </trkpt>
      <trkpt lat="45.59534" lon="2.95642">
        <ele>913</ele>
        <time>2022-08-17T14:17:43Z</time>
      </trkpt>
      <trkpt lat="45.59527" lon="2.95655">
        <ele>913</ele>
        <time>2022-08-17T14:17:44Z</time>
      </trkpt>
      <trkpt lat="45.59521" lon="2.95668">
        <ele>913</ele>
        <time>2022-08-17T14:17:45Z</time>
      </trkpt>
      <trkpt lat="45.59515" lon="2.95681">
        <ele>913</ele>
        <time>2022-08-17T14:17:46Z</time>
      </trkpt>
      <trkpt lat="45.59506" lon="2.957">
        <ele>913</ele>
        <time>2022-08-17T14:17:47Z</time>
      </trkpt>
      <trkpt lat="45.59503" lon="2.95707">
        <ele>908</ele>
        <time>2022-08-17T14:17:48Z</time>
      </trkpt>
      <trkpt lat="45.59497" lon="2.9572">
        <ele>908</ele>
        <time>2022-08-17T14:17:49Z</time>
      </trkpt>
      <trkpt lat="45.59491" lon="2.95732">
        <ele>908</ele>
        <time>2022-08-17T14:17:50Z</time>
      </trkpt>
      <trkpt lat="45.59484" lon="2.95745">
        <ele>908</ele>
        <time>2022-08-17T14:17:51Z</time>
      </trkpt>
      <trkpt lat="45.59478" lon="2.95758">
        <ele>908</ele>
        <time>2022-08-17T14:17:52Z</time>
      </trkpt>
      <trkpt lat="45.59472" lon="2.9577">
        <ele>908</ele>
        <time>2022-08-17T14:17:53Z</time>
      </trkpt>
      <trkpt lat="45.59465" lon="2.95782">
        <ele>908</ele>
        <time>2022-08-17T14:17:54Z</time>
      </trkpt>
      <trkpt lat="45.59458" lon="2.95795">
        <ele>908</ele>
        <time>2022-08-17T14:17:55Z</time>
      </trkpt>
      <trkpt lat="45.59452" lon="2.95807">
        <ele>908</ele>
        <time>2022-08-17T14:17:56Z</time>
      </trkpt>
      <trkpt lat="45.59442" lon="2.95826">
        <ele>908</ele>
        <time>2022-08-17T14:17:57Z</time>
      </trkpt>
      <trkpt lat="45.59439" lon="2.95832">
        <ele>901</ele>
        <time>2022-08-17T14:17:58Z</time>
      </trkpt>
      <trkpt lat="45.59432" lon="2.95844">
        <ele>901</ele>
        <time>2022-08-17T14:17:59Z</time>
      </trkpt>
      <trkpt lat="45.59426" lon="2.95857">
        <ele>901</ele>
        <time>2022-08-17T14:18:00Z</time>
      </trkpt>
      <trkpt lat="45.59421" lon="2.9587">
        <ele>901</ele>
        <time>2022-08-17T14:18:01Z</time>
      </trkpt>
      <trkpt lat="45.59415" lon="2.95883">
        <ele>901</ele>
        <time>2022-08-17T14:18:02Z</time>
      </trkpt>
      <trkpt lat="45.59411" lon="2.95896">
        <ele>901</ele>
        <time>2022-08-17T14:18:03Z</time>
      </trkpt>
      <trkpt lat="45.59408" lon="2.95911">
        <ele>901</ele>
        <time>2022-08-17T14:18:04Z</time>
      </trkpt>
      <trkpt lat="45.59406" lon="2.95925">
        <ele>901</ele>
        <time>2022-08-17T14:18:05Z</time>
      </trkpt>
      <trkpt lat="45.59404" lon="2.9594">
        <ele>901</ele>
        <time>2022-08-17T14:18:06Z</time>
      </trkpt>
      <trkpt lat="45.59402" lon="2.95963">
        <ele>901</ele>
        <time>2022-08-17T14:18:07Z</time>
      </trkpt>
      <trkpt lat="45.59402" lon="2.95971">
        <ele>895</ele>
        <time>2022-08-17T14:18:08Z</time>
      </trkpt>
      <trkpt lat="45.59401" lon="2.95986">
        <ele>895</ele>
        <time>2022-08-17T14:18:09Z</time>
      </trkpt>
      <trkpt lat="45.59399" lon="2.96001">
        <ele>895</ele>
        <time>2022-08-17T14:18:10Z</time>
      </trkpt>
      <trkpt lat="45.59397" lon="2.96016">
        <ele>895</ele>
        <time>2022-08-17T14:18:11Z</time>
      </trkpt>
      <trkpt lat="45.59393" lon="2.96031">
        <ele>895</ele>
        <time>2022-08-17T14:18:12Z</time>
      </trkpt>
      <trkpt lat="45.59388" lon="2.96045">
        <ele>895</ele>
        <time>2022-08-17T14:18:13Z</time>
      </trkpt>
      <trkpt lat="45.59381" lon="2.96058">
        <ele>895</ele>
        <time>2022-08-17T14:18:14Z</time>
      </trkpt>
      <trkpt lat="45.59375" lon="2.96071">
        <ele>895</ele>
        <time>2022-08-17T14:18:15Z</time>
      </trkpt>
      <trkpt lat="45.5937" lon="2.96085">
        <ele>895</ele>
        <time>2022-08-17T14:18:16Z</time>
      </trkpt>
      <trkpt lat="45.59363" lon="2.96107">
        <ele>895</ele>
        <time>2022-08-17T14:18:17Z</time>
      </trkpt>
      <trkpt lat="45.5936" lon="2.96114">
        <ele>889</ele>
        <time>2022-08-17T14:18:18Z</time>
      </trkpt>
      <trkpt lat="45.59356" lon="2.96129">
        <ele>889</ele>
        <time>2022-08-17T14:18:19Z</time>
      </trkpt>
      <trkpt lat="45.59351" lon="2.96144">
        <ele>889</ele>
        <time>2022-08-17T14:18:20Z</time>
      </trkpt>
      <trkpt lat="45.59346" lon="2.96159">
        <ele>889</ele>
        <time>2022-08-17T14:18:21Z</time>
      </trkpt>
      <trkpt lat="45.5934" lon="2.96173">
        <ele>889</ele>
        <time>2022-08-17T14:18:22Z</time>
      </trkpt>
      <trkpt lat="45.59333" lon="2.96186">
        <ele>889</ele>
        <time>2022-08-17T14:18:23Z</time>
      </trkpt>
      <trkpt lat="45.59327" lon="2.96198">
        <ele>889</ele>
        <time>2022-08-17T14:18:24Z</time>
      </trkpt>
      <trkpt lat="45.59321" lon="2.9621">
        <ele>889</ele>
        <time>2022-08-17T14:18:25Z</time>
      </trkpt>
      <trkpt lat="45.59315" lon="2.96223">
        <ele>889</ele>
        <time>2022-08-17T14:18:26Z</time>
      </trkpt>
      <trkpt lat="45.5931" lon="2.96242">
        <ele>889</ele>
        <time>2022-08-17T14:18:27Z</time>
      </trkpt>
      <trkpt lat="45.59308" lon="2.96249">
        <ele>881</ele>
        <time>2022-08-17T14:18:28Z</time>
      </trkpt>
      <trkpt lat="45.59305" lon="2.96263">
        <ele>881</ele>
        <time>2022-08-17T14:18:29Z</time>
      </trkpt>
      <trkpt lat="45.59304" lon="2.96277">
        <ele>881</ele>
        <time>2022-08-17T14:18:30Z</time>
      </trkpt>
      <trkpt lat="45.59303" lon="2.96291">
        <ele>881</ele>
        <time>2022-08-17T14:18:31Z</time>
      </trkpt>
      <trkpt lat="45.59302" lon="2.96306">
        <ele>881</ele>
        <time>2022-08-17T14:18:32Z</time>
      </trkpt>
      <trkpt lat="45.593" lon="2.96321">
        <ele>881</ele>
        <time>2022-08-17T14:18:33Z</time>
      </trkpt>
      <trkpt lat="45.59297" lon="2.96335">
        <ele>881</ele>
        <time>2022-08-17T14:18:34Z</time>
      </trkpt>
      <trkpt lat="45.59295" lon="2.9635">
        <ele>881</ele>
        <time>2022-08-17T14:18:35Z</time>
      </trkpt>
      <trkpt lat="45.59293" lon="2.96365">
        <ele>881</ele>
        <time>2022-08-17T14:18:36Z</time>
      </trkpt>
      <trkpt lat="45.59289" lon="2.96387">
        <ele>881</ele>
        <time>2022-08-17T14:18:37Z</time>
      </trkpt>
      <trkpt lat="45.59288" lon="2.96394">
        <ele>873</ele>
        <time>2022-08-17T14:18:38Z</time>
      </trkpt>
      <trkpt lat="45.59285" lon="2.96421">
        <ele>873</ele>
        <time>2022-08-17T14:18:39Z</time>
      </trkpt>
      <trkpt lat="45.59283" lon="2.96433">
        <ele>873</ele>
        <time>2022-08-17T14:18:40Z</time>
      </trkpt>
      <trkpt lat="45.59281" lon="2.96446">
        <ele>873</ele>
        <time>2022-08-17T14:18:41Z</time>
      </trkpt>
      <trkpt lat="45.5928" lon="2.96458">
        <ele>873</ele>
        <time>2022-08-17T14:18:42Z</time>
      </trkpt>
      <trkpt lat="45.59278" lon="2.9647">
        <ele>873</ele>
        <time>2022-08-17T14:18:43Z</time>
      </trkpt>
      <trkpt lat="45.59277" lon="2.96482">
        <ele>873</ele>
        <time>2022-08-17T14:18:44Z</time>
      </trkpt>
      <trkpt lat="45.59275" lon="2.96495">
        <ele>873</ele>
        <time>2022-08-17T14:18:45Z</time>
      </trkpt>
      <trkpt lat="45.59273" lon="2.96507">
        <ele>873</ele>
        <time>2022-08-17T14:18:47Z</time>
      </trkpt>
      <trkpt lat="45.59272" lon="2.96519">
        <ele>868</ele>
        <time>2022-08-17T14:18:48Z</time>
      </trkpt>
      <trkpt lat="45.5926" lon="2.96533">
        <ele>868</ele>
        <time>2022-08-17T14:18:49Z</time>
      </trkpt>
      <trkpt lat="45.59253" lon="2.96536">
        <ele>868</ele>
        <time>2022-08-17T14:18:50Z</time>
      </trkpt>
      <trkpt lat="45.59246" lon="2.96538">
        <ele>868</ele>
        <time>2022-08-17T14:18:51Z</time>
      </trkpt>
      <trkpt lat="45.59239" lon="2.96541">
        <ele>868</ele>
        <time>2022-08-17T14:18:52Z</time>
      </trkpt>
      <trkpt lat="45.59231" lon="2.96544">
        <ele>868</ele>
        <time>2022-08-17T14:18:53Z</time>
      </trkpt>
      <trkpt lat="45.59224" lon="2.96546">
        <ele>868</ele>
        <time>2022-08-17T14:18:54Z</time>
      </trkpt>
      <trkpt lat="45.59217" lon="2.96549">
        <ele>868</ele>
        <time>2022-08-17T14:18:56Z</time>
      </trkpt>
      <trkpt lat="45.5921" lon="2.96552">
        <ele>868</ele>
        <time>2022-08-17T14:18:57Z</time>
      </trkpt>
      <trkpt lat="45.59203" lon="2.96554">
        <ele>867</ele>
        <time>2022-08-17T14:18:58Z</time>
      </trkpt>
      <trkpt lat="45.59196" lon="2.96545">
        <ele>867</ele>
        <time>2022-08-17T14:18:59Z</time>
      </trkpt>
      <trkpt lat="45.5919" lon="2.96533">
        <ele>867</ele>
        <time>2022-08-17T14:19:00Z</time>
      </trkpt>
      <trkpt lat="45.59186" lon="2.9652">
        <ele>867</ele>
        <time>2022-08-17T14:19:01Z</time>
      </trkpt>
      <trkpt lat="45.59182" lon="2.96507">
        <ele>867</ele>
        <time>2022-08-17T14:19:02Z</time>
      </trkpt>
      <trkpt lat="45.5918" lon="2.96493">
        <ele>867</ele>
        <time>2022-08-17T14:19:03Z</time>
      </trkpt>
      <trkpt lat="45.5918" lon="2.96478">
        <ele>867</ele>
        <time>2022-08-17T14:19:04Z</time>
      </trkpt>
      <trkpt lat="45.5918" lon="2.96464">
        <ele>867</ele>
        <time>2022-08-17T14:19:05Z</time>
      </trkpt>
      <trkpt lat="45.59181" lon="2.9645">
        <ele>867</ele>
        <time>2022-08-17T14:19:06Z</time>
      </trkpt>
      <trkpt lat="45.59182" lon="2.96437">
        <ele>867</ele>
        <time>2022-08-17T14:19:07Z</time>
      </trkpt>
      <trkpt lat="45.59181" lon="2.96423">
        <ele>856</ele>
        <time>2022-08-17T14:19:08Z</time>
      </trkpt>
      <trkpt lat="45.5918" lon="2.96409">
        <ele>856</ele>
        <time>2022-08-17T14:19:09Z</time>
      </trkpt>
      <trkpt lat="45.59178" lon="2.96396">
        <ele>856</ele>
        <time>2022-08-17T14:19:10Z</time>
      </trkpt>
      <trkpt lat="45.59177" lon="2.96382">
        <ele>856</ele>
        <time>2022-08-17T14:19:11Z</time>
      </trkpt>
      <trkpt lat="45.59176" lon="2.96367">
        <ele>856</ele>
        <time>2022-08-17T14:19:12Z</time>
      </trkpt>
      <trkpt lat="45.59176" lon="2.96353">
        <ele>856</ele>
        <time>2022-08-17T14:19:13Z</time>
      </trkpt>
      <trkpt lat="45.59176" lon="2.96338">
        <ele>856</ele>
        <time>2022-08-17T14:19:14Z</time>
      </trkpt>
      <trkpt lat="45.59176" lon="2.96324">
        <ele>856</ele>
        <time>2022-08-17T14:19:15Z</time>
      </trkpt>
      <trkpt lat="45.59178" lon="2.96309">
        <ele>856</ele>
        <time>2022-08-17T14:19:16Z</time>
      </trkpt>
      <trkpt lat="45.5918" lon="2.96295">
        <ele>856</ele>
        <time>2022-08-17T14:19:17Z</time>
      </trkpt>
      <trkpt lat="45.59183" lon="2.9628">
        <ele>849</ele>
        <time>2022-08-17T14:19:18Z</time>
      </trkpt>
      <trkpt lat="45.59186" lon="2.96266">
        <ele>849</ele>
        <time>2022-08-17T14:19:19Z</time>
      </trkpt>
      <trkpt lat="45.59188" lon="2.9625">
        <ele>849</ele>
        <time>2022-08-17T14:19:20Z</time>
      </trkpt>
      <trkpt lat="45.5919" lon="2.96235">
        <ele>849</ele>
        <time>2022-08-17T14:19:21Z</time>
      </trkpt>
      <trkpt lat="45.59191" lon="2.96219">
        <ele>849</ele>
        <time>2022-08-17T14:19:22Z</time>
      </trkpt>
      <trkpt lat="45.59192" lon="2.96203">
        <ele>849</ele>
        <time>2022-08-17T14:19:23Z</time>
      </trkpt>
      <trkpt lat="45.59192" lon="2.96187">
        <ele>849</ele>
        <time>2022-08-17T14:19:24Z</time>
      </trkpt>
      <trkpt lat="45.59192" lon="2.96172">
        <ele>849</ele>
        <time>2022-08-17T14:19:25Z</time>
      </trkpt>
      <trkpt lat="45.5919" lon="2.96158">
        <ele>849</ele>
        <time>2022-08-17T14:19:26Z</time>
      </trkpt>
      <trkpt lat="45.59176" lon="2.96146">
        <ele>842</ele>
        <time>2022-08-17T14:19:28Z</time>
      </trkpt>
      <trkpt lat="45.59155" lon="2.96145">
        <ele>842</ele>
        <time>2022-08-17T14:19:30Z</time>
      </trkpt>
      <trkpt lat="45.59149" lon="2.96156">
        <ele>842</ele>
        <time>2022-08-17T14:19:32Z</time>
      </trkpt>
      <trkpt lat="45.59143" lon="2.96167">
        <ele>842</ele>
        <time>2022-08-17T14:19:33Z</time>
      </trkpt>
      <trkpt lat="45.59136" lon="2.96178">
        <ele>842</ele>
        <time>2022-08-17T14:19:34Z</time>
      </trkpt>
      <trkpt lat="45.5913" lon="2.96189">
        <ele>842</ele>
        <time>2022-08-17T14:19:35Z</time>
      </trkpt>
      <trkpt lat="45.59124" lon="2.962">
        <ele>842</ele>
        <time>2022-08-17T14:19:36Z</time>
      </trkpt>
      <trkpt lat="45.59117" lon="2.96211">
        <ele>842</ele>
        <time>2022-08-17T14:19:37Z</time>
      </trkpt>
      <trkpt lat="45.59111" lon="2.96222">
        <ele>836</ele>
        <time>2022-08-17T14:19:38Z</time>
      </trkpt>
      <trkpt lat="45.59104" lon="2.96235">
        <ele>836</ele>
        <time>2022-08-17T14:19:39Z</time>
      </trkpt>
      <trkpt lat="45.59096" lon="2.96246">
        <ele>836</ele>
        <time>2022-08-17T14:19:40Z</time>
      </trkpt>
      <trkpt lat="45.59089" lon="2.96257">
        <ele>836</ele>
        <time>2022-08-17T14:19:41Z</time>
      </trkpt>
      <trkpt lat="45.59081" lon="2.96269">
        <ele>836</ele>
        <time>2022-08-17T14:19:42Z</time>
      </trkpt>
      <trkpt lat="45.59075" lon="2.96281">
        <ele>836</ele>
        <time>2022-08-17T14:19:43Z</time>
      </trkpt>
      <trkpt lat="45.59069" lon="2.96294">
        <ele>836</ele>
        <time>2022-08-17T14:19:44Z</time>
      </trkpt>
      <trkpt lat="45.59063" lon="2.96306">
        <ele>836</ele>
        <time>2022-08-17T14:19:45Z</time>
      </trkpt>
      <trkpt lat="45.59059" lon="2.96319">
        <ele>836</ele>
        <time>2022-08-17T14:19:46Z</time>
      </trkpt>
      <trkpt lat="45.59052" lon="2.96335">
        <ele>827</ele>
        <time>2022-08-17T14:19:48Z</time>
      </trkpt>
      <trkpt lat="45.59041" lon="2.96346">
        <ele>827</ele>
        <time>2022-08-17T14:19:49Z</time>
      </trkpt>
      <trkpt lat="45.59033" lon="2.96349">
        <ele>827</ele>
        <time>2022-08-17T14:19:50Z</time>
      </trkpt>
      <trkpt lat="45.59025" lon="2.96351">
        <ele>827</ele>
        <time>2022-08-17T14:19:51Z</time>
      </trkpt>
      <trkpt lat="45.59016" lon="2.96354">
        <ele>827</ele>
        <time>2022-08-17T14:19:52Z</time>
      </trkpt>
      <trkpt lat="45.59008" lon="2.96357">
        <ele>827</ele>
        <time>2022-08-17T14:19:53Z</time>
      </trkpt>
      <trkpt lat="45.59" lon="2.96359">
        <ele>827</ele>
        <time>2022-08-17T14:19:55Z</time>
      </trkpt>
      <trkpt lat="45.58992" lon="2.96362">
        <ele>827</ele>
        <time>2022-08-17T14:19:56Z</time>
      </trkpt>
      <trkpt lat="45.58984" lon="2.96364">
        <ele>818</ele>
        <time>2022-08-17T14:19:58Z</time>
      </trkpt>
      <trkpt lat="45.5897" lon="2.96368">
        <ele>818</ele>
        <time>2022-08-17T14:20:00Z</time>
      </trkpt>
      <trkpt lat="45.58968" lon="2.96375">
        <ele>818</ele>
        <time>2022-08-17T14:20:01Z</time>
      </trkpt>
      <trkpt lat="45.58966" lon="2.96382">
        <ele>818</ele>
        <time>2022-08-17T14:20:02Z</time>
      </trkpt>
      <trkpt lat="45.58965" lon="2.96388">
        <ele>818</ele>
        <time>2022-08-17T14:20:03Z</time>
      </trkpt>
      <trkpt lat="45.58963" lon="2.96395">
        <ele>818</ele>
        <time>2022-08-17T14:20:04Z</time>
      </trkpt>
      <trkpt lat="45.58961" lon="2.96401">
        <ele>818</ele>
        <time>2022-08-17T14:20:05Z</time>
      </trkpt>
      <trkpt lat="45.5896" lon="2.96408">
        <ele>818</ele>
        <time>2022-08-17T14:20:06Z</time>
      </trkpt>
      <trkpt lat="45.58958" lon="2.96414">
        <ele>818</ele>
        <time>2022-08-17T14:20:07Z</time>
      </trkpt>
      <trkpt lat="45.58956" lon="2.96421">
        <ele>815</ele>
        <time>2022-08-17T14:20:08Z</time>
      </trkpt>
      <trkpt lat="45.58952" lon="2.96442">
        <ele>815</ele>
        <time>2022-08-17T14:20:09Z</time>
      </trkpt>
      <trkpt lat="45.5895" lon="2.96453">
        <ele>815</ele>
        <time>2022-08-17T14:20:10Z</time>
      </trkpt>
      <trkpt lat="45.58948" lon="2.96464">
        <ele>815</ele>
        <time>2022-08-17T14:20:11Z</time>
      </trkpt>
      <trkpt lat="45.58946" lon="2.96474">
        <ele>815</ele>
        <time>2022-08-17T14:20:12Z</time>
      </trkpt>
      <trkpt lat="45.58943" lon="2.96485">
        <ele>815</ele>
        <time>2022-08-17T14:20:13Z</time>
      </trkpt>
      <trkpt lat="45.58941" lon="2.96496">
        <ele>815</ele>
        <time>2022-08-17T14:20:14Z</time>
      </trkpt>
      <trkpt lat="45.58939" lon="2.96506">
        <ele>815</ele>
        <time>2022-08-17T14:20:15Z</time>
      </trkpt>
      <trkpt lat="45.58937" lon="2.96517">
        <ele>815</ele>
        <time>2022-08-17T14:20:16Z</time>
      </trkpt>
      <trkpt lat="45.58934" lon="2.96528">
        <ele>815</ele>
        <time>2022-08-17T14:20:17Z</time>
      </trkpt>
      <trkpt lat="45.58932" lon="2.96538">
        <ele>813</ele>
        <time>2022-08-17T14:20:18Z</time>
      </trkpt>
      <trkpt lat="45.58931" lon="2.96551">
        <ele>813</ele>
        <time>2022-08-17T14:20:19Z</time>
      </trkpt>
      <trkpt lat="45.58932" lon="2.96565">
        <ele>813</ele>
        <time>2022-08-17T14:20:20Z</time>
      </trkpt>
      <trkpt lat="45.58933" lon="2.96578">
        <ele>813</ele>
        <time>2022-08-17T14:20:21Z</time>
      </trkpt>
      <trkpt lat="45.58936" lon="2.96592">
        <ele>813</ele>
        <time>2022-08-17T14:20:22Z</time>
      </trkpt>
      <trkpt lat="45.5894" lon="2.96605">
        <ele>813</ele>
        <time>2022-08-17T14:20:23Z</time>
      </trkpt>
      <trkpt lat="45.58944" lon="2.96618">
        <ele>813</ele>
        <time>2022-08-17T14:20:24Z</time>
      </trkpt>
      <trkpt lat="45.58949" lon="2.96631">
        <ele>813</ele>
        <time>2022-08-17T14:20:25Z</time>
      </trkpt>
      <trkpt lat="45.58954" lon="2.96644">
        <ele>813</ele>
        <time>2022-08-17T14:20:26Z</time>
      </trkpt>
      <trkpt lat="45.58959" lon="2.96657">
        <ele>813</ele>
        <time>2022-08-17T14:20:27Z</time>
      </trkpt>
      <trkpt lat="45.58964" lon="2.96671">
        <ele>806</ele>
        <time>2022-08-17T14:20:28Z</time>
      </trkpt>
      <trkpt lat="45.58969" lon="2.96684">
        <ele>806</ele>
        <time>2022-08-17T14:20:29Z</time>
      </trkpt>
      <trkpt lat="45.58974" lon="2.96697">
        <ele>806</ele>
        <time>2022-08-17T14:20:30Z</time>
      </trkpt>
      <trkpt lat="45.58979" lon="2.9671">
        <ele>806</ele>
        <time>2022-08-17T14:20:31Z</time>
      </trkpt>
      <trkpt lat="45.58984" lon="2.96723">
        <ele>806</ele>
        <time>2022-08-17T14:20:32Z</time>
      </trkpt>
      <trkpt lat="45.5899" lon="2.96736">
        <ele>806</ele>
        <time>2022-08-17T14:20:33Z</time>
      </trkpt>
      <trkpt lat="45.58994" lon="2.96749">
        <ele>806</ele>
        <time>2022-08-17T14:20:34Z</time>
      </trkpt>
      <trkpt lat="45.58998" lon="2.96763">
        <ele>806</ele>
        <time>2022-08-17T14:20:35Z</time>
      </trkpt>
      <trkpt lat="45.59" lon="2.96778">
        <ele>806</ele>
        <time>2022-08-17T14:20:36Z</time>
      </trkpt>
      <trkpt lat="45.59001" lon="2.96801">
        <ele>806</ele>
        <time>2022-08-17T14:20:37Z</time>
      </trkpt>
      <trkpt lat="45.59001" lon="2.96809">
        <ele>801</ele>
        <time>2022-08-17T14:20:38Z</time>
      </trkpt>
      <trkpt lat="45.59001" lon="2.96824">
        <ele>801</ele>
        <time>2022-08-17T14:20:39Z</time>
      </trkpt>
      <trkpt lat="45.58999" lon="2.96839">
        <ele>801</ele>
        <time>2022-08-17T14:20:40Z</time>
      </trkpt>
      <trkpt lat="45.5899" lon="2.96867">
        <ele>801</ele>
        <time>2022-08-17T14:20:42Z</time>
      </trkpt>
      <trkpt lat="45.58984" lon="2.9688">
        <ele>801</ele>
        <time>2022-08-17T14:20:43Z</time>
      </trkpt>
      <trkpt lat="45.58977" lon="2.96891">
        <ele>801</ele>
        <time>2022-08-17T14:20:44Z</time>
      </trkpt>
      <trkpt lat="45.5897" lon="2.96901">
        <ele>801</ele>
        <time>2022-08-17T14:20:45Z</time>
      </trkpt>
      <trkpt lat="45.58963" lon="2.96911">
        <ele>801</ele>
        <time>2022-08-17T14:20:46Z</time>
      </trkpt>
      <trkpt lat="45.58957" lon="2.96921">
        <ele>801</ele>
        <time>2022-08-17T14:20:47Z</time>
      </trkpt>
      <trkpt lat="45.5895" lon="2.96931">
        <ele>800</ele>
        <time>2022-08-17T14:20:48Z</time>
      </trkpt>
      <trkpt lat="45.58944" lon="2.96941">
        <ele>800</ele>
        <time>2022-08-17T14:20:49Z</time>
      </trkpt>
      <trkpt lat="45.58938" lon="2.96952">
        <ele>800</ele>
        <time>2022-08-17T14:20:50Z</time>
      </trkpt>
      <trkpt lat="45.58933" lon="2.96964">
        <ele>800</ele>
        <time>2022-08-17T14:20:51Z</time>
      </trkpt>
      <trkpt lat="45.58928" lon="2.96977">
        <ele>800</ele>
        <time>2022-08-17T14:20:52Z</time>
      </trkpt>
      <trkpt lat="45.58924" lon="2.9699">
        <ele>800</ele>
        <time>2022-08-17T14:20:53Z</time>
      </trkpt>
      <trkpt lat="45.58921" lon="2.97003">
        <ele>800</ele>
        <time>2022-08-17T14:20:54Z</time>
      </trkpt>
      <trkpt lat="45.58917" lon="2.97016">
        <ele>800</ele>
        <time>2022-08-17T14:20:55Z</time>
      </trkpt>
      <trkpt lat="45.58915" lon="2.9703">
        <ele>800</ele>
        <time>2022-08-17T14:20:56Z</time>
      </trkpt>
      <trkpt lat="45.58912" lon="2.97043">
        <ele>800</ele>
        <time>2022-08-17T14:20:57Z</time>
      </trkpt>
      <trkpt lat="45.58909" lon="2.97057">
        <ele>794</ele>
        <time>2022-08-17T14:20:58Z</time>
      </trkpt>
      <trkpt lat="45.58906" lon="2.9707">
        <ele>794</ele>
        <time>2022-08-17T14:20:59Z</time>
      </trkpt>
      <trkpt lat="45.58903" lon="2.97083">
        <ele>794</ele>
        <time>2022-08-17T14:21:00Z</time>
      </trkpt>
      <trkpt lat="45.58899" lon="2.97096">
        <ele>794</ele>
        <time>2022-08-17T14:21:01Z</time>
      </trkpt>
      <trkpt lat="45.58896" lon="2.97109">
        <ele>794</ele>
        <time>2022-08-17T14:21:02Z</time>
      </trkpt>
      <trkpt lat="45.58892" lon="2.97121">
        <ele>794</ele>
        <time>2022-08-17T14:21:03Z</time>
      </trkpt>
      <trkpt lat="45.5889" lon="2.97135">
        <ele>794</ele>
        <time>2022-08-17T14:21:04Z</time>
      </trkpt>
      <trkpt lat="45.58888" lon="2.97149">
        <ele>794</ele>
        <time>2022-08-17T14:21:05Z</time>
      </trkpt>
      <trkpt lat="45.58887" lon="2.97163">
        <ele>794</ele>
        <time>2022-08-17T14:21:06Z</time>
      </trkpt>
      <trkpt lat="45.58888" lon="2.97177">
        <ele>794</ele>
        <time>2022-08-17T14:21:07Z</time>
      </trkpt>
      <trkpt lat="45.5889" lon="2.97191">
        <ele>786</ele>
        <time>2022-08-17T14:21:08Z</time>
      </trkpt>
      <trkpt lat="45.58892" lon="2.97205">
        <ele>786</ele>
        <time>2022-08-17T14:21:09Z</time>
      </trkpt>
      <trkpt lat="45.58896" lon="2.97218">
        <ele>786</ele>
        <time>2022-08-17T14:21:10Z</time>
      </trkpt>
      <trkpt lat="45.589" lon="2.97232">
        <ele>786</ele>
        <time>2022-08-17T14:21:11Z</time>
      </trkpt>
      <trkpt lat="45.58904" lon="2.97245">
        <ele>786</ele>
        <time>2022-08-17T14:21:12Z</time>
      </trkpt>
      <trkpt lat="45.58908" lon="2.97258">
        <ele>786</ele>
        <time>2022-08-17T14:21:13Z</time>
      </trkpt>
      <trkpt lat="45.58912" lon="2.97271">
        <ele>786</ele>
        <time>2022-08-17T14:21:14Z</time>
      </trkpt>
      <trkpt lat="45.58917" lon="2.97284">
        <ele>786</ele>
        <time>2022-08-17T14:21:15Z</time>
      </trkpt>
      <trkpt lat="45.58925" lon="2.97309">
        <ele>786</ele>
        <time>2022-08-17T14:21:17Z</time>
      </trkpt>
      <trkpt lat="45.58929" lon="2.97322">
        <ele>782</ele>
        <time>2022-08-17T14:21:18Z</time>
      </trkpt>
      <trkpt lat="45.58932" lon="2.97334">
        <ele>782</ele>
        <time>2022-08-17T14:21:19Z</time>
      </trkpt>
      <trkpt lat="45.58939" lon="2.97359">
        <ele>782</ele>
        <time>2022-08-17T14:21:21Z</time>
      </trkpt>
      <trkpt lat="45.58949" lon="2.97382">
        <ele>782</ele>
        <time>2022-08-17T14:21:23Z</time>
      </trkpt>
      <trkpt lat="45.58957" lon="2.97405">
        <ele>782</ele>
        <time>2022-08-17T14:21:25Z</time>
      </trkpt>
      <trkpt lat="45.58964" lon="2.97429">
        <ele>782</ele>
        <time>2022-08-17T14:21:27Z</time>
      </trkpt>
      <trkpt lat="45.58967" lon="2.97443">
        <ele>779</ele>
        <time>2022-08-17T14:21:28Z</time>
      </trkpt>
      <trkpt lat="45.58969" lon="2.97476">
        <ele>779</ele>
        <time>2022-08-17T14:21:29Z</time>
      </trkpt>
      <trkpt lat="45.58968" lon="2.97496">
        <ele>779</ele>
        <time>2022-08-17T14:21:31Z</time>
      </trkpt>
      <trkpt lat="45.58967" lon="2.97516">
        <ele>779</ele>
        <time>2022-08-17T14:21:33Z</time>
      </trkpt>
      <trkpt lat="45.58966" lon="2.97536">
        <ele>779</ele>
        <time>2022-08-17T14:21:35Z</time>
      </trkpt>
      <trkpt lat="45.58965" lon="2.97556">
        <ele>779</ele>
        <time>2022-08-17T14:21:36Z</time>
      </trkpt>
      <trkpt lat="45.58964" lon="2.97576">
        <ele>774</ele>
        <time>2022-08-17T14:21:38Z</time>
      </trkpt>
      <trkpt lat="45.58962" lon="2.97589">
        <ele>774</ele>
        <time>2022-08-17T14:21:39Z</time>
      </trkpt>
      <trkpt lat="45.58959" lon="2.97602">
        <ele>774</ele>
        <time>2022-08-17T14:21:40Z</time>
      </trkpt>
      <trkpt lat="45.58957" lon="2.97615">
        <ele>774</ele>
        <time>2022-08-17T14:21:41Z</time>
      </trkpt>
      <trkpt lat="45.58953" lon="2.97641">
        <ele>774</ele>
        <time>2022-08-17T14:21:43Z</time>
      </trkpt>
      <trkpt lat="45.58951" lon="2.97655">
        <ele>774</ele>
        <time>2022-08-17T14:21:44Z</time>
      </trkpt>
      <trkpt lat="45.58947" lon="2.97682">
        <ele>774</ele>
        <time>2022-08-17T14:21:46Z</time>
      </trkpt>
      <trkpt lat="45.58945" lon="2.97696">
        <ele>774</ele>
        <time>2022-08-17T14:21:47Z</time>
      </trkpt>
      <trkpt lat="45.58942" lon="2.9771">
        <ele>772</ele>
        <time>2022-08-17T14:21:48Z</time>
      </trkpt>
      <trkpt lat="45.5894" lon="2.97724">
        <ele>772</ele>
        <time>2022-08-17T14:21:49Z</time>
      </trkpt>
      <trkpt lat="45.58938" lon="2.97738">
        <ele>772</ele>
        <time>2022-08-17T14:21:50Z</time>
      </trkpt>
      <trkpt lat="45.58933" lon="2.97765">
        <ele>772</ele>
        <time>2022-08-17T14:21:52Z</time>
      </trkpt>
      <trkpt lat="45.5893" lon="2.97779">
        <ele>772</ele>
        <time>2022-08-17T14:21:53Z</time>
      </trkpt>
      <trkpt lat="45.58927" lon="2.97793">
        <ele>772</ele>
        <time>2022-08-17T14:21:54Z</time>
      </trkpt>
      <trkpt lat="45.58924" lon="2.97806">
        <ele>772</ele>
        <time>2022-08-17T14:21:55Z</time>
      </trkpt>
      <trkpt lat="45.58921" lon="2.9782">
        <ele>772</ele>
        <time>2022-08-17T14:21:56Z</time>
      </trkpt>
      <trkpt lat="45.58917" lon="2.97834">
        <ele>772</ele>
        <time>2022-08-17T14:21:57Z</time>
      </trkpt>
      <trkpt lat="45.58914" lon="2.97849">
        <ele>767</ele>
        <time>2022-08-17T14:21:58Z</time>
      </trkpt>
      <trkpt lat="45.5891" lon="2.97863">
        <ele>767</ele>
        <time>2022-08-17T14:21:59Z</time>
      </trkpt>
      <trkpt lat="45.58906" lon="2.97877">
        <ele>767</ele>
        <time>2022-08-17T14:22:00Z</time>
      </trkpt>
      <trkpt lat="45.58902" lon="2.97891">
        <ele>767</ele>
        <time>2022-08-17T14:22:01Z</time>
      </trkpt>
      <trkpt lat="45.58899" lon="2.97906">
        <ele>767</ele>
        <time>2022-08-17T14:22:02Z</time>
      </trkpt>
      <trkpt lat="45.58895" lon="2.9792">
        <ele>767</ele>
        <time>2022-08-17T14:22:03Z</time>
      </trkpt>
      <trkpt lat="45.58891" lon="2.97935">
        <ele>767</ele>
        <time>2022-08-17T14:22:04Z</time>
      </trkpt>
      <trkpt lat="45.58887" lon="2.97949">
        <ele>767</ele>
        <time>2022-08-17T14:22:05Z</time>
      </trkpt>
      <trkpt lat="45.58883" lon="2.97964">
        <ele>767</ele>
        <time>2022-08-17T14:22:06Z</time>
      </trkpt>
      <trkpt lat="45.58876" lon="2.97986">
        <ele>767</ele>
        <time>2022-08-17T14:22:07Z</time>
      </trkpt>
      <trkpt lat="45.58874" lon="2.97993">
        <ele>764</ele>
        <time>2022-08-17T14:22:08Z</time>
      </trkpt>
      <trkpt lat="45.5887" lon="2.98008">
        <ele>764</ele>
        <time>2022-08-17T14:22:09Z</time>
      </trkpt>
      <trkpt lat="45.58865" lon="2.98022">
        <ele>764</ele>
        <time>2022-08-17T14:22:10Z</time>
      </trkpt>
      <trkpt lat="45.58862" lon="2.98036">
        <ele>764</ele>
        <time>2022-08-17T14:22:11Z</time>
      </trkpt>
      <trkpt lat="45.58859" lon="2.98051">
        <ele>764</ele>
        <time>2022-08-17T14:22:12Z</time>
      </trkpt>
      <trkpt lat="45.58857" lon="2.98066">
        <ele>764</ele>
        <time>2022-08-17T14:22:13Z</time>
      </trkpt>
      <trkpt lat="45.58857" lon="2.98081">
        <ele>764</ele>
        <time>2022-08-17T14:22:14Z</time>
      </trkpt>
      <trkpt lat="45.58859" lon="2.98095">
        <ele>764</ele>
        <time>2022-08-17T14:22:15Z</time>
      </trkpt>
      <trkpt lat="45.58862" lon="2.9811">
        <ele>764</ele>
        <time>2022-08-17T14:22:16Z</time>
      </trkpt>
      <trkpt lat="45.58866" lon="2.98123">
        <ele>764</ele>
        <time>2022-08-17T14:22:17Z</time>
      </trkpt>
      <trkpt lat="45.58872" lon="2.98136">
        <ele>759</ele>
        <time>2022-08-17T14:22:18Z</time>
      </trkpt>
      <trkpt lat="45.58878" lon="2.98149">
        <ele>759</ele>
        <time>2022-08-17T14:22:19Z</time>
      </trkpt>
      <trkpt lat="45.58884" lon="2.98161">
        <ele>759</ele>
        <time>2022-08-17T14:22:20Z</time>
      </trkpt>
      <trkpt lat="45.58891" lon="2.98174">
        <ele>759</ele>
        <time>2022-08-17T14:22:21Z</time>
      </trkpt>
      <trkpt lat="45.58896" lon="2.98187">
        <ele>759</ele>
        <time>2022-08-17T14:22:22Z</time>
      </trkpt>
      <trkpt lat="45.58902" lon="2.98201">
        <ele>759</ele>
        <time>2022-08-17T14:22:23Z</time>
      </trkpt>
      <trkpt lat="45.58907" lon="2.98214">
        <ele>759</ele>
        <time>2022-08-17T14:22:24Z</time>
      </trkpt>
      <trkpt lat="45.58913" lon="2.98228">
        <ele>759</ele>
        <time>2022-08-17T14:22:25Z</time>
      </trkpt>
      <trkpt lat="45.58918" lon="2.98242">
        <ele>759</ele>
        <time>2022-08-17T14:22:26Z</time>
      </trkpt>
      <trkpt lat="45.58926" lon="2.98262">
        <ele>759</ele>
        <time>2022-08-17T14:22:27Z</time>
      </trkpt>
      <trkpt lat="45.58928" lon="2.98269">
        <ele>755</ele>
        <time>2022-08-17T14:22:28Z</time>
      </trkpt>
      <trkpt lat="45.58934" lon="2.98282">
        <ele>755</ele>
        <time>2022-08-17T14:22:29Z</time>
      </trkpt>
      <trkpt lat="45.58939" lon="2.98296">
        <ele>755</ele>
        <time>2022-08-17T14:22:30Z</time>
      </trkpt>
      <trkpt lat="45.58944" lon="2.98309">
        <ele>755</ele>
        <time>2022-08-17T14:22:31Z</time>
      </trkpt>
      <trkpt lat="45.58948" lon="2.98324">
        <ele>755</ele>
        <time>2022-08-17T14:22:32Z</time>
      </trkpt>
      <trkpt lat="45.58951" lon="2.98338">
        <ele>755</ele>
        <time>2022-08-17T14:22:33Z</time>
      </trkpt>
      <trkpt lat="45.58954" lon="2.98353">
        <ele>755</ele>
        <time>2022-08-17T14:22:34Z</time>
      </trkpt>
      <trkpt lat="45.58957" lon="2.98367">
        <ele>755</ele>
        <time>2022-08-17T14:22:35Z</time>
      </trkpt>
      <trkpt lat="45.5896" lon="2.98382">
        <ele>755</ele>
        <time>2022-08-17T14:22:36Z</time>
      </trkpt>
      <trkpt lat="45.58965" lon="2.98403">
        <ele>755</ele>
        <time>2022-08-17T14:22:37Z</time>
      </trkpt>
      <trkpt lat="45.58967" lon="2.9841">
        <ele>749</ele>
        <time>2022-08-17T14:22:38Z</time>
      </trkpt>
      <trkpt lat="45.5897" lon="2.98425">
        <ele>749</ele>
        <time>2022-08-17T14:22:39Z</time>
      </trkpt>
      <trkpt lat="45.58972" lon="2.98439">
        <ele>749</ele>
        <time>2022-08-17T14:22:40Z</time>
      </trkpt>
      <trkpt lat="45.58975" lon="2.98455">
        <ele>749</ele>
        <time>2022-08-17T14:22:41Z</time>
      </trkpt>
      <trkpt lat="45.58975" lon="2.9847">
        <ele>749</ele>
        <time>2022-08-17T14:22:42Z</time>
      </trkpt>
      <trkpt lat="45.58974" lon="2.98485">
        <ele>749</ele>
        <time>2022-08-17T14:22:43Z</time>
      </trkpt>
      <trkpt lat="45.5897" lon="2.98499">
        <ele>749</ele>
        <time>2022-08-17T14:22:44Z</time>
      </trkpt>
      <trkpt lat="45.58964" lon="2.98511">
        <ele>749</ele>
        <time>2022-08-17T14:22:45Z</time>
      </trkpt>
      <trkpt lat="45.58957" lon="2.98522">
        <ele>749</ele>
        <time>2022-08-17T14:22:46Z</time>
      </trkpt>
      <trkpt lat="45.58949" lon="2.98533">
        <ele>749</ele>
        <time>2022-08-17T14:22:47Z</time>
      </trkpt>
      <trkpt lat="45.58942" lon="2.98544">
        <ele>745</ele>
        <time>2022-08-17T14:22:48Z</time>
      </trkpt>
      <trkpt lat="45.58935" lon="2.98556">
        <ele>745</ele>
        <time>2022-08-17T14:22:49Z</time>
      </trkpt>
      <trkpt lat="45.58929" lon="2.98568">
        <ele>745</ele>
        <time>2022-08-17T14:22:50Z</time>
      </trkpt>
      <trkpt lat="45.58923" lon="2.98581">
        <ele>745</ele>
        <time>2022-08-17T14:22:51Z</time>
      </trkpt>
      <trkpt lat="45.58918" lon="2.98595">
        <ele>745</ele>
        <time>2022-08-17T14:22:52Z</time>
      </trkpt>
      <trkpt lat="45.58913" lon="2.98608">
        <ele>745</ele>
        <time>2022-08-17T14:22:53Z</time>
      </trkpt>
      <trkpt lat="45.58907" lon="2.98622">
        <ele>745</ele>
        <time>2022-08-17T14:22:54Z</time>
      </trkpt>
      <trkpt lat="45.58901" lon="2.98635">
        <ele>745</ele>
        <time>2022-08-17T14:22:55Z</time>
      </trkpt>
      <trkpt lat="45.58894" lon="2.98647">
        <ele>745</ele>
        <time>2022-08-17T14:22:56Z</time>
      </trkpt>
      <trkpt lat="45.58884" lon="2.98664">
        <ele>745</ele>
        <time>2022-08-17T14:22:57Z</time>
      </trkpt>
      <trkpt lat="45.5888" lon="2.9867">
        <ele>740</ele>
        <time>2022-08-17T14:22:58Z</time>
      </trkpt>
      <trkpt lat="45.58872" lon="2.98681">
        <ele>740</ele>
        <time>2022-08-17T14:22:59Z</time>
      </trkpt>
      <trkpt lat="45.58865" lon="2.98693">
        <ele>740</ele>
        <time>2022-08-17T14:23:00Z</time>
      </trkpt>
      <trkpt lat="45.58858" lon="2.98705">
        <ele>740</ele>
        <time>2022-08-17T14:23:01Z</time>
      </trkpt>
      <trkpt lat="45.58852" lon="2.98716">
        <ele>740</ele>
        <time>2022-08-17T14:23:02Z</time>
      </trkpt>
      <trkpt lat="45.58846" lon="2.98728">
        <ele>740</ele>
        <time>2022-08-17T14:23:03Z</time>
      </trkpt>
      <trkpt lat="45.58841" lon="2.98741">
        <ele>740</ele>
        <time>2022-08-17T14:23:04Z</time>
      </trkpt>
      <trkpt lat="45.58837" lon="2.98755">
        <ele>740</ele>
        <time>2022-08-17T14:23:05Z</time>
      </trkpt>
      <trkpt lat="45.58835" lon="2.98769">
        <ele>740</ele>
        <time>2022-08-17T14:23:06Z</time>
      </trkpt>
      <trkpt lat="45.58834" lon="2.9879">
        <ele>740</ele>
        <time>2022-08-17T14:23:07Z</time>
      </trkpt>
      <trkpt lat="45.58834" lon="2.98797">
        <ele>736</ele>
        <time>2022-08-17T14:23:08Z</time>
      </trkpt>
      <trkpt lat="45.58835" lon="2.98811">
        <ele>736</ele>
        <time>2022-08-17T14:23:09Z</time>
      </trkpt>
      <trkpt lat="45.58837" lon="2.98825">
        <ele>736</ele>
        <time>2022-08-17T14:23:10Z</time>
      </trkpt>
      <trkpt lat="45.58838" lon="2.98839">
        <ele>736</ele>
        <time>2022-08-17T14:23:11Z</time>
      </trkpt>
      <trkpt lat="45.5884" lon="2.98852">
        <ele>736</ele>
        <time>2022-08-17T14:23:12Z</time>
      </trkpt>
      <trkpt lat="45.58841" lon="2.98866">
        <ele>736</ele>
        <time>2022-08-17T14:23:13Z</time>
      </trkpt>
      <trkpt lat="45.58841" lon="2.98879">
        <ele>736</ele>
        <time>2022-08-17T14:23:14Z</time>
      </trkpt>
      <trkpt lat="45.58841" lon="2.98892">
        <ele>736</ele>
        <time>2022-08-17T14:23:15Z</time>
      </trkpt>
      <trkpt lat="45.58839" lon="2.98905">
        <ele>736</ele>
        <time>2022-08-17T14:23:16Z</time>
      </trkpt>
      <trkpt lat="45.58836" lon="2.98917">
        <ele>736</ele>
        <time>2022-08-17T14:23:17Z</time>
      </trkpt>
      <trkpt lat="45.58833" lon="2.98928">
        <ele>733</ele>
        <time>2022-08-17T14:23:18Z</time>
      </trkpt>
      <trkpt lat="45.58825" lon="2.98947">
        <ele>733</ele>
        <time>2022-08-17T14:23:19Z</time>
      </trkpt>
      <trkpt lat="45.58821" lon="2.98955">
        <ele>733</ele>
        <time>2022-08-17T14:23:21Z</time>
      </trkpt>
      <trkpt lat="45.58816" lon="2.98963">
        <ele>733</ele>
        <time>2022-08-17T14:23:22Z</time>
      </trkpt>
      <trkpt lat="45.58812" lon="2.98971">
        <ele>733</ele>
        <time>2022-08-17T14:23:23Z</time>
      </trkpt>
      <trkpt lat="45.58808" lon="2.98979">
        <ele>733</ele>
        <time>2022-08-17T14:23:24Z</time>
      </trkpt>
      <trkpt lat="45.58804" lon="2.98987">
        <ele>733</ele>
        <time>2022-08-17T14:23:25Z</time>
      </trkpt>
      <trkpt lat="45.588" lon="2.98995">
        <ele>733</ele>
        <time>2022-08-17T14:23:26Z</time>
      </trkpt>
      <trkpt lat="45.58796" lon="2.99003">
        <ele>733</ele>
        <time>2022-08-17T14:23:27Z</time>
      </trkpt>
      <trkpt lat="45.58791" lon="2.99011">
        <ele>728</ele>
        <time>2022-08-17T14:23:28Z</time>
      </trkpt>
      <trkpt lat="45.58787" lon="2.99028">
        <ele>728</ele>
        <time>2022-08-17T14:23:29Z</time>
      </trkpt>
      <trkpt lat="45.58787" lon="2.99035">
        <ele>728</ele>
        <time>2022-08-17T14:23:30Z</time>
      </trkpt>
      <trkpt lat="45.58787" lon="2.99043">
        <ele>728</ele>
        <time>2022-08-17T14:23:31Z</time>
      </trkpt>
      <trkpt lat="45.58786" lon="2.99051">
        <ele>728</ele>
        <time>2022-08-17T14:23:32Z</time>
      </trkpt>
      <trkpt lat="45.58786" lon="2.99059">
        <ele>728</ele>
        <time>2022-08-17T14:23:33Z</time>
      </trkpt>
      <trkpt lat="45.58786" lon="2.99067">
        <ele>728</ele>
        <time>2022-08-17T14:23:34Z</time>
      </trkpt>
      <trkpt lat="45.58785" lon="2.99075">
        <ele>728</ele>
        <time>2022-08-17T14:23:35Z</time>
      </trkpt>
      <trkpt lat="45.58785" lon="2.99082">
        <ele>728</ele>
        <time>2022-08-17T14:23:37Z</time>
      </trkpt>
      <trkpt lat="45.58785" lon="2.9909">
        <ele>725</ele>
        <time>2022-08-17T14:23:38Z</time>
      </trkpt>
      <trkpt lat="45.58787" lon="2.991">
        <ele>725</ele>
        <time>2022-08-17T14:23:39Z</time>
      </trkpt>
      <trkpt lat="45.58789" lon="2.99106">
        <ele>725</ele>
        <time>2022-08-17T14:23:42Z</time>
      </trkpt>
      <trkpt lat="45.58791" lon="2.99111">
        <ele>725</ele>
        <time>2022-08-17T14:23:45Z</time>
      </trkpt>
      <trkpt lat="45.58793" lon="2.99117">
        <ele>725</ele>
        <time>2022-08-17T14:23:47Z</time>
      </trkpt>
      <trkpt lat="45.58795" lon="2.99123">
        <ele>723</ele>
        <time>2022-08-17T14:23:48Z</time>
      </trkpt>
      <trkpt lat="45.58798" lon="2.99125">
        <ele>723</ele>
        <time>2022-08-17T14:23:49Z</time>
      </trkpt>
      <trkpt lat="45.58805" lon="2.99129">
        <ele>723</ele>
        <time>2022-08-17T14:23:51Z</time>
      </trkpt>
      <trkpt lat="45.58812" lon="2.99133">
        <ele>723</ele>
        <time>2022-08-17T14:23:53Z</time>
      </trkpt>
      <trkpt lat="45.58818" lon="2.99136">
        <ele>723</ele>
        <time>2022-08-17T14:23:55Z</time>
      </trkpt>
      <trkpt lat="45.58828" lon="2.99138">
        <ele>723</ele>
        <time>2022-08-17T14:23:58Z</time>
      </trkpt>
      <trkpt lat="45.58837" lon="2.99146">
        <ele>723</ele>
        <time>2022-08-17T14:24:01Z</time>
      </trkpt>
      <trkpt lat="45.58838" lon="2.99151">
        <ele>723</ele>
        <time>2022-08-17T14:24:04Z</time>
      </trkpt>
      <trkpt lat="45.58839" lon="2.99156">
        <ele>723</ele>
        <time>2022-08-17T14:24:07Z</time>
      </trkpt>
      <trkpt lat="45.5884" lon="2.9916">
        <ele>727</ele>
        <time>2022-08-17T14:24:08Z</time>
      </trkpt>
      <trkpt lat="45.58826" lon="2.99161">
        <ele>727</ele>
        <time>2022-08-17T14:24:12Z</time>
      </trkpt>
      <trkpt lat="45.58821" lon="2.9916">
        <ele>727</ele>
        <time>2022-08-17T14:24:15Z</time>
      </trkpt>
      <trkpt lat="45.58817" lon="2.99159">
        <ele>727</ele>
        <time>2022-08-17T14:24:17Z</time>
      </trkpt>
      <trkpt lat="45.58812" lon="2.99158">
        <ele>730</ele>
        <time>2022-08-17T14:24:18Z</time>
      </trkpt>
      <trkpt lat="45.58805" lon="2.99163">
        <ele>730</ele>
        <time>2022-08-17T14:24:19Z</time>
      </trkpt>
      <trkpt lat="45.58801" lon="2.99167">
        <ele>730</ele>
        <time>2022-08-17T14:24:22Z</time>
      </trkpt>
      <trkpt lat="45.58797" lon="2.9917">
        <ele>730</ele>
        <time>2022-08-17T14:24:26Z</time>
      </trkpt>
      <trkpt lat="45.58793" lon="2.99174">
        <ele>732</ele>
        <time>2022-08-17T14:24:28Z</time>
      </trkpt>
      <trkpt lat="45.58785" lon="2.9918">
        <ele>732</ele>
        <time>2022-08-17T14:24:29Z</time>
      </trkpt>
      <trkpt lat="45.58778" lon="2.99185">
        <ele>732</ele>
        <time>2022-08-17T14:24:32Z</time>
      </trkpt>
      <trkpt lat="45.58771" lon="2.99192">
        <ele>732</ele>
        <time>2022-08-17T14:24:35Z</time>
      </trkpt>
      <trkpt lat="45.58766" lon="2.99201">
        <ele>732</ele>
        <time>2022-08-17T14:24:38Z</time>
      </trkpt>
      <trkpt lat="45.5876" lon="2.99217">
        <ele>732</ele>
        <time>2022-08-17T14:24:41Z</time>
      </trkpt>
      <trkpt lat="45.5876" lon="2.99222">
        <ele>732</ele>
        <time>2022-08-17T14:24:43Z</time>
      </trkpt>
      <trkpt lat="45.58759" lon="2.99227">
        <ele>732</ele>
        <time>2022-08-17T14:24:46Z</time>
      </trkpt>
      <trkpt lat="45.58758" lon="2.99233">
        <ele>734</ele>
        <time>2022-08-17T14:24:48Z</time>
      </trkpt>
      <trkpt lat="45.58761" lon="2.99254">
        <ele>734</ele>
        <time>2022-08-17T14:24:49Z</time>
      </trkpt>
      <trkpt lat="45.58763" lon="2.99263">
        <ele>734</ele>
        <time>2022-08-17T14:24:53Z</time>
      </trkpt>
      <trkpt lat="45.58764" lon="2.99272">
        <ele>734</ele>
        <time>2022-08-17T14:24:57Z</time>
      </trkpt>
      <trkpt lat="45.58765" lon="2.99281">
        <ele>737</ele>
        <time>2022-08-17T14:24:58Z</time>
      </trkpt>
      <trkpt lat="45.58766" lon="2.99293">
        <ele>737</ele>
        <time>2022-08-17T14:25:01Z</time>
      </trkpt>
      <trkpt lat="45.58767" lon="2.99309">
        <ele>737</ele>
        <time>2022-08-17T14:25:05Z</time>
      </trkpt>
      <trkpt lat="45.5877" lon="2.9932">
        <ele>740</ele>
        <time>2022-08-17T14:25:08Z</time>
      </trkpt>
      <trkpt lat="45.58778" lon="2.99331">
        <ele>740</ele>
        <time>2022-08-17T14:25:11Z</time>
      </trkpt>
      <trkpt lat="45.58781" lon="2.99333">
        <ele>740</ele>
        <time>2022-08-17T14:25:13Z</time>
      </trkpt>
      <trkpt lat="45.58785" lon="2.99334">
        <ele>740</ele>
        <time>2022-08-17T14:25:15Z</time>
      </trkpt>
      <trkpt lat="45.58788" lon="2.99336">
        <ele>740</ele>
        <time>2022-08-17T14:25:17Z</time>
      </trkpt>
      <trkpt lat="45.58792" lon="2.99338">
        <ele>741</ele>
        <time>2022-08-17T14:25:18Z</time>
      </trkpt>
      <trkpt lat="45.58799" lon="2.99337">
        <ele>741</ele>
        <time>2022-08-17T14:25:19Z</time>
      </trkpt>
      <trkpt lat="45.58804" lon="2.99336">
        <ele>741</ele>
        <time>2022-08-17T14:25:21Z</time>
      </trkpt>
      <trkpt lat="45.58809" lon="2.99335">
        <ele>741</ele>
        <time>2022-08-17T14:25:24Z</time>
      </trkpt>
      <trkpt lat="45.58814" lon="2.99334">
        <ele>741</ele>
        <time>2022-08-17T14:25:27Z</time>
      </trkpt>
      <trkpt lat="45.58819" lon="2.99333">
        <ele>743</ele>
        <time>2022-08-17T14:25:28Z</time>
      </trkpt>
      <trkpt lat="45.58829" lon="2.99332">
        <ele>743</ele>
        <time>2022-08-17T14:25:30Z</time>
      </trkpt>
      <trkpt lat="45.58834" lon="2.99332">
        <ele>743</ele>
        <time>2022-08-17T14:25:33Z</time>
      </trkpt>
      <trkpt lat="45.58839" lon="2.99332">
        <ele>743</ele>
        <time>2022-08-17T14:25:37Z</time>
      </trkpt>
      <trkpt lat="45.58844" lon="2.99332">
        <ele>745</ele>
        <time>2022-08-17T14:25:38Z</time>
      </trkpt>
      <trkpt lat="45.58853" lon="2.99337">
        <ele>745</ele>
        <time>2022-08-17T14:25:40Z</time>
      </trkpt>
      <trkpt lat="45.58856" lon="2.99341">
        <ele>745</ele>
        <time>2022-08-17T14:25:43Z</time>
      </trkpt>
      <trkpt lat="45.58858" lon="2.99345">
        <ele>745</ele>
        <time>2022-08-17T14:25:46Z</time>
      </trkpt>
      <trkpt lat="45.58861" lon="2.99349">
        <ele>746</ele>
        <time>2022-08-17T14:25:48Z</time>
      </trkpt>
      <trkpt lat="45.58866" lon="2.99357">
        <ele>746</ele>
        <time>2022-08-17T14:25:49Z</time>
      </trkpt>
      <trkpt lat="45.58871" lon="2.99365">
        <ele>746</ele>
        <time>2022-08-17T14:25:52Z</time>
      </trkpt>
      <trkpt lat="45.58877" lon="2.9937">
        <ele>746</ele>
        <time>2022-08-17T14:25:55Z</time>
      </trkpt>
      <trkpt lat="45.58883" lon="2.99373">
        <ele>751</ele>
        <time>2022-08-17T14:25:58Z</time>
      </trkpt>
      <trkpt lat="45.58891" lon="2.99372">
        <ele>751</ele>
        <time>2022-08-17T14:26:01Z</time>
      </trkpt>
      <trkpt lat="45.58895" lon="2.99369">
        <ele>751</ele>
        <time>2022-08-17T14:26:03Z</time>
      </trkpt>
      <trkpt lat="45.58899" lon="2.99365">
        <ele>751</ele>
        <time>2022-08-17T14:26:05Z</time>
      </trkpt>
      <trkpt lat="45.58903" lon="2.99355">
        <ele>753</ele>
        <time>2022-08-17T14:26:08Z</time>
      </trkpt>
      <trkpt lat="45.58902" lon="2.99339">
        <ele>753</ele>
        <time>2022-08-17T14:26:11Z</time>
      </trkpt>
      <trkpt lat="45.589" lon="2.99334">
        <ele>753</ele>
        <time>2022-08-17T14:26:14Z</time>
      </trkpt>
      <trkpt lat="45.58898" lon="2.99329">
        <ele>753</ele>
        <time>2022-08-17T14:26:17Z</time>
      </trkpt>
      <trkpt lat="45.58896" lon="2.99323">
        <ele>753</ele>
        <time>2022-08-17T14:26:18Z</time>
      </trkpt>
      <trkpt lat="45.5889" lon="2.99317">
        <ele>753</ele>
        <time>2022-08-17T14:26:19Z</time>
      </trkpt>
      <trkpt lat="45.58887" lon="2.99312">
        <ele>753</ele>
        <time>2022-08-17T14:26:22Z</time>
      </trkpt>
      <trkpt lat="45.58883" lon="2.99308">
        <ele>753</ele>
        <time>2022-08-17T14:26:25Z</time>
      </trkpt>
      <trkpt lat="45.58879" lon="2.99304">
        <ele>753</ele>
        <time>2022-08-17T14:26:27Z</time>
      </trkpt>
      <trkpt lat="45.58875" lon="2.993">
        <ele>754</ele>
        <time>2022-08-17T14:26:28Z</time>
      </trkpt>
      <trkpt lat="45.5887" lon="2.9929">
        <ele>754</ele>
        <time>2022-08-17T14:26:30Z</time>
      </trkpt>
      <trkpt lat="45.58869" lon="2.99284">
        <ele>754</ele>
        <time>2022-08-17T14:26:33Z</time>
      </trkpt>
      <trkpt lat="45.58868" lon="2.99278">
        <ele>754</ele>
        <time>2022-08-17T14:26:35Z</time>
      </trkpt>
      <trkpt lat="45.58867" lon="2.99273">
        <ele>754</ele>
        <time>2022-08-17T14:26:37Z</time>
      </trkpt>
      <trkpt lat="45.58866" lon="2.99267">
        <ele>756</ele>
        <time>2022-08-17T14:26:38Z</time>
      </trkpt>
      <trkpt lat="45.58873" lon="2.99261">
        <ele>756</ele>
        <time>2022-08-17T14:26:40Z</time>
      </trkpt>
      <trkpt lat="45.58878" lon="2.99262">
        <ele>756</ele>
        <time>2022-08-17T14:26:42Z</time>
      </trkpt>
      <trkpt lat="45.58882" lon="2.99262">
        <ele>756</ele>
        <time>2022-08-17T14:26:44Z</time>
      </trkpt>
      <trkpt lat="45.58886" lon="2.99263">
        <ele>756</ele>
        <time>2022-08-17T14:26:47Z</time>
      </trkpt>
      <trkpt lat="45.5889" lon="2.99263">
        <ele>759</ele>
        <time>2022-08-17T14:26:48Z</time>
      </trkpt>
      <trkpt lat="45.58898" lon="2.99268">
        <ele>759</ele>
        <time>2022-08-17T14:26:50Z</time>
      </trkpt>
      <trkpt lat="45.58902" lon="2.9927">
        <ele>759</ele>
        <time>2022-08-17T14:26:51Z</time>
      </trkpt>
      <trkpt lat="45.58907" lon="2.99273">
        <ele>759</ele>
        <time>2022-08-17T14:26:54Z</time>
      </trkpt>
      <trkpt lat="45.58912" lon="2.99276">
        <ele>759</ele>
        <time>2022-08-17T14:26:57Z</time>
      </trkpt>
      <trkpt lat="45.58916" lon="2.99278">
        <ele>760</ele>
        <time>2022-08-17T14:26:58Z</time>
      </trkpt>
      <trkpt lat="45.58922" lon="2.99281">
        <ele>760</ele>
        <time>2022-08-17T14:26:59Z</time>
      </trkpt>
      <trkpt lat="45.58925" lon="2.99283">
        <ele>760</ele>
        <time>2022-08-17T14:27:01Z</time>
      </trkpt>
      <trkpt lat="45.58929" lon="2.99285">
        <ele>760</ele>
        <time>2022-08-17T14:27:03Z</time>
      </trkpt>
      <trkpt lat="45.58932" lon="2.99287">
        <ele>760</ele>
        <time>2022-08-17T14:27:06Z</time>
      </trkpt>
      <trkpt lat="45.58935" lon="2.99289">
        <ele>763</ele>
        <time>2022-08-17T14:27:08Z</time>
      </trkpt>
      <trkpt lat="45.58942" lon="2.99291">
        <ele>763</ele>
        <time>2022-08-17T14:27:09Z</time>
      </trkpt>
      <trkpt lat="45.58948" lon="2.99294">
        <ele>763</ele>
        <time>2022-08-17T14:27:12Z</time>
      </trkpt>
      <trkpt lat="45.58954" lon="2.99299">
        <ele>763</ele>
        <time>2022-08-17T14:27:15Z</time>
      </trkpt>
      <trkpt lat="45.5896" lon="2.99303">
        <ele>766</ele>
        <time>2022-08-17T14:27:18Z</time>
      </trkpt>
      <trkpt lat="45.58971" lon="2.9931">
        <ele>766</ele>
        <time>2022-08-17T14:27:21Z</time>
      </trkpt>
      <trkpt lat="45.58974" lon="2.99313">
        <ele>766</ele>
        <time>2022-08-17T14:27:24Z</time>
      </trkpt>
      <trkpt lat="45.58978" lon="2.99316">
        <ele>766</ele>
        <time>2022-08-17T14:27:27Z</time>
      </trkpt>
      <trkpt lat="45.58982" lon="2.99319">
        <ele>768</ele>
        <time>2022-08-17T14:27:28Z</time>
      </trkpt>
      <trkpt lat="45.58989" lon="2.99328">
        <ele>768</ele>
        <time>2022-08-17T14:27:30Z</time>
      </trkpt>
      <trkpt lat="45.58992" lon="2.99332">
        <ele>768</ele>
        <time>2022-08-17T14:27:33Z</time>
      </trkpt>
      <trkpt lat="45.58995" lon="2.99336">
        <ele>768</ele>
        <time>2022-08-17T14:27:37Z</time>
      </trkpt>
      <trkpt lat="45.58998" lon="2.9934">
        <ele>769</ele>
        <time>2022-08-17T14:27:38Z</time>
      </trkpt>
      <trkpt lat="45.59006" lon="2.99348">
        <ele>769</ele>
        <time>2022-08-17T14:27:41Z</time>
      </trkpt>
      <trkpt lat="45.59009" lon="2.99351">
        <ele>769</ele>
        <time>2022-08-17T14:27:48Z</time>
      </trkpt>
      <trkpt lat="45.59013" lon="2.99355">
        <ele>769</ele>
        <time>2022-08-17T14:27:49Z</time>
      </trkpt>
      <trkpt lat="45.59016" lon="2.99359">
        <ele>769</ele>
        <time>2022-08-17T14:27:51Z</time>
      </trkpt>
      <trkpt lat="45.5902" lon="2.99362">
        <ele>769</ele>
        <time>2022-08-17T14:27:53Z</time>
      </trkpt>
      <trkpt lat="45.59023" lon="2.99366">
        <ele>769</ele>
        <time>2022-08-17T14:27:55Z</time>
      </trkpt>
      <trkpt lat="45.59026" lon="2.9937">
        <ele>769</ele>
        <time>2022-08-17T14:27:57Z</time>
      </trkpt>
      <trkpt lat="45.5903" lon="2.99373">
        <ele>769</ele>
        <time>2022-08-17T14:27:58Z</time>
      </trkpt>
      <trkpt lat="45.59036" lon="2.99379">
        <ele>769</ele>
        <time>2022-08-17T14:27:59Z</time>
      </trkpt>
      <trkpt lat="45.5904" lon="2.99382">
        <ele>769</ele>
        <time>2022-08-17T14:28:01Z</time>
      </trkpt>
      <trkpt lat="45.59043" lon="2.99385">
        <ele>769</ele>
        <time>2022-08-17T14:28:03Z</time>
      </trkpt>
      <trkpt lat="45.59047" lon="2.99388">
        <ele>769</ele>
        <time>2022-08-17T14:28:05Z</time>
      </trkpt>
      <trkpt lat="45.59051" lon="2.99392">
        <ele>769</ele>
        <time>2022-08-17T14:28:07Z</time>
      </trkpt>
      <trkpt lat="45.59054" lon="2.99395">
        <ele>771</ele>
        <time>2022-08-17T14:28:08Z</time>
      </trkpt>
      <trkpt lat="45.59061" lon="2.99399">
        <ele>771</ele>
        <time>2022-08-17T14:28:09Z</time>
      </trkpt>
      <trkpt lat="45.59065" lon="2.99401">
        <ele>771</ele>
        <time>2022-08-17T14:28:11Z</time>
      </trkpt>
      <trkpt lat="45.59069" lon="2.99403">
        <ele>771</ele>
        <time>2022-08-17T14:28:13Z</time>
      </trkpt>
      <trkpt lat="45.59072" lon="2.99406">
        <ele>771</ele>
        <time>2022-08-17T14:28:15Z</time>
      </trkpt>
      <trkpt lat="45.59076" lon="2.99408">
        <ele>771</ele>
        <time>2022-08-17T14:28:17Z</time>
      </trkpt>
      <trkpt lat="45.5908" lon="2.9941">
        <ele>772</ele>
        <time>2022-08-17T14:28:18Z</time>
      </trkpt>
      <trkpt lat="45.59087" lon="2.99409">
        <ele>772</ele>
        <time>2022-08-17T14:28:19Z</time>
      </trkpt>
      <trkpt lat="45.59091" lon="2.99407">
        <ele>772</ele>
        <time>2022-08-17T14:28:21Z</time>
      </trkpt>
      <trkpt lat="45.59096" lon="2.99406">
        <ele>772</ele>
        <time>2022-08-17T14:28:23Z</time>
      </trkpt>
      <trkpt lat="45.591" lon="2.99404">
        <ele>772</ele>
        <time>2022-08-17T14:28:25Z</time>
      </trkpt>
      <trkpt lat="45.59104" lon="2.99402">
        <ele>772</ele>
        <time>2022-08-17T14:28:27Z</time>
      </trkpt>
      <trkpt lat="45.59108" lon="2.99401">
        <ele>774</ele>
        <time>2022-08-17T14:28:28Z</time>
      </trkpt>
      <trkpt lat="45.59115" lon="2.99396">
        <ele>774</ele>
        <time>2022-08-17T14:28:29Z</time>
      </trkpt>
      <trkpt lat="45.59119" lon="2.99394">
        <ele>774</ele>
        <time>2022-08-17T14:28:31Z</time>
      </trkpt>
      <trkpt lat="45.59123" lon="2.99391">
        <ele>774</ele>
        <time>2022-08-17T14:28:33Z</time>
      </trkpt>
      <trkpt lat="45.59126" lon="2.99388">
        <ele>774</ele>
        <time>2022-08-17T14:28:35Z</time>
      </trkpt>
      <trkpt lat="45.5913" lon="2.99386">
        <ele>774</ele>
        <time>2022-08-17T14:28:37Z</time>
      </trkpt>
      <trkpt lat="45.59134" lon="2.99383">
        <ele>775</ele>
        <time>2022-08-17T14:28:38Z</time>
      </trkpt>
      <trkpt lat="45.5914" lon="2.99377">
        <ele>775</ele>
        <time>2022-08-17T14:28:39Z</time>
      </trkpt>
      <trkpt lat="45.59143" lon="2.99373">
        <ele>775</ele>
        <time>2022-08-17T14:28:41Z</time>
      </trkpt>
      <trkpt lat="45.59146" lon="2.9937">
        <ele>775</ele>
        <time>2022-08-17T14:28:43Z</time>
      </trkpt>
      <trkpt lat="45.59149" lon="2.99366">
        <ele>775</ele>
        <time>2022-08-17T14:28:46Z</time>
      </trkpt>
      <trkpt lat="45.59153" lon="2.99363">
        <ele>780</ele>
        <time>2022-08-17T14:28:48Z</time>
      </trkpt>
      <trkpt lat="45.59162" lon="2.99351">
        <ele>780</ele>
        <time>2022-08-17T14:28:49Z</time>
      </trkpt>
      <trkpt lat="45.59166" lon="2.99348">
        <ele>780</ele>
        <time>2022-08-17T14:28:51Z</time>
      </trkpt>
      <trkpt lat="45.59169" lon="2.99344">
        <ele>780</ele>
        <time>2022-08-17T14:28:53Z</time>
      </trkpt>
      <trkpt lat="45.59172" lon="2.99341">
        <ele>780</ele>
        <time>2022-08-17T14:28:55Z</time>
      </trkpt>
      <trkpt lat="45.59176" lon="2.99338">
        <ele>780</ele>
        <time>2022-08-17T14:28:57Z</time>
      </trkpt>
      <trkpt lat="45.59179" lon="2.99334">
        <ele>783</ele>
        <time>2022-08-17T14:28:58Z</time>
      </trkpt>
      <trkpt lat="45.59184" lon="2.99328">
        <ele>783</ele>
        <time>2022-08-17T14:28:59Z</time>
      </trkpt>
      <trkpt lat="45.59188" lon="2.99324">
        <ele>783</ele>
        <time>2022-08-17T14:29:01Z</time>
      </trkpt>
      <trkpt lat="45.59191" lon="2.99321">
        <ele>783</ele>
        <time>2022-08-17T14:29:03Z</time>
      </trkpt>
      <trkpt lat="45.59194" lon="2.99317">
        <ele>783</ele>
        <time>2022-08-17T14:29:05Z</time>
      </trkpt>
      <trkpt lat="45.59197" lon="2.99313">
        <ele>783</ele>
        <time>2022-08-17T14:29:07Z</time>
      </trkpt>
      <trkpt lat="45.592" lon="2.99309">
        <ele>784</ele>
        <time>2022-08-17T14:29:08Z</time>
      </trkpt>
      <trkpt lat="45.59202" lon="2.99306">
        <ele>784</ele>
        <time>2022-08-17T14:29:09Z</time>
      </trkpt>
      <trkpt lat="45.59206" lon="2.99301">
        <ele>784</ele>
        <time>2022-08-17T14:29:11Z</time>
      </trkpt>
      <trkpt lat="45.5921" lon="2.99297">
        <ele>784</ele>
        <time>2022-08-17T14:29:13Z</time>
      </trkpt>
      <trkpt lat="45.59214" lon="2.99292">
        <ele>784</ele>
        <time>2022-08-17T14:29:15Z</time>
      </trkpt>
      <trkpt lat="45.5922" lon="2.99286">
        <ele>785</ele>
        <time>2022-08-17T14:29:18Z</time>
      </trkpt>
      <trkpt lat="45.59229" lon="2.9928">
        <ele>785</ele>
        <time>2022-08-17T14:29:20Z</time>
      </trkpt>
      <trkpt lat="45.59233" lon="2.99278">
        <ele>785</ele>
        <time>2022-08-17T14:29:22Z</time>
      </trkpt>
      <trkpt lat="45.59237" lon="2.99276">
        <ele>785</ele>
        <time>2022-08-17T14:29:24Z</time>
      </trkpt>
      <trkpt lat="45.59241" lon="2.99274">
        <ele>785</ele>
        <time>2022-08-17T14:29:26Z</time>
      </trkpt>
      <trkpt lat="45.59246" lon="2.99271">
        <ele>787</ele>
        <time>2022-08-17T14:29:28Z</time>
      </trkpt>
      <trkpt lat="45.59255" lon="2.99271">
        <ele>787</ele>
        <time>2022-08-17T14:29:30Z</time>
      </trkpt>
      <trkpt lat="45.59259" lon="2.99271">
        <ele>787</ele>
        <time>2022-08-17T14:29:32Z</time>
      </trkpt>
      <trkpt lat="45.59264" lon="2.99271">
        <ele>787</ele>
        <time>2022-08-17T14:29:34Z</time>
      </trkpt>
      <trkpt lat="45.59268" lon="2.99272">
        <ele>787</ele>
        <time>2022-08-17T14:29:36Z</time>
      </trkpt>
      <trkpt lat="45.59272" lon="2.99272">
        <ele>791</ele>
        <time>2022-08-17T14:29:38Z</time>
      </trkpt>
      <trkpt lat="45.59281" lon="2.99274">
        <ele>791</ele>
        <time>2022-08-17T14:29:40Z</time>
      </trkpt>
      <trkpt lat="45.59286" lon="2.99274">
        <ele>791</ele>
        <time>2022-08-17T14:29:42Z</time>
      </trkpt>
      <trkpt lat="45.5929" lon="2.99275">
        <ele>791</ele>
        <time>2022-08-17T14:29:45Z</time>
      </trkpt>
      <trkpt lat="45.59294" lon="2.99275">
        <ele>791</ele>
        <time>2022-08-17T14:29:46Z</time>
      </trkpt>
      <trkpt lat="45.59298" lon="2.99275">
        <ele>793</ele>
        <time>2022-08-17T14:29:48Z</time>
      </trkpt>
      <trkpt lat="45.5931" lon="2.99269">
        <ele>793</ele>
        <time>2022-08-17T14:29:51Z</time>
      </trkpt>
      <trkpt lat="45.59314" lon="2.99266">
        <ele>793</ele>
        <time>2022-08-17T14:29:53Z</time>
      </trkpt>
      <trkpt lat="45.59319" lon="2.99263">
        <ele>793</ele>
        <time>2022-08-17T14:29:56Z</time>
      </trkpt>
      <trkpt lat="45.59323" lon="2.9926">
        <ele>794</ele>
        <time>2022-08-17T14:29:58Z</time>
      </trkpt>
      <trkpt lat="45.5933" lon="2.99252">
        <ele>794</ele>
        <time>2022-08-17T14:30:00Z</time>
      </trkpt>
      <trkpt lat="45.59334" lon="2.99248">
        <ele>794</ele>
        <time>2022-08-17T14:30:02Z</time>
      </trkpt>
      <trkpt lat="45.59337" lon="2.99244">
        <ele>794</ele>
        <time>2022-08-17T14:30:04Z</time>
      </trkpt>
      <trkpt lat="45.5934" lon="2.9924">
        <ele>794</ele>
        <time>2022-08-17T14:30:06Z</time>
      </trkpt>
      <trkpt lat="45.59343" lon="2.99236">
        <ele>796</ele>
        <time>2022-08-17T14:30:08Z</time>
      </trkpt>
      <trkpt lat="45.5935" lon="2.99227">
        <ele>796</ele>
        <time>2022-08-17T14:30:10Z</time>
      </trkpt>
      <trkpt lat="45.59354" lon="2.99223">
        <ele>796</ele>
        <time>2022-08-17T14:30:12Z</time>
      </trkpt>
      <trkpt lat="45.59357" lon="2.99218">
        <ele>796</ele>
        <time>2022-08-17T14:30:14Z</time>
      </trkpt>
      <trkpt lat="45.5936" lon="2.99214">
        <ele>796</ele>
        <time>2022-08-17T14:30:16Z</time>
      </trkpt>
      <trkpt lat="45.59363" lon="2.9921">
        <ele>797</ele>
        <time>2022-08-17T14:30:18Z</time>
      </trkpt>
      <trkpt lat="45.59371" lon="2.99201">
        <ele>797</ele>
        <time>2022-08-17T14:30:20Z</time>
      </trkpt>
      <trkpt lat="45.59374" lon="2.99197">
        <ele>797</ele>
        <time>2022-08-17T14:30:22Z</time>
      </trkpt>
      <trkpt lat="45.59378" lon="2.99194">
        <ele>797</ele>
        <time>2022-08-17T14:30:24Z</time>
      </trkpt>
      <trkpt lat="45.59381" lon="2.9919">
        <ele>797</ele>
        <time>2022-08-17T14:30:26Z</time>
      </trkpt>
      <trkpt lat="45.59385" lon="2.99186">
        <ele>799</ele>
        <time>2022-08-17T14:30:28Z</time>
      </trkpt>
      <trkpt lat="45.59394" lon="2.99185">
        <ele>799</ele>
        <time>2022-08-17T14:30:30Z</time>
      </trkpt>
      <trkpt lat="45.59398" lon="2.99186">
        <ele>799</ele>
        <time>2022-08-17T14:30:32Z</time>
      </trkpt>
      <trkpt lat="45.59402" lon="2.99188">
        <ele>799</ele>
        <time>2022-08-17T14:30:34Z</time>
      </trkpt>
      <trkpt lat="45.59406" lon="2.9919">
        <ele>799</ele>
        <time>2022-08-17T14:30:37Z</time>
      </trkpt>
      <trkpt lat="45.5941" lon="2.99191">
        <ele>801</ele>
        <time>2022-08-17T14:30:38Z</time>
      </trkpt>
      <trkpt lat="45.59414" lon="2.99203">
        <ele>801</ele>
        <time>2022-08-17T14:30:40Z</time>
      </trkpt>
      <trkpt lat="45.59414" lon="2.99209">
        <ele>801</ele>
        <time>2022-08-17T14:30:42Z</time>
      </trkpt>
      <trkpt lat="45.59413" lon="2.99215">
        <ele>801</ele>
        <time>2022-08-17T14:30:44Z</time>
      </trkpt>
      <trkpt lat="45.59413" lon="2.99221">
        <ele>801</ele>
        <time>2022-08-17T14:30:46Z</time>
      </trkpt>
      <trkpt lat="45.59413" lon="2.99228">
        <ele>805</ele>
        <time>2022-08-17T14:30:48Z</time>
      </trkpt>
      <trkpt lat="45.59401" lon="2.9924">
        <ele>805</ele>
        <time>2022-08-17T14:30:52Z</time>
      </trkpt>
      <trkpt lat="45.59397" lon="2.99244">
        <ele>805</ele>
        <time>2022-08-17T14:30:54Z</time>
      </trkpt>
      <trkpt lat="45.59394" lon="2.99247">
        <ele>805</ele>
        <time>2022-08-17T14:30:56Z</time>
      </trkpt>
      <trkpt lat="45.5939" lon="2.99251">
        <ele>805</ele>
        <time>2022-08-17T14:30:58Z</time>
      </trkpt>
      <trkpt lat="45.59385" lon="2.99265">
        <ele>805</ele>
        <time>2022-08-17T14:31:00Z</time>
      </trkpt>
      <trkpt lat="45.59383" lon="2.99272">
        <ele>805</ele>
        <time>2022-08-17T14:31:02Z</time>
      </trkpt>
      <trkpt lat="45.59382" lon="2.99279">
        <ele>805</ele>
        <time>2022-08-17T14:31:04Z</time>
      </trkpt>
      <trkpt lat="45.59381" lon="2.99286">
        <ele>805</ele>
        <time>2022-08-17T14:31:07Z</time>
      </trkpt>
      <trkpt lat="45.5938" lon="2.99293">
        <ele>806</ele>
        <time>2022-08-17T14:31:08Z</time>
      </trkpt>
      <trkpt lat="45.59379" lon="2.99304">
        <ele>806</ele>
        <time>2022-08-17T14:31:09Z</time>
      </trkpt>
      <trkpt lat="45.59378" lon="2.99311">
        <ele>806</ele>
        <time>2022-08-17T14:31:11Z</time>
      </trkpt>
      <trkpt lat="45.59378" lon="2.99318">
        <ele>806</ele>
        <time>2022-08-17T14:31:13Z</time>
      </trkpt>
      <trkpt lat="45.59377" lon="2.99324">
        <ele>806</ele>
        <time>2022-08-17T14:31:15Z</time>
      </trkpt>
      <trkpt lat="45.59376" lon="2.99331">
        <ele>806</ele>
        <time>2022-08-17T14:31:17Z</time>
      </trkpt>
      <trkpt lat="45.59376" lon="2.99338">
        <ele>807</ele>
        <time>2022-08-17T14:31:18Z</time>
      </trkpt>
      <trkpt lat="45.59375" lon="2.99349">
        <ele>807</ele>
        <time>2022-08-17T14:31:19Z</time>
      </trkpt>
      <trkpt lat="45.59375" lon="2.99356">
        <ele>807</ele>
        <time>2022-08-17T14:31:21Z</time>
      </trkpt>
      <trkpt lat="45.59375" lon="2.99363">
        <ele>807</ele>
        <time>2022-08-17T14:31:23Z</time>
      </trkpt>
      <trkpt lat="45.59374" lon="2.9937">
        <ele>807</ele>
        <time>2022-08-17T14:31:26Z</time>
      </trkpt>
      <trkpt lat="45.59374" lon="2.99377">
        <ele>809</ele>
        <time>2022-08-17T14:31:28Z</time>
      </trkpt>
      <trkpt lat="45.59373" lon="2.9939">
        <ele>809</ele>
        <time>2022-08-17T14:31:29Z</time>
      </trkpt>
      <trkpt lat="45.59373" lon="2.99404">
        <ele>809</ele>
        <time>2022-08-17T14:31:32Z</time>
      </trkpt>
      <trkpt lat="45.59372" lon="2.99417">
        <ele>809</ele>
        <time>2022-08-17T14:31:35Z</time>
      </trkpt>
      <trkpt lat="45.59371" lon="2.9943">
        <ele>813</ele>
        <time>2022-08-17T14:31:38Z</time>
      </trkpt>
      <trkpt lat="45.59369" lon="2.9945">
        <ele>813</ele>
        <time>2022-08-17T14:31:41Z</time>
      </trkpt>
      <trkpt lat="45.59369" lon="2.99457">
        <ele>813</ele>
        <time>2022-08-17T14:31:44Z</time>
      </trkpt>
      <trkpt lat="45.59368" lon="2.99464">
        <ele>813</ele>
        <time>2022-08-17T14:31:46Z</time>
      </trkpt>
      <trkpt lat="45.59368" lon="2.99471">
        <ele>815</ele>
        <time>2022-08-17T14:31:48Z</time>
      </trkpt>
      <trkpt lat="45.59366" lon="2.99485">
        <ele>815</ele>
        <time>2022-08-17T14:31:50Z</time>
      </trkpt>
      <trkpt lat="45.59366" lon="2.99491">
        <ele>815</ele>
        <time>2022-08-17T14:31:52Z</time>
      </trkpt>
      <trkpt lat="45.59365" lon="2.99497">
        <ele>815</ele>
        <time>2022-08-17T14:31:54Z</time>
      </trkpt>
      <trkpt lat="45.59365" lon="2.99503">
        <ele>815</ele>
        <time>2022-08-17T14:31:56Z</time>
      </trkpt>
      <trkpt lat="45.59364" lon="2.99509">
        <ele>817</ele>
        <time>2022-08-17T14:31:58Z</time>
      </trkpt>
      <trkpt lat="45.59362" lon="2.99524">
        <ele>817</ele>
        <time>2022-08-17T14:32:00Z</time>
      </trkpt>
      <trkpt lat="45.59361" lon="2.9953">
        <ele>817</ele>
        <time>2022-08-17T14:32:02Z</time>
      </trkpt>
      <trkpt lat="45.5936" lon="2.99536">
        <ele>817</ele>
        <time>2022-08-17T14:32:04Z</time>
      </trkpt>
      <trkpt lat="45.59359" lon="2.99542">
        <ele>817</ele>
        <time>2022-08-17T14:32:06Z</time>
      </trkpt>
      <trkpt lat="45.59358" lon="2.99549">
        <ele>819</ele>
        <time>2022-08-17T14:32:08Z</time>
      </trkpt>
      <trkpt lat="45.59356" lon="2.99561">
        <ele>819</ele>
        <time>2022-08-17T14:32:10Z</time>
      </trkpt>
      <trkpt lat="45.59355" lon="2.99565">
        <ele>819</ele>
        <time>2022-08-17T14:32:12Z</time>
      </trkpt>
      <trkpt lat="45.59354" lon="2.9957">
        <ele>819</ele>
        <time>2022-08-17T14:32:14Z</time>
      </trkpt>
      <trkpt lat="45.59353" lon="2.99574">
        <ele>819</ele>
        <time>2022-08-17T14:32:16Z</time>
      </trkpt>
      <trkpt lat="45.59352" lon="2.99578">
        <ele>820</ele>
        <time>2022-08-17T14:32:18Z</time>
      </trkpt>
      <trkpt lat="45.59349" lon="2.99588">
        <ele>820</ele>
        <time>2022-08-17T14:32:19Z</time>
      </trkpt>
      <trkpt lat="45.59346" lon="2.99599">
        <ele>820</ele>
        <time>2022-08-17T14:32:22Z</time>
      </trkpt>
      <trkpt lat="45.59342" lon="2.9961">
        <ele>820</ele>
        <time>2022-08-17T14:32:25Z</time>
      </trkpt>
      <trkpt lat="45.59338" lon="2.99621">
        <ele>822</ele>
        <time>2022-08-17T14:32:28Z</time>
      </trkpt>
      <trkpt lat="45.59331" lon="2.99638">
        <ele>822</ele>
        <time>2022-08-17T14:32:31Z</time>
      </trkpt>
      <trkpt lat="45.5933" lon="2.99644">
        <ele>822</ele>
        <time>2022-08-17T14:32:34Z</time>
      </trkpt>
      <trkpt lat="45.59328" lon="2.9965">
        <ele>822</ele>
        <time>2022-08-17T14:32:37Z</time>
      </trkpt>
      <trkpt lat="45.59326" lon="2.99656">
        <ele>826</ele>
        <time>2022-08-17T14:32:38Z</time>
      </trkpt>
      <trkpt lat="45.59324" lon="2.99669">
        <ele>826</ele>
        <time>2022-08-17T14:32:40Z</time>
      </trkpt>
      <trkpt lat="45.59323" lon="2.99676">
        <ele>826</ele>
        <time>2022-08-17T14:32:43Z</time>
      </trkpt>
      <trkpt lat="45.59322" lon="2.99682">
        <ele>826</ele>
        <time>2022-08-17T14:32:45Z</time>
      </trkpt>
      <trkpt lat="45.59322" lon="2.99688">
        <ele>826</ele>
        <time>2022-08-17T14:32:47Z</time>
      </trkpt>
      <trkpt lat="45.59321" lon="2.99695">
        <ele>828</ele>
        <time>2022-08-17T14:32:48Z</time>
      </trkpt>
      <trkpt lat="45.59321" lon="2.99708">
        <ele>828</ele>
        <time>2022-08-17T14:32:50Z</time>
      </trkpt>
      <trkpt lat="45.59321" lon="2.99714">
        <ele>828</ele>
        <time>2022-08-17T14:32:53Z</time>
      </trkpt>
      <trkpt lat="45.5932" lon="2.9972">
        <ele>828</ele>
        <time>2022-08-17T14:32:56Z</time>
      </trkpt>
      <trkpt lat="45.5932" lon="2.99725">
        <ele>829</ele>
        <time>2022-08-17T14:32:58Z</time>
      </trkpt>
      <trkpt lat="45.5932" lon="2.99737">
        <ele>829</ele>
        <time>2022-08-17T14:32:59Z</time>
      </trkpt>
      <trkpt lat="45.5932" lon="2.99748">
        <ele>829</ele>
        <time>2022-08-17T14:33:02Z</time>
      </trkpt>
      <trkpt lat="45.59319" lon="2.99759">
        <ele>829</ele>
        <time>2022-08-17T14:33:05Z</time>
      </trkpt>
      <trkpt lat="45.59319" lon="2.9977">
        <ele>830</ele>
        <time>2022-08-17T14:33:08Z</time>
      </trkpt>
      <trkpt lat="45.59321" lon="2.99788">
        <ele>830</ele>
        <time>2022-08-17T14:33:11Z</time>
      </trkpt>
      <trkpt lat="45.59321" lon="2.99795">
        <ele>830</ele>
        <time>2022-08-17T14:33:13Z</time>
      </trkpt>
      <trkpt lat="45.59322" lon="2.99801">
        <ele>830</ele>
        <time>2022-08-17T14:33:17Z</time>
      </trkpt>
      <trkpt lat="45.59322" lon="2.99808">
        <ele>832</ele>
        <time>2022-08-17T14:33:18Z</time>
      </trkpt>
      <trkpt lat="45.59324" lon="2.99821">
        <ele>832</ele>
        <time>2022-08-17T14:33:20Z</time>
      </trkpt>
      <trkpt lat="45.59325" lon="2.99826">
        <ele>832</ele>
        <time>2022-08-17T14:33:23Z</time>
      </trkpt>
      <trkpt lat="45.59326" lon="2.99832">
        <ele>832</ele>
        <time>2022-08-17T14:33:26Z</time>
      </trkpt>
      <trkpt lat="45.59327" lon="2.99837">
        <ele>836</ele>
        <time>2022-08-17T14:33:28Z</time>
      </trkpt>
      <trkpt lat="45.59327" lon="2.99854">
        <ele>836</ele>
        <time>2022-08-17T14:33:29Z</time>
      </trkpt>
      <trkpt lat="45.59326" lon="2.9986">
        <ele>836</ele>
        <time>2022-08-17T14:33:31Z</time>
      </trkpt>
      <trkpt lat="45.59325" lon="2.99865">
        <ele>836</ele>
        <time>2022-08-17T14:33:33Z</time>
      </trkpt>
      <trkpt lat="45.59324" lon="2.99871">
        <ele>836</ele>
        <time>2022-08-17T14:33:35Z</time>
      </trkpt>
      <trkpt lat="45.59323" lon="2.99877">
        <ele>836</ele>
        <time>2022-08-17T14:33:37Z</time>
      </trkpt>
      <trkpt lat="45.59323" lon="2.99882">
        <ele>836</ele>
        <time>2022-08-17T14:33:38Z</time>
      </trkpt>
      <trkpt lat="45.59317" lon="2.99888">
        <ele>836</ele>
        <time>2022-08-17T14:33:39Z</time>
      </trkpt>
      <trkpt lat="45.59313" lon="2.9989">
        <ele>836</ele>
        <time>2022-08-17T14:33:41Z</time>
      </trkpt>
      <trkpt lat="45.5931" lon="2.99892">
        <ele>836</ele>
        <time>2022-08-17T14:33:43Z</time>
      </trkpt>
      <trkpt lat="45.59306" lon="2.99894">
        <ele>836</ele>
        <time>2022-08-17T14:33:45Z</time>
      </trkpt>
      <trkpt lat="45.59302" lon="2.99896">
        <ele>836</ele>
        <time>2022-08-17T14:33:47Z</time>
      </trkpt>
      <trkpt lat="45.59298" lon="2.99898">
        <ele>838</ele>
        <time>2022-08-17T14:33:48Z</time>
      </trkpt>
      <trkpt lat="45.59292" lon="2.999">
        <ele>838</ele>
        <time>2022-08-17T14:33:49Z</time>
      </trkpt>
      <trkpt lat="45.59288" lon="2.99903">
        <ele>838</ele>
        <time>2022-08-17T14:33:51Z</time>
      </trkpt>
      <trkpt lat="45.59285" lon="2.99905">
        <ele>838</ele>
        <time>2022-08-17T14:33:53Z</time>
      </trkpt>
      <trkpt lat="45.59281" lon="2.99908">
        <ele>838</ele>
        <time>2022-08-17T14:33:55Z</time>
      </trkpt>
      <trkpt lat="45.59278" lon="2.9991">
        <ele>838</ele>
        <time>2022-08-17T14:33:57Z</time>
      </trkpt>
      <trkpt lat="45.59274" lon="2.99912">
        <ele>840</ele>
        <time>2022-08-17T14:33:58Z</time>
      </trkpt>
      <trkpt lat="45.59268" lon="2.99924">
        <ele>840</ele>
        <time>2022-08-17T14:34:00Z</time>
      </trkpt>
      <trkpt lat="45.59264" lon="2.9993">
        <ele>840</ele>
        <time>2022-08-17T14:34:03Z</time>
      </trkpt>
      <trkpt lat="45.59261" lon="2.99936">
        <ele>840</ele>
        <time>2022-08-17T14:34:06Z</time>
      </trkpt>
      <trkpt lat="45.59258" lon="2.99943">
        <ele>842</ele>
        <time>2022-08-17T14:34:08Z</time>
      </trkpt>
      <trkpt lat="45.59253" lon="2.99953">
        <ele>842</ele>
        <time>2022-08-17T14:34:10Z</time>
      </trkpt>
      <trkpt lat="45.59251" lon="2.99957">
        <ele>842</ele>
        <time>2022-08-17T14:34:12Z</time>
      </trkpt>
      <trkpt lat="45.59249" lon="2.99961">
        <ele>842</ele>
        <time>2022-08-17T14:34:14Z</time>
      </trkpt>
      <trkpt lat="45.59247" lon="2.99965">
        <ele>842</ele>
        <time>2022-08-17T14:34:16Z</time>
      </trkpt>
      <trkpt lat="45.59245" lon="2.99969">
        <ele>845</ele>
        <time>2022-08-17T14:34:18Z</time>
      </trkpt>
      <trkpt lat="45.59244" lon="2.99978">
        <ele>845</ele>
        <time>2022-08-17T14:34:19Z</time>
      </trkpt>
      <trkpt lat="45.59242" lon="2.99985">
        <ele>845</ele>
        <time>2022-08-17T14:34:21Z</time>
      </trkpt>
      <trkpt lat="45.5924" lon="2.99991">
        <ele>845</ele>
        <time>2022-08-17T14:34:25Z</time>
      </trkpt>
      <trkpt lat="45.5924" lon="2.99991">
        <ele>845</ele>
        <time>2022-08-17T14:34:28Z</time>
      </trkpt>
      <trkpt lat="45.59238" lon="2.99997">
        <ele>847</ele>
        <time>2022-08-17T14:34:38Z</time>
      </trkpt>
      <trkpt lat="45.59237" lon="3.00002">
        <ele>847</ele>
        <time>2022-08-17T14:34:48Z</time>
      </trkpt>
      <trkpt lat="45.59235" lon="3.00008">
        <ele>847</ele>
        <time>2022-08-17T14:34:58Z</time>
      </trkpt>
      <trkpt lat="45.59234" lon="3.00013">
        <ele>846</ele>
        <time>2022-08-17T14:35:08Z</time>
      </trkpt>
      <trkpt lat="45.59232" lon="3.00019">
        <ele>846</ele>
        <time>2022-08-17T14:35:12Z</time>
      </trkpt>
      <trkpt lat="45.59231" lon="3.00025">
        <ele>846</ele>
        <time>2022-08-17T14:35:15Z</time>
      </trkpt>
      <trkpt lat="45.5923" lon="3.0003">
        <ele>846</ele>
        <time>2022-08-17T14:35:17Z</time>
      </trkpt>
      <trkpt lat="45.59228" lon="3.00036">
        <ele>848</ele>
        <time>2022-08-17T14:35:18Z</time>
      </trkpt>
      <trkpt lat="45.59225" lon="3.00045">
        <ele>848</ele>
        <time>2022-08-17T14:35:19Z</time>
      </trkpt>
      <trkpt lat="45.59224" lon="3.0005">
        <ele>848</ele>
        <time>2022-08-17T14:35:21Z</time>
      </trkpt>
      <trkpt lat="45.59222" lon="3.00055">
        <ele>848</ele>
        <time>2022-08-17T14:35:23Z</time>
      </trkpt>
      <trkpt lat="45.5922" lon="3.0006">
        <ele>848</ele>
        <time>2022-08-17T14:35:25Z</time>
      </trkpt>
      <trkpt lat="45.59219" lon="3.00066">
        <ele>848</ele>
        <time>2022-08-17T14:35:27Z</time>
      </trkpt>
      <trkpt lat="45.59217" lon="3.00071">
        <ele>850</ele>
        <time>2022-08-17T14:35:28Z</time>
      </trkpt>
      <trkpt lat="45.59213" lon="3.00079">
        <ele>850</ele>
        <time>2022-08-17T14:35:29Z</time>
      </trkpt>
      <trkpt lat="45.59211" lon="3.00084">
        <ele>850</ele>
        <time>2022-08-17T14:35:31Z</time>
      </trkpt>
      <trkpt lat="45.59208" lon="3.00088">
        <ele>850</ele>
        <time>2022-08-17T14:35:33Z</time>
      </trkpt>
      <trkpt lat="45.59205" lon="3.00093">
        <ele>850</ele>
        <time>2022-08-17T14:35:35Z</time>
      </trkpt>
      <trkpt lat="45.59203" lon="3.00097">
        <ele>850</ele>
        <time>2022-08-17T14:35:37Z</time>
      </trkpt>
      <trkpt lat="45.592" lon="3.00102">
        <ele>853</ele>
        <time>2022-08-17T14:35:38Z</time>
      </trkpt>
      <trkpt lat="45.59196" lon="3.00108">
        <ele>853</ele>
        <time>2022-08-17T14:35:40Z</time>
      </trkpt>
      <trkpt lat="45.59192" lon="3.00113">
        <ele>853</ele>
        <time>2022-08-17T14:35:42Z</time>
      </trkpt>
      <trkpt lat="45.59185" lon="3.0012">
        <ele>853</ele>
        <time>2022-08-17T14:35:45Z</time>
      </trkpt>
      <trkpt lat="45.59179" lon="3.00127">
        <ele>854</ele>
        <time>2022-08-17T14:35:48Z</time>
      </trkpt>
      <trkpt lat="45.5917" lon="3.0014">
        <ele>854</ele>
        <time>2022-08-17T14:35:51Z</time>
      </trkpt>
      <trkpt lat="45.59167" lon="3.00145">
        <ele>854</ele>
        <time>2022-08-17T14:35:55Z</time>
      </trkpt>
      <trkpt lat="45.59164" lon="3.0015">
        <ele>854</ele>
        <time>2022-08-17T14:35:57Z</time>
      </trkpt>
      <trkpt lat="45.59161" lon="3.00155">
        <ele>856</ele>
        <time>2022-08-17T14:35:58Z</time>
      </trkpt>
      <trkpt lat="45.59159" lon="3.00164">
        <ele>856</ele>
        <time>2022-08-17T14:35:59Z</time>
      </trkpt>
      <trkpt lat="45.59158" lon="3.0017">
        <ele>856</ele>
        <time>2022-08-17T14:36:01Z</time>
      </trkpt>
      <trkpt lat="45.59157" lon="3.00175">
        <ele>856</ele>
        <time>2022-08-17T14:36:03Z</time>
      </trkpt>
      <trkpt lat="45.59156" lon="3.00181">
        <ele>856</ele>
        <time>2022-08-17T14:36:05Z</time>
      </trkpt>
      <trkpt lat="45.59155" lon="3.00186">
        <ele>856</ele>
        <time>2022-08-17T14:36:07Z</time>
      </trkpt>
      <trkpt lat="45.59155" lon="3.00192">
        <ele>858</ele>
        <time>2022-08-17T14:36:08Z</time>
      </trkpt>
      <trkpt lat="45.59152" lon="3.00202">
        <ele>858</ele>
        <time>2022-08-17T14:36:09Z</time>
      </trkpt>
      <trkpt lat="45.5915" lon="3.00208">
        <ele>858</ele>
        <time>2022-08-17T14:36:11Z</time>
      </trkpt>
      <trkpt lat="45.59148" lon="3.00214">
        <ele>858</ele>
        <time>2022-08-17T14:36:14Z</time>
      </trkpt>
      <trkpt lat="45.59146" lon="3.0022">
        <ele>858</ele>
        <time>2022-08-17T14:36:17Z</time>
      </trkpt>
      <trkpt lat="45.59144" lon="3.00226">
        <ele>859</ele>
        <time>2022-08-17T14:36:18Z</time>
      </trkpt>
      <trkpt lat="45.5914" lon="3.00235">
        <ele>859</ele>
        <time>2022-08-17T14:36:19Z</time>
      </trkpt>
      <trkpt lat="45.59138" lon="3.0024">
        <ele>859</ele>
        <time>2022-08-17T14:36:22Z</time>
      </trkpt>
      <trkpt lat="45.59135" lon="3.00246">
        <ele>859</ele>
        <time>2022-08-17T14:36:25Z</time>
      </trkpt>
      <trkpt lat="45.59132" lon="3.00251">
        <ele>859</ele>
        <time>2022-08-17T14:36:27Z</time>
      </trkpt>
      <trkpt lat="45.5913" lon="3.00257">
        <ele>861</ele>
        <time>2022-08-17T14:36:28Z</time>
      </trkpt>
      <trkpt lat="45.59127" lon="3.00265">
        <ele>861</ele>
        <time>2022-08-17T14:36:29Z</time>
      </trkpt>
      <trkpt lat="45.59125" lon="3.0027">
        <ele>861</ele>
        <time>2022-08-17T14:36:31Z</time>
      </trkpt>
      <trkpt lat="45.59124" lon="3.00275">
        <ele>861</ele>
        <time>2022-08-17T14:36:33Z</time>
      </trkpt>
      <trkpt lat="45.59123" lon="3.0028">
        <ele>861</ele>
        <time>2022-08-17T14:36:35Z</time>
      </trkpt>
      <trkpt lat="45.59121" lon="3.00285">
        <ele>861</ele>
        <time>2022-08-17T14:36:37Z</time>
      </trkpt>
      <trkpt lat="45.5912" lon="3.0029">
        <ele>864</ele>
        <time>2022-08-17T14:36:38Z</time>
      </trkpt>
      <trkpt lat="45.59117" lon="3.00299">
        <ele>864</ele>
        <time>2022-08-17T14:36:39Z</time>
      </trkpt>
      <trkpt lat="45.59116" lon="3.00304">
        <ele>864</ele>
        <time>2022-08-17T14:36:41Z</time>
      </trkpt>
      <trkpt lat="45.59114" lon="3.00309">
        <ele>864</ele>
        <time>2022-08-17T14:36:43Z</time>
      </trkpt>
      <trkpt lat="45.59112" lon="3.00314">
        <ele>864</ele>
        <time>2022-08-17T14:36:45Z</time>
      </trkpt>
      <trkpt lat="45.59111" lon="3.00319">
        <ele>864</ele>
        <time>2022-08-17T14:36:47Z</time>
      </trkpt>
      <trkpt lat="45.59109" lon="3.00324">
        <ele>866</ele>
        <time>2022-08-17T14:36:48Z</time>
      </trkpt>
      <trkpt lat="45.59108" lon="3.00327">
        <ele>866</ele>
        <time>2022-08-17T14:36:49Z</time>
      </trkpt>
      <trkpt lat="45.59105" lon="3.00333">
        <ele>866</ele>
        <time>2022-08-17T14:36:51Z</time>
      </trkpt>
      <trkpt lat="45.59098" lon="3.00343">
        <ele>866</ele>
        <time>2022-08-17T14:36:55Z</time>
      </trkpt>
      <trkpt lat="45.59093" lon="3.00349">
        <ele>867</ele>
        <time>2022-08-17T14:36:58Z</time>
      </trkpt>
      <trkpt lat="45.59083" lon="3.00358">
        <ele>867</ele>
        <time>2022-08-17T14:37:01Z</time>
      </trkpt>
      <trkpt lat="45.59079" lon="3.00361">
        <ele>867</ele>
        <time>2022-08-17T14:37:04Z</time>
      </trkpt>
      <trkpt lat="45.59075" lon="3.00364">
        <ele>867</ele>
        <time>2022-08-17T14:37:07Z</time>
      </trkpt>
      <trkpt lat="45.59071" lon="3.00367">
        <ele>869</ele>
        <time>2022-08-17T14:37:08Z</time>
      </trkpt>
      <trkpt lat="45.59063" lon="3.00372">
        <ele>869</ele>
        <time>2022-08-17T14:37:10Z</time>
      </trkpt>
      <trkpt lat="45.59059" lon="3.00375">
        <ele>869</ele>
        <time>2022-08-17T14:37:13Z</time>
      </trkpt>
      <trkpt lat="45.59056" lon="3.00378">
        <ele>869</ele>
        <time>2022-08-17T14:37:16Z</time>
      </trkpt>
      <trkpt lat="45.59052" lon="3.0038">
        <ele>871</ele>
        <time>2022-08-17T14:37:18Z</time>
      </trkpt>
      <trkpt lat="45.59046" lon="3.00386">
        <ele>871</ele>
        <time>2022-08-17T14:37:19Z</time>
      </trkpt>
      <trkpt lat="45.59038" lon="3.00396">
        <ele>871</ele>
        <time>2022-08-17T14:37:23Z</time>
      </trkpt>
      <trkpt lat="45.59034" lon="3.00401">
        <ele>871</ele>
        <time>2022-08-17T14:37:25Z</time>
      </trkpt>
      <trkpt lat="45.59029" lon="3.00411">
        <ele>873</ele>
        <time>2022-08-17T14:37:28Z</time>
      </trkpt>
      <trkpt lat="45.59027" lon="3.00417">
        <ele>873</ele>
        <time>2022-08-17T14:37:30Z</time>
      </trkpt>
      <trkpt lat="45.59025" lon="3.00424">
        <ele>873</ele>
        <time>2022-08-17T14:37:32Z</time>
      </trkpt>
      <trkpt lat="45.59024" lon="3.00435">
        <ele>873</ele>
        <time>2022-08-17T14:37:35Z</time>
      </trkpt>
      <trkpt lat="45.59023" lon="3.00446">
        <ele>875</ele>
        <time>2022-08-17T14:37:38Z</time>
      </trkpt>
      <trkpt lat="45.5902" lon="3.00459">
        <ele>875</ele>
        <time>2022-08-17T14:37:40Z</time>
      </trkpt>
      <trkpt lat="45.59019" lon="3.00464">
        <ele>875</ele>
        <time>2022-08-17T14:37:43Z</time>
      </trkpt>
      <trkpt lat="45.59017" lon="3.0047">
        <ele>875</ele>
        <time>2022-08-17T14:37:45Z</time>
      </trkpt>
      <trkpt lat="45.59016" lon="3.00475">
        <ele>875</ele>
        <time>2022-08-17T14:37:47Z</time>
      </trkpt>
      <trkpt lat="45.59014" lon="3.00481">
        <ele>876</ele>
        <time>2022-08-17T14:37:48Z</time>
      </trkpt>
      <trkpt lat="45.5901" lon="3.00488">
        <ele>876</ele>
        <time>2022-08-17T14:37:49Z</time>
      </trkpt>
      <trkpt lat="45.59007" lon="3.00493">
        <ele>876</ele>
        <time>2022-08-17T14:37:51Z</time>
      </trkpt>
      <trkpt lat="45.59004" lon="3.00497">
        <ele>876</ele>
        <time>2022-08-17T14:37:53Z</time>
      </trkpt>
      <trkpt lat="45.59001" lon="3.00501">
        <ele>876</ele>
        <time>2022-08-17T14:37:55Z</time>
      </trkpt>
      <trkpt lat="45.58999" lon="3.00505">
        <ele>876</ele>
        <time>2022-08-17T14:37:57Z</time>
      </trkpt>
      <trkpt lat="45.58996" lon="3.00509">
        <ele>878</ele>
        <time>2022-08-17T14:37:58Z</time>
      </trkpt>
      <trkpt lat="45.5899" lon="3.00516">
        <ele>878</ele>
        <time>2022-08-17T14:37:59Z</time>
      </trkpt>
      <trkpt lat="45.58986" lon="3.0052">
        <ele>878</ele>
        <time>2022-08-17T14:38:02Z</time>
      </trkpt>
      <trkpt lat="45.58982" lon="3.00524">
        <ele>878</ele>
        <time>2022-08-17T14:38:04Z</time>
      </trkpt>
      <trkpt lat="45.58978" lon="3.00527">
        <ele>878</ele>
        <time>2022-08-17T14:38:07Z</time>
      </trkpt>
      <trkpt lat="45.58974" lon="3.00531">
        <ele>880</ele>
        <time>2022-08-17T14:38:08Z</time>
      </trkpt>
      <trkpt lat="45.58968" lon="3.00543">
        <ele>880</ele>
        <time>2022-08-17T14:38:10Z</time>
      </trkpt>
      <trkpt lat="45.58966" lon="3.00549">
        <ele>880</ele>
        <time>2022-08-17T14:38:12Z</time>
      </trkpt>
      <trkpt lat="45.58963" lon="3.00554">
        <ele>880</ele>
        <time>2022-08-17T14:38:15Z</time>
      </trkpt>
      <trkpt lat="45.5896" lon="3.0056">
        <ele>880</ele>
        <time>2022-08-17T14:38:17Z</time>
      </trkpt>
      <trkpt lat="45.58958" lon="3.00566">
        <ele>882</ele>
        <time>2022-08-17T14:38:18Z</time>
      </trkpt>
      <trkpt lat="45.58953" lon="3.00579">
        <ele>882</ele>
        <time>2022-08-17T14:38:19Z</time>
      </trkpt>
      <trkpt lat="45.5895" lon="3.00588">
        <ele>882</ele>
        <time>2022-08-17T14:38:21Z</time>
      </trkpt>
      <trkpt lat="45.58948" lon="3.00596">
        <ele>882</ele>
        <time>2022-08-17T14:38:23Z</time>
      </trkpt>
      <trkpt lat="45.58945" lon="3.00605">
        <ele>882</ele>
        <time>2022-08-17T14:38:26Z</time>
      </trkpt>
      <trkpt lat="45.58942" lon="3.00614">
        <ele>882</ele>
        <time>2022-08-17T14:38:28Z</time>
      </trkpt>
      <trkpt lat="45.58937" lon="3.00632">
        <ele>882</ele>
        <time>2022-08-17T14:38:30Z</time>
      </trkpt>
      <trkpt lat="45.58935" lon="3.00641">
        <ele>882</ele>
        <time>2022-08-17T14:38:32Z</time>
      </trkpt>
      <trkpt lat="45.58933" lon="3.00649">
        <ele>882</ele>
        <time>2022-08-17T14:38:33Z</time>
      </trkpt>
      <trkpt lat="45.58931" lon="3.00658">
        <ele>882</ele>
        <time>2022-08-17T14:38:35Z</time>
      </trkpt>
      <trkpt lat="45.58929" lon="3.00666">
        <ele>882</ele>
        <time>2022-08-17T14:38:37Z</time>
      </trkpt>
      <trkpt lat="45.58927" lon="3.00675">
        <ele>882</ele>
        <time>2022-08-17T14:38:38Z</time>
      </trkpt>
      <trkpt lat="45.58926" lon="3.00692">
        <ele>882</ele>
        <time>2022-08-17T14:38:39Z</time>
      </trkpt>
      <trkpt lat="45.58926" lon="3.00701">
        <ele>882</ele>
        <time>2022-08-17T14:38:40Z</time>
      </trkpt>
      <trkpt lat="45.58926" lon="3.0071">
        <ele>882</ele>
        <time>2022-08-17T14:38:41Z</time>
      </trkpt>
      <trkpt lat="45.58926" lon="3.00719">
        <ele>882</ele>
        <time>2022-08-17T14:38:42Z</time>
      </trkpt>
      <trkpt lat="45.58926" lon="3.00728">
        <ele>882</ele>
        <time>2022-08-17T14:38:43Z</time>
      </trkpt>
      <trkpt lat="45.58926" lon="3.00737">
        <ele>882</ele>
        <time>2022-08-17T14:38:44Z</time>
      </trkpt>
      <trkpt lat="45.58926" lon="3.00746">
        <ele>882</ele>
        <time>2022-08-17T14:38:45Z</time>
      </trkpt>
      <trkpt lat="45.58926" lon="3.00755">
        <ele>882</ele>
        <time>2022-08-17T14:38:46Z</time>
      </trkpt>
      <trkpt lat="45.58926" lon="3.00764">
        <ele>882</ele>
        <time>2022-08-17T14:38:47Z</time>
      </trkpt>
      <trkpt lat="45.58926" lon="3.00774">
        <ele>881</ele>
        <time>2022-08-17T14:38:48Z</time>
      </trkpt>
      <trkpt lat="45.58932" lon="3.00795">
        <ele>881</ele>
        <time>2022-08-17T14:38:49Z</time>
      </trkpt>
      <trkpt lat="45.58936" lon="3.00804">
        <ele>881</ele>
        <time>2022-08-17T14:38:50Z</time>
      </trkpt>
      <trkpt lat="45.58941" lon="3.00814">
        <ele>881</ele>
        <time>2022-08-17T14:38:51Z</time>
      </trkpt>
      <trkpt lat="45.58945" lon="3.00824">
        <ele>881</ele>
        <time>2022-08-17T14:38:52Z</time>
      </trkpt>
      <trkpt lat="45.58949" lon="3.00834">
        <ele>881</ele>
        <time>2022-08-17T14:38:53Z</time>
      </trkpt>
      <trkpt lat="45.58953" lon="3.00844">
        <ele>881</ele>
        <time>2022-08-17T14:38:54Z</time>
      </trkpt>
      <trkpt lat="45.58957" lon="3.00853">
        <ele>881</ele>
        <time>2022-08-17T14:38:55Z</time>
      </trkpt>
      <trkpt lat="45.58961" lon="3.00863">
        <ele>881</ele>
        <time>2022-08-17T14:38:56Z</time>
      </trkpt>
      <trkpt lat="45.58965" lon="3.00873">
        <ele>881</ele>
        <time>2022-08-17T14:38:57Z</time>
      </trkpt>
      <trkpt lat="45.58969" lon="3.00883">
        <ele>876</ele>
        <time>2022-08-17T14:38:58Z</time>
      </trkpt>
      <trkpt lat="45.58975" lon="3.00894">
        <ele>876</ele>
        <time>2022-08-17T14:38:59Z</time>
      </trkpt>
      <trkpt lat="45.5898" lon="3.00906">
        <ele>876</ele>
        <time>2022-08-17T14:39:00Z</time>
      </trkpt>
      <trkpt lat="45.58985" lon="3.00918">
        <ele>876</ele>
        <time>2022-08-17T14:39:01Z</time>
      </trkpt>
      <trkpt lat="45.5899" lon="3.0093">
        <ele>876</ele>
        <time>2022-08-17T14:39:02Z</time>
      </trkpt>
      <trkpt lat="45.58995" lon="3.00943">
        <ele>876</ele>
        <time>2022-08-17T14:39:03Z</time>
      </trkpt>
      <trkpt lat="45.59" lon="3.00955">
        <ele>876</ele>
        <time>2022-08-17T14:39:04Z</time>
      </trkpt>
      <trkpt lat="45.59006" lon="3.00966">
        <ele>876</ele>
        <time>2022-08-17T14:39:05Z</time>
      </trkpt>
      <trkpt lat="45.59013" lon="3.00978">
        <ele>876</ele>
        <time>2022-08-17T14:39:06Z</time>
      </trkpt>
      <trkpt lat="45.5902" lon="3.00989">
        <ele>876</ele>
        <time>2022-08-17T14:39:07Z</time>
      </trkpt>
      <trkpt lat="45.59028" lon="3.00999">
        <ele>871</ele>
        <time>2022-08-17T14:39:08Z</time>
      </trkpt>
      <trkpt lat="45.59036" lon="3.01009">
        <ele>871</ele>
        <time>2022-08-17T14:39:09Z</time>
      </trkpt>
      <trkpt lat="45.59044" lon="3.01017">
        <ele>871</ele>
        <time>2022-08-17T14:39:10Z</time>
      </trkpt>
      <trkpt lat="45.59054" lon="3.01025">
        <ele>871</ele>
        <time>2022-08-17T14:39:11Z</time>
      </trkpt>
      <trkpt lat="45.59063" lon="3.01032">
        <ele>871</ele>
        <time>2022-08-17T14:39:12Z</time>
      </trkpt>
      <trkpt lat="45.59073" lon="3.01039">
        <ele>871</ele>
        <time>2022-08-17T14:39:13Z</time>
      </trkpt>
      <trkpt lat="45.59082" lon="3.01048">
        <ele>871</ele>
        <time>2022-08-17T14:39:14Z</time>
      </trkpt>
      <trkpt lat="45.59089" lon="3.0106">
        <ele>871</ele>
        <time>2022-08-17T14:39:15Z</time>
      </trkpt>
      <trkpt lat="45.59097" lon="3.01089">
        <ele>871</ele>
        <time>2022-08-17T14:39:17Z</time>
      </trkpt>
      <trkpt lat="45.59097" lon="3.01104">
        <ele>861</ele>
        <time>2022-08-17T14:39:18Z</time>
      </trkpt>
      <trkpt lat="45.59093" lon="3.01133">
        <ele>861</ele>
        <time>2022-08-17T14:39:19Z</time>
      </trkpt>
      <trkpt lat="45.5909" lon="3.01145">
        <ele>861</ele>
        <time>2022-08-17T14:39:20Z</time>
      </trkpt>
      <trkpt lat="45.59086" lon="3.01158">
        <ele>861</ele>
        <time>2022-08-17T14:39:21Z</time>
      </trkpt>
      <trkpt lat="45.59082" lon="3.0117">
        <ele>861</ele>
        <time>2022-08-17T14:39:22Z</time>
      </trkpt>
      <trkpt lat="45.59079" lon="3.01183">
        <ele>861</ele>
        <time>2022-08-17T14:39:23Z</time>
      </trkpt>
      <trkpt lat="45.59075" lon="3.01196">
        <ele>861</ele>
        <time>2022-08-17T14:39:24Z</time>
      </trkpt>
      <trkpt lat="45.59072" lon="3.01208">
        <ele>861</ele>
        <time>2022-08-17T14:39:25Z</time>
      </trkpt>
      <trkpt lat="45.59068" lon="3.01221">
        <ele>861</ele>
        <time>2022-08-17T14:39:26Z</time>
      </trkpt>
      <trkpt lat="45.59064" lon="3.01233">
        <ele>853</ele>
        <time>2022-08-17T14:39:28Z</time>
      </trkpt>
      <trkpt lat="45.59063" lon="3.01252">
        <ele>853</ele>
        <time>2022-08-17T14:39:29Z</time>
      </trkpt>
      <trkpt lat="45.59065" lon="3.0126">
        <ele>853</ele>
        <time>2022-08-17T14:39:30Z</time>
      </trkpt>
      <trkpt lat="45.59066" lon="3.01269">
        <ele>853</ele>
        <time>2022-08-17T14:39:31Z</time>
      </trkpt>
      <trkpt lat="45.59067" lon="3.01277">
        <ele>853</ele>
        <time>2022-08-17T14:39:32Z</time>
      </trkpt>
      <trkpt lat="45.59069" lon="3.01286">
        <ele>853</ele>
        <time>2022-08-17T14:39:34Z</time>
      </trkpt>
      <trkpt lat="45.5907" lon="3.01294">
        <ele>853</ele>
        <time>2022-08-17T14:39:35Z</time>
      </trkpt>
      <trkpt lat="45.59071" lon="3.01302">
        <ele>853</ele>
        <time>2022-08-17T14:39:37Z</time>
      </trkpt>
      <trkpt lat="45.59072" lon="3.01311">
        <ele>848</ele>
        <time>2022-08-17T14:39:38Z</time>
      </trkpt>
      <trkpt lat="45.59081" lon="3.01322">
        <ele>848</ele>
        <time>2022-08-17T14:39:39Z</time>
      </trkpt>
      <trkpt lat="45.59086" lon="3.01328">
        <ele>848</ele>
        <time>2022-08-17T14:39:42Z</time>
      </trkpt>
      <trkpt lat="45.59091" lon="3.01334">
        <ele>848</ele>
        <time>2022-08-17T14:39:44Z</time>
      </trkpt>
      <trkpt lat="45.59097" lon="3.0134">
        <ele>848</ele>
        <time>2022-08-17T14:39:46Z</time>
      </trkpt>
      <trkpt lat="45.59102" lon="3.01346">
        <ele>848</ele>
        <time>2022-08-17T14:39:48Z</time>
      </trkpt>
      <trkpt lat="45.5912" lon="3.01363">
        <ele>848</ele>
        <time>2022-08-17T14:39:51Z</time>
      </trkpt>
      <trkpt lat="45.59127" lon="3.01368">
        <ele>848</ele>
        <time>2022-08-17T14:39:53Z</time>
      </trkpt>
      <trkpt lat="45.59133" lon="3.01373">
        <ele>848</ele>
        <time>2022-08-17T14:39:55Z</time>
      </trkpt>
      <trkpt lat="45.5914" lon="3.01377">
        <ele>848</ele>
        <time>2022-08-17T14:39:57Z</time>
      </trkpt>
      <trkpt lat="45.59146" lon="3.01382">
        <ele>848</ele>
        <time>2022-08-17T14:39:58Z</time>
      </trkpt>
      <trkpt lat="45.5916" lon="3.01389">
        <ele>848</ele>
        <time>2022-08-17T14:39:59Z</time>
      </trkpt>
      <trkpt lat="45.59168" lon="3.01392">
        <ele>848</ele>
        <time>2022-08-17T14:40:01Z</time>
      </trkpt>
      <trkpt lat="45.59176" lon="3.01396">
        <ele>848</ele>
        <time>2022-08-17T14:40:03Z</time>
      </trkpt>
      <trkpt lat="45.59185" lon="3.014">
        <ele>848</ele>
        <time>2022-08-17T14:40:05Z</time>
      </trkpt>
      <trkpt lat="45.59193" lon="3.01403">
        <ele>848</ele>
        <time>2022-08-17T14:40:07Z</time>
      </trkpt>
      <trkpt lat="45.59201" lon="3.01407">
        <ele>842</ele>
        <time>2022-08-17T14:40:08Z</time>
      </trkpt>
      <trkpt lat="45.59214" lon="3.014">
        <ele>842</ele>
        <time>2022-08-17T14:40:09Z</time>
      </trkpt>
      <trkpt lat="45.59221" lon="3.01394">
        <ele>842</ele>
        <time>2022-08-17T14:40:12Z</time>
      </trkpt>
      <trkpt lat="45.59228" lon="3.01387">
        <ele>842</ele>
        <time>2022-08-17T14:40:15Z</time>
      </trkpt>
      <trkpt lat="45.59235" lon="3.01381">
        <ele>842</ele>
        <time>2022-08-17T14:40:17Z</time>
      </trkpt>
      <trkpt lat="45.59243" lon="3.01375">
        <ele>842</ele>
        <time>2022-08-17T14:40:18Z</time>
      </trkpt>
      <trkpt lat="45.59252" lon="3.01368">
        <ele>842</ele>
        <time>2022-08-17T14:40:19Z</time>
      </trkpt>
      <trkpt lat="45.59257" lon="3.01363">
        <ele>842</ele>
        <time>2022-08-17T14:40:21Z</time>
      </trkpt>
      <trkpt lat="45.59262" lon="3.01359">
        <ele>842</ele>
        <time>2022-08-17T14:40:23Z</time>
      </trkpt>
      <trkpt lat="45.59267" lon="3.01355">
        <ele>842</ele>
        <time>2022-08-17T14:40:25Z</time>
      </trkpt>
      <trkpt lat="45.59273" lon="3.0135">
        <ele>842</ele>
        <time>2022-08-17T14:40:27Z</time>
      </trkpt>
      <trkpt lat="45.59278" lon="3.01346">
        <ele>843</ele>
        <time>2022-08-17T14:40:28Z</time>
      </trkpt>
      <trkpt lat="45.59287" lon="3.0134">
        <ele>843</ele>
        <time>2022-08-17T14:40:29Z</time>
      </trkpt>
      <trkpt lat="45.59293" lon="3.01337">
        <ele>843</ele>
        <time>2022-08-17T14:40:31Z</time>
      </trkpt>
      <trkpt lat="45.59299" lon="3.01334">
        <ele>843</ele>
        <time>2022-08-17T14:40:33Z</time>
      </trkpt>
      <trkpt lat="45.59304" lon="3.01331">
        <ele>843</ele>
        <time>2022-08-17T14:40:35Z</time>
      </trkpt>
      <trkpt lat="45.5931" lon="3.01327">
        <ele>843</ele>
        <time>2022-08-17T14:40:37Z</time>
      </trkpt>
      <trkpt lat="45.59316" lon="3.01324">
        <ele>844</ele>
        <time>2022-08-17T14:40:38Z</time>
      </trkpt>
      <trkpt lat="45.59324" lon="3.01319">
        <ele>844</ele>
        <time>2022-08-17T14:40:39Z</time>
      </trkpt>
      <trkpt lat="45.59328" lon="3.01316">
        <ele>844</ele>
        <time>2022-08-17T14:40:41Z</time>
      </trkpt>
      <trkpt lat="45.59333" lon="3.01312">
        <ele>844</ele>
        <time>2022-08-17T14:40:43Z</time>
      </trkpt>
      <trkpt lat="45.59337" lon="3.01309">
        <ele>844</ele>
        <time>2022-08-17T14:40:45Z</time>
      </trkpt>
      <trkpt lat="45.59342" lon="3.01306">
        <ele>844</ele>
        <time>2022-08-17T14:40:47Z</time>
      </trkpt>
      <trkpt lat="45.59347" lon="3.01303">
        <ele>845</ele>
        <time>2022-08-17T14:40:48Z</time>
      </trkpt>
      <trkpt lat="45.59352" lon="3.01296">
        <ele>845</ele>
        <time>2022-08-17T14:40:49Z</time>
      </trkpt>
      <trkpt lat="45.59355" lon="3.01292">
        <ele>845</ele>
        <time>2022-08-17T14:40:51Z</time>
      </trkpt>
      <trkpt lat="45.59358" lon="3.01287">
        <ele>845</ele>
        <time>2022-08-17T14:40:53Z</time>
      </trkpt>
      <trkpt lat="45.59362" lon="3.01283">
        <ele>845</ele>
        <time>2022-08-17T14:40:55Z</time>
      </trkpt>
      <trkpt lat="45.59365" lon="3.01279">
        <ele>845</ele>
        <time>2022-08-17T14:40:57Z</time>
      </trkpt>
      <trkpt lat="45.59368" lon="3.01275">
        <ele>847</ele>
        <time>2022-08-17T14:40:58Z</time>
      </trkpt>
      <trkpt lat="45.59376" lon="3.01271">
        <ele>847</ele>
        <time>2022-08-17T14:41:00Z</time>
      </trkpt>
      <trkpt lat="45.5938" lon="3.01272">
        <ele>847</ele>
        <time>2022-08-17T14:41:01Z</time>
      </trkpt>
      <trkpt lat="45.59384" lon="3.01272">
        <ele>847</ele>
        <time>2022-08-17T14:41:03Z</time>
      </trkpt>
      <trkpt lat="45.59389" lon="3.01272">
        <ele>847</ele>
        <time>2022-08-17T14:41:05Z</time>
      </trkpt>
      <trkpt lat="45.59393" lon="3.01272">
        <ele>847</ele>
        <time>2022-08-17T14:41:07Z</time>
      </trkpt>
      <trkpt lat="45.59397" lon="3.01272">
        <ele>849</ele>
        <time>2022-08-17T14:41:08Z</time>
      </trkpt>
      <trkpt lat="45.59403" lon="3.01279">
        <ele>849</ele>
        <time>2022-08-17T14:41:09Z</time>
      </trkpt>
      <trkpt lat="45.59406" lon="3.01285">
        <ele>849</ele>
        <time>2022-08-17T14:41:12Z</time>
      </trkpt>
      <trkpt lat="45.59409" lon="3.0129">
        <ele>849</ele>
        <time>2022-08-17T14:41:14Z</time>
      </trkpt>
      <trkpt lat="45.59412" lon="3.01295">
        <ele>849</ele>
        <time>2022-08-17T14:41:16Z</time>
      </trkpt>
      <trkpt lat="45.59415" lon="3.01301">
        <ele>851</ele>
        <time>2022-08-17T14:41:18Z</time>
      </trkpt>
      <trkpt lat="45.59421" lon="3.01314">
        <ele>851</ele>
        <time>2022-08-17T14:41:21Z</time>
      </trkpt>
      <trkpt lat="45.59423" lon="3.01317">
        <ele>851</ele>
        <time>2022-08-17T14:41:23Z</time>
      </trkpt>
      <trkpt lat="45.59425" lon="3.01321">
        <ele>851</ele>
        <time>2022-08-17T14:41:26Z</time>
      </trkpt>
      <trkpt lat="45.59427" lon="3.01325">
        <ele>854</ele>
        <time>2022-08-17T14:41:28Z</time>
      </trkpt>
      <trkpt lat="45.59431" lon="3.01334">
        <ele>854</ele>
        <time>2022-08-17T14:41:29Z</time>
      </trkpt>
      <trkpt lat="45.59436" lon="3.01344">
        <ele>854</ele>
        <time>2022-08-17T14:41:32Z</time>
      </trkpt>
      <trkpt lat="45.5944" lon="3.01353">
        <ele>854</ele>
        <time>2022-08-17T14:41:35Z</time>
      </trkpt>
      <trkpt lat="45.59444" lon="3.01362">
        <ele>855</ele>
        <time>2022-08-17T14:41:38Z</time>
      </trkpt>
      <trkpt lat="45.59449" lon="3.01377">
        <ele>855</ele>
        <time>2022-08-17T14:41:41Z</time>
      </trkpt>
      <trkpt lat="45.59451" lon="3.01381">
        <ele>855</ele>
        <time>2022-08-17T14:41:43Z</time>
      </trkpt>
      <trkpt lat="45.59453" lon="3.01385">
        <ele>855</ele>
        <time>2022-08-17T14:41:46Z</time>
      </trkpt>
      <trkpt lat="45.59454" lon="3.01389">
        <ele>857</ele>
        <time>2022-08-17T14:41:48Z</time>
      </trkpt>
      <trkpt lat="45.59457" lon="3.01399">
        <ele>857</ele>
        <time>2022-08-17T14:41:49Z</time>
      </trkpt>
      <trkpt lat="45.5946" lon="3.0141">
        <ele>857</ele>
        <time>2022-08-17T14:41:52Z</time>
      </trkpt>
      <trkpt lat="45.59462" lon="3.01421">
        <ele>857</ele>
        <time>2022-08-17T14:41:55Z</time>
      </trkpt>
      <trkpt lat="45.59463" lon="3.01431">
        <ele>858</ele>
        <time>2022-08-17T14:41:58Z</time>
      </trkpt>
      <trkpt lat="45.59465" lon="3.01448">
        <ele>858</ele>
        <time>2022-08-17T14:42:01Z</time>
      </trkpt>
      <trkpt lat="45.59466" lon="3.01455">
        <ele>858</ele>
        <time>2022-08-17T14:42:04Z</time>
      </trkpt>
      <trkpt lat="45.59467" lon="3.01461">
        <ele>858</ele>
        <time>2022-08-17T14:42:07Z</time>
      </trkpt>
      <trkpt lat="45.59468" lon="3.01468">
        <ele>860</ele>
        <time>2022-08-17T14:42:08Z</time>
      </trkpt>
      <trkpt lat="45.59471" lon="3.01481">
        <ele>860</ele>
        <time>2022-08-17T14:42:10Z</time>
      </trkpt>
      <trkpt lat="45.59472" lon="3.01486">
        <ele>860</ele>
        <time>2022-08-17T14:42:13Z</time>
      </trkpt>
      <trkpt lat="45.59474" lon="3.01491">
        <ele>860</ele>
        <time>2022-08-17T14:42:16Z</time>
      </trkpt>
      <trkpt lat="45.59475" lon="3.01497">
        <ele>861</ele>
        <time>2022-08-17T14:42:18Z</time>
      </trkpt>
      <trkpt lat="45.59482" lon="3.01514">
        <ele>861</ele>
        <time>2022-08-17T14:42:20Z</time>
      </trkpt>
      <trkpt lat="45.59483" lon="3.01519">
        <ele>861</ele>
        <time>2022-08-17T14:42:23Z</time>
      </trkpt>
      <trkpt lat="45.59485" lon="3.01524">
        <ele>861</ele>
        <time>2022-08-17T14:42:26Z</time>
      </trkpt>
      <trkpt lat="45.59487" lon="3.01529">
        <ele>863</ele>
        <time>2022-08-17T14:42:28Z</time>
      </trkpt>
      <trkpt lat="45.5949" lon="3.01539">
        <ele>863</ele>
        <time>2022-08-17T14:42:29Z</time>
      </trkpt>
      <trkpt lat="45.59494" lon="3.01548">
        <ele>863</ele>
        <time>2022-08-17T14:42:32Z</time>
      </trkpt>
      <trkpt lat="45.59498" lon="3.01557">
        <ele>863</ele>
        <time>2022-08-17T14:42:35Z</time>
      </trkpt>
      <trkpt lat="45.59501" lon="3.01566">
        <ele>865</ele>
        <time>2022-08-17T14:42:38Z</time>
      </trkpt>
      <trkpt lat="45.59505" lon="3.0158">
        <ele>865</ele>
        <time>2022-08-17T14:42:41Z</time>
      </trkpt>
      <trkpt lat="45.59507" lon="3.01584">
        <ele>865</ele>
        <time>2022-08-17T14:42:44Z</time>
      </trkpt>
      <trkpt lat="45.59508" lon="3.01588">
        <ele>865</ele>
        <time>2022-08-17T14:42:46Z</time>
      </trkpt>
      <trkpt lat="45.59509" lon="3.01592">
        <ele>867</ele>
        <time>2022-08-17T14:42:48Z</time>
      </trkpt>
      <trkpt lat="45.59512" lon="3.01608">
        <ele>867</ele>
        <time>2022-08-17T14:42:49Z</time>
      </trkpt>
      <trkpt lat="45.59513" lon="3.01614">
        <ele>867</ele>
        <time>2022-08-17T14:42:52Z</time>
      </trkpt>
      <trkpt lat="45.59513" lon="3.0162">
        <ele>867</ele>
        <time>2022-08-17T14:42:56Z</time>
      </trkpt>
      <trkpt lat="45.59514" lon="3.01627">
        <ele>869</ele>
        <time>2022-08-17T14:42:58Z</time>
      </trkpt>
      <trkpt lat="45.59514" lon="3.0164">
        <ele>869</ele>
        <time>2022-08-17T14:43:00Z</time>
      </trkpt>
      <trkpt lat="45.59512" lon="3.01654">
        <ele>869</ele>
        <time>2022-08-17T14:43:04Z</time>
      </trkpt>
      <trkpt lat="45.59511" lon="3.01668">
        <ele>870</ele>
        <time>2022-08-17T14:43:08Z</time>
      </trkpt>
      <trkpt lat="45.59512" lon="3.01684">
        <ele>870</ele>
        <time>2022-08-17T14:43:11Z</time>
      </trkpt>
      <trkpt lat="45.59514" lon="3.0169">
        <ele>870</ele>
        <time>2022-08-17T14:43:14Z</time>
      </trkpt>
      <trkpt lat="45.59515" lon="3.01696">
        <ele>870</ele>
        <time>2022-08-17T14:43:16Z</time>
      </trkpt>
      <trkpt lat="45.59516" lon="3.01702">
        <ele>872</ele>
        <time>2022-08-17T14:43:18Z</time>
      </trkpt>
      <trkpt lat="45.59524" lon="3.01713">
        <ele>872</ele>
        <time>2022-08-17T14:43:20Z</time>
      </trkpt>
      <trkpt lat="45.59528" lon="3.01718">
        <ele>872</ele>
        <time>2022-08-17T14:43:22Z</time>
      </trkpt>
      <trkpt lat="45.59532" lon="3.01722">
        <ele>872</ele>
        <time>2022-08-17T14:43:24Z</time>
      </trkpt>
      <trkpt lat="45.59535" lon="3.01727">
        <ele>872</ele>
        <time>2022-08-17T14:43:26Z</time>
      </trkpt>
      <trkpt lat="45.59539" lon="3.01732">
        <ele>874</ele>
        <time>2022-08-17T14:43:28Z</time>
      </trkpt>
      <trkpt lat="45.59549" lon="3.01741">
        <ele>874</ele>
        <time>2022-08-17T14:43:30Z</time>
      </trkpt>
      <trkpt lat="45.59554" lon="3.01746">
        <ele>874</ele>
        <time>2022-08-17T14:43:32Z</time>
      </trkpt>
      <trkpt lat="45.59558" lon="3.0175">
        <ele>874</ele>
        <time>2022-08-17T14:43:34Z</time>
      </trkpt>
      <trkpt lat="45.59563" lon="3.01754">
        <ele>874</ele>
        <time>2022-08-17T14:43:36Z</time>
      </trkpt>
      <trkpt lat="45.59567" lon="3.01759">
        <ele>875</ele>
        <time>2022-08-17T14:43:38Z</time>
      </trkpt>
      <trkpt lat="45.59576" lon="3.0177">
        <ele>875</ele>
        <time>2022-08-17T14:43:40Z</time>
      </trkpt>
      <trkpt lat="45.5958" lon="3.01775">
        <ele>875</ele>
        <time>2022-08-17T14:43:42Z</time>
      </trkpt>
      <trkpt lat="45.59584" lon="3.01781">
        <ele>875</ele>
        <time>2022-08-17T14:43:44Z</time>
      </trkpt>
      <trkpt lat="45.59587" lon="3.01786">
        <ele>875</ele>
        <time>2022-08-17T14:43:46Z</time>
      </trkpt>
      <trkpt lat="45.59591" lon="3.01792">
        <ele>875</ele>
        <time>2022-08-17T14:43:48Z</time>
      </trkpt>
      <trkpt lat="45.59595" lon="3.01807">
        <ele>875</ele>
        <time>2022-08-17T14:43:50Z</time>
      </trkpt>
      <trkpt lat="45.59597" lon="3.01813">
        <ele>875</ele>
        <time>2022-08-17T14:43:52Z</time>
      </trkpt>
      <trkpt lat="45.59598" lon="3.0182">
        <ele>875</ele>
        <time>2022-08-17T14:43:54Z</time>
      </trkpt>
      <trkpt lat="45.596" lon="3.01826">
        <ele>875</ele>
        <time>2022-08-17T14:43:56Z</time>
      </trkpt>
      <trkpt lat="45.59601" lon="3.01833">
        <ele>876</ele>
        <time>2022-08-17T14:43:58Z</time>
      </trkpt>
      <trkpt lat="45.59605" lon="3.01847">
        <ele>876</ele>
        <time>2022-08-17T14:44:00Z</time>
      </trkpt>
      <trkpt lat="45.59606" lon="3.01853">
        <ele>876</ele>
        <time>2022-08-17T14:44:02Z</time>
      </trkpt>
      <trkpt lat="45.59608" lon="3.01859">
        <ele>876</ele>
        <time>2022-08-17T14:44:04Z</time>
      </trkpt>
      <trkpt lat="45.5961" lon="3.01865">
        <ele>876</ele>
        <time>2022-08-17T14:44:06Z</time>
      </trkpt>
      <trkpt lat="45.59611" lon="3.01871">
        <ele>879</ele>
        <time>2022-08-17T14:44:08Z</time>
      </trkpt>
      <trkpt lat="45.59616" lon="3.01883">
        <ele>879</ele>
        <time>2022-08-17T14:44:10Z</time>
      </trkpt>
      <trkpt lat="45.59618" lon="3.01888">
        <ele>879</ele>
        <time>2022-08-17T14:44:12Z</time>
      </trkpt>
      <trkpt lat="45.5962" lon="3.01893">
        <ele>879</ele>
        <time>2022-08-17T14:44:14Z</time>
      </trkpt>
      <trkpt lat="45.59621" lon="3.01898">
        <ele>879</ele>
        <time>2022-08-17T14:44:16Z</time>
      </trkpt>
      <trkpt lat="45.59623" lon="3.01903">
        <ele>879</ele>
        <time>2022-08-17T14:44:17Z</time>
      </trkpt>
      <trkpt lat="45.59625" lon="3.01907">
        <ele>880</ele>
        <time>2022-08-17T14:44:18Z</time>
      </trkpt>
      <trkpt lat="45.59629" lon="3.01916">
        <ele>880</ele>
        <time>2022-08-17T14:44:19Z</time>
      </trkpt>
      <trkpt lat="45.59631" lon="3.01921">
        <ele>880</ele>
        <time>2022-08-17T14:44:21Z</time>
      </trkpt>
      <trkpt lat="45.59633" lon="3.01926">
        <ele>880</ele>
        <time>2022-08-17T14:44:23Z</time>
      </trkpt>
      <trkpt lat="45.59635" lon="3.01931">
        <ele>880</ele>
        <time>2022-08-17T14:44:26Z</time>
      </trkpt>
      <trkpt lat="45.59637" lon="3.01936">
        <ele>880</ele>
        <time>2022-08-17T14:44:27Z</time>
      </trkpt>
      <trkpt lat="45.5964" lon="3.01941">
        <ele>882</ele>
        <time>2022-08-17T14:44:28Z</time>
      </trkpt>
      <trkpt lat="45.59644" lon="3.01948">
        <ele>882</ele>
        <time>2022-08-17T14:44:29Z</time>
      </trkpt>
      <trkpt lat="45.59647" lon="3.01953">
        <ele>882</ele>
        <time>2022-08-17T14:44:31Z</time>
      </trkpt>
      <trkpt lat="45.5965" lon="3.01957">
        <ele>882</ele>
        <time>2022-08-17T14:44:33Z</time>
      </trkpt>
      <trkpt lat="45.59653" lon="3.01961">
        <ele>882</ele>
        <time>2022-08-17T14:44:35Z</time>
      </trkpt>
      <trkpt lat="45.59656" lon="3.01965">
        <ele>882</ele>
        <time>2022-08-17T14:44:37Z</time>
      </trkpt>
      <trkpt lat="45.59658" lon="3.01969">
        <ele>884</ele>
        <time>2022-08-17T14:44:38Z</time>
      </trkpt>
      <trkpt lat="45.59664" lon="3.01975">
        <ele>884</ele>
        <time>2022-08-17T14:44:39Z</time>
      </trkpt>
      <trkpt lat="45.59668" lon="3.01977">
        <ele>884</ele>
        <time>2022-08-17T14:44:41Z</time>
      </trkpt>
      <trkpt lat="45.59672" lon="3.0198">
        <ele>884</ele>
        <time>2022-08-17T14:44:43Z</time>
      </trkpt>
      <trkpt lat="45.59675" lon="3.01983">
        <ele>884</ele>
        <time>2022-08-17T14:44:45Z</time>
      </trkpt>
      <trkpt lat="45.59679" lon="3.01985">
        <ele>884</ele>
        <time>2022-08-17T14:44:47Z</time>
      </trkpt>
      <trkpt lat="45.59683" lon="3.01988">
        <ele>886</ele>
        <time>2022-08-17T14:44:48Z</time>
      </trkpt>
      <trkpt lat="45.59685" lon="3.01989">
        <ele>886</ele>
        <time>2022-08-17T14:44:49Z</time>
      </trkpt>
      <trkpt lat="45.59691" lon="3.01991">
        <ele>886</ele>
        <time>2022-08-17T14:44:51Z</time>
      </trkpt>
      <trkpt lat="45.59697" lon="3.01992">
        <ele>886</ele>
        <time>2022-08-17T14:44:53Z</time>
      </trkpt>
      <trkpt lat="45.59703" lon="3.01993">
        <ele>886</ele>
        <time>2022-08-17T14:44:55Z</time>
      </trkpt>
      <trkpt lat="45.59711" lon="3.01992">
        <ele>887</ele>
        <time>2022-08-17T14:44:58Z</time>
      </trkpt>
      <trkpt lat="45.59718" lon="3.01992">
        <ele>887</ele>
        <time>2022-08-17T14:45:01Z</time>
      </trkpt>
      <trkpt lat="45.59724" lon="3.01992">
        <ele>887</ele>
        <time>2022-08-17T14:45:04Z</time>
      </trkpt>
      <trkpt lat="45.5973" lon="3.0199">
        <ele>887</ele>
        <time>2022-08-17T14:45:08Z</time>
      </trkpt>
      <trkpt lat="45.59742" lon="3.01988">
        <ele>887</ele>
        <time>2022-08-17T14:45:11Z</time>
      </trkpt>
      <trkpt lat="45.59747" lon="3.01986">
        <ele>887</ele>
        <time>2022-08-17T14:45:13Z</time>
      </trkpt>
      <trkpt lat="45.59751" lon="3.01985">
        <ele>887</ele>
        <time>2022-08-17T14:45:16Z</time>
      </trkpt>
      <trkpt lat="45.59756" lon="3.01983">
        <ele>887</ele>
        <time>2022-08-17T14:45:17Z</time>
      </trkpt>
      <trkpt lat="45.5976" lon="3.01982">
        <ele>887</ele>
        <time>2022-08-17T14:45:18Z</time>
      </trkpt>
      <trkpt lat="45.5977" lon="3.01979">
        <ele>887</ele>
        <time>2022-08-17T14:45:19Z</time>
      </trkpt>
      <trkpt lat="45.59775" lon="3.01977">
        <ele>887</ele>
        <time>2022-08-17T14:45:21Z</time>
      </trkpt>
      <trkpt lat="45.59781" lon="3.01975">
        <ele>887</ele>
        <time>2022-08-17T14:45:23Z</time>
      </trkpt>
      <trkpt lat="45.59786" lon="3.01973">
        <ele>887</ele>
        <time>2022-08-17T14:45:24Z</time>
      </trkpt>
      <trkpt lat="45.59792" lon="3.01972">
        <ele>887</ele>
        <time>2022-08-17T14:45:25Z</time>
      </trkpt>
      <trkpt lat="45.59797" lon="3.0197">
        <ele>887</ele>
        <time>2022-08-17T14:45:26Z</time>
      </trkpt>
      <trkpt lat="45.59802" lon="3.01968">
        <ele>887</ele>
        <time>2022-08-17T14:45:27Z</time>
      </trkpt>
      <trkpt lat="45.59808" lon="3.01966">
        <ele>888</ele>
        <time>2022-08-17T14:45:28Z</time>
      </trkpt>
      <trkpt lat="45.59825" lon="3.01961">
        <ele>888</ele>
        <time>2022-08-17T14:45:30Z</time>
      </trkpt>
      <trkpt lat="45.59832" lon="3.01959">
        <ele>888</ele>
        <time>2022-08-17T14:45:32Z</time>
      </trkpt>
      <trkpt lat="45.59839" lon="3.01956">
        <ele>888</ele>
        <time>2022-08-17T14:45:34Z</time>
      </trkpt>
      <trkpt lat="45.59846" lon="3.01954">
        <ele>888</ele>
        <time>2022-08-17T14:45:36Z</time>
      </trkpt>
      <trkpt lat="45.59853" lon="3.01951">
        <ele>890</ele>
        <time>2022-08-17T14:45:38Z</time>
      </trkpt>
      <trkpt lat="45.59863" lon="3.01946">
        <ele>890</ele>
        <time>2022-08-17T14:45:39Z</time>
      </trkpt>
      <trkpt lat="45.59868" lon="3.01942">
        <ele>890</ele>
        <time>2022-08-17T14:45:40Z</time>
      </trkpt>
      <trkpt lat="45.59872" lon="3.01938">
        <ele>890</ele>
        <time>2022-08-17T14:45:42Z</time>
      </trkpt>
      <trkpt lat="45.59877" lon="3.01934">
        <ele>890</ele>
        <time>2022-08-17T14:45:44Z</time>
      </trkpt>
      <trkpt lat="45.59882" lon="3.0193">
        <ele>890</ele>
        <time>2022-08-17T14:45:46Z</time>
      </trkpt>
      <trkpt lat="45.59887" lon="3.01927">
        <ele>890</ele>
        <time>2022-08-17T14:45:48Z</time>
      </trkpt>
      <trkpt lat="45.59888" lon="3.01925">
        <ele>890</ele>
        <time>2022-08-17T14:45:49Z</time>
      </trkpt>
      <trkpt lat="45.59888" lon="3.01925">
        <ele>889</ele>
        <time>2022-08-17T14:45:58Z</time>
      </trkpt>
      <trkpt lat="45.59887" lon="3.01925">
        <ele>889</ele>
        <time>2022-08-17T14:46:08Z</time>
      </trkpt>
      <trkpt lat="45.59887" lon="3.01925">
        <ele>890</ele>
        <time>2022-08-17T14:46:18Z</time>
      </trkpt>
      <trkpt lat="45.59887" lon="3.01926">
        <ele>890</ele>
        <time>2022-08-17T14:46:28Z</time>
      </trkpt>
      <trkpt lat="45.59886" lon="3.01926">
        <ele>890</ele>
        <time>2022-08-17T14:46:38Z</time>
      </trkpt>
      <trkpt lat="45.59886" lon="3.01926">
        <ele>890</ele>
        <time>2022-08-17T14:46:48Z</time>
      </trkpt>
      <trkpt lat="45.59886" lon="3.01926">
        <ele>890</ele>
        <time>2022-08-17T14:46:58Z</time>
      </trkpt>
      <trkpt lat="45.59885" lon="3.01926">
        <ele>889</ele>
        <time>2022-08-17T14:47:08Z</time>
      </trkpt>
      <trkpt lat="45.59885" lon="3.01926">
        <ele>890</ele>
        <time>2022-08-17T14:47:18Z</time>
      </trkpt>
      <trkpt lat="45.59884" lon="3.01927">
        <ele>890</ele>
        <time>2022-08-17T14:47:28Z</time>
      </trkpt>
      <trkpt lat="45.59884" lon="3.01927">
        <ele>890</ele>
        <time>2022-08-17T14:47:38Z</time>
      </trkpt>
      <trkpt lat="45.59884" lon="3.01927">
        <ele>890</ele>
        <time>2022-08-17T14:47:48Z</time>
      </trkpt>
      <trkpt lat="45.59883" lon="3.01927">
        <ele>890</ele>
        <time>2022-08-17T14:47:58Z</time>
      </trkpt>
      <trkpt lat="45.59883" lon="3.01927">
        <ele>889</ele>
        <time>2022-08-17T14:48:08Z</time>
      </trkpt>
      <trkpt lat="45.59882" lon="3.01928">
        <ele>890</ele>
        <time>2022-08-17T14:48:18Z</time>
      </trkpt>
      <trkpt lat="45.59882" lon="3.01928">
        <ele>890</ele>
        <time>2022-08-17T14:48:28Z</time>
      </trkpt>
      <trkpt lat="45.59882" lon="3.01928">
        <ele>889</ele>
        <time>2022-08-17T14:48:38Z</time>
      </trkpt>
      <trkpt lat="45.59881" lon="3.01928">
        <ele>890</ele>
        <time>2022-08-17T14:48:48Z</time>
      </trkpt>
      <trkpt lat="45.59881" lon="3.01928">
        <ele>890</ele>
        <time>2022-08-17T14:48:55Z</time>
      </trkpt>
      <trkpt lat="45.59881" lon="3.01928">
        <ele>890</ele>
        <time>2022-08-17T14:48:57Z</time>
      </trkpt>
      <trkpt lat="45.5988" lon="3.01929">
        <ele>890</ele>
        <time>2022-08-17T14:48:58Z</time>
      </trkpt>
      <trkpt lat="45.59872" lon="3.01936">
        <ele>890</ele>
        <time>2022-08-17T14:48:59Z</time>
      </trkpt>
      <trkpt lat="45.59868" lon="3.01939">
        <ele>890</ele>
        <time>2022-08-17T14:49:01Z</time>
      </trkpt>
      <trkpt lat="45.59864" lon="3.01942">
        <ele>890</ele>
        <time>2022-08-17T14:49:03Z</time>
      </trkpt>
      <trkpt lat="45.5986" lon="3.01944">
        <ele>890</ele>
        <time>2022-08-17T14:49:05Z</time>
      </trkpt>
      <trkpt lat="45.59856" lon="3.01947">
        <ele>890</ele>
        <time>2022-08-17T14:49:07Z</time>
      </trkpt>
      <trkpt lat="45.59852" lon="3.0195">
        <ele>890</ele>
        <time>2022-08-17T14:49:08Z</time>
      </trkpt>
      <trkpt lat="45.59844" lon="3.01952">
        <ele>890</ele>
        <time>2022-08-17T14:49:09Z</time>
      </trkpt>
      <trkpt lat="45.59839" lon="3.01954">
        <ele>890</ele>
        <time>2022-08-17T14:49:11Z</time>
      </trkpt>
      <trkpt lat="45.59833" lon="3.01955">
        <ele>890</ele>
        <time>2022-08-17T14:49:13Z</time>
      </trkpt>
      <trkpt lat="45.59828" lon="3.01957">
        <ele>890</ele>
        <time>2022-08-17T14:49:15Z</time>
      </trkpt>
      <trkpt lat="45.59823" lon="3.01958">
        <ele>890</ele>
        <time>2022-08-17T14:49:17Z</time>
      </trkpt>
      <trkpt lat="45.59817" lon="3.0196">
        <ele>890</ele>
        <time>2022-08-17T14:49:18Z</time>
      </trkpt>
      <trkpt lat="45.59808" lon="3.01963">
        <ele>890</ele>
        <time>2022-08-17T14:49:19Z</time>
      </trkpt>
      <trkpt lat="45.59803" lon="3.01964">
        <ele>890</ele>
        <time>2022-08-17T14:49:20Z</time>
      </trkpt>
      <trkpt lat="45.59798" lon="3.01966">
        <ele>890</ele>
        <time>2022-08-17T14:49:21Z</time>
      </trkpt>
      <trkpt lat="45.59793" lon="3.01967">
        <ele>890</ele>
        <time>2022-08-17T14:49:22Z</time>
      </trkpt>
      <trkpt lat="45.59788" lon="3.01969">
        <ele>890</ele>
        <time>2022-08-17T14:49:23Z</time>
      </trkpt>
      <trkpt lat="45.59783" lon="3.0197">
        <ele>890</ele>
        <time>2022-08-17T14:49:24Z</time>
      </trkpt>
      <trkpt lat="45.59778" lon="3.01972">
        <ele>890</ele>
        <time>2022-08-17T14:49:25Z</time>
      </trkpt>
      <trkpt lat="45.59773" lon="3.01973">
        <ele>890</ele>
        <time>2022-08-17T14:49:26Z</time>
      </trkpt>
      <trkpt lat="45.59768" lon="3.01975">
        <ele>890</ele>
        <time>2022-08-17T14:49:27Z</time>
      </trkpt>
      <trkpt lat="45.59764" lon="3.01976">
        <ele>889</ele>
        <time>2022-08-17T14:49:28Z</time>
      </trkpt>
      <trkpt lat="45.59754" lon="3.01974">
        <ele>889</ele>
        <time>2022-08-17T14:49:29Z</time>
      </trkpt>
      <trkpt lat="45.59749" lon="3.0197">
        <ele>889</ele>
        <time>2022-08-17T14:49:30Z</time>
      </trkpt>
      <trkpt lat="45.59745" lon="3.01967">
        <ele>889</ele>
        <time>2022-08-17T14:49:31Z</time>
      </trkpt>
      <trkpt lat="45.59741" lon="3.01963">
        <ele>889</ele>
        <time>2022-08-17T14:49:32Z</time>
      </trkpt>
      <trkpt lat="45.59736" lon="3.01959">
        <ele>889</ele>
        <time>2022-08-17T14:49:33Z</time>
      </trkpt>
      <trkpt lat="45.59732" lon="3.01955">
        <ele>889</ele>
        <time>2022-08-17T14:49:35Z</time>
      </trkpt>
      <trkpt lat="45.59728" lon="3.01952">
        <ele>889</ele>
        <time>2022-08-17T14:49:37Z</time>
      </trkpt>
      <trkpt lat="45.59724" lon="3.01948">
        <ele>888</ele>
        <time>2022-08-17T14:49:38Z</time>
      </trkpt>
      <trkpt lat="45.59718" lon="3.01932">
        <ele>888</ele>
        <time>2022-08-17T14:49:39Z</time>
      </trkpt>
      <trkpt lat="45.59714" lon="3.01923">
        <ele>888</ele>
        <time>2022-08-17T14:49:41Z</time>
      </trkpt>
      <trkpt lat="45.5971" lon="3.01913">
        <ele>888</ele>
        <time>2022-08-17T14:49:43Z</time>
      </trkpt>
      <trkpt lat="45.59706" lon="3.01904">
        <ele>888</ele>
        <time>2022-08-17T14:49:45Z</time>
      </trkpt>
      <trkpt lat="45.59702" lon="3.01895">
        <ele>888</ele>
        <time>2022-08-17T14:49:47Z</time>
      </trkpt>
      <trkpt lat="45.59698" lon="3.01885">
        <ele>888</ele>
        <time>2022-08-17T14:49:48Z</time>
      </trkpt>
      <trkpt lat="45.59695" lon="3.01871">
        <ele>888</ele>
        <time>2022-08-17T14:49:49Z</time>
      </trkpt>
      <trkpt lat="45.59694" lon="3.01864">
        <ele>888</ele>
        <time>2022-08-17T14:49:50Z</time>
      </trkpt>
      <trkpt lat="45.59693" lon="3.01858">
        <ele>888</ele>
        <time>2022-08-17T14:49:51Z</time>
      </trkpt>
      <trkpt lat="45.59692" lon="3.01851">
        <ele>888</ele>
        <time>2022-08-17T14:49:52Z</time>
      </trkpt>
      <trkpt lat="45.59691" lon="3.01844">
        <ele>888</ele>
        <time>2022-08-17T14:49:53Z</time>
      </trkpt>
      <trkpt lat="45.5969" lon="3.01837">
        <ele>888</ele>
        <time>2022-08-17T14:49:54Z</time>
      </trkpt>
      <trkpt lat="45.59689" lon="3.0183">
        <ele>888</ele>
        <time>2022-08-17T14:49:55Z</time>
      </trkpt>
      <trkpt lat="45.59688" lon="3.01823">
        <ele>888</ele>
        <time>2022-08-17T14:49:56Z</time>
      </trkpt>
      <trkpt lat="45.59687" lon="3.01816">
        <ele>888</ele>
        <time>2022-08-17T14:49:57Z</time>
      </trkpt>
      <trkpt lat="45.59687" lon="3.01809">
        <ele>889</ele>
        <time>2022-08-17T14:49:58Z</time>
      </trkpt>
      <trkpt lat="45.59686" lon="3.0179">
        <ele>889</ele>
        <time>2022-08-17T14:49:59Z</time>
      </trkpt>
      <trkpt lat="45.59686" lon="3.01778">
        <ele>889</ele>
        <time>2022-08-17T14:50:01Z</time>
      </trkpt>
      <trkpt lat="45.59686" lon="3.01767">
        <ele>889</ele>
        <time>2022-08-17T14:50:02Z</time>
      </trkpt>
      <trkpt lat="45.59686" lon="3.01756">
        <ele>889</ele>
        <time>2022-08-17T14:50:03Z</time>
      </trkpt>
      <trkpt lat="45.59686" lon="3.01744">
        <ele>889</ele>
        <time>2022-08-17T14:50:05Z</time>
      </trkpt>
      <trkpt lat="45.59686" lon="3.01733">
        <ele>889</ele>
        <time>2022-08-17T14:50:07Z</time>
      </trkpt>
      <trkpt lat="45.59686" lon="3.01722">
        <ele>888</ele>
        <time>2022-08-17T14:50:08Z</time>
      </trkpt>
      <trkpt lat="45.59687" lon="3.01701">
        <ele>888</ele>
        <time>2022-08-17T14:50:09Z</time>
      </trkpt>
      <trkpt lat="45.59688" lon="3.01691">
        <ele>888</ele>
        <time>2022-08-17T14:50:10Z</time>
      </trkpt>
      <trkpt lat="45.59689" lon="3.0168">
        <ele>888</ele>
        <time>2022-08-17T14:50:12Z</time>
      </trkpt>
      <trkpt lat="45.5969" lon="3.01669">
        <ele>888</ele>
        <time>2022-08-17T14:50:13Z</time>
      </trkpt>
      <trkpt lat="45.59691" lon="3.01658">
        <ele>888</ele>
        <time>2022-08-17T14:50:15Z</time>
      </trkpt>
      <trkpt lat="45.59692" lon="3.01647">
        <ele>888</ele>
        <time>2022-08-17T14:50:16Z</time>
      </trkpt>
      <trkpt lat="45.59693" lon="3.01636">
        <ele>888</ele>
        <time>2022-08-17T14:50:17Z</time>
      </trkpt>
      <trkpt lat="45.59694" lon="3.01626">
        <ele>888</ele>
        <time>2022-08-17T14:50:18Z</time>
      </trkpt>
      <trkpt lat="45.59694" lon="3.01604">
        <ele>888</ele>
        <time>2022-08-17T14:50:19Z</time>
      </trkpt>
      <trkpt lat="45.59694" lon="3.01593">
        <ele>888</ele>
        <time>2022-08-17T14:50:21Z</time>
      </trkpt>
      <trkpt lat="45.59694" lon="3.01582">
        <ele>888</ele>
        <time>2022-08-17T14:50:23Z</time>
      </trkpt>
      <trkpt lat="45.59694" lon="3.01571">
        <ele>888</ele>
        <time>2022-08-17T14:50:24Z</time>
      </trkpt>
      <trkpt lat="45.59694" lon="3.0156">
        <ele>888</ele>
        <time>2022-08-17T14:50:25Z</time>
      </trkpt>
      <trkpt lat="45.59694" lon="3.01549">
        <ele>888</ele>
        <time>2022-08-17T14:50:26Z</time>
      </trkpt>
      <trkpt lat="45.59694" lon="3.01538">
        <ele>888</ele>
        <time>2022-08-17T14:50:27Z</time>
      </trkpt>
      <trkpt lat="45.59694" lon="3.01526">
        <ele>888</ele>
        <time>2022-08-17T14:50:28Z</time>
      </trkpt>
      <trkpt lat="45.59695" lon="3.0151">
        <ele>888</ele>
        <time>2022-08-17T14:50:29Z</time>
      </trkpt>
      <trkpt lat="45.59695" lon="3.01503">
        <ele>888</ele>
        <time>2022-08-17T14:50:30Z</time>
      </trkpt>
      <trkpt lat="45.59695" lon="3.01496">
        <ele>888</ele>
        <time>2022-08-17T14:50:31Z</time>
      </trkpt>
      <trkpt lat="45.59695" lon="3.01489">
        <ele>888</ele>
        <time>2022-08-17T14:50:32Z</time>
      </trkpt>
      <trkpt lat="45.59696" lon="3.01481">
        <ele>888</ele>
        <time>2022-08-17T14:50:33Z</time>
      </trkpt>
      <trkpt lat="45.59696" lon="3.01474">
        <ele>888</ele>
        <time>2022-08-17T14:50:34Z</time>
      </trkpt>
      <trkpt lat="45.59696" lon="3.01467">
        <ele>888</ele>
        <time>2022-08-17T14:50:35Z</time>
      </trkpt>
      <trkpt lat="45.59696" lon="3.0146">
        <ele>888</ele>
        <time>2022-08-17T14:50:36Z</time>
      </trkpt>
      <trkpt lat="45.59696" lon="3.01453">
        <ele>888</ele>
        <time>2022-08-17T14:50:37Z</time>
      </trkpt>
      <trkpt lat="45.59697" lon="3.01445">
        <ele>889</ele>
        <time>2022-08-17T14:50:38Z</time>
      </trkpt>
      <trkpt lat="45.59697" lon="3.01431">
        <ele>889</ele>
        <time>2022-08-17T14:50:39Z</time>
      </trkpt>
      <trkpt lat="45.59697" lon="3.01424">
        <ele>889</ele>
        <time>2022-08-17T14:50:41Z</time>
      </trkpt>
      <trkpt lat="45.59697" lon="3.01418">
        <ele>889</ele>
        <time>2022-08-17T14:50:42Z</time>
      </trkpt>
      <trkpt lat="45.59697" lon="3.01411">
        <ele>889</ele>
        <time>2022-08-17T14:50:43Z</time>
      </trkpt>
      <trkpt lat="45.59698" lon="3.01404">
        <ele>889</ele>
        <time>2022-08-17T14:50:44Z</time>
      </trkpt>
      <trkpt lat="45.59698" lon="3.01397">
        <ele>889</ele>
        <time>2022-08-17T14:50:45Z</time>
      </trkpt>
      <trkpt lat="45.59698" lon="3.0139">
        <ele>889</ele>
        <time>2022-08-17T14:50:46Z</time>
      </trkpt>
      <trkpt lat="45.59698" lon="3.01383">
        <ele>889</ele>
        <time>2022-08-17T14:50:47Z</time>
      </trkpt>
      <trkpt lat="45.59699" lon="3.01376">
        <ele>891</ele>
        <time>2022-08-17T14:50:48Z</time>
      </trkpt>
      <trkpt lat="45.59697" lon="3.01359">
        <ele>891</ele>
        <time>2022-08-17T14:50:49Z</time>
      </trkpt>
      <trkpt lat="45.59695" lon="3.01349">
        <ele>891</ele>
        <time>2022-08-17T14:50:50Z</time>
      </trkpt>
      <trkpt lat="45.59694" lon="3.01339">
        <ele>891</ele>
        <time>2022-08-17T14:50:52Z</time>
      </trkpt>
      <trkpt lat="45.59692" lon="3.01329">
        <ele>891</ele>
        <time>2022-08-17T14:50:54Z</time>
      </trkpt>
      <trkpt lat="45.5969" lon="3.01319">
        <ele>891</ele>
        <time>2022-08-17T14:50:56Z</time>
      </trkpt>
      <trkpt lat="45.59689" lon="3.01309">
        <ele>896</ele>
        <time>2022-08-17T14:50:58Z</time>
      </trkpt>
      <trkpt lat="45.59683" lon="3.01286">
        <ele>896</ele>
        <time>2022-08-17T14:51:00Z</time>
      </trkpt>
      <trkpt lat="45.59681" lon="3.01276">
        <ele>896</ele>
        <time>2022-08-17T14:51:02Z</time>
      </trkpt>
      <trkpt lat="45.59679" lon="3.01267">
        <ele>896</ele>
        <time>2022-08-17T14:51:04Z</time>
      </trkpt>
      <trkpt lat="45.59677" lon="3.01257">
        <ele>896</ele>
        <time>2022-08-17T14:51:06Z</time>
      </trkpt>
      <trkpt lat="45.59675" lon="3.01247">
        <ele>899</ele>
        <time>2022-08-17T14:51:08Z</time>
      </trkpt>
      <trkpt lat="45.59671" lon="3.01224">
        <ele>899</ele>
        <time>2022-08-17T14:51:10Z</time>
      </trkpt>
      <trkpt lat="45.59669" lon="3.01214">
        <ele>899</ele>
        <time>2022-08-17T14:51:12Z</time>
      </trkpt>
      <trkpt lat="45.59668" lon="3.01205">
        <ele>899</ele>
        <time>2022-08-17T14:51:14Z</time>
      </trkpt>
      <trkpt lat="45.59666" lon="3.01195">
        <ele>899</ele>
        <time>2022-08-17T14:51:16Z</time>
      </trkpt>
      <trkpt lat="45.59664" lon="3.01185">
        <ele>900</ele>
        <time>2022-08-17T14:51:18Z</time>
      </trkpt>
      <trkpt lat="45.59662" lon="3.01171">
        <ele>900</ele>
        <time>2022-08-17T14:51:19Z</time>
      </trkpt>
      <trkpt lat="45.59661" lon="3.01163">
        <ele>900</ele>
        <time>2022-08-17T14:51:20Z</time>
      </trkpt>
      <trkpt lat="45.59659" lon="3.01154">
        <ele>900</ele>
        <time>2022-08-17T14:51:22Z</time>
      </trkpt>
      <trkpt lat="45.59658" lon="3.01146">
        <ele>900</ele>
        <time>2022-08-17T14:51:24Z</time>
      </trkpt>
      <trkpt lat="45.59657" lon="3.01138">
        <ele>900</ele>
        <time>2022-08-17T14:51:26Z</time>
      </trkpt>
      <trkpt lat="45.59656" lon="3.0113">
        <ele>900</ele>
        <time>2022-08-17T14:51:27Z</time>
      </trkpt>
      <trkpt lat="45.59654" lon="3.01122">
        <ele>901</ele>
        <time>2022-08-17T14:51:28Z</time>
      </trkpt>
      <trkpt lat="45.59654" lon="3.01106">
        <ele>901</ele>
        <time>2022-08-17T14:51:29Z</time>
      </trkpt>
      <trkpt lat="45.59653" lon="3.01097">
        <ele>901</ele>
        <time>2022-08-17T14:51:31Z</time>
      </trkpt>
      <trkpt lat="45.59653" lon="3.01087">
        <ele>901</ele>
        <time>2022-08-17T14:51:33Z</time>
      </trkpt>
      <trkpt lat="45.59653" lon="3.01078">
        <ele>901</ele>
        <time>2022-08-17T14:51:35Z</time>
      </trkpt>
      <trkpt lat="45.59653" lon="3.01068">
        <ele>901</ele>
        <time>2022-08-17T14:51:37Z</time>
      </trkpt>
      <trkpt lat="45.59653" lon="3.01058">
        <ele>906</ele>
        <time>2022-08-17T14:51:38Z</time>
      </trkpt>
      <trkpt lat="45.59654" lon="3.01045">
        <ele>906</ele>
        <time>2022-08-17T14:51:39Z</time>
      </trkpt>
      <trkpt lat="45.59654" lon="3.01037">
        <ele>906</ele>
        <time>2022-08-17T14:51:41Z</time>
      </trkpt>
      <trkpt lat="45.59655" lon="3.0103">
        <ele>906</ele>
        <time>2022-08-17T14:51:43Z</time>
      </trkpt>
      <trkpt lat="45.59655" lon="3.01022">
        <ele>906</ele>
        <time>2022-08-17T14:51:45Z</time>
      </trkpt>
      <trkpt lat="45.59656" lon="3.01015">
        <ele>906</ele>
        <time>2022-08-17T14:51:46Z</time>
      </trkpt>
      <trkpt lat="45.59656" lon="3.01007">
        <ele>906</ele>
        <time>2022-08-17T14:51:47Z</time>
      </trkpt>
      <trkpt lat="45.59657" lon="3.01">
        <ele>909</ele>
        <time>2022-08-17T14:51:48Z</time>
      </trkpt>
      <trkpt lat="45.59657" lon="3.00989">
        <ele>909</ele>
        <time>2022-08-17T14:51:49Z</time>
      </trkpt>
      <trkpt lat="45.59657" lon="3.00984">
        <ele>909</ele>
        <time>2022-08-17T14:51:50Z</time>
      </trkpt>
      <trkpt lat="45.59657" lon="3.00979">
        <ele>909</ele>
        <time>2022-08-17T14:51:51Z</time>
      </trkpt>
      <trkpt lat="45.59657" lon="3.00974">
        <ele>909</ele>
        <time>2022-08-17T14:51:52Z</time>
      </trkpt>
      <trkpt lat="45.59658" lon="3.0097">
        <ele>909</ele>
        <time>2022-08-17T14:51:53Z</time>
      </trkpt>
      <trkpt lat="45.59658" lon="3.00965">
        <ele>909</ele>
        <time>2022-08-17T14:51:54Z</time>
      </trkpt>
      <trkpt lat="45.59658" lon="3.0096">
        <ele>909</ele>
        <time>2022-08-17T14:51:55Z</time>
      </trkpt>
      <trkpt lat="45.59658" lon="3.00955">
        <ele>909</ele>
        <time>2022-08-17T14:51:56Z</time>
      </trkpt>
      <trkpt lat="45.59658" lon="3.0095">
        <ele>909</ele>
        <time>2022-08-17T14:51:57Z</time>
      </trkpt>
      <trkpt lat="45.59658" lon="3.00945">
        <ele>911</ele>
        <time>2022-08-17T14:51:58Z</time>
      </trkpt>
      <trkpt lat="45.59657" lon="3.00932">
        <ele>911</ele>
        <time>2022-08-17T14:51:59Z</time>
      </trkpt>
      <trkpt lat="45.59657" lon="3.00925">
        <ele>911</ele>
        <time>2022-08-17T14:52:00Z</time>
      </trkpt>
      <trkpt lat="45.59657" lon="3.00917">
        <ele>911</ele>
        <time>2022-08-17T14:52:01Z</time>
      </trkpt>
      <trkpt lat="45.59657" lon="3.0091">
        <ele>911</ele>
        <time>2022-08-17T14:52:03Z</time>
      </trkpt>
      <trkpt lat="45.59656" lon="3.00902">
        <ele>911</ele>
        <time>2022-08-17T14:52:05Z</time>
      </trkpt>
      <trkpt lat="45.59656" lon="3.00895">
        <ele>911</ele>
        <time>2022-08-17T14:52:07Z</time>
      </trkpt>
      <trkpt lat="45.59656" lon="3.00888">
        <ele>912</ele>
        <time>2022-08-17T14:52:08Z</time>
      </trkpt>
      <trkpt lat="45.59656" lon="3.00874">
        <ele>912</ele>
        <time>2022-08-17T14:52:09Z</time>
      </trkpt>
      <trkpt lat="45.59657" lon="3.00866">
        <ele>912</ele>
        <time>2022-08-17T14:52:11Z</time>
      </trkpt>
      <trkpt lat="45.59657" lon="3.00857">
        <ele>912</ele>
        <time>2022-08-17T14:52:13Z</time>
      </trkpt>
      <trkpt lat="45.59657" lon="3.00849">
        <ele>912</ele>
        <time>2022-08-17T14:52:15Z</time>
      </trkpt>
      <trkpt lat="45.59658" lon="3.00841">
        <ele>912</ele>
        <time>2022-08-17T14:52:17Z</time>
      </trkpt>
      <trkpt lat="45.59658" lon="3.00833">
        <ele>913</ele>
        <time>2022-08-17T14:52:18Z</time>
      </trkpt>
      <trkpt lat="45.59659" lon="3.00819">
        <ele>913</ele>
        <time>2022-08-17T14:52:19Z</time>
      </trkpt>
      <trkpt lat="45.5966" lon="3.00811">
        <ele>913</ele>
        <time>2022-08-17T14:52:21Z</time>
      </trkpt>
      <trkpt lat="45.5966" lon="3.00803">
        <ele>913</ele>
        <time>2022-08-17T14:52:23Z</time>
      </trkpt>
      <trkpt lat="45.5966" lon="3.00794">
        <ele>913</ele>
        <time>2022-08-17T14:52:25Z</time>
      </trkpt>
      <trkpt lat="45.59661" lon="3.00786">
        <ele>913</ele>
        <time>2022-08-17T14:52:27Z</time>
      </trkpt>
      <trkpt lat="45.59661" lon="3.00778">
        <ele>915</ele>
        <time>2022-08-17T14:52:28Z</time>
      </trkpt>
      <trkpt lat="45.59662" lon="3.00764">
        <ele>915</ele>
        <time>2022-08-17T14:52:29Z</time>
      </trkpt>
      <trkpt lat="45.59662" lon="3.00755">
        <ele>915</ele>
        <time>2022-08-17T14:52:31Z</time>
      </trkpt>
      <trkpt lat="45.59663" lon="3.00747">
        <ele>915</ele>
        <time>2022-08-17T14:52:33Z</time>
      </trkpt>
      <trkpt lat="45.59663" lon="3.00739">
        <ele>915</ele>
        <time>2022-08-17T14:52:35Z</time>
      </trkpt>
      <trkpt lat="45.59664" lon="3.0073">
        <ele>915</ele>
        <time>2022-08-17T14:52:37Z</time>
      </trkpt>
      <trkpt lat="45.59664" lon="3.00722">
        <ele>916</ele>
        <time>2022-08-17T14:52:38Z</time>
      </trkpt>
      <trkpt lat="45.59665" lon="3.00708">
        <ele>916</ele>
        <time>2022-08-17T14:52:39Z</time>
      </trkpt>
      <trkpt lat="45.59665" lon="3.007">
        <ele>916</ele>
        <time>2022-08-17T14:52:41Z</time>
      </trkpt>
      <trkpt lat="45.59666" lon="3.00692">
        <ele>916</ele>
        <time>2022-08-17T14:52:43Z</time>
      </trkpt>
      <trkpt lat="45.59666" lon="3.00684">
        <ele>916</ele>
        <time>2022-08-17T14:52:45Z</time>
      </trkpt>
      <trkpt lat="45.59666" lon="3.00676">
        <ele>916</ele>
        <time>2022-08-17T14:52:47Z</time>
      </trkpt>
      <trkpt lat="45.59667" lon="3.00668">
        <ele>918</ele>
        <time>2022-08-17T14:52:48Z</time>
      </trkpt>
      <trkpt lat="45.59667" lon="3.00655">
        <ele>918</ele>
        <time>2022-08-17T14:52:49Z</time>
      </trkpt>
      <trkpt lat="45.59668" lon="3.00647">
        <ele>918</ele>
        <time>2022-08-17T14:52:51Z</time>
      </trkpt>
      <trkpt lat="45.59668" lon="3.00639">
        <ele>918</ele>
        <time>2022-08-17T14:52:53Z</time>
      </trkpt>
      <trkpt lat="45.59668" lon="3.00631">
        <ele>918</ele>
        <time>2022-08-17T14:52:55Z</time>
      </trkpt>
      <trkpt lat="45.59669" lon="3.00624">
        <ele>918</ele>
        <time>2022-08-17T14:52:57Z</time>
      </trkpt>
      <trkpt lat="45.59669" lon="3.00616">
        <ele>919</ele>
        <time>2022-08-17T14:52:58Z</time>
      </trkpt>
      <trkpt lat="45.5967" lon="3.00603">
        <ele>919</ele>
        <time>2022-08-17T14:52:59Z</time>
      </trkpt>
      <trkpt lat="45.59671" lon="3.00595">
        <ele>919</ele>
        <time>2022-08-17T14:53:01Z</time>
      </trkpt>
      <trkpt lat="45.59671" lon="3.00587">
        <ele>919</ele>
        <time>2022-08-17T14:53:03Z</time>
      </trkpt>
      <trkpt lat="45.59672" lon="3.0058">
        <ele>919</ele>
        <time>2022-08-17T14:53:05Z</time>
      </trkpt>
      <trkpt lat="45.59673" lon="3.00572">
        <ele>919</ele>
        <time>2022-08-17T14:53:07Z</time>
      </trkpt>
      <trkpt lat="45.59673" lon="3.00564">
        <ele>921</ele>
        <time>2022-08-17T14:53:08Z</time>
      </trkpt>
      <trkpt lat="45.59675" lon="3.00551">
        <ele>921</ele>
        <time>2022-08-17T14:53:09Z</time>
      </trkpt>
      <trkpt lat="45.59676" lon="3.00544">
        <ele>921</ele>
        <time>2022-08-17T14:53:10Z</time>
      </trkpt>
      <trkpt lat="45.59677" lon="3.00536">
        <ele>921</ele>
        <time>2022-08-17T14:53:12Z</time>
      </trkpt>
      <trkpt lat="45.59677" lon="3.00528">
        <ele>921</ele>
        <time>2022-08-17T14:53:14Z</time>
      </trkpt>
      <trkpt lat="45.59678" lon="3.00521">
        <ele>921</ele>
        <time>2022-08-17T14:53:16Z</time>
      </trkpt>
      <trkpt lat="45.59679" lon="3.00513">
        <ele>923</ele>
        <time>2022-08-17T14:53:18Z</time>
      </trkpt>
      <trkpt lat="45.59681" lon="3.00494">
        <ele>923</ele>
        <time>2022-08-17T14:53:20Z</time>
      </trkpt>
      <trkpt lat="45.59682" lon="3.00486">
        <ele>923</ele>
        <time>2022-08-17T14:53:22Z</time>
      </trkpt>
      <trkpt lat="45.59682" lon="3.00477">
        <ele>923</ele>
        <time>2022-08-17T14:53:24Z</time>
      </trkpt>
      <trkpt lat="45.59683" lon="3.00468">
        <ele>923</ele>
        <time>2022-08-17T14:53:26Z</time>
      </trkpt>
      <trkpt lat="45.59683" lon="3.00459">
        <ele>927</ele>
        <time>2022-08-17T14:53:28Z</time>
      </trkpt>
      <trkpt lat="45.59683" lon="3.00441">
        <ele>927</ele>
        <time>2022-08-17T14:53:30Z</time>
      </trkpt>
      <trkpt lat="45.59683" lon="3.00435">
        <ele>927</ele>
        <time>2022-08-17T14:53:32Z</time>
      </trkpt>
      <trkpt lat="45.59683" lon="3.00428">
        <ele>927</ele>
        <time>2022-08-17T14:53:34Z</time>
      </trkpt>
      <trkpt lat="45.59683" lon="3.00421">
        <ele>927</ele>
        <time>2022-08-17T14:53:35Z</time>
      </trkpt>
      <trkpt lat="45.59682" lon="3.00415">
        <ele>927</ele>
        <time>2022-08-17T14:53:36Z</time>
      </trkpt>
      <trkpt lat="45.59682" lon="3.00408">
        <ele>927</ele>
        <time>2022-08-17T14:53:37Z</time>
      </trkpt>
      <trkpt lat="45.59682" lon="3.00401">
        <ele>928</ele>
        <time>2022-08-17T14:53:38Z</time>
      </trkpt>
      <trkpt lat="45.59681" lon="3.00387">
        <ele>928</ele>
        <time>2022-08-17T14:53:39Z</time>
      </trkpt>
      <trkpt lat="45.59681" lon="3.00378">
        <ele>928</ele>
        <time>2022-08-17T14:53:40Z</time>
      </trkpt>
      <trkpt lat="45.59681" lon="3.0037">
        <ele>928</ele>
        <time>2022-08-17T14:53:41Z</time>
      </trkpt>
      <trkpt lat="45.59681" lon="3.00361">
        <ele>928</ele>
        <time>2022-08-17T14:53:42Z</time>
      </trkpt>
      <trkpt lat="45.5968" lon="3.00353">
        <ele>928</ele>
        <time>2022-08-17T14:53:44Z</time>
      </trkpt>
      <trkpt lat="45.5968" lon="3.00344">
        <ele>928</ele>
        <time>2022-08-17T14:53:46Z</time>
      </trkpt>
      <trkpt lat="45.5968" lon="3.00336">
        <ele>930</ele>
        <time>2022-08-17T14:53:48Z</time>
      </trkpt>
      <trkpt lat="45.59679" lon="3.00311">
        <ele>930</ele>
        <time>2022-08-17T14:53:50Z</time>
      </trkpt>
      <trkpt lat="45.59678" lon="3.003">
        <ele>930</ele>
        <time>2022-08-17T14:53:52Z</time>
      </trkpt>
      <trkpt lat="45.59678" lon="3.00289">
        <ele>930</ele>
        <time>2022-08-17T14:53:54Z</time>
      </trkpt>
      <trkpt lat="45.59678" lon="3.00277">
        <ele>930</ele>
        <time>2022-08-17T14:53:56Z</time>
      </trkpt>
      <trkpt lat="45.59677" lon="3.00266">
        <ele>931</ele>
        <time>2022-08-17T14:53:58Z</time>
      </trkpt>
      <trkpt lat="45.59677" lon="3.00241">
        <ele>931</ele>
        <time>2022-08-17T14:54:00Z</time>
      </trkpt>
      <trkpt lat="45.59677" lon="3.00229">
        <ele>931</ele>
        <time>2022-08-17T14:54:02Z</time>
      </trkpt>
      <trkpt lat="45.59677" lon="3.00218">
        <ele>931</ele>
        <time>2022-08-17T14:54:04Z</time>
      </trkpt>
      <trkpt lat="45.59677" lon="3.00206">
        <ele>931</ele>
        <time>2022-08-17T14:54:06Z</time>
      </trkpt>
      <trkpt lat="45.59678" lon="3.00195">
        <ele>932</ele>
        <time>2022-08-17T14:54:08Z</time>
      </trkpt>
      <trkpt lat="45.59679" lon="3.0017">
        <ele>932</ele>
        <time>2022-08-17T14:54:10Z</time>
      </trkpt>
      <trkpt lat="45.5968" lon="3.00158">
        <ele>932</ele>
        <time>2022-08-17T14:54:12Z</time>
      </trkpt>
      <trkpt lat="45.59681" lon="3.00147">
        <ele>932</ele>
        <time>2022-08-17T14:54:14Z</time>
      </trkpt>
      <trkpt lat="45.59681" lon="3.00136">
        <ele>932</ele>
        <time>2022-08-17T14:54:16Z</time>
      </trkpt>
      <trkpt lat="45.59682" lon="3.00125">
        <ele>933</ele>
        <time>2022-08-17T14:54:18Z</time>
      </trkpt>
      <trkpt lat="45.59686" lon="3.001">
        <ele>933</ele>
        <time>2022-08-17T14:54:20Z</time>
      </trkpt>
      <trkpt lat="45.59689" lon="3.0009">
        <ele>933</ele>
        <time>2022-08-17T14:54:22Z</time>
      </trkpt>
      <trkpt lat="45.59691" lon="3.00079">
        <ele>933</ele>
        <time>2022-08-17T14:54:24Z</time>
      </trkpt>
      <trkpt lat="45.59693" lon="3.00068">
        <ele>933</ele>
        <time>2022-08-17T14:54:26Z</time>
      </trkpt>
      <trkpt lat="45.59695" lon="3.00058">
        <ele>934</ele>
        <time>2022-08-17T14:54:28Z</time>
      </trkpt>
      <trkpt lat="45.59701" lon="3.00035">
        <ele>934</ele>
        <time>2022-08-17T14:54:30Z</time>
      </trkpt>
      <trkpt lat="45.59704" lon="3.00025">
        <ele>934</ele>
        <time>2022-08-17T14:54:32Z</time>
      </trkpt>
      <trkpt lat="45.59707" lon="3.00014">
        <ele>934</ele>
        <time>2022-08-17T14:54:34Z</time>
      </trkpt>
      <trkpt lat="45.5971" lon="3.00004">
        <ele>934</ele>
        <time>2022-08-17T14:54:36Z</time>
      </trkpt>
      <trkpt lat="45.59713" lon="2.99994">
        <ele>935</ele>
        <time>2022-08-17T14:54:38Z</time>
      </trkpt>
      <trkpt lat="45.5972" lon="2.99972">
        <ele>935</ele>
        <time>2022-08-17T14:54:40Z</time>
      </trkpt>
      <trkpt lat="45.59723" lon="2.99964">
        <ele>935</ele>
        <time>2022-08-17T14:54:42Z</time>
      </trkpt>
      <trkpt lat="45.59726" lon="2.99955">
        <ele>935</ele>
        <time>2022-08-17T14:54:44Z</time>
      </trkpt>
      <trkpt lat="45.59729" lon="2.99946">
        <ele>935</ele>
        <time>2022-08-17T14:54:47Z</time>
      </trkpt>
      <trkpt lat="45.59732" lon="2.99937">
        <ele>936</ele>
        <time>2022-08-17T14:54:48Z</time>
      </trkpt>
      <trkpt lat="45.59742" lon="2.99912">
        <ele>936</ele>
        <time>2022-08-17T14:54:50Z</time>
      </trkpt>
      <trkpt lat="45.59745" lon="2.99903">
        <ele>936</ele>
        <time>2022-08-17T14:54:52Z</time>
      </trkpt>
      <trkpt lat="45.59749" lon="2.99894">
        <ele>936</ele>
        <time>2022-08-17T14:54:54Z</time>
      </trkpt>
      <trkpt lat="45.59752" lon="2.99885">
        <ele>936</ele>
        <time>2022-08-17T14:54:56Z</time>
      </trkpt>
      <trkpt lat="45.59756" lon="2.99876">
        <ele>940</ele>
        <time>2022-08-17T14:54:58Z</time>
      </trkpt>
      <trkpt lat="45.59763" lon="2.99859">
        <ele>940</ele>
        <time>2022-08-17T14:55:00Z</time>
      </trkpt>
      <trkpt lat="45.59766" lon="2.99853">
        <ele>940</ele>
        <time>2022-08-17T14:55:02Z</time>
      </trkpt>
      <trkpt lat="45.59769" lon="2.99847">
        <ele>940</ele>
        <time>2022-08-17T14:55:03Z</time>
      </trkpt>
      <trkpt lat="45.59771" lon="2.99841">
        <ele>940</ele>
        <time>2022-08-17T14:55:04Z</time>
      </trkpt>
      <trkpt lat="45.59774" lon="2.99835">
        <ele>940</ele>
        <time>2022-08-17T14:55:05Z</time>
      </trkpt>
      <trkpt lat="45.59777" lon="2.99829">
        <ele>940</ele>
        <time>2022-08-17T14:55:07Z</time>
      </trkpt>
      <trkpt lat="45.5978" lon="2.99823">
        <ele>940</ele>
        <time>2022-08-17T14:55:08Z</time>
      </trkpt>
      <trkpt lat="45.59786" lon="2.99811">
        <ele>940</ele>
        <time>2022-08-17T14:55:09Z</time>
      </trkpt>
      <trkpt lat="45.59789" lon="2.99803">
        <ele>940</ele>
        <time>2022-08-17T14:55:11Z</time>
      </trkpt>
      <trkpt lat="45.59793" lon="2.99796">
        <ele>940</ele>
        <time>2022-08-17T14:55:13Z</time>
      </trkpt>
      <trkpt lat="45.59796" lon="2.99788">
        <ele>940</ele>
        <time>2022-08-17T14:55:15Z</time>
      </trkpt>
      <trkpt lat="45.598" lon="2.9978">
        <ele>940</ele>
        <time>2022-08-17T14:55:17Z</time>
      </trkpt>
      <trkpt lat="45.59803" lon="2.99773">
        <ele>942</ele>
        <time>2022-08-17T14:55:18Z</time>
      </trkpt>
      <trkpt lat="45.59809" lon="2.99758">
        <ele>942</ele>
        <time>2022-08-17T14:55:19Z</time>
      </trkpt>
      <trkpt lat="45.59812" lon="2.99748">
        <ele>942</ele>
        <time>2022-08-17T14:55:21Z</time>
      </trkpt>
      <trkpt lat="45.59816" lon="2.99738">
        <ele>942</ele>
        <time>2022-08-17T14:55:23Z</time>
      </trkpt>
      <trkpt lat="45.5982" lon="2.99729">
        <ele>942</ele>
        <time>2022-08-17T14:55:25Z</time>
      </trkpt>
      <trkpt lat="45.59823" lon="2.99719">
        <ele>942</ele>
        <time>2022-08-17T14:55:27Z</time>
      </trkpt>
      <trkpt lat="45.59827" lon="2.9971">
        <ele>944</ele>
        <time>2022-08-17T14:55:28Z</time>
      </trkpt>
      <trkpt lat="45.59832" lon="2.99697">
        <ele>944</ele>
        <time>2022-08-17T14:55:29Z</time>
      </trkpt>
      <trkpt lat="45.59835" lon="2.99691">
        <ele>944</ele>
        <time>2022-08-17T14:55:30Z</time>
      </trkpt>
      <trkpt lat="45.59838" lon="2.99685">
        <ele>944</ele>
        <time>2022-08-17T14:55:31Z</time>
      </trkpt>
      <trkpt lat="45.59841" lon="2.99679">
        <ele>944</ele>
        <time>2022-08-17T14:55:32Z</time>
      </trkpt>
      <trkpt lat="45.59844" lon="2.99672">
        <ele>944</ele>
        <time>2022-08-17T14:55:33Z</time>
      </trkpt>
      <trkpt lat="45.59846" lon="2.99666">
        <ele>944</ele>
        <time>2022-08-17T14:55:34Z</time>
      </trkpt>
      <trkpt lat="45.59849" lon="2.9966">
        <ele>944</ele>
        <time>2022-08-17T14:55:35Z</time>
      </trkpt>
      <trkpt lat="45.59852" lon="2.99654">
        <ele>944</ele>
        <time>2022-08-17T14:55:36Z</time>
      </trkpt>
      <trkpt lat="45.59855" lon="2.99648">
        <ele>944</ele>
        <time>2022-08-17T14:55:37Z</time>
      </trkpt>
      <trkpt lat="45.59858" lon="2.99642">
        <ele>944</ele>
        <time>2022-08-17T14:55:38Z</time>
      </trkpt>
      <trkpt lat="45.59864" lon="2.99625">
        <ele>944</ele>
        <time>2022-08-17T14:55:39Z</time>
      </trkpt>
      <trkpt lat="45.59868" lon="2.99616">
        <ele>944</ele>
        <time>2022-08-17T14:55:40Z</time>
      </trkpt>
      <trkpt lat="45.59871" lon="2.99606">
        <ele>944</ele>
        <time>2022-08-17T14:55:41Z</time>
      </trkpt>
      <trkpt lat="45.59875" lon="2.99597">
        <ele>944</ele>
        <time>2022-08-17T14:55:42Z</time>
      </trkpt>
      <trkpt lat="45.59878" lon="2.99587">
        <ele>944</ele>
        <time>2022-08-17T14:55:44Z</time>
      </trkpt>
      <trkpt lat="45.59881" lon="2.99578">
        <ele>944</ele>
        <time>2022-08-17T14:55:46Z</time>
      </trkpt>
      <trkpt lat="45.59885" lon="2.99568">
        <ele>944</ele>
        <time>2022-08-17T14:55:48Z</time>
      </trkpt>
      <trkpt lat="45.5989" lon="2.99553">
        <ele>944</ele>
        <time>2022-08-17T14:55:49Z</time>
      </trkpt>
      <trkpt lat="45.59894" lon="2.99544">
        <ele>944</ele>
        <time>2022-08-17T14:55:50Z</time>
      </trkpt>
      <trkpt lat="45.59897" lon="2.99536">
        <ele>944</ele>
        <time>2022-08-17T14:55:51Z</time>
      </trkpt>
      <trkpt lat="45.599" lon="2.99528">
        <ele>944</ele>
        <time>2022-08-17T14:55:52Z</time>
      </trkpt>
      <trkpt lat="45.59904" lon="2.9952">
        <ele>944</ele>
        <time>2022-08-17T14:55:53Z</time>
      </trkpt>
      <trkpt lat="45.59907" lon="2.99512">
        <ele>944</ele>
        <time>2022-08-17T14:55:54Z</time>
      </trkpt>
      <trkpt lat="45.5991" lon="2.99504">
        <ele>944</ele>
        <time>2022-08-17T14:55:56Z</time>
      </trkpt>
      <trkpt lat="45.59913" lon="2.99496">
        <ele>945</ele>
        <time>2022-08-17T14:55:58Z</time>
      </trkpt>
      <trkpt lat="45.59922" lon="2.99474">
        <ele>945</ele>
        <time>2022-08-17T14:56:00Z</time>
      </trkpt>
      <trkpt lat="45.59925" lon="2.99465">
        <ele>945</ele>
        <time>2022-08-17T14:56:02Z</time>
      </trkpt>
      <trkpt lat="45.59927" lon="2.99457">
        <ele>945</ele>
        <time>2022-08-17T14:56:04Z</time>
      </trkpt>
      <trkpt lat="45.59929" lon="2.99449">
        <ele>945</ele>
        <time>2022-08-17T14:56:05Z</time>
      </trkpt>
      <trkpt lat="45.59932" lon="2.99441">
        <ele>945</ele>
        <time>2022-08-17T14:56:06Z</time>
      </trkpt>
      <trkpt lat="45.59934" lon="2.99433">
        <ele>945</ele>
        <time>2022-08-17T14:56:07Z</time>
      </trkpt>
      <trkpt lat="45.59937" lon="2.99425">
        <ele>945</ele>
        <time>2022-08-17T14:56:08Z</time>
      </trkpt>
      <trkpt lat="45.59938" lon="2.99411">
        <ele>945</ele>
        <time>2022-08-17T14:56:09Z</time>
      </trkpt>
      <trkpt lat="45.59939" lon="2.99404">
        <ele>945</ele>
        <time>2022-08-17T14:56:10Z</time>
      </trkpt>
      <trkpt lat="45.59939" lon="2.99398">
        <ele>945</ele>
        <time>2022-08-17T14:56:11Z</time>
      </trkpt>
      <trkpt lat="45.59939" lon="2.99391">
        <ele>945</ele>
        <time>2022-08-17T14:56:12Z</time>
      </trkpt>
      <trkpt lat="45.5994" lon="2.99385">
        <ele>945</ele>
        <time>2022-08-17T14:56:13Z</time>
      </trkpt>
      <trkpt lat="45.5994" lon="2.99379">
        <ele>945</ele>
        <time>2022-08-17T14:56:14Z</time>
      </trkpt>
      <trkpt lat="45.5994" lon="2.99372">
        <ele>945</ele>
        <time>2022-08-17T14:56:15Z</time>
      </trkpt>
      <trkpt lat="45.59941" lon="2.99366">
        <ele>945</ele>
        <time>2022-08-17T14:56:16Z</time>
      </trkpt>
      <trkpt lat="45.59941" lon="2.99359">
        <ele>945</ele>
        <time>2022-08-17T14:56:17Z</time>
      </trkpt>
      <trkpt lat="45.59941" lon="2.99353">
        <ele>946</ele>
        <time>2022-08-17T14:56:18Z</time>
      </trkpt>
      <trkpt lat="45.59942" lon="2.99333">
        <ele>946</ele>
        <time>2022-08-17T14:56:20Z</time>
      </trkpt>
      <trkpt lat="45.59942" lon="2.99327">
        <ele>946</ele>
        <time>2022-08-17T14:56:21Z</time>
      </trkpt>
      <trkpt lat="45.59942" lon="2.99322">
        <ele>946</ele>
        <time>2022-08-17T14:56:22Z</time>
      </trkpt>
      <trkpt lat="45.59942" lon="2.99316">
        <ele>946</ele>
        <time>2022-08-17T14:56:23Z</time>
      </trkpt>
      <trkpt lat="45.59942" lon="2.9931">
        <ele>946</ele>
        <time>2022-08-17T14:56:24Z</time>
      </trkpt>
      <trkpt lat="45.59942" lon="2.99304">
        <ele>946</ele>
        <time>2022-08-17T14:56:25Z</time>
      </trkpt>
      <trkpt lat="45.59943" lon="2.99298">
        <ele>946</ele>
        <time>2022-08-17T14:56:26Z</time>
      </trkpt>
      <trkpt lat="45.59943" lon="2.99292">
        <ele>946</ele>
        <time>2022-08-17T14:56:27Z</time>
      </trkpt>
      <trkpt lat="45.59943" lon="2.99286">
        <ele>947</ele>
        <time>2022-08-17T14:56:28Z</time>
      </trkpt>
      <trkpt lat="45.59945" lon="2.99272">
        <ele>947</ele>
        <time>2022-08-17T14:56:29Z</time>
      </trkpt>
      <trkpt lat="45.59947" lon="2.99265">
        <ele>947</ele>
        <time>2022-08-17T14:56:30Z</time>
      </trkpt>
      <trkpt lat="45.59948" lon="2.99258">
        <ele>947</ele>
        <time>2022-08-17T14:56:31Z</time>
      </trkpt>
      <trkpt lat="45.5995" lon="2.99251">
        <ele>947</ele>
        <time>2022-08-17T14:56:32Z</time>
      </trkpt>
      <trkpt lat="45.59951" lon="2.99244">
        <ele>947</ele>
        <time>2022-08-17T14:56:34Z</time>
      </trkpt>
      <trkpt lat="45.59953" lon="2.99237">
        <ele>947</ele>
        <time>2022-08-17T14:56:36Z</time>
      </trkpt>
      <trkpt lat="45.59955" lon="2.99229">
        <ele>947</ele>
        <time>2022-08-17T14:56:37Z</time>
      </trkpt>
      <trkpt lat="45.59956" lon="2.99222">
        <ele>949</ele>
        <time>2022-08-17T14:56:38Z</time>
      </trkpt>
      <trkpt lat="45.59962" lon="2.99204">
        <ele>949</ele>
        <time>2022-08-17T14:56:40Z</time>
      </trkpt>
      <trkpt lat="45.59964" lon="2.99197">
        <ele>949</ele>
        <time>2022-08-17T14:56:42Z</time>
      </trkpt>
      <trkpt lat="45.59966" lon="2.9919">
        <ele>949</ele>
        <time>2022-08-17T14:56:44Z</time>
      </trkpt>
      <trkpt lat="45.59968" lon="2.99183">
        <ele>949</ele>
        <time>2022-08-17T14:56:45Z</time>
      </trkpt>
      <trkpt lat="45.5997" lon="2.99176">
        <ele>949</ele>
        <time>2022-08-17T14:56:47Z</time>
      </trkpt>
      <trkpt lat="45.59972" lon="2.99169">
        <ele>951</ele>
        <time>2022-08-17T14:56:48Z</time>
      </trkpt>
      <trkpt lat="45.59976" lon="2.99157">
        <ele>951</ele>
        <time>2022-08-17T14:56:49Z</time>
      </trkpt>
      <trkpt lat="45.59979" lon="2.99149">
        <ele>951</ele>
        <time>2022-08-17T14:56:51Z</time>
      </trkpt>
      <trkpt lat="45.59982" lon="2.99141">
        <ele>951</ele>
        <time>2022-08-17T14:56:53Z</time>
      </trkpt>
      <trkpt lat="45.59985" lon="2.99133">
        <ele>951</ele>
        <time>2022-08-17T14:56:55Z</time>
      </trkpt>
      <trkpt lat="45.59988" lon="2.99125">
        <ele>951</ele>
        <time>2022-08-17T14:56:57Z</time>
      </trkpt>
      <trkpt lat="45.5999" lon="2.99117">
        <ele>951</ele>
        <time>2022-08-17T14:56:58Z</time>
      </trkpt>
      <trkpt lat="45.59995" lon="2.99101">
        <ele>951</ele>
        <time>2022-08-17T14:56:59Z</time>
      </trkpt>
      <trkpt lat="45.59997" lon="2.99092">
        <ele>951</ele>
        <time>2022-08-17T14:57:00Z</time>
      </trkpt>
      <trkpt lat="45.59999" lon="2.99083">
        <ele>951</ele>
        <time>2022-08-17T14:57:01Z</time>
      </trkpt>
      <trkpt lat="45.60001" lon="2.99074">
        <ele>951</ele>
        <time>2022-08-17T14:57:03Z</time>
      </trkpt>
      <trkpt lat="45.60003" lon="2.99065">
        <ele>951</ele>
        <time>2022-08-17T14:57:04Z</time>
      </trkpt>
      <trkpt lat="45.60005" lon="2.99056">
        <ele>951</ele>
        <time>2022-08-17T14:57:05Z</time>
      </trkpt>
      <trkpt lat="45.60007" lon="2.99047">
        <ele>951</ele>
        <time>2022-08-17T14:57:06Z</time>
      </trkpt>
      <trkpt lat="45.60009" lon="2.99038">
        <ele>951</ele>
        <time>2022-08-17T14:57:07Z</time>
      </trkpt>
      <trkpt lat="45.60011" lon="2.99029">
        <ele>950</ele>
        <time>2022-08-17T14:57:08Z</time>
      </trkpt>
      <trkpt lat="45.60014" lon="2.99009">
        <ele>950</ele>
        <time>2022-08-17T14:57:09Z</time>
      </trkpt>
      <trkpt lat="45.60015" lon="2.99">
        <ele>950</ele>
        <time>2022-08-17T14:57:10Z</time>
      </trkpt>
      <trkpt lat="45.60017" lon="2.98991">
        <ele>950</ele>
        <time>2022-08-17T14:57:11Z</time>
      </trkpt>
      <trkpt lat="45.60019" lon="2.98981">
        <ele>950</ele>
        <time>2022-08-17T14:57:12Z</time>
      </trkpt>
      <trkpt lat="45.60021" lon="2.98972">
        <ele>950</ele>
        <time>2022-08-17T14:57:13Z</time>
      </trkpt>
      <trkpt lat="45.60023" lon="2.98963">
        <ele>950</ele>
        <time>2022-08-17T14:57:14Z</time>
      </trkpt>
      <trkpt lat="45.60025" lon="2.98953">
        <ele>950</ele>
        <time>2022-08-17T14:57:15Z</time>
      </trkpt>
      <trkpt lat="45.60027" lon="2.98944">
        <ele>950</ele>
        <time>2022-08-17T14:57:16Z</time>
      </trkpt>
      <trkpt lat="45.60028" lon="2.98935">
        <ele>950</ele>
        <time>2022-08-17T14:57:17Z</time>
      </trkpt>
      <trkpt lat="45.6003" lon="2.98925">
        <ele>948</ele>
        <time>2022-08-17T14:57:18Z</time>
      </trkpt>
      <trkpt lat="45.60036" lon="2.98896">
        <ele>948</ele>
        <time>2022-08-17T14:57:20Z</time>
      </trkpt>
      <trkpt lat="45.60039" lon="2.98885">
        <ele>948</ele>
        <time>2022-08-17T14:57:21Z</time>
      </trkpt>
      <trkpt lat="45.60041" lon="2.98875">
        <ele>948</ele>
        <time>2022-08-17T14:57:22Z</time>
      </trkpt>
      <trkpt lat="45.60044" lon="2.98865">
        <ele>948</ele>
        <time>2022-08-17T14:57:23Z</time>
      </trkpt>
      <trkpt lat="45.60046" lon="2.98854">
        <ele>948</ele>
        <time>2022-08-17T14:57:25Z</time>
      </trkpt>
      <trkpt lat="45.60049" lon="2.98844">
        <ele>948</ele>
        <time>2022-08-17T14:57:27Z</time>
      </trkpt>
      <trkpt lat="45.60051" lon="2.98834">
        <ele>946</ele>
        <time>2022-08-17T14:57:28Z</time>
      </trkpt>
      <trkpt lat="45.60056" lon="2.98817">
        <ele>946</ele>
        <time>2022-08-17T14:57:29Z</time>
      </trkpt>
      <trkpt lat="45.60058" lon="2.9881">
        <ele>946</ele>
        <time>2022-08-17T14:57:31Z</time>
      </trkpt>
      <trkpt lat="45.6006" lon="2.98802">
        <ele>946</ele>
        <time>2022-08-17T14:57:32Z</time>
      </trkpt>
      <trkpt lat="45.60062" lon="2.98794">
        <ele>946</ele>
        <time>2022-08-17T14:57:33Z</time>
      </trkpt>
      <trkpt lat="45.60065" lon="2.98786">
        <ele>946</ele>
        <time>2022-08-17T14:57:34Z</time>
      </trkpt>
      <trkpt lat="45.60067" lon="2.98778">
        <ele>946</ele>
        <time>2022-08-17T14:57:35Z</time>
      </trkpt>
      <trkpt lat="45.60069" lon="2.98771">
        <ele>946</ele>
        <time>2022-08-17T14:57:36Z</time>
      </trkpt>
      <trkpt lat="45.60072" lon="2.98763">
        <ele>946</ele>
        <time>2022-08-17T14:57:37Z</time>
      </trkpt>
      <trkpt lat="45.60074" lon="2.98755">
        <ele>946</ele>
        <time>2022-08-17T14:57:38Z</time>
      </trkpt>
      <trkpt lat="45.60078" lon="2.98741">
        <ele>946</ele>
        <time>2022-08-17T14:57:39Z</time>
      </trkpt>
      <trkpt lat="45.6008" lon="2.98734">
        <ele>946</ele>
        <time>2022-08-17T14:57:40Z</time>
      </trkpt>
      <trkpt lat="45.60082" lon="2.98727">
        <ele>946</ele>
        <time>2022-08-17T14:57:41Z</time>
      </trkpt>
      <trkpt lat="45.60084" lon="2.9872">
        <ele>946</ele>
        <time>2022-08-17T14:57:42Z</time>
      </trkpt>
      <trkpt lat="45.60087" lon="2.98713">
        <ele>946</ele>
        <time>2022-08-17T14:57:43Z</time>
      </trkpt>
      <trkpt lat="45.60089" lon="2.98706">
        <ele>946</ele>
        <time>2022-08-17T14:57:45Z</time>
      </trkpt>
      <trkpt lat="45.60091" lon="2.98699">
        <ele>946</ele>
        <time>2022-08-17T14:57:46Z</time>
      </trkpt>
      <trkpt lat="45.60093" lon="2.98692">
        <ele>946</ele>
        <time>2022-08-17T14:57:47Z</time>
      </trkpt>
      <trkpt lat="45.60095" lon="2.98685">
        <ele>946</ele>
        <time>2022-08-17T14:57:48Z</time>
      </trkpt>
      <trkpt lat="45.60098" lon="2.98671">
        <ele>946</ele>
        <time>2022-08-17T14:57:49Z</time>
      </trkpt>
      <trkpt lat="45.601" lon="2.98665">
        <ele>946</ele>
        <time>2022-08-17T14:57:50Z</time>
      </trkpt>
      <trkpt lat="45.60101" lon="2.98658">
        <ele>946</ele>
        <time>2022-08-17T14:57:51Z</time>
      </trkpt>
      <trkpt lat="45.60103" lon="2.98652">
        <ele>946</ele>
        <time>2022-08-17T14:57:52Z</time>
      </trkpt>
      <trkpt lat="45.60105" lon="2.98645">
        <ele>946</ele>
        <time>2022-08-17T14:57:53Z</time>
      </trkpt>
      <trkpt lat="45.60106" lon="2.98639">
        <ele>946</ele>
        <time>2022-08-17T14:57:54Z</time>
      </trkpt>
      <trkpt lat="45.60108" lon="2.98632">
        <ele>946</ele>
        <time>2022-08-17T14:57:55Z</time>
      </trkpt>
      <trkpt lat="45.60109" lon="2.98626">
        <ele>946</ele>
        <time>2022-08-17T14:57:56Z</time>
      </trkpt>
      <trkpt lat="45.60111" lon="2.9862">
        <ele>946</ele>
        <time>2022-08-17T14:57:57Z</time>
      </trkpt>
      <trkpt lat="45.60112" lon="2.98613">
        <ele>946</ele>
        <time>2022-08-17T14:57:58Z</time>
      </trkpt>
      <trkpt lat="45.60112" lon="2.98597">
        <ele>946</ele>
        <time>2022-08-17T14:57:59Z</time>
      </trkpt>
      <trkpt lat="45.60112" lon="2.9859">
        <ele>946</ele>
        <time>2022-08-17T14:58:00Z</time>
      </trkpt>
      <trkpt lat="45.60111" lon="2.98582">
        <ele>946</ele>
        <time>2022-08-17T14:58:01Z</time>
      </trkpt>
      <trkpt lat="45.6011" lon="2.98575">
        <ele>946</ele>
        <time>2022-08-17T14:58:03Z</time>
      </trkpt>
      <trkpt lat="45.6011" lon="2.98567">
        <ele>946</ele>
        <time>2022-08-17T14:58:05Z</time>
      </trkpt>
      <trkpt lat="45.60109" lon="2.98559">
        <ele>946</ele>
        <time>2022-08-17T14:58:07Z</time>
      </trkpt>
      <trkpt lat="45.60109" lon="2.98552">
        <ele>948</ele>
        <time>2022-08-17T14:58:08Z</time>
      </trkpt>
      <trkpt lat="45.60108" lon="2.9854">
        <ele>948</ele>
        <time>2022-08-17T14:58:10Z</time>
      </trkpt>
      <trkpt lat="45.60108" lon="2.98535">
        <ele>948</ele>
        <time>2022-08-17T14:58:11Z</time>
      </trkpt>
      <trkpt lat="45.60109" lon="2.9853">
        <ele>948</ele>
        <time>2022-08-17T14:58:13Z</time>
      </trkpt>
      <trkpt lat="45.60109" lon="2.98525">
        <ele>948</ele>
        <time>2022-08-17T14:58:16Z</time>
      </trkpt>
      <trkpt lat="45.60109" lon="2.9852">
        <ele>948</ele>
        <time>2022-08-17T14:58:18Z</time>
      </trkpt>
      <trkpt lat="45.60106" lon="2.98512">
        <ele>948</ele>
        <time>2022-08-17T14:58:19Z</time>
      </trkpt>
      <trkpt lat="45.60105" lon="2.98508">
        <ele>948</ele>
        <time>2022-08-17T14:58:21Z</time>
      </trkpt>
      <trkpt lat="45.60104" lon="2.98505">
        <ele>948</ele>
        <time>2022-08-17T14:58:23Z</time>
      </trkpt>
      <trkpt lat="45.60103" lon="2.98501">
        <ele>948</ele>
        <time>2022-08-17T14:58:26Z</time>
      </trkpt>
      <trkpt lat="45.60102" lon="2.98498">
        <ele>947</ele>
        <time>2022-08-17T14:58:28Z</time>
      </trkpt>
      <trkpt lat="45.60102" lon="2.98491">
        <ele>947</ele>
        <time>2022-08-17T14:58:30Z</time>
      </trkpt>
      <trkpt lat="45.60102" lon="2.98485">
        <ele>947</ele>
        <time>2022-08-17T14:58:33Z</time>
      </trkpt>
      <trkpt lat="45.60102" lon="2.9848">
        <ele>947</ele>
        <time>2022-08-17T14:58:36Z</time>
      </trkpt>
      <trkpt lat="45.60102" lon="2.9848">
        <ele>948</ele>
        <time>2022-08-17T14:58:38Z</time>
      </trkpt>
      <trkpt lat="45.60104" lon="2.98474">
        <ele>948</ele>
        <time>2022-08-17T14:58:41Z</time>
      </trkpt>
      <trkpt lat="45.60104" lon="2.98468">
        <ele>948</ele>
        <time>2022-08-17T14:58:45Z</time>
      </trkpt>
      <trkpt lat="45.60104" lon="2.98468">
        <ele>949</ele>
        <time>2022-08-17T14:58:48Z</time>
      </trkpt>
      <trkpt lat="45.60103" lon="2.98481">
        <ele>949</ele>
        <time>2022-08-17T14:58:51Z</time>
      </trkpt>
      <trkpt lat="45.60104" lon="2.98487">
        <ele>949</ele>
        <time>2022-08-17T14:58:53Z</time>
      </trkpt>
      <trkpt lat="45.60104" lon="2.98493">
        <ele>949</ele>
        <time>2022-08-17T14:58:54Z</time>
      </trkpt>
      <trkpt lat="45.60105" lon="2.98499">
        <ele>949</ele>
        <time>2022-08-17T14:58:55Z</time>
      </trkpt>
      <trkpt lat="45.60106" lon="2.98504">
        <ele>949</ele>
        <time>2022-08-17T14:58:56Z</time>
      </trkpt>
      <trkpt lat="45.60107" lon="2.9851">
        <ele>949</ele>
        <time>2022-08-17T14:58:57Z</time>
      </trkpt>
      <trkpt lat="45.60107" lon="2.98516">
        <ele>949</ele>
        <time>2022-08-17T14:58:58Z</time>
      </trkpt>
      <trkpt lat="45.60115" lon="2.98529">
        <ele>949</ele>
        <time>2022-08-17T14:58:59Z</time>
      </trkpt>
      <trkpt lat="45.60119" lon="2.98535">
        <ele>949</ele>
        <time>2022-08-17T14:59:00Z</time>
      </trkpt>
      <trkpt lat="45.60124" lon="2.98542">
        <ele>949</ele>
        <time>2022-08-17T14:59:01Z</time>
      </trkpt>
      <trkpt lat="45.60128" lon="2.98549">
        <ele>949</ele>
        <time>2022-08-17T14:59:02Z</time>
      </trkpt>
      <trkpt lat="45.60133" lon="2.98556">
        <ele>949</ele>
        <time>2022-08-17T14:59:03Z</time>
      </trkpt>
      <trkpt lat="45.60137" lon="2.98563">
        <ele>949</ele>
        <time>2022-08-17T14:59:04Z</time>
      </trkpt>
      <trkpt lat="45.60141" lon="2.9857">
        <ele>949</ele>
        <time>2022-08-17T14:59:05Z</time>
      </trkpt>
      <trkpt lat="45.60146" lon="2.98577">
        <ele>949</ele>
        <time>2022-08-17T14:59:06Z</time>
      </trkpt>
      <trkpt lat="45.6015" lon="2.98584">
        <ele>949</ele>
        <time>2022-08-17T14:59:07Z</time>
      </trkpt>
      <trkpt lat="45.60155" lon="2.9859">
        <ele>948</ele>
        <time>2022-08-17T14:59:08Z</time>
      </trkpt>
      <trkpt lat="45.60156" lon="2.98603">
        <ele>948</ele>
        <time>2022-08-17T14:59:09Z</time>
      </trkpt>
      <trkpt lat="45.60157" lon="2.98617">
        <ele>948</ele>
        <time>2022-08-17T14:59:10Z</time>
      </trkpt>
      <trkpt lat="45.6016" lon="2.98645">
        <ele>948</ele>
        <time>2022-08-17T14:59:12Z</time>
      </trkpt>
      <trkpt lat="45.60162" lon="2.98659">
        <ele>948</ele>
        <time>2022-08-17T14:59:13Z</time>
      </trkpt>
      <trkpt lat="45.60166" lon="2.98673">
        <ele>948</ele>
        <time>2022-08-17T14:59:14Z</time>
      </trkpt>
      <trkpt lat="45.60169" lon="2.98688">
        <ele>948</ele>
        <time>2022-08-17T14:59:15Z</time>
      </trkpt>
      <trkpt lat="45.60174" lon="2.98702">
        <ele>948</ele>
        <time>2022-08-17T14:59:16Z</time>
      </trkpt>
      <trkpt lat="45.60178" lon="2.98717">
        <ele>948</ele>
        <time>2022-08-17T14:59:17Z</time>
      </trkpt>
      <trkpt lat="45.60182" lon="2.98732">
        <ele>941</ele>
        <time>2022-08-17T14:59:18Z</time>
      </trkpt>
      <trkpt lat="45.60186" lon="2.98747">
        <ele>941</ele>
        <time>2022-08-17T14:59:19Z</time>
      </trkpt>
      <trkpt lat="45.60189" lon="2.98761">
        <ele>941</ele>
        <time>2022-08-17T14:59:20Z</time>
      </trkpt>
      <trkpt lat="45.60193" lon="2.98775">
        <ele>941</ele>
        <time>2022-08-17T14:59:21Z</time>
      </trkpt>
      <trkpt lat="45.60195" lon="2.9879">
        <ele>941</ele>
        <time>2022-08-17T14:59:22Z</time>
      </trkpt>
      <trkpt lat="45.60195" lon="2.98806">
        <ele>941</ele>
        <time>2022-08-17T14:59:23Z</time>
      </trkpt>
      <trkpt lat="45.60193" lon="2.98821">
        <ele>941</ele>
        <time>2022-08-17T14:59:24Z</time>
      </trkpt>
      <trkpt lat="45.60187" lon="2.98836">
        <ele>941</ele>
        <time>2022-08-17T14:59:25Z</time>
      </trkpt>
      <trkpt lat="45.60184" lon="2.98851">
        <ele>941</ele>
        <time>2022-08-17T14:59:26Z</time>
      </trkpt>
      <trkpt lat="45.60178" lon="2.98874">
        <ele>941</ele>
        <time>2022-08-17T14:59:27Z</time>
      </trkpt>
      <trkpt lat="45.60176" lon="2.98881">
        <ele>932</ele>
        <time>2022-08-17T14:59:28Z</time>
      </trkpt>
      <trkpt lat="45.60171" lon="2.98911">
        <ele>932</ele>
        <time>2022-08-17T14:59:29Z</time>
      </trkpt>
      <trkpt lat="45.60169" lon="2.98925">
        <ele>932</ele>
        <time>2022-08-17T14:59:30Z</time>
      </trkpt>
      <trkpt lat="45.60168" lon="2.9894">
        <ele>932</ele>
        <time>2022-08-17T14:59:31Z</time>
      </trkpt>
      <trkpt lat="45.60166" lon="2.98954">
        <ele>932</ele>
        <time>2022-08-17T14:59:32Z</time>
      </trkpt>
      <trkpt lat="45.60165" lon="2.98969">
        <ele>932</ele>
        <time>2022-08-17T14:59:33Z</time>
      </trkpt>
      <trkpt lat="45.60163" lon="2.98983">
        <ele>932</ele>
        <time>2022-08-17T14:59:34Z</time>
      </trkpt>
      <trkpt lat="45.60161" lon="2.98998">
        <ele>932</ele>
        <time>2022-08-17T14:59:36Z</time>
      </trkpt>
      <trkpt lat="45.6016" lon="2.99013">
        <ele>927</ele>
        <time>2022-08-17T14:59:38Z</time>
      </trkpt>
      <trkpt lat="45.60172" lon="2.99019">
        <ele>927</ele>
        <time>2022-08-17T14:59:40Z</time>
      </trkpt>
      <trkpt lat="45.60176" lon="2.99007">
        <ele>927</ele>
        <time>2022-08-17T14:59:41Z</time>
      </trkpt>
      <trkpt lat="45.6018" lon="2.98994">
        <ele>927</ele>
        <time>2022-08-17T14:59:42Z</time>
      </trkpt>
      <trkpt lat="45.60183" lon="2.98982">
        <ele>927</ele>
        <time>2022-08-17T14:59:44Z</time>
      </trkpt>
      <trkpt lat="45.60187" lon="2.98969">
        <ele>927</ele>
        <time>2022-08-17T14:59:45Z</time>
      </trkpt>
      <trkpt lat="45.60191" lon="2.98957">
        <ele>927</ele>
        <time>2022-08-17T14:59:46Z</time>
      </trkpt>
      <trkpt lat="45.60194" lon="2.98944">
        <ele>927</ele>
        <time>2022-08-17T14:59:47Z</time>
      </trkpt>
      <trkpt lat="45.60198" lon="2.98932">
        <ele>920</ele>
        <time>2022-08-17T14:59:48Z</time>
      </trkpt>
      <trkpt lat="45.602" lon="2.98916">
        <ele>920</ele>
        <time>2022-08-17T14:59:49Z</time>
      </trkpt>
      <trkpt lat="45.60203" lon="2.98899">
        <ele>920</ele>
        <time>2022-08-17T14:59:50Z</time>
      </trkpt>
      <trkpt lat="45.60208" lon="2.98884">
        <ele>920</ele>
        <time>2022-08-17T14:59:51Z</time>
      </trkpt>
      <trkpt lat="45.60217" lon="2.98852">
        <ele>920</ele>
        <time>2022-08-17T14:59:53Z</time>
      </trkpt>
      <trkpt lat="45.60223" lon="2.98838">
        <ele>920</ele>
        <time>2022-08-17T14:59:54Z</time>
      </trkpt>
      <trkpt lat="45.60228" lon="2.98823">
        <ele>920</ele>
        <time>2022-08-17T14:59:55Z</time>
      </trkpt>
      <trkpt lat="45.60235" lon="2.9881">
        <ele>920</ele>
        <time>2022-08-17T14:59:56Z</time>
      </trkpt>
      <trkpt lat="45.60246" lon="2.9879">
        <ele>920</ele>
        <time>2022-08-17T14:59:57Z</time>
      </trkpt>
      <trkpt lat="45.6025" lon="2.98784">
        <ele>912</ele>
        <time>2022-08-17T14:59:58Z</time>
      </trkpt>
      <trkpt lat="45.60258" lon="2.9877">
        <ele>912</ele>
        <time>2022-08-17T14:59:59Z</time>
      </trkpt>
      <trkpt lat="45.60264" lon="2.98757">
        <ele>912</ele>
        <time>2022-08-17T15:00:00Z</time>
      </trkpt>
      <trkpt lat="45.6027" lon="2.98742">
        <ele>912</ele>
        <time>2022-08-17T15:00:01Z</time>
      </trkpt>
      <trkpt lat="45.60275" lon="2.98726">
        <ele>912</ele>
        <time>2022-08-17T15:00:02Z</time>
      </trkpt>
      <trkpt lat="45.6028" lon="2.9871">
        <ele>912</ele>
        <time>2022-08-17T15:00:03Z</time>
      </trkpt>
      <trkpt lat="45.60285" lon="2.98694">
        <ele>912</ele>
        <time>2022-08-17T15:00:04Z</time>
      </trkpt>
      <trkpt lat="45.6029" lon="2.98678">
        <ele>912</ele>
        <time>2022-08-17T15:00:05Z</time>
      </trkpt>
      <trkpt lat="45.60296" lon="2.9865">
        <ele>912</ele>
        <time>2022-08-17T15:00:06Z</time>
      </trkpt>
      <trkpt lat="45.60298" lon="2.98639">
        <ele>912</ele>
        <time>2022-08-17T15:00:07Z</time>
      </trkpt>
      <trkpt lat="45.603" lon="2.98628">
        <ele>904</ele>
        <time>2022-08-17T15:00:08Z</time>
      </trkpt>
      <trkpt lat="45.60304" lon="2.98612">
        <ele>904</ele>
        <time>2022-08-17T15:00:09Z</time>
      </trkpt>
      <trkpt lat="45.60307" lon="2.98596">
        <ele>904</ele>
        <time>2022-08-17T15:00:10Z</time>
      </trkpt>
      <trkpt lat="45.6031" lon="2.98581">
        <ele>904</ele>
        <time>2022-08-17T15:00:11Z</time>
      </trkpt>
      <trkpt lat="45.60313" lon="2.98565">
        <ele>904</ele>
        <time>2022-08-17T15:00:12Z</time>
      </trkpt>
      <trkpt lat="45.60316" lon="2.98549">
        <ele>904</ele>
        <time>2022-08-17T15:00:13Z</time>
      </trkpt>
      <trkpt lat="45.60319" lon="2.98534">
        <ele>904</ele>
        <time>2022-08-17T15:00:14Z</time>
      </trkpt>
      <trkpt lat="45.60322" lon="2.98518">
        <ele>904</ele>
        <time>2022-08-17T15:00:15Z</time>
      </trkpt>
      <trkpt lat="45.60325" lon="2.98503">
        <ele>904</ele>
        <time>2022-08-17T15:00:16Z</time>
      </trkpt>
      <trkpt lat="45.60329" lon="2.98481">
        <ele>904</ele>
        <time>2022-08-17T15:00:17Z</time>
      </trkpt>
      <trkpt lat="45.60331" lon="2.98473">
        <ele>896</ele>
        <time>2022-08-17T15:00:18Z</time>
      </trkpt>
      <trkpt lat="45.60335" lon="2.98458">
        <ele>896</ele>
        <time>2022-08-17T15:00:19Z</time>
      </trkpt>
      <trkpt lat="45.6034" lon="2.98444">
        <ele>896</ele>
        <time>2022-08-17T15:00:20Z</time>
      </trkpt>
      <trkpt lat="45.60345" lon="2.98431">
        <ele>896</ele>
        <time>2022-08-17T15:00:21Z</time>
      </trkpt>
      <trkpt lat="45.60352" lon="2.98419">
        <ele>896</ele>
        <time>2022-08-17T15:00:22Z</time>
      </trkpt>
      <trkpt lat="45.60359" lon="2.98408">
        <ele>896</ele>
        <time>2022-08-17T15:00:23Z</time>
      </trkpt>
      <trkpt lat="45.60368" lon="2.984">
        <ele>896</ele>
        <time>2022-08-17T15:00:24Z</time>
      </trkpt>
      <trkpt lat="45.60377" lon="2.98394">
        <ele>896</ele>
        <time>2022-08-17T15:00:25Z</time>
      </trkpt>
      <trkpt lat="45.60388" lon="2.98388">
        <ele>896</ele>
        <time>2022-08-17T15:00:26Z</time>
      </trkpt>
      <trkpt lat="45.60405" lon="2.9838">
        <ele>896</ele>
        <time>2022-08-17T15:00:27Z</time>
      </trkpt>
      <trkpt lat="45.6041" lon="2.98378">
        <ele>889</ele>
        <time>2022-08-17T15:00:28Z</time>
      </trkpt>
      <trkpt lat="45.60421" lon="2.98375">
        <ele>889</ele>
        <time>2022-08-17T15:00:29Z</time>
      </trkpt>
      <trkpt lat="45.60433" lon="2.98374">
        <ele>889</ele>
        <time>2022-08-17T15:00:30Z</time>
      </trkpt>
      <trkpt lat="45.60444" lon="2.98371">
        <ele>889</ele>
        <time>2022-08-17T15:00:31Z</time>
      </trkpt>
      <trkpt lat="45.60454" lon="2.98367">
        <ele>889</ele>
        <time>2022-08-17T15:00:32Z</time>
      </trkpt>
      <trkpt lat="45.60465" lon="2.9836">
        <ele>889</ele>
        <time>2022-08-17T15:00:33Z</time>
      </trkpt>
      <trkpt lat="45.60475" lon="2.98352">
        <ele>889</ele>
        <time>2022-08-17T15:00:34Z</time>
      </trkpt>
      <trkpt lat="45.60485" lon="2.98344">
        <ele>889</ele>
        <time>2022-08-17T15:00:35Z</time>
      </trkpt>
      <trkpt lat="45.60494" lon="2.98336">
        <ele>889</ele>
        <time>2022-08-17T15:00:36Z</time>
      </trkpt>
      <trkpt lat="45.60507" lon="2.98329">
        <ele>889</ele>
        <time>2022-08-17T15:00:37Z</time>
      </trkpt>
      <trkpt lat="45.60512" lon="2.98329">
        <ele>881</ele>
        <time>2022-08-17T15:00:38Z</time>
      </trkpt>
      <trkpt lat="45.60527" lon="2.98338">
        <ele>881</ele>
        <time>2022-08-17T15:00:39Z</time>
      </trkpt>
      <trkpt lat="45.60533" lon="2.98346">
        <ele>881</ele>
        <time>2022-08-17T15:00:40Z</time>
      </trkpt>
      <trkpt lat="45.60539" lon="2.98354">
        <ele>881</ele>
        <time>2022-08-17T15:00:42Z</time>
      </trkpt>
      <trkpt lat="45.60545" lon="2.98363">
        <ele>881</ele>
        <time>2022-08-17T15:00:44Z</time>
      </trkpt>
      <trkpt lat="45.60551" lon="2.98371">
        <ele>881</ele>
        <time>2022-08-17T15:00:45Z</time>
      </trkpt>
      <trkpt lat="45.60557" lon="2.9838">
        <ele>881</ele>
        <time>2022-08-17T15:00:46Z</time>
      </trkpt>
      <trkpt lat="45.60563" lon="2.98388">
        <ele>881</ele>
        <time>2022-08-17T15:00:47Z</time>
      </trkpt>
      <trkpt lat="45.60569" lon="2.98396">
        <ele>880</ele>
        <time>2022-08-17T15:00:48Z</time>
      </trkpt>
      <trkpt lat="45.60569" lon="2.98414">
        <ele>880</ele>
        <time>2022-08-17T15:00:49Z</time>
      </trkpt>
      <trkpt lat="45.60568" lon="2.98423">
        <ele>880</ele>
        <time>2022-08-17T15:00:51Z</time>
      </trkpt>
      <trkpt lat="45.60568" lon="2.98432">
        <ele>880</ele>
        <time>2022-08-17T15:00:52Z</time>
      </trkpt>
      <trkpt lat="45.60567" lon="2.98441">
        <ele>880</ele>
        <time>2022-08-17T15:00:53Z</time>
      </trkpt>
      <trkpt lat="45.60566" lon="2.9845">
        <ele>880</ele>
        <time>2022-08-17T15:00:55Z</time>
      </trkpt>
      <trkpt lat="45.60566" lon="2.98459">
        <ele>880</ele>
        <time>2022-08-17T15:00:57Z</time>
      </trkpt>
      <trkpt lat="45.60565" lon="2.98468">
        <ele>884</ele>
        <time>2022-08-17T15:00:58Z</time>
      </trkpt>
      <trkpt lat="45.60564" lon="2.9848">
        <ele>884</ele>
        <time>2022-08-17T15:00:59Z</time>
      </trkpt>
      <trkpt lat="45.60564" lon="2.98486">
        <ele>884</ele>
        <time>2022-08-17T15:01:00Z</time>
      </trkpt>
      <trkpt lat="45.60564" lon="2.98491">
        <ele>884</ele>
        <time>2022-08-17T15:01:01Z</time>
      </trkpt>
      <trkpt lat="45.60564" lon="2.98497">
        <ele>884</ele>
        <time>2022-08-17T15:01:02Z</time>
      </trkpt>
      <trkpt lat="45.60564" lon="2.98503">
        <ele>884</ele>
        <time>2022-08-17T15:01:03Z</time>
      </trkpt>
      <trkpt lat="45.60564" lon="2.98508">
        <ele>884</ele>
        <time>2022-08-17T15:01:04Z</time>
      </trkpt>
      <trkpt lat="45.60563" lon="2.98514">
        <ele>884</ele>
        <time>2022-08-17T15:01:05Z</time>
      </trkpt>
      <trkpt lat="45.60563" lon="2.98519">
        <ele>884</ele>
        <time>2022-08-17T15:01:06Z</time>
      </trkpt>
      <trkpt lat="45.60563" lon="2.98525">
        <ele>884</ele>
        <time>2022-08-17T15:01:07Z</time>
      </trkpt>
      <trkpt lat="45.60563" lon="2.9853">
        <ele>887</ele>
        <time>2022-08-17T15:01:08Z</time>
      </trkpt>
      <trkpt lat="45.60564" lon="2.98544">
        <ele>887</ele>
        <time>2022-08-17T15:01:09Z</time>
      </trkpt>
      <trkpt lat="45.60565" lon="2.98551">
        <ele>887</ele>
        <time>2022-08-17T15:01:11Z</time>
      </trkpt>
      <trkpt lat="45.60566" lon="2.98559">
        <ele>887</ele>
        <time>2022-08-17T15:01:12Z</time>
      </trkpt>
      <trkpt lat="45.60567" lon="2.98566">
        <ele>887</ele>
        <time>2022-08-17T15:01:13Z</time>
      </trkpt>
      <trkpt lat="45.60568" lon="2.98574">
        <ele>887</ele>
        <time>2022-08-17T15:01:15Z</time>
      </trkpt>
      <trkpt lat="45.60569" lon="2.98581">
        <ele>887</ele>
        <time>2022-08-17T15:01:17Z</time>
      </trkpt>
      <trkpt lat="45.60569" lon="2.98589">
        <ele>890</ele>
        <time>2022-08-17T15:01:18Z</time>
      </trkpt>
      <trkpt lat="45.6057" lon="2.98601">
        <ele>890</ele>
        <time>2022-08-17T15:01:19Z</time>
      </trkpt>
      <trkpt lat="45.60569" lon="2.98607">
        <ele>890</ele>
        <time>2022-08-17T15:01:20Z</time>
      </trkpt>
      <trkpt lat="45.60568" lon="2.98613">
        <ele>890</ele>
        <time>2022-08-17T15:01:21Z</time>
      </trkpt>
      <trkpt lat="45.60568" lon="2.98619">
        <ele>890</ele>
        <time>2022-08-17T15:01:22Z</time>
      </trkpt>
      <trkpt lat="45.60567" lon="2.98625">
        <ele>890</ele>
        <time>2022-08-17T15:01:23Z</time>
      </trkpt>
      <trkpt lat="45.60567" lon="2.98631">
        <ele>890</ele>
        <time>2022-08-17T15:01:25Z</time>
      </trkpt>
      <trkpt lat="45.60566" lon="2.98637">
        <ele>890</ele>
        <time>2022-08-17T15:01:27Z</time>
      </trkpt>
      <trkpt lat="45.60566" lon="2.98643">
        <ele>892</ele>
        <time>2022-08-17T15:01:28Z</time>
      </trkpt>
      <trkpt lat="45.60564" lon="2.98654">
        <ele>892</ele>
        <time>2022-08-17T15:01:29Z</time>
      </trkpt>
      <trkpt lat="45.60563" lon="2.98661">
        <ele>892</ele>
        <time>2022-08-17T15:01:31Z</time>
      </trkpt>
      <trkpt lat="45.60562" lon="2.98667">
        <ele>892</ele>
        <time>2022-08-17T15:01:33Z</time>
      </trkpt>
      <trkpt lat="45.60561" lon="2.98674">
        <ele>892</ele>
        <time>2022-08-17T15:01:36Z</time>
      </trkpt>
      <trkpt lat="45.6056" lon="2.9868">
        <ele>892</ele>
        <time>2022-08-17T15:01:37Z</time>
      </trkpt>
      <trkpt lat="45.60559" lon="2.98687">
        <ele>892</ele>
        <time>2022-08-17T15:01:38Z</time>
      </trkpt>
      <trkpt lat="45.60562" lon="2.98697">
        <ele>892</ele>
        <time>2022-08-17T15:01:39Z</time>
      </trkpt>
      <trkpt lat="45.60564" lon="2.98702">
        <ele>892</ele>
        <time>2022-08-17T15:01:41Z</time>
      </trkpt>
      <trkpt lat="45.60566" lon="2.98708">
        <ele>892</ele>
        <time>2022-08-17T15:01:43Z</time>
      </trkpt>
      <trkpt lat="45.60567" lon="2.98713">
        <ele>892</ele>
        <time>2022-08-17T15:01:45Z</time>
      </trkpt>
      <trkpt lat="45.60569" lon="2.98719">
        <ele>892</ele>
        <time>2022-08-17T15:01:47Z</time>
      </trkpt>
      <trkpt lat="45.60571" lon="2.98724">
        <ele>894</ele>
        <time>2022-08-17T15:01:48Z</time>
      </trkpt>
      <trkpt lat="45.60572" lon="2.98728">
        <ele>894</ele>
        <time>2022-08-17T15:01:49Z</time>
      </trkpt>
      <trkpt lat="45.60574" lon="2.98735">
        <ele>894</ele>
        <time>2022-08-17T15:01:51Z</time>
      </trkpt>
      <trkpt lat="45.60579" lon="2.98745">
        <ele>894</ele>
        <time>2022-08-17T15:01:54Z</time>
      </trkpt>
      <trkpt lat="45.60585" lon="2.98758">
        <ele>899</ele>
        <time>2022-08-17T15:01:58Z</time>
      </trkpt>
      <trkpt lat="45.60592" lon="2.98772">
        <ele>899</ele>
        <time>2022-08-17T15:02:01Z</time>
      </trkpt>
      <trkpt lat="45.60595" lon="2.98776">
        <ele>899</ele>
        <time>2022-08-17T15:02:03Z</time>
      </trkpt>
      <trkpt lat="45.60598" lon="2.98779">
        <ele>899</ele>
        <time>2022-08-17T15:02:05Z</time>
      </trkpt>
      <trkpt lat="45.60601" lon="2.98783">
        <ele>899</ele>
        <time>2022-08-17T15:02:07Z</time>
      </trkpt>
      <trkpt lat="45.60604" lon="2.98786">
        <ele>901</ele>
        <time>2022-08-17T15:02:08Z</time>
      </trkpt>
      <trkpt lat="45.60609" lon="2.98792">
        <ele>901</ele>
        <time>2022-08-17T15:02:09Z</time>
      </trkpt>
      <trkpt lat="45.60613" lon="2.98796">
        <ele>901</ele>
        <time>2022-08-17T15:02:11Z</time>
      </trkpt>
      <trkpt lat="45.60617" lon="2.98799">
        <ele>901</ele>
        <time>2022-08-17T15:02:13Z</time>
      </trkpt>
      <trkpt lat="45.6062" lon="2.98803">
        <ele>901</ele>
        <time>2022-08-17T15:02:15Z</time>
      </trkpt>
      <trkpt lat="45.60624" lon="2.98806">
        <ele>901</ele>
        <time>2022-08-17T15:02:17Z</time>
      </trkpt>
      <trkpt lat="45.60627" lon="2.9881">
        <ele>902</ele>
        <time>2022-08-17T15:02:18Z</time>
      </trkpt>
      <trkpt lat="45.60633" lon="2.98816">
        <ele>902</ele>
        <time>2022-08-17T15:02:19Z</time>
      </trkpt>
      <trkpt lat="45.60637" lon="2.98819">
        <ele>902</ele>
        <time>2022-08-17T15:02:21Z</time>
      </trkpt>
      <trkpt lat="45.6064" lon="2.98823">
        <ele>902</ele>
        <time>2022-08-17T15:02:23Z</time>
      </trkpt>
      <trkpt lat="45.60644" lon="2.98826">
        <ele>902</ele>
        <time>2022-08-17T15:02:25Z</time>
      </trkpt>
      <trkpt lat="45.60647" lon="2.9883">
        <ele>902</ele>
        <time>2022-08-17T15:02:27Z</time>
      </trkpt>
      <trkpt lat="45.60651" lon="2.98834">
        <ele>904</ele>
        <time>2022-08-17T15:02:28Z</time>
      </trkpt>
      <trkpt lat="45.60656" lon="2.9884">
        <ele>904</ele>
        <time>2022-08-17T15:02:29Z</time>
      </trkpt>
      <trkpt lat="45.6066" lon="2.98843">
        <ele>904</ele>
        <time>2022-08-17T15:02:31Z</time>
      </trkpt>
      <trkpt lat="45.60663" lon="2.98847">
        <ele>904</ele>
        <time>2022-08-17T15:02:33Z</time>
      </trkpt>
      <trkpt lat="45.60667" lon="2.98851">
        <ele>904</ele>
        <time>2022-08-17T15:02:35Z</time>
      </trkpt>
      <trkpt lat="45.6067" lon="2.98854">
        <ele>904</ele>
        <time>2022-08-17T15:02:37Z</time>
      </trkpt>
      <trkpt lat="45.60674" lon="2.98858">
        <ele>906</ele>
        <time>2022-08-17T15:02:38Z</time>
      </trkpt>
      <trkpt lat="45.60679" lon="2.98864">
        <ele>906</ele>
        <time>2022-08-17T15:02:39Z</time>
      </trkpt>
      <trkpt lat="45.60683" lon="2.98867">
        <ele>906</ele>
        <time>2022-08-17T15:02:41Z</time>
      </trkpt>
      <trkpt lat="45.60686" lon="2.9887">
        <ele>906</ele>
        <time>2022-08-17T15:02:43Z</time>
      </trkpt>
      <trkpt lat="45.60689" lon="2.98873">
        <ele>906</ele>
        <time>2022-08-17T15:02:45Z</time>
      </trkpt>
      <trkpt lat="45.60693" lon="2.98877">
        <ele>906</ele>
        <time>2022-08-17T15:02:47Z</time>
      </trkpt>
      <trkpt lat="45.60696" lon="2.9888">
        <ele>908</ele>
        <time>2022-08-17T15:02:48Z</time>
      </trkpt>
      <trkpt lat="45.60702" lon="2.98885">
        <ele>908</ele>
        <time>2022-08-17T15:02:49Z</time>
      </trkpt>
      <trkpt lat="45.60705" lon="2.98889">
        <ele>908</ele>
        <time>2022-08-17T15:02:51Z</time>
      </trkpt>
      <trkpt lat="45.60708" lon="2.98892">
        <ele>908</ele>
        <time>2022-08-17T15:02:53Z</time>
      </trkpt>
      <trkpt lat="45.60711" lon="2.98896">
        <ele>908</ele>
        <time>2022-08-17T15:02:55Z</time>
      </trkpt>
      <trkpt lat="45.60714" lon="2.98899">
        <ele>908</ele>
        <time>2022-08-17T15:02:57Z</time>
      </trkpt>
      <trkpt lat="45.60718" lon="2.98902">
        <ele>910</ele>
        <time>2022-08-17T15:02:58Z</time>
      </trkpt>
      <trkpt lat="45.60723" lon="2.98908">
        <ele>910</ele>
        <time>2022-08-17T15:02:59Z</time>
      </trkpt>
      <trkpt lat="45.60726" lon="2.98911">
        <ele>910</ele>
        <time>2022-08-17T15:03:01Z</time>
      </trkpt>
      <trkpt lat="45.6073" lon="2.98915">
        <ele>910</ele>
        <time>2022-08-17T15:03:03Z</time>
      </trkpt>
      <trkpt lat="45.60733" lon="2.98918">
        <ele>910</ele>
        <time>2022-08-17T15:03:05Z</time>
      </trkpt>
      <trkpt lat="45.60736" lon="2.98922">
        <ele>910</ele>
        <time>2022-08-17T15:03:07Z</time>
      </trkpt>
      <trkpt lat="45.6074" lon="2.98925">
        <ele>911</ele>
        <time>2022-08-17T15:03:08Z</time>
      </trkpt>
      <trkpt lat="45.60745" lon="2.98932">
        <ele>911</ele>
        <time>2022-08-17T15:03:09Z</time>
      </trkpt>
      <trkpt lat="45.60748" lon="2.98936">
        <ele>911</ele>
        <time>2022-08-17T15:03:11Z</time>
      </trkpt>
      <trkpt lat="45.60751" lon="2.9894">
        <ele>911</ele>
        <time>2022-08-17T15:03:13Z</time>
      </trkpt>
      <trkpt lat="45.60754" lon="2.98943">
        <ele>911</ele>
        <time>2022-08-17T15:03:15Z</time>
      </trkpt>
      <trkpt lat="45.60757" lon="2.98947">
        <ele>911</ele>
        <time>2022-08-17T15:03:17Z</time>
      </trkpt>
      <trkpt lat="45.6076" lon="2.98951">
        <ele>913</ele>
        <time>2022-08-17T15:03:18Z</time>
      </trkpt>
      <trkpt lat="45.60765" lon="2.98959">
        <ele>913</ele>
        <time>2022-08-17T15:03:19Z</time>
      </trkpt>
      <trkpt lat="45.60768" lon="2.98964">
        <ele>913</ele>
        <time>2022-08-17T15:03:22Z</time>
      </trkpt>
      <trkpt lat="45.6077" lon="2.98969">
        <ele>913</ele>
        <time>2022-08-17T15:03:23Z</time>
      </trkpt>
      <trkpt lat="45.60773" lon="2.98973">
        <ele>913</ele>
        <time>2022-08-17T15:03:25Z</time>
      </trkpt>
      <trkpt lat="45.60776" lon="2.98978">
        <ele>913</ele>
        <time>2022-08-17T15:03:27Z</time>
      </trkpt>
      <trkpt lat="45.60778" lon="2.98983">
        <ele>915</ele>
        <time>2022-08-17T15:03:28Z</time>
      </trkpt>
      <trkpt lat="45.60782" lon="2.98991">
        <ele>915</ele>
        <time>2022-08-17T15:03:29Z</time>
      </trkpt>
      <trkpt lat="45.60785" lon="2.98996">
        <ele>915</ele>
        <time>2022-08-17T15:03:31Z</time>
      </trkpt>
      <trkpt lat="45.60788" lon="2.99001">
        <ele>915</ele>
        <time>2022-08-17T15:03:33Z</time>
      </trkpt>
      <trkpt lat="45.6079" lon="2.99006">
        <ele>915</ele>
        <time>2022-08-17T15:03:35Z</time>
      </trkpt>
      <trkpt lat="45.60793" lon="2.99011">
        <ele>915</ele>
        <time>2022-08-17T15:03:37Z</time>
      </trkpt>
      <trkpt lat="45.60795" lon="2.99016">
        <ele>917</ele>
        <time>2022-08-17T15:03:38Z</time>
      </trkpt>
      <trkpt lat="45.608" lon="2.99024">
        <ele>917</ele>
        <time>2022-08-17T15:03:39Z</time>
      </trkpt>
      <trkpt lat="45.60803" lon="2.99029">
        <ele>917</ele>
        <time>2022-08-17T15:03:41Z</time>
      </trkpt>
      <trkpt lat="45.60806" lon="2.99034">
        <ele>917</ele>
        <time>2022-08-17T15:03:43Z</time>
      </trkpt>
      <trkpt lat="45.60809" lon="2.99039">
        <ele>917</ele>
        <time>2022-08-17T15:03:45Z</time>
      </trkpt>
      <trkpt lat="45.60812" lon="2.99044">
        <ele>917</ele>
        <time>2022-08-17T15:03:47Z</time>
      </trkpt>
      <trkpt lat="45.60814" lon="2.9905">
        <ele>919</ele>
        <time>2022-08-17T15:03:48Z</time>
      </trkpt>
      <trkpt lat="45.60819" lon="2.99058">
        <ele>919</ele>
        <time>2022-08-17T15:03:49Z</time>
      </trkpt>
      <trkpt lat="45.60822" lon="2.99064">
        <ele>919</ele>
        <time>2022-08-17T15:03:51Z</time>
      </trkpt>
      <trkpt lat="45.60824" lon="2.99069">
        <ele>919</ele>
        <time>2022-08-17T15:03:53Z</time>
      </trkpt>
      <trkpt lat="45.60827" lon="2.99074">
        <ele>919</ele>
        <time>2022-08-17T15:03:55Z</time>
      </trkpt>
      <trkpt lat="45.6083" lon="2.9908">
        <ele>919</ele>
        <time>2022-08-17T15:03:57Z</time>
      </trkpt>
      <trkpt lat="45.60832" lon="2.99085">
        <ele>919</ele>
        <time>2022-08-17T15:03:58Z</time>
      </trkpt>
      <trkpt lat="45.60837" lon="2.99093">
        <ele>919</ele>
        <time>2022-08-17T15:03:59Z</time>
      </trkpt>
      <trkpt lat="45.60839" lon="2.99099">
        <ele>919</ele>
        <time>2022-08-17T15:04:01Z</time>
      </trkpt>
      <trkpt lat="45.60842" lon="2.99104">
        <ele>919</ele>
        <time>2022-08-17T15:04:03Z</time>
      </trkpt>
      <trkpt lat="45.60845" lon="2.99109">
        <ele>919</ele>
        <time>2022-08-17T15:04:05Z</time>
      </trkpt>
      <trkpt lat="45.60847" lon="2.99114">
        <ele>919</ele>
        <time>2022-08-17T15:04:07Z</time>
      </trkpt>
      <trkpt lat="45.6085" lon="2.99119">
        <ele>924</ele>
        <time>2022-08-17T15:04:08Z</time>
      </trkpt>
      <trkpt lat="45.60854" lon="2.99128">
        <ele>924</ele>
        <time>2022-08-17T15:04:09Z</time>
      </trkpt>
      <trkpt lat="45.60856" lon="2.99133">
        <ele>924</ele>
        <time>2022-08-17T15:04:11Z</time>
      </trkpt>
      <trkpt lat="45.60858" lon="2.99139">
        <ele>924</ele>
        <time>2022-08-17T15:04:13Z</time>
      </trkpt>
      <trkpt lat="45.6086" lon="2.99144">
        <ele>924</ele>
        <time>2022-08-17T15:04:15Z</time>
      </trkpt>
      <trkpt lat="45.60862" lon="2.9915">
        <ele>924</ele>
        <time>2022-08-17T15:04:16Z</time>
      </trkpt>
      <trkpt lat="45.60864" lon="2.99155">
        <ele>924</ele>
        <time>2022-08-17T15:04:18Z</time>
      </trkpt>
      <trkpt lat="45.60869" lon="2.9917">
        <ele>924</ele>
        <time>2022-08-17T15:04:20Z</time>
      </trkpt>
      <trkpt lat="45.60872" lon="2.99177">
        <ele>924</ele>
        <time>2022-08-17T15:04:22Z</time>
      </trkpt>
      <trkpt lat="45.60874" lon="2.99183">
        <ele>924</ele>
        <time>2022-08-17T15:04:24Z</time>
      </trkpt>
      <trkpt lat="45.60876" lon="2.9919">
        <ele>924</ele>
        <time>2022-08-17T15:04:26Z</time>
      </trkpt>
      <trkpt lat="45.60878" lon="2.99197">
        <ele>926</ele>
        <time>2022-08-17T15:04:28Z</time>
      </trkpt>
      <trkpt lat="45.60882" lon="2.9921">
        <ele>926</ele>
        <time>2022-08-17T15:04:30Z</time>
      </trkpt>
      <trkpt lat="45.60884" lon="2.99215">
        <ele>926</ele>
        <time>2022-08-17T15:04:31Z</time>
      </trkpt>
      <trkpt lat="45.60885" lon="2.99221">
        <ele>926</ele>
        <time>2022-08-17T15:04:33Z</time>
      </trkpt>
      <trkpt lat="45.60887" lon="2.99227">
        <ele>926</ele>
        <time>2022-08-17T15:04:35Z</time>
      </trkpt>
      <trkpt lat="45.60888" lon="2.99232">
        <ele>926</ele>
        <time>2022-08-17T15:04:37Z</time>
      </trkpt>
      <trkpt lat="45.6089" lon="2.99238">
        <ele>928</ele>
        <time>2022-08-17T15:04:38Z</time>
      </trkpt>
      <trkpt lat="45.60892" lon="2.9925">
        <ele>928</ele>
        <time>2022-08-17T15:04:39Z</time>
      </trkpt>
      <trkpt lat="45.60893" lon="2.99257">
        <ele>928</ele>
        <time>2022-08-17T15:04:41Z</time>
      </trkpt>
      <trkpt lat="45.60895" lon="2.99265">
        <ele>928</ele>
        <time>2022-08-17T15:04:43Z</time>
      </trkpt>
      <trkpt lat="45.60896" lon="2.99273">
        <ele>928</ele>
        <time>2022-08-17T15:04:45Z</time>
      </trkpt>
      <trkpt lat="45.60898" lon="2.9928">
        <ele>928</ele>
        <time>2022-08-17T15:04:47Z</time>
      </trkpt>
      <trkpt lat="45.60899" lon="2.99288">
        <ele>928</ele>
        <time>2022-08-17T15:04:48Z</time>
      </trkpt>
      <trkpt lat="45.60901" lon="2.99299">
        <ele>928</ele>
        <time>2022-08-17T15:04:49Z</time>
      </trkpt>
      <trkpt lat="45.60903" lon="2.99305">
        <ele>928</ele>
        <time>2022-08-17T15:04:50Z</time>
      </trkpt>
      <trkpt lat="45.60904" lon="2.9931">
        <ele>928</ele>
        <time>2022-08-17T15:04:51Z</time>
      </trkpt>
      <trkpt lat="45.60905" lon="2.99316">
        <ele>928</ele>
        <time>2022-08-17T15:04:52Z</time>
      </trkpt>
      <trkpt lat="45.60906" lon="2.99322">
        <ele>928</ele>
        <time>2022-08-17T15:04:53Z</time>
      </trkpt>
      <trkpt lat="45.60908" lon="2.99327">
        <ele>928</ele>
        <time>2022-08-17T15:04:54Z</time>
      </trkpt>
      <trkpt lat="45.60909" lon="2.99333">
        <ele>928</ele>
        <time>2022-08-17T15:04:55Z</time>
      </trkpt>
      <trkpt lat="45.6091" lon="2.99339">
        <ele>928</ele>
        <time>2022-08-17T15:04:56Z</time>
      </trkpt>
      <trkpt lat="45.60911" lon="2.99344">
        <ele>928</ele>
        <time>2022-08-17T15:04:57Z</time>
      </trkpt>
      <trkpt lat="45.60913" lon="2.9935">
        <ele>928</ele>
        <time>2022-08-17T15:04:58Z</time>
      </trkpt>
      <trkpt lat="45.60917" lon="2.99364">
        <ele>928</ele>
        <time>2022-08-17T15:04:59Z</time>
      </trkpt>
      <trkpt lat="45.6092" lon="2.99372">
        <ele>928</ele>
        <time>2022-08-17T15:05:00Z</time>
      </trkpt>
      <trkpt lat="45.60922" lon="2.9938">
        <ele>928</ele>
        <time>2022-08-17T15:05:01Z</time>
      </trkpt>
      <trkpt lat="45.60925" lon="2.99387">
        <ele>928</ele>
        <time>2022-08-17T15:05:02Z</time>
      </trkpt>
      <trkpt lat="45.60927" lon="2.99395">
        <ele>928</ele>
        <time>2022-08-17T15:05:03Z</time>
      </trkpt>
      <trkpt lat="45.6093" lon="2.99402">
        <ele>928</ele>
        <time>2022-08-17T15:05:04Z</time>
      </trkpt>
      <trkpt lat="45.60932" lon="2.9941">
        <ele>928</ele>
        <time>2022-08-17T15:05:05Z</time>
      </trkpt>
      <trkpt lat="45.60935" lon="2.99417">
        <ele>928</ele>
        <time>2022-08-17T15:05:06Z</time>
      </trkpt>
      <trkpt lat="45.60937" lon="2.99425">
        <ele>928</ele>
        <time>2022-08-17T15:05:07Z</time>
      </trkpt>
      <trkpt lat="45.6094" lon="2.99433">
        <ele>927</ele>
        <time>2022-08-17T15:05:08Z</time>
      </trkpt>
      <trkpt lat="45.60947" lon="2.99451">
        <ele>927</ele>
        <time>2022-08-17T15:05:09Z</time>
      </trkpt>
      <trkpt lat="45.60951" lon="2.99461">
        <ele>927</ele>
        <time>2022-08-17T15:05:10Z</time>
      </trkpt>
      <trkpt lat="45.60954" lon="2.9947">
        <ele>927</ele>
        <time>2022-08-17T15:05:11Z</time>
      </trkpt>
      <trkpt lat="45.60958" lon="2.99479">
        <ele>927</ele>
        <time>2022-08-17T15:05:12Z</time>
      </trkpt>
      <trkpt lat="45.60962" lon="2.99488">
        <ele>927</ele>
        <time>2022-08-17T15:05:13Z</time>
      </trkpt>
      <trkpt lat="45.60965" lon="2.99497">
        <ele>927</ele>
        <time>2022-08-17T15:05:14Z</time>
      </trkpt>
      <trkpt lat="45.60969" lon="2.99506">
        <ele>927</ele>
        <time>2022-08-17T15:05:15Z</time>
      </trkpt>
      <trkpt lat="45.60972" lon="2.99516">
        <ele>927</ele>
        <time>2022-08-17T15:05:16Z</time>
      </trkpt>
      <trkpt lat="45.60976" lon="2.99525">
        <ele>927</ele>
        <time>2022-08-17T15:05:17Z</time>
      </trkpt>
      <trkpt lat="45.60979" lon="2.99534">
        <ele>925</ele>
        <time>2022-08-17T15:05:18Z</time>
      </trkpt>
      <trkpt lat="45.6099" lon="2.99548">
        <ele>925</ele>
        <time>2022-08-17T15:05:19Z</time>
      </trkpt>
      <trkpt lat="45.60996" lon="2.99553">
        <ele>925</ele>
        <time>2022-08-17T15:05:20Z</time>
      </trkpt>
      <trkpt lat="45.61002" lon="2.99558">
        <ele>925</ele>
        <time>2022-08-17T15:05:21Z</time>
      </trkpt>
      <trkpt lat="45.61008" lon="2.99563">
        <ele>925</ele>
        <time>2022-08-17T15:05:22Z</time>
      </trkpt>
      <trkpt lat="45.61014" lon="2.99568">
        <ele>925</ele>
        <time>2022-08-17T15:05:23Z</time>
      </trkpt>
      <trkpt lat="45.6102" lon="2.99573">
        <ele>925</ele>
        <time>2022-08-17T15:05:24Z</time>
      </trkpt>
      <trkpt lat="45.61026" lon="2.99578">
        <ele>925</ele>
        <time>2022-08-17T15:05:25Z</time>
      </trkpt>
      <trkpt lat="45.61032" lon="2.99583">
        <ele>925</ele>
        <time>2022-08-17T15:05:26Z</time>
      </trkpt>
      <trkpt lat="45.61038" lon="2.99588">
        <ele>925</ele>
        <time>2022-08-17T15:05:27Z</time>
      </trkpt>
      <trkpt lat="45.61044" lon="2.99593">
        <ele>918</ele>
        <time>2022-08-17T15:05:28Z</time>
      </trkpt>
      <trkpt lat="45.61059" lon="2.9959">
        <ele>918</ele>
        <time>2022-08-17T15:05:29Z</time>
      </trkpt>
      <trkpt lat="45.61066" lon="2.99586">
        <ele>918</ele>
        <time>2022-08-17T15:05:30Z</time>
      </trkpt>
      <trkpt lat="45.61074" lon="2.99581">
        <ele>918</ele>
        <time>2022-08-17T15:05:31Z</time>
      </trkpt>
      <trkpt lat="45.61081" lon="2.99577">
        <ele>918</ele>
        <time>2022-08-17T15:05:32Z</time>
      </trkpt>
      <trkpt lat="45.61088" lon="2.99573">
        <ele>918</ele>
        <time>2022-08-17T15:05:33Z</time>
      </trkpt>
      <trkpt lat="45.61095" lon="2.99569">
        <ele>918</ele>
        <time>2022-08-17T15:05:34Z</time>
      </trkpt>
      <trkpt lat="45.61102" lon="2.99564">
        <ele>918</ele>
        <time>2022-08-17T15:05:35Z</time>
      </trkpt>
      <trkpt lat="45.61109" lon="2.9956">
        <ele>918</ele>
        <time>2022-08-17T15:05:36Z</time>
      </trkpt>
      <trkpt lat="45.61116" lon="2.99556">
        <ele>918</ele>
        <time>2022-08-17T15:05:37Z</time>
      </trkpt>
      <trkpt lat="45.61123" lon="2.99552">
        <ele>911</ele>
        <time>2022-08-17T15:05:38Z</time>
      </trkpt>
      <trkpt lat="45.61138" lon="2.99548">
        <ele>911</ele>
        <time>2022-08-17T15:05:39Z</time>
      </trkpt>
      <trkpt lat="45.61145" lon="2.99551">
        <ele>911</ele>
        <time>2022-08-17T15:05:40Z</time>
      </trkpt>
      <trkpt lat="45.61152" lon="2.99553">
        <ele>911</ele>
        <time>2022-08-17T15:05:41Z</time>
      </trkpt>
      <trkpt lat="45.61159" lon="2.99556">
        <ele>911</ele>
        <time>2022-08-17T15:05:42Z</time>
      </trkpt>
      <trkpt lat="45.61166" lon="2.99558">
        <ele>911</ele>
        <time>2022-08-17T15:05:43Z</time>
      </trkpt>
      <trkpt lat="45.61173" lon="2.99561">
        <ele>911</ele>
        <time>2022-08-17T15:05:44Z</time>
      </trkpt>
      <trkpt lat="45.6118" lon="2.99563">
        <ele>911</ele>
        <time>2022-08-17T15:05:45Z</time>
      </trkpt>
      <trkpt lat="45.61187" lon="2.99566">
        <ele>911</ele>
        <time>2022-08-17T15:05:46Z</time>
      </trkpt>
      <trkpt lat="45.61194" lon="2.99569">
        <ele>911</ele>
        <time>2022-08-17T15:05:47Z</time>
      </trkpt>
      <trkpt lat="45.61201" lon="2.99571">
        <ele>902</ele>
        <time>2022-08-17T15:05:48Z</time>
      </trkpt>
      <trkpt lat="45.61208" lon="2.99581">
        <ele>902</ele>
        <time>2022-08-17T15:05:49Z</time>
      </trkpt>
      <trkpt lat="45.61215" lon="2.9959">
        <ele>902</ele>
        <time>2022-08-17T15:05:50Z</time>
      </trkpt>
      <trkpt lat="45.61222" lon="2.996">
        <ele>902</ele>
        <time>2022-08-17T15:05:51Z</time>
      </trkpt>
      <trkpt lat="45.6123" lon="2.99609">
        <ele>902</ele>
        <time>2022-08-17T15:05:52Z</time>
      </trkpt>
      <trkpt lat="45.61238" lon="2.99616">
        <ele>902</ele>
        <time>2022-08-17T15:05:53Z</time>
      </trkpt>
      <trkpt lat="45.61247" lon="2.99622">
        <ele>902</ele>
        <time>2022-08-17T15:05:54Z</time>
      </trkpt>
      <trkpt lat="45.61257" lon="2.99626">
        <ele>902</ele>
        <time>2022-08-17T15:05:55Z</time>
      </trkpt>
      <trkpt lat="45.61266" lon="2.99631">
        <ele>902</ele>
        <time>2022-08-17T15:05:56Z</time>
      </trkpt>
      <trkpt lat="45.61276" lon="2.99635">
        <ele>902</ele>
        <time>2022-08-17T15:05:57Z</time>
      </trkpt>
      <trkpt lat="45.61286" lon="2.99639">
        <ele>896</ele>
        <time>2022-08-17T15:05:58Z</time>
      </trkpt>
      <trkpt lat="45.61296" lon="2.99643">
        <ele>896</ele>
        <time>2022-08-17T15:05:59Z</time>
      </trkpt>
      <trkpt lat="45.61315" lon="2.99651">
        <ele>896</ele>
        <time>2022-08-17T15:06:01Z</time>
      </trkpt>
      <trkpt lat="45.61324" lon="2.99655">
        <ele>896</ele>
        <time>2022-08-17T15:06:02Z</time>
      </trkpt>
      <trkpt lat="45.61334" lon="2.99659">
        <ele>896</ele>
        <time>2022-08-17T15:06:03Z</time>
      </trkpt>
      <trkpt lat="45.61343" lon="2.99663">
        <ele>896</ele>
        <time>2022-08-17T15:06:04Z</time>
      </trkpt>
      <trkpt lat="45.61352" lon="2.99667">
        <ele>896</ele>
        <time>2022-08-17T15:06:05Z</time>
      </trkpt>
      <trkpt lat="45.61361" lon="2.99672">
        <ele>896</ele>
        <time>2022-08-17T15:06:06Z</time>
      </trkpt>
      <trkpt lat="45.61369" lon="2.99677">
        <ele>896</ele>
        <time>2022-08-17T15:06:07Z</time>
      </trkpt>
      <trkpt lat="45.61377" lon="2.99681">
        <ele>892</ele>
        <time>2022-08-17T15:06:08Z</time>
      </trkpt>
      <trkpt lat="45.61389" lon="2.99689">
        <ele>892</ele>
        <time>2022-08-17T15:06:09Z</time>
      </trkpt>
      <trkpt lat="45.61394" lon="2.99691">
        <ele>892</ele>
        <time>2022-08-17T15:06:10Z</time>
      </trkpt>
      <trkpt lat="45.614" lon="2.99694">
        <ele>892</ele>
        <time>2022-08-17T15:06:11Z</time>
      </trkpt>
      <trkpt lat="45.61405" lon="2.99697">
        <ele>892</ele>
        <time>2022-08-17T15:06:12Z</time>
      </trkpt>
      <trkpt lat="45.6141" lon="2.99699">
        <ele>892</ele>
        <time>2022-08-17T15:06:13Z</time>
      </trkpt>
      <trkpt lat="45.61415" lon="2.99702">
        <ele>892</ele>
        <time>2022-08-17T15:06:14Z</time>
      </trkpt>
      <trkpt lat="45.6142" lon="2.99705">
        <ele>892</ele>
        <time>2022-08-17T15:06:15Z</time>
      </trkpt>
      <trkpt lat="45.61425" lon="2.99708">
        <ele>892</ele>
        <time>2022-08-17T15:06:16Z</time>
      </trkpt>
      <trkpt lat="45.6143" lon="2.9971">
        <ele>892</ele>
        <time>2022-08-17T15:06:17Z</time>
      </trkpt>
      <trkpt lat="45.61435" lon="2.99713">
        <ele>890</ele>
        <time>2022-08-17T15:06:18Z</time>
      </trkpt>
      <trkpt lat="45.61445" lon="2.99716">
        <ele>890</ele>
        <time>2022-08-17T15:06:19Z</time>
      </trkpt>
      <trkpt lat="45.6145" lon="2.99718">
        <ele>890</ele>
        <time>2022-08-17T15:06:20Z</time>
      </trkpt>
      <trkpt lat="45.61455" lon="2.99719">
        <ele>890</ele>
        <time>2022-08-17T15:06:21Z</time>
      </trkpt>
      <trkpt lat="45.6146" lon="2.99721">
        <ele>890</ele>
        <time>2022-08-17T15:06:22Z</time>
      </trkpt>
      <trkpt lat="45.61465" lon="2.99722">
        <ele>890</ele>
        <time>2022-08-17T15:06:23Z</time>
      </trkpt>
      <trkpt lat="45.6147" lon="2.99724">
        <ele>890</ele>
        <time>2022-08-17T15:06:24Z</time>
      </trkpt>
      <trkpt lat="45.61475" lon="2.99726">
        <ele>890</ele>
        <time>2022-08-17T15:06:25Z</time>
      </trkpt>
      <trkpt lat="45.61481" lon="2.99727">
        <ele>890</ele>
        <time>2022-08-17T15:06:26Z</time>
      </trkpt>
      <trkpt lat="45.61486" lon="2.99729">
        <ele>890</ele>
        <time>2022-08-17T15:06:27Z</time>
      </trkpt>
      <trkpt lat="45.61491" lon="2.9973">
        <ele>884</ele>
        <time>2022-08-17T15:06:28Z</time>
      </trkpt>
      <trkpt lat="45.61501" lon="2.99732">
        <ele>884</ele>
        <time>2022-08-17T15:06:29Z</time>
      </trkpt>
      <trkpt lat="45.61506" lon="2.99732">
        <ele>884</ele>
        <time>2022-08-17T15:06:30Z</time>
      </trkpt>
      <trkpt lat="45.61511" lon="2.99733">
        <ele>884</ele>
        <time>2022-08-17T15:06:31Z</time>
      </trkpt>
      <trkpt lat="45.61516" lon="2.99733">
        <ele>884</ele>
        <time>2022-08-17T15:06:32Z</time>
      </trkpt>
      <trkpt lat="45.61521" lon="2.99734">
        <ele>884</ele>
        <time>2022-08-17T15:06:33Z</time>
      </trkpt>
      <trkpt lat="45.61525" lon="2.99734">
        <ele>884</ele>
        <time>2022-08-17T15:06:34Z</time>
      </trkpt>
      <trkpt lat="45.6153" lon="2.99735">
        <ele>884</ele>
        <time>2022-08-17T15:06:35Z</time>
      </trkpt>
      <trkpt lat="45.61535" lon="2.99735">
        <ele>884</ele>
        <time>2022-08-17T15:06:36Z</time>
      </trkpt>
      <trkpt lat="45.6154" lon="2.99735">
        <ele>884</ele>
        <time>2022-08-17T15:06:37Z</time>
      </trkpt>
      <trkpt lat="45.61545" lon="2.99736">
        <ele>885</ele>
        <time>2022-08-17T15:06:38Z</time>
      </trkpt>
      <trkpt lat="45.61555" lon="2.99738">
        <ele>885</ele>
        <time>2022-08-17T15:06:39Z</time>
      </trkpt>
      <trkpt lat="45.6156" lon="2.9974">
        <ele>885</ele>
        <time>2022-08-17T15:06:40Z</time>
      </trkpt>
      <trkpt lat="45.61565" lon="2.99742">
        <ele>885</ele>
        <time>2022-08-17T15:06:41Z</time>
      </trkpt>
      <trkpt lat="45.61569" lon="2.99743">
        <ele>885</ele>
        <time>2022-08-17T15:06:42Z</time>
      </trkpt>
      <trkpt lat="45.61574" lon="2.99745">
        <ele>885</ele>
        <time>2022-08-17T15:06:43Z</time>
      </trkpt>
      <trkpt lat="45.61579" lon="2.99747">
        <ele>885</ele>
        <time>2022-08-17T15:06:44Z</time>
      </trkpt>
      <trkpt lat="45.61584" lon="2.99749">
        <ele>885</ele>
        <time>2022-08-17T15:06:45Z</time>
      </trkpt>
      <trkpt lat="45.61588" lon="2.99751">
        <ele>885</ele>
        <time>2022-08-17T15:06:46Z</time>
      </trkpt>
      <trkpt lat="45.61593" lon="2.99753">
        <ele>885</ele>
        <time>2022-08-17T15:06:47Z</time>
      </trkpt>
      <trkpt lat="45.61598" lon="2.99755">
        <ele>885</ele>
        <time>2022-08-17T15:06:48Z</time>
      </trkpt>
      <trkpt lat="45.61605" lon="2.99765">
        <ele>885</ele>
        <time>2022-08-17T15:06:49Z</time>
      </trkpt>
      <trkpt lat="45.61608" lon="2.9977">
        <ele>885</ele>
        <time>2022-08-17T15:06:50Z</time>
      </trkpt>
      <trkpt lat="45.61611" lon="2.99776">
        <ele>885</ele>
        <time>2022-08-17T15:06:51Z</time>
      </trkpt>
      <trkpt lat="45.61614" lon="2.99781">
        <ele>885</ele>
        <time>2022-08-17T15:06:52Z</time>
      </trkpt>
      <trkpt lat="45.61618" lon="2.99787">
        <ele>885</ele>
        <time>2022-08-17T15:06:53Z</time>
      </trkpt>
      <trkpt lat="45.61621" lon="2.99792">
        <ele>885</ele>
        <time>2022-08-17T15:06:54Z</time>
      </trkpt>
      <trkpt lat="45.61624" lon="2.99797">
        <ele>885</ele>
        <time>2022-08-17T15:06:55Z</time>
      </trkpt>
      <trkpt lat="45.61627" lon="2.99803">
        <ele>885</ele>
        <time>2022-08-17T15:06:56Z</time>
      </trkpt>
      <trkpt lat="45.6163" lon="2.99808">
        <ele>885</ele>
        <time>2022-08-17T15:06:57Z</time>
      </trkpt>
      <trkpt lat="45.61633" lon="2.99814">
        <ele>884</ele>
        <time>2022-08-17T15:06:58Z</time>
      </trkpt>
      <trkpt lat="45.61635" lon="2.99828">
        <ele>884</ele>
        <time>2022-08-17T15:06:59Z</time>
      </trkpt>
      <trkpt lat="45.61635" lon="2.99836">
        <ele>884</ele>
        <time>2022-08-17T15:07:00Z</time>
      </trkpt>
      <trkpt lat="45.61635" lon="2.99844">
        <ele>884</ele>
        <time>2022-08-17T15:07:01Z</time>
      </trkpt>
      <trkpt lat="45.61635" lon="2.99852">
        <ele>884</ele>
        <time>2022-08-17T15:07:03Z</time>
      </trkpt>
      <trkpt lat="45.61636" lon="2.9986">
        <ele>884</ele>
        <time>2022-08-17T15:07:05Z</time>
      </trkpt>
      <trkpt lat="45.61636" lon="2.99868">
        <ele>884</ele>
        <time>2022-08-17T15:07:07Z</time>
      </trkpt>
      <trkpt lat="45.61636" lon="2.99875">
        <ele>886</ele>
        <time>2022-08-17T15:07:08Z</time>
      </trkpt>
      <trkpt lat="45.6163" lon="2.99888">
        <ele>886</ele>
        <time>2022-08-17T15:07:09Z</time>
      </trkpt>
      <trkpt lat="45.61625" lon="2.99896">
        <ele>886</ele>
        <time>2022-08-17T15:07:11Z</time>
      </trkpt>
      <trkpt lat="45.61621" lon="2.99904">
        <ele>886</ele>
        <time>2022-08-17T15:07:13Z</time>
      </trkpt>
      <trkpt lat="45.61616" lon="2.99912">
        <ele>886</ele>
        <time>2022-08-17T15:07:15Z</time>
      </trkpt>
      <trkpt lat="45.61612" lon="2.9992">
        <ele>886</ele>
        <time>2022-08-17T15:07:17Z</time>
      </trkpt>
      <trkpt lat="45.61607" lon="2.99928">
        <ele>887</ele>
        <time>2022-08-17T15:07:18Z</time>
      </trkpt>
      <trkpt lat="45.61602" lon="2.99944">
        <ele>887</ele>
        <time>2022-08-17T15:07:19Z</time>
      </trkpt>
      <trkpt lat="45.616" lon="2.99954">
        <ele>887</ele>
        <time>2022-08-17T15:07:21Z</time>
      </trkpt>
      <trkpt lat="45.61598" lon="2.99964">
        <ele>887</ele>
        <time>2022-08-17T15:07:22Z</time>
      </trkpt>
      <trkpt lat="45.61597" lon="2.99974">
        <ele>887</ele>
        <time>2022-08-17T15:07:24Z</time>
      </trkpt>
      <trkpt lat="45.61595" lon="2.99983">
        <ele>887</ele>
        <time>2022-08-17T15:07:26Z</time>
      </trkpt>
      <trkpt lat="45.61593" lon="2.99993">
        <ele>885</ele>
        <time>2022-08-17T15:07:28Z</time>
      </trkpt>
      <trkpt lat="45.61597" lon="3.00014">
        <ele>885</ele>
        <time>2022-08-17T15:07:30Z</time>
      </trkpt>
      <trkpt lat="45.61599" lon="3.00022">
        <ele>885</ele>
        <time>2022-08-17T15:07:32Z</time>
      </trkpt>
      <trkpt lat="45.61601" lon="3.00031">
        <ele>885</ele>
        <time>2022-08-17T15:07:34Z</time>
      </trkpt>
      <trkpt lat="45.61602" lon="3.00039">
        <ele>885</ele>
        <time>2022-08-17T15:07:36Z</time>
      </trkpt>
      <trkpt lat="45.61604" lon="3.00047">
        <ele>886</ele>
        <time>2022-08-17T15:07:38Z</time>
      </trkpt>
      <trkpt lat="45.6161" lon="3.00061">
        <ele>886</ele>
        <time>2022-08-17T15:07:40Z</time>
      </trkpt>
      <trkpt lat="45.61614" lon="3.00066">
        <ele>886</ele>
        <time>2022-08-17T15:07:42Z</time>
      </trkpt>
      <trkpt lat="45.61617" lon="3.00071">
        <ele>886</ele>
        <time>2022-08-17T15:07:44Z</time>
      </trkpt>
      <trkpt lat="45.61621" lon="3.00076">
        <ele>886</ele>
        <time>2022-08-17T15:07:46Z</time>
      </trkpt>
      <trkpt lat="45.61624" lon="3.0008">
        <ele>888</ele>
        <time>2022-08-17T15:07:48Z</time>
      </trkpt>
      <trkpt lat="45.61632" lon="3.00083">
        <ele>888</ele>
        <time>2022-08-17T15:07:50Z</time>
      </trkpt>
      <trkpt lat="45.61637" lon="3.00081">
        <ele>888</ele>
        <time>2022-08-17T15:07:52Z</time>
      </trkpt>
      <trkpt lat="45.61641" lon="3.00079">
        <ele>888</ele>
        <time>2022-08-17T15:07:54Z</time>
      </trkpt>
      <trkpt lat="45.61645" lon="3.00077">
        <ele>888</ele>
        <time>2022-08-17T15:07:56Z</time>
      </trkpt>
      <trkpt lat="45.61649" lon="3.00074">
        <ele>893</ele>
        <time>2022-08-17T15:07:58Z</time>
      </trkpt>
      <trkpt lat="45.61658" lon="3.00064">
        <ele>893</ele>
        <time>2022-08-17T15:08:00Z</time>
      </trkpt>
      <trkpt lat="45.61661" lon="3.00059">
        <ele>893</ele>
        <time>2022-08-17T15:08:02Z</time>
      </trkpt>
      <trkpt lat="45.61664" lon="3.00055">
        <ele>893</ele>
        <time>2022-08-17T15:08:04Z</time>
      </trkpt>
      <trkpt lat="45.61667" lon="3.0005">
        <ele>893</ele>
        <time>2022-08-17T15:08:06Z</time>
      </trkpt>
      <trkpt lat="45.6167" lon="3.00045">
        <ele>895</ele>
        <time>2022-08-17T15:08:08Z</time>
      </trkpt>
      <trkpt lat="45.61677" lon="3.00037">
        <ele>895</ele>
        <time>2022-08-17T15:08:10Z</time>
      </trkpt>
      <trkpt lat="45.6168" lon="3.00033">
        <ele>895</ele>
        <time>2022-08-17T15:08:12Z</time>
      </trkpt>
      <trkpt lat="45.61683" lon="3.00029">
        <ele>895</ele>
        <time>2022-08-17T15:08:14Z</time>
      </trkpt>
      <trkpt lat="45.61687" lon="3.00025">
        <ele>895</ele>
        <time>2022-08-17T15:08:16Z</time>
      </trkpt>
      <trkpt lat="45.6169" lon="3.00022">
        <ele>896</ele>
        <time>2022-08-17T15:08:18Z</time>
      </trkpt>
      <trkpt lat="45.61694" lon="3.00012">
        <ele>896</ele>
        <time>2022-08-17T15:08:20Z</time>
      </trkpt>
      <trkpt lat="45.61696" lon="3.00009">
        <ele>896</ele>
        <time>2022-08-17T15:08:22Z</time>
      </trkpt>
      <trkpt lat="45.61697" lon="3.00005">
        <ele>896</ele>
        <time>2022-08-17T15:08:24Z</time>
      </trkpt>
      <trkpt lat="45.61699" lon="3.00001">
        <ele>896</ele>
        <time>2022-08-17T15:08:26Z</time>
      </trkpt>
      <trkpt lat="45.617" lon="2.99998">
        <ele>898</ele>
        <time>2022-08-17T15:08:28Z</time>
      </trkpt>
      <trkpt lat="45.61706" lon="2.99983">
        <ele>898</ele>
        <time>2022-08-17T15:08:29Z</time>
      </trkpt>
      <trkpt lat="45.61709" lon="2.99978">
        <ele>898</ele>
        <time>2022-08-17T15:08:32Z</time>
      </trkpt>
      <trkpt lat="45.61711" lon="2.99973">
        <ele>898</ele>
        <time>2022-08-17T15:08:34Z</time>
      </trkpt>
      <trkpt lat="45.61714" lon="2.99967">
        <ele>898</ele>
        <time>2022-08-17T15:08:36Z</time>
      </trkpt>
      <trkpt lat="45.61716" lon="2.99962">
        <ele>900</ele>
        <time>2022-08-17T15:08:38Z</time>
      </trkpt>
      <trkpt lat="45.6172" lon="2.99953">
        <ele>900</ele>
        <time>2022-08-17T15:08:40Z</time>
      </trkpt>
      <trkpt lat="45.61722" lon="2.99949">
        <ele>900</ele>
        <time>2022-08-17T15:08:42Z</time>
      </trkpt>
      <trkpt lat="45.61723" lon="2.99946">
        <ele>900</ele>
        <time>2022-08-17T15:08:44Z</time>
      </trkpt>
      <trkpt lat="45.61725" lon="2.99942">
        <ele>900</ele>
        <time>2022-08-17T15:08:46Z</time>
      </trkpt>
      <trkpt lat="45.61726" lon="2.99938">
        <ele>901</ele>
        <time>2022-08-17T15:08:48Z</time>
      </trkpt>
      <trkpt lat="45.61733" lon="2.99925">
        <ele>901</ele>
        <time>2022-08-17T15:08:49Z</time>
      </trkpt>
      <trkpt lat="45.61735" lon="2.99921">
        <ele>901</ele>
        <time>2022-08-17T15:08:51Z</time>
      </trkpt>
      <trkpt lat="45.61737" lon="2.99916">
        <ele>901</ele>
        <time>2022-08-17T15:08:53Z</time>
      </trkpt>
      <trkpt lat="45.61739" lon="2.99912">
        <ele>901</ele>
        <time>2022-08-17T15:08:55Z</time>
      </trkpt>
      <trkpt lat="45.61742" lon="2.99907">
        <ele>901</ele>
        <time>2022-08-17T15:08:57Z</time>
      </trkpt>
      <trkpt lat="45.61744" lon="2.99903">
        <ele>905</ele>
        <time>2022-08-17T15:08:58Z</time>
      </trkpt>
      <trkpt lat="45.61748" lon="2.99895">
        <ele>905</ele>
        <time>2022-08-17T15:08:59Z</time>
      </trkpt>
      <trkpt lat="45.6175" lon="2.99891">
        <ele>905</ele>
        <time>2022-08-17T15:09:01Z</time>
      </trkpt>
      <trkpt lat="45.61753" lon="2.99886">
        <ele>905</ele>
        <time>2022-08-17T15:09:03Z</time>
      </trkpt>
      <trkpt lat="45.61755" lon="2.99881">
        <ele>905</ele>
        <time>2022-08-17T15:09:05Z</time>
      </trkpt>
      <trkpt lat="45.61757" lon="2.99876">
        <ele>905</ele>
        <time>2022-08-17T15:09:07Z</time>
      </trkpt>
      <trkpt lat="45.6176" lon="2.99871">
        <ele>907</ele>
        <time>2022-08-17T15:09:08Z</time>
      </trkpt>
      <trkpt lat="45.61762" lon="2.99868">
        <ele>907</ele>
        <time>2022-08-17T15:09:09Z</time>
      </trkpt>
      <trkpt lat="45.61767" lon="2.9986">
        <ele>907</ele>
        <time>2022-08-17T15:09:12Z</time>
      </trkpt>
      <trkpt lat="45.61771" lon="2.99852">
        <ele>907</ele>
        <time>2022-08-17T15:09:15Z</time>
      </trkpt>
      <trkpt lat="45.61776" lon="2.99843">
        <ele>910</ele>
        <time>2022-08-17T15:09:18Z</time>
      </trkpt>
      <trkpt lat="45.61784" lon="2.99828">
        <ele>910</ele>
        <time>2022-08-17T15:09:21Z</time>
      </trkpt>
      <trkpt lat="45.61786" lon="2.99822">
        <ele>910</ele>
        <time>2022-08-17T15:09:24Z</time>
      </trkpt>
      <trkpt lat="45.61789" lon="2.99817">
        <ele>910</ele>
        <time>2022-08-17T15:09:27Z</time>
      </trkpt>
      <trkpt lat="45.61791" lon="2.99812">
        <ele>910</ele>
        <time>2022-08-17T15:09:28Z</time>
      </trkpt>
      <trkpt lat="45.61796" lon="2.99802">
        <ele>910</ele>
        <time>2022-08-17T15:09:29Z</time>
      </trkpt>
      <trkpt lat="45.61799" lon="2.99796">
        <ele>910</ele>
        <time>2022-08-17T15:09:31Z</time>
      </trkpt>
      <trkpt lat="45.61802" lon="2.9979">
        <ele>910</ele>
        <time>2022-08-17T15:09:34Z</time>
      </trkpt>
      <trkpt lat="45.61805" lon="2.99783">
        <ele>910</ele>
        <time>2022-08-17T15:09:36Z</time>
      </trkpt>
      <trkpt lat="45.61808" lon="2.99777">
        <ele>912</ele>
        <time>2022-08-17T15:09:38Z</time>
      </trkpt>
      <trkpt lat="45.61816" lon="2.99766">
        <ele>912</ele>
        <time>2022-08-17T15:09:40Z</time>
      </trkpt>
      <trkpt lat="45.61819" lon="2.99761">
        <ele>912</ele>
        <time>2022-08-17T15:09:42Z</time>
      </trkpt>
      <trkpt lat="45.61822" lon="2.99756">
        <ele>912</ele>
        <time>2022-08-17T15:09:44Z</time>
      </trkpt>
      <trkpt lat="45.61824" lon="2.99752">
        <ele>912</ele>
        <time>2022-08-17T15:09:47Z</time>
      </trkpt>
      <trkpt lat="45.61827" lon="2.99747">
        <ele>915</ele>
        <time>2022-08-17T15:09:48Z</time>
      </trkpt>
      <trkpt lat="45.61829" lon="2.99744">
        <ele>915</ele>
        <time>2022-08-17T15:09:49Z</time>
      </trkpt>
      <trkpt lat="45.61834" lon="2.99738">
        <ele>915</ele>
        <time>2022-08-17T15:09:51Z</time>
      </trkpt>
      <trkpt lat="45.61838" lon="2.99732">
        <ele>915</ele>
        <time>2022-08-17T15:09:53Z</time>
      </trkpt>
      <trkpt lat="45.61842" lon="2.99726">
        <ele>915</ele>
        <time>2022-08-17T15:09:55Z</time>
      </trkpt>
      <trkpt lat="45.61847" lon="2.99718">
        <ele>916</ele>
        <time>2022-08-17T15:09:58Z</time>
      </trkpt>
      <trkpt lat="45.61857" lon="2.99705">
        <ele>916</ele>
        <time>2022-08-17T15:10:01Z</time>
      </trkpt>
      <trkpt lat="45.61861" lon="2.99701">
        <ele>916</ele>
        <time>2022-08-17T15:10:04Z</time>
      </trkpt>
      <trkpt lat="45.61865" lon="2.99696">
        <ele>916</ele>
        <time>2022-08-17T15:10:06Z</time>
      </trkpt>
      <trkpt lat="45.61868" lon="2.99691">
        <ele>918</ele>
        <time>2022-08-17T15:10:08Z</time>
      </trkpt>
      <trkpt lat="45.61876" lon="2.99681">
        <ele>918</ele>
        <time>2022-08-17T15:10:10Z</time>
      </trkpt>
      <trkpt lat="45.61879" lon="2.99677">
        <ele>918</ele>
        <time>2022-08-17T15:10:12Z</time>
      </trkpt>
      <trkpt lat="45.61881" lon="2.99672">
        <ele>918</ele>
        <time>2022-08-17T15:10:14Z</time>
      </trkpt>
      <trkpt lat="45.61884" lon="2.99667">
        <ele>918</ele>
        <time>2022-08-17T15:10:16Z</time>
      </trkpt>
      <trkpt lat="45.61887" lon="2.99663">
        <ele>920</ele>
        <time>2022-08-17T15:10:18Z</time>
      </trkpt>
      <trkpt lat="45.61894" lon="2.99653">
        <ele>920</ele>
        <time>2022-08-17T15:10:20Z</time>
      </trkpt>
      <trkpt lat="45.61896" lon="2.99648">
        <ele>920</ele>
        <time>2022-08-17T15:10:22Z</time>
      </trkpt>
      <trkpt lat="45.61899" lon="2.99643">
        <ele>920</ele>
        <time>2022-08-17T15:10:24Z</time>
      </trkpt>
      <trkpt lat="45.61902" lon="2.99638">
        <ele>920</ele>
        <time>2022-08-17T15:10:26Z</time>
      </trkpt>
      <trkpt lat="45.61905" lon="2.99634">
        <ele>922</ele>
        <time>2022-08-17T15:10:28Z</time>
      </trkpt>
      <trkpt lat="45.6191" lon="2.99623">
        <ele>922</ele>
        <time>2022-08-17T15:10:30Z</time>
      </trkpt>
      <trkpt lat="45.61913" lon="2.99618">
        <ele>922</ele>
        <time>2022-08-17T15:10:32Z</time>
      </trkpt>
      <trkpt lat="45.61916" lon="2.99614">
        <ele>922</ele>
        <time>2022-08-17T15:10:34Z</time>
      </trkpt>
      <trkpt lat="45.61918" lon="2.99609">
        <ele>922</ele>
        <time>2022-08-17T15:10:36Z</time>
      </trkpt>
      <trkpt lat="45.61921" lon="2.99604">
        <ele>924</ele>
        <time>2022-08-17T15:10:38Z</time>
      </trkpt>
      <trkpt lat="45.61929" lon="2.99596">
        <ele>924</ele>
        <time>2022-08-17T15:10:40Z</time>
      </trkpt>
      <trkpt lat="45.61933" lon="2.99594">
        <ele>924</ele>
        <time>2022-08-17T15:10:42Z</time>
      </trkpt>
      <trkpt lat="45.61938" lon="2.99592">
        <ele>924</ele>
        <time>2022-08-17T15:10:45Z</time>
      </trkpt>
      <trkpt lat="45.61942" lon="2.9959">
        <ele>924</ele>
        <time>2022-08-17T15:10:47Z</time>
      </trkpt>
      <trkpt lat="45.61946" lon="2.99588">
        <ele>926</ele>
        <time>2022-08-17T15:10:48Z</time>
      </trkpt>
      <trkpt lat="45.61951" lon="2.99593">
        <ele>926</ele>
        <time>2022-08-17T15:10:49Z</time>
      </trkpt>
      <trkpt lat="45.61954" lon="2.99598">
        <ele>926</ele>
        <time>2022-08-17T15:10:51Z</time>
      </trkpt>
      <trkpt lat="45.61956" lon="2.99602">
        <ele>926</ele>
        <time>2022-08-17T15:10:53Z</time>
      </trkpt>
      <trkpt lat="45.61958" lon="2.99607">
        <ele>926</ele>
        <time>2022-08-17T15:10:55Z</time>
      </trkpt>
      <trkpt lat="45.6196" lon="2.99611">
        <ele>926</ele>
        <time>2022-08-17T15:10:57Z</time>
      </trkpt>
      <trkpt lat="45.61963" lon="2.99616">
        <ele>931</ele>
        <time>2022-08-17T15:10:58Z</time>
      </trkpt>
      <trkpt lat="45.61963" lon="2.99625">
        <ele>931</ele>
        <time>2022-08-17T15:10:59Z</time>
      </trkpt>
      <trkpt lat="45.61963" lon="2.99631">
        <ele>931</ele>
        <time>2022-08-17T15:11:01Z</time>
      </trkpt>
      <trkpt lat="45.61964" lon="2.99637">
        <ele>931</ele>
        <time>2022-08-17T15:11:03Z</time>
      </trkpt>
      <trkpt lat="45.61964" lon="2.99643">
        <ele>931</ele>
        <time>2022-08-17T15:11:05Z</time>
      </trkpt>
      <trkpt lat="45.61964" lon="2.99648">
        <ele>931</ele>
        <time>2022-08-17T15:11:07Z</time>
      </trkpt>
      <trkpt lat="45.61964" lon="2.99654">
        <ele>934</ele>
        <time>2022-08-17T15:11:08Z</time>
      </trkpt>
      <trkpt lat="45.61968" lon="2.99662">
        <ele>934</ele>
        <time>2022-08-17T15:11:09Z</time>
      </trkpt>
      <trkpt lat="45.61971" lon="2.99666">
        <ele>934</ele>
        <time>2022-08-17T15:11:11Z</time>
      </trkpt>
      <trkpt lat="45.61975" lon="2.99671">
        <ele>934</ele>
        <time>2022-08-17T15:11:13Z</time>
      </trkpt>
      <trkpt lat="45.61978" lon="2.99675">
        <ele>934</ele>
        <time>2022-08-17T15:11:16Z</time>
      </trkpt>
      <trkpt lat="45.61981" lon="2.9968">
        <ele>935</ele>
        <time>2022-08-17T15:11:18Z</time>
      </trkpt>
      <trkpt lat="45.6199" lon="2.99682">
        <ele>935</ele>
        <time>2022-08-17T15:11:20Z</time>
      </trkpt>
      <trkpt lat="45.61993" lon="2.99683">
        <ele>935</ele>
        <time>2022-08-17T15:11:22Z</time>
      </trkpt>
      <trkpt lat="45.61997" lon="2.99684">
        <ele>935</ele>
        <time>2022-08-17T15:11:24Z</time>
      </trkpt>
      <trkpt lat="45.62001" lon="2.99685">
        <ele>935</ele>
        <time>2022-08-17T15:11:26Z</time>
      </trkpt>
      <trkpt lat="45.62005" lon="2.99687">
        <ele>935</ele>
        <time>2022-08-17T15:11:28Z</time>
      </trkpt>
      <trkpt lat="45.62017" lon="2.99685">
        <ele>935</ele>
        <time>2022-08-17T15:11:30Z</time>
      </trkpt>
      <trkpt lat="45.62022" lon="2.99683">
        <ele>935</ele>
        <time>2022-08-17T15:11:31Z</time>
      </trkpt>
      <trkpt lat="45.62027" lon="2.99682">
        <ele>935</ele>
        <time>2022-08-17T15:11:32Z</time>
      </trkpt>
      <trkpt lat="45.62031" lon="2.9968">
        <ele>935</ele>
        <time>2022-08-17T15:11:33Z</time>
      </trkpt>
      <trkpt lat="45.62036" lon="2.99678">
        <ele>935</ele>
        <time>2022-08-17T15:11:34Z</time>
      </trkpt>
      <trkpt lat="45.62041" lon="2.99676">
        <ele>935</ele>
        <time>2022-08-17T15:11:35Z</time>
      </trkpt>
      <trkpt lat="45.62046" lon="2.99674">
        <ele>935</ele>
        <time>2022-08-17T15:11:37Z</time>
      </trkpt>
      <trkpt lat="45.62051" lon="2.99672">
        <ele>935</ele>
        <time>2022-08-17T15:11:38Z</time>
      </trkpt>
      <trkpt lat="45.62062" lon="2.99664">
        <ele>935</ele>
        <time>2022-08-17T15:11:39Z</time>
      </trkpt>
      <trkpt lat="45.62067" lon="2.99659">
        <ele>935</ele>
        <time>2022-08-17T15:11:40Z</time>
      </trkpt>
      <trkpt lat="45.62073" lon="2.99654">
        <ele>935</ele>
        <time>2022-08-17T15:11:41Z</time>
      </trkpt>
      <trkpt lat="45.62079" lon="2.99649">
        <ele>935</ele>
        <time>2022-08-17T15:11:42Z</time>
      </trkpt>
      <trkpt lat="45.62084" lon="2.99644">
        <ele>935</ele>
        <time>2022-08-17T15:11:43Z</time>
      </trkpt>
      <trkpt lat="45.6209" lon="2.99638">
        <ele>935</ele>
        <time>2022-08-17T15:11:44Z</time>
      </trkpt>
      <trkpt lat="45.62096" lon="2.99633">
        <ele>935</ele>
        <time>2022-08-17T15:11:45Z</time>
      </trkpt>
      <trkpt lat="45.62101" lon="2.99628">
        <ele>935</ele>
        <time>2022-08-17T15:11:46Z</time>
      </trkpt>
      <trkpt lat="45.62107" lon="2.99623">
        <ele>935</ele>
        <time>2022-08-17T15:11:47Z</time>
      </trkpt>
      <trkpt lat="45.62113" lon="2.99618">
        <ele>934</ele>
        <time>2022-08-17T15:11:48Z</time>
      </trkpt>
      <trkpt lat="45.62121" lon="2.99599">
        <ele>934</ele>
        <time>2022-08-17T15:11:49Z</time>
      </trkpt>
      <trkpt lat="45.62123" lon="2.99588">
        <ele>934</ele>
        <time>2022-08-17T15:11:50Z</time>
      </trkpt>
      <trkpt lat="45.62126" lon="2.99578">
        <ele>934</ele>
        <time>2022-08-17T15:11:51Z</time>
      </trkpt>
      <trkpt lat="45.62129" lon="2.99567">
        <ele>934</ele>
        <time>2022-08-17T15:11:52Z</time>
      </trkpt>
      <trkpt lat="45.62132" lon="2.99556">
        <ele>934</ele>
        <time>2022-08-17T15:11:53Z</time>
      </trkpt>
      <trkpt lat="45.62134" lon="2.99546">
        <ele>934</ele>
        <time>2022-08-17T15:11:54Z</time>
      </trkpt>
      <trkpt lat="45.62137" lon="2.99535">
        <ele>934</ele>
        <time>2022-08-17T15:11:55Z</time>
      </trkpt>
      <trkpt lat="45.6214" lon="2.99524">
        <ele>934</ele>
        <time>2022-08-17T15:11:56Z</time>
      </trkpt>
      <trkpt lat="45.62143" lon="2.99514">
        <ele>934</ele>
        <time>2022-08-17T15:11:57Z</time>
      </trkpt>
      <trkpt lat="45.62145" lon="2.99503">
        <ele>925</ele>
        <time>2022-08-17T15:11:58Z</time>
      </trkpt>
      <trkpt lat="45.62147" lon="2.9949">
        <ele>925</ele>
        <time>2022-08-17T15:11:59Z</time>
      </trkpt>
      <trkpt lat="45.62149" lon="2.99476">
        <ele>925</ele>
        <time>2022-08-17T15:12:00Z</time>
      </trkpt>
      <trkpt lat="45.62151" lon="2.99462">
        <ele>925</ele>
        <time>2022-08-17T15:12:01Z</time>
      </trkpt>
      <trkpt lat="45.62152" lon="2.99448">
        <ele>925</ele>
        <time>2022-08-17T15:12:02Z</time>
      </trkpt>
      <trkpt lat="45.62153" lon="2.99434">
        <ele>925</ele>
        <time>2022-08-17T15:12:03Z</time>
      </trkpt>
      <trkpt lat="45.62153" lon="2.9942">
        <ele>925</ele>
        <time>2022-08-17T15:12:04Z</time>
      </trkpt>
      <trkpt lat="45.62153" lon="2.99405">
        <ele>925</ele>
        <time>2022-08-17T15:12:05Z</time>
      </trkpt>
      <trkpt lat="45.62154" lon="2.99391">
        <ele>925</ele>
        <time>2022-08-17T15:12:06Z</time>
      </trkpt>
      <trkpt lat="45.62154" lon="2.99377">
        <ele>925</ele>
        <time>2022-08-17T15:12:07Z</time>
      </trkpt>
      <trkpt lat="45.62153" lon="2.99363">
        <ele>918</ele>
        <time>2022-08-17T15:12:08Z</time>
      </trkpt>
      <trkpt lat="45.62152" lon="2.99348">
        <ele>918</ele>
        <time>2022-08-17T15:12:09Z</time>
      </trkpt>
      <trkpt lat="45.6215" lon="2.99334">
        <ele>918</ele>
        <time>2022-08-17T15:12:10Z</time>
      </trkpt>
      <trkpt lat="45.62147" lon="2.9932">
        <ele>918</ele>
        <time>2022-08-17T15:12:11Z</time>
      </trkpt>
      <trkpt lat="45.62143" lon="2.99306">
        <ele>918</ele>
        <time>2022-08-17T15:12:12Z</time>
      </trkpt>
      <trkpt lat="45.62138" lon="2.99292">
        <ele>918</ele>
        <time>2022-08-17T15:12:13Z</time>
      </trkpt>
      <trkpt lat="45.62134" lon="2.99278">
        <ele>918</ele>
        <time>2022-08-17T15:12:14Z</time>
      </trkpt>
      <trkpt lat="45.62131" lon="2.99263">
        <ele>918</ele>
        <time>2022-08-17T15:12:15Z</time>
      </trkpt>
      <trkpt lat="45.62129" lon="2.99248">
        <ele>918</ele>
        <time>2022-08-17T15:12:16Z</time>
      </trkpt>
      <trkpt lat="45.62127" lon="2.99224">
        <ele>918</ele>
        <time>2022-08-17T15:12:17Z</time>
      </trkpt>
      <trkpt lat="45.62127" lon="2.99216">
        <ele>914</ele>
        <time>2022-08-17T15:12:18Z</time>
      </trkpt>
      <trkpt lat="45.62126" lon="2.992">
        <ele>914</ele>
        <time>2022-08-17T15:12:19Z</time>
      </trkpt>
      <trkpt lat="45.62126" lon="2.99184">
        <ele>914</ele>
        <time>2022-08-17T15:12:20Z</time>
      </trkpt>
      <trkpt lat="45.62125" lon="2.99169">
        <ele>914</ele>
        <time>2022-08-17T15:12:21Z</time>
      </trkpt>
      <trkpt lat="45.62124" lon="2.99153">
        <ele>914</ele>
        <time>2022-08-17T15:12:22Z</time>
      </trkpt>
      <trkpt lat="45.62124" lon="2.99138">
        <ele>914</ele>
        <time>2022-08-17T15:12:23Z</time>
      </trkpt>
      <trkpt lat="45.62123" lon="2.99122">
        <ele>914</ele>
        <time>2022-08-17T15:12:24Z</time>
      </trkpt>
      <trkpt lat="45.62124" lon="2.99106">
        <ele>914</ele>
        <time>2022-08-17T15:12:25Z</time>
      </trkpt>
      <trkpt lat="45.62126" lon="2.9909">
        <ele>914</ele>
        <time>2022-08-17T15:12:26Z</time>
      </trkpt>
      <trkpt lat="45.62133" lon="2.99068">
        <ele>914</ele>
        <time>2022-08-17T15:12:27Z</time>
      </trkpt>
      <trkpt lat="45.62136" lon="2.99061">
        <ele>904</ele>
        <time>2022-08-17T15:12:28Z</time>
      </trkpt>
      <trkpt lat="45.62141" lon="2.99048">
        <ele>904</ele>
        <time>2022-08-17T15:12:29Z</time>
      </trkpt>
      <trkpt lat="45.62148" lon="2.99034">
        <ele>904</ele>
        <time>2022-08-17T15:12:30Z</time>
      </trkpt>
      <trkpt lat="45.62154" lon="2.99021">
        <ele>904</ele>
        <time>2022-08-17T15:12:31Z</time>
      </trkpt>
      <trkpt lat="45.62161" lon="2.99008">
        <ele>904</ele>
        <time>2022-08-17T15:12:32Z</time>
      </trkpt>
      <trkpt lat="45.62167" lon="2.98994">
        <ele>904</ele>
        <time>2022-08-17T15:12:33Z</time>
      </trkpt>
      <trkpt lat="45.62174" lon="2.98981">
        <ele>904</ele>
        <time>2022-08-17T15:12:34Z</time>
      </trkpt>
      <trkpt lat="45.62181" lon="2.98968">
        <ele>904</ele>
        <time>2022-08-17T15:12:35Z</time>
      </trkpt>
      <trkpt lat="45.62188" lon="2.98956">
        <ele>904</ele>
        <time>2022-08-17T15:12:36Z</time>
      </trkpt>
      <trkpt lat="45.62202" lon="2.98943">
        <ele>904</ele>
        <time>2022-08-17T15:12:37Z</time>
      </trkpt>
      <trkpt lat="45.62207" lon="2.9894">
        <ele>897</ele>
        <time>2022-08-17T15:12:38Z</time>
      </trkpt>
      <trkpt lat="45.62217" lon="2.98935">
        <ele>897</ele>
        <time>2022-08-17T15:12:39Z</time>
      </trkpt>
      <trkpt lat="45.62229" lon="2.98935">
        <ele>897</ele>
        <time>2022-08-17T15:12:40Z</time>
      </trkpt>
      <trkpt lat="45.6224" lon="2.98936">
        <ele>897</ele>
        <time>2022-08-17T15:12:41Z</time>
      </trkpt>
      <trkpt lat="45.62252" lon="2.98938">
        <ele>897</ele>
        <time>2022-08-17T15:12:42Z</time>
      </trkpt>
      <trkpt lat="45.62263" lon="2.9894">
        <ele>897</ele>
        <time>2022-08-17T15:12:43Z</time>
      </trkpt>
      <trkpt lat="45.62274" lon="2.9894">
        <ele>897</ele>
        <time>2022-08-17T15:12:44Z</time>
      </trkpt>
      <trkpt lat="45.62284" lon="2.98939">
        <ele>897</ele>
        <time>2022-08-17T15:12:45Z</time>
      </trkpt>
      <trkpt lat="45.62293" lon="2.98935">
        <ele>897</ele>
        <time>2022-08-17T15:12:46Z</time>
      </trkpt>
      <trkpt lat="45.62303" lon="2.98922">
        <ele>897</ele>
        <time>2022-08-17T15:12:47Z</time>
      </trkpt>
      <trkpt lat="45.62306" lon="2.98917">
        <ele>884</ele>
        <time>2022-08-17T15:12:48Z</time>
      </trkpt>
      <trkpt lat="45.62311" lon="2.98907">
        <ele>884</ele>
        <time>2022-08-17T15:12:49Z</time>
      </trkpt>
      <trkpt lat="45.62314" lon="2.98894">
        <ele>884</ele>
        <time>2022-08-17T15:12:50Z</time>
      </trkpt>
      <trkpt lat="45.62314" lon="2.9888">
        <ele>884</ele>
        <time>2022-08-17T15:12:51Z</time>
      </trkpt>
      <trkpt lat="45.62314" lon="2.98866">
        <ele>884</ele>
        <time>2022-08-17T15:12:52Z</time>
      </trkpt>
      <trkpt lat="45.62313" lon="2.98851">
        <ele>884</ele>
        <time>2022-08-17T15:12:53Z</time>
      </trkpt>
      <trkpt lat="45.62312" lon="2.98837">
        <ele>884</ele>
        <time>2022-08-17T15:12:54Z</time>
      </trkpt>
      <trkpt lat="45.62311" lon="2.98822">
        <ele>884</ele>
        <time>2022-08-17T15:12:55Z</time>
      </trkpt>
      <trkpt lat="45.62311" lon="2.98807">
        <ele>884</ele>
        <time>2022-08-17T15:12:56Z</time>
      </trkpt>
      <trkpt lat="45.62312" lon="2.98792">
        <ele>884</ele>
        <time>2022-08-17T15:12:57Z</time>
      </trkpt>
      <trkpt lat="45.62314" lon="2.98778">
        <ele>879</ele>
        <time>2022-08-17T15:12:58Z</time>
      </trkpt>
      <trkpt lat="45.62322" lon="2.98761">
        <ele>879</ele>
        <time>2022-08-17T15:12:59Z</time>
      </trkpt>
      <trkpt lat="45.62327" lon="2.98758">
        <ele>879</ele>
        <time>2022-08-17T15:13:00Z</time>
      </trkpt>
      <trkpt lat="45.62333" lon="2.98755">
        <ele>879</ele>
        <time>2022-08-17T15:13:01Z</time>
      </trkpt>
      <trkpt lat="45.62338" lon="2.98752">
        <ele>879</ele>
        <time>2022-08-17T15:13:02Z</time>
      </trkpt>
      <trkpt lat="45.62344" lon="2.98749">
        <ele>879</ele>
        <time>2022-08-17T15:13:03Z</time>
      </trkpt>
      <trkpt lat="45.62349" lon="2.98747">
        <ele>879</ele>
        <time>2022-08-17T15:13:04Z</time>
      </trkpt>
      <trkpt lat="45.62355" lon="2.98744">
        <ele>879</ele>
        <time>2022-08-17T15:13:05Z</time>
      </trkpt>
      <trkpt lat="45.6236" lon="2.98741">
        <ele>879</ele>
        <time>2022-08-17T15:13:06Z</time>
      </trkpt>
      <trkpt lat="45.62366" lon="2.98738">
        <ele>879</ele>
        <time>2022-08-17T15:13:07Z</time>
      </trkpt>
      <trkpt lat="45.62371" lon="2.98735">
        <ele>871</ele>
        <time>2022-08-17T15:13:08Z</time>
      </trkpt>
      <trkpt lat="45.62375" lon="2.98758">
        <ele>871</ele>
        <time>2022-08-17T15:13:09Z</time>
      </trkpt>
      <trkpt lat="45.62377" lon="2.98768">
        <ele>871</ele>
        <time>2022-08-17T15:13:10Z</time>
      </trkpt>
      <trkpt lat="45.6238" lon="2.98779">
        <ele>871</ele>
        <time>2022-08-17T15:13:11Z</time>
      </trkpt>
      <trkpt lat="45.62383" lon="2.98789">
        <ele>871</ele>
        <time>2022-08-17T15:13:12Z</time>
      </trkpt>
      <trkpt lat="45.62386" lon="2.98799">
        <ele>871</ele>
        <time>2022-08-17T15:13:13Z</time>
      </trkpt>
      <trkpt lat="45.62389" lon="2.98809">
        <ele>871</ele>
        <time>2022-08-17T15:13:15Z</time>
      </trkpt>
      <trkpt lat="45.62392" lon="2.98819">
        <ele>871</ele>
        <time>2022-08-17T15:13:16Z</time>
      </trkpt>
      <trkpt lat="45.62394" lon="2.98829">
        <ele>871</ele>
        <time>2022-08-17T15:13:17Z</time>
      </trkpt>
      <trkpt lat="45.62397" lon="2.9884">
        <ele>866</ele>
        <time>2022-08-17T15:13:18Z</time>
      </trkpt>
      <trkpt lat="45.62404" lon="2.98841">
        <ele>866</ele>
        <time>2022-08-17T15:13:19Z</time>
      </trkpt>
      <trkpt lat="45.62414" lon="2.98836">
        <ele>866</ele>
        <time>2022-08-17T15:13:20Z</time>
      </trkpt>
      <trkpt lat="45.62424" lon="2.9883">
        <ele>866</ele>
        <time>2022-08-17T15:13:21Z</time>
      </trkpt>
      <trkpt lat="45.62434" lon="2.98826">
        <ele>866</ele>
        <time>2022-08-17T15:13:22Z</time>
      </trkpt>
      <trkpt lat="45.62445" lon="2.98823">
        <ele>866</ele>
        <time>2022-08-17T15:13:23Z</time>
      </trkpt>
      <trkpt lat="45.62455" lon="2.98823">
        <ele>866</ele>
        <time>2022-08-17T15:13:24Z</time>
      </trkpt>
      <trkpt lat="45.62465" lon="2.98824">
        <ele>866</ele>
        <time>2022-08-17T15:13:25Z</time>
      </trkpt>
      <trkpt lat="45.62476" lon="2.98824">
        <ele>866</ele>
        <time>2022-08-17T15:13:26Z</time>
      </trkpt>
      <trkpt lat="45.62494" lon="2.98822">
        <ele>866</ele>
        <time>2022-08-17T15:13:27Z</time>
      </trkpt>
      <trkpt lat="45.625" lon="2.9882">
        <ele>859</ele>
        <time>2022-08-17T15:13:28Z</time>
      </trkpt>
      <trkpt lat="45.62512" lon="2.98816">
        <ele>859</ele>
        <time>2022-08-17T15:13:29Z</time>
      </trkpt>
      <trkpt lat="45.62523" lon="2.98809">
        <ele>859</ele>
        <time>2022-08-17T15:13:30Z</time>
      </trkpt>
      <trkpt lat="45.62532" lon="2.98804">
        <ele>859</ele>
        <time>2022-08-17T15:13:31Z</time>
      </trkpt>
      <trkpt lat="45.62552" lon="2.98804">
        <ele>859</ele>
        <time>2022-08-17T15:13:33Z</time>
      </trkpt>
      <trkpt lat="45.62563" lon="2.98809">
        <ele>859</ele>
        <time>2022-08-17T15:13:34Z</time>
      </trkpt>
      <trkpt lat="45.62572" lon="2.98816">
        <ele>859</ele>
        <time>2022-08-17T15:13:35Z</time>
      </trkpt>
      <trkpt lat="45.62582" lon="2.98824">
        <ele>859</ele>
        <time>2022-08-17T15:13:36Z</time>
      </trkpt>
      <trkpt lat="45.62591" lon="2.98831">
        <ele>859</ele>
        <time>2022-08-17T15:13:37Z</time>
      </trkpt>
      <trkpt lat="45.626" lon="2.98838">
        <ele>852</ele>
        <time>2022-08-17T15:13:38Z</time>
      </trkpt>
      <trkpt lat="45.62615" lon="2.98851">
        <ele>852</ele>
        <time>2022-08-17T15:13:39Z</time>
      </trkpt>
      <trkpt lat="45.62622" lon="2.98857">
        <ele>852</ele>
        <time>2022-08-17T15:13:40Z</time>
      </trkpt>
      <trkpt lat="45.62628" lon="2.98862">
        <ele>852</ele>
        <time>2022-08-17T15:13:41Z</time>
      </trkpt>
      <trkpt lat="45.62635" lon="2.98868">
        <ele>852</ele>
        <time>2022-08-17T15:13:42Z</time>
      </trkpt>
      <trkpt lat="45.62642" lon="2.98873">
        <ele>852</ele>
        <time>2022-08-17T15:13:43Z</time>
      </trkpt>
      <trkpt lat="45.62648" lon="2.98879">
        <ele>852</ele>
        <time>2022-08-17T15:13:44Z</time>
      </trkpt>
      <trkpt lat="45.62655" lon="2.98884">
        <ele>852</ele>
        <time>2022-08-17T15:13:45Z</time>
      </trkpt>
      <trkpt lat="45.62661" lon="2.9889">
        <ele>852</ele>
        <time>2022-08-17T15:13:46Z</time>
      </trkpt>
      <trkpt lat="45.62668" lon="2.98895">
        <ele>852</ele>
        <time>2022-08-17T15:13:47Z</time>
      </trkpt>
      <trkpt lat="45.62675" lon="2.98901">
        <ele>852</ele>
        <time>2022-08-17T15:13:48Z</time>
      </trkpt>
      <trkpt lat="45.62685" lon="2.98909">
        <ele>852</ele>
        <time>2022-08-17T15:13:49Z</time>
      </trkpt>
      <trkpt lat="45.6269" lon="2.98913">
        <ele>852</ele>
        <time>2022-08-17T15:13:50Z</time>
      </trkpt>
      <trkpt lat="45.62695" lon="2.98917">
        <ele>852</ele>
        <time>2022-08-17T15:13:51Z</time>
      </trkpt>
      <trkpt lat="45.62699" lon="2.98921">
        <ele>852</ele>
        <time>2022-08-17T15:13:52Z</time>
      </trkpt>
      <trkpt lat="45.62704" lon="2.98925">
        <ele>852</ele>
        <time>2022-08-17T15:13:53Z</time>
      </trkpt>
      <trkpt lat="45.62708" lon="2.98929">
        <ele>852</ele>
        <time>2022-08-17T15:13:55Z</time>
      </trkpt>
      <trkpt lat="45.62713" lon="2.98932">
        <ele>852</ele>
        <time>2022-08-17T15:13:56Z</time>
      </trkpt>
      <trkpt lat="45.62718" lon="2.98936">
        <ele>852</ele>
        <time>2022-08-17T15:13:57Z</time>
      </trkpt>
      <trkpt lat="45.62722" lon="2.9894">
        <ele>854</ele>
        <time>2022-08-17T15:13:58Z</time>
      </trkpt>
      <trkpt lat="45.6273" lon="2.98946">
        <ele>854</ele>
        <time>2022-08-17T15:13:59Z</time>
      </trkpt>
      <trkpt lat="45.62733" lon="2.98949">
        <ele>854</ele>
        <time>2022-08-17T15:14:00Z</time>
      </trkpt>
      <trkpt lat="45.62736" lon="2.98952">
        <ele>854</ele>
        <time>2022-08-17T15:14:01Z</time>
      </trkpt>
      <trkpt lat="45.6274" lon="2.98955">
        <ele>854</ele>
        <time>2022-08-17T15:14:02Z</time>
      </trkpt>
      <trkpt lat="45.62743" lon="2.98958">
        <ele>854</ele>
        <time>2022-08-17T15:14:03Z</time>
      </trkpt>
      <trkpt lat="45.62746" lon="2.98961">
        <ele>854</ele>
        <time>2022-08-17T15:14:04Z</time>
      </trkpt>
      <trkpt lat="45.6275" lon="2.98964">
        <ele>854</ele>
        <time>2022-08-17T15:14:05Z</time>
      </trkpt>
      <trkpt lat="45.62753" lon="2.98967">
        <ele>854</ele>
        <time>2022-08-17T15:14:06Z</time>
      </trkpt>
      <trkpt lat="45.62756" lon="2.9897">
        <ele>854</ele>
        <time>2022-08-17T15:14:07Z</time>
      </trkpt>
      <trkpt lat="45.6276" lon="2.98973">
        <ele>855</ele>
        <time>2022-08-17T15:14:08Z</time>
      </trkpt>
      <trkpt lat="45.62766" lon="2.98981">
        <ele>855</ele>
        <time>2022-08-17T15:14:09Z</time>
      </trkpt>
      <trkpt lat="45.62768" lon="2.98985">
        <ele>855</ele>
        <time>2022-08-17T15:14:10Z</time>
      </trkpt>
      <trkpt lat="45.6277" lon="2.98989">
        <ele>855</ele>
        <time>2022-08-17T15:14:11Z</time>
      </trkpt>
      <trkpt lat="45.62773" lon="2.98993">
        <ele>855</ele>
        <time>2022-08-17T15:14:12Z</time>
      </trkpt>
      <trkpt lat="45.62775" lon="2.98996">
        <ele>855</ele>
        <time>2022-08-17T15:14:13Z</time>
      </trkpt>
      <trkpt lat="45.62778" lon="2.99">
        <ele>855</ele>
        <time>2022-08-17T15:14:14Z</time>
      </trkpt>
      <trkpt lat="45.6278" lon="2.99004">
        <ele>855</ele>
        <time>2022-08-17T15:14:15Z</time>
      </trkpt>
      <trkpt lat="45.62783" lon="2.99008">
        <ele>855</ele>
        <time>2022-08-17T15:14:16Z</time>
      </trkpt>
      <trkpt lat="45.62785" lon="2.99012">
        <ele>855</ele>
        <time>2022-08-17T15:14:17Z</time>
      </trkpt>
      <trkpt lat="45.62788" lon="2.99016">
        <ele>857</ele>
        <time>2022-08-17T15:14:18Z</time>
      </trkpt>
      <trkpt lat="45.62793" lon="2.99023">
        <ele>857</ele>
        <time>2022-08-17T15:14:19Z</time>
      </trkpt>
      <trkpt lat="45.62797" lon="2.99026">
        <ele>857</ele>
        <time>2022-08-17T15:14:20Z</time>
      </trkpt>
      <trkpt lat="45.628" lon="2.99028">
        <ele>857</ele>
        <time>2022-08-17T15:14:21Z</time>
      </trkpt>
      <trkpt lat="45.62803" lon="2.9903">
        <ele>857</ele>
        <time>2022-08-17T15:14:22Z</time>
      </trkpt>
      <trkpt lat="45.62807" lon="2.99032">
        <ele>857</ele>
        <time>2022-08-17T15:14:23Z</time>
      </trkpt>
      <trkpt lat="45.6281" lon="2.99035">
        <ele>857</ele>
        <time>2022-08-17T15:14:24Z</time>
      </trkpt>
      <trkpt lat="45.62813" lon="2.99037">
        <ele>857</ele>
        <time>2022-08-17T15:14:25Z</time>
      </trkpt>
      <trkpt lat="45.62816" lon="2.99039">
        <ele>857</ele>
        <time>2022-08-17T15:14:26Z</time>
      </trkpt>
      <trkpt lat="45.6282" lon="2.99042">
        <ele>857</ele>
        <time>2022-08-17T15:14:27Z</time>
      </trkpt>
      <trkpt lat="45.62823" lon="2.99044">
        <ele>859</ele>
        <time>2022-08-17T15:14:28Z</time>
      </trkpt>
      <trkpt lat="45.62835" lon="2.99049">
        <ele>859</ele>
        <time>2022-08-17T15:14:30Z</time>
      </trkpt>
      <trkpt lat="45.6284" lon="2.99051">
        <ele>859</ele>
        <time>2022-08-17T15:14:31Z</time>
      </trkpt>
      <trkpt lat="45.62845" lon="2.99053">
        <ele>859</ele>
        <time>2022-08-17T15:14:33Z</time>
      </trkpt>
      <trkpt lat="45.6285" lon="2.99055">
        <ele>859</ele>
        <time>2022-08-17T15:14:35Z</time>
      </trkpt>
      <trkpt lat="45.62854" lon="2.99057">
        <ele>859</ele>
        <time>2022-08-17T15:14:37Z</time>
      </trkpt>
      <trkpt lat="45.62859" lon="2.99059">
        <ele>861</ele>
        <time>2022-08-17T15:14:38Z</time>
      </trkpt>
      <trkpt lat="45.62869" lon="2.99065">
        <ele>861</ele>
        <time>2022-08-17T15:14:39Z</time>
      </trkpt>
      <trkpt lat="45.62875" lon="2.99069">
        <ele>861</ele>
        <time>2022-08-17T15:14:41Z</time>
      </trkpt>
      <trkpt lat="45.6288" lon="2.99072">
        <ele>861</ele>
        <time>2022-08-17T15:14:43Z</time>
      </trkpt>
      <trkpt lat="45.62886" lon="2.99076">
        <ele>861</ele>
        <time>2022-08-17T15:14:45Z</time>
      </trkpt>
      <trkpt lat="45.62892" lon="2.9908">
        <ele>863</ele>
        <time>2022-08-17T15:14:48Z</time>
      </trkpt>
      <trkpt lat="45.62905" lon="2.99086">
        <ele>863</ele>
        <time>2022-08-17T15:14:49Z</time>
      </trkpt>
      <trkpt lat="45.62911" lon="2.99088">
        <ele>863</ele>
        <time>2022-08-17T15:14:50Z</time>
      </trkpt>
      <trkpt lat="45.62917" lon="2.9909">
        <ele>863</ele>
        <time>2022-08-17T15:14:52Z</time>
      </trkpt>
      <trkpt lat="45.62923" lon="2.99092">
        <ele>863</ele>
        <time>2022-08-17T15:14:54Z</time>
      </trkpt>
      <trkpt lat="45.62929" lon="2.99094">
        <ele>863</ele>
        <time>2022-08-17T15:14:56Z</time>
      </trkpt>
      <trkpt lat="45.62934" lon="2.99096">
        <ele>864</ele>
        <time>2022-08-17T15:14:58Z</time>
      </trkpt>
      <trkpt lat="45.62948" lon="2.99103">
        <ele>864</ele>
        <time>2022-08-17T15:15:00Z</time>
      </trkpt>
      <trkpt lat="45.62954" lon="2.99105">
        <ele>864</ele>
        <time>2022-08-17T15:15:02Z</time>
      </trkpt>
      <trkpt lat="45.6296" lon="2.99108">
        <ele>864</ele>
        <time>2022-08-17T15:15:04Z</time>
      </trkpt>
      <trkpt lat="45.62967" lon="2.99111">
        <ele>864</ele>
        <time>2022-08-17T15:15:06Z</time>
      </trkpt>
      <trkpt lat="45.62973" lon="2.99114">
        <ele>865</ele>
        <time>2022-08-17T15:15:08Z</time>
      </trkpt>
      <trkpt lat="45.62987" lon="2.99116">
        <ele>865</ele>
        <time>2022-08-17T15:15:10Z</time>
      </trkpt>
      <trkpt lat="45.62994" lon="2.99114">
        <ele>865</ele>
        <time>2022-08-17T15:15:12Z</time>
      </trkpt>
      <trkpt lat="45.63" lon="2.99113">
        <ele>865</ele>
        <time>2022-08-17T15:15:14Z</time>
      </trkpt>
      <trkpt lat="45.63007" lon="2.99112">
        <ele>865</ele>
        <time>2022-08-17T15:15:16Z</time>
      </trkpt>
      <trkpt lat="45.63013" lon="2.9911">
        <ele>865</ele>
        <time>2022-08-17T15:15:18Z</time>
      </trkpt>
      <trkpt lat="45.63027" lon="2.99107">
        <ele>865</ele>
        <time>2022-08-17T15:15:20Z</time>
      </trkpt>
      <trkpt lat="45.63033" lon="2.99106">
        <ele>865</ele>
        <time>2022-08-17T15:15:22Z</time>
      </trkpt>
      <trkpt lat="45.63039" lon="2.99106">
        <ele>865</ele>
        <time>2022-08-17T15:15:24Z</time>
      </trkpt>
      <trkpt lat="45.63045" lon="2.99105">
        <ele>865</ele>
        <time>2022-08-17T15:15:26Z</time>
      </trkpt>
      <trkpt lat="45.63052" lon="2.99105">
        <ele>867</ele>
        <time>2022-08-17T15:15:28Z</time>
      </trkpt>
      <trkpt lat="45.63065" lon="2.99105">
        <ele>867</ele>
        <time>2022-08-17T15:15:30Z</time>
      </trkpt>
      <trkpt lat="45.63072" lon="2.99104">
        <ele>867</ele>
        <time>2022-08-17T15:15:32Z</time>
      </trkpt>
      <trkpt lat="45.63078" lon="2.99104">
        <ele>867</ele>
        <time>2022-08-17T15:15:34Z</time>
      </trkpt>
      <trkpt lat="45.63084" lon="2.99104">
        <ele>867</ele>
        <time>2022-08-17T15:15:36Z</time>
      </trkpt>
      <trkpt lat="45.63091" lon="2.99104">
        <ele>870</ele>
        <time>2022-08-17T15:15:38Z</time>
      </trkpt>
      <trkpt lat="45.63099" lon="2.99104">
        <ele>870</ele>
        <time>2022-08-17T15:15:39Z</time>
      </trkpt>
      <trkpt lat="45.63104" lon="2.99103">
        <ele>870</ele>
        <time>2022-08-17T15:15:40Z</time>
      </trkpt>
      <trkpt lat="45.63108" lon="2.99103">
        <ele>870</ele>
        <time>2022-08-17T15:15:41Z</time>
      </trkpt>
      <trkpt lat="45.63113" lon="2.99102">
        <ele>870</ele>
        <time>2022-08-17T15:15:43Z</time>
      </trkpt>
      <trkpt lat="45.63117" lon="2.99102">
        <ele>870</ele>
        <time>2022-08-17T15:15:45Z</time>
      </trkpt>
      <trkpt lat="45.63122" lon="2.99102">
        <ele>870</ele>
        <time>2022-08-17T15:15:46Z</time>
      </trkpt>
      <trkpt lat="45.63126" lon="2.99101">
        <ele>870</ele>
        <time>2022-08-17T15:15:47Z</time>
      </trkpt>
      <trkpt lat="45.63131" lon="2.99101">
        <ele>870</ele>
        <time>2022-08-17T15:15:48Z</time>
      </trkpt>
      <trkpt lat="45.63139" lon="2.99103">
        <ele>870</ele>
        <time>2022-08-17T15:15:49Z</time>
      </trkpt>
      <trkpt lat="45.63143" lon="2.99105">
        <ele>870</ele>
        <time>2022-08-17T15:15:50Z</time>
      </trkpt>
      <trkpt lat="45.63147" lon="2.99107">
        <ele>870</ele>
        <time>2022-08-17T15:15:51Z</time>
      </trkpt>
      <trkpt lat="45.63151" lon="2.99109">
        <ele>870</ele>
        <time>2022-08-17T15:15:52Z</time>
      </trkpt>
      <trkpt lat="45.63156" lon="2.99111">
        <ele>870</ele>
        <time>2022-08-17T15:15:53Z</time>
      </trkpt>
      <trkpt lat="45.6316" lon="2.99113">
        <ele>870</ele>
        <time>2022-08-17T15:15:54Z</time>
      </trkpt>
      <trkpt lat="45.63164" lon="2.99115">
        <ele>870</ele>
        <time>2022-08-17T15:15:56Z</time>
      </trkpt>
      <trkpt lat="45.63168" lon="2.99117">
        <ele>871</ele>
        <time>2022-08-17T15:15:58Z</time>
      </trkpt>
      <trkpt lat="45.63179" lon="2.99126">
        <ele>871</ele>
        <time>2022-08-17T15:16:00Z</time>
      </trkpt>
      <trkpt lat="45.63182" lon="2.99129">
        <ele>871</ele>
        <time>2022-08-17T15:16:02Z</time>
      </trkpt>
      <trkpt lat="45.63186" lon="2.99132">
        <ele>871</ele>
        <time>2022-08-17T15:16:03Z</time>
      </trkpt>
      <trkpt lat="45.6319" lon="2.99135">
        <ele>871</ele>
        <time>2022-08-17T15:16:04Z</time>
      </trkpt>
      <trkpt lat="45.63193" lon="2.99138">
        <ele>871</ele>
        <time>2022-08-17T15:16:05Z</time>
      </trkpt>
      <trkpt lat="45.63197" lon="2.99141">
        <ele>871</ele>
        <time>2022-08-17T15:16:06Z</time>
      </trkpt>
      <trkpt lat="45.63201" lon="2.99144">
        <ele>871</ele>
        <time>2022-08-17T15:16:07Z</time>
      </trkpt>
      <trkpt lat="45.63204" lon="2.99147">
        <ele>873</ele>
        <time>2022-08-17T15:16:08Z</time>
      </trkpt>
      <trkpt lat="45.63211" lon="2.99153">
        <ele>873</ele>
        <time>2022-08-17T15:16:09Z</time>
      </trkpt>
      <trkpt lat="45.63215" lon="2.99156">
        <ele>873</ele>
        <time>2022-08-17T15:16:10Z</time>
      </trkpt>
      <trkpt lat="45.63218" lon="2.99159">
        <ele>873</ele>
        <time>2022-08-17T15:16:11Z</time>
      </trkpt>
      <trkpt lat="45.63221" lon="2.99162">
        <ele>873</ele>
        <time>2022-08-17T15:16:12Z</time>
      </trkpt>
      <trkpt lat="45.63225" lon="2.99164">
        <ele>873</ele>
        <time>2022-08-17T15:16:13Z</time>
      </trkpt>
      <trkpt lat="45.63228" lon="2.99167">
        <ele>873</ele>
        <time>2022-08-17T15:16:14Z</time>
      </trkpt>
      <trkpt lat="45.63231" lon="2.9917">
        <ele>873</ele>
        <time>2022-08-17T15:16:15Z</time>
      </trkpt>
      <trkpt lat="45.63235" lon="2.99173">
        <ele>873</ele>
        <time>2022-08-17T15:16:16Z</time>
      </trkpt>
      <trkpt lat="45.63238" lon="2.99176">
        <ele>873</ele>
        <time>2022-08-17T15:16:17Z</time>
      </trkpt>
      <trkpt lat="45.63241" lon="2.99179">
        <ele>875</ele>
        <time>2022-08-17T15:16:18Z</time>
      </trkpt>
      <trkpt lat="45.63248" lon="2.99186">
        <ele>875</ele>
        <time>2022-08-17T15:16:19Z</time>
      </trkpt>
      <trkpt lat="45.63252" lon="2.9919">
        <ele>875</ele>
        <time>2022-08-17T15:16:20Z</time>
      </trkpt>
      <trkpt lat="45.63256" lon="2.99193">
        <ele>875</ele>
        <time>2022-08-17T15:16:21Z</time>
      </trkpt>
      <trkpt lat="45.63259" lon="2.99196">
        <ele>875</ele>
        <time>2022-08-17T15:16:22Z</time>
      </trkpt>
      <trkpt lat="45.63263" lon="2.992">
        <ele>875</ele>
        <time>2022-08-17T15:16:23Z</time>
      </trkpt>
      <trkpt lat="45.63267" lon="2.99203">
        <ele>875</ele>
        <time>2022-08-17T15:16:24Z</time>
      </trkpt>
      <trkpt lat="45.6327" lon="2.99207">
        <ele>875</ele>
        <time>2022-08-17T15:16:25Z</time>
      </trkpt>
      <trkpt lat="45.63274" lon="2.9921">
        <ele>875</ele>
        <time>2022-08-17T15:16:26Z</time>
      </trkpt>
      <trkpt lat="45.63278" lon="2.99214">
        <ele>875</ele>
        <time>2022-08-17T15:16:27Z</time>
      </trkpt>
      <trkpt lat="45.63281" lon="2.99217">
        <ele>876</ele>
        <time>2022-08-17T15:16:28Z</time>
      </trkpt>
      <trkpt lat="45.63293" lon="2.99224">
        <ele>876</ele>
        <time>2022-08-17T15:16:29Z</time>
      </trkpt>
      <trkpt lat="45.63299" lon="2.99227">
        <ele>876</ele>
        <time>2022-08-17T15:16:30Z</time>
      </trkpt>
      <trkpt lat="45.63305" lon="2.9923">
        <ele>876</ele>
        <time>2022-08-17T15:16:31Z</time>
      </trkpt>
      <trkpt lat="45.63311" lon="2.99233">
        <ele>876</ele>
        <time>2022-08-17T15:16:32Z</time>
      </trkpt>
      <trkpt lat="45.63317" lon="2.99237">
        <ele>876</ele>
        <time>2022-08-17T15:16:33Z</time>
      </trkpt>
      <trkpt lat="45.63323" lon="2.9924">
        <ele>876</ele>
        <time>2022-08-17T15:16:34Z</time>
      </trkpt>
      <trkpt lat="45.63329" lon="2.99243">
        <ele>876</ele>
        <time>2022-08-17T15:16:35Z</time>
      </trkpt>
      <trkpt lat="45.63335" lon="2.99247">
        <ele>876</ele>
        <time>2022-08-17T15:16:36Z</time>
      </trkpt>
      <trkpt lat="45.63341" lon="2.9925">
        <ele>876</ele>
        <time>2022-08-17T15:16:37Z</time>
      </trkpt>
      <trkpt lat="45.63347" lon="2.99253">
        <ele>875</ele>
        <time>2022-08-17T15:16:38Z</time>
      </trkpt>
      <trkpt lat="45.63358" lon="2.99267">
        <ele>875</ele>
        <time>2022-08-17T15:16:39Z</time>
      </trkpt>
      <trkpt lat="45.63362" lon="2.99275">
        <ele>875</ele>
        <time>2022-08-17T15:16:40Z</time>
      </trkpt>
      <trkpt lat="45.63366" lon="2.99283">
        <ele>875</ele>
        <time>2022-08-17T15:16:41Z</time>
      </trkpt>
      <trkpt lat="45.63369" lon="2.99291">
        <ele>875</ele>
        <time>2022-08-17T15:16:42Z</time>
      </trkpt>
      <trkpt lat="45.63373" lon="2.99299">
        <ele>875</ele>
        <time>2022-08-17T15:16:43Z</time>
      </trkpt>
      <trkpt lat="45.63377" lon="2.99307">
        <ele>875</ele>
        <time>2022-08-17T15:16:44Z</time>
      </trkpt>
      <trkpt lat="45.63381" lon="2.99316">
        <ele>875</ele>
        <time>2022-08-17T15:16:45Z</time>
      </trkpt>
      <trkpt lat="45.63385" lon="2.99324">
        <ele>875</ele>
        <time>2022-08-17T15:16:46Z</time>
      </trkpt>
      <trkpt lat="45.63388" lon="2.99332">
        <ele>875</ele>
        <time>2022-08-17T15:16:47Z</time>
      </trkpt>
      <trkpt lat="45.63392" lon="2.9934">
        <ele>873</ele>
        <time>2022-08-17T15:16:48Z</time>
      </trkpt>
      <trkpt lat="45.63395" lon="2.99357">
        <ele>873</ele>
        <time>2022-08-17T15:16:49Z</time>
      </trkpt>
      <trkpt lat="45.63398" lon="2.99364">
        <ele>873</ele>
        <time>2022-08-17T15:16:50Z</time>
      </trkpt>
      <trkpt lat="45.63401" lon="2.99371">
        <ele>873</ele>
        <time>2022-08-17T15:16:51Z</time>
      </trkpt>
      <trkpt lat="45.63403" lon="2.99378">
        <ele>873</ele>
        <time>2022-08-17T15:16:52Z</time>
      </trkpt>
      <trkpt lat="45.63406" lon="2.99384">
        <ele>873</ele>
        <time>2022-08-17T15:16:53Z</time>
      </trkpt>
      <trkpt lat="45.63409" lon="2.99391">
        <ele>873</ele>
        <time>2022-08-17T15:16:54Z</time>
      </trkpt>
      <trkpt lat="45.63412" lon="2.99398">
        <ele>873</ele>
        <time>2022-08-17T15:16:56Z</time>
      </trkpt>
      <trkpt lat="45.63414" lon="2.99405">
        <ele>873</ele>
        <time>2022-08-17T15:16:57Z</time>
      </trkpt>
      <trkpt lat="45.63417" lon="2.99412">
        <ele>872</ele>
        <time>2022-08-17T15:16:58Z</time>
      </trkpt>
      <trkpt lat="45.63424" lon="2.9942">
        <ele>872</ele>
        <time>2022-08-17T15:16:59Z</time>
      </trkpt>
      <trkpt lat="45.63428" lon="2.99423">
        <ele>872</ele>
        <time>2022-08-17T15:17:00Z</time>
      </trkpt>
      <trkpt lat="45.63432" lon="2.99427">
        <ele>872</ele>
        <time>2022-08-17T15:17:01Z</time>
      </trkpt>
      <trkpt lat="45.63435" lon="2.99431">
        <ele>872</ele>
        <time>2022-08-17T15:17:02Z</time>
      </trkpt>
      <trkpt lat="45.63439" lon="2.99435">
        <ele>872</ele>
        <time>2022-08-17T15:17:04Z</time>
      </trkpt>
      <trkpt lat="45.63443" lon="2.99438">
        <ele>872</ele>
        <time>2022-08-17T15:17:06Z</time>
      </trkpt>
      <trkpt lat="45.63447" lon="2.99442">
        <ele>872</ele>
        <time>2022-08-17T15:17:07Z</time>
      </trkpt>
      <trkpt lat="45.6345" lon="2.99446">
        <ele>874</ele>
        <time>2022-08-17T15:17:08Z</time>
      </trkpt>
      <trkpt lat="45.63459" lon="2.99451">
        <ele>874</ele>
        <time>2022-08-17T15:17:09Z</time>
      </trkpt>
      <trkpt lat="45.63464" lon="2.99454">
        <ele>874</ele>
        <time>2022-08-17T15:17:11Z</time>
      </trkpt>
      <trkpt lat="45.6347" lon="2.99456">
        <ele>874</ele>
        <time>2022-08-17T15:17:13Z</time>
      </trkpt>
      <trkpt lat="45.63475" lon="2.99459">
        <ele>874</ele>
        <time>2022-08-17T15:17:14Z</time>
      </trkpt>
      <trkpt lat="45.63481" lon="2.99461">
        <ele>874</ele>
        <time>2022-08-17T15:17:15Z</time>
      </trkpt>
      <trkpt lat="45.63486" lon="2.99464">
        <ele>874</ele>
        <time>2022-08-17T15:17:17Z</time>
      </trkpt>
      <trkpt lat="45.63491" lon="2.99466">
        <ele>876</ele>
        <time>2022-08-17T15:17:18Z</time>
      </trkpt>
      <trkpt lat="45.635" lon="2.99467">
        <ele>876</ele>
        <time>2022-08-17T15:17:19Z</time>
      </trkpt>
      <trkpt lat="45.63504" lon="2.99467">
        <ele>876</ele>
        <time>2022-08-17T15:17:20Z</time>
      </trkpt>
      <trkpt lat="45.63508" lon="2.99466">
        <ele>876</ele>
        <time>2022-08-17T15:17:21Z</time>
      </trkpt>
      <trkpt lat="45.63513" lon="2.99466">
        <ele>876</ele>
        <time>2022-08-17T15:17:22Z</time>
      </trkpt>
      <trkpt lat="45.63517" lon="2.99466">
        <ele>876</ele>
        <time>2022-08-17T15:17:23Z</time>
      </trkpt>
      <trkpt lat="45.63521" lon="2.99466">
        <ele>876</ele>
        <time>2022-08-17T15:17:24Z</time>
      </trkpt>
      <trkpt lat="45.63525" lon="2.99466">
        <ele>876</ele>
        <time>2022-08-17T15:17:25Z</time>
      </trkpt>
      <trkpt lat="45.63529" lon="2.99466">
        <ele>876</ele>
        <time>2022-08-17T15:17:26Z</time>
      </trkpt>
      <trkpt lat="45.63533" lon="2.99466">
        <ele>876</ele>
        <time>2022-08-17T15:17:27Z</time>
      </trkpt>
      <trkpt lat="45.63537" lon="2.99465">
        <ele>876</ele>
        <time>2022-08-17T15:17:28Z</time>
      </trkpt>
      <trkpt lat="45.63552" lon="2.99463">
        <ele>876</ele>
        <time>2022-08-17T15:17:30Z</time>
      </trkpt>
      <trkpt lat="45.63557" lon="2.99462">
        <ele>876</ele>
        <time>2022-08-17T15:17:32Z</time>
      </trkpt>
      <trkpt lat="45.63563" lon="2.99461">
        <ele>876</ele>
        <time>2022-08-17T15:17:34Z</time>
      </trkpt>
      <trkpt lat="45.63568" lon="2.9946">
        <ele>876</ele>
        <time>2022-08-17T15:17:35Z</time>
      </trkpt>
      <trkpt lat="45.63574" lon="2.99459">
        <ele>876</ele>
        <time>2022-08-17T15:17:37Z</time>
      </trkpt>
      <trkpt lat="45.63579" lon="2.99458">
        <ele>877</ele>
        <time>2022-08-17T15:17:38Z</time>
      </trkpt>
      <trkpt lat="45.63588" lon="2.99459">
        <ele>877</ele>
        <time>2022-08-17T15:17:39Z</time>
      </trkpt>
      <trkpt lat="45.63594" lon="2.9946">
        <ele>877</ele>
        <time>2022-08-17T15:17:41Z</time>
      </trkpt>
      <trkpt lat="45.63599" lon="2.99461">
        <ele>877</ele>
        <time>2022-08-17T15:17:43Z</time>
      </trkpt>
      <trkpt lat="45.63604" lon="2.99462">
        <ele>877</ele>
        <time>2022-08-17T15:17:45Z</time>
      </trkpt>
      <trkpt lat="45.63609" lon="2.99463">
        <ele>877</ele>
        <time>2022-08-17T15:17:47Z</time>
      </trkpt>
      <trkpt lat="45.63615" lon="2.99464">
        <ele>879</ele>
        <time>2022-08-17T15:17:48Z</time>
      </trkpt>
      <trkpt lat="45.63623" lon="2.99467">
        <ele>879</ele>
        <time>2022-08-17T15:17:49Z</time>
      </trkpt>
      <trkpt lat="45.63627" lon="2.99469">
        <ele>879</ele>
        <time>2022-08-17T15:17:51Z</time>
      </trkpt>
      <trkpt lat="45.63632" lon="2.9947">
        <ele>879</ele>
        <time>2022-08-17T15:17:53Z</time>
      </trkpt>
      <trkpt lat="45.63637" lon="2.99472">
        <ele>879</ele>
        <time>2022-08-17T15:17:55Z</time>
      </trkpt>
      <trkpt lat="45.63641" lon="2.99474">
        <ele>879</ele>
        <time>2022-08-17T15:17:57Z</time>
      </trkpt>
      <trkpt lat="45.63646" lon="2.99476">
        <ele>883</ele>
        <time>2022-08-17T15:17:58Z</time>
      </trkpt>
      <trkpt lat="45.63653" lon="2.9948">
        <ele>883</ele>
        <time>2022-08-17T15:17:59Z</time>
      </trkpt>
      <trkpt lat="45.63656" lon="2.99483">
        <ele>883</ele>
        <time>2022-08-17T15:18:01Z</time>
      </trkpt>
      <trkpt lat="45.6366" lon="2.99486">
        <ele>883</ele>
        <time>2022-08-17T15:18:03Z</time>
      </trkpt>
      <trkpt lat="45.63664" lon="2.99489">
        <ele>883</ele>
        <time>2022-08-17T15:18:05Z</time>
      </trkpt>
      <trkpt lat="45.63667" lon="2.99491">
        <ele>883</ele>
        <time>2022-08-17T15:18:06Z</time>
      </trkpt>
      <trkpt lat="45.63671" lon="2.99494">
        <ele>883</ele>
        <time>2022-08-17T15:18:07Z</time>
      </trkpt>
      <trkpt lat="45.63674" lon="2.99497">
        <ele>886</ele>
        <time>2022-08-17T15:18:08Z</time>
      </trkpt>
      <trkpt lat="45.63679" lon="2.99502">
        <ele>886</ele>
        <time>2022-08-17T15:18:09Z</time>
      </trkpt>
      <trkpt lat="45.63681" lon="2.99504">
        <ele>886</ele>
        <time>2022-08-17T15:18:10Z</time>
      </trkpt>
      <trkpt lat="45.63683" lon="2.99506">
        <ele>886</ele>
        <time>2022-08-17T15:18:11Z</time>
      </trkpt>
      <trkpt lat="45.63685" lon="2.99508">
        <ele>886</ele>
        <time>2022-08-17T15:18:12Z</time>
      </trkpt>
      <trkpt lat="45.63687" lon="2.99511">
        <ele>886</ele>
        <time>2022-08-17T15:18:13Z</time>
      </trkpt>
      <trkpt lat="45.6369" lon="2.99513">
        <ele>886</ele>
        <time>2022-08-17T15:18:14Z</time>
      </trkpt>
      <trkpt lat="45.63692" lon="2.99515">
        <ele>886</ele>
        <time>2022-08-17T15:18:15Z</time>
      </trkpt>
      <trkpt lat="45.63694" lon="2.99517">
        <ele>886</ele>
        <time>2022-08-17T15:18:16Z</time>
      </trkpt>
      <trkpt lat="45.63696" lon="2.9952">
        <ele>886</ele>
        <time>2022-08-17T15:18:17Z</time>
      </trkpt>
      <trkpt lat="45.63698" lon="2.99522">
        <ele>888</ele>
        <time>2022-08-17T15:18:18Z</time>
      </trkpt>
      <trkpt lat="45.63705" lon="2.99529">
        <ele>888</ele>
        <time>2022-08-17T15:18:20Z</time>
      </trkpt>
      <trkpt lat="45.63708" lon="2.99531">
        <ele>888</ele>
        <time>2022-08-17T15:18:21Z</time>
      </trkpt>
      <trkpt lat="45.6371" lon="2.99534">
        <ele>888</ele>
        <time>2022-08-17T15:18:23Z</time>
      </trkpt>
      <trkpt lat="45.63713" lon="2.99536">
        <ele>888</ele>
        <time>2022-08-17T15:18:24Z</time>
      </trkpt>
      <trkpt lat="45.63715" lon="2.99538">
        <ele>888</ele>
        <time>2022-08-17T15:18:25Z</time>
      </trkpt>
      <trkpt lat="45.63717" lon="2.99541">
        <ele>888</ele>
        <time>2022-08-17T15:18:26Z</time>
      </trkpt>
      <trkpt lat="45.6372" lon="2.99543">
        <ele>888</ele>
        <time>2022-08-17T15:18:27Z</time>
      </trkpt>
      <trkpt lat="45.63722" lon="2.99545">
        <ele>889</ele>
        <time>2022-08-17T15:18:28Z</time>
      </trkpt>
      <trkpt lat="45.63728" lon="2.9955">
        <ele>889</ele>
        <time>2022-08-17T15:18:29Z</time>
      </trkpt>
      <trkpt lat="45.63731" lon="2.99552">
        <ele>889</ele>
        <time>2022-08-17T15:18:31Z</time>
      </trkpt>
      <trkpt lat="45.63734" lon="2.99555">
        <ele>889</ele>
        <time>2022-08-17T15:18:32Z</time>
      </trkpt>
      <trkpt lat="45.63737" lon="2.99557">
        <ele>889</ele>
        <time>2022-08-17T15:18:33Z</time>
      </trkpt>
      <trkpt lat="45.63741" lon="2.9956">
        <ele>889</ele>
        <time>2022-08-17T15:18:34Z</time>
      </trkpt>
      <trkpt lat="45.63744" lon="2.99562">
        <ele>889</ele>
        <time>2022-08-17T15:18:36Z</time>
      </trkpt>
      <trkpt lat="45.63747" lon="2.99564">
        <ele>890</ele>
        <time>2022-08-17T15:18:38Z</time>
      </trkpt>
      <trkpt lat="45.63756" lon="2.9957">
        <ele>890</ele>
        <time>2022-08-17T15:18:40Z</time>
      </trkpt>
      <trkpt lat="45.6376" lon="2.99572">
        <ele>890</ele>
        <time>2022-08-17T15:18:42Z</time>
      </trkpt>
      <trkpt lat="45.63764" lon="2.99575">
        <ele>890</ele>
        <time>2022-08-17T15:18:44Z</time>
      </trkpt>
      <trkpt lat="45.63768" lon="2.99577">
        <ele>890</ele>
        <time>2022-08-17T15:18:46Z</time>
      </trkpt>
      <trkpt lat="45.63772" lon="2.9958">
        <ele>892</ele>
        <time>2022-08-17T15:18:48Z</time>
      </trkpt>
      <trkpt lat="45.63781" lon="2.99586">
        <ele>892</ele>
        <time>2022-08-17T15:18:50Z</time>
      </trkpt>
      <trkpt lat="45.63785" lon="2.99588">
        <ele>892</ele>
        <time>2022-08-17T15:18:52Z</time>
      </trkpt>
      <trkpt lat="45.63789" lon="2.99591">
        <ele>892</ele>
        <time>2022-08-17T15:18:54Z</time>
      </trkpt>
      <trkpt lat="45.63793" lon="2.99594">
        <ele>892</ele>
        <time>2022-08-17T15:18:56Z</time>
      </trkpt>
      <trkpt lat="45.63797" lon="2.99597">
        <ele>894</ele>
        <time>2022-08-17T15:18:58Z</time>
      </trkpt>
      <trkpt lat="45.63806" lon="2.99603">
        <ele>894</ele>
        <time>2022-08-17T15:19:00Z</time>
      </trkpt>
      <trkpt lat="45.63809" lon="2.99605">
        <ele>894</ele>
        <time>2022-08-17T15:19:01Z</time>
      </trkpt>
      <trkpt lat="45.63813" lon="2.99607">
        <ele>894</ele>
        <time>2022-08-17T15:19:03Z</time>
      </trkpt>
      <trkpt lat="45.63816" lon="2.9961">
        <ele>894</ele>
        <time>2022-08-17T15:19:05Z</time>
      </trkpt>
      <trkpt lat="45.63819" lon="2.99612">
        <ele>894</ele>
        <time>2022-08-17T15:19:07Z</time>
      </trkpt>
      <trkpt lat="45.63823" lon="2.99614">
        <ele>897</ele>
        <time>2022-08-17T15:19:08Z</time>
      </trkpt>
      <trkpt lat="45.63829" lon="2.99618">
        <ele>897</ele>
        <time>2022-08-17T15:19:09Z</time>
      </trkpt>
      <trkpt lat="45.63833" lon="2.9962">
        <ele>897</ele>
        <time>2022-08-17T15:19:11Z</time>
      </trkpt>
      <trkpt lat="45.63837" lon="2.99622">
        <ele>897</ele>
        <time>2022-08-17T15:19:12Z</time>
      </trkpt>
      <trkpt lat="45.63841" lon="2.99625">
        <ele>897</ele>
        <time>2022-08-17T15:19:14Z</time>
      </trkpt>
      <trkpt lat="45.63845" lon="2.99627">
        <ele>897</ele>
        <time>2022-08-17T15:19:16Z</time>
      </trkpt>
      <trkpt lat="45.63849" lon="2.99629">
        <ele>898</ele>
        <time>2022-08-17T15:19:18Z</time>
      </trkpt>
      <trkpt lat="45.63858" lon="2.99633">
        <ele>898</ele>
        <time>2022-08-17T15:19:20Z</time>
      </trkpt>
      <trkpt lat="45.63862" lon="2.99635">
        <ele>898</ele>
        <time>2022-08-17T15:19:22Z</time>
      </trkpt>
      <trkpt lat="45.63865" lon="2.99637">
        <ele>898</ele>
        <time>2022-08-17T15:19:24Z</time>
      </trkpt>
      <trkpt lat="45.63869" lon="2.99639">
        <ele>898</ele>
        <time>2022-08-17T15:19:26Z</time>
      </trkpt>
      <trkpt lat="45.63872" lon="2.99641">
        <ele>898</ele>
        <time>2022-08-17T15:19:27Z</time>
      </trkpt>
      <trkpt lat="45.63876" lon="2.99643">
        <ele>900</ele>
        <time>2022-08-17T15:19:28Z</time>
      </trkpt>
      <trkpt lat="45.63881" lon="2.99646">
        <ele>900</ele>
        <time>2022-08-17T15:19:29Z</time>
      </trkpt>
      <trkpt lat="45.63883" lon="2.99647">
        <ele>900</ele>
        <time>2022-08-17T15:19:30Z</time>
      </trkpt>
      <trkpt lat="45.63886" lon="2.99649">
        <ele>900</ele>
        <time>2022-08-17T15:19:31Z</time>
      </trkpt>
      <trkpt lat="45.63888" lon="2.9965">
        <ele>900</ele>
        <time>2022-08-17T15:19:32Z</time>
      </trkpt>
      <trkpt lat="45.6389" lon="2.99652">
        <ele>900</ele>
        <time>2022-08-17T15:19:33Z</time>
      </trkpt>
      <trkpt lat="45.63893" lon="2.99654">
        <ele>900</ele>
        <time>2022-08-17T15:19:34Z</time>
      </trkpt>
      <trkpt lat="45.63895" lon="2.99655">
        <ele>900</ele>
        <time>2022-08-17T15:19:35Z</time>
      </trkpt>
      <trkpt lat="45.63897" lon="2.99657">
        <ele>900</ele>
        <time>2022-08-17T15:19:36Z</time>
      </trkpt>
      <trkpt lat="45.63899" lon="2.99658">
        <ele>900</ele>
        <time>2022-08-17T15:19:37Z</time>
      </trkpt>
      <trkpt lat="45.63902" lon="2.9966">
        <ele>901</ele>
        <time>2022-08-17T15:19:38Z</time>
      </trkpt>
      <trkpt lat="45.63911" lon="2.99668">
        <ele>901</ele>
        <time>2022-08-17T15:19:40Z</time>
      </trkpt>
      <trkpt lat="45.63914" lon="2.99672">
        <ele>901</ele>
        <time>2022-08-17T15:19:42Z</time>
      </trkpt>
      <trkpt lat="45.63918" lon="2.99675">
        <ele>901</ele>
        <time>2022-08-17T15:19:44Z</time>
      </trkpt>
      <trkpt lat="45.63922" lon="2.99679">
        <ele>901</ele>
        <time>2022-08-17T15:19:46Z</time>
      </trkpt>
      <trkpt lat="45.63926" lon="2.99683">
        <ele>903</ele>
        <time>2022-08-17T15:19:48Z</time>
      </trkpt>
      <trkpt lat="45.63932" lon="2.99693">
        <ele>903</ele>
        <time>2022-08-17T15:19:50Z</time>
      </trkpt>
      <trkpt lat="45.63935" lon="2.99697">
        <ele>903</ele>
        <time>2022-08-17T15:19:52Z</time>
      </trkpt>
      <trkpt lat="45.63937" lon="2.997">
        <ele>903</ele>
        <time>2022-08-17T15:19:54Z</time>
      </trkpt>
      <trkpt lat="45.6394" lon="2.99704">
        <ele>903</ele>
        <time>2022-08-17T15:19:55Z</time>
      </trkpt>
      <trkpt lat="45.63942" lon="2.99708">
        <ele>903</ele>
        <time>2022-08-17T15:19:56Z</time>
      </trkpt>
      <trkpt lat="45.63944" lon="2.99712">
        <ele>903</ele>
        <time>2022-08-17T15:19:57Z</time>
      </trkpt>
      <trkpt lat="45.63947" lon="2.99716">
        <ele>905</ele>
        <time>2022-08-17T15:19:58Z</time>
      </trkpt>
      <trkpt lat="45.63951" lon="2.99723">
        <ele>905</ele>
        <time>2022-08-17T15:19:59Z</time>
      </trkpt>
      <trkpt lat="45.63954" lon="2.99727">
        <ele>905</ele>
        <time>2022-08-17T15:20:00Z</time>
      </trkpt>
      <trkpt lat="45.63957" lon="2.99732">
        <ele>905</ele>
        <time>2022-08-17T15:20:01Z</time>
      </trkpt>
      <trkpt lat="45.63959" lon="2.99736">
        <ele>905</ele>
        <time>2022-08-17T15:20:03Z</time>
      </trkpt>
      <trkpt lat="45.63962" lon="2.9974">
        <ele>905</ele>
        <time>2022-08-17T15:20:05Z</time>
      </trkpt>
      <trkpt lat="45.63965" lon="2.99744">
        <ele>905</ele>
        <time>2022-08-17T15:20:07Z</time>
      </trkpt>
      <trkpt lat="45.63967" lon="2.99748">
        <ele>906</ele>
        <time>2022-08-17T15:20:08Z</time>
      </trkpt>
      <trkpt lat="45.63973" lon="2.99754">
        <ele>906</ele>
        <time>2022-08-17T15:20:09Z</time>
      </trkpt>
      <trkpt lat="45.63977" lon="2.99758">
        <ele>906</ele>
        <time>2022-08-17T15:20:10Z</time>
      </trkpt>
      <trkpt lat="45.6398" lon="2.99761">
        <ele>906</ele>
        <time>2022-08-17T15:20:12Z</time>
      </trkpt>
      <trkpt lat="45.63984" lon="2.99765">
        <ele>906</ele>
        <time>2022-08-17T15:20:14Z</time>
      </trkpt>
      <trkpt lat="45.63987" lon="2.99768">
        <ele>906</ele>
        <time>2022-08-17T15:20:16Z</time>
      </trkpt>
      <trkpt lat="45.63991" lon="2.99772">
        <ele>908</ele>
        <time>2022-08-17T15:20:18Z</time>
      </trkpt>
      <trkpt lat="45.63999" lon="2.99782">
        <ele>908</ele>
        <time>2022-08-17T15:20:20Z</time>
      </trkpt>
      <trkpt lat="45.64003" lon="2.99786">
        <ele>908</ele>
        <time>2022-08-17T15:20:22Z</time>
      </trkpt>
      <trkpt lat="45.64006" lon="2.99791">
        <ele>908</ele>
        <time>2022-08-17T15:20:24Z</time>
      </trkpt>
      <trkpt lat="45.6401" lon="2.99796">
        <ele>908</ele>
        <time>2022-08-17T15:20:26Z</time>
      </trkpt>
      <trkpt lat="45.64013" lon="2.99801">
        <ele>910</ele>
        <time>2022-08-17T15:20:28Z</time>
      </trkpt>
      <trkpt lat="45.6402" lon="2.99811">
        <ele>910</ele>
        <time>2022-08-17T15:20:30Z</time>
      </trkpt>
      <trkpt lat="45.64023" lon="2.99815">
        <ele>910</ele>
        <time>2022-08-17T15:20:32Z</time>
      </trkpt>
      <trkpt lat="45.64025" lon="2.99819">
        <ele>910</ele>
        <time>2022-08-17T15:20:33Z</time>
      </trkpt>
      <trkpt lat="45.64028" lon="2.99823">
        <ele>910</ele>
        <time>2022-08-17T15:20:34Z</time>
      </trkpt>
      <trkpt lat="45.6403" lon="2.99828">
        <ele>910</ele>
        <time>2022-08-17T15:20:35Z</time>
      </trkpt>
      <trkpt lat="45.64033" lon="2.99832">
        <ele>910</ele>
        <time>2022-08-17T15:20:37Z</time>
      </trkpt>
      <trkpt lat="45.64035" lon="2.99836">
        <ele>911</ele>
        <time>2022-08-17T15:20:38Z</time>
      </trkpt>
      <trkpt lat="45.6404" lon="2.99843">
        <ele>911</ele>
        <time>2022-08-17T15:20:39Z</time>
      </trkpt>
      <trkpt lat="45.64042" lon="2.99846">
        <ele>911</ele>
        <time>2022-08-17T15:20:40Z</time>
      </trkpt>
      <trkpt lat="45.64043" lon="2.99849">
        <ele>911</ele>
        <time>2022-08-17T15:20:41Z</time>
      </trkpt>
      <trkpt lat="45.64045" lon="2.99852">
        <ele>911</ele>
        <time>2022-08-17T15:20:42Z</time>
      </trkpt>
      <trkpt lat="45.64047" lon="2.99855">
        <ele>911</ele>
        <time>2022-08-17T15:20:43Z</time>
      </trkpt>
      <trkpt lat="45.64049" lon="2.99859">
        <ele>911</ele>
        <time>2022-08-17T15:20:44Z</time>
      </trkpt>
      <trkpt lat="45.64051" lon="2.99862">
        <ele>911</ele>
        <time>2022-08-17T15:20:45Z</time>
      </trkpt>
      <trkpt lat="45.64053" lon="2.99865">
        <ele>911</ele>
        <time>2022-08-17T15:20:46Z</time>
      </trkpt>
      <trkpt lat="45.64055" lon="2.99868">
        <ele>911</ele>
        <time>2022-08-17T15:20:47Z</time>
      </trkpt>
      <trkpt lat="45.64057" lon="2.99872">
        <ele>912</ele>
        <time>2022-08-17T15:20:48Z</time>
      </trkpt>
      <trkpt lat="45.64061" lon="2.99878">
        <ele>912</ele>
        <time>2022-08-17T15:20:49Z</time>
      </trkpt>
      <trkpt lat="45.64063" lon="2.99882">
        <ele>912</ele>
        <time>2022-08-17T15:20:50Z</time>
      </trkpt>
      <trkpt lat="45.64065" lon="2.99885">
        <ele>912</ele>
        <time>2022-08-17T15:20:51Z</time>
      </trkpt>
      <trkpt lat="45.64067" lon="2.99889">
        <ele>912</ele>
        <time>2022-08-17T15:20:52Z</time>
      </trkpt>
      <trkpt lat="45.64069" lon="2.99892">
        <ele>912</ele>
        <time>2022-08-17T15:20:53Z</time>
      </trkpt>
      <trkpt lat="45.64071" lon="2.99896">
        <ele>912</ele>
        <time>2022-08-17T15:20:54Z</time>
      </trkpt>
      <trkpt lat="45.64073" lon="2.999">
        <ele>912</ele>
        <time>2022-08-17T15:20:56Z</time>
      </trkpt>
      <trkpt lat="45.64075" lon="2.99903">
        <ele>912</ele>
        <time>2022-08-17T15:20:57Z</time>
      </trkpt>
      <trkpt lat="45.64078" lon="2.99907">
        <ele>912</ele>
        <time>2022-08-17T15:20:58Z</time>
      </trkpt>
      <trkpt lat="45.64083" lon="2.99915">
        <ele>912</ele>
        <time>2022-08-17T15:20:59Z</time>
      </trkpt>
      <trkpt lat="45.64085" lon="2.99918">
        <ele>912</ele>
        <time>2022-08-17T15:21:00Z</time>
      </trkpt>
      <trkpt lat="45.64088" lon="2.99922">
        <ele>912</ele>
        <time>2022-08-17T15:21:01Z</time>
      </trkpt>
      <trkpt lat="45.6409" lon="2.99926">
        <ele>912</ele>
        <time>2022-08-17T15:21:02Z</time>
      </trkpt>
      <trkpt lat="45.64093" lon="2.9993">
        <ele>912</ele>
        <time>2022-08-17T15:21:03Z</time>
      </trkpt>
      <trkpt lat="45.64096" lon="2.99933">
        <ele>912</ele>
        <time>2022-08-17T15:21:04Z</time>
      </trkpt>
      <trkpt lat="45.64098" lon="2.99937">
        <ele>912</ele>
        <time>2022-08-17T15:21:05Z</time>
      </trkpt>
      <trkpt lat="45.64101" lon="2.99941">
        <ele>912</ele>
        <time>2022-08-17T15:21:06Z</time>
      </trkpt>
      <trkpt lat="45.64103" lon="2.99944">
        <ele>912</ele>
        <time>2022-08-17T15:21:07Z</time>
      </trkpt>
      <trkpt lat="45.64106" lon="2.99948">
        <ele>912</ele>
        <time>2022-08-17T15:21:08Z</time>
      </trkpt>
      <trkpt lat="45.64113" lon="2.99952">
        <ele>912</ele>
        <time>2022-08-17T15:21:09Z</time>
      </trkpt>
      <trkpt lat="45.64117" lon="2.99953">
        <ele>912</ele>
        <time>2022-08-17T15:21:10Z</time>
      </trkpt>
      <trkpt lat="45.64121" lon="2.99954">
        <ele>912</ele>
        <time>2022-08-17T15:21:11Z</time>
      </trkpt>
      <trkpt lat="45.64124" lon="2.99955">
        <ele>912</ele>
        <time>2022-08-17T15:21:12Z</time>
      </trkpt>
      <trkpt lat="45.64128" lon="2.99956">
        <ele>912</ele>
        <time>2022-08-17T15:21:13Z</time>
      </trkpt>
      <trkpt lat="45.64131" lon="2.99957">
        <ele>912</ele>
        <time>2022-08-17T15:21:14Z</time>
      </trkpt>
      <trkpt lat="45.64135" lon="2.99957">
        <ele>912</ele>
        <time>2022-08-17T15:21:15Z</time>
      </trkpt>
      <trkpt lat="45.64139" lon="2.99958">
        <ele>912</ele>
        <time>2022-08-17T15:21:16Z</time>
      </trkpt>
      <trkpt lat="45.64142" lon="2.99959">
        <ele>912</ele>
        <time>2022-08-17T15:21:17Z</time>
      </trkpt>
      <trkpt lat="45.64146" lon="2.9996">
        <ele>912</ele>
        <time>2022-08-17T15:21:18Z</time>
      </trkpt>
      <trkpt lat="45.64156" lon="2.99957">
        <ele>912</ele>
        <time>2022-08-17T15:21:20Z</time>
      </trkpt>
      <trkpt lat="45.64159" lon="2.99954">
        <ele>912</ele>
        <time>2022-08-17T15:21:22Z</time>
      </trkpt>
      <trkpt lat="45.64162" lon="2.9995">
        <ele>912</ele>
        <time>2022-08-17T15:21:23Z</time>
      </trkpt>
      <trkpt lat="45.64165" lon="2.99947">
        <ele>912</ele>
        <time>2022-08-17T15:21:24Z</time>
      </trkpt>
      <trkpt lat="45.64169" lon="2.99944">
        <ele>912</ele>
        <time>2022-08-17T15:21:26Z</time>
      </trkpt>
      <trkpt lat="45.64172" lon="2.99941">
        <ele>911</ele>
        <time>2022-08-17T15:21:28Z</time>
      </trkpt>
      <trkpt lat="45.64173" lon="2.99929">
        <ele>911</ele>
        <time>2022-08-17T15:21:30Z</time>
      </trkpt>
      <trkpt lat="45.64173" lon="2.99923">
        <ele>911</ele>
        <time>2022-08-17T15:21:32Z</time>
      </trkpt>
      <trkpt lat="45.64174" lon="2.99917">
        <ele>911</ele>
        <time>2022-08-17T15:21:33Z</time>
      </trkpt>
      <trkpt lat="45.64174" lon="2.99911">
        <ele>911</ele>
        <time>2022-08-17T15:21:34Z</time>
      </trkpt>
      <trkpt lat="45.64174" lon="2.99905">
        <ele>911</ele>
        <time>2022-08-17T15:21:35Z</time>
      </trkpt>
      <trkpt lat="45.64175" lon="2.999">
        <ele>911</ele>
        <time>2022-08-17T15:21:37Z</time>
      </trkpt>
      <trkpt lat="45.64175" lon="2.99894">
        <ele>910</ele>
        <time>2022-08-17T15:21:38Z</time>
      </trkpt>
      <trkpt lat="45.64175" lon="2.99883">
        <ele>910</ele>
        <time>2022-08-17T15:21:39Z</time>
      </trkpt>
      <trkpt lat="45.64176" lon="2.99876">
        <ele>910</ele>
        <time>2022-08-17T15:21:41Z</time>
      </trkpt>
      <trkpt lat="45.64176" lon="2.9987">
        <ele>910</ele>
        <time>2022-08-17T15:21:43Z</time>
      </trkpt>
      <trkpt lat="45.64176" lon="2.99864">
        <ele>910</ele>
        <time>2022-08-17T15:21:44Z</time>
      </trkpt>
      <trkpt lat="45.64177" lon="2.99858">
        <ele>910</ele>
        <time>2022-08-17T15:21:45Z</time>
      </trkpt>
      <trkpt lat="45.64177" lon="2.99852">
        <ele>910</ele>
        <time>2022-08-17T15:21:46Z</time>
      </trkpt>
      <trkpt lat="45.64177" lon="2.99846">
        <ele>910</ele>
        <time>2022-08-17T15:21:47Z</time>
      </trkpt>
      <trkpt lat="45.64178" lon="2.9984">
        <ele>912</ele>
        <time>2022-08-17T15:21:48Z</time>
      </trkpt>
      <trkpt lat="45.64178" lon="2.99828">
        <ele>912</ele>
        <time>2022-08-17T15:21:49Z</time>
      </trkpt>
      <trkpt lat="45.64178" lon="2.99823">
        <ele>912</ele>
        <time>2022-08-17T15:21:51Z</time>
      </trkpt>
      <trkpt lat="45.64179" lon="2.99817">
        <ele>912</ele>
        <time>2022-08-17T15:21:52Z</time>
      </trkpt>
      <trkpt lat="45.64179" lon="2.99811">
        <ele>912</ele>
        <time>2022-08-17T15:21:53Z</time>
      </trkpt>
      <trkpt lat="45.64179" lon="2.99805">
        <ele>912</ele>
        <time>2022-08-17T15:21:54Z</time>
      </trkpt>
      <trkpt lat="45.6418" lon="2.998">
        <ele>912</ele>
        <time>2022-08-17T15:21:55Z</time>
      </trkpt>
      <trkpt lat="45.6418" lon="2.99794">
        <ele>912</ele>
        <time>2022-08-17T15:21:56Z</time>
      </trkpt>
      <trkpt lat="45.6418" lon="2.99788">
        <ele>912</ele>
        <time>2022-08-17T15:21:57Z</time>
      </trkpt>
      <trkpt lat="45.6418" lon="2.99782">
        <ele>913</ele>
        <time>2022-08-17T15:21:58Z</time>
      </trkpt>
      <trkpt lat="45.64181" lon="2.9977">
        <ele>913</ele>
        <time>2022-08-17T15:21:59Z</time>
      </trkpt>
      <trkpt lat="45.64181" lon="2.99764">
        <ele>913</ele>
        <time>2022-08-17T15:22:00Z</time>
      </trkpt>
      <trkpt lat="45.64181" lon="2.99758">
        <ele>913</ele>
        <time>2022-08-17T15:22:01Z</time>
      </trkpt>
      <trkpt lat="45.64182" lon="2.99751">
        <ele>913</ele>
        <time>2022-08-17T15:22:02Z</time>
      </trkpt>
      <trkpt lat="45.64182" lon="2.99745">
        <ele>913</ele>
        <time>2022-08-17T15:22:03Z</time>
      </trkpt>
      <trkpt lat="45.64182" lon="2.99739">
        <ele>913</ele>
        <time>2022-08-17T15:22:05Z</time>
      </trkpt>
      <trkpt lat="45.64183" lon="2.99733">
        <ele>913</ele>
        <time>2022-08-17T15:22:07Z</time>
      </trkpt>
      <trkpt lat="45.64183" lon="2.99726">
        <ele>915</ele>
        <time>2022-08-17T15:22:08Z</time>
      </trkpt>
      <trkpt lat="45.64184" lon="2.99716">
        <ele>915</ele>
        <time>2022-08-17T15:22:09Z</time>
      </trkpt>
      <trkpt lat="45.64185" lon="2.99711">
        <ele>915</ele>
        <time>2022-08-17T15:22:10Z</time>
      </trkpt>
      <trkpt lat="45.64185" lon="2.99705">
        <ele>915</ele>
        <time>2022-08-17T15:22:11Z</time>
      </trkpt>
      <trkpt lat="45.64186" lon="2.997">
        <ele>915</ele>
        <time>2022-08-17T15:22:12Z</time>
      </trkpt>
      <trkpt lat="45.64186" lon="2.99695">
        <ele>915</ele>
        <time>2022-08-17T15:22:13Z</time>
      </trkpt>
      <trkpt lat="45.64187" lon="2.9969">
        <ele>915</ele>
        <time>2022-08-17T15:22:14Z</time>
      </trkpt>
      <trkpt lat="45.64188" lon="2.99685">
        <ele>915</ele>
        <time>2022-08-17T15:22:15Z</time>
      </trkpt>
      <trkpt lat="45.64188" lon="2.9968">
        <ele>915</ele>
        <time>2022-08-17T15:22:16Z</time>
      </trkpt>
      <trkpt lat="45.64189" lon="2.99675">
        <ele>915</ele>
        <time>2022-08-17T15:22:17Z</time>
      </trkpt>
      <trkpt lat="45.6419" lon="2.9967">
        <ele>916</ele>
        <time>2022-08-17T15:22:18Z</time>
      </trkpt>
      <trkpt lat="45.64193" lon="2.9966">
        <ele>916</ele>
        <time>2022-08-17T15:22:19Z</time>
      </trkpt>
      <trkpt lat="45.64195" lon="2.99656">
        <ele>916</ele>
        <time>2022-08-17T15:22:20Z</time>
      </trkpt>
      <trkpt lat="45.64196" lon="2.99652">
        <ele>916</ele>
        <time>2022-08-17T15:22:21Z</time>
      </trkpt>
      <trkpt lat="45.64198" lon="2.99648">
        <ele>916</ele>
        <time>2022-08-17T15:22:22Z</time>
      </trkpt>
      <trkpt lat="45.642" lon="2.99644">
        <ele>916</ele>
        <time>2022-08-17T15:22:23Z</time>
      </trkpt>
      <trkpt lat="45.64202" lon="2.9964">
        <ele>916</ele>
        <time>2022-08-17T15:22:24Z</time>
      </trkpt>
      <trkpt lat="45.64204" lon="2.99636">
        <ele>916</ele>
        <time>2022-08-17T15:22:25Z</time>
      </trkpt>
      <trkpt lat="45.64206" lon="2.99632">
        <ele>916</ele>
        <time>2022-08-17T15:22:26Z</time>
      </trkpt>
      <trkpt lat="45.64208" lon="2.99628">
        <ele>916</ele>
        <time>2022-08-17T15:22:27Z</time>
      </trkpt>
      <trkpt lat="45.6421" lon="2.99624">
        <ele>917</ele>
        <time>2022-08-17T15:22:28Z</time>
      </trkpt>
      <trkpt lat="45.64216" lon="2.99617">
        <ele>917</ele>
        <time>2022-08-17T15:22:29Z</time>
      </trkpt>
      <trkpt lat="45.64219" lon="2.99613">
        <ele>917</ele>
        <time>2022-08-17T15:22:30Z</time>
      </trkpt>
      <trkpt lat="45.64223" lon="2.9961">
        <ele>917</ele>
        <time>2022-08-17T15:22:32Z</time>
      </trkpt>
      <trkpt lat="45.64226" lon="2.99606">
        <ele>917</ele>
        <time>2022-08-17T15:22:34Z</time>
      </trkpt>
      <trkpt lat="45.6423" lon="2.99603">
        <ele>917</ele>
        <time>2022-08-17T15:22:36Z</time>
      </trkpt>
      <trkpt lat="45.64233" lon="2.99599">
        <ele>917</ele>
        <time>2022-08-17T15:22:37Z</time>
      </trkpt>
      <trkpt lat="45.64237" lon="2.99596">
        <ele>919</ele>
        <time>2022-08-17T15:22:38Z</time>
      </trkpt>
      <trkpt lat="45.64244" lon="2.99588">
        <ele>919</ele>
        <time>2022-08-17T15:22:39Z</time>
      </trkpt>
      <trkpt lat="45.64248" lon="2.99584">
        <ele>919</ele>
        <time>2022-08-17T15:22:40Z</time>
      </trkpt>
      <trkpt lat="45.64252" lon="2.99579">
        <ele>919</ele>
        <time>2022-08-17T15:22:42Z</time>
      </trkpt>
      <trkpt lat="45.64256" lon="2.99574">
        <ele>919</ele>
        <time>2022-08-17T15:22:44Z</time>
      </trkpt>
      <trkpt lat="45.6426" lon="2.9957">
        <ele>919</ele>
        <time>2022-08-17T15:22:46Z</time>
      </trkpt>
      <trkpt lat="45.64264" lon="2.99565">
        <ele>925</ele>
        <time>2022-08-17T15:22:48Z</time>
      </trkpt>
      <trkpt lat="45.64275" lon="2.99554">
        <ele>925</ele>
        <time>2022-08-17T15:22:50Z</time>
      </trkpt>
      <trkpt lat="45.64279" lon="2.99549">
        <ele>925</ele>
        <time>2022-08-17T15:22:52Z</time>
      </trkpt>
      <trkpt lat="45.64283" lon="2.99543">
        <ele>925</ele>
        <time>2022-08-17T15:22:54Z</time>
      </trkpt>
      <trkpt lat="45.64287" lon="2.99538">
        <ele>925</ele>
        <time>2022-08-17T15:22:56Z</time>
      </trkpt>
      <trkpt lat="45.64292" lon="2.99533">
        <ele>927</ele>
        <time>2022-08-17T15:22:58Z</time>
      </trkpt>
      <trkpt lat="45.64301" lon="2.99523">
        <ele>927</ele>
        <time>2022-08-17T15:23:00Z</time>
      </trkpt>
      <trkpt lat="45.64305" lon="2.99518">
        <ele>927</ele>
        <time>2022-08-17T15:23:02Z</time>
      </trkpt>
      <trkpt lat="45.64309" lon="2.99513">
        <ele>927</ele>
        <time>2022-08-17T15:23:04Z</time>
      </trkpt>
      <trkpt lat="45.64313" lon="2.99508">
        <ele>927</ele>
        <time>2022-08-17T15:23:06Z</time>
      </trkpt>
      <trkpt lat="45.64317" lon="2.99503">
        <ele>928</ele>
        <time>2022-08-17T15:23:08Z</time>
      </trkpt>
      <trkpt lat="45.64325" lon="2.99491">
        <ele>928</ele>
        <time>2022-08-17T15:23:10Z</time>
      </trkpt>
      <trkpt lat="45.64329" lon="2.99486">
        <ele>928</ele>
        <time>2022-08-17T15:23:12Z</time>
      </trkpt>
      <trkpt lat="45.64332" lon="2.9948">
        <ele>928</ele>
        <time>2022-08-17T15:23:15Z</time>
      </trkpt>
      <trkpt lat="45.64336" lon="2.99474">
        <ele>928</ele>
        <time>2022-08-17T15:23:17Z</time>
      </trkpt>
      <trkpt lat="45.64339" lon="2.99469">
        <ele>929</ele>
        <time>2022-08-17T15:23:18Z</time>
      </trkpt>
      <trkpt lat="45.64344" lon="2.99459">
        <ele>929</ele>
        <time>2022-08-17T15:23:19Z</time>
      </trkpt>
      <trkpt lat="45.64347" lon="2.99454">
        <ele>929</ele>
        <time>2022-08-17T15:23:21Z</time>
      </trkpt>
      <trkpt lat="45.6435" lon="2.99448">
        <ele>929</ele>
        <time>2022-08-17T15:23:23Z</time>
      </trkpt>
      <trkpt lat="45.64353" lon="2.99442">
        <ele>929</ele>
        <time>2022-08-17T15:23:25Z</time>
      </trkpt>
      <trkpt lat="45.64356" lon="2.99437">
        <ele>929</ele>
        <time>2022-08-17T15:23:27Z</time>
      </trkpt>
      <trkpt lat="45.64359" lon="2.99431">
        <ele>930</ele>
        <time>2022-08-17T15:23:28Z</time>
      </trkpt>
      <trkpt lat="45.64364" lon="2.99422">
        <ele>930</ele>
        <time>2022-08-17T15:23:29Z</time>
      </trkpt>
      <trkpt lat="45.64367" lon="2.99416">
        <ele>930</ele>
        <time>2022-08-17T15:23:31Z</time>
      </trkpt>
      <trkpt lat="45.6437" lon="2.99411">
        <ele>930</ele>
        <time>2022-08-17T15:23:33Z</time>
      </trkpt>
      <trkpt lat="45.64374" lon="2.99406">
        <ele>930</ele>
        <time>2022-08-17T15:23:35Z</time>
      </trkpt>
      <trkpt lat="45.64377" lon="2.994">
        <ele>930</ele>
        <time>2022-08-17T15:23:37Z</time>
      </trkpt>
      <trkpt lat="45.6438" lon="2.99395">
        <ele>932</ele>
        <time>2022-08-17T15:23:38Z</time>
      </trkpt>
      <trkpt lat="45.64386" lon="2.99386">
        <ele>932</ele>
        <time>2022-08-17T15:23:39Z</time>
      </trkpt>
      <trkpt lat="45.6439" lon="2.9938">
        <ele>932</ele>
        <time>2022-08-17T15:23:41Z</time>
      </trkpt>
      <trkpt lat="45.64393" lon="2.99375">
        <ele>932</ele>
        <time>2022-08-17T15:23:43Z</time>
      </trkpt>
      <trkpt lat="45.64396" lon="2.9937">
        <ele>932</ele>
        <time>2022-08-17T15:23:45Z</time>
      </trkpt>
      <trkpt lat="45.644" lon="2.99364">
        <ele>932</ele>
        <time>2022-08-17T15:23:47Z</time>
      </trkpt>
      <trkpt lat="45.64403" lon="2.99359">
        <ele>936</ele>
        <time>2022-08-17T15:23:48Z</time>
      </trkpt>
      <trkpt lat="45.64409" lon="2.9935">
        <ele>936</ele>
        <time>2022-08-17T15:23:49Z</time>
      </trkpt>
      <trkpt lat="45.64413" lon="2.99345">
        <ele>936</ele>
        <time>2022-08-17T15:23:51Z</time>
      </trkpt>
      <trkpt lat="45.64416" lon="2.9934">
        <ele>936</ele>
        <time>2022-08-17T15:23:53Z</time>
      </trkpt>
      <trkpt lat="45.64419" lon="2.99334">
        <ele>936</ele>
        <time>2022-08-17T15:23:55Z</time>
      </trkpt>
      <trkpt lat="45.64423" lon="2.99329">
        <ele>936</ele>
        <time>2022-08-17T15:23:57Z</time>
      </trkpt>
      <trkpt lat="45.64426" lon="2.99324">
        <ele>936</ele>
        <time>2022-08-17T15:23:58Z</time>
      </trkpt>
      <trkpt lat="45.64432" lon="2.99315">
        <ele>936</ele>
        <time>2022-08-17T15:23:59Z</time>
      </trkpt>
      <trkpt lat="45.64436" lon="2.9931">
        <ele>936</ele>
        <time>2022-08-17T15:24:01Z</time>
      </trkpt>
      <trkpt lat="45.64439" lon="2.99305">
        <ele>936</ele>
        <time>2022-08-17T15:24:03Z</time>
      </trkpt>
      <trkpt lat="45.64443" lon="2.993">
        <ele>936</ele>
        <time>2022-08-17T15:24:05Z</time>
      </trkpt>
      <trkpt lat="45.64446" lon="2.99295">
        <ele>936</ele>
        <time>2022-08-17T15:24:07Z</time>
      </trkpt>
      <trkpt lat="45.6445" lon="2.9929">
        <ele>939</ele>
        <time>2022-08-17T15:24:08Z</time>
      </trkpt>
      <trkpt lat="45.64456" lon="2.99283">
        <ele>939</ele>
        <time>2022-08-17T15:24:09Z</time>
      </trkpt>
      <trkpt lat="45.6446" lon="2.99279">
        <ele>939</ele>
        <time>2022-08-17T15:24:11Z</time>
      </trkpt>
      <trkpt lat="45.64465" lon="2.99274">
        <ele>939</ele>
        <time>2022-08-17T15:24:13Z</time>
      </trkpt>
      <trkpt lat="45.64469" lon="2.9927">
        <ele>939</ele>
        <time>2022-08-17T15:24:15Z</time>
      </trkpt>
      <trkpt lat="45.64473" lon="2.99266">
        <ele>939</ele>
        <time>2022-08-17T15:24:17Z</time>
      </trkpt>
      <trkpt lat="45.64477" lon="2.99262">
        <ele>941</ele>
        <time>2022-08-17T15:24:18Z</time>
      </trkpt>
      <trkpt lat="45.64484" lon="2.99256">
        <ele>941</ele>
        <time>2022-08-17T15:24:19Z</time>
      </trkpt>
      <trkpt lat="45.64489" lon="2.99253">
        <ele>941</ele>
        <time>2022-08-17T15:24:21Z</time>
      </trkpt>
      <trkpt lat="45.64493" lon="2.9925">
        <ele>941</ele>
        <time>2022-08-17T15:24:23Z</time>
      </trkpt>
      <trkpt lat="45.64498" lon="2.99247">
        <ele>941</ele>
        <time>2022-08-17T15:24:25Z</time>
      </trkpt>
      <trkpt lat="45.64502" lon="2.99243">
        <ele>941</ele>
        <time>2022-08-17T15:24:27Z</time>
      </trkpt>
      <trkpt lat="45.64507" lon="2.9924">
        <ele>942</ele>
        <time>2022-08-17T15:24:28Z</time>
      </trkpt>
      <trkpt lat="45.64513" lon="2.99235">
        <ele>942</ele>
        <time>2022-08-17T15:24:29Z</time>
      </trkpt>
      <trkpt lat="45.64516" lon="2.99232">
        <ele>942</ele>
        <time>2022-08-17T15:24:31Z</time>
      </trkpt>
      <trkpt lat="45.64519" lon="2.99228">
        <ele>942</ele>
        <time>2022-08-17T15:24:33Z</time>
      </trkpt>
      <trkpt lat="45.64523" lon="2.99225">
        <ele>942</ele>
        <time>2022-08-17T15:24:34Z</time>
      </trkpt>
      <trkpt lat="45.64526" lon="2.99222">
        <ele>942</ele>
        <time>2022-08-17T15:24:35Z</time>
      </trkpt>
      <trkpt lat="45.64529" lon="2.99219">
        <ele>942</ele>
        <time>2022-08-17T15:24:36Z</time>
      </trkpt>
      <trkpt lat="45.64532" lon="2.99216">
        <ele>942</ele>
        <time>2022-08-17T15:24:37Z</time>
      </trkpt>
      <trkpt lat="45.64535" lon="2.99213">
        <ele>944</ele>
        <time>2022-08-17T15:24:38Z</time>
      </trkpt>
      <trkpt lat="45.6454" lon="2.99207">
        <ele>944</ele>
        <time>2022-08-17T15:24:39Z</time>
      </trkpt>
      <trkpt lat="45.64543" lon="2.99204">
        <ele>944</ele>
        <time>2022-08-17T15:24:40Z</time>
      </trkpt>
      <trkpt lat="45.64545" lon="2.99201">
        <ele>944</ele>
        <time>2022-08-17T15:24:41Z</time>
      </trkpt>
      <trkpt lat="45.64548" lon="2.99199">
        <ele>944</ele>
        <time>2022-08-17T15:24:42Z</time>
      </trkpt>
      <trkpt lat="45.6455" lon="2.99196">
        <ele>944</ele>
        <time>2022-08-17T15:24:43Z</time>
      </trkpt>
      <trkpt lat="45.64553" lon="2.99193">
        <ele>944</ele>
        <time>2022-08-17T15:24:44Z</time>
      </trkpt>
      <trkpt lat="45.64555" lon="2.9919">
        <ele>944</ele>
        <time>2022-08-17T15:24:45Z</time>
      </trkpt>
      <trkpt lat="45.64558" lon="2.99187">
        <ele>944</ele>
        <time>2022-08-17T15:24:46Z</time>
      </trkpt>
      <trkpt lat="45.6456" lon="2.99184">
        <ele>944</ele>
        <time>2022-08-17T15:24:47Z</time>
      </trkpt>
      <trkpt lat="45.64563" lon="2.99182">
        <ele>948</ele>
        <time>2022-08-17T15:24:48Z</time>
      </trkpt>
      <trkpt lat="45.64569" lon="2.99174">
        <ele>948</ele>
        <time>2022-08-17T15:24:49Z</time>
      </trkpt>
      <trkpt lat="45.64573" lon="2.9917">
        <ele>948</ele>
        <time>2022-08-17T15:24:51Z</time>
      </trkpt>
      <trkpt lat="45.64577" lon="2.99166">
        <ele>948</ele>
        <time>2022-08-17T15:24:52Z</time>
      </trkpt>
      <trkpt lat="45.6458" lon="2.99162">
        <ele>948</ele>
        <time>2022-08-17T15:24:53Z</time>
      </trkpt>
      <trkpt lat="45.64584" lon="2.99158">
        <ele>948</ele>
        <time>2022-08-17T15:24:54Z</time>
      </trkpt>
      <trkpt lat="45.64587" lon="2.99154">
        <ele>948</ele>
        <time>2022-08-17T15:24:56Z</time>
      </trkpt>
      <trkpt lat="45.64591" lon="2.9915">
        <ele>949</ele>
        <time>2022-08-17T15:24:58Z</time>
      </trkpt>
      <trkpt lat="45.64599" lon="2.99141">
        <ele>949</ele>
        <time>2022-08-17T15:25:00Z</time>
      </trkpt>
      <trkpt lat="45.64601" lon="2.99138">
        <ele>949</ele>
        <time>2022-08-17T15:25:01Z</time>
      </trkpt>
      <trkpt lat="45.64604" lon="2.99136">
        <ele>949</ele>
        <time>2022-08-17T15:25:02Z</time>
      </trkpt>
      <trkpt lat="45.64606" lon="2.99133">
        <ele>949</ele>
        <time>2022-08-17T15:25:03Z</time>
      </trkpt>
      <trkpt lat="45.64608" lon="2.9913">
        <ele>949</ele>
        <time>2022-08-17T15:25:04Z</time>
      </trkpt>
      <trkpt lat="45.64611" lon="2.99127">
        <ele>949</ele>
        <time>2022-08-17T15:25:05Z</time>
      </trkpt>
      <trkpt lat="45.64613" lon="2.99125">
        <ele>949</ele>
        <time>2022-08-17T15:25:06Z</time>
      </trkpt>
      <trkpt lat="45.64616" lon="2.99122">
        <ele>949</ele>
        <time>2022-08-17T15:25:07Z</time>
      </trkpt>
      <trkpt lat="45.64618" lon="2.99119">
        <ele>951</ele>
        <time>2022-08-17T15:25:08Z</time>
      </trkpt>
      <trkpt lat="45.64623" lon="2.99112">
        <ele>951</ele>
        <time>2022-08-17T15:25:09Z</time>
      </trkpt>
      <trkpt lat="45.64626" lon="2.99108">
        <ele>951</ele>
        <time>2022-08-17T15:25:10Z</time>
      </trkpt>
      <trkpt lat="45.64628" lon="2.99105">
        <ele>951</ele>
        <time>2022-08-17T15:25:11Z</time>
      </trkpt>
      <trkpt lat="45.6463" lon="2.99101">
        <ele>951</ele>
        <time>2022-08-17T15:25:12Z</time>
      </trkpt>
      <trkpt lat="45.64633" lon="2.99098">
        <ele>951</ele>
        <time>2022-08-17T15:25:13Z</time>
      </trkpt>
      <trkpt lat="45.64635" lon="2.99094">
        <ele>951</ele>
        <time>2022-08-17T15:25:14Z</time>
      </trkpt>
      <trkpt lat="45.64638" lon="2.9909">
        <ele>951</ele>
        <time>2022-08-17T15:25:15Z</time>
      </trkpt>
      <trkpt lat="45.6464" lon="2.99087">
        <ele>951</ele>
        <time>2022-08-17T15:25:16Z</time>
      </trkpt>
      <trkpt lat="45.64643" lon="2.99083">
        <ele>953</ele>
        <time>2022-08-17T15:25:18Z</time>
      </trkpt>
      <trkpt lat="45.64648" lon="2.99074">
        <ele>953</ele>
        <time>2022-08-17T15:25:19Z</time>
      </trkpt>
      <trkpt lat="45.64651" lon="2.99069">
        <ele>953</ele>
        <time>2022-08-17T15:25:21Z</time>
      </trkpt>
      <trkpt lat="45.64654" lon="2.99064">
        <ele>953</ele>
        <time>2022-08-17T15:25:22Z</time>
      </trkpt>
      <trkpt lat="45.64657" lon="2.99059">
        <ele>953</ele>
        <time>2022-08-17T15:25:23Z</time>
      </trkpt>
      <trkpt lat="45.6466" lon="2.99053">
        <ele>953</ele>
        <time>2022-08-17T15:25:24Z</time>
      </trkpt>
      <trkpt lat="45.64663" lon="2.99048">
        <ele>953</ele>
        <time>2022-08-17T15:25:26Z</time>
      </trkpt>
      <trkpt lat="45.64666" lon="2.99043">
        <ele>954</ele>
        <time>2022-08-17T15:25:28Z</time>
      </trkpt>
      <trkpt lat="45.64674" lon="2.99029">
        <ele>954</ele>
        <time>2022-08-17T15:25:30Z</time>
      </trkpt>
      <trkpt lat="45.64678" lon="2.99023">
        <ele>954</ele>
        <time>2022-08-17T15:25:32Z</time>
      </trkpt>
      <trkpt lat="45.64681" lon="2.99017">
        <ele>954</ele>
        <time>2022-08-17T15:25:34Z</time>
      </trkpt>
      <trkpt lat="45.64685" lon="2.9901">
        <ele>954</ele>
        <time>2022-08-17T15:25:36Z</time>
      </trkpt>
      <trkpt lat="45.64688" lon="2.99004">
        <ele>955</ele>
        <time>2022-08-17T15:25:38Z</time>
      </trkpt>
      <trkpt lat="45.64696" lon="2.9899">
        <ele>955</ele>
        <time>2022-08-17T15:25:40Z</time>
      </trkpt>
      <trkpt lat="45.647" lon="2.98984">
        <ele>955</ele>
        <time>2022-08-17T15:25:42Z</time>
      </trkpt>
      <trkpt lat="45.64704" lon="2.98978">
        <ele>955</ele>
        <time>2022-08-17T15:25:44Z</time>
      </trkpt>
      <trkpt lat="45.64707" lon="2.98972">
        <ele>955</ele>
        <time>2022-08-17T15:25:46Z</time>
      </trkpt>
      <trkpt lat="45.64711" lon="2.98966">
        <ele>956</ele>
        <time>2022-08-17T15:25:48Z</time>
      </trkpt>
      <trkpt lat="45.64719" lon="2.98954">
        <ele>956</ele>
        <time>2022-08-17T15:25:50Z</time>
      </trkpt>
      <trkpt lat="45.64723" lon="2.9895">
        <ele>956</ele>
        <time>2022-08-17T15:25:52Z</time>
      </trkpt>
      <trkpt lat="45.64726" lon="2.98946">
        <ele>956</ele>
        <time>2022-08-17T15:25:53Z</time>
      </trkpt>
      <trkpt lat="45.6473" lon="2.98942">
        <ele>956</ele>
        <time>2022-08-17T15:25:55Z</time>
      </trkpt>
      <trkpt lat="45.64733" lon="2.98938">
        <ele>956</ele>
        <time>2022-08-17T15:25:57Z</time>
      </trkpt>
      <trkpt lat="45.64737" lon="2.98933">
        <ele>961</ele>
        <time>2022-08-17T15:25:58Z</time>
      </trkpt>
      <trkpt lat="45.64743" lon="2.98928">
        <ele>961</ele>
        <time>2022-08-17T15:25:59Z</time>
      </trkpt>
      <trkpt lat="45.64747" lon="2.98924">
        <ele>961</ele>
        <time>2022-08-17T15:26:00Z</time>
      </trkpt>
      <trkpt lat="45.64751" lon="2.98921">
        <ele>961</ele>
        <time>2022-08-17T15:26:01Z</time>
      </trkpt>
      <trkpt lat="45.64754" lon="2.98918">
        <ele>961</ele>
        <time>2022-08-17T15:26:02Z</time>
      </trkpt>
      <trkpt lat="45.64758" lon="2.98915">
        <ele>961</ele>
        <time>2022-08-17T15:26:03Z</time>
      </trkpt>
      <trkpt lat="45.64761" lon="2.98912">
        <ele>961</ele>
        <time>2022-08-17T15:26:04Z</time>
      </trkpt>
      <trkpt lat="45.64765" lon="2.98909">
        <ele>961</ele>
        <time>2022-08-17T15:26:05Z</time>
      </trkpt>
      <trkpt lat="45.64769" lon="2.98906">
        <ele>961</ele>
        <time>2022-08-17T15:26:07Z</time>
      </trkpt>
      <trkpt lat="45.64772" lon="2.98903">
        <ele>962</ele>
        <time>2022-08-17T15:26:08Z</time>
      </trkpt>
      <trkpt lat="45.64781" lon="2.98895">
        <ele>962</ele>
        <time>2022-08-17T15:26:09Z</time>
      </trkpt>
      <trkpt lat="45.64786" lon="2.98891">
        <ele>962</ele>
        <time>2022-08-17T15:26:11Z</time>
      </trkpt>
      <trkpt lat="45.6479" lon="2.98887">
        <ele>962</ele>
        <time>2022-08-17T15:26:12Z</time>
      </trkpt>
      <trkpt lat="45.64795" lon="2.98883">
        <ele>962</ele>
        <time>2022-08-17T15:26:13Z</time>
      </trkpt>
      <trkpt lat="45.64799" lon="2.98879">
        <ele>962</ele>
        <time>2022-08-17T15:26:14Z</time>
      </trkpt>
      <trkpt lat="45.64804" lon="2.98875">
        <ele>962</ele>
        <time>2022-08-17T15:26:15Z</time>
      </trkpt>
      <trkpt lat="45.64808" lon="2.98871">
        <ele>962</ele>
        <time>2022-08-17T15:26:16Z</time>
      </trkpt>
      <trkpt lat="45.64813" lon="2.98867">
        <ele>962</ele>
        <time>2022-08-17T15:26:17Z</time>
      </trkpt>
      <trkpt lat="45.64817" lon="2.98863">
        <ele>961</ele>
        <time>2022-08-17T15:26:18Z</time>
      </trkpt>
      <trkpt lat="45.64826" lon="2.98851">
        <ele>961</ele>
        <time>2022-08-17T15:26:19Z</time>
      </trkpt>
      <trkpt lat="45.64829" lon="2.98844">
        <ele>961</ele>
        <time>2022-08-17T15:26:20Z</time>
      </trkpt>
      <trkpt lat="45.64833" lon="2.98838">
        <ele>961</ele>
        <time>2022-08-17T15:26:21Z</time>
      </trkpt>
      <trkpt lat="45.64837" lon="2.98831">
        <ele>961</ele>
        <time>2022-08-17T15:26:22Z</time>
      </trkpt>
      <trkpt lat="45.64841" lon="2.98825">
        <ele>961</ele>
        <time>2022-08-17T15:26:23Z</time>
      </trkpt>
      <trkpt lat="45.64844" lon="2.98818">
        <ele>961</ele>
        <time>2022-08-17T15:26:24Z</time>
      </trkpt>
      <trkpt lat="45.64848" lon="2.98811">
        <ele>961</ele>
        <time>2022-08-17T15:26:25Z</time>
      </trkpt>
      <trkpt lat="45.64852" lon="2.98805">
        <ele>961</ele>
        <time>2022-08-17T15:26:26Z</time>
      </trkpt>
      <trkpt lat="45.64856" lon="2.98798">
        <ele>961</ele>
        <time>2022-08-17T15:26:27Z</time>
      </trkpt>
      <trkpt lat="45.64859" lon="2.98791">
        <ele>961</ele>
        <time>2022-08-17T15:26:28Z</time>
      </trkpt>
      <trkpt lat="45.64868" lon="2.98774">
        <ele>961</ele>
        <time>2022-08-17T15:26:29Z</time>
      </trkpt>
      <trkpt lat="45.64872" lon="2.98766">
        <ele>961</ele>
        <time>2022-08-17T15:26:30Z</time>
      </trkpt>
      <trkpt lat="45.64877" lon="2.98757">
        <ele>961</ele>
        <time>2022-08-17T15:26:31Z</time>
      </trkpt>
      <trkpt lat="45.64881" lon="2.98749">
        <ele>961</ele>
        <time>2022-08-17T15:26:32Z</time>
      </trkpt>
      <trkpt lat="45.64886" lon="2.98741">
        <ele>961</ele>
        <time>2022-08-17T15:26:33Z</time>
      </trkpt>
      <trkpt lat="45.6489" lon="2.98732">
        <ele>961</ele>
        <time>2022-08-17T15:26:34Z</time>
      </trkpt>
      <trkpt lat="45.64895" lon="2.98724">
        <ele>961</ele>
        <time>2022-08-17T15:26:35Z</time>
      </trkpt>
      <trkpt lat="45.64899" lon="2.98715">
        <ele>961</ele>
        <time>2022-08-17T15:26:36Z</time>
      </trkpt>
      <trkpt lat="45.64904" lon="2.98707">
        <ele>961</ele>
        <time>2022-08-17T15:26:37Z</time>
      </trkpt>
      <trkpt lat="45.64908" lon="2.98698">
        <ele>957</ele>
        <time>2022-08-17T15:26:38Z</time>
      </trkpt>
      <trkpt lat="45.6492" lon="2.98682">
        <ele>957</ele>
        <time>2022-08-17T15:26:39Z</time>
      </trkpt>
      <trkpt lat="45.64926" lon="2.98674">
        <ele>957</ele>
        <time>2022-08-17T15:26:40Z</time>
      </trkpt>
      <trkpt lat="45.64931" lon="2.98666">
        <ele>957</ele>
        <time>2022-08-17T15:26:41Z</time>
      </trkpt>
      <trkpt lat="45.64937" lon="2.98658">
        <ele>957</ele>
        <time>2022-08-17T15:26:42Z</time>
      </trkpt>
      <trkpt lat="45.64943" lon="2.9865">
        <ele>957</ele>
        <time>2022-08-17T15:26:43Z</time>
      </trkpt>
      <trkpt lat="45.64949" lon="2.98643">
        <ele>957</ele>
        <time>2022-08-17T15:26:44Z</time>
      </trkpt>
      <trkpt lat="45.64955" lon="2.98635">
        <ele>957</ele>
        <time>2022-08-17T15:26:45Z</time>
      </trkpt>
      <trkpt lat="45.64961" lon="2.98627">
        <ele>957</ele>
        <time>2022-08-17T15:26:46Z</time>
      </trkpt>
      <trkpt lat="45.64966" lon="2.98619">
        <ele>957</ele>
        <time>2022-08-17T15:26:47Z</time>
      </trkpt>
      <trkpt lat="45.64972" lon="2.98611">
        <ele>955</ele>
        <time>2022-08-17T15:26:48Z</time>
      </trkpt>
      <trkpt lat="45.64978" lon="2.98602">
        <ele>955</ele>
        <time>2022-08-17T15:26:49Z</time>
      </trkpt>
      <trkpt lat="45.64984" lon="2.98591">
        <ele>955</ele>
        <time>2022-08-17T15:26:50Z</time>
      </trkpt>
      <trkpt lat="45.6499" lon="2.9858">
        <ele>955</ele>
        <time>2022-08-17T15:26:51Z</time>
      </trkpt>
      <trkpt lat="45.64996" lon="2.98569">
        <ele>955</ele>
        <time>2022-08-17T15:26:52Z</time>
      </trkpt>
      <trkpt lat="45.65001" lon="2.98557">
        <ele>955</ele>
        <time>2022-08-17T15:26:53Z</time>
      </trkpt>
      <trkpt lat="45.65007" lon="2.98545">
        <ele>955</ele>
        <time>2022-08-17T15:26:54Z</time>
      </trkpt>
      <trkpt lat="45.65012" lon="2.98533">
        <ele>955</ele>
        <time>2022-08-17T15:26:55Z</time>
      </trkpt>
      <trkpt lat="45.65018" lon="2.9852">
        <ele>955</ele>
        <time>2022-08-17T15:26:56Z</time>
      </trkpt>
      <trkpt lat="45.65023" lon="2.98508">
        <ele>955</ele>
        <time>2022-08-17T15:26:57Z</time>
      </trkpt>
      <trkpt lat="45.65029" lon="2.98495">
        <ele>950</ele>
        <time>2022-08-17T15:26:58Z</time>
      </trkpt>
      <trkpt lat="45.65035" lon="2.98482">
        <ele>950</ele>
        <time>2022-08-17T15:26:59Z</time>
      </trkpt>
      <trkpt lat="45.6504" lon="2.9847">
        <ele>950</ele>
        <time>2022-08-17T15:27:00Z</time>
      </trkpt>
      <trkpt lat="45.65047" lon="2.98458">
        <ele>950</ele>
        <time>2022-08-17T15:27:01Z</time>
      </trkpt>
      <trkpt lat="45.65054" lon="2.98446">
        <ele>950</ele>
        <time>2022-08-17T15:27:02Z</time>
      </trkpt>
      <trkpt lat="45.65069" lon="2.98426">
        <ele>950</ele>
        <time>2022-08-17T15:27:04Z</time>
      </trkpt>
      <trkpt lat="45.65078" lon="2.98418">
        <ele>950</ele>
        <time>2022-08-17T15:27:05Z</time>
      </trkpt>
      <trkpt lat="45.65087" lon="2.98412">
        <ele>950</ele>
        <time>2022-08-17T15:27:06Z</time>
      </trkpt>
      <trkpt lat="45.65101" lon="2.98407">
        <ele>950</ele>
        <time>2022-08-17T15:27:07Z</time>
      </trkpt>
      <trkpt lat="45.65105" lon="2.98406">
        <ele>944</ele>
        <time>2022-08-17T15:27:08Z</time>
      </trkpt>
      <trkpt lat="45.65121" lon="2.98403">
        <ele>944</ele>
        <time>2022-08-17T15:27:09Z</time>
      </trkpt>
      <trkpt lat="45.65128" lon="2.98403">
        <ele>944</ele>
        <time>2022-08-17T15:27:10Z</time>
      </trkpt>
      <trkpt lat="45.65136" lon="2.98402">
        <ele>944</ele>
        <time>2022-08-17T15:27:11Z</time>
      </trkpt>
      <trkpt lat="45.65143" lon="2.98402">
        <ele>944</ele>
        <time>2022-08-17T15:27:12Z</time>
      </trkpt>
      <trkpt lat="45.6515" lon="2.98401">
        <ele>944</ele>
        <time>2022-08-17T15:27:13Z</time>
      </trkpt>
      <trkpt lat="45.65157" lon="2.98401">
        <ele>944</ele>
        <time>2022-08-17T15:27:14Z</time>
      </trkpt>
      <trkpt lat="45.65164" lon="2.984">
        <ele>944</ele>
        <time>2022-08-17T15:27:15Z</time>
      </trkpt>
      <trkpt lat="45.65171" lon="2.984">
        <ele>944</ele>
        <time>2022-08-17T15:27:16Z</time>
      </trkpt>
      <trkpt lat="45.65178" lon="2.98399">
        <ele>944</ele>
        <time>2022-08-17T15:27:17Z</time>
      </trkpt>
      <trkpt lat="45.65185" lon="2.98399">
        <ele>944</ele>
        <time>2022-08-17T15:27:18Z</time>
      </trkpt>
      <trkpt lat="45.65204" lon="2.98398">
        <ele>944</ele>
        <time>2022-08-17T15:27:20Z</time>
      </trkpt>
      <trkpt lat="45.65209" lon="2.98397">
        <ele>944</ele>
        <time>2022-08-17T15:27:21Z</time>
      </trkpt>
      <trkpt lat="45.65215" lon="2.98396">
        <ele>944</ele>
        <time>2022-08-17T15:27:22Z</time>
      </trkpt>
      <trkpt lat="45.6522" lon="2.98395">
        <ele>944</ele>
        <time>2022-08-17T15:27:23Z</time>
      </trkpt>
      <trkpt lat="45.65225" lon="2.98394">
        <ele>944</ele>
        <time>2022-08-17T15:27:24Z</time>
      </trkpt>
      <trkpt lat="45.6523" lon="2.98394">
        <ele>944</ele>
        <time>2022-08-17T15:27:25Z</time>
      </trkpt>
      <trkpt lat="45.65235" lon="2.98393">
        <ele>944</ele>
        <time>2022-08-17T15:27:26Z</time>
      </trkpt>
      <trkpt lat="45.6524" lon="2.98392">
        <ele>944</ele>
        <time>2022-08-17T15:27:27Z</time>
      </trkpt>
      <trkpt lat="45.65245" lon="2.98391">
        <ele>944</ele>
        <time>2022-08-17T15:27:28Z</time>
      </trkpt>
      <trkpt lat="45.65254" lon="2.98384">
        <ele>944</ele>
        <time>2022-08-17T15:27:29Z</time>
      </trkpt>
      <trkpt lat="45.65257" lon="2.98379">
        <ele>944</ele>
        <time>2022-08-17T15:27:30Z</time>
      </trkpt>
      <trkpt lat="45.6526" lon="2.98374">
        <ele>944</ele>
        <time>2022-08-17T15:27:31Z</time>
      </trkpt>
      <trkpt lat="45.65263" lon="2.98369">
        <ele>944</ele>
        <time>2022-08-17T15:27:32Z</time>
      </trkpt>
      <trkpt lat="45.65266" lon="2.98363">
        <ele>944</ele>
        <time>2022-08-17T15:27:33Z</time>
      </trkpt>
      <trkpt lat="45.65269" lon="2.98358">
        <ele>944</ele>
        <time>2022-08-17T15:27:34Z</time>
      </trkpt>
      <trkpt lat="45.65272" lon="2.98353">
        <ele>944</ele>
        <time>2022-08-17T15:27:35Z</time>
      </trkpt>
      <trkpt lat="45.65275" lon="2.98348">
        <ele>944</ele>
        <time>2022-08-17T15:27:36Z</time>
      </trkpt>
      <trkpt lat="45.65278" lon="2.98343">
        <ele>944</ele>
        <time>2022-08-17T15:27:37Z</time>
      </trkpt>
      <trkpt lat="45.65281" lon="2.98338">
        <ele>946</ele>
        <time>2022-08-17T15:27:38Z</time>
      </trkpt>
      <trkpt lat="45.65287" lon="2.98326">
        <ele>946</ele>
        <time>2022-08-17T15:27:39Z</time>
      </trkpt>
      <trkpt lat="45.6529" lon="2.9832">
        <ele>946</ele>
        <time>2022-08-17T15:27:40Z</time>
      </trkpt>
      <trkpt lat="45.65293" lon="2.98314">
        <ele>946</ele>
        <time>2022-08-17T15:27:41Z</time>
      </trkpt>
      <trkpt lat="45.65295" lon="2.98308">
        <ele>946</ele>
        <time>2022-08-17T15:27:42Z</time>
      </trkpt>
      <trkpt lat="45.65298" lon="2.98302">
        <ele>946</ele>
        <time>2022-08-17T15:27:43Z</time>
      </trkpt>
      <trkpt lat="45.65301" lon="2.98296">
        <ele>946</ele>
        <time>2022-08-17T15:27:44Z</time>
      </trkpt>
      <trkpt lat="45.65304" lon="2.9829">
        <ele>946</ele>
        <time>2022-08-17T15:27:45Z</time>
      </trkpt>
      <trkpt lat="45.65307" lon="2.98284">
        <ele>946</ele>
        <time>2022-08-17T15:27:46Z</time>
      </trkpt>
      <trkpt lat="45.65309" lon="2.98278">
        <ele>946</ele>
        <time>2022-08-17T15:27:47Z</time>
      </trkpt>
      <trkpt lat="45.65312" lon="2.98272">
        <ele>947</ele>
        <time>2022-08-17T15:27:48Z</time>
      </trkpt>
      <trkpt lat="45.65319" lon="2.9826">
        <ele>947</ele>
        <time>2022-08-17T15:27:49Z</time>
      </trkpt>
      <trkpt lat="45.65322" lon="2.98255">
        <ele>947</ele>
        <time>2022-08-17T15:27:50Z</time>
      </trkpt>
      <trkpt lat="45.65325" lon="2.9825">
        <ele>947</ele>
        <time>2022-08-17T15:27:51Z</time>
      </trkpt>
      <trkpt lat="45.65329" lon="2.98244">
        <ele>947</ele>
        <time>2022-08-17T15:27:52Z</time>
      </trkpt>
      <trkpt lat="45.65332" lon="2.98239">
        <ele>947</ele>
        <time>2022-08-17T15:27:53Z</time>
      </trkpt>
      <trkpt lat="45.65336" lon="2.98234">
        <ele>947</ele>
        <time>2022-08-17T15:27:54Z</time>
      </trkpt>
      <trkpt lat="45.65339" lon="2.98229">
        <ele>947</ele>
        <time>2022-08-17T15:27:55Z</time>
      </trkpt>
      <trkpt lat="45.65343" lon="2.98224">
        <ele>947</ele>
        <time>2022-08-17T15:27:56Z</time>
      </trkpt>
      <trkpt lat="45.65346" lon="2.98219">
        <ele>947</ele>
        <time>2022-08-17T15:27:57Z</time>
      </trkpt>
      <trkpt lat="45.6535" lon="2.98213">
        <ele>948</ele>
        <time>2022-08-17T15:27:58Z</time>
      </trkpt>
      <trkpt lat="45.65359" lon="2.98204">
        <ele>948</ele>
        <time>2022-08-17T15:27:59Z</time>
      </trkpt>
      <trkpt lat="45.65363" lon="2.982">
        <ele>948</ele>
        <time>2022-08-17T15:28:00Z</time>
      </trkpt>
      <trkpt lat="45.65367" lon="2.98195">
        <ele>948</ele>
        <time>2022-08-17T15:28:01Z</time>
      </trkpt>
      <trkpt lat="45.65372" lon="2.98191">
        <ele>948</ele>
        <time>2022-08-17T15:28:02Z</time>
      </trkpt>
      <trkpt lat="45.65376" lon="2.98187">
        <ele>948</ele>
        <time>2022-08-17T15:28:03Z</time>
      </trkpt>
      <trkpt lat="45.6538" lon="2.98183">
        <ele>948</ele>
        <time>2022-08-17T15:28:04Z</time>
      </trkpt>
      <trkpt lat="45.65385" lon="2.98178">
        <ele>948</ele>
        <time>2022-08-17T15:28:05Z</time>
      </trkpt>
      <trkpt lat="45.65389" lon="2.98174">
        <ele>948</ele>
        <time>2022-08-17T15:28:06Z</time>
      </trkpt>
      <trkpt lat="45.65393" lon="2.9817">
        <ele>948</ele>
        <time>2022-08-17T15:28:07Z</time>
      </trkpt>
      <trkpt lat="45.65398" lon="2.98165">
        <ele>948</ele>
        <time>2022-08-17T15:28:08Z</time>
      </trkpt>
      <trkpt lat="45.65405" lon="2.98155">
        <ele>948</ele>
        <time>2022-08-17T15:28:09Z</time>
      </trkpt>
      <trkpt lat="45.65407" lon="2.98149">
        <ele>948</ele>
        <time>2022-08-17T15:28:10Z</time>
      </trkpt>
      <trkpt lat="45.65409" lon="2.98143">
        <ele>948</ele>
        <time>2022-08-17T15:28:11Z</time>
      </trkpt>
      <trkpt lat="45.65412" lon="2.98137">
        <ele>948</ele>
        <time>2022-08-17T15:28:12Z</time>
      </trkpt>
      <trkpt lat="45.65414" lon="2.98131">
        <ele>948</ele>
        <time>2022-08-17T15:28:13Z</time>
      </trkpt>
      <trkpt lat="45.65417" lon="2.98125">
        <ele>948</ele>
        <time>2022-08-17T15:28:14Z</time>
      </trkpt>
      <trkpt lat="45.65419" lon="2.98119">
        <ele>948</ele>
        <time>2022-08-17T15:28:15Z</time>
      </trkpt>
      <trkpt lat="45.65421" lon="2.98114">
        <ele>948</ele>
        <time>2022-08-17T15:28:16Z</time>
      </trkpt>
      <trkpt lat="45.65424" lon="2.98108">
        <ele>948</ele>
        <time>2022-08-17T15:28:17Z</time>
      </trkpt>
      <trkpt lat="45.65426" lon="2.98102">
        <ele>950</ele>
        <time>2022-08-17T15:28:18Z</time>
      </trkpt>
      <trkpt lat="45.65427" lon="2.98086">
        <ele>950</ele>
        <time>2022-08-17T15:28:19Z</time>
      </trkpt>
      <trkpt lat="45.65427" lon="2.98078">
        <ele>950</ele>
        <time>2022-08-17T15:28:20Z</time>
      </trkpt>
      <trkpt lat="45.65427" lon="2.98071">
        <ele>950</ele>
        <time>2022-08-17T15:28:21Z</time>
      </trkpt>
      <trkpt lat="45.65428" lon="2.98063">
        <ele>950</ele>
        <time>2022-08-17T15:28:22Z</time>
      </trkpt>
      <trkpt lat="45.65428" lon="2.98056">
        <ele>950</ele>
        <time>2022-08-17T15:28:23Z</time>
      </trkpt>
      <trkpt lat="45.65428" lon="2.98048">
        <ele>950</ele>
        <time>2022-08-17T15:28:24Z</time>
      </trkpt>
      <trkpt lat="45.65428" lon="2.9804">
        <ele>950</ele>
        <time>2022-08-17T15:28:25Z</time>
      </trkpt>
      <trkpt lat="45.65428" lon="2.98033">
        <ele>950</ele>
        <time>2022-08-17T15:28:26Z</time>
      </trkpt>
      <trkpt lat="45.65428" lon="2.98025">
        <ele>950</ele>
        <time>2022-08-17T15:28:27Z</time>
      </trkpt>
      <trkpt lat="45.65428" lon="2.98017">
        <ele>951</ele>
        <time>2022-08-17T15:28:28Z</time>
      </trkpt>
      <trkpt lat="45.65425" lon="2.98002">
        <ele>951</ele>
        <time>2022-08-17T15:28:29Z</time>
      </trkpt>
      <trkpt lat="45.65422" lon="2.97995">
        <ele>951</ele>
        <time>2022-08-17T15:28:30Z</time>
      </trkpt>
      <trkpt lat="45.65419" lon="2.97988">
        <ele>951</ele>
        <time>2022-08-17T15:28:31Z</time>
      </trkpt>
      <trkpt lat="45.65417" lon="2.97981">
        <ele>951</ele>
        <time>2022-08-17T15:28:32Z</time>
      </trkpt>
      <trkpt lat="45.65414" lon="2.97974">
        <ele>951</ele>
        <time>2022-08-17T15:28:33Z</time>
      </trkpt>
      <trkpt lat="45.65412" lon="2.97967">
        <ele>951</ele>
        <time>2022-08-17T15:28:34Z</time>
      </trkpt>
      <trkpt lat="45.65409" lon="2.9796">
        <ele>951</ele>
        <time>2022-08-17T15:28:35Z</time>
      </trkpt>
      <trkpt lat="45.65406" lon="2.97954">
        <ele>951</ele>
        <time>2022-08-17T15:28:36Z</time>
      </trkpt>
      <trkpt lat="45.65404" lon="2.97947">
        <ele>951</ele>
        <time>2022-08-17T15:28:37Z</time>
      </trkpt>
      <trkpt lat="45.65401" lon="2.9794">
        <ele>952</ele>
        <time>2022-08-17T15:28:38Z</time>
      </trkpt>
      <trkpt lat="45.65394" lon="2.97927">
        <ele>952</ele>
        <time>2022-08-17T15:28:39Z</time>
      </trkpt>
      <trkpt lat="45.65391" lon="2.9792">
        <ele>952</ele>
        <time>2022-08-17T15:28:40Z</time>
      </trkpt>
      <trkpt lat="45.65388" lon="2.97914">
        <ele>952</ele>
        <time>2022-08-17T15:28:41Z</time>
      </trkpt>
      <trkpt lat="45.65385" lon="2.97908">
        <ele>952</ele>
        <time>2022-08-17T15:28:42Z</time>
      </trkpt>
      <trkpt lat="45.65382" lon="2.97902">
        <ele>952</ele>
        <time>2022-08-17T15:28:43Z</time>
      </trkpt>
      <trkpt lat="45.65379" lon="2.97896">
        <ele>952</ele>
        <time>2022-08-17T15:28:44Z</time>
      </trkpt>
      <trkpt lat="45.65375" lon="2.9789">
        <ele>952</ele>
        <time>2022-08-17T15:28:45Z</time>
      </trkpt>
      <trkpt lat="45.65372" lon="2.97884">
        <ele>952</ele>
        <time>2022-08-17T15:28:46Z</time>
      </trkpt>
      <trkpt lat="45.65369" lon="2.97878">
        <ele>952</ele>
        <time>2022-08-17T15:28:47Z</time>
      </trkpt>
      <trkpt lat="45.65366" lon="2.97872">
        <ele>954</ele>
        <time>2022-08-17T15:28:48Z</time>
      </trkpt>
      <trkpt lat="45.65357" lon="2.97852">
        <ele>954</ele>
        <time>2022-08-17T15:28:50Z</time>
      </trkpt>
      <trkpt lat="45.65355" lon="2.97846">
        <ele>954</ele>
        <time>2022-08-17T15:28:51Z</time>
      </trkpt>
      <trkpt lat="45.65353" lon="2.97839">
        <ele>954</ele>
        <time>2022-08-17T15:28:52Z</time>
      </trkpt>
      <trkpt lat="45.6535" lon="2.97833">
        <ele>954</ele>
        <time>2022-08-17T15:28:53Z</time>
      </trkpt>
      <trkpt lat="45.65348" lon="2.97827">
        <ele>954</ele>
        <time>2022-08-17T15:28:54Z</time>
      </trkpt>
      <trkpt lat="45.65346" lon="2.9782">
        <ele>954</ele>
        <time>2022-08-17T15:28:55Z</time>
      </trkpt>
      <trkpt lat="45.65344" lon="2.97814">
        <ele>954</ele>
        <time>2022-08-17T15:28:56Z</time>
      </trkpt>
      <trkpt lat="45.65342" lon="2.97807">
        <ele>954</ele>
        <time>2022-08-17T15:28:57Z</time>
      </trkpt>
      <trkpt lat="45.6534" lon="2.97801">
        <ele>954</ele>
        <time>2022-08-17T15:28:58Z</time>
      </trkpt>
      <trkpt lat="45.65343" lon="2.97786">
        <ele>954</ele>
        <time>2022-08-17T15:28:59Z</time>
      </trkpt>
      <trkpt lat="45.65346" lon="2.97779">
        <ele>954</ele>
        <time>2022-08-17T15:29:00Z</time>
      </trkpt>
      <trkpt lat="45.65348" lon="2.97773">
        <ele>954</ele>
        <time>2022-08-17T15:29:01Z</time>
      </trkpt>
      <trkpt lat="45.65351" lon="2.97766">
        <ele>954</ele>
        <time>2022-08-17T15:29:02Z</time>
      </trkpt>
      <trkpt lat="45.65354" lon="2.9776">
        <ele>954</ele>
        <time>2022-08-17T15:29:03Z</time>
      </trkpt>
      <trkpt lat="45.65356" lon="2.97753">
        <ele>954</ele>
        <time>2022-08-17T15:29:04Z</time>
      </trkpt>
      <trkpt lat="45.65359" lon="2.97747">
        <ele>954</ele>
        <time>2022-08-17T15:29:05Z</time>
      </trkpt>
      <trkpt lat="45.65362" lon="2.9774">
        <ele>954</ele>
        <time>2022-08-17T15:29:06Z</time>
      </trkpt>
      <trkpt lat="45.65365" lon="2.97733">
        <ele>954</ele>
        <time>2022-08-17T15:29:07Z</time>
      </trkpt>
      <trkpt lat="45.65367" lon="2.97727">
        <ele>955</ele>
        <time>2022-08-17T15:29:08Z</time>
      </trkpt>
      <trkpt lat="45.65369" lon="2.9771">
        <ele>955</ele>
        <time>2022-08-17T15:29:09Z</time>
      </trkpt>
      <trkpt lat="45.65369" lon="2.97702">
        <ele>955</ele>
        <time>2022-08-17T15:29:10Z</time>
      </trkpt>
      <trkpt lat="45.65369" lon="2.97693">
        <ele>955</ele>
        <time>2022-08-17T15:29:12Z</time>
      </trkpt>
      <trkpt lat="45.65368" lon="2.97684">
        <ele>955</ele>
        <time>2022-08-17T15:29:13Z</time>
      </trkpt>
      <trkpt lat="45.65368" lon="2.97675">
        <ele>955</ele>
        <time>2022-08-17T15:29:14Z</time>
      </trkpt>
      <trkpt lat="45.65368" lon="2.97666">
        <ele>955</ele>
        <time>2022-08-17T15:29:15Z</time>
      </trkpt>
      <trkpt lat="45.65367" lon="2.97658">
        <ele>955</ele>
        <time>2022-08-17T15:29:16Z</time>
      </trkpt>
      <trkpt lat="45.65367" lon="2.97649">
        <ele>955</ele>
        <time>2022-08-17T15:29:17Z</time>
      </trkpt>
      <trkpt lat="45.65367" lon="2.9764">
        <ele>955</ele>
        <time>2022-08-17T15:29:18Z</time>
      </trkpt>
      <trkpt lat="45.65365" lon="2.97623">
        <ele>955</ele>
        <time>2022-08-17T15:29:19Z</time>
      </trkpt>
      <trkpt lat="45.65364" lon="2.97615">
        <ele>955</ele>
        <time>2022-08-17T15:29:20Z</time>
      </trkpt>
      <trkpt lat="45.65363" lon="2.97607">
        <ele>955</ele>
        <time>2022-08-17T15:29:21Z</time>
      </trkpt>
      <trkpt lat="45.65362" lon="2.97599">
        <ele>955</ele>
        <time>2022-08-17T15:29:22Z</time>
      </trkpt>
      <trkpt lat="45.65362" lon="2.97591">
        <ele>955</ele>
        <time>2022-08-17T15:29:23Z</time>
      </trkpt>
      <trkpt lat="45.65361" lon="2.97583">
        <ele>955</ele>
        <time>2022-08-17T15:29:24Z</time>
      </trkpt>
      <trkpt lat="45.6536" lon="2.97575">
        <ele>955</ele>
        <time>2022-08-17T15:29:25Z</time>
      </trkpt>
      <trkpt lat="45.65359" lon="2.97567">
        <ele>955</ele>
        <time>2022-08-17T15:29:26Z</time>
      </trkpt>
      <trkpt lat="45.65358" lon="2.97559">
        <ele>955</ele>
        <time>2022-08-17T15:29:27Z</time>
      </trkpt>
      <trkpt lat="45.65357" lon="2.97551">
        <ele>957</ele>
        <time>2022-08-17T15:29:28Z</time>
      </trkpt>
      <trkpt lat="45.6536" lon="2.97537">
        <ele>957</ele>
        <time>2022-08-17T15:29:29Z</time>
      </trkpt>
      <trkpt lat="45.65363" lon="2.97532">
        <ele>957</ele>
        <time>2022-08-17T15:29:30Z</time>
      </trkpt>
      <trkpt lat="45.65366" lon="2.97527">
        <ele>957</ele>
        <time>2022-08-17T15:29:31Z</time>
      </trkpt>
      <trkpt lat="45.65369" lon="2.97522">
        <ele>957</ele>
        <time>2022-08-17T15:29:32Z</time>
      </trkpt>
      <trkpt lat="45.65371" lon="2.97517">
        <ele>957</ele>
        <time>2022-08-17T15:29:33Z</time>
      </trkpt>
      <trkpt lat="45.65374" lon="2.97512">
        <ele>957</ele>
        <time>2022-08-17T15:29:34Z</time>
      </trkpt>
      <trkpt lat="45.65377" lon="2.97506">
        <ele>957</ele>
        <time>2022-08-17T15:29:35Z</time>
      </trkpt>
      <trkpt lat="45.6538" lon="2.97501">
        <ele>957</ele>
        <time>2022-08-17T15:29:36Z</time>
      </trkpt>
      <trkpt lat="45.65383" lon="2.97496">
        <ele>957</ele>
        <time>2022-08-17T15:29:37Z</time>
      </trkpt>
      <trkpt lat="45.65386" lon="2.97491">
        <ele>957</ele>
        <time>2022-08-17T15:29:38Z</time>
      </trkpt>
      <trkpt lat="45.65395" lon="2.97485">
        <ele>957</ele>
        <time>2022-08-17T15:29:39Z</time>
      </trkpt>
      <trkpt lat="45.65399" lon="2.9748">
        <ele>957</ele>
        <time>2022-08-17T15:29:40Z</time>
      </trkpt>
      <trkpt lat="45.65403" lon="2.97475">
        <ele>957</ele>
        <time>2022-08-17T15:29:41Z</time>
      </trkpt>
      <trkpt lat="45.65407" lon="2.97471">
        <ele>957</ele>
        <time>2022-08-17T15:29:42Z</time>
      </trkpt>
      <trkpt lat="45.65411" lon="2.97466">
        <ele>957</ele>
        <time>2022-08-17T15:29:43Z</time>
      </trkpt>
      <trkpt lat="45.65414" lon="2.97462">
        <ele>957</ele>
        <time>2022-08-17T15:29:44Z</time>
      </trkpt>
      <trkpt lat="45.65418" lon="2.97457">
        <ele>957</ele>
        <time>2022-08-17T15:29:45Z</time>
      </trkpt>
      <trkpt lat="45.65422" lon="2.97452">
        <ele>957</ele>
        <time>2022-08-17T15:29:46Z</time>
      </trkpt>
      <trkpt lat="45.65426" lon="2.97448">
        <ele>957</ele>
        <time>2022-08-17T15:29:47Z</time>
      </trkpt>
      <trkpt lat="45.6543" lon="2.97443">
        <ele>959</ele>
        <time>2022-08-17T15:29:48Z</time>
      </trkpt>
      <trkpt lat="45.65435" lon="2.97429">
        <ele>959</ele>
        <time>2022-08-17T15:29:49Z</time>
      </trkpt>
      <trkpt lat="45.65438" lon="2.97422">
        <ele>959</ele>
        <time>2022-08-17T15:29:50Z</time>
      </trkpt>
      <trkpt lat="45.65441" lon="2.97416">
        <ele>959</ele>
        <time>2022-08-17T15:29:51Z</time>
      </trkpt>
      <trkpt lat="45.65444" lon="2.97409">
        <ele>959</ele>
        <time>2022-08-17T15:29:52Z</time>
      </trkpt>
      <trkpt lat="45.65447" lon="2.97403">
        <ele>959</ele>
        <time>2022-08-17T15:29:53Z</time>
      </trkpt>
      <trkpt lat="45.6545" lon="2.97397">
        <ele>959</ele>
        <time>2022-08-17T15:29:54Z</time>
      </trkpt>
      <trkpt lat="45.65453" lon="2.9739">
        <ele>959</ele>
        <time>2022-08-17T15:29:55Z</time>
      </trkpt>
      <trkpt lat="45.65456" lon="2.97384">
        <ele>959</ele>
        <time>2022-08-17T15:29:56Z</time>
      </trkpt>
      <trkpt lat="45.65459" lon="2.97377">
        <ele>959</ele>
        <time>2022-08-17T15:29:57Z</time>
      </trkpt>
      <trkpt lat="45.65462" lon="2.97371">
        <ele>958</ele>
        <time>2022-08-17T15:29:58Z</time>
      </trkpt>
      <trkpt lat="45.6547" lon="2.97358">
        <ele>958</ele>
        <time>2022-08-17T15:29:59Z</time>
      </trkpt>
      <trkpt lat="45.65473" lon="2.97351">
        <ele>958</ele>
        <time>2022-08-17T15:30:00Z</time>
      </trkpt>
      <trkpt lat="45.65477" lon="2.97345">
        <ele>958</ele>
        <time>2022-08-17T15:30:01Z</time>
      </trkpt>
      <trkpt lat="45.6548" lon="2.97338">
        <ele>958</ele>
        <time>2022-08-17T15:30:02Z</time>
      </trkpt>
      <trkpt lat="45.65483" lon="2.97331">
        <ele>958</ele>
        <time>2022-08-17T15:30:03Z</time>
      </trkpt>
      <trkpt lat="45.65486" lon="2.97325">
        <ele>958</ele>
        <time>2022-08-17T15:30:04Z</time>
      </trkpt>
      <trkpt lat="45.65489" lon="2.97318">
        <ele>958</ele>
        <time>2022-08-17T15:30:05Z</time>
      </trkpt>
      <trkpt lat="45.65493" lon="2.97311">
        <ele>958</ele>
        <time>2022-08-17T15:30:06Z</time>
      </trkpt>
      <trkpt lat="45.65496" lon="2.97305">
        <ele>958</ele>
        <time>2022-08-17T15:30:07Z</time>
      </trkpt>
      <trkpt lat="45.65499" lon="2.97298">
        <ele>958</ele>
        <time>2022-08-17T15:30:08Z</time>
      </trkpt>
      <trkpt lat="45.65505" lon="2.97284">
        <ele>958</ele>
        <time>2022-08-17T15:30:09Z</time>
      </trkpt>
      <trkpt lat="45.65508" lon="2.97278">
        <ele>958</ele>
        <time>2022-08-17T15:30:10Z</time>
      </trkpt>
      <trkpt lat="45.65511" lon="2.97273">
        <ele>958</ele>
        <time>2022-08-17T15:30:11Z</time>
      </trkpt>
      <trkpt lat="45.65515" lon="2.97267">
        <ele>958</ele>
        <time>2022-08-17T15:30:12Z</time>
      </trkpt>
      <trkpt lat="45.65518" lon="2.97261">
        <ele>958</ele>
        <time>2022-08-17T15:30:13Z</time>
      </trkpt>
      <trkpt lat="45.65521" lon="2.97255">
        <ele>958</ele>
        <time>2022-08-17T15:30:14Z</time>
      </trkpt>
      <trkpt lat="45.65525" lon="2.9725">
        <ele>958</ele>
        <time>2022-08-17T15:30:15Z</time>
      </trkpt>
      <trkpt lat="45.65528" lon="2.97244">
        <ele>958</ele>
        <time>2022-08-17T15:30:16Z</time>
      </trkpt>
      <trkpt lat="45.65531" lon="2.97238">
        <ele>958</ele>
        <time>2022-08-17T15:30:17Z</time>
      </trkpt>
      <trkpt lat="45.65535" lon="2.97233">
        <ele>958</ele>
        <time>2022-08-17T15:30:18Z</time>
      </trkpt>
      <trkpt lat="45.65546" lon="2.97224">
        <ele>958</ele>
        <time>2022-08-17T15:30:19Z</time>
      </trkpt>
      <trkpt lat="45.65551" lon="2.97218">
        <ele>958</ele>
        <time>2022-08-17T15:30:20Z</time>
      </trkpt>
      <trkpt lat="45.65556" lon="2.97213">
        <ele>958</ele>
        <time>2022-08-17T15:30:21Z</time>
      </trkpt>
      <trkpt lat="45.65562" lon="2.97207">
        <ele>958</ele>
        <time>2022-08-17T15:30:22Z</time>
      </trkpt>
      <trkpt lat="45.65567" lon="2.97202">
        <ele>958</ele>
        <time>2022-08-17T15:30:23Z</time>
      </trkpt>
      <trkpt lat="45.65572" lon="2.97196">
        <ele>958</ele>
        <time>2022-08-17T15:30:24Z</time>
      </trkpt>
      <trkpt lat="45.65577" lon="2.97191">
        <ele>958</ele>
        <time>2022-08-17T15:30:25Z</time>
      </trkpt>
      <trkpt lat="45.65582" lon="2.97185">
        <ele>958</ele>
        <time>2022-08-17T15:30:26Z</time>
      </trkpt>
      <trkpt lat="45.65588" lon="2.97179">
        <ele>958</ele>
        <time>2022-08-17T15:30:27Z</time>
      </trkpt>
      <trkpt lat="45.65593" lon="2.97174">
        <ele>957</ele>
        <time>2022-08-17T15:30:28Z</time>
      </trkpt>
      <trkpt lat="45.65599" lon="2.97157">
        <ele>957</ele>
        <time>2022-08-17T15:30:29Z</time>
      </trkpt>
      <trkpt lat="45.656" lon="2.97148">
        <ele>957</ele>
        <time>2022-08-17T15:30:30Z</time>
      </trkpt>
      <trkpt lat="45.65601" lon="2.97139">
        <ele>957</ele>
        <time>2022-08-17T15:30:31Z</time>
      </trkpt>
      <trkpt lat="45.65602" lon="2.9713">
        <ele>957</ele>
        <time>2022-08-17T15:30:32Z</time>
      </trkpt>
      <trkpt lat="45.65603" lon="2.9712">
        <ele>957</ele>
        <time>2022-08-17T15:30:33Z</time>
      </trkpt>
      <trkpt lat="45.65604" lon="2.97111">
        <ele>957</ele>
        <time>2022-08-17T15:30:34Z</time>
      </trkpt>
      <trkpt lat="45.65605" lon="2.97102">
        <ele>957</ele>
        <time>2022-08-17T15:30:35Z</time>
      </trkpt>
      <trkpt lat="45.65606" lon="2.97093">
        <ele>957</ele>
        <time>2022-08-17T15:30:36Z</time>
      </trkpt>
      <trkpt lat="45.65607" lon="2.97084">
        <ele>957</ele>
        <time>2022-08-17T15:30:37Z</time>
      </trkpt>
      <trkpt lat="45.65607" lon="2.97074">
        <ele>955</ele>
        <time>2022-08-17T15:30:38Z</time>
      </trkpt>
      <trkpt lat="45.65601" lon="2.97055">
        <ele>955</ele>
        <time>2022-08-17T15:30:39Z</time>
      </trkpt>
      <trkpt lat="45.65598" lon="2.97045">
        <ele>955</ele>
        <time>2022-08-17T15:30:40Z</time>
      </trkpt>
      <trkpt lat="45.65594" lon="2.97036">
        <ele>955</ele>
        <time>2022-08-17T15:30:41Z</time>
      </trkpt>
      <trkpt lat="45.6559" lon="2.97027">
        <ele>955</ele>
        <time>2022-08-17T15:30:42Z</time>
      </trkpt>
      <trkpt lat="45.65586" lon="2.97017">
        <ele>955</ele>
        <time>2022-08-17T15:30:43Z</time>
      </trkpt>
      <trkpt lat="45.65583" lon="2.97008">
        <ele>955</ele>
        <time>2022-08-17T15:30:44Z</time>
      </trkpt>
      <trkpt lat="45.65579" lon="2.96999">
        <ele>955</ele>
        <time>2022-08-17T15:30:45Z</time>
      </trkpt>
      <trkpt lat="45.65575" lon="2.96989">
        <ele>955</ele>
        <time>2022-08-17T15:30:46Z</time>
      </trkpt>
      <trkpt lat="45.65572" lon="2.9698">
        <ele>955</ele>
        <time>2022-08-17T15:30:47Z</time>
      </trkpt>
      <trkpt lat="45.65568" lon="2.96971">
        <ele>954</ele>
        <time>2022-08-17T15:30:48Z</time>
      </trkpt>
      <trkpt lat="45.65559" lon="2.96951">
        <ele>954</ele>
        <time>2022-08-17T15:30:49Z</time>
      </trkpt>
      <trkpt lat="45.65554" lon="2.96942">
        <ele>954</ele>
        <time>2022-08-17T15:30:50Z</time>
      </trkpt>
      <trkpt lat="45.65549" lon="2.96934">
        <ele>954</ele>
        <time>2022-08-17T15:30:51Z</time>
      </trkpt>
      <trkpt lat="45.65544" lon="2.96925">
        <ele>954</ele>
        <time>2022-08-17T15:30:52Z</time>
      </trkpt>
      <trkpt lat="45.65539" lon="2.96917">
        <ele>954</ele>
        <time>2022-08-17T15:30:53Z</time>
      </trkpt>
      <trkpt lat="45.65534" lon="2.96909">
        <ele>954</ele>
        <time>2022-08-17T15:30:54Z</time>
      </trkpt>
      <trkpt lat="45.65528" lon="2.969">
        <ele>954</ele>
        <time>2022-08-17T15:30:55Z</time>
      </trkpt>
      <trkpt lat="45.65523" lon="2.96892">
        <ele>954</ele>
        <time>2022-08-17T15:30:56Z</time>
      </trkpt>
      <trkpt lat="45.65518" lon="2.96883">
        <ele>954</ele>
        <time>2022-08-17T15:30:57Z</time>
      </trkpt>
      <trkpt lat="45.65513" lon="2.96875">
        <ele>949</ele>
        <time>2022-08-17T15:30:58Z</time>
      </trkpt>
      <trkpt lat="45.65509" lon="2.96863">
        <ele>949</ele>
        <time>2022-08-17T15:30:59Z</time>
      </trkpt>
      <trkpt lat="45.65505" lon="2.96851">
        <ele>949</ele>
        <time>2022-08-17T15:31:00Z</time>
      </trkpt>
      <trkpt lat="45.65502" lon="2.96838">
        <ele>949</ele>
        <time>2022-08-17T15:31:01Z</time>
      </trkpt>
      <trkpt lat="45.65499" lon="2.96826">
        <ele>949</ele>
        <time>2022-08-17T15:31:02Z</time>
      </trkpt>
      <trkpt lat="45.65495" lon="2.96813">
        <ele>949</ele>
        <time>2022-08-17T15:31:03Z</time>
      </trkpt>
      <trkpt lat="45.65491" lon="2.96801">
        <ele>949</ele>
        <time>2022-08-17T15:31:04Z</time>
      </trkpt>
      <trkpt lat="45.65487" lon="2.96789">
        <ele>949</ele>
        <time>2022-08-17T15:31:05Z</time>
      </trkpt>
      <trkpt lat="45.65483" lon="2.96776">
        <ele>949</ele>
        <time>2022-08-17T15:31:06Z</time>
      </trkpt>
      <trkpt lat="45.65481" lon="2.96764">
        <ele>949</ele>
        <time>2022-08-17T15:31:07Z</time>
      </trkpt>
      <trkpt lat="45.65479" lon="2.96752">
        <ele>945</ele>
        <time>2022-08-17T15:31:08Z</time>
      </trkpt>
      <trkpt lat="45.65477" lon="2.9674">
        <ele>945</ele>
        <time>2022-08-17T15:31:09Z</time>
      </trkpt>
      <trkpt lat="45.65475" lon="2.96728">
        <ele>945</ele>
        <time>2022-08-17T15:31:10Z</time>
      </trkpt>
      <trkpt lat="45.65476" lon="2.96716">
        <ele>945</ele>
        <time>2022-08-17T15:31:11Z</time>
      </trkpt>
      <trkpt lat="45.65479" lon="2.96703">
        <ele>945</ele>
        <time>2022-08-17T15:31:12Z</time>
      </trkpt>
      <trkpt lat="45.65483" lon="2.9669">
        <ele>945</ele>
        <time>2022-08-17T15:31:13Z</time>
      </trkpt>
      <trkpt lat="45.6549" lon="2.96677">
        <ele>945</ele>
        <time>2022-08-17T15:31:14Z</time>
      </trkpt>
      <trkpt lat="45.65498" lon="2.96666">
        <ele>945</ele>
        <time>2022-08-17T15:31:15Z</time>
      </trkpt>
      <trkpt lat="45.65507" lon="2.96656">
        <ele>945</ele>
        <time>2022-08-17T15:31:16Z</time>
      </trkpt>
      <trkpt lat="45.65517" lon="2.96649">
        <ele>945</ele>
        <time>2022-08-17T15:31:17Z</time>
      </trkpt>
      <trkpt lat="45.65527" lon="2.96643">
        <ele>940</ele>
        <time>2022-08-17T15:31:18Z</time>
      </trkpt>
      <trkpt lat="45.65548" lon="2.96637">
        <ele>940</ele>
        <time>2022-08-17T15:31:19Z</time>
      </trkpt>
      <trkpt lat="45.65557" lon="2.96636">
        <ele>940</ele>
        <time>2022-08-17T15:31:20Z</time>
      </trkpt>
      <trkpt lat="45.65567" lon="2.96634">
        <ele>940</ele>
        <time>2022-08-17T15:31:21Z</time>
      </trkpt>
      <trkpt lat="45.65577" lon="2.96633">
        <ele>940</ele>
        <time>2022-08-17T15:31:23Z</time>
      </trkpt>
      <trkpt lat="45.65587" lon="2.96632">
        <ele>940</ele>
        <time>2022-08-17T15:31:24Z</time>
      </trkpt>
      <trkpt lat="45.65597" lon="2.96631">
        <ele>940</ele>
        <time>2022-08-17T15:31:26Z</time>
      </trkpt>
      <trkpt lat="45.65607" lon="2.9663">
        <ele>938</ele>
        <time>2022-08-17T15:31:28Z</time>
      </trkpt>
      <trkpt lat="45.65616" lon="2.96625">
        <ele>938</ele>
        <time>2022-08-17T15:31:29Z</time>
      </trkpt>
      <trkpt lat="45.6562" lon="2.96622">
        <ele>938</ele>
        <time>2022-08-17T15:31:30Z</time>
      </trkpt>
      <trkpt lat="45.65625" lon="2.96618">
        <ele>938</ele>
        <time>2022-08-17T15:31:31Z</time>
      </trkpt>
      <trkpt lat="45.65629" lon="2.96614">
        <ele>938</ele>
        <time>2022-08-17T15:31:32Z</time>
      </trkpt>
      <trkpt lat="45.65633" lon="2.96611">
        <ele>938</ele>
        <time>2022-08-17T15:31:33Z</time>
      </trkpt>
      <trkpt lat="45.65637" lon="2.96607">
        <ele>938</ele>
        <time>2022-08-17T15:31:34Z</time>
      </trkpt>
      <trkpt lat="45.65641" lon="2.96603">
        <ele>938</ele>
        <time>2022-08-17T15:31:35Z</time>
      </trkpt>
      <trkpt lat="45.65645" lon="2.96599">
        <ele>938</ele>
        <time>2022-08-17T15:31:37Z</time>
      </trkpt>
      <trkpt lat="45.65649" lon="2.96596">
        <ele>937</ele>
        <time>2022-08-17T15:31:38Z</time>
      </trkpt>
      <trkpt lat="45.65658" lon="2.9659">
        <ele>937</ele>
        <time>2022-08-17T15:31:39Z</time>
      </trkpt>
      <trkpt lat="45.65663" lon="2.96586">
        <ele>937</ele>
        <time>2022-08-17T15:31:41Z</time>
      </trkpt>
      <trkpt lat="45.65668" lon="2.96583">
        <ele>937</ele>
        <time>2022-08-17T15:31:43Z</time>
      </trkpt>
      <trkpt lat="45.65673" lon="2.9658">
        <ele>937</ele>
        <time>2022-08-17T15:31:45Z</time>
      </trkpt>
      <trkpt lat="45.65678" lon="2.96576">
        <ele>937</ele>
        <time>2022-08-17T15:31:46Z</time>
      </trkpt>
      <trkpt lat="45.65683" lon="2.96573">
        <ele>937</ele>
        <time>2022-08-17T15:31:47Z</time>
      </trkpt>
      <trkpt lat="45.65689" lon="2.9657">
        <ele>939</ele>
        <time>2022-08-17T15:31:48Z</time>
      </trkpt>
      <trkpt lat="45.65699" lon="2.96571">
        <ele>939</ele>
        <time>2022-08-17T15:31:49Z</time>
      </trkpt>
      <trkpt lat="45.65704" lon="2.96573">
        <ele>939</ele>
        <time>2022-08-17T15:31:50Z</time>
      </trkpt>
      <trkpt lat="45.65709" lon="2.96575">
        <ele>939</ele>
        <time>2022-08-17T15:31:51Z</time>
      </trkpt>
      <trkpt lat="45.65715" lon="2.96578">
        <ele>939</ele>
        <time>2022-08-17T15:31:52Z</time>
      </trkpt>
      <trkpt lat="45.6572" lon="2.9658">
        <ele>939</ele>
        <time>2022-08-17T15:31:53Z</time>
      </trkpt>
      <trkpt lat="45.65726" lon="2.96582">
        <ele>939</ele>
        <time>2022-08-17T15:31:54Z</time>
      </trkpt>
      <trkpt lat="45.65731" lon="2.96584">
        <ele>939</ele>
        <time>2022-08-17T15:31:55Z</time>
      </trkpt>
      <trkpt lat="45.65736" lon="2.96586">
        <ele>939</ele>
        <time>2022-08-17T15:31:56Z</time>
      </trkpt>
      <trkpt lat="45.65742" lon="2.96589">
        <ele>939</ele>
        <time>2022-08-17T15:31:57Z</time>
      </trkpt>
      <trkpt lat="45.65747" lon="2.96591">
        <ele>939</ele>
        <time>2022-08-17T15:31:58Z</time>
      </trkpt>
      <trkpt lat="45.65761" lon="2.96598">
        <ele>939</ele>
        <time>2022-08-17T15:31:59Z</time>
      </trkpt>
      <trkpt lat="45.65767" lon="2.96602">
        <ele>939</ele>
        <time>2022-08-17T15:32:00Z</time>
      </trkpt>
      <trkpt lat="45.65773" lon="2.96605">
        <ele>939</ele>
        <time>2022-08-17T15:32:01Z</time>
      </trkpt>
      <trkpt lat="45.6578" lon="2.96609">
        <ele>939</ele>
        <time>2022-08-17T15:32:02Z</time>
      </trkpt>
      <trkpt lat="45.65786" lon="2.96612">
        <ele>939</ele>
        <time>2022-08-17T15:32:03Z</time>
      </trkpt>
      <trkpt lat="45.65793" lon="2.96616">
        <ele>939</ele>
        <time>2022-08-17T15:32:04Z</time>
      </trkpt>
      <trkpt lat="45.65799" lon="2.9662">
        <ele>939</ele>
        <time>2022-08-17T15:32:05Z</time>
      </trkpt>
      <trkpt lat="45.65805" lon="2.96623">
        <ele>939</ele>
        <time>2022-08-17T15:32:06Z</time>
      </trkpt>
      <trkpt lat="45.65812" lon="2.96627">
        <ele>939</ele>
        <time>2022-08-17T15:32:07Z</time>
      </trkpt>
      <trkpt lat="45.65818" lon="2.96631">
        <ele>936</ele>
        <time>2022-08-17T15:32:08Z</time>
      </trkpt>
      <trkpt lat="45.65831" lon="2.96634">
        <ele>936</ele>
        <time>2022-08-17T15:32:09Z</time>
      </trkpt>
      <trkpt lat="45.65837" lon="2.96636">
        <ele>936</ele>
        <time>2022-08-17T15:32:10Z</time>
      </trkpt>
      <trkpt lat="45.65843" lon="2.96638">
        <ele>936</ele>
        <time>2022-08-17T15:32:11Z</time>
      </trkpt>
      <trkpt lat="45.65849" lon="2.9664">
        <ele>936</ele>
        <time>2022-08-17T15:32:12Z</time>
      </trkpt>
      <trkpt lat="45.65855" lon="2.96641">
        <ele>936</ele>
        <time>2022-08-17T15:32:13Z</time>
      </trkpt>
      <trkpt lat="45.6586" lon="2.96643">
        <ele>936</ele>
        <time>2022-08-17T15:32:14Z</time>
      </trkpt>
      <trkpt lat="45.65866" lon="2.96645">
        <ele>936</ele>
        <time>2022-08-17T15:32:15Z</time>
      </trkpt>
      <trkpt lat="45.65872" lon="2.96647">
        <ele>936</ele>
        <time>2022-08-17T15:32:16Z</time>
      </trkpt>
      <trkpt lat="45.65878" lon="2.96649">
        <ele>936</ele>
        <time>2022-08-17T15:32:17Z</time>
      </trkpt>
      <trkpt lat="45.65884" lon="2.96651">
        <ele>934</ele>
        <time>2022-08-17T15:32:18Z</time>
      </trkpt>
      <trkpt lat="45.65896" lon="2.96654">
        <ele>934</ele>
        <time>2022-08-17T15:32:19Z</time>
      </trkpt>
      <trkpt lat="45.65903" lon="2.96654">
        <ele>934</ele>
        <time>2022-08-17T15:32:21Z</time>
      </trkpt>
      <trkpt lat="45.6591" lon="2.96654">
        <ele>934</ele>
        <time>2022-08-17T15:32:22Z</time>
      </trkpt>
      <trkpt lat="45.65917" lon="2.96654">
        <ele>934</ele>
        <time>2022-08-17T15:32:23Z</time>
      </trkpt>
      <trkpt lat="45.65924" lon="2.96654">
        <ele>934</ele>
        <time>2022-08-17T15:32:24Z</time>
      </trkpt>
      <trkpt lat="45.6593" lon="2.96654">
        <ele>934</ele>
        <time>2022-08-17T15:32:26Z</time>
      </trkpt>
      <trkpt lat="45.65937" lon="2.96654">
        <ele>933</ele>
        <time>2022-08-17T15:32:28Z</time>
      </trkpt>
      <trkpt lat="45.65954" lon="2.96655">
        <ele>933</ele>
        <time>2022-08-17T15:32:30Z</time>
      </trkpt>
      <trkpt lat="45.65962" lon="2.96655">
        <ele>933</ele>
        <time>2022-08-17T15:32:32Z</time>
      </trkpt>
      <trkpt lat="45.6597" lon="2.96656">
        <ele>933</ele>
        <time>2022-08-17T15:32:34Z</time>
      </trkpt>
      <trkpt lat="45.65977" lon="2.96656">
        <ele>933</ele>
        <time>2022-08-17T15:32:36Z</time>
      </trkpt>
      <trkpt lat="45.65985" lon="2.96657">
        <ele>934</ele>
        <time>2022-08-17T15:32:38Z</time>
      </trkpt>
      <trkpt lat="45.66" lon="2.9666">
        <ele>934</ele>
        <time>2022-08-17T15:32:40Z</time>
      </trkpt>
      <trkpt lat="45.66006" lon="2.96662">
        <ele>934</ele>
        <time>2022-08-17T15:32:42Z</time>
      </trkpt>
      <trkpt lat="45.66013" lon="2.96664">
        <ele>934</ele>
        <time>2022-08-17T15:32:45Z</time>
      </trkpt>
      <trkpt lat="45.66019" lon="2.96666">
        <ele>934</ele>
        <time>2022-08-17T15:32:47Z</time>
      </trkpt>
      <trkpt lat="45.66025" lon="2.96668">
        <ele>936</ele>
        <time>2022-08-17T15:32:48Z</time>
      </trkpt>
      <trkpt lat="45.66037" lon="2.96667">
        <ele>936</ele>
        <time>2022-08-17T15:32:49Z</time>
      </trkpt>
      <trkpt lat="45.66044" lon="2.96665">
        <ele>936</ele>
        <time>2022-08-17T15:32:51Z</time>
      </trkpt>
      <trkpt lat="45.66051" lon="2.96664">
        <ele>936</ele>
        <time>2022-08-17T15:32:53Z</time>
      </trkpt>
      <trkpt lat="45.66058" lon="2.96663">
        <ele>936</ele>
        <time>2022-08-17T15:32:55Z</time>
      </trkpt>
      <trkpt lat="45.66066" lon="2.96662">
        <ele>936</ele>
        <time>2022-08-17T15:32:57Z</time>
      </trkpt>
      <trkpt lat="45.66073" lon="2.96661">
        <ele>941</ele>
        <time>2022-08-17T15:32:58Z</time>
      </trkpt>
      <trkpt lat="45.66086" lon="2.9666">
        <ele>941</ele>
        <time>2022-08-17T15:33:00Z</time>
      </trkpt>
      <trkpt lat="45.66092" lon="2.9666">
        <ele>941</ele>
        <time>2022-08-17T15:33:02Z</time>
      </trkpt>
      <trkpt lat="45.66099" lon="2.9666">
        <ele>941</ele>
        <time>2022-08-17T15:33:04Z</time>
      </trkpt>
      <trkpt lat="45.66105" lon="2.9666">
        <ele>941</ele>
        <time>2022-08-17T15:33:06Z</time>
      </trkpt>
      <trkpt lat="45.66111" lon="2.96659">
        <ele>944</ele>
        <time>2022-08-17T15:33:08Z</time>
      </trkpt>
      <trkpt lat="45.66119" lon="2.96664">
        <ele>944</ele>
        <time>2022-08-17T15:33:10Z</time>
      </trkpt>
      <trkpt lat="45.66119" lon="2.96669">
        <ele>944</ele>
        <time>2022-08-17T15:33:13Z</time>
      </trkpt>
      <trkpt lat="45.6612" lon="2.96674">
        <ele>944</ele>
        <time>2022-08-17T15:33:16Z</time>
      </trkpt>
      <trkpt lat="45.66121" lon="2.9668">
        <ele>945</ele>
        <time>2022-08-17T15:33:18Z</time>
      </trkpt>
      <trkpt lat="45.66116" lon="2.96689">
        <ele>945</ele>
        <time>2022-08-17T15:33:20Z</time>
      </trkpt>
      <trkpt lat="45.66112" lon="2.96698">
        <ele>945</ele>
        <time>2022-08-17T15:33:22Z</time>
      </trkpt>
      <trkpt lat="45.6611" lon="2.96706">
        <ele>945</ele>
        <time>2022-08-17T15:33:24Z</time>
      </trkpt>
      <trkpt lat="45.6611" lon="2.96706">
        <ele>943</ele>
        <time>2022-08-17T15:33:28Z</time>
      </trkpt>
      <trkpt lat="45.66111" lon="2.96706">
        <ele>941</ele>
        <time>2022-08-17T15:33:36Z</time>
      </trkpt>
    </trkseg>
  </trk>
</gpx>